<?xml version="1.0" encoding="UTF-8" standalone="no" ?>
<gpx xmlns="http://www.topografix.com/GPX/1/1" xmlns:xsi="http://www.w3.org/2001/XMLSchema-instance" xsi:schemaLocation="http://www.topografix.com/GPX/1/1 http://www.topografix.com/GPX/1/1/gpx.xsd" version="1.1" creator="VisuGPX - https://www.visugpx.com">
  <metadata>
    <name>Petite Routes du Soleil (projet)- Traversée des préalpes gravel Gravel - Projet</name>
    <desc><![CDATA[Projet de Traversée des Préalpes Gravel
Document de travail pour définir l'itinéraire]]></desc>
  </metadata>
  <trk>
    <name><![CDATA[PRDS-gravel -1]]></name>
    <extensions>
      <line xmlns="http://www.topografix.com/GPX/gpx_style/0/2">
        <color>FF0000</color>
        <width>4</width>
      </line>
    </extensions>
    <trkseg>
      <trkpt lat="46.37317" lon="6.47789">
        <ele>425.19</ele>
        <time>2024-01-29T09:30:19Z</time>
      </trkpt>
      <trkpt lat="46.37303" lon="6.47768">
        <ele>425.08</ele>
        <time>2024-01-29T09:30:33Z</time>
      </trkpt>
      <trkpt lat="46.3729" lon="6.4779">
        <ele>425.37</ele>
        <time>2024-01-29T09:30:38Z</time>
      </trkpt>
      <trkpt lat="46.37295" lon="6.47802">
        <ele>425.29</ele>
        <time>2024-01-29T09:30:40Z</time>
      </trkpt>
      <trkpt lat="46.37304" lon="6.47818">
        <ele>425.24</ele>
        <time>2024-01-29T09:30:44Z</time>
      </trkpt>
      <trkpt lat="46.37324" lon="6.4783">
        <ele>425.39</ele>
        <time>2024-01-29T09:30:49Z</time>
      </trkpt>
      <trkpt lat="46.37326" lon="6.47833">
        <ele>425.41</ele>
        <time>2024-01-29T09:30:50Z</time>
      </trkpt>
      <trkpt lat="46.37349" lon="6.47864">
        <ele>425.05</ele>
        <time>2024-01-29T09:30:56Z</time>
      </trkpt>
      <trkpt lat="46.37374" lon="6.47898">
        <ele>425</ele>
        <time>2024-01-29T09:31:02Z</time>
      </trkpt>
      <trkpt lat="46.37372" lon="6.47914">
        <ele>425.27</ele>
        <time>2024-01-29T09:31:04Z</time>
      </trkpt>
      <trkpt lat="46.37362" lon="6.47946">
        <ele>426.59</ele>
        <time>2024-01-29T09:31:09Z</time>
      </trkpt>
      <trkpt lat="46.37361" lon="6.47961">
        <ele>426.69</ele>
        <time>2024-01-29T09:31:11Z</time>
      </trkpt>
      <trkpt lat="46.37355" lon="6.47966">
        <ele>426.65</ele>
        <time>2024-01-29T09:31:12Z</time>
      </trkpt>
      <trkpt lat="46.37346" lon="6.47994">
        <ele>426.77</ele>
        <time>2024-01-29T09:31:16Z</time>
      </trkpt>
      <trkpt lat="46.37342" lon="6.48003">
        <ele>426.81</ele>
        <time>2024-01-29T09:31:18Z</time>
      </trkpt>
      <trkpt lat="46.3733" lon="6.48006">
        <ele>426.99</ele>
        <time>2024-01-29T09:31:20Z</time>
      </trkpt>
      <trkpt lat="46.37319" lon="6.48012">
        <ele>427.12</ele>
        <time>2024-01-29T09:31:23Z</time>
      </trkpt>
      <trkpt lat="46.37312" lon="6.4803">
        <ele>427.2</ele>
        <time>2024-01-29T09:31:26Z</time>
      </trkpt>
      <trkpt lat="46.37305" lon="6.48043">
        <ele>427.28</ele>
        <time>2024-01-29T09:31:28Z</time>
      </trkpt>
      <trkpt lat="46.37298" lon="6.48045">
        <ele>427.35</ele>
        <time>2024-01-29T09:31:30Z</time>
      </trkpt>
      <trkpt lat="46.37272" lon="6.48054">
        <ele>427.41</ele>
        <time>2024-01-29T09:31:35Z</time>
      </trkpt>
      <trkpt lat="46.37269" lon="6.48055">
        <ele>427.41</ele>
        <time>2024-01-29T09:31:36Z</time>
      </trkpt>
      <trkpt lat="46.37262" lon="6.48057">
        <ele>427.54</ele>
        <time>2024-01-29T09:31:37Z</time>
      </trkpt>
      <trkpt lat="46.37252" lon="6.48059">
        <ele>427.96</ele>
        <time>2024-01-29T09:31:40Z</time>
      </trkpt>
      <trkpt lat="46.37216" lon="6.48056">
        <ele>428.94</ele>
        <time>2024-01-29T09:31:47Z</time>
      </trkpt>
      <trkpt lat="46.37198" lon="6.48057">
        <ele>429.39</ele>
        <time>2024-01-29T09:31:51Z</time>
      </trkpt>
      <trkpt lat="46.37185" lon="6.48057">
        <ele>429.57</ele>
        <time>2024-01-29T09:31:54Z</time>
      </trkpt>
      <trkpt lat="46.37182" lon="6.4806">
        <ele>429.62</ele>
        <time>2024-01-29T09:31:55Z</time>
      </trkpt>
      <trkpt lat="46.37182" lon="6.48067">
        <ele>429.64</ele>
        <time>2024-01-29T09:31:56Z</time>
      </trkpt>
      <trkpt lat="46.37182" lon="6.48097">
        <ele>429.68</ele>
        <time>2024-01-29T09:32:01Z</time>
      </trkpt>
      <trkpt lat="46.37182" lon="6.481">
        <ele>429.69</ele>
        <time>2024-01-29T09:32:01Z</time>
      </trkpt>
      <trkpt lat="46.37177" lon="6.48109">
        <ele>429.77</ele>
        <time>2024-01-29T09:32:03Z</time>
      </trkpt>
      <trkpt lat="46.37169" lon="6.48117">
        <ele>430.04</ele>
        <time>2024-01-29T09:32:06Z</time>
      </trkpt>
      <trkpt lat="46.37163" lon="6.48123">
        <ele>430.26</ele>
        <time>2024-01-29T09:32:07Z</time>
      </trkpt>
      <trkpt lat="46.37115" lon="6.48168">
        <ele>432.26</ele>
        <time>2024-01-29T09:32:21Z</time>
      </trkpt>
      <trkpt lat="46.37107" lon="6.48174">
        <ele>432.84</ele>
        <time>2024-01-29T09:32:22Z</time>
      </trkpt>
      <trkpt lat="46.37102" lon="6.48173">
        <ele>432.98</ele>
        <time>2024-01-29T09:32:24Z</time>
      </trkpt>
      <trkpt lat="46.371" lon="6.48174">
        <ele>433.08</ele>
        <time>2024-01-29T09:32:24Z</time>
      </trkpt>
      <trkpt lat="46.37096" lon="6.48179">
        <ele>433.18</ele>
        <time>2024-01-29T09:32:25Z</time>
      </trkpt>
      <trkpt lat="46.37096" lon="6.48187">
        <ele>433.24</ele>
        <time>2024-01-29T09:32:26Z</time>
      </trkpt>
      <trkpt lat="46.37097" lon="6.48189">
        <ele>433.24</ele>
        <time>2024-01-29T09:32:27Z</time>
      </trkpt>
      <trkpt lat="46.37092" lon="6.4821">
        <ele>433.18</ele>
        <time>2024-01-29T09:32:30Z</time>
      </trkpt>
      <trkpt lat="46.37089" lon="6.48229">
        <ele>433.21</ele>
        <time>2024-01-29T09:32:33Z</time>
      </trkpt>
      <trkpt lat="46.37084" lon="6.48263">
        <ele>433.43</ele>
        <time>2024-01-29T09:32:39Z</time>
      </trkpt>
      <trkpt lat="46.37079" lon="6.48308">
        <ele>433.56</ele>
        <time>2024-01-29T09:32:47Z</time>
      </trkpt>
      <trkpt lat="46.37066" lon="6.4842">
        <ele>434.39</ele>
        <time>2024-01-29T09:33:10Z</time>
      </trkpt>
      <trkpt lat="46.37065" lon="6.48437">
        <ele>434.57</ele>
        <time>2024-01-29T09:33:13Z</time>
      </trkpt>
      <trkpt lat="46.37059" lon="6.48493">
        <ele>434.65</ele>
        <time>2024-01-29T09:33:25Z</time>
      </trkpt>
      <trkpt lat="46.37052" lon="6.48556">
        <ele>434.45</ele>
        <time>2024-01-29T09:33:37Z</time>
      </trkpt>
      <trkpt lat="46.37049" lon="6.48597">
        <ele>434.59</ele>
        <time>2024-01-29T09:33:45Z</time>
      </trkpt>
      <trkpt lat="46.37047" lon="6.48644">
        <ele>434.85</ele>
        <time>2024-01-29T09:33:54Z</time>
      </trkpt>
      <trkpt lat="46.3705" lon="6.48734">
        <ele>435.36</ele>
        <time>2024-01-29T09:34:15Z</time>
      </trkpt>
      <trkpt lat="46.37051" lon="6.48743">
        <ele>435.44</ele>
        <time>2024-01-29T09:34:17Z</time>
      </trkpt>
      <trkpt lat="46.37051" lon="6.48748">
        <ele>435.48</ele>
        <time>2024-01-29T09:34:18Z</time>
      </trkpt>
      <trkpt lat="46.37045" lon="6.48753">
        <ele>436.16</ele>
        <time>2024-01-29T09:34:21Z</time>
      </trkpt>
      <trkpt lat="46.37045" lon="6.48783">
        <ele>438.46</ele>
        <time>2024-01-29T09:34:27Z</time>
      </trkpt>
      <trkpt lat="46.37037" lon="6.48789">
        <ele>439.8</ele>
        <time>2024-01-29T09:34:29Z</time>
      </trkpt>
      <trkpt lat="46.37033" lon="6.48802">
        <ele>440.01</ele>
        <time>2024-01-29T09:34:32Z</time>
      </trkpt>
      <trkpt lat="46.37016" lon="6.48813">
        <ele>441.77</ele>
        <time>2024-01-29T09:34:37Z</time>
      </trkpt>
      <trkpt lat="46.36994" lon="6.48822">
        <ele>444.83</ele>
        <time>2024-01-29T09:34:44Z</time>
      </trkpt>
      <trkpt lat="46.36959" lon="6.48826">
        <ele>448.32</ele>
        <time>2024-01-29T09:34:54Z</time>
      </trkpt>
      <trkpt lat="46.36944" lon="6.48831">
        <ele>449.3</ele>
        <time>2024-01-29T09:34:58Z</time>
      </trkpt>
      <trkpt lat="46.369" lon="6.4886">
        <ele>452.12</ele>
        <time>2024-01-29T09:35:15Z</time>
      </trkpt>
      <trkpt lat="46.36869" lon="6.48883">
        <ele>454.33</ele>
        <time>2024-01-29T09:35:28Z</time>
      </trkpt>
      <trkpt lat="46.36851" lon="6.48891">
        <ele>454.85</ele>
        <time>2024-01-29T09:35:34Z</time>
      </trkpt>
      <trkpt lat="46.36781" lon="6.48901">
        <ele>454.09</ele>
        <time>2024-01-29T09:35:57Z</time>
      </trkpt>
      <trkpt lat="46.36746" lon="6.48896">
        <ele>454.09</ele>
        <time>2024-01-29T09:36:11Z</time>
      </trkpt>
      <trkpt lat="46.36741" lon="6.48915">
        <ele>455.21</ele>
        <time>2024-01-29T09:36:16Z</time>
      </trkpt>
      <trkpt lat="46.36731" lon="6.4894">
        <ele>456.89</ele>
        <time>2024-01-29T09:36:25Z</time>
      </trkpt>
      <trkpt lat="46.36717" lon="6.48959">
        <ele>458.74</ele>
        <time>2024-01-29T09:36:33Z</time>
      </trkpt>
      <trkpt lat="46.36701" lon="6.48972">
        <ele>460.82</ele>
        <time>2024-01-29T09:36:42Z</time>
      </trkpt>
      <trkpt lat="46.36695" lon="6.48975">
        <ele>461.26</ele>
        <time>2024-01-29T09:36:45Z</time>
      </trkpt>
      <trkpt lat="46.36659" lon="6.48985">
        <ele>463.4</ele>
        <time>2024-01-29T09:37:01Z</time>
      </trkpt>
      <trkpt lat="46.36654" lon="6.48986">
        <ele>463.58</ele>
        <time>2024-01-29T09:37:03Z</time>
      </trkpt>
      <trkpt lat="46.36631" lon="6.48993">
        <ele>464.66</ele>
        <time>2024-01-29T09:37:14Z</time>
      </trkpt>
      <trkpt lat="46.36629" lon="6.48993">
        <ele>464.94</ele>
        <time>2024-01-29T09:37:15Z</time>
      </trkpt>
      <trkpt lat="46.36625" lon="6.48994">
        <ele>465.2</ele>
        <time>2024-01-29T09:37:16Z</time>
      </trkpt>
      <trkpt lat="46.36607" lon="6.49">
        <ele>466.37</ele>
        <time>2024-01-29T09:37:24Z</time>
      </trkpt>
      <trkpt lat="46.36598" lon="6.49002">
        <ele>467.26</ele>
        <time>2024-01-29T09:37:28Z</time>
      </trkpt>
      <trkpt lat="46.36555" lon="6.49011">
        <ele>472.01</ele>
        <time>2024-01-29T09:37:46Z</time>
      </trkpt>
      <trkpt lat="46.36511" lon="6.49013">
        <ele>476.74</ele>
        <time>2024-01-29T09:38:04Z</time>
      </trkpt>
      <trkpt lat="46.36464" lon="6.49018">
        <ele>479.55</ele>
        <time>2024-01-29T09:38:21Z</time>
      </trkpt>
      <trkpt lat="46.3646" lon="6.49019">
        <ele>479.6</ele>
        <time>2024-01-29T09:38:23Z</time>
      </trkpt>
      <trkpt lat="46.36439" lon="6.49022">
        <ele>479.26</ele>
        <time>2024-01-29T09:38:29Z</time>
      </trkpt>
      <trkpt lat="46.36419" lon="6.4903">
        <ele>479.07</ele>
        <time>2024-01-29T09:38:35Z</time>
      </trkpt>
      <trkpt lat="46.36409" lon="6.49035">
        <ele>478.83</ele>
        <time>2024-01-29T09:38:39Z</time>
      </trkpt>
      <trkpt lat="46.36379" lon="6.4905">
        <ele>478.75</ele>
        <time>2024-01-29T09:38:48Z</time>
      </trkpt>
      <trkpt lat="46.3636" lon="6.49054">
        <ele>478.94</ele>
        <time>2024-01-29T09:38:52Z</time>
      </trkpt>
      <trkpt lat="46.36354" lon="6.49054">
        <ele>479.16</ele>
        <time>2024-01-29T09:38:54Z</time>
      </trkpt>
      <trkpt lat="46.36327" lon="6.49051">
        <ele>480.26</ele>
        <time>2024-01-29T09:39:02Z</time>
      </trkpt>
      <trkpt lat="46.36289" lon="6.49044">
        <ele>481.25</ele>
        <time>2024-01-29T09:39:11Z</time>
      </trkpt>
      <trkpt lat="46.36265" lon="6.49045">
        <ele>481.08</ele>
        <time>2024-01-29T09:39:18Z</time>
      </trkpt>
      <trkpt lat="46.36257" lon="6.4905">
        <ele>480.95</ele>
        <time>2024-01-29T09:39:20Z</time>
      </trkpt>
      <trkpt lat="46.3625" lon="6.4904">
        <ele>480.89</ele>
        <time>2024-01-29T09:39:22Z</time>
      </trkpt>
      <trkpt lat="46.36243" lon="6.4904">
        <ele>480.81</ele>
        <time>2024-01-29T09:39:24Z</time>
      </trkpt>
      <trkpt lat="46.36238" lon="6.49046">
        <ele>480.59</ele>
        <time>2024-01-29T09:39:26Z</time>
      </trkpt>
      <trkpt lat="46.36237" lon="6.49058">
        <ele>480.48</ele>
        <time>2024-01-29T09:39:29Z</time>
      </trkpt>
      <trkpt lat="46.36243" lon="6.49068">
        <ele>480.46</ele>
        <time>2024-01-29T09:39:31Z</time>
      </trkpt>
      <trkpt lat="46.36235" lon="6.49096">
        <ele>480.6</ele>
        <time>2024-01-29T09:39:39Z</time>
      </trkpt>
      <trkpt lat="46.36231" lon="6.49114">
        <ele>481.09</ele>
        <time>2024-01-29T09:39:44Z</time>
      </trkpt>
      <trkpt lat="46.36239" lon="6.49131">
        <ele>481.41</ele>
        <time>2024-01-29T09:39:50Z</time>
      </trkpt>
      <trkpt lat="46.36244" lon="6.49136">
        <ele>481.74</ele>
        <time>2024-01-29T09:39:53Z</time>
      </trkpt>
      <trkpt lat="46.36247" lon="6.49139">
        <ele>481.73</ele>
        <time>2024-01-29T09:39:54Z</time>
      </trkpt>
      <trkpt lat="46.3625" lon="6.49141">
        <ele>481.9</ele>
        <time>2024-01-29T09:39:56Z</time>
      </trkpt>
      <trkpt lat="46.36253" lon="6.49144">
        <ele>482.07</ele>
        <time>2024-01-29T09:39:58Z</time>
      </trkpt>
      <trkpt lat="46.36255" lon="6.49147">
        <ele>482.09</ele>
        <time>2024-01-29T09:39:59Z</time>
      </trkpt>
      <trkpt lat="46.36265" lon="6.49156">
        <ele>482.56</ele>
        <time>2024-01-29T09:40:04Z</time>
      </trkpt>
      <trkpt lat="46.36272" lon="6.49163">
        <ele>482.69</ele>
        <time>2024-01-29T09:40:08Z</time>
      </trkpt>
      <trkpt lat="46.36274" lon="6.49194">
        <ele>483.81</ele>
        <time>2024-01-29T09:40:19Z</time>
      </trkpt>
      <trkpt lat="46.36272" lon="6.49204">
        <ele>483.92</ele>
        <time>2024-01-29T09:40:23Z</time>
      </trkpt>
      <trkpt lat="46.36271" lon="6.49207">
        <ele>484.07</ele>
        <time>2024-01-29T09:40:24Z</time>
      </trkpt>
      <trkpt lat="46.36269" lon="6.49217">
        <ele>484.42</ele>
        <time>2024-01-29T09:40:26Z</time>
      </trkpt>
      <trkpt lat="46.36258" lon="6.49234">
        <ele>478.95</ele>
        <time>2024-01-29T09:40:32Z</time>
      </trkpt>
      <trkpt lat="46.36238" lon="6.49264">
        <ele>485.15</ele>
        <time>2024-01-29T09:40:41Z</time>
      </trkpt>
      <trkpt lat="46.3623" lon="6.49275">
        <ele>486.48</ele>
        <time>2024-01-29T09:40:45Z</time>
      </trkpt>
      <trkpt lat="46.36221" lon="6.49274">
        <ele>486.47</ele>
        <time>2024-01-29T09:40:48Z</time>
      </trkpt>
      <trkpt lat="46.3622" lon="6.49273">
        <ele>486.47</ele>
        <time>2024-01-29T09:40:48Z</time>
      </trkpt>
      <trkpt lat="46.36218" lon="6.49272">
        <ele>486.53</ele>
        <time>2024-01-29T09:40:49Z</time>
      </trkpt>
      <trkpt lat="46.36201" lon="6.49267">
        <ele>485.91</ele>
        <time>2024-01-29T09:40:56Z</time>
      </trkpt>
      <trkpt lat="46.36194" lon="6.49259">
        <ele>485.53</ele>
        <time>2024-01-29T09:41:00Z</time>
      </trkpt>
      <trkpt lat="46.36172" lon="6.4916">
        <ele>481.41</ele>
        <time>2024-01-29T09:41:32Z</time>
      </trkpt>
      <trkpt lat="46.36127" lon="6.49064">
        <ele>486.02</ele>
        <time>2024-01-29T09:41:58Z</time>
      </trkpt>
      <trkpt lat="46.36124" lon="6.49058">
        <ele>486.24</ele>
        <time>2024-01-29T09:41:59Z</time>
      </trkpt>
      <trkpt lat="46.36119" lon="6.49056">
        <ele>486.53</ele>
        <time>2024-01-29T09:41:59Z</time>
      </trkpt>
      <trkpt lat="46.36109" lon="6.49064">
        <ele>487.83</ele>
        <time>2024-01-29T09:42:01Z</time>
      </trkpt>
      <trkpt lat="46.36046" lon="6.49146">
        <ele>495.07</ele>
        <time>2024-01-29T09:42:20Z</time>
      </trkpt>
      <trkpt lat="46.36033" lon="6.49185">
        <ele>496.6</ele>
        <time>2024-01-29T09:42:28Z</time>
      </trkpt>
      <trkpt lat="46.36005" lon="6.49294">
        <ele>498.73</ele>
        <time>2024-01-29T09:42:54Z</time>
      </trkpt>
      <trkpt lat="46.35971" lon="6.49449">
        <ele>503.81</ele>
        <time>2024-01-29T09:43:38Z</time>
      </trkpt>
      <trkpt lat="46.35924" lon="6.4955">
        <ele>510.08</ele>
        <time>2024-01-29T09:44:20Z</time>
      </trkpt>
      <trkpt lat="46.35894" lon="6.49631">
        <ele>516.29</ele>
        <time>2024-01-29T09:44:57Z</time>
      </trkpt>
      <trkpt lat="46.35894" lon="6.49653">
        <ele>518.23</ele>
        <time>2024-01-29T09:45:07Z</time>
      </trkpt>
      <trkpt lat="46.35887" lon="6.49658">
        <ele>518.4</ele>
        <time>2024-01-29T09:45:12Z</time>
      </trkpt>
      <trkpt lat="46.35881" lon="6.49668">
        <ele>518.94</ele>
        <time>2024-01-29T09:45:18Z</time>
      </trkpt>
      <trkpt lat="46.3587" lon="6.4969">
        <ele>520.19</ele>
        <time>2024-01-29T09:45:30Z</time>
      </trkpt>
      <trkpt lat="46.35876" lon="6.49732">
        <ele>524.08</ele>
        <time>2024-01-29T09:45:49Z</time>
      </trkpt>
      <trkpt lat="46.3589" lon="6.49779">
        <ele>528.23</ele>
        <time>2024-01-29T09:46:13Z</time>
      </trkpt>
      <trkpt lat="46.35923" lon="6.49833">
        <ele>534.63</ele>
        <time>2024-01-29T09:46:43Z</time>
      </trkpt>
      <trkpt lat="46.35931" lon="6.49855">
        <ele>537.48</ele>
        <time>2024-01-29T09:46:53Z</time>
      </trkpt>
      <trkpt lat="46.35934" lon="6.49883">
        <ele>539.57</ele>
        <time>2024-01-29T09:47:04Z</time>
      </trkpt>
      <trkpt lat="46.35932" lon="6.49971">
        <ele>547.1</ele>
        <time>2024-01-29T09:47:33Z</time>
      </trkpt>
      <trkpt lat="46.35931" lon="6.49995">
        <ele>548.54</ele>
        <time>2024-01-29T09:47:41Z</time>
      </trkpt>
      <trkpt lat="46.35931" lon="6.49999">
        <ele>548.91</ele>
        <time>2024-01-29T09:47:43Z</time>
      </trkpt>
      <trkpt lat="46.35946" lon="6.50147">
        <ele>562.43</ele>
        <time>2024-01-29T09:48:26Z</time>
      </trkpt>
      <trkpt lat="46.35965" lon="6.50329">
        <ele>566.95</ele>
        <time>2024-01-29T09:49:27Z</time>
      </trkpt>
      <trkpt lat="46.35976" lon="6.50417">
        <ele>569.14</ele>
        <time>2024-01-29T09:50:08Z</time>
      </trkpt>
      <trkpt lat="46.35988" lon="6.50471">
        <ele>569.86</ele>
        <time>2024-01-29T09:50:37Z</time>
      </trkpt>
      <trkpt lat="46.36009" lon="6.5054">
        <ele>571.13</ele>
        <time>2024-01-29T09:51:20Z</time>
      </trkpt>
      <trkpt lat="46.36012" lon="6.50564">
        <ele>572.08</ele>
        <time>2024-01-29T09:51:34Z</time>
      </trkpt>
      <trkpt lat="46.36012" lon="6.50579">
        <ele>572.65</ele>
        <time>2024-01-29T09:51:42Z</time>
      </trkpt>
      <trkpt lat="46.36006" lon="6.50606">
        <ele>574.31</ele>
        <time>2024-01-29T09:51:58Z</time>
      </trkpt>
      <trkpt lat="46.35995" lon="6.5063">
        <ele>576.59</ele>
        <time>2024-01-29T09:52:14Z</time>
      </trkpt>
      <trkpt lat="46.35958" lon="6.50688">
        <ele>584.71</ele>
        <time>2024-01-29T09:52:53Z</time>
      </trkpt>
      <trkpt lat="46.3594" lon="6.5073">
        <ele>589.89</ele>
        <time>2024-01-29T09:53:13Z</time>
      </trkpt>
      <trkpt lat="46.35933" lon="6.50738">
        <ele>591.98</ele>
        <time>2024-01-29T09:53:17Z</time>
      </trkpt>
      <trkpt lat="46.35887" lon="6.5077">
        <ele>598.58</ele>
        <time>2024-01-29T09:53:36Z</time>
      </trkpt>
      <trkpt lat="46.35876" lon="6.50787">
        <ele>600.43</ele>
        <time>2024-01-29T09:53:42Z</time>
      </trkpt>
      <trkpt lat="46.35863" lon="6.50831">
        <ele>603.97</ele>
        <time>2024-01-29T09:53:52Z</time>
      </trkpt>
      <trkpt lat="46.3586" lon="6.5084">
        <ele>604.55</ele>
        <time>2024-01-29T09:53:54Z</time>
      </trkpt>
      <trkpt lat="46.35844" lon="6.50915">
        <ele>606.68</ele>
        <time>2024-01-29T09:54:10Z</time>
      </trkpt>
      <trkpt lat="46.35837" lon="6.50956">
        <ele>608.22</ele>
        <time>2024-01-29T09:54:20Z</time>
      </trkpt>
      <trkpt lat="46.35826" lon="6.51041">
        <ele>610.55</ele>
        <time>2024-01-29T09:54:42Z</time>
      </trkpt>
      <trkpt lat="46.35828" lon="6.51106">
        <ele>611.02</ele>
        <time>2024-01-29T09:55:00Z</time>
      </trkpt>
      <trkpt lat="46.35829" lon="6.51145">
        <ele>611.33</ele>
        <time>2024-01-29T09:55:13Z</time>
      </trkpt>
      <trkpt lat="46.35824" lon="6.51186">
        <ele>611.95</ele>
        <time>2024-01-29T09:55:27Z</time>
      </trkpt>
      <trkpt lat="46.35812" lon="6.51215">
        <ele>611.84</ele>
        <time>2024-01-29T09:55:40Z</time>
      </trkpt>
      <trkpt lat="46.35771" lon="6.51286">
        <ele>613.35</ele>
        <time>2024-01-29T09:56:14Z</time>
      </trkpt>
      <trkpt lat="46.35689" lon="6.51433">
        <ele>608.99</ele>
        <time>2024-01-29T09:57:06Z</time>
      </trkpt>
      <trkpt lat="46.35683" lon="6.51447">
        <ele>608.85</ele>
        <time>2024-01-29T09:57:10Z</time>
      </trkpt>
      <trkpt lat="46.35682" lon="6.51455">
        <ele>608.88</ele>
        <time>2024-01-29T09:57:11Z</time>
      </trkpt>
      <trkpt lat="46.3567" lon="6.51456">
        <ele>609.44</ele>
        <time>2024-01-29T09:57:14Z</time>
      </trkpt>
      <trkpt lat="46.35676" lon="6.51463">
        <ele>608.95</ele>
        <time>2024-01-29T09:57:16Z</time>
      </trkpt>
      <trkpt lat="46.357" lon="6.51469">
        <ele>604.15</ele>
        <time>2024-01-29T09:57:24Z</time>
      </trkpt>
      <trkpt lat="46.35734" lon="6.51481">
        <ele>601.95</ele>
        <time>2024-01-29T09:57:35Z</time>
      </trkpt>
      <trkpt lat="46.35753" lon="6.51483">
        <ele>600.93</ele>
        <time>2024-01-29T09:57:40Z</time>
      </trkpt>
      <trkpt lat="46.35775" lon="6.51493">
        <ele>600.12</ele>
        <time>2024-01-29T09:57:47Z</time>
      </trkpt>
      <trkpt lat="46.35797" lon="6.51509">
        <ele>596.69</ele>
        <time>2024-01-29T09:57:55Z</time>
      </trkpt>
      <trkpt lat="46.35812" lon="6.51527">
        <ele>595.32</ele>
        <time>2024-01-29T09:58:00Z</time>
      </trkpt>
      <trkpt lat="46.35834" lon="6.51548">
        <ele>595.44</ele>
        <time>2024-01-29T09:58:08Z</time>
      </trkpt>
      <trkpt lat="46.35849" lon="6.51565">
        <ele>596.34</ele>
        <time>2024-01-29T09:58:14Z</time>
      </trkpt>
      <trkpt lat="46.35852" lon="6.51574">
        <ele>596.61</ele>
        <time>2024-01-29T09:58:16Z</time>
      </trkpt>
      <trkpt lat="46.35832" lon="6.51585">
        <ele>599</ele>
        <time>2024-01-29T09:58:23Z</time>
      </trkpt>
      <trkpt lat="46.35802" lon="6.51613">
        <ele>603.45</ele>
        <time>2024-01-29T09:58:34Z</time>
      </trkpt>
      <trkpt lat="46.35788" lon="6.5162">
        <ele>605.21</ele>
        <time>2024-01-29T09:58:39Z</time>
      </trkpt>
      <trkpt lat="46.35774" lon="6.5162">
        <ele>606.9</ele>
        <time>2024-01-29T09:58:44Z</time>
      </trkpt>
      <trkpt lat="46.35734" lon="6.5161">
        <ele>611.56</ele>
        <time>2024-01-29T09:58:57Z</time>
      </trkpt>
      <trkpt lat="46.35725" lon="6.51612">
        <ele>612.96</ele>
        <time>2024-01-29T09:59:00Z</time>
      </trkpt>
      <trkpt lat="46.35696" lon="6.51635">
        <ele>615.66</ele>
        <time>2024-01-29T09:59:12Z</time>
      </trkpt>
      <trkpt lat="46.35669" lon="6.51669">
        <ele>616.03</ele>
        <time>2024-01-29T09:59:24Z</time>
      </trkpt>
      <trkpt lat="46.35578" lon="6.5172">
        <ele>617.13</ele>
        <time>2024-01-29T09:59:58Z</time>
      </trkpt>
      <trkpt lat="46.35556" lon="6.51738">
        <ele>617.53</ele>
        <time>2024-01-29T10:00:08Z</time>
      </trkpt>
      <trkpt lat="46.35513" lon="6.51754">
        <ele>617.73</ele>
        <time>2024-01-29T10:00:25Z</time>
      </trkpt>
      <trkpt lat="46.35491" lon="6.51758">
        <ele>617.97</ele>
        <time>2024-01-29T10:00:34Z</time>
      </trkpt>
      <trkpt lat="46.35441" lon="6.51776">
        <ele>618.57</ele>
        <time>2024-01-29T10:00:54Z</time>
      </trkpt>
      <trkpt lat="46.35398" lon="6.51796">
        <ele>619.72</ele>
        <time>2024-01-29T10:01:13Z</time>
      </trkpt>
      <trkpt lat="46.3539" lon="6.51802">
        <ele>619.98</ele>
        <time>2024-01-29T10:01:16Z</time>
      </trkpt>
      <trkpt lat="46.35369" lon="6.51772">
        <ele>619.49</ele>
        <time>2024-01-29T10:01:24Z</time>
      </trkpt>
      <trkpt lat="46.3536" lon="6.51754">
        <ele>619.41</ele>
        <time>2024-01-29T10:01:29Z</time>
      </trkpt>
      <trkpt lat="46.35334" lon="6.51783">
        <ele>619.78</ele>
        <time>2024-01-29T10:01:38Z</time>
      </trkpt>
      <trkpt lat="46.35268" lon="6.51857">
        <ele>620.94</ele>
        <time>2024-01-29T10:02:00Z</time>
      </trkpt>
      <trkpt lat="46.35237" lon="6.51886">
        <ele>621.34</ele>
        <time>2024-01-29T10:02:10Z</time>
      </trkpt>
      <trkpt lat="46.35169" lon="6.51929">
        <ele>621.98</ele>
        <time>2024-01-29T10:02:30Z</time>
      </trkpt>
      <trkpt lat="46.3509" lon="6.5198">
        <ele>623.4</ele>
        <time>2024-01-29T10:02:57Z</time>
      </trkpt>
      <trkpt lat="46.3507" lon="6.51993">
        <ele>625.11</ele>
        <time>2024-01-29T10:03:05Z</time>
      </trkpt>
      <trkpt lat="46.35051" lon="6.52028">
        <ele>628.96</ele>
        <time>2024-01-29T10:03:17Z</time>
      </trkpt>
      <trkpt lat="46.35034" lon="6.52067">
        <ele>633.77</ele>
        <time>2024-01-29T10:03:29Z</time>
      </trkpt>
      <trkpt lat="46.35031" lon="6.52071">
        <ele>634.52</ele>
        <time>2024-01-29T10:03:31Z</time>
      </trkpt>
      <trkpt lat="46.35027" lon="6.52071">
        <ele>634.81</ele>
        <time>2024-01-29T10:03:33Z</time>
      </trkpt>
      <trkpt lat="46.35025" lon="6.52077">
        <ele>634.8</ele>
        <time>2024-01-29T10:03:34Z</time>
      </trkpt>
      <trkpt lat="46.3502" lon="6.52098">
        <ele>635.43</ele>
        <time>2024-01-29T10:03:39Z</time>
      </trkpt>
      <trkpt lat="46.35011" lon="6.52114">
        <ele>635.67</ele>
        <time>2024-01-29T10:03:45Z</time>
      </trkpt>
      <trkpt lat="46.34999" lon="6.52124">
        <ele>636.05</ele>
        <time>2024-01-29T10:03:50Z</time>
      </trkpt>
      <trkpt lat="46.34975" lon="6.52126">
        <ele>636.51</ele>
        <time>2024-01-29T10:03:59Z</time>
      </trkpt>
      <trkpt lat="46.3494" lon="6.52117">
        <ele>637.03</ele>
        <time>2024-01-29T10:04:12Z</time>
      </trkpt>
      <trkpt lat="46.34932" lon="6.5211">
        <ele>637.14</ele>
        <time>2024-01-29T10:04:15Z</time>
      </trkpt>
      <trkpt lat="46.34914" lon="6.52086">
        <ele>637.56</ele>
        <time>2024-01-29T10:04:24Z</time>
      </trkpt>
      <trkpt lat="46.34902" lon="6.52071">
        <ele>637.92</ele>
        <time>2024-01-29T10:04:30Z</time>
      </trkpt>
      <trkpt lat="46.34898" lon="6.52066">
        <ele>638.05</ele>
        <time>2024-01-29T10:04:31Z</time>
      </trkpt>
      <trkpt lat="46.34885" lon="6.52047">
        <ele>638.31</ele>
        <time>2024-01-29T10:04:38Z</time>
      </trkpt>
      <trkpt lat="46.34883" lon="6.52046">
        <ele>638.31</ele>
        <time>2024-01-29T10:04:39Z</time>
      </trkpt>
      <trkpt lat="46.3488" lon="6.52043">
        <ele>638.28</ele>
        <time>2024-01-29T10:04:40Z</time>
      </trkpt>
      <trkpt lat="46.34856" lon="6.52025">
        <ele>638.27</ele>
        <time>2024-01-29T10:04:49Z</time>
      </trkpt>
      <trkpt lat="46.34825" lon="6.52007">
        <ele>638.19</ele>
        <time>2024-01-29T10:05:00Z</time>
      </trkpt>
      <trkpt lat="46.34817" lon="6.52004">
        <ele>638.14</ele>
        <time>2024-01-29T10:05:03Z</time>
      </trkpt>
      <trkpt lat="46.34814" lon="6.52002">
        <ele>638.14</ele>
        <time>2024-01-29T10:05:04Z</time>
      </trkpt>
      <trkpt lat="46.34808" lon="6.52">
        <ele>638.23</ele>
        <time>2024-01-29T10:05:06Z</time>
      </trkpt>
      <trkpt lat="46.34793" lon="6.52002">
        <ele>638.43</ele>
        <time>2024-01-29T10:05:10Z</time>
      </trkpt>
      <trkpt lat="46.34784" lon="6.5201">
        <ele>638.98</ele>
        <time>2024-01-29T10:05:14Z</time>
      </trkpt>
      <trkpt lat="46.34783" lon="6.52012">
        <ele>638.98</ele>
        <time>2024-01-29T10:05:15Z</time>
      </trkpt>
      <trkpt lat="46.34776" lon="6.52025">
        <ele>639.82</ele>
        <time>2024-01-29T10:05:18Z</time>
      </trkpt>
      <trkpt lat="46.34771" lon="6.52052">
        <ele>641.11</ele>
        <time>2024-01-29T10:05:25Z</time>
      </trkpt>
      <trkpt lat="46.34767" lon="6.52078">
        <ele>641.94</ele>
        <time>2024-01-29T10:05:32Z</time>
      </trkpt>
      <trkpt lat="46.34763" lon="6.52106">
        <ele>643.16</ele>
        <time>2024-01-29T10:05:39Z</time>
      </trkpt>
      <trkpt lat="46.34756" lon="6.52125">
        <ele>644.19</ele>
        <time>2024-01-29T10:05:45Z</time>
      </trkpt>
      <trkpt lat="46.34661" lon="6.52304">
        <ele>652.72</ele>
        <time>2024-01-29T10:06:48Z</time>
      </trkpt>
      <trkpt lat="46.34651" lon="6.52323">
        <ele>653.88</ele>
        <time>2024-01-29T10:06:54Z</time>
      </trkpt>
      <trkpt lat="46.34634" lon="6.52357">
        <ele>655.37</ele>
        <time>2024-01-29T10:07:04Z</time>
      </trkpt>
      <trkpt lat="46.34625" lon="6.52366">
        <ele>655.71</ele>
        <time>2024-01-29T10:07:08Z</time>
      </trkpt>
      <trkpt lat="46.34616" lon="6.52371">
        <ele>655.66</ele>
        <time>2024-01-29T10:07:11Z</time>
      </trkpt>
      <trkpt lat="46.34614" lon="6.52371">
        <ele>655.66</ele>
        <time>2024-01-29T10:07:12Z</time>
      </trkpt>
      <trkpt lat="46.34579" lon="6.52371">
        <ele>655.08</ele>
        <time>2024-01-29T10:07:22Z</time>
      </trkpt>
      <trkpt lat="46.34413" lon="6.52365">
        <ele>652.73</ele>
        <time>2024-01-29T10:07:57Z</time>
      </trkpt>
      <trkpt lat="46.34216" lon="6.5233">
        <ele>650.16</ele>
        <time>2024-01-29T10:08:33Z</time>
      </trkpt>
      <trkpt lat="46.3412" lon="6.5232">
        <ele>650.01</ele>
        <time>2024-01-29T10:08:51Z</time>
      </trkpt>
      <trkpt lat="46.34068" lon="6.52306">
        <ele>649.81</ele>
        <time>2024-01-29T10:09:01Z</time>
      </trkpt>
      <trkpt lat="46.34039" lon="6.52292">
        <ele>649.77</ele>
        <time>2024-01-29T10:09:07Z</time>
      </trkpt>
      <trkpt lat="46.33987" lon="6.52247">
        <ele>649.49</ele>
        <time>2024-01-29T10:09:18Z</time>
      </trkpt>
      <trkpt lat="46.33977" lon="6.5224">
        <ele>649.47</ele>
        <time>2024-01-29T10:09:20Z</time>
      </trkpt>
      <trkpt lat="46.33931" lon="6.52215">
        <ele>649.32</ele>
        <time>2024-01-29T10:09:28Z</time>
      </trkpt>
      <trkpt lat="46.33917" lon="6.52203">
        <ele>649.25</ele>
        <time>2024-01-29T10:09:32Z</time>
      </trkpt>
      <trkpt lat="46.339" lon="6.52181">
        <ele>649.26</ele>
        <time>2024-01-29T10:09:36Z</time>
      </trkpt>
      <trkpt lat="46.33897" lon="6.52173">
        <ele>649.3</ele>
        <time>2024-01-29T10:09:38Z</time>
      </trkpt>
      <trkpt lat="46.33893" lon="6.5216">
        <ele>649.29</ele>
        <time>2024-01-29T10:09:40Z</time>
      </trkpt>
      <trkpt lat="46.33894" lon="6.52157">
        <ele>649.23</ele>
        <time>2024-01-29T10:09:41Z</time>
      </trkpt>
      <trkpt lat="46.33892" lon="6.52149">
        <ele>649.09</ele>
        <time>2024-01-29T10:09:42Z</time>
      </trkpt>
      <trkpt lat="46.33885" lon="6.52143">
        <ele>649.28</ele>
        <time>2024-01-29T10:09:43Z</time>
      </trkpt>
      <trkpt lat="46.33882" lon="6.52142">
        <ele>649.47</ele>
        <time>2024-01-29T10:09:44Z</time>
      </trkpt>
      <trkpt lat="46.33876" lon="6.52146">
        <ele>649.6</ele>
        <time>2024-01-29T10:09:46Z</time>
      </trkpt>
      <trkpt lat="46.33873" lon="6.52153">
        <ele>649.67</ele>
        <time>2024-01-29T10:09:48Z</time>
      </trkpt>
      <trkpt lat="46.33873" lon="6.52154">
        <ele>649.67</ele>
        <time>2024-01-29T10:09:48Z</time>
      </trkpt>
      <trkpt lat="46.33865" lon="6.52158">
        <ele>650.08</ele>
        <time>2024-01-29T10:09:50Z</time>
      </trkpt>
      <trkpt lat="46.33859" lon="6.52159">
        <ele>650.41</ele>
        <time>2024-01-29T10:09:52Z</time>
      </trkpt>
      <trkpt lat="46.33846" lon="6.52147">
        <ele>651</ele>
        <time>2024-01-29T10:09:56Z</time>
      </trkpt>
      <trkpt lat="46.3384" lon="6.52144">
        <ele>651.45</ele>
        <time>2024-01-29T10:09:59Z</time>
      </trkpt>
      <trkpt lat="46.33816" lon="6.52141">
        <ele>652.75</ele>
        <time>2024-01-29T10:10:06Z</time>
      </trkpt>
      <trkpt lat="46.33757" lon="6.52148">
        <ele>656.33</ele>
        <time>2024-01-29T10:10:23Z</time>
      </trkpt>
      <trkpt lat="46.33754" lon="6.52131">
        <ele>655.94</ele>
        <time>2024-01-29T10:10:25Z</time>
      </trkpt>
      <trkpt lat="46.3375" lon="6.52128">
        <ele>656.11</ele>
        <time>2024-01-29T10:10:26Z</time>
      </trkpt>
      <trkpt lat="46.33743" lon="6.5213">
        <ele>656.71</ele>
        <time>2024-01-29T10:10:29Z</time>
      </trkpt>
      <trkpt lat="46.33703" lon="6.52093">
        <ele>661.49</ele>
        <time>2024-01-29T10:10:40Z</time>
      </trkpt>
      <trkpt lat="46.33702" lon="6.52092">
        <ele>661.71</ele>
        <time>2024-01-29T10:10:40Z</time>
      </trkpt>
      <trkpt lat="46.33679" lon="6.52063">
        <ele>663.75</ele>
        <time>2024-01-29T10:10:49Z</time>
      </trkpt>
      <trkpt lat="46.33677" lon="6.5206">
        <ele>663.75</ele>
        <time>2024-01-29T10:10:50Z</time>
      </trkpt>
      <trkpt lat="46.3367" lon="6.52049">
        <ele>664.58</ele>
        <time>2024-01-29T10:10:53Z</time>
      </trkpt>
      <trkpt lat="46.33665" lon="6.52021">
        <ele>666.81</ele>
        <time>2024-01-29T10:11:00Z</time>
      </trkpt>
      <trkpt lat="46.33659" lon="6.52002">
        <ele>667.49</ele>
        <time>2024-01-29T10:11:05Z</time>
      </trkpt>
      <trkpt lat="46.33645" lon="6.51975">
        <ele>668.01</ele>
        <time>2024-01-29T10:11:14Z</time>
      </trkpt>
      <trkpt lat="46.33635" lon="6.51969">
        <ele>667.97</ele>
        <time>2024-01-29T10:11:19Z</time>
      </trkpt>
      <trkpt lat="46.33616" lon="6.5197">
        <ele>667.85</ele>
        <time>2024-01-29T10:11:28Z</time>
      </trkpt>
      <trkpt lat="46.33605" lon="6.51975">
        <ele>667.89</ele>
        <time>2024-01-29T10:11:34Z</time>
      </trkpt>
      <trkpt lat="46.33593" lon="6.51983">
        <ele>668.11</ele>
        <time>2024-01-29T10:11:41Z</time>
      </trkpt>
      <trkpt lat="46.33536" lon="6.52019">
        <ele>669.51</ele>
        <time>2024-01-29T10:12:13Z</time>
      </trkpt>
      <trkpt lat="46.33523" lon="6.5203">
        <ele>670.77</ele>
        <time>2024-01-29T10:12:22Z</time>
      </trkpt>
      <trkpt lat="46.33519" lon="6.52054">
        <ele>671.86</ele>
        <time>2024-01-29T10:12:32Z</time>
      </trkpt>
      <trkpt lat="46.3351" lon="6.52085">
        <ele>673.57</ele>
        <time>2024-01-29T10:12:48Z</time>
      </trkpt>
      <trkpt lat="46.33505" lon="6.52092">
        <ele>674.67</ele>
        <time>2024-01-29T10:12:53Z</time>
      </trkpt>
      <trkpt lat="46.33485" lon="6.52113">
        <ele>677.59</ele>
        <time>2024-01-29T10:13:12Z</time>
      </trkpt>
      <trkpt lat="46.33478" lon="6.52117">
        <ele>678.65</ele>
        <time>2024-01-29T10:13:17Z</time>
      </trkpt>
      <trkpt lat="46.33464" lon="6.52118">
        <ele>679.81</ele>
        <time>2024-01-29T10:13:28Z</time>
      </trkpt>
      <trkpt lat="46.33432" lon="6.52099">
        <ele>682.22</ele>
        <time>2024-01-29T10:13:54Z</time>
      </trkpt>
      <trkpt lat="46.33416" lon="6.52098">
        <ele>683.2</ele>
        <time>2024-01-29T10:14:08Z</time>
      </trkpt>
      <trkpt lat="46.33392" lon="6.52119">
        <ele>686.09</ele>
        <time>2024-01-29T10:14:30Z</time>
      </trkpt>
      <trkpt lat="46.33364" lon="6.52132">
        <ele>689.08</ele>
        <time>2024-01-29T10:14:50Z</time>
      </trkpt>
      <trkpt lat="46.33345" lon="6.5215">
        <ele>692.1</ele>
        <time>2024-01-29T10:15:05Z</time>
      </trkpt>
      <trkpt lat="46.33324" lon="6.52168">
        <ele>695.11</ele>
        <time>2024-01-29T10:15:18Z</time>
      </trkpt>
      <trkpt lat="46.33318" lon="6.5217">
        <ele>695.31</ele>
        <time>2024-01-29T10:15:22Z</time>
      </trkpt>
      <trkpt lat="46.33313" lon="6.52168">
        <ele>695.65</ele>
        <time>2024-01-29T10:15:25Z</time>
      </trkpt>
      <trkpt lat="46.33305" lon="6.5216">
        <ele>696.04</ele>
        <time>2024-01-29T10:15:30Z</time>
      </trkpt>
      <trkpt lat="46.3329" lon="6.52143">
        <ele>699.23</ele>
        <time>2024-01-29T10:15:44Z</time>
      </trkpt>
      <trkpt lat="46.33273" lon="6.52113">
        <ele>702.3</ele>
        <time>2024-01-29T10:16:03Z</time>
      </trkpt>
      <trkpt lat="46.33239" lon="6.52003">
        <ele>712.43</ele>
        <time>2024-01-29T10:17:03Z</time>
      </trkpt>
      <trkpt lat="46.33232" lon="6.5197">
        <ele>715.06</ele>
        <time>2024-01-29T10:17:19Z</time>
      </trkpt>
      <trkpt lat="46.33233" lon="6.51955">
        <ele>716.06</ele>
        <time>2024-01-29T10:17:27Z</time>
      </trkpt>
      <trkpt lat="46.33239" lon="6.51928">
        <ele>717.68</ele>
        <time>2024-01-29T10:17:40Z</time>
      </trkpt>
      <trkpt lat="46.33238" lon="6.5192">
        <ele>718.92</ele>
        <time>2024-01-29T10:17:45Z</time>
      </trkpt>
      <trkpt lat="46.33234" lon="6.51914">
        <ele>719.91</ele>
        <time>2024-01-29T10:17:49Z</time>
      </trkpt>
      <trkpt lat="46.33228" lon="6.51913">
        <ele>720.34</ele>
        <time>2024-01-29T10:17:54Z</time>
      </trkpt>
      <trkpt lat="46.33211" lon="6.51923">
        <ele>722.25</ele>
        <time>2024-01-29T10:18:07Z</time>
      </trkpt>
      <trkpt lat="46.33187" lon="6.51923">
        <ele>724.87</ele>
        <time>2024-01-29T10:18:25Z</time>
      </trkpt>
      <trkpt lat="46.33173" lon="6.51931">
        <ele>726.56</ele>
        <time>2024-01-29T10:18:36Z</time>
      </trkpt>
      <trkpt lat="46.33153" lon="6.51952">
        <ele>729.19</ele>
        <time>2024-01-29T10:18:54Z</time>
      </trkpt>
      <trkpt lat="46.33128" lon="6.51983">
        <ele>732.31</ele>
        <time>2024-01-29T10:19:19Z</time>
      </trkpt>
      <trkpt lat="46.33123" lon="6.51994">
        <ele>733.1</ele>
        <time>2024-01-29T10:19:25Z</time>
      </trkpt>
      <trkpt lat="46.33121" lon="6.52015">
        <ele>735.16</ele>
        <time>2024-01-29T10:19:36Z</time>
      </trkpt>
      <trkpt lat="46.33113" lon="6.52024">
        <ele>736.48</ele>
        <time>2024-01-29T10:19:44Z</time>
      </trkpt>
      <trkpt lat="46.33104" lon="6.5202">
        <ele>737.58</ele>
        <time>2024-01-29T10:19:51Z</time>
      </trkpt>
      <trkpt lat="46.33083" lon="6.5199">
        <ele>740.5</ele>
        <time>2024-01-29T10:20:13Z</time>
      </trkpt>
      <trkpt lat="46.33074" lon="6.51969">
        <ele>742.58</ele>
        <time>2024-01-29T10:20:25Z</time>
      </trkpt>
      <trkpt lat="46.33068" lon="6.5191">
        <ele>746.64</ele>
        <time>2024-01-29T10:20:53Z</time>
      </trkpt>
      <trkpt lat="46.33074" lon="6.5185">
        <ele>751.56</ele>
        <time>2024-01-29T10:21:20Z</time>
      </trkpt>
      <trkpt lat="46.33081" lon="6.51829">
        <ele>753.38</ele>
        <time>2024-01-29T10:21:29Z</time>
      </trkpt>
      <trkpt lat="46.33097" lon="6.51799">
        <ele>756.72</ele>
        <time>2024-01-29T10:21:45Z</time>
      </trkpt>
      <trkpt lat="46.33124" lon="6.51759">
        <ele>761.23</ele>
        <time>2024-01-29T10:22:08Z</time>
      </trkpt>
      <trkpt lat="46.33145" lon="6.51737">
        <ele>764.04</ele>
        <time>2024-01-29T10:22:24Z</time>
      </trkpt>
      <trkpt lat="46.33159" lon="6.51716">
        <ele>766.14</ele>
        <time>2024-01-29T10:22:36Z</time>
      </trkpt>
      <trkpt lat="46.33163" lon="6.51705">
        <ele>766.79</ele>
        <time>2024-01-29T10:22:41Z</time>
      </trkpt>
      <trkpt lat="46.33164" lon="6.51686">
        <ele>768.15</ele>
        <time>2024-01-29T10:22:49Z</time>
      </trkpt>
      <trkpt lat="46.33158" lon="6.51669">
        <ele>768.97</ele>
        <time>2024-01-29T10:22:56Z</time>
      </trkpt>
      <trkpt lat="46.3313" lon="6.51625">
        <ele>771.83</ele>
        <time>2024-01-29T10:23:20Z</time>
      </trkpt>
      <trkpt lat="46.33076" lon="6.516">
        <ele>775.4</ele>
        <time>2024-01-29T10:23:51Z</time>
      </trkpt>
      <trkpt lat="46.32962" lon="6.51525">
        <ele>775.17</ele>
        <time>2024-01-29T10:24:47Z</time>
      </trkpt>
      <trkpt lat="46.32848" lon="6.51427">
        <ele>773.19</ele>
        <time>2024-01-29T10:25:22Z</time>
      </trkpt>
      <trkpt lat="46.32793" lon="6.51388">
        <ele>770.77</ele>
        <time>2024-01-29T10:25:37Z</time>
      </trkpt>
      <trkpt lat="46.32761" lon="6.51366">
        <ele>768.07</ele>
        <time>2024-01-29T10:25:45Z</time>
      </trkpt>
      <trkpt lat="46.32693" lon="6.51333">
        <ele>769.71</ele>
        <time>2024-01-29T10:26:03Z</time>
      </trkpt>
      <trkpt lat="46.3267" lon="6.51325">
        <ele>769.5</ele>
        <time>2024-01-29T10:26:08Z</time>
      </trkpt>
      <trkpt lat="46.32638" lon="6.51318">
        <ele>770.43</ele>
        <time>2024-01-29T10:26:17Z</time>
      </trkpt>
      <trkpt lat="46.32577" lon="6.51321">
        <ele>770.88</ele>
        <time>2024-01-29T10:26:34Z</time>
      </trkpt>
      <trkpt lat="46.32542" lon="6.5131">
        <ele>769.73</ele>
        <time>2024-01-29T10:26:49Z</time>
      </trkpt>
      <trkpt lat="46.32508" lon="6.513">
        <ele>770.25</ele>
        <time>2024-01-29T10:27:05Z</time>
      </trkpt>
      <trkpt lat="46.32473" lon="6.51294">
        <ele>770.94</ele>
        <time>2024-01-29T10:27:23Z</time>
      </trkpt>
      <trkpt lat="46.32426" lon="6.51308">
        <ele>772.33</ele>
        <time>2024-01-29T10:27:50Z</time>
      </trkpt>
      <trkpt lat="46.32405" lon="6.51319">
        <ele>773.27</ele>
        <time>2024-01-29T10:28:02Z</time>
      </trkpt>
      <trkpt lat="46.32392" lon="6.51321">
        <ele>773.53</ele>
        <time>2024-01-29T10:28:07Z</time>
      </trkpt>
      <trkpt lat="46.32379" lon="6.51301">
        <ele>775.67</ele>
        <time>2024-01-29T10:28:15Z</time>
      </trkpt>
      <trkpt lat="46.32353" lon="6.51282">
        <ele>778.2</ele>
        <time>2024-01-29T10:28:28Z</time>
      </trkpt>
      <trkpt lat="46.3233" lon="6.5127">
        <ele>779.13</ele>
        <time>2024-01-29T10:28:38Z</time>
      </trkpt>
      <trkpt lat="46.32318" lon="6.51262">
        <ele>779.24</ele>
        <time>2024-01-29T10:28:43Z</time>
      </trkpt>
      <trkpt lat="46.32294" lon="6.5124">
        <ele>779.51</ele>
        <time>2024-01-29T10:28:53Z</time>
      </trkpt>
      <trkpt lat="46.32216" lon="6.51152">
        <ele>783.08</ele>
        <time>2024-01-29T10:29:18Z</time>
      </trkpt>
      <trkpt lat="46.32151" lon="6.51099">
        <ele>779.7</ele>
        <time>2024-01-29T10:29:30Z</time>
      </trkpt>
      <trkpt lat="46.3213" lon="6.51073">
        <ele>777.95</ele>
        <time>2024-01-29T10:29:34Z</time>
      </trkpt>
      <trkpt lat="46.32087" lon="6.51027">
        <ele>777.98</ele>
        <time>2024-01-29T10:29:42Z</time>
      </trkpt>
      <trkpt lat="46.3205" lon="6.50976">
        <ele>779.96</ele>
        <time>2024-01-29T10:29:50Z</time>
      </trkpt>
      <trkpt lat="46.3203" lon="6.50958">
        <ele>780.53</ele>
        <time>2024-01-29T10:29:53Z</time>
      </trkpt>
      <trkpt lat="46.31987" lon="6.5093">
        <ele>779.99</ele>
        <time>2024-01-29T10:30:01Z</time>
      </trkpt>
      <trkpt lat="46.31964" lon="6.50923">
        <ele>780.02</ele>
        <time>2024-01-29T10:30:08Z</time>
      </trkpt>
      <trkpt lat="46.31939" lon="6.50927">
        <ele>780.89</ele>
        <time>2024-01-29T10:30:16Z</time>
      </trkpt>
      <trkpt lat="46.31888" lon="6.50944">
        <ele>782.56</ele>
        <time>2024-01-29T10:30:38Z</time>
      </trkpt>
      <trkpt lat="46.31863" lon="6.50959">
        <ele>783.34</ele>
        <time>2024-01-29T10:30:51Z</time>
      </trkpt>
      <trkpt lat="46.31849" lon="6.50959">
        <ele>783.78</ele>
        <time>2024-01-29T10:30:58Z</time>
      </trkpt>
      <trkpt lat="46.31839" lon="6.5097">
        <ele>784.69</ele>
        <time>2024-01-29T10:31:04Z</time>
      </trkpt>
      <trkpt lat="46.31801" lon="6.50989">
        <ele>788.1</ele>
        <time>2024-01-29T10:31:22Z</time>
      </trkpt>
      <trkpt lat="46.31784" lon="6.51009">
        <ele>790.08</ele>
        <time>2024-01-29T10:31:33Z</time>
      </trkpt>
      <trkpt lat="46.31761" lon="6.51042">
        <ele>793.18</ele>
        <time>2024-01-29T10:31:48Z</time>
      </trkpt>
      <trkpt lat="46.3175" lon="6.51049">
        <ele>794.3</ele>
        <time>2024-01-29T10:31:54Z</time>
      </trkpt>
      <trkpt lat="46.31737" lon="6.51048">
        <ele>795.69</ele>
        <time>2024-01-29T10:32:01Z</time>
      </trkpt>
      <trkpt lat="46.31698" lon="6.51033">
        <ele>797.57</ele>
        <time>2024-01-29T10:32:19Z</time>
      </trkpt>
      <trkpt lat="46.3168" lon="6.51027">
        <ele>798.71</ele>
        <time>2024-01-29T10:32:27Z</time>
      </trkpt>
      <trkpt lat="46.31665" lon="6.51027">
        <ele>799.79</ele>
        <time>2024-01-29T10:32:33Z</time>
      </trkpt>
      <trkpt lat="46.31605" lon="6.51041">
        <ele>805.23</ele>
        <time>2024-01-29T10:32:55Z</time>
      </trkpt>
      <trkpt lat="46.31574" lon="6.51048">
        <ele>807.57</ele>
        <time>2024-01-29T10:33:06Z</time>
      </trkpt>
      <trkpt lat="46.31566" lon="6.5105">
        <ele>807.86</ele>
        <time>2024-01-29T10:33:09Z</time>
      </trkpt>
      <trkpt lat="46.3156" lon="6.51048">
        <ele>807.87</ele>
        <time>2024-01-29T10:33:11Z</time>
      </trkpt>
      <trkpt lat="46.31538" lon="6.51029">
        <ele>807.31</ele>
        <time>2024-01-29T10:33:22Z</time>
      </trkpt>
      <trkpt lat="46.31473" lon="6.50995">
        <ele>807.35</ele>
        <time>2024-01-29T10:33:54Z</time>
      </trkpt>
      <trkpt lat="46.3145" lon="6.50986">
        <ele>807.74</ele>
        <time>2024-01-29T10:34:05Z</time>
      </trkpt>
      <trkpt lat="46.3143" lon="6.50982">
        <ele>808.33</ele>
        <time>2024-01-29T10:34:15Z</time>
      </trkpt>
      <trkpt lat="46.31413" lon="6.50977">
        <ele>808.91</ele>
        <time>2024-01-29T10:34:22Z</time>
      </trkpt>
      <trkpt lat="46.31371" lon="6.50958">
        <ele>810.83</ele>
        <time>2024-01-29T10:34:42Z</time>
      </trkpt>
      <trkpt lat="46.31311" lon="6.50913">
        <ele>814.68</ele>
        <time>2024-01-29T10:35:10Z</time>
      </trkpt>
      <trkpt lat="46.31282" lon="6.5089">
        <ele>817.87</ele>
        <time>2024-01-29T10:35:21Z</time>
      </trkpt>
      <trkpt lat="46.31266" lon="6.5087">
        <ele>818.57</ele>
        <time>2024-01-29T10:35:27Z</time>
      </trkpt>
      <trkpt lat="46.31246" lon="6.50816">
        <ele>819.36</ele>
        <time>2024-01-29T10:35:36Z</time>
      </trkpt>
      <trkpt lat="46.3124" lon="6.50791">
        <ele>818.68</ele>
        <time>2024-01-29T10:35:40Z</time>
      </trkpt>
      <trkpt lat="46.3123" lon="6.50718">
        <ele>816.68</ele>
        <time>2024-01-29T10:35:48Z</time>
      </trkpt>
      <trkpt lat="46.31225" lon="6.50696">
        <ele>816.33</ele>
        <time>2024-01-29T10:35:51Z</time>
      </trkpt>
      <trkpt lat="46.31155" lon="6.50502">
        <ele>814.03</ele>
        <time>2024-01-29T10:36:12Z</time>
      </trkpt>
      <trkpt lat="46.31121" lon="6.50419">
        <ele>814.3</ele>
        <time>2024-01-29T10:36:21Z</time>
      </trkpt>
      <trkpt lat="46.31107" lon="6.50383">
        <ele>813.71</ele>
        <time>2024-01-29T10:36:25Z</time>
      </trkpt>
      <trkpt lat="46.31102" lon="6.50363">
        <ele>813.4</ele>
        <time>2024-01-29T10:36:27Z</time>
      </trkpt>
      <trkpt lat="46.31099" lon="6.50337">
        <ele>812.39</ele>
        <time>2024-01-29T10:36:30Z</time>
      </trkpt>
      <trkpt lat="46.311" lon="6.50308">
        <ele>811.73</ele>
        <time>2024-01-29T10:36:32Z</time>
      </trkpt>
      <trkpt lat="46.31105" lon="6.50283">
        <ele>811.53</ele>
        <time>2024-01-29T10:36:35Z</time>
      </trkpt>
      <trkpt lat="46.31112" lon="6.5027">
        <ele>811.86</ele>
        <time>2024-01-29T10:36:37Z</time>
      </trkpt>
      <trkpt lat="46.31047" lon="6.50168">
        <ele>819.63</ele>
        <time>2024-01-29T10:37:00Z</time>
      </trkpt>
      <trkpt lat="46.31033" lon="6.50154">
        <ele>821.41</ele>
        <time>2024-01-29T10:37:06Z</time>
      </trkpt>
      <trkpt lat="46.3101" lon="6.50144">
        <ele>822.98</ele>
        <time>2024-01-29T10:37:17Z</time>
      </trkpt>
      <trkpt lat="46.30998" lon="6.50143">
        <ele>823.84</ele>
        <time>2024-01-29T10:37:23Z</time>
      </trkpt>
      <trkpt lat="46.30978" lon="6.50146">
        <ele>825.16</ele>
        <time>2024-01-29T10:37:33Z</time>
      </trkpt>
      <trkpt lat="46.30951" lon="6.50152">
        <ele>827.71</ele>
        <time>2024-01-29T10:37:48Z</time>
      </trkpt>
      <trkpt lat="46.30937" lon="6.50152">
        <ele>828.93</ele>
        <time>2024-01-29T10:37:57Z</time>
      </trkpt>
      <trkpt lat="46.30911" lon="6.50152">
        <ele>831.38</ele>
        <time>2024-01-29T10:38:12Z</time>
      </trkpt>
      <trkpt lat="46.30902" lon="6.50157">
        <ele>832.35</ele>
        <time>2024-01-29T10:38:18Z</time>
      </trkpt>
      <trkpt lat="46.30886" lon="6.50185">
        <ele>834.81</ele>
        <time>2024-01-29T10:38:35Z</time>
      </trkpt>
      <trkpt lat="46.30882" lon="6.50188">
        <ele>835.08</ele>
        <time>2024-01-29T10:38:38Z</time>
      </trkpt>
      <trkpt lat="46.30872" lon="6.50189">
        <ele>836.04</ele>
        <time>2024-01-29T10:38:45Z</time>
      </trkpt>
      <trkpt lat="46.30859" lon="6.50182">
        <ele>837.06</ele>
        <time>2024-01-29T10:38:54Z</time>
      </trkpt>
      <trkpt lat="46.30851" lon="6.50173">
        <ele>838.01</ele>
        <time>2024-01-29T10:39:01Z</time>
      </trkpt>
      <trkpt lat="46.30845" lon="6.50161">
        <ele>838.74</ele>
        <time>2024-01-29T10:39:08Z</time>
      </trkpt>
      <trkpt lat="46.30842" lon="6.50143">
        <ele>839.61</ele>
        <time>2024-01-29T10:39:17Z</time>
      </trkpt>
      <trkpt lat="46.30841" lon="6.50142">
        <ele>839.86</ele>
        <time>2024-01-29T10:39:18Z</time>
      </trkpt>
      <trkpt lat="46.30816" lon="6.50131">
        <ele>843.01</ele>
        <time>2024-01-29T10:39:36Z</time>
      </trkpt>
      <trkpt lat="46.3081" lon="6.50128">
        <ele>843.74</ele>
        <time>2024-01-29T10:39:40Z</time>
      </trkpt>
      <trkpt lat="46.3079" lon="6.50122">
        <ele>847.64</ele>
        <time>2024-01-29T10:39:54Z</time>
      </trkpt>
      <trkpt lat="46.30782" lon="6.50116">
        <ele>849.66</ele>
        <time>2024-01-29T10:40:01Z</time>
      </trkpt>
      <trkpt lat="46.30777" lon="6.50128">
        <ele>850.2</ele>
        <time>2024-01-29T10:40:06Z</time>
      </trkpt>
      <trkpt lat="46.30763" lon="6.50174">
        <ele>853.35</ele>
        <time>2024-01-29T10:40:27Z</time>
      </trkpt>
      <trkpt lat="46.30753" lon="6.50192">
        <ele>854.69</ele>
        <time>2024-01-29T10:40:36Z</time>
      </trkpt>
      <trkpt lat="46.30745" lon="6.50197">
        <ele>855.61</ele>
        <time>2024-01-29T10:40:42Z</time>
      </trkpt>
      <trkpt lat="46.30736" lon="6.50196">
        <ele>856.64</ele>
        <time>2024-01-29T10:40:47Z</time>
      </trkpt>
      <trkpt lat="46.3073" lon="6.50187">
        <ele>857.29</ele>
        <time>2024-01-29T10:40:52Z</time>
      </trkpt>
      <trkpt lat="46.30727" lon="6.50177">
        <ele>858.07</ele>
        <time>2024-01-29T10:40:57Z</time>
      </trkpt>
      <trkpt lat="46.30725" lon="6.50141">
        <ele>860.37</ele>
        <time>2024-01-29T10:41:12Z</time>
      </trkpt>
      <trkpt lat="46.3072" lon="6.50127">
        <ele>861.38</ele>
        <time>2024-01-29T10:41:18Z</time>
      </trkpt>
      <trkpt lat="46.30713" lon="6.50119">
        <ele>862.27</ele>
        <time>2024-01-29T10:41:24Z</time>
      </trkpt>
      <trkpt lat="46.30695" lon="6.50116">
        <ele>863.68</ele>
        <time>2024-01-29T10:41:34Z</time>
      </trkpt>
      <trkpt lat="46.3067" lon="6.50114">
        <ele>865.96</ele>
        <time>2024-01-29T10:41:48Z</time>
      </trkpt>
      <trkpt lat="46.30646" lon="6.50097">
        <ele>868.17</ele>
        <time>2024-01-29T10:42:03Z</time>
      </trkpt>
      <trkpt lat="46.30626" lon="6.50073">
        <ele>869.85</ele>
        <time>2024-01-29T10:42:18Z</time>
      </trkpt>
      <trkpt lat="46.30605" lon="6.50041">
        <ele>872.49</ele>
        <time>2024-01-29T10:42:35Z</time>
      </trkpt>
      <trkpt lat="46.30567" lon="6.50002">
        <ele>876.69</ele>
        <time>2024-01-29T10:43:07Z</time>
      </trkpt>
      <trkpt lat="46.30549" lon="6.49989">
        <ele>878.3</ele>
        <time>2024-01-29T10:43:21Z</time>
      </trkpt>
      <trkpt lat="46.30541" lon="6.49981">
        <ele>879.26</ele>
        <time>2024-01-29T10:43:28Z</time>
      </trkpt>
      <trkpt lat="46.30531" lon="6.49981">
        <ele>880.97</ele>
        <time>2024-01-29T10:43:35Z</time>
      </trkpt>
      <trkpt lat="46.30483" lon="6.4996">
        <ele>888.48</ele>
        <time>2024-01-29T10:44:09Z</time>
      </trkpt>
      <trkpt lat="46.30433" lon="6.49955">
        <ele>896.17</ele>
        <time>2024-01-29T10:44:43Z</time>
      </trkpt>
      <trkpt lat="46.30418" lon="6.49958">
        <ele>898.71</ele>
        <time>2024-01-29T10:44:54Z</time>
      </trkpt>
      <trkpt lat="46.30386" lon="6.49975">
        <ele>904.12</ele>
        <time>2024-01-29T10:45:19Z</time>
      </trkpt>
      <trkpt lat="46.30367" lon="6.49973">
        <ele>907.48</ele>
        <time>2024-01-29T10:45:32Z</time>
      </trkpt>
      <trkpt lat="46.30304" lon="6.49959">
        <ele>917.82</ele>
        <time>2024-01-29T10:46:14Z</time>
      </trkpt>
      <trkpt lat="46.30275" lon="6.49964">
        <ele>921.09</ele>
        <time>2024-01-29T10:46:33Z</time>
      </trkpt>
      <trkpt lat="46.30269" lon="6.49973">
        <ele>921.92</ele>
        <time>2024-01-29T10:46:38Z</time>
      </trkpt>
      <trkpt lat="46.30251" lon="6.49992">
        <ele>924.06</ele>
        <time>2024-01-29T10:46:52Z</time>
      </trkpt>
      <trkpt lat="46.30232" lon="6.50002">
        <ele>925.75</ele>
        <time>2024-01-29T10:47:04Z</time>
      </trkpt>
      <trkpt lat="46.30225" lon="6.50013">
        <ele>926.87</ele>
        <time>2024-01-29T10:47:10Z</time>
      </trkpt>
      <trkpt lat="46.30223" lon="6.50026">
        <ele>927.96</ele>
        <time>2024-01-29T10:47:16Z</time>
      </trkpt>
      <trkpt lat="46.30221" lon="6.50064">
        <ele>930.02</ele>
        <time>2024-01-29T10:47:31Z</time>
      </trkpt>
      <trkpt lat="46.30217" lon="6.50143">
        <ele>935.25</ele>
        <time>2024-01-29T10:48:04Z</time>
      </trkpt>
      <trkpt lat="46.30216" lon="6.50159">
        <ele>936.34</ele>
        <time>2024-01-29T10:48:10Z</time>
      </trkpt>
      <trkpt lat="46.30214" lon="6.50189">
        <ele>938.06</ele>
        <time>2024-01-29T10:48:23Z</time>
      </trkpt>
      <trkpt lat="46.30211" lon="6.50206">
        <ele>939.24</ele>
        <time>2024-01-29T10:48:30Z</time>
      </trkpt>
      <trkpt lat="46.30181" lon="6.50271">
        <ele>944.06</ele>
        <time>2024-01-29T10:49:01Z</time>
      </trkpt>
      <trkpt lat="46.30171" lon="6.50294">
        <ele>945.43</ele>
        <time>2024-01-29T10:49:12Z</time>
      </trkpt>
      <trkpt lat="46.30164" lon="6.50329">
        <ele>947.81</ele>
        <time>2024-01-29T10:49:29Z</time>
      </trkpt>
      <trkpt lat="46.30159" lon="6.50336">
        <ele>948.66</ele>
        <time>2024-01-29T10:49:33Z</time>
      </trkpt>
      <trkpt lat="46.30155" lon="6.50338">
        <ele>949</ele>
        <time>2024-01-29T10:49:36Z</time>
      </trkpt>
      <trkpt lat="46.30147" lon="6.50334">
        <ele>949.76</ele>
        <time>2024-01-29T10:49:42Z</time>
      </trkpt>
      <trkpt lat="46.30131" lon="6.50307">
        <ele>952.03</ele>
        <time>2024-01-29T10:50:00Z</time>
      </trkpt>
      <trkpt lat="46.30116" lon="6.50292">
        <ele>953.36</ele>
        <time>2024-01-29T10:50:13Z</time>
      </trkpt>
      <trkpt lat="46.30112" lon="6.50288">
        <ele>953.81</ele>
        <time>2024-01-29T10:50:17Z</time>
      </trkpt>
      <trkpt lat="46.30098" lon="6.50324">
        <ele>957.66</ele>
        <time>2024-01-29T10:50:41Z</time>
      </trkpt>
      <trkpt lat="46.30094" lon="6.50327">
        <ele>957.43</ele>
        <time>2024-01-29T10:50:45Z</time>
      </trkpt>
      <trkpt lat="46.3009" lon="6.50327">
        <ele>957.85</ele>
        <time>2024-01-29T10:50:48Z</time>
      </trkpt>
      <trkpt lat="46.30064" lon="6.50318">
        <ele>962</ele>
        <time>2024-01-29T10:51:14Z</time>
      </trkpt>
      <trkpt lat="46.30042" lon="6.50333">
        <ele>966.52</ele>
        <time>2024-01-29T10:51:39Z</time>
      </trkpt>
      <trkpt lat="46.3002" lon="6.50335">
        <ele>972.15</ele>
        <time>2024-01-29T10:52:01Z</time>
      </trkpt>
      <trkpt lat="46.29997" lon="6.50332">
        <ele>974.75</ele>
        <time>2024-01-29T10:52:22Z</time>
      </trkpt>
      <trkpt lat="46.29988" lon="6.50334">
        <ele>976.3</ele>
        <time>2024-01-29T10:52:30Z</time>
      </trkpt>
      <trkpt lat="46.29931" lon="6.50403">
        <ele>987.12</ele>
        <time>2024-01-29T10:53:35Z</time>
      </trkpt>
      <trkpt lat="46.2993" lon="6.50406">
        <ele>987.43</ele>
        <time>2024-01-29T10:53:37Z</time>
      </trkpt>
      <trkpt lat="46.29925" lon="6.50428">
        <ele>988.24</ele>
        <time>2024-01-29T10:53:50Z</time>
      </trkpt>
      <trkpt lat="46.29926" lon="6.50442">
        <ele>988.6</ele>
        <time>2024-01-29T10:53:57Z</time>
      </trkpt>
      <trkpt lat="46.29949" lon="6.50476">
        <ele>991.42</ele>
        <time>2024-01-29T10:54:20Z</time>
      </trkpt>
      <trkpt lat="46.29959" lon="6.50514">
        <ele>993.63</ele>
        <time>2024-01-29T10:54:39Z</time>
      </trkpt>
      <trkpt lat="46.29966" lon="6.50529">
        <ele>994.89</ele>
        <time>2024-01-29T10:54:47Z</time>
      </trkpt>
      <trkpt lat="46.29982" lon="6.50543">
        <ele>996.19</ele>
        <time>2024-01-29T10:54:58Z</time>
      </trkpt>
      <trkpt lat="46.30007" lon="6.50546">
        <ele>998.07</ele>
        <time>2024-01-29T10:55:12Z</time>
      </trkpt>
      <trkpt lat="46.30015" lon="6.5055">
        <ele>998.89</ele>
        <time>2024-01-29T10:55:16Z</time>
      </trkpt>
      <trkpt lat="46.30018" lon="6.50556">
        <ele>999.52</ele>
        <time>2024-01-29T10:55:19Z</time>
      </trkpt>
      <trkpt lat="46.30019" lon="6.50566">
        <ele>1000.22</ele>
        <time>2024-01-29T10:55:24Z</time>
      </trkpt>
      <trkpt lat="46.30017" lon="6.50574">
        <ele>1001.11</ele>
        <time>2024-01-29T10:55:26Z</time>
      </trkpt>
      <trkpt lat="46.30013" lon="6.50579">
        <ele>1001.59</ele>
        <time>2024-01-29T10:55:29Z</time>
      </trkpt>
      <trkpt lat="46.29981" lon="6.50573">
        <ele>1004.56</ele>
        <time>2024-01-29T10:55:46Z</time>
      </trkpt>
      <trkpt lat="46.2991" lon="6.50589">
        <ele>1010.9</ele>
        <time>2024-01-29T10:56:25Z</time>
      </trkpt>
      <trkpt lat="46.29876" lon="6.50587">
        <ele>1013.99</ele>
        <time>2024-01-29T10:56:45Z</time>
      </trkpt>
      <trkpt lat="46.29867" lon="6.50594">
        <ele>1015.22</ele>
        <time>2024-01-29T10:56:51Z</time>
      </trkpt>
      <trkpt lat="46.29866" lon="6.50608">
        <ele>1016.43</ele>
        <time>2024-01-29T10:56:56Z</time>
      </trkpt>
      <trkpt lat="46.2987" lon="6.50616">
        <ele>1017.3</ele>
        <time>2024-01-29T10:57:00Z</time>
      </trkpt>
      <trkpt lat="46.29879" lon="6.50622">
        <ele>1018.3</ele>
        <time>2024-01-29T10:57:06Z</time>
      </trkpt>
      <trkpt lat="46.2995" lon="6.50638">
        <ele>1024.32</ele>
        <time>2024-01-29T10:57:52Z</time>
      </trkpt>
      <trkpt lat="46.29992" lon="6.50644">
        <ele>1028.27</ele>
        <time>2024-01-29T10:58:23Z</time>
      </trkpt>
      <trkpt lat="46.30032" lon="6.50656">
        <ele>1031.43</ele>
        <time>2024-01-29T10:58:56Z</time>
      </trkpt>
      <trkpt lat="46.30036" lon="6.50658">
        <ele>1031.92</ele>
        <time>2024-01-29T10:59:00Z</time>
      </trkpt>
      <trkpt lat="46.30078" lon="6.50674">
        <ele>1035.84</ele>
        <time>2024-01-29T10:59:37Z</time>
      </trkpt>
      <trkpt lat="46.30153" lon="6.50719">
        <ele>1042.59</ele>
        <time>2024-01-29T11:00:49Z</time>
      </trkpt>
      <trkpt lat="46.30185" lon="6.50744">
        <ele>1045.86</ele>
        <time>2024-01-29T11:01:15Z</time>
      </trkpt>
      <trkpt lat="46.30208" lon="6.50751">
        <ele>1047.7</ele>
        <time>2024-01-29T11:01:30Z</time>
      </trkpt>
      <trkpt lat="46.30217" lon="6.50762">
        <ele>1048.89</ele>
        <time>2024-01-29T11:01:35Z</time>
      </trkpt>
      <trkpt lat="46.30217" lon="6.50776">
        <ele>1049.98</ele>
        <time>2024-01-29T11:01:39Z</time>
      </trkpt>
      <trkpt lat="46.30213" lon="6.50783">
        <ele>1050.94</ele>
        <time>2024-01-29T11:01:42Z</time>
      </trkpt>
      <trkpt lat="46.30205" lon="6.50784">
        <ele>1051.22</ele>
        <time>2024-01-29T11:01:45Z</time>
      </trkpt>
      <trkpt lat="46.30167" lon="6.50755">
        <ele>1054.45</ele>
        <time>2024-01-29T11:01:55Z</time>
      </trkpt>
      <trkpt lat="46.30142" lon="6.50745">
        <ele>1056.98</ele>
        <time>2024-01-29T11:01:59Z</time>
      </trkpt>
      <trkpt lat="46.30056" lon="6.50732">
        <ele>1064.82</ele>
        <time>2024-01-29T11:02:10Z</time>
      </trkpt>
      <trkpt lat="46.30032" lon="6.50731">
        <ele>1067.1</ele>
        <time>2024-01-29T11:02:13Z</time>
      </trkpt>
      <trkpt lat="46.30015" lon="6.50734">
        <ele>1068.69</ele>
        <time>2024-01-29T11:02:15Z</time>
      </trkpt>
      <trkpt lat="46.29992" lon="6.50746">
        <ele>1070.53</ele>
        <time>2024-01-29T11:02:18Z</time>
      </trkpt>
      <trkpt lat="46.29959" lon="6.50771">
        <ele>1073.31</ele>
        <time>2024-01-29T11:02:24Z</time>
      </trkpt>
      <trkpt lat="46.29921" lon="6.50811">
        <ele>1077.51</ele>
        <time>2024-01-29T11:02:35Z</time>
      </trkpt>
      <trkpt lat="46.29881" lon="6.50847">
        <ele>1081.73</ele>
        <time>2024-01-29T11:02:55Z</time>
      </trkpt>
      <trkpt lat="46.29849" lon="6.50887">
        <ele>1085.35</ele>
        <time>2024-01-29T11:03:19Z</time>
      </trkpt>
      <trkpt lat="46.2983" lon="6.50906">
        <ele>1087.76</ele>
        <time>2024-01-29T11:03:32Z</time>
      </trkpt>
      <trkpt lat="46.29784" lon="6.50929">
        <ele>1091.71</ele>
        <time>2024-01-29T11:04:03Z</time>
      </trkpt>
      <trkpt lat="46.29754" lon="6.50954">
        <ele>1094.58</ele>
        <time>2024-01-29T11:04:25Z</time>
      </trkpt>
      <trkpt lat="46.2974" lon="6.50961">
        <ele>1095.8</ele>
        <time>2024-01-29T11:04:35Z</time>
      </trkpt>
      <trkpt lat="46.29585" lon="6.50975">
        <ele>1109.2</ele>
        <time>2024-01-29T11:05:59Z</time>
      </trkpt>
      <trkpt lat="46.29554" lon="6.50975">
        <ele>1111.91</ele>
        <time>2024-01-29T11:06:09Z</time>
      </trkpt>
      <trkpt lat="46.29523" lon="6.50968">
        <ele>1114.65</ele>
        <time>2024-01-29T11:06:18Z</time>
      </trkpt>
      <trkpt lat="46.2949" lon="6.50954">
        <ele>1117.59</ele>
        <time>2024-01-29T11:06:25Z</time>
      </trkpt>
      <trkpt lat="46.29462" lon="6.50942">
        <ele>1120.18</ele>
        <time>2024-01-29T11:06:30Z</time>
      </trkpt>
      <trkpt lat="46.29456" lon="6.50939">
        <ele>1120.46</ele>
        <time>2024-01-29T11:06:31Z</time>
      </trkpt>
      <trkpt lat="46.29451" lon="6.50936">
        <ele>1120.66</ele>
        <time>2024-01-29T11:06:31Z</time>
      </trkpt>
      <trkpt lat="46.29445" lon="6.50933">
        <ele>1120.83</ele>
        <time>2024-01-29T11:06:32Z</time>
      </trkpt>
      <trkpt lat="46.2944" lon="6.5093">
        <ele>1120.81</ele>
        <time>2024-01-29T11:06:33Z</time>
      </trkpt>
      <trkpt lat="46.29441" lon="6.50927">
        <ele>1120.81</ele>
        <time>2024-01-29T11:06:33Z</time>
      </trkpt>
      <trkpt lat="46.29441" lon="6.50925">
        <ele>1120.81</ele>
        <time>2024-01-29T11:06:33Z</time>
      </trkpt>
      <trkpt lat="46.29441" lon="6.50923">
        <ele>1120.87</ele>
        <time>2024-01-29T11:06:33Z</time>
      </trkpt>
      <trkpt lat="46.2944" lon="6.50921">
        <ele>1120.87</ele>
        <time>2024-01-29T11:06:34Z</time>
      </trkpt>
      <trkpt lat="46.2944" lon="6.50919">
        <ele>1120.87</ele>
        <time>2024-01-29T11:06:34Z</time>
      </trkpt>
      <trkpt lat="46.29439" lon="6.50917">
        <ele>1120.94</ele>
        <time>2024-01-29T11:06:34Z</time>
      </trkpt>
      <trkpt lat="46.29424" lon="6.50889">
        <ele>1121.34</ele>
        <time>2024-01-29T11:06:37Z</time>
      </trkpt>
      <trkpt lat="46.29402" lon="6.50853">
        <ele>1122.99</ele>
        <time>2024-01-29T11:06:42Z</time>
      </trkpt>
      <trkpt lat="46.2938" lon="6.50835">
        <ele>1125.21</ele>
        <time>2024-01-29T11:06:45Z</time>
      </trkpt>
      <trkpt lat="46.29346" lon="6.50825">
        <ele>1128.66</ele>
        <time>2024-01-29T11:06:50Z</time>
      </trkpt>
      <trkpt lat="46.29314" lon="6.50831">
        <ele>1131.54</ele>
        <time>2024-01-29T11:06:56Z</time>
      </trkpt>
      <trkpt lat="46.29307" lon="6.50829">
        <ele>1132.55</ele>
        <time>2024-01-29T11:06:58Z</time>
      </trkpt>
      <trkpt lat="46.29298" lon="6.50818">
        <ele>1133.91</ele>
        <time>2024-01-29T11:07:01Z</time>
      </trkpt>
      <trkpt lat="46.2929" lon="6.5079">
        <ele>1135.92</ele>
        <time>2024-01-29T11:07:08Z</time>
      </trkpt>
      <trkpt lat="46.29286" lon="6.50778">
        <ele>1136.19</ele>
        <time>2024-01-29T11:07:11Z</time>
      </trkpt>
      <trkpt lat="46.29279" lon="6.50759">
        <ele>1137.55</ele>
        <time>2024-01-29T11:07:17Z</time>
      </trkpt>
      <trkpt lat="46.29271" lon="6.50744">
        <ele>1137.8</ele>
        <time>2024-01-29T11:07:22Z</time>
      </trkpt>
      <trkpt lat="46.29198" lon="6.50641">
        <ele>1142.31</ele>
        <time>2024-01-29T11:08:20Z</time>
      </trkpt>
      <trkpt lat="46.29185" lon="6.50627">
        <ele>1142.86</ele>
        <time>2024-01-29T11:08:33Z</time>
      </trkpt>
      <trkpt lat="46.29122" lon="6.50575">
        <ele>1144.82</ele>
        <time>2024-01-29T11:09:33Z</time>
      </trkpt>
      <trkpt lat="46.29068" lon="6.50518">
        <ele>1147.8</ele>
        <time>2024-01-29T11:10:27Z</time>
      </trkpt>
      <trkpt lat="46.29053" lon="6.50507">
        <ele>1149.24</ele>
        <time>2024-01-29T11:10:40Z</time>
      </trkpt>
      <trkpt lat="46.29027" lon="6.50495">
        <ele>1152.52</ele>
        <time>2024-01-29T11:11:00Z</time>
      </trkpt>
      <trkpt lat="46.28998" lon="6.5047">
        <ele>1156.26</ele>
        <time>2024-01-29T11:11:24Z</time>
      </trkpt>
      <trkpt lat="46.28957" lon="6.50443">
        <ele>1160.68</ele>
        <time>2024-01-29T11:11:52Z</time>
      </trkpt>
      <trkpt lat="46.28888" lon="6.50418">
        <ele>1166.78</ele>
        <time>2024-01-29T11:12:17Z</time>
      </trkpt>
      <trkpt lat="46.28853" lon="6.50424">
        <ele>1170.15</ele>
        <time>2024-01-29T11:12:23Z</time>
      </trkpt>
      <trkpt lat="46.28835" lon="6.5042">
        <ele>1171.61</ele>
        <time>2024-01-29T11:12:25Z</time>
      </trkpt>
      <trkpt lat="46.28824" lon="6.5041">
        <ele>1172.12</ele>
        <time>2024-01-29T11:12:27Z</time>
      </trkpt>
      <trkpt lat="46.28809" lon="6.50374">
        <ele>1169.84</ele>
        <time>2024-01-29T11:12:30Z</time>
      </trkpt>
      <trkpt lat="46.288" lon="6.50363">
        <ele>1169.18</ele>
        <time>2024-01-29T11:12:32Z</time>
      </trkpt>
      <trkpt lat="46.28781" lon="6.50359">
        <ele>1167.44</ele>
        <time>2024-01-29T11:12:34Z</time>
      </trkpt>
      <trkpt lat="46.28755" lon="6.50364">
        <ele>1164.14</ele>
        <time>2024-01-29T11:12:37Z</time>
      </trkpt>
      <trkpt lat="46.28733" lon="6.5037">
        <ele>1160.74</ele>
        <time>2024-01-29T11:12:39Z</time>
      </trkpt>
      <trkpt lat="46.28702" lon="6.50386">
        <ele>1156.91</ele>
        <time>2024-01-29T11:12:43Z</time>
      </trkpt>
      <trkpt lat="46.28679" lon="6.50396">
        <ele>1154.1</ele>
        <time>2024-01-29T11:12:46Z</time>
      </trkpt>
      <trkpt lat="46.28672" lon="6.50395">
        <ele>1152.55</ele>
        <time>2024-01-29T11:12:46Z</time>
      </trkpt>
      <trkpt lat="46.28667" lon="6.50386">
        <ele>1151.27</ele>
        <time>2024-01-29T11:12:47Z</time>
      </trkpt>
      <trkpt lat="46.28667" lon="6.50365">
        <ele>1149.9</ele>
        <time>2024-01-29T11:12:49Z</time>
      </trkpt>
      <trkpt lat="46.28664" lon="6.50352">
        <ele>1148.94</ele>
        <time>2024-01-29T11:12:50Z</time>
      </trkpt>
      <trkpt lat="46.28652" lon="6.50334">
        <ele>1147.05</ele>
        <time>2024-01-29T11:12:52Z</time>
      </trkpt>
      <trkpt lat="46.28637" lon="6.50321">
        <ele>1145.18</ele>
        <time>2024-01-29T11:12:54Z</time>
      </trkpt>
      <trkpt lat="46.286" lon="6.50286">
        <ele>1140.51</ele>
        <time>2024-01-29T11:12:59Z</time>
      </trkpt>
      <trkpt lat="46.2857" lon="6.50262">
        <ele>1137.06</ele>
        <time>2024-01-29T11:13:03Z</time>
      </trkpt>
      <trkpt lat="46.2853" lon="6.50243">
        <ele>1133.36</ele>
        <time>2024-01-29T11:13:07Z</time>
      </trkpt>
      <trkpt lat="46.28488" lon="6.5021">
        <ele>1129</ele>
        <time>2024-01-29T11:13:13Z</time>
      </trkpt>
      <trkpt lat="46.28432" lon="6.50185">
        <ele>1122.68</ele>
        <time>2024-01-29T11:13:20Z</time>
      </trkpt>
      <trkpt lat="46.28391" lon="6.50178">
        <ele>1118.25</ele>
        <time>2024-01-29T11:13:25Z</time>
      </trkpt>
      <trkpt lat="46.28385" lon="6.50181">
        <ele>1117.05</ele>
        <time>2024-01-29T11:13:26Z</time>
      </trkpt>
      <trkpt lat="46.28381" lon="6.5019">
        <ele>1115.81</ele>
        <time>2024-01-29T11:13:27Z</time>
      </trkpt>
      <trkpt lat="46.28379" lon="6.50213">
        <ele>1114.26</ele>
        <time>2024-01-29T11:13:29Z</time>
      </trkpt>
      <trkpt lat="46.28381" lon="6.50228">
        <ele>1112.64</ele>
        <time>2024-01-29T11:13:30Z</time>
      </trkpt>
      <trkpt lat="46.28389" lon="6.5024">
        <ele>1111.87</ele>
        <time>2024-01-29T11:13:31Z</time>
      </trkpt>
      <trkpt lat="46.28407" lon="6.50255">
        <ele>1109</ele>
        <time>2024-01-29T11:13:34Z</time>
      </trkpt>
      <trkpt lat="46.2842" lon="6.50278">
        <ele>1107.02</ele>
        <time>2024-01-29T11:13:36Z</time>
      </trkpt>
      <trkpt lat="46.28445" lon="6.50306">
        <ele>1103.47</ele>
        <time>2024-01-29T11:13:40Z</time>
      </trkpt>
      <trkpt lat="46.28449" lon="6.50321">
        <ele>1102.01</ele>
        <time>2024-01-29T11:13:41Z</time>
      </trkpt>
      <trkpt lat="46.28443" lon="6.5033">
        <ele>1100.64</ele>
        <time>2024-01-29T11:13:42Z</time>
      </trkpt>
      <trkpt lat="46.28417" lon="6.50329">
        <ele>1097.73</ele>
        <time>2024-01-29T11:13:45Z</time>
      </trkpt>
      <trkpt lat="46.28389" lon="6.50345">
        <ele>1093.39</ele>
        <time>2024-01-29T11:13:49Z</time>
      </trkpt>
      <trkpt lat="46.28377" lon="6.50346">
        <ele>1091.72</ele>
        <time>2024-01-29T11:13:50Z</time>
      </trkpt>
      <trkpt lat="46.28342" lon="6.50334">
        <ele>1087.17</ele>
        <time>2024-01-29T11:13:54Z</time>
      </trkpt>
      <trkpt lat="46.28311" lon="6.50312">
        <ele>1082.58</ele>
        <time>2024-01-29T11:13:58Z</time>
      </trkpt>
      <trkpt lat="46.28239" lon="6.50301">
        <ele>1072.6</ele>
        <time>2024-01-29T11:14:06Z</time>
      </trkpt>
      <trkpt lat="46.28207" lon="6.50292">
        <ele>1068.82</ele>
        <time>2024-01-29T11:14:10Z</time>
      </trkpt>
      <trkpt lat="46.28201" lon="6.50295">
        <ele>1068.27</ele>
        <time>2024-01-29T11:14:11Z</time>
      </trkpt>
      <trkpt lat="46.28198" lon="6.50303">
        <ele>1067.03</ele>
        <time>2024-01-29T11:14:12Z</time>
      </trkpt>
      <trkpt lat="46.282" lon="6.50328">
        <ele>1064.31</ele>
        <time>2024-01-29T11:14:14Z</time>
      </trkpt>
      <trkpt lat="46.28208" lon="6.50423">
        <ele>1057.3</ele>
        <time>2024-01-29T11:14:21Z</time>
      </trkpt>
      <trkpt lat="46.28205" lon="6.50464">
        <ele>1053.91</ele>
        <time>2024-01-29T11:14:25Z</time>
      </trkpt>
      <trkpt lat="46.28217" lon="6.50492">
        <ele>1051.98</ele>
        <time>2024-01-29T11:14:27Z</time>
      </trkpt>
      <trkpt lat="46.28217" lon="6.50501">
        <ele>1050.98</ele>
        <time>2024-01-29T11:14:28Z</time>
      </trkpt>
      <trkpt lat="46.28214" lon="6.50506">
        <ele>1049.91</ele>
        <time>2024-01-29T11:14:29Z</time>
      </trkpt>
      <trkpt lat="46.2821" lon="6.50508">
        <ele>1049.89</ele>
        <time>2024-01-29T11:14:29Z</time>
      </trkpt>
      <trkpt lat="46.28204" lon="6.50504">
        <ele>1048.63</ele>
        <time>2024-01-29T11:14:30Z</time>
      </trkpt>
      <trkpt lat="46.28177" lon="6.50471">
        <ele>1045</ele>
        <time>2024-01-29T11:14:34Z</time>
      </trkpt>
      <trkpt lat="46.28148" lon="6.50448">
        <ele>1040.94</ele>
        <time>2024-01-29T11:14:38Z</time>
      </trkpt>
      <trkpt lat="46.28076" lon="6.5043">
        <ele>1033.01</ele>
        <time>2024-01-29T11:14:47Z</time>
      </trkpt>
      <trkpt lat="46.28028" lon="6.50392">
        <ele>1028.13</ele>
        <time>2024-01-29T11:14:55Z</time>
      </trkpt>
      <trkpt lat="46.27977" lon="6.50354">
        <ele>1024.01</ele>
        <time>2024-01-29T11:15:04Z</time>
      </trkpt>
      <trkpt lat="46.27896" lon="6.50323">
        <ele>1020.67</ele>
        <time>2024-01-29T11:15:17Z</time>
      </trkpt>
      <trkpt lat="46.27886" lon="6.50321">
        <ele>1020.58</ele>
        <time>2024-01-29T11:15:18Z</time>
      </trkpt>
      <trkpt lat="46.27876" lon="6.50325">
        <ele>1020.13</ele>
        <time>2024-01-29T11:15:20Z</time>
      </trkpt>
      <trkpt lat="46.27871" lon="6.50329">
        <ele>1019.83</ele>
        <time>2024-01-29T11:15:21Z</time>
      </trkpt>
      <trkpt lat="46.27866" lon="6.5034">
        <ele>1019.34</ele>
        <time>2024-01-29T11:15:22Z</time>
      </trkpt>
      <trkpt lat="46.27855" lon="6.50362">
        <ele>1018.9</ele>
        <time>2024-01-29T11:15:24Z</time>
      </trkpt>
      <trkpt lat="46.27837" lon="6.50391">
        <ele>1017.41</ele>
        <time>2024-01-29T11:15:28Z</time>
      </trkpt>
      <trkpt lat="46.27813" lon="6.50418">
        <ele>1016.21</ele>
        <time>2024-01-29T11:15:31Z</time>
      </trkpt>
      <trkpt lat="46.27788" lon="6.5044">
        <ele>1014.85</ele>
        <time>2024-01-29T11:15:35Z</time>
      </trkpt>
      <trkpt lat="46.2777" lon="6.50453">
        <ele>1013.92</ele>
        <time>2024-01-29T11:15:37Z</time>
      </trkpt>
      <trkpt lat="46.27749" lon="6.50463">
        <ele>1013.25</ele>
        <time>2024-01-29T11:15:40Z</time>
      </trkpt>
      <trkpt lat="46.27692" lon="6.50479">
        <ele>1010.79</ele>
        <time>2024-01-29T11:15:47Z</time>
      </trkpt>
      <trkpt lat="46.27658" lon="6.50476">
        <ele>1011.01</ele>
        <time>2024-01-29T11:15:52Z</time>
      </trkpt>
      <trkpt lat="46.27635" lon="6.50467">
        <ele>1008.73</ele>
        <time>2024-01-29T11:15:55Z</time>
      </trkpt>
      <trkpt lat="46.27622" lon="6.50458">
        <ele>1008.34</ele>
        <time>2024-01-29T11:15:58Z</time>
      </trkpt>
      <trkpt lat="46.27603" lon="6.50435">
        <ele>1007.76</ele>
        <time>2024-01-29T11:16:05Z</time>
      </trkpt>
      <trkpt lat="46.27584" lon="6.50395">
        <ele>1007.17</ele>
        <time>2024-01-29T11:16:17Z</time>
      </trkpt>
      <trkpt lat="46.27569" lon="6.50371">
        <ele>1007.01</ele>
        <time>2024-01-29T11:16:28Z</time>
      </trkpt>
      <trkpt lat="46.27576" lon="6.50352">
        <ele>1009.13</ele>
        <time>2024-01-29T11:16:36Z</time>
      </trkpt>
      <trkpt lat="46.27577" lon="6.50337">
        <ele>1010.28</ele>
        <time>2024-01-29T11:16:42Z</time>
      </trkpt>
      <trkpt lat="46.27575" lon="6.50322">
        <ele>1011.75</ele>
        <time>2024-01-29T11:16:48Z</time>
      </trkpt>
      <trkpt lat="46.27565" lon="6.50295">
        <ele>1014.11</ele>
        <time>2024-01-29T11:17:02Z</time>
      </trkpt>
      <trkpt lat="46.27538" lon="6.50217">
        <ele>1020.93</ele>
        <time>2024-01-29T11:17:45Z</time>
      </trkpt>
      <trkpt lat="46.27524" lon="6.50194">
        <ele>1023.18</ele>
        <time>2024-01-29T11:18:01Z</time>
      </trkpt>
      <trkpt lat="46.27506" lon="6.50181">
        <ele>1024.98</ele>
        <time>2024-01-29T11:18:15Z</time>
      </trkpt>
      <trkpt lat="46.2746" lon="6.50164">
        <ele>1029.53</ele>
        <time>2024-01-29T11:18:49Z</time>
      </trkpt>
      <trkpt lat="46.27415" lon="6.5014">
        <ele>1034.35</ele>
        <time>2024-01-29T11:19:20Z</time>
      </trkpt>
      <trkpt lat="46.27372" lon="6.50127">
        <ele>1038.58</ele>
        <time>2024-01-29T11:19:45Z</time>
      </trkpt>
      <trkpt lat="46.27337" lon="6.50126">
        <ele>1041.85</ele>
        <time>2024-01-29T11:20:02Z</time>
      </trkpt>
      <trkpt lat="46.27303" lon="6.50106">
        <ele>1045.35</ele>
        <time>2024-01-29T11:20:22Z</time>
      </trkpt>
      <trkpt lat="46.27292" lon="6.50104">
        <ele>1046.14</ele>
        <time>2024-01-29T11:20:28Z</time>
      </trkpt>
      <trkpt lat="46.27279" lon="6.50111">
        <ele>1047.59</ele>
        <time>2024-01-29T11:20:36Z</time>
      </trkpt>
      <trkpt lat="46.2725" lon="6.50143">
        <ele>1051.09</ele>
        <time>2024-01-29T11:20:57Z</time>
      </trkpt>
      <trkpt lat="46.27238" lon="6.50151">
        <ele>1052.5</ele>
        <time>2024-01-29T11:21:06Z</time>
      </trkpt>
      <trkpt lat="46.27219" lon="6.50155">
        <ele>1054.18</ele>
        <time>2024-01-29T11:21:18Z</time>
      </trkpt>
      <trkpt lat="46.2721" lon="6.50153">
        <ele>1055.04</ele>
        <time>2024-01-29T11:21:23Z</time>
      </trkpt>
      <trkpt lat="46.272" lon="6.50146">
        <ele>1056.55</ele>
        <time>2024-01-29T11:21:30Z</time>
      </trkpt>
      <trkpt lat="46.2718" lon="6.50122">
        <ele>1058.84</ele>
        <time>2024-01-29T11:21:46Z</time>
      </trkpt>
      <trkpt lat="46.27171" lon="6.50108">
        <ele>1060.07</ele>
        <time>2024-01-29T11:21:54Z</time>
      </trkpt>
      <trkpt lat="46.27168" lon="6.50097">
        <ele>1061.24</ele>
        <time>2024-01-29T11:22:00Z</time>
      </trkpt>
      <trkpt lat="46.27164" lon="6.50066">
        <ele>1063</ele>
        <time>2024-01-29T11:22:14Z</time>
      </trkpt>
      <trkpt lat="46.27159" lon="6.50046">
        <ele>1064.44</ele>
        <time>2024-01-29T11:22:23Z</time>
      </trkpt>
      <trkpt lat="46.27136" lon="6.50002">
        <ele>1068.07</ele>
        <time>2024-01-29T11:22:47Z</time>
      </trkpt>
      <trkpt lat="46.27127" lon="6.49976">
        <ele>1070.05</ele>
        <time>2024-01-29T11:23:00Z</time>
      </trkpt>
      <trkpt lat="46.27113" lon="6.49893">
        <ele>1075.57</ele>
        <time>2024-01-29T11:23:34Z</time>
      </trkpt>
      <trkpt lat="46.27115" lon="6.49876">
        <ele>1076.51</ele>
        <time>2024-01-29T11:23:40Z</time>
      </trkpt>
      <trkpt lat="46.27123" lon="6.49862">
        <ele>1077.87</ele>
        <time>2024-01-29T11:23:46Z</time>
      </trkpt>
      <trkpt lat="46.27137" lon="6.49857">
        <ele>1078.91</ele>
        <time>2024-01-29T11:23:52Z</time>
      </trkpt>
      <trkpt lat="46.27195" lon="6.49872">
        <ele>1082.9</ele>
        <time>2024-01-29T11:24:17Z</time>
      </trkpt>
      <trkpt lat="46.27205" lon="6.49868">
        <ele>1083.53</ele>
        <time>2024-01-29T11:24:21Z</time>
      </trkpt>
      <trkpt lat="46.27225" lon="6.49848">
        <ele>1085.18</ele>
        <time>2024-01-29T11:24:30Z</time>
      </trkpt>
      <trkpt lat="46.27235" lon="6.49844">
        <ele>1085.81</ele>
        <time>2024-01-29T11:24:34Z</time>
      </trkpt>
      <trkpt lat="46.27248" lon="6.49844">
        <ele>1086.63</ele>
        <time>2024-01-29T11:24:38Z</time>
      </trkpt>
      <trkpt lat="46.27282" lon="6.49853">
        <ele>1089.05</ele>
        <time>2024-01-29T11:24:49Z</time>
      </trkpt>
      <trkpt lat="46.27297" lon="6.4985">
        <ele>1090.96</ele>
        <time>2024-01-29T11:24:54Z</time>
      </trkpt>
      <trkpt lat="46.27309" lon="6.49837">
        <ele>1092.64</ele>
        <time>2024-01-29T11:25:00Z</time>
      </trkpt>
      <trkpt lat="46.27314" lon="6.49819">
        <ele>1093.79</ele>
        <time>2024-01-29T11:25:05Z</time>
      </trkpt>
      <trkpt lat="46.27313" lon="6.49799">
        <ele>1095.32</ele>
        <time>2024-01-29T11:25:10Z</time>
      </trkpt>
      <trkpt lat="46.27306" lon="6.49783">
        <ele>1097.25</ele>
        <time>2024-01-29T11:25:15Z</time>
      </trkpt>
      <trkpt lat="46.27265" lon="6.49754">
        <ele>1101.96</ele>
        <time>2024-01-29T11:25:34Z</time>
      </trkpt>
      <trkpt lat="46.27231" lon="6.49724">
        <ele>1106.23</ele>
        <time>2024-01-29T11:25:54Z</time>
      </trkpt>
      <trkpt lat="46.2722" lon="6.49721">
        <ele>1107.33</ele>
        <time>2024-01-29T11:26:00Z</time>
      </trkpt>
      <trkpt lat="46.27191" lon="6.49721">
        <ele>1110.54</ele>
        <time>2024-01-29T11:26:17Z</time>
      </trkpt>
      <trkpt lat="46.27176" lon="6.49716">
        <ele>1111.84</ele>
        <time>2024-01-29T11:26:26Z</time>
      </trkpt>
      <trkpt lat="46.27146" lon="6.49699">
        <ele>1115.17</ele>
        <time>2024-01-29T11:26:47Z</time>
      </trkpt>
      <trkpt lat="46.27128" lon="6.49681">
        <ele>1117.7</ele>
        <time>2024-01-29T11:27:03Z</time>
      </trkpt>
      <trkpt lat="46.2712" lon="6.49662">
        <ele>1119.09</ele>
        <time>2024-01-29T11:27:14Z</time>
      </trkpt>
      <trkpt lat="46.27114" lon="6.49588">
        <ele>1124.59</ele>
        <time>2024-01-29T11:27:57Z</time>
      </trkpt>
      <trkpt lat="46.27109" lon="6.49562">
        <ele>1126.92</ele>
        <time>2024-01-29T11:28:14Z</time>
      </trkpt>
      <trkpt lat="46.27101" lon="6.49546">
        <ele>1127.82</ele>
        <time>2024-01-29T11:28:27Z</time>
      </trkpt>
      <trkpt lat="46.27048" lon="6.49455">
        <ele>1137.64</ele>
        <time>2024-01-29T11:29:53Z</time>
      </trkpt>
      <trkpt lat="46.27011" lon="6.49362">
        <ele>1145.22</ele>
        <time>2024-01-29T11:31:06Z</time>
      </trkpt>
      <trkpt lat="46.26991" lon="6.49337">
        <ele>1147.76</ele>
        <time>2024-01-29T11:31:28Z</time>
      </trkpt>
      <trkpt lat="46.26943" lon="6.49298">
        <ele>1153.26</ele>
        <time>2024-01-29T11:32:02Z</time>
      </trkpt>
      <trkpt lat="46.26865" lon="6.49225">
        <ele>1162.14</ele>
        <time>2024-01-29T11:32:32Z</time>
      </trkpt>
      <trkpt lat="46.26853" lon="6.49215">
        <ele>1162.51</ele>
        <time>2024-01-29T11:32:35Z</time>
      </trkpt>
      <trkpt lat="46.26822" lon="6.49193">
        <ele>1162.02</ele>
        <time>2024-01-29T11:32:40Z</time>
      </trkpt>
      <trkpt lat="46.26735" lon="6.4914">
        <ele>1150.44</ele>
        <time>2024-01-29T11:32:52Z</time>
      </trkpt>
      <trkpt lat="46.26713" lon="6.49134">
        <ele>1147.93</ele>
        <time>2024-01-29T11:32:55Z</time>
      </trkpt>
      <trkpt lat="46.26665" lon="6.49134">
        <ele>1142.3</ele>
        <time>2024-01-29T11:33:01Z</time>
      </trkpt>
      <trkpt lat="46.26651" lon="6.49125">
        <ele>1139.02</ele>
        <time>2024-01-29T11:33:02Z</time>
      </trkpt>
      <trkpt lat="46.26647" lon="6.49114">
        <ele>1137.4</ele>
        <time>2024-01-29T11:33:03Z</time>
      </trkpt>
      <trkpt lat="46.26648" lon="6.49104">
        <ele>1136.59</ele>
        <time>2024-01-29T11:33:04Z</time>
      </trkpt>
      <trkpt lat="46.26661" lon="6.4907">
        <ele>1133.41</ele>
        <time>2024-01-29T11:33:07Z</time>
      </trkpt>
      <trkpt lat="46.26663" lon="6.49048">
        <ele>1131.54</ele>
        <time>2024-01-29T11:33:09Z</time>
      </trkpt>
      <trkpt lat="46.26644" lon="6.48959">
        <ele>1123.56</ele>
        <time>2024-01-29T11:33:16Z</time>
      </trkpt>
      <trkpt lat="46.26625" lon="6.48911">
        <ele>1117.91</ele>
        <time>2024-01-29T11:33:21Z</time>
      </trkpt>
      <trkpt lat="46.26547" lon="6.48769">
        <ele>1103.88</ele>
        <time>2024-01-29T11:33:35Z</time>
      </trkpt>
      <trkpt lat="46.26527" lon="6.4874">
        <ele>1100.47</ele>
        <time>2024-01-29T11:33:38Z</time>
      </trkpt>
      <trkpt lat="46.26494" lon="6.48702">
        <ele>1096.65</ele>
        <time>2024-01-29T11:33:43Z</time>
      </trkpt>
      <trkpt lat="46.2641" lon="6.48538">
        <ele>1082.51</ele>
        <time>2024-01-29T11:33:59Z</time>
      </trkpt>
      <trkpt lat="46.26376" lon="6.48483">
        <ele>1078.93</ele>
        <time>2024-01-29T11:34:05Z</time>
      </trkpt>
      <trkpt lat="46.26321" lon="6.48406">
        <ele>1070.74</ele>
        <time>2024-01-29T11:34:15Z</time>
      </trkpt>
      <trkpt lat="46.26246" lon="6.48272">
        <ele>1064.1</ele>
        <time>2024-01-29T11:34:29Z</time>
      </trkpt>
      <trkpt lat="46.26233" lon="6.48255">
        <ele>1063.22</ele>
        <time>2024-01-29T11:34:31Z</time>
      </trkpt>
      <trkpt lat="46.26218" lon="6.48242">
        <ele>1060.88</ele>
        <time>2024-01-29T11:34:33Z</time>
      </trkpt>
      <trkpt lat="46.26176" lon="6.48222">
        <ele>1058.53</ele>
        <time>2024-01-29T11:34:39Z</time>
      </trkpt>
      <trkpt lat="46.26126" lon="6.48178">
        <ele>1054.57</ele>
        <time>2024-01-29T11:34:46Z</time>
      </trkpt>
      <trkpt lat="46.26094" lon="6.48142">
        <ele>1047.37</ele>
        <time>2024-01-29T11:34:50Z</time>
      </trkpt>
      <trkpt lat="46.26081" lon="6.48116">
        <ele>1042.7</ele>
        <time>2024-01-29T11:34:53Z</time>
      </trkpt>
      <trkpt lat="46.26059" lon="6.4805">
        <ele>1038.62</ele>
        <time>2024-01-29T11:34:59Z</time>
      </trkpt>
      <trkpt lat="46.26037" lon="6.4801">
        <ele>1034.36</ele>
        <time>2024-01-29T11:35:03Z</time>
      </trkpt>
      <trkpt lat="46.2602" lon="6.47992">
        <ele>1031.72</ele>
        <time>2024-01-29T11:35:06Z</time>
      </trkpt>
      <trkpt lat="46.2597" lon="6.47958">
        <ele>1025.9</ele>
        <time>2024-01-29T11:35:13Z</time>
      </trkpt>
      <trkpt lat="46.25964" lon="6.47949">
        <ele>1025.17</ele>
        <time>2024-01-29T11:35:14Z</time>
      </trkpt>
      <trkpt lat="46.25958" lon="6.47934">
        <ele>1024.53</ele>
        <time>2024-01-29T11:35:15Z</time>
      </trkpt>
      <trkpt lat="46.2594" lon="6.4787">
        <ele>1020.6</ele>
        <time>2024-01-29T11:35:22Z</time>
      </trkpt>
      <trkpt lat="46.25938" lon="6.47852">
        <ele>1019.37</ele>
        <time>2024-01-29T11:35:23Z</time>
      </trkpt>
      <trkpt lat="46.2594" lon="6.47815">
        <ele>1017.2</ele>
        <time>2024-01-29T11:35:27Z</time>
      </trkpt>
      <trkpt lat="46.25936" lon="6.47792">
        <ele>1016.05</ele>
        <time>2024-01-29T11:35:30Z</time>
      </trkpt>
      <trkpt lat="46.25929" lon="6.47781">
        <ele>1015.08</ele>
        <time>2024-01-29T11:35:32Z</time>
      </trkpt>
      <trkpt lat="46.25893" lon="6.47747">
        <ele>1011.9</ele>
        <time>2024-01-29T11:35:39Z</time>
      </trkpt>
      <trkpt lat="46.25889" lon="6.47738">
        <ele>1011.11</ele>
        <time>2024-01-29T11:35:40Z</time>
      </trkpt>
      <trkpt lat="46.25882" lon="6.47738">
        <ele>1011.45</ele>
        <time>2024-01-29T11:35:41Z</time>
      </trkpt>
      <trkpt lat="46.25852" lon="6.47728">
        <ele>1011.46</ele>
        <time>2024-01-29T11:35:46Z</time>
      </trkpt>
      <trkpt lat="46.25813" lon="6.47722">
        <ele>1009.98</ele>
        <time>2024-01-29T11:35:52Z</time>
      </trkpt>
      <trkpt lat="46.25752" lon="6.47681">
        <ele>1007.05</ele>
        <time>2024-01-29T11:36:01Z</time>
      </trkpt>
      <trkpt lat="46.25709" lon="6.47636">
        <ele>1003.95</ele>
        <time>2024-01-29T11:36:08Z</time>
      </trkpt>
      <trkpt lat="46.25662" lon="6.47571">
        <ele>1001.14</ele>
        <time>2024-01-29T11:36:17Z</time>
      </trkpt>
      <trkpt lat="46.25635" lon="6.47531">
        <ele>1000.92</ele>
        <time>2024-01-29T11:36:22Z</time>
      </trkpt>
      <trkpt lat="46.25629" lon="6.47518">
        <ele>1000.8</ele>
        <time>2024-01-29T11:36:24Z</time>
      </trkpt>
      <trkpt lat="46.25595" lon="6.47495">
        <ele>1001.05</ele>
        <time>2024-01-29T11:36:29Z</time>
      </trkpt>
      <trkpt lat="46.25543" lon="6.47479">
        <ele>1001.77</ele>
        <time>2024-01-29T11:36:37Z</time>
      </trkpt>
      <trkpt lat="46.25509" lon="6.47453">
        <ele>999.3</ele>
        <time>2024-01-29T11:36:42Z</time>
      </trkpt>
      <trkpt lat="46.2547" lon="6.47429">
        <ele>996.38</ele>
        <time>2024-01-29T11:36:49Z</time>
      </trkpt>
      <trkpt lat="46.25445" lon="6.47418">
        <ele>995.94</ele>
        <time>2024-01-29T11:36:53Z</time>
      </trkpt>
      <trkpt lat="46.25401" lon="6.4739">
        <ele>991.28</ele>
        <time>2024-01-29T11:36:59Z</time>
      </trkpt>
      <trkpt lat="46.25386" lon="6.474">
        <ele>993.22</ele>
        <time>2024-01-29T11:37:02Z</time>
      </trkpt>
      <trkpt lat="46.25357" lon="6.47401">
        <ele>992.3</ele>
        <time>2024-01-29T11:37:05Z</time>
      </trkpt>
      <trkpt lat="46.25272" lon="6.47384">
        <ele>984.72</ele>
        <time>2024-01-29T11:37:16Z</time>
      </trkpt>
      <trkpt lat="46.2524" lon="6.47362">
        <ele>979.4</ele>
        <time>2024-01-29T11:37:20Z</time>
      </trkpt>
      <trkpt lat="46.25211" lon="6.47354">
        <ele>977.56</ele>
        <time>2024-01-29T11:37:23Z</time>
      </trkpt>
      <trkpt lat="46.25154" lon="6.47325">
        <ele>973.45</ele>
        <time>2024-01-29T11:37:31Z</time>
      </trkpt>
      <trkpt lat="46.25066" lon="6.47286">
        <ele>966.7</ele>
        <time>2024-01-29T11:37:41Z</time>
      </trkpt>
      <trkpt lat="46.25057" lon="6.47273">
        <ele>965.38</ele>
        <time>2024-01-29T11:37:43Z</time>
      </trkpt>
      <trkpt lat="46.25054" lon="6.47256">
        <ele>963.9</ele>
        <time>2024-01-29T11:37:44Z</time>
      </trkpt>
      <trkpt lat="46.25025" lon="6.47253">
        <ele>962.7</ele>
        <time>2024-01-29T11:37:47Z</time>
      </trkpt>
      <trkpt lat="46.24995" lon="6.4725">
        <ele>961.9</ele>
        <time>2024-01-29T11:37:51Z</time>
      </trkpt>
      <trkpt lat="46.24991" lon="6.47251">
        <ele>961.9</ele>
        <time>2024-01-29T11:37:51Z</time>
      </trkpt>
      <trkpt lat="46.24979" lon="6.47254">
        <ele>961.2</ele>
        <time>2024-01-29T11:37:53Z</time>
      </trkpt>
      <trkpt lat="46.24972" lon="6.4725">
        <ele>959.99</ele>
        <time>2024-01-29T11:37:54Z</time>
      </trkpt>
      <trkpt lat="46.24959" lon="6.47254">
        <ele>958.91</ele>
        <time>2024-01-29T11:37:57Z</time>
      </trkpt>
      <trkpt lat="46.24955" lon="6.47253">
        <ele>958.03</ele>
        <time>2024-01-29T11:37:58Z</time>
      </trkpt>
      <trkpt lat="46.24945" lon="6.47206">
        <ele>951.99</ele>
        <time>2024-01-29T11:38:05Z</time>
      </trkpt>
      <trkpt lat="46.24938" lon="6.47168">
        <ele>949.45</ele>
        <time>2024-01-29T11:38:10Z</time>
      </trkpt>
      <trkpt lat="46.24882" lon="6.47174">
        <ele>945.61</ele>
        <time>2024-01-29T11:38:16Z</time>
      </trkpt>
      <trkpt lat="46.24884" lon="6.47157">
        <ele>945.58</ele>
        <time>2024-01-29T11:38:18Z</time>
      </trkpt>
      <trkpt lat="46.24878" lon="6.47153">
        <ele>944.88</ele>
        <time>2024-01-29T11:38:19Z</time>
      </trkpt>
      <trkpt lat="46.24867" lon="6.4713">
        <ele>944.23</ele>
        <time>2024-01-29T11:38:21Z</time>
      </trkpt>
      <trkpt lat="46.24865" lon="6.47118">
        <ele>943.91</ele>
        <time>2024-01-29T11:38:22Z</time>
      </trkpt>
      <trkpt lat="46.24844" lon="6.47078">
        <ele>941.68</ele>
        <time>2024-01-29T11:38:26Z</time>
      </trkpt>
      <trkpt lat="46.24836" lon="6.4702">
        <ele>938.58</ele>
        <time>2024-01-29T11:38:30Z</time>
      </trkpt>
      <trkpt lat="46.24826" lon="6.47005">
        <ele>936.52</ele>
        <time>2024-01-29T11:38:32Z</time>
      </trkpt>
      <trkpt lat="46.24793" lon="6.46967">
        <ele>927.7</ele>
        <time>2024-01-29T11:38:40Z</time>
      </trkpt>
      <trkpt lat="46.24777" lon="6.46927">
        <ele>921.69</ele>
        <time>2024-01-29T11:38:47Z</time>
      </trkpt>
      <trkpt lat="46.24769" lon="6.46916">
        <ele>919.63</ele>
        <time>2024-01-29T11:38:49Z</time>
      </trkpt>
      <trkpt lat="46.24767" lon="6.46903">
        <ele>917.81</ele>
        <time>2024-01-29T11:38:51Z</time>
      </trkpt>
      <trkpt lat="46.24791" lon="6.46756">
        <ele>908.87</ele>
        <time>2024-01-29T11:39:14Z</time>
      </trkpt>
      <trkpt lat="46.24798" lon="6.46704">
        <ele>905.99</ele>
        <time>2024-01-29T11:39:22Z</time>
      </trkpt>
      <trkpt lat="46.24796" lon="6.46694">
        <ele>905.41</ele>
        <time>2024-01-29T11:39:23Z</time>
      </trkpt>
      <trkpt lat="46.24792" lon="6.46686">
        <ele>904.83</ele>
        <time>2024-01-29T11:39:25Z</time>
      </trkpt>
      <trkpt lat="46.24761" lon="6.46643">
        <ele>901.71</ele>
        <time>2024-01-29T11:39:34Z</time>
      </trkpt>
      <trkpt lat="46.24753" lon="6.46628">
        <ele>900.38</ele>
        <time>2024-01-29T11:39:37Z</time>
      </trkpt>
      <trkpt lat="46.24747" lon="6.46597">
        <ele>899.87</ele>
        <time>2024-01-29T11:39:42Z</time>
      </trkpt>
      <trkpt lat="46.24741" lon="6.46541">
        <ele>898.42</ele>
        <time>2024-01-29T11:39:51Z</time>
      </trkpt>
      <trkpt lat="46.24736" lon="6.46517">
        <ele>897.87</ele>
        <time>2024-01-29T11:39:54Z</time>
      </trkpt>
      <trkpt lat="46.2473" lon="6.46499">
        <ele>897.41</ele>
        <time>2024-01-29T11:39:58Z</time>
      </trkpt>
      <trkpt lat="46.24709" lon="6.46458">
        <ele>894.3</ele>
        <time>2024-01-29T11:40:05Z</time>
      </trkpt>
      <trkpt lat="46.24697" lon="6.46437">
        <ele>892.33</ele>
        <time>2024-01-29T11:40:10Z</time>
      </trkpt>
      <trkpt lat="46.24687" lon="6.46426">
        <ele>891.16</ele>
        <time>2024-01-29T11:40:12Z</time>
      </trkpt>
      <trkpt lat="46.24655" lon="6.46405">
        <ele>886.15</ele>
        <time>2024-01-29T11:40:20Z</time>
      </trkpt>
      <trkpt lat="46.2463" lon="6.46377">
        <ele>883.36</ele>
        <time>2024-01-29T11:40:27Z</time>
      </trkpt>
      <trkpt lat="46.24608" lon="6.46371">
        <ele>880.84</ele>
        <time>2024-01-29T11:40:32Z</time>
      </trkpt>
      <trkpt lat="46.24595" lon="6.46362">
        <ele>878.99</ele>
        <time>2024-01-29T11:40:35Z</time>
      </trkpt>
      <trkpt lat="46.2459" lon="6.46344">
        <ele>876.97</ele>
        <time>2024-01-29T11:40:38Z</time>
      </trkpt>
      <trkpt lat="46.24587" lon="6.46293">
        <ele>869.44</ele>
        <time>2024-01-29T11:40:46Z</time>
      </trkpt>
      <trkpt lat="46.24589" lon="6.46286">
        <ele>868.67</ele>
        <time>2024-01-29T11:40:47Z</time>
      </trkpt>
      <trkpt lat="46.24591" lon="6.46272">
        <ele>868.37</ele>
        <time>2024-01-29T11:40:50Z</time>
      </trkpt>
      <trkpt lat="46.24592" lon="6.46261">
        <ele>869.39</ele>
        <time>2024-01-29T11:40:51Z</time>
      </trkpt>
      <trkpt lat="46.24584" lon="6.46234">
        <ele>869.24</ele>
        <time>2024-01-29T11:40:56Z</time>
      </trkpt>
      <trkpt lat="46.24572" lon="6.46214">
        <ele>868.63</ele>
        <time>2024-01-29T11:41:00Z</time>
      </trkpt>
      <trkpt lat="46.24533" lon="6.46183">
        <ele>869.33</ele>
        <time>2024-01-29T11:41:10Z</time>
      </trkpt>
      <trkpt lat="46.24499" lon="6.4614">
        <ele>875.12</ele>
        <time>2024-01-29T11:41:21Z</time>
      </trkpt>
      <trkpt lat="46.24485" lon="6.46109">
        <ele>878.04</ele>
        <time>2024-01-29T11:41:28Z</time>
      </trkpt>
      <trkpt lat="46.24451" lon="6.46055">
        <ele>884.49</ele>
        <time>2024-01-29T11:41:42Z</time>
      </trkpt>
      <trkpt lat="46.24423" lon="6.46022">
        <ele>887.51</ele>
        <time>2024-01-29T11:41:54Z</time>
      </trkpt>
      <trkpt lat="46.24374" lon="6.45937">
        <ele>890.64</ele>
        <time>2024-01-29T11:42:29Z</time>
      </trkpt>
      <trkpt lat="46.24354" lon="6.45898">
        <ele>891.4</ele>
        <time>2024-01-29T11:42:43Z</time>
      </trkpt>
      <trkpt lat="46.24348" lon="6.45879">
        <ele>892.08</ele>
        <time>2024-01-29T11:42:48Z</time>
      </trkpt>
      <trkpt lat="46.24346" lon="6.45849">
        <ele>893.2</ele>
        <time>2024-01-29T11:42:56Z</time>
      </trkpt>
      <trkpt lat="46.24349" lon="6.45829">
        <ele>893.9</ele>
        <time>2024-01-29T11:43:02Z</time>
      </trkpt>
      <trkpt lat="46.2436" lon="6.45782">
        <ele>895.08</ele>
        <time>2024-01-29T11:43:14Z</time>
      </trkpt>
      <trkpt lat="46.24352" lon="6.45776">
        <ele>895.24</ele>
        <time>2024-01-29T11:43:16Z</time>
      </trkpt>
      <trkpt lat="46.24325" lon="6.4576">
        <ele>893.49</ele>
        <time>2024-01-29T11:43:22Z</time>
      </trkpt>
      <trkpt lat="46.24294" lon="6.45739">
        <ele>891.5</ele>
        <time>2024-01-29T11:43:28Z</time>
      </trkpt>
      <trkpt lat="46.24274" lon="6.45719">
        <ele>890.2</ele>
        <time>2024-01-29T11:43:32Z</time>
      </trkpt>
      <trkpt lat="46.24263" lon="6.45701">
        <ele>888.69</ele>
        <time>2024-01-29T11:43:34Z</time>
      </trkpt>
      <trkpt lat="46.2424" lon="6.45651">
        <ele>885.64</ele>
        <time>2024-01-29T11:43:40Z</time>
      </trkpt>
      <trkpt lat="46.24229" lon="6.45634">
        <ele>884.74</ele>
        <time>2024-01-29T11:43:42Z</time>
      </trkpt>
      <trkpt lat="46.24214" lon="6.45623">
        <ele>884.09</ele>
        <time>2024-01-29T11:43:44Z</time>
      </trkpt>
      <trkpt lat="46.24167" lon="6.45607">
        <ele>882.88</ele>
        <time>2024-01-29T11:43:50Z</time>
      </trkpt>
      <trkpt lat="46.24149" lon="6.45595">
        <ele>881.64</ele>
        <time>2024-01-29T11:43:52Z</time>
      </trkpt>
      <trkpt lat="46.24107" lon="6.45559">
        <ele>879.91</ele>
        <time>2024-01-29T11:43:58Z</time>
      </trkpt>
      <trkpt lat="46.24092" lon="6.45541">
        <ele>879.37</ele>
        <time>2024-01-29T11:44:00Z</time>
      </trkpt>
      <trkpt lat="46.24085" lon="6.45527">
        <ele>878.88</ele>
        <time>2024-01-29T11:44:01Z</time>
      </trkpt>
      <trkpt lat="46.24065" lon="6.45524">
        <ele>877.2</ele>
        <time>2024-01-29T11:44:05Z</time>
      </trkpt>
      <trkpt lat="46.23949" lon="6.45455">
        <ele>864.57</ele>
        <time>2024-01-29T11:44:32Z</time>
      </trkpt>
      <trkpt lat="46.23934" lon="6.45449">
        <ele>862.07</ele>
        <time>2024-01-29T11:44:35Z</time>
      </trkpt>
      <trkpt lat="46.23925" lon="6.45452">
        <ele>860.78</ele>
        <time>2024-01-29T11:44:37Z</time>
      </trkpt>
      <trkpt lat="46.23919" lon="6.45478">
        <ele>860.06</ele>
        <time>2024-01-29T11:44:41Z</time>
      </trkpt>
      <trkpt lat="46.23917" lon="6.45517">
        <ele>858.67</ele>
        <time>2024-01-29T11:44:47Z</time>
      </trkpt>
      <trkpt lat="46.23913" lon="6.45522">
        <ele>858.19</ele>
        <time>2024-01-29T11:44:49Z</time>
      </trkpt>
      <trkpt lat="46.23907" lon="6.45521">
        <ele>857.87</ele>
        <time>2024-01-29T11:44:50Z</time>
      </trkpt>
      <trkpt lat="46.23904" lon="6.45515">
        <ele>857.15</ele>
        <time>2024-01-29T11:44:51Z</time>
      </trkpt>
      <trkpt lat="46.23906" lon="6.45486">
        <ele>855</ele>
        <time>2024-01-29T11:44:56Z</time>
      </trkpt>
      <trkpt lat="46.23906" lon="6.45474">
        <ele>854.94</ele>
        <time>2024-01-29T11:44:58Z</time>
      </trkpt>
      <trkpt lat="46.23902" lon="6.45466">
        <ele>854.06</ele>
        <time>2024-01-29T11:44:59Z</time>
      </trkpt>
      <trkpt lat="46.23898" lon="6.45465">
        <ele>852.8</ele>
        <time>2024-01-29T11:45:00Z</time>
      </trkpt>
      <trkpt lat="46.23895" lon="6.45469">
        <ele>852.23</ele>
        <time>2024-01-29T11:45:01Z</time>
      </trkpt>
      <trkpt lat="46.23894" lon="6.45488">
        <ele>851.02</ele>
        <time>2024-01-29T11:45:05Z</time>
      </trkpt>
      <trkpt lat="46.23889" lon="6.45491">
        <ele>850.53</ele>
        <time>2024-01-29T11:45:06Z</time>
      </trkpt>
      <trkpt lat="46.23884" lon="6.45486">
        <ele>849.86</ele>
        <time>2024-01-29T11:45:07Z</time>
      </trkpt>
      <trkpt lat="46.23866" lon="6.45418">
        <ele>842.54</ele>
        <time>2024-01-29T11:45:21Z</time>
      </trkpt>
      <trkpt lat="46.2386" lon="6.45372">
        <ele>839.57</ele>
        <time>2024-01-29T11:45:30Z</time>
      </trkpt>
      <trkpt lat="46.23852" lon="6.45333">
        <ele>837.44</ele>
        <time>2024-01-29T11:45:39Z</time>
      </trkpt>
      <trkpt lat="46.23849" lon="6.45327">
        <ele>837.57</ele>
        <time>2024-01-29T11:45:40Z</time>
      </trkpt>
      <trkpt lat="46.23844" lon="6.45324">
        <ele>836.7</ele>
        <time>2024-01-29T11:45:42Z</time>
      </trkpt>
      <trkpt lat="46.2384" lon="6.45328">
        <ele>836.46</ele>
        <time>2024-01-29T11:45:44Z</time>
      </trkpt>
      <trkpt lat="46.23839" lon="6.45335">
        <ele>836.31</ele>
        <time>2024-01-29T11:45:45Z</time>
      </trkpt>
      <trkpt lat="46.23843" lon="6.45378">
        <ele>834.84</ele>
        <time>2024-01-29T11:45:55Z</time>
      </trkpt>
      <trkpt lat="46.23838" lon="6.4544">
        <ele>834.46</ele>
        <time>2024-01-29T11:46:09Z</time>
      </trkpt>
      <trkpt lat="46.23826" lon="6.4544">
        <ele>833.26</ele>
        <time>2024-01-29T11:46:13Z</time>
      </trkpt>
      <trkpt lat="46.23817" lon="6.45439">
        <ele>833.82</ele>
        <time>2024-01-29T11:46:16Z</time>
      </trkpt>
      <trkpt lat="46.23803" lon="6.45438">
        <ele>834.6</ele>
        <time>2024-01-29T11:46:21Z</time>
      </trkpt>
      <trkpt lat="46.23795" lon="6.45432">
        <ele>834.71</ele>
        <time>2024-01-29T11:46:25Z</time>
      </trkpt>
      <trkpt lat="46.2379" lon="6.45419">
        <ele>834.58</ele>
        <time>2024-01-29T11:46:28Z</time>
      </trkpt>
      <trkpt lat="46.23786" lon="6.45389">
        <ele>836.67</ele>
        <time>2024-01-29T11:46:35Z</time>
      </trkpt>
      <trkpt lat="46.2378" lon="6.45375">
        <ele>838.08</ele>
        <time>2024-01-29T11:46:39Z</time>
      </trkpt>
      <trkpt lat="46.23764" lon="6.45345">
        <ele>838.65</ele>
        <time>2024-01-29T11:46:48Z</time>
      </trkpt>
      <trkpt lat="46.23737" lon="6.45316">
        <ele>841.8</ele>
        <time>2024-01-29T11:46:58Z</time>
      </trkpt>
      <trkpt lat="46.23716" lon="6.45301">
        <ele>843.4</ele>
        <time>2024-01-29T11:47:05Z</time>
      </trkpt>
      <trkpt lat="46.23694" lon="6.45291">
        <ele>845</ele>
        <time>2024-01-29T11:47:11Z</time>
      </trkpt>
      <trkpt lat="46.23649" lon="6.45284">
        <ele>848.53</ele>
        <time>2024-01-29T11:47:22Z</time>
      </trkpt>
      <trkpt lat="46.23619" lon="6.4527">
        <ele>849.56</ele>
        <time>2024-01-29T11:47:30Z</time>
      </trkpt>
      <trkpt lat="46.23544" lon="6.45256">
        <ele>849.47</ele>
        <time>2024-01-29T11:47:40Z</time>
      </trkpt>
      <trkpt lat="46.2353" lon="6.45262">
        <ele>850.17</ele>
        <time>2024-01-29T11:47:42Z</time>
      </trkpt>
      <trkpt lat="46.2352" lon="6.45273">
        <ele>850.67</ele>
        <time>2024-01-29T11:47:44Z</time>
      </trkpt>
      <trkpt lat="46.23517" lon="6.45279">
        <ele>850.79</ele>
        <time>2024-01-29T11:47:45Z</time>
      </trkpt>
      <trkpt lat="46.23489" lon="6.45269">
        <ele>850.36</ele>
        <time>2024-01-29T11:47:48Z</time>
      </trkpt>
      <trkpt lat="46.2348" lon="6.4526">
        <ele>849.63</ele>
        <time>2024-01-29T11:47:50Z</time>
      </trkpt>
      <trkpt lat="46.23469" lon="6.45233">
        <ele>848.91</ele>
        <time>2024-01-29T11:47:53Z</time>
      </trkpt>
      <trkpt lat="46.2346" lon="6.45201">
        <ele>847.02</ele>
        <time>2024-01-29T11:47:56Z</time>
      </trkpt>
      <trkpt lat="46.23453" lon="6.45185">
        <ele>844.8</ele>
        <time>2024-01-29T11:47:58Z</time>
      </trkpt>
      <trkpt lat="46.23443" lon="6.45172">
        <ele>843.18</ele>
        <time>2024-01-29T11:48:01Z</time>
      </trkpt>
      <trkpt lat="46.23434" lon="6.45165">
        <ele>841.69</ele>
        <time>2024-01-29T11:48:02Z</time>
      </trkpt>
      <trkpt lat="46.23422" lon="6.45164">
        <ele>839.92</ele>
        <time>2024-01-29T11:48:05Z</time>
      </trkpt>
      <trkpt lat="46.23379" lon="6.45165">
        <ele>833.77</ele>
        <time>2024-01-29T11:48:12Z</time>
      </trkpt>
      <trkpt lat="46.23367" lon="6.4517">
        <ele>831.78</ele>
        <time>2024-01-29T11:48:14Z</time>
      </trkpt>
      <trkpt lat="46.23342" lon="6.45188">
        <ele>827.84</ele>
        <time>2024-01-29T11:48:19Z</time>
      </trkpt>
      <trkpt lat="46.23342" lon="6.45204">
        <ele>827.32</ele>
        <time>2024-01-29T11:48:21Z</time>
      </trkpt>
      <trkpt lat="46.23338" lon="6.45216">
        <ele>826.83</ele>
        <time>2024-01-29T11:48:22Z</time>
      </trkpt>
      <trkpt lat="46.23327" lon="6.45237">
        <ele>826.69</ele>
        <time>2024-01-29T11:48:26Z</time>
      </trkpt>
      <trkpt lat="46.23317" lon="6.45239">
        <ele>826.5</ele>
        <time>2024-01-29T11:48:28Z</time>
      </trkpt>
      <trkpt lat="46.23307" lon="6.45235">
        <ele>826.56</ele>
        <time>2024-01-29T11:48:31Z</time>
      </trkpt>
      <trkpt lat="46.23266" lon="6.452">
        <ele>826.7</ele>
        <time>2024-01-29T11:48:40Z</time>
      </trkpt>
      <trkpt lat="46.23223" lon="6.45167">
        <ele>825.84</ele>
        <time>2024-01-29T11:48:48Z</time>
      </trkpt>
      <trkpt lat="46.23202" lon="6.45146">
        <ele>824.48</ele>
        <time>2024-01-29T11:48:51Z</time>
      </trkpt>
      <trkpt lat="46.2319" lon="6.45139">
        <ele>824.83</ele>
        <time>2024-01-29T11:48:53Z</time>
      </trkpt>
      <trkpt lat="46.23186" lon="6.45142">
        <ele>825.66</ele>
        <time>2024-01-29T11:48:54Z</time>
      </trkpt>
      <trkpt lat="46.23181" lon="6.45154">
        <ele>826.95</ele>
        <time>2024-01-29T11:48:55Z</time>
      </trkpt>
      <trkpt lat="46.23145" lon="6.45115">
        <ele>826.55</ele>
        <time>2024-01-29T11:49:02Z</time>
      </trkpt>
      <trkpt lat="46.23123" lon="6.45065">
        <ele>825.33</ele>
        <time>2024-01-29T11:49:08Z</time>
      </trkpt>
      <trkpt lat="46.23111" lon="6.45049">
        <ele>824.62</ele>
        <time>2024-01-29T11:49:10Z</time>
      </trkpt>
      <trkpt lat="46.23005" lon="6.44932">
        <ele>820.99</ele>
        <time>2024-01-29T11:49:33Z</time>
      </trkpt>
      <trkpt lat="46.22999" lon="6.44925">
        <ele>820.67</ele>
        <time>2024-01-29T11:49:35Z</time>
      </trkpt>
      <trkpt lat="46.22974" lon="6.449">
        <ele>819.62</ele>
        <time>2024-01-29T11:49:42Z</time>
      </trkpt>
      <trkpt lat="46.22955" lon="6.44887">
        <ele>819.51</ele>
        <time>2024-01-29T11:49:48Z</time>
      </trkpt>
      <trkpt lat="46.22914" lon="6.4487">
        <ele>820.02</ele>
        <time>2024-01-29T11:49:58Z</time>
      </trkpt>
      <trkpt lat="46.22848" lon="6.44855">
        <ele>821.12</ele>
        <time>2024-01-29T11:50:13Z</time>
      </trkpt>
      <trkpt lat="46.22825" lon="6.44844">
        <ele>822.17</ele>
        <time>2024-01-29T11:50:19Z</time>
      </trkpt>
      <trkpt lat="46.22797" lon="6.44825">
        <ele>823.45</ele>
        <time>2024-01-29T11:50:25Z</time>
      </trkpt>
      <trkpt lat="46.22756" lon="6.44788">
        <ele>824.54</ele>
        <time>2024-01-29T11:50:34Z</time>
      </trkpt>
      <trkpt lat="46.22706" lon="6.44739">
        <ele>823.96</ele>
        <time>2024-01-29T11:50:44Z</time>
      </trkpt>
      <trkpt lat="46.22656" lon="6.44687">
        <ele>821.25</ele>
        <time>2024-01-29T11:50:53Z</time>
      </trkpt>
      <trkpt lat="46.22605" lon="6.44618">
        <ele>818.25</ele>
        <time>2024-01-29T11:51:03Z</time>
      </trkpt>
      <trkpt lat="46.22567" lon="6.44576">
        <ele>816.63</ele>
        <time>2024-01-29T11:51:10Z</time>
      </trkpt>
      <trkpt lat="46.22501" lon="6.44506">
        <ele>815.08</ele>
        <time>2024-01-29T11:51:22Z</time>
      </trkpt>
      <trkpt lat="46.22437" lon="6.44453">
        <ele>813.44</ele>
        <time>2024-01-29T11:51:32Z</time>
      </trkpt>
      <trkpt lat="46.22296" lon="6.44364">
        <ele>806.01</ele>
        <time>2024-01-29T11:51:54Z</time>
      </trkpt>
      <trkpt lat="46.22245" lon="6.44332">
        <ele>803.48</ele>
        <time>2024-01-29T11:52:01Z</time>
      </trkpt>
      <trkpt lat="46.22212" lon="6.44312">
        <ele>802.24</ele>
        <time>2024-01-29T11:52:06Z</time>
      </trkpt>
      <trkpt lat="46.22207" lon="6.44309">
        <ele>802</ele>
        <time>2024-01-29T11:52:07Z</time>
      </trkpt>
      <trkpt lat="46.22152" lon="6.44275">
        <ele>800.98</ele>
        <time>2024-01-29T11:52:15Z</time>
      </trkpt>
      <trkpt lat="46.2209" lon="6.44232">
        <ele>799.04</ele>
        <time>2024-01-29T11:52:26Z</time>
      </trkpt>
      <trkpt lat="46.22064" lon="6.44213">
        <ele>799.4</ele>
        <time>2024-01-29T11:52:31Z</time>
      </trkpt>
      <trkpt lat="46.22048" lon="6.44202">
        <ele>799.67</ele>
        <time>2024-01-29T11:52:34Z</time>
      </trkpt>
      <trkpt lat="46.22027" lon="6.44192">
        <ele>799.95</ele>
        <time>2024-01-29T11:52:38Z</time>
      </trkpt>
      <trkpt lat="46.22017" lon="6.44189">
        <ele>799.94</ele>
        <time>2024-01-29T11:52:39Z</time>
      </trkpt>
      <trkpt lat="46.22008" lon="6.44186">
        <ele>800.27</ele>
        <time>2024-01-29T11:52:41Z</time>
      </trkpt>
      <trkpt lat="46.21961" lon="6.44175">
        <ele>801.35</ele>
        <time>2024-01-29T11:52:48Z</time>
      </trkpt>
      <trkpt lat="46.21937" lon="6.44162">
        <ele>801.96</ele>
        <time>2024-01-29T11:52:52Z</time>
      </trkpt>
      <trkpt lat="46.21915" lon="6.44136">
        <ele>802.86</ele>
        <time>2024-01-29T11:52:56Z</time>
      </trkpt>
      <trkpt lat="46.21878" lon="6.4408">
        <ele>804.46</ele>
        <time>2024-01-29T11:53:04Z</time>
      </trkpt>
      <trkpt lat="46.21866" lon="6.44061">
        <ele>805.29</ele>
        <time>2024-01-29T11:53:06Z</time>
      </trkpt>
      <trkpt lat="46.21861" lon="6.44054">
        <ele>805.4</ele>
        <time>2024-01-29T11:53:07Z</time>
      </trkpt>
      <trkpt lat="46.21855" lon="6.44045">
        <ele>805.45</ele>
        <time>2024-01-29T11:53:08Z</time>
      </trkpt>
      <trkpt lat="46.21851" lon="6.44037">
        <ele>805.47</ele>
        <time>2024-01-29T11:53:09Z</time>
      </trkpt>
      <trkpt lat="46.21828" lon="6.44002">
        <ele>805.21</ele>
        <time>2024-01-29T11:53:14Z</time>
      </trkpt>
      <trkpt lat="46.21811" lon="6.43979">
        <ele>803.79</ele>
        <time>2024-01-29T11:53:17Z</time>
      </trkpt>
      <trkpt lat="46.21799" lon="6.43968">
        <ele>803.49</ele>
        <time>2024-01-29T11:53:19Z</time>
      </trkpt>
      <trkpt lat="46.21786" lon="6.43961">
        <ele>802.98</ele>
        <time>2024-01-29T11:53:20Z</time>
      </trkpt>
      <trkpt lat="46.21766" lon="6.43951">
        <ele>802.44</ele>
        <time>2024-01-29T11:53:23Z</time>
      </trkpt>
      <trkpt lat="46.21765" lon="6.4395">
        <ele>802.44</ele>
        <time>2024-01-29T11:53:23Z</time>
      </trkpt>
      <trkpt lat="46.21762" lon="6.43949">
        <ele>802.14</ele>
        <time>2024-01-29T11:53:24Z</time>
      </trkpt>
      <trkpt lat="46.21713" lon="6.43925">
        <ele>798.72</ele>
        <time>2024-01-29T11:53:31Z</time>
      </trkpt>
      <trkpt lat="46.217" lon="6.43919">
        <ele>797.58</ele>
        <time>2024-01-29T11:53:33Z</time>
      </trkpt>
      <trkpt lat="46.21692" lon="6.43915">
        <ele>797.45</ele>
        <time>2024-01-29T11:53:34Z</time>
      </trkpt>
      <trkpt lat="46.21691" lon="6.43914">
        <ele>797.19</ele>
        <time>2024-01-29T11:53:34Z</time>
      </trkpt>
      <trkpt lat="46.21673" lon="6.43905">
        <ele>796.82</ele>
        <time>2024-01-29T11:53:37Z</time>
      </trkpt>
      <trkpt lat="46.21607" lon="6.43873">
        <ele>795.6</ele>
        <time>2024-01-29T11:53:48Z</time>
      </trkpt>
      <trkpt lat="46.21597" lon="6.43868">
        <ele>795.48</ele>
        <time>2024-01-29T11:53:49Z</time>
      </trkpt>
      <trkpt lat="46.21586" lon="6.43863">
        <ele>795.31</ele>
        <time>2024-01-29T11:53:51Z</time>
      </trkpt>
      <trkpt lat="46.21578" lon="6.43859">
        <ele>795.27</ele>
        <time>2024-01-29T11:53:52Z</time>
      </trkpt>
      <trkpt lat="46.21553" lon="6.43843">
        <ele>794.78</ele>
        <time>2024-01-29T11:53:56Z</time>
      </trkpt>
      <trkpt lat="46.21536" lon="6.43823">
        <ele>793.38</ele>
        <time>2024-01-29T11:53:59Z</time>
      </trkpt>
      <trkpt lat="46.21523" lon="6.438">
        <ele>791.75</ele>
        <time>2024-01-29T11:54:02Z</time>
      </trkpt>
      <trkpt lat="46.21518" lon="6.43784">
        <ele>790.65</ele>
        <time>2024-01-29T11:54:03Z</time>
      </trkpt>
      <trkpt lat="46.21519" lon="6.43743">
        <ele>788.59</ele>
        <time>2024-01-29T11:54:07Z</time>
      </trkpt>
      <trkpt lat="46.21516" lon="6.43729">
        <ele>788.03</ele>
        <time>2024-01-29T11:54:08Z</time>
      </trkpt>
      <trkpt lat="46.21512" lon="6.43714">
        <ele>787.34</ele>
        <time>2024-01-29T11:54:10Z</time>
      </trkpt>
      <trkpt lat="46.21507" lon="6.43693">
        <ele>786.05</ele>
        <time>2024-01-29T11:54:12Z</time>
      </trkpt>
      <trkpt lat="46.21499" lon="6.43654">
        <ele>784.29</ele>
        <time>2024-01-29T11:54:16Z</time>
      </trkpt>
      <trkpt lat="46.2148" lon="6.43609">
        <ele>783.02</ele>
        <time>2024-01-29T11:54:20Z</time>
      </trkpt>
      <trkpt lat="46.21474" lon="6.43594">
        <ele>782.69</ele>
        <time>2024-01-29T11:54:22Z</time>
      </trkpt>
      <trkpt lat="46.21458" lon="6.4356">
        <ele>782.19</ele>
        <time>2024-01-29T11:54:25Z</time>
      </trkpt>
      <trkpt lat="46.21454" lon="6.43552">
        <ele>782.07</ele>
        <time>2024-01-29T11:54:26Z</time>
      </trkpt>
      <trkpt lat="46.21444" lon="6.43529">
        <ele>781.31</ele>
        <time>2024-01-29T11:54:29Z</time>
      </trkpt>
      <trkpt lat="46.21436" lon="6.43512">
        <ele>780.76</ele>
        <time>2024-01-29T11:54:30Z</time>
      </trkpt>
      <trkpt lat="46.21431" lon="6.43502">
        <ele>780.29</ele>
        <time>2024-01-29T11:54:32Z</time>
      </trkpt>
      <trkpt lat="46.21428" lon="6.43494">
        <ele>780.04</ele>
        <time>2024-01-29T11:54:33Z</time>
      </trkpt>
      <trkpt lat="46.21425" lon="6.43488">
        <ele>779.84</ele>
        <time>2024-01-29T11:54:33Z</time>
      </trkpt>
      <trkpt lat="46.21423" lon="6.43482">
        <ele>779.85</ele>
        <time>2024-01-29T11:54:34Z</time>
      </trkpt>
      <trkpt lat="46.21395" lon="6.43422">
        <ele>779.65</ele>
        <time>2024-01-29T11:54:41Z</time>
      </trkpt>
      <trkpt lat="46.21389" lon="6.43412">
        <ele>779.81</ele>
        <time>2024-01-29T11:54:42Z</time>
      </trkpt>
      <trkpt lat="46.21371" lon="6.43383">
        <ele>780.25</ele>
        <time>2024-01-29T11:54:46Z</time>
      </trkpt>
      <trkpt lat="46.21354" lon="6.43361">
        <ele>780.17</ele>
        <time>2024-01-29T11:54:50Z</time>
      </trkpt>
      <trkpt lat="46.21344" lon="6.43349">
        <ele>780.21</ele>
        <time>2024-01-29T11:54:52Z</time>
      </trkpt>
      <trkpt lat="46.21321" lon="6.43318">
        <ele>780.49</ele>
        <time>2024-01-29T11:54:57Z</time>
      </trkpt>
      <trkpt lat="46.21313" lon="6.43304">
        <ele>780.56</ele>
        <time>2024-01-29T11:54:59Z</time>
      </trkpt>
      <trkpt lat="46.21307" lon="6.43293">
        <ele>780.48</ele>
        <time>2024-01-29T11:55:00Z</time>
      </trkpt>
      <trkpt lat="46.21253" lon="6.43156">
        <ele>777.13</ele>
        <time>2024-01-29T11:55:19Z</time>
      </trkpt>
      <trkpt lat="46.21243" lon="6.43124">
        <ele>776.81</ele>
        <time>2024-01-29T11:55:24Z</time>
      </trkpt>
      <trkpt lat="46.21225" lon="6.43043">
        <ele>777.88</ele>
        <time>2024-01-29T11:55:38Z</time>
      </trkpt>
      <trkpt lat="46.21214" lon="6.43012">
        <ele>778.1</ele>
        <time>2024-01-29T11:55:44Z</time>
      </trkpt>
      <trkpt lat="46.21191" lon="6.42973">
        <ele>778.06</ele>
        <time>2024-01-29T11:55:53Z</time>
      </trkpt>
      <trkpt lat="46.21142" lon="6.42924">
        <ele>778.77</ele>
        <time>2024-01-29T11:56:10Z</time>
      </trkpt>
      <trkpt lat="46.21119" lon="6.42892">
        <ele>779.68</ele>
        <time>2024-01-29T11:56:20Z</time>
      </trkpt>
      <trkpt lat="46.21104" lon="6.42859">
        <ele>780.02</ele>
        <time>2024-01-29T11:56:29Z</time>
      </trkpt>
      <trkpt lat="46.21078" lon="6.42772">
        <ele>781.81</ele>
        <time>2024-01-29T11:56:48Z</time>
      </trkpt>
      <trkpt lat="46.21069" lon="6.42734">
        <ele>782.49</ele>
        <time>2024-01-29T11:56:55Z</time>
      </trkpt>
      <trkpt lat="46.21059" lon="6.42734">
        <ele>784.69</ele>
        <time>2024-01-29T11:56:58Z</time>
      </trkpt>
      <trkpt lat="46.21053" lon="6.42724">
        <ele>785.23</ele>
        <time>2024-01-29T11:57:00Z</time>
      </trkpt>
      <trkpt lat="46.21041" lon="6.42647">
        <ele>788.16</ele>
        <time>2024-01-29T11:57:13Z</time>
      </trkpt>
      <trkpt lat="46.2104" lon="6.4264">
        <ele>788.33</ele>
        <time>2024-01-29T11:57:14Z</time>
      </trkpt>
      <trkpt lat="46.21035" lon="6.42617">
        <ele>789.12</ele>
        <time>2024-01-29T11:57:18Z</time>
      </trkpt>
      <trkpt lat="46.21027" lon="6.42568">
        <ele>789.69</ele>
        <time>2024-01-29T11:57:24Z</time>
      </trkpt>
      <trkpt lat="46.21023" lon="6.42552">
        <ele>789.49</ele>
        <time>2024-01-29T11:57:27Z</time>
      </trkpt>
      <trkpt lat="46.20965" lon="6.42308">
        <ele>784.93</ele>
        <time>2024-01-29T11:58:14Z</time>
      </trkpt>
      <trkpt lat="46.20961" lon="6.42261">
        <ele>782.79</ele>
        <time>2024-01-29T11:58:23Z</time>
      </trkpt>
      <trkpt lat="46.20963" lon="6.42223">
        <ele>781.43</ele>
        <time>2024-01-29T11:58:29Z</time>
      </trkpt>
      <trkpt lat="46.20968" lon="6.422">
        <ele>780.21</ele>
        <time>2024-01-29T11:58:34Z</time>
      </trkpt>
      <trkpt lat="46.20968" lon="6.42141">
        <ele>779.98</ele>
        <time>2024-01-29T11:58:39Z</time>
      </trkpt>
      <trkpt lat="46.20987" lon="6.41881">
        <ele>778.22</ele>
        <time>2024-01-29T11:59:04Z</time>
      </trkpt>
      <trkpt lat="46.20988" lon="6.41874">
        <ele>778.05</ele>
        <time>2024-01-29T11:59:04Z</time>
      </trkpt>
      <trkpt lat="46.20998" lon="6.41716">
        <ele>772.56</ele>
        <time>2024-01-29T11:59:18Z</time>
      </trkpt>
      <trkpt lat="46.20998" lon="6.41692">
        <ele>771.99</ele>
        <time>2024-01-29T11:59:20Z</time>
      </trkpt>
      <trkpt lat="46.20995" lon="6.41661">
        <ele>771.07</ele>
        <time>2024-01-29T11:59:22Z</time>
      </trkpt>
      <trkpt lat="46.20962" lon="6.41503">
        <ele>762.81</ele>
        <time>2024-01-29T11:59:36Z</time>
      </trkpt>
      <trkpt lat="46.20946" lon="6.41426">
        <ele>758.5</ele>
        <time>2024-01-29T11:59:43Z</time>
      </trkpt>
      <trkpt lat="46.20942" lon="6.41404">
        <ele>757.23</ele>
        <time>2024-01-29T11:59:45Z</time>
      </trkpt>
      <trkpt lat="46.20925" lon="6.41329">
        <ele>754.44</ele>
        <time>2024-01-29T11:59:52Z</time>
      </trkpt>
      <trkpt lat="46.20913" lon="6.41299">
        <ele>752.45</ele>
        <time>2024-01-29T11:59:56Z</time>
      </trkpt>
      <trkpt lat="46.20892" lon="6.41255">
        <ele>750.54</ele>
        <time>2024-01-29T12:00:01Z</time>
      </trkpt>
      <trkpt lat="46.20839" lon="6.41146">
        <ele>747.48</ele>
        <time>2024-01-29T12:00:14Z</time>
      </trkpt>
      <trkpt lat="46.20749" lon="6.40955">
        <ele>738.36</ele>
        <time>2024-01-29T12:00:36Z</time>
      </trkpt>
      <trkpt lat="46.20722" lon="6.40901">
        <ele>736.38</ele>
        <time>2024-01-29T12:00:42Z</time>
      </trkpt>
      <trkpt lat="46.20691" lon="6.40851">
        <ele>735.43</ele>
        <time>2024-01-29T12:00:48Z</time>
      </trkpt>
      <trkpt lat="46.20684" lon="6.40834">
        <ele>735.24</ele>
        <time>2024-01-29T12:00:49Z</time>
      </trkpt>
      <trkpt lat="46.20682" lon="6.40815">
        <ele>735.21</ele>
        <time>2024-01-29T12:00:51Z</time>
      </trkpt>
      <trkpt lat="46.20683" lon="6.40802">
        <ele>735.02</ele>
        <time>2024-01-29T12:00:52Z</time>
      </trkpt>
      <trkpt lat="46.20694" lon="6.40781">
        <ele>733.6</ele>
        <time>2024-01-29T12:00:55Z</time>
      </trkpt>
      <trkpt lat="46.20703" lon="6.40767">
        <ele>731.85</ele>
        <time>2024-01-29T12:00:56Z</time>
      </trkpt>
      <trkpt lat="46.20706" lon="6.40763">
        <ele>734.29</ele>
        <time>2024-01-29T12:00:57Z</time>
      </trkpt>
      <trkpt lat="46.20682" lon="6.40722">
        <ele>730.63</ele>
        <time>2024-01-29T12:01:05Z</time>
      </trkpt>
      <trkpt lat="46.20637" lon="6.40604">
        <ele>730.43</ele>
        <time>2024-01-29T12:01:26Z</time>
      </trkpt>
      <trkpt lat="46.20624" lon="6.40576">
        <ele>730.19</ele>
        <time>2024-01-29T12:01:32Z</time>
      </trkpt>
      <trkpt lat="46.20612" lon="6.40546">
        <ele>729.82</ele>
        <time>2024-01-29T12:01:38Z</time>
      </trkpt>
      <trkpt lat="46.206" lon="6.4053">
        <ele>729.82</ele>
        <time>2024-01-29T12:01:42Z</time>
      </trkpt>
      <trkpt lat="46.20587" lon="6.40505">
        <ele>729.71</ele>
        <time>2024-01-29T12:01:48Z</time>
      </trkpt>
      <trkpt lat="46.20559" lon="6.40473">
        <ele>729.28</ele>
        <time>2024-01-29T12:01:57Z</time>
      </trkpt>
      <trkpt lat="46.2054" lon="6.40459">
        <ele>728.77</ele>
        <time>2024-01-29T12:02:02Z</time>
      </trkpt>
      <trkpt lat="46.20532" lon="6.40448">
        <ele>728.78</ele>
        <time>2024-01-29T12:02:05Z</time>
      </trkpt>
      <trkpt lat="46.20522" lon="6.40443">
        <ele>728.01</ele>
        <time>2024-01-29T12:02:08Z</time>
      </trkpt>
      <trkpt lat="46.20517" lon="6.40436">
        <ele>728.72</ele>
        <time>2024-01-29T12:02:09Z</time>
      </trkpt>
      <trkpt lat="46.20508" lon="6.4043">
        <ele>728.04</ele>
        <time>2024-01-29T12:02:12Z</time>
      </trkpt>
      <trkpt lat="46.20496" lon="6.40407">
        <ele>728.4</ele>
        <time>2024-01-29T12:02:17Z</time>
      </trkpt>
      <trkpt lat="46.2049" lon="6.40388">
        <ele>727.99</ele>
        <time>2024-01-29T12:02:21Z</time>
      </trkpt>
      <trkpt lat="46.20479" lon="6.40378">
        <ele>727.76</ele>
        <time>2024-01-29T12:02:24Z</time>
      </trkpt>
      <trkpt lat="46.20473" lon="6.40367">
        <ele>727.68</ele>
        <time>2024-01-29T12:02:26Z</time>
      </trkpt>
      <trkpt lat="46.20467" lon="6.40366">
        <ele>727.6</ele>
        <time>2024-01-29T12:02:28Z</time>
      </trkpt>
      <trkpt lat="46.20458" lon="6.40371">
        <ele>727.78</ele>
        <time>2024-01-29T12:02:30Z</time>
      </trkpt>
      <trkpt lat="46.20428" lon="6.40356">
        <ele>727.69</ele>
        <time>2024-01-29T12:02:38Z</time>
      </trkpt>
      <trkpt lat="46.20419" lon="6.40356">
        <ele>727.55</ele>
        <time>2024-01-29T12:02:41Z</time>
      </trkpt>
      <trkpt lat="46.20411" lon="6.40352">
        <ele>727.63</ele>
        <time>2024-01-29T12:02:43Z</time>
      </trkpt>
      <trkpt lat="46.20405" lon="6.40355">
        <ele>727.28</ele>
        <time>2024-01-29T12:02:45Z</time>
      </trkpt>
      <trkpt lat="46.20399" lon="6.40354">
        <ele>727.22</ele>
        <time>2024-01-29T12:02:46Z</time>
      </trkpt>
      <trkpt lat="46.2039" lon="6.40344">
        <ele>727.24</ele>
        <time>2024-01-29T12:02:49Z</time>
      </trkpt>
      <trkpt lat="46.20377" lon="6.40335">
        <ele>726.95</ele>
        <time>2024-01-29T12:02:53Z</time>
      </trkpt>
      <trkpt lat="46.20367" lon="6.40324">
        <ele>726.84</ele>
        <time>2024-01-29T12:02:56Z</time>
      </trkpt>
      <trkpt lat="46.20351" lon="6.40315">
        <ele>726.82</ele>
        <time>2024-01-29T12:03:01Z</time>
      </trkpt>
      <trkpt lat="46.20336" lon="6.40296">
        <ele>726.42</ele>
        <time>2024-01-29T12:03:06Z</time>
      </trkpt>
      <trkpt lat="46.20328" lon="6.40293">
        <ele>725.79</ele>
        <time>2024-01-29T12:03:08Z</time>
      </trkpt>
      <trkpt lat="46.2032" lon="6.40276">
        <ele>725.97</ele>
        <time>2024-01-29T12:03:12Z</time>
      </trkpt>
      <trkpt lat="46.20296" lon="6.40252">
        <ele>725.78</ele>
        <time>2024-01-29T12:03:20Z</time>
      </trkpt>
      <trkpt lat="46.20284" lon="6.40229">
        <ele>725.28</ele>
        <time>2024-01-29T12:03:26Z</time>
      </trkpt>
      <trkpt lat="46.20254" lon="6.40215">
        <ele>725.63</ele>
        <time>2024-01-29T12:03:34Z</time>
      </trkpt>
      <trkpt lat="46.20232" lon="6.4017">
        <ele>724.99</ele>
        <time>2024-01-29T12:03:45Z</time>
      </trkpt>
      <trkpt lat="46.20211" lon="6.40089">
        <ele>724.07</ele>
        <time>2024-01-29T12:04:01Z</time>
      </trkpt>
      <trkpt lat="46.2021" lon="6.40072">
        <ele>723.82</ele>
        <time>2024-01-29T12:04:05Z</time>
      </trkpt>
      <trkpt lat="46.20203" lon="6.40039">
        <ele>723.78</ele>
        <time>2024-01-29T12:04:11Z</time>
      </trkpt>
      <trkpt lat="46.20181" lon="6.40013">
        <ele>723.37</ele>
        <time>2024-01-29T12:04:19Z</time>
      </trkpt>
      <trkpt lat="46.20171" lon="6.39992">
        <ele>724.68</ele>
        <time>2024-01-29T12:04:24Z</time>
      </trkpt>
      <trkpt lat="46.20161" lon="6.39978">
        <ele>724.51</ele>
        <time>2024-01-29T12:04:28Z</time>
      </trkpt>
      <trkpt lat="46.20149" lon="6.39968">
        <ele>724.35</ele>
        <time>2024-01-29T12:04:32Z</time>
      </trkpt>
      <trkpt lat="46.20138" lon="6.39965">
        <ele>724.28</ele>
        <time>2024-01-29T12:04:35Z</time>
      </trkpt>
      <trkpt lat="46.20127" lon="6.39976">
        <ele>723.73</ele>
        <time>2024-01-29T12:04:39Z</time>
      </trkpt>
      <trkpt lat="46.20097" lon="6.39997">
        <ele>722.58</ele>
        <time>2024-01-29T12:04:49Z</time>
      </trkpt>
      <trkpt lat="46.2009" lon="6.39996">
        <ele>722.38</ele>
        <time>2024-01-29T12:04:51Z</time>
      </trkpt>
      <trkpt lat="46.20085" lon="6.39991">
        <ele>722.33</ele>
        <time>2024-01-29T12:04:53Z</time>
      </trkpt>
      <trkpt lat="46.20078" lon="6.39973">
        <ele>722.09</ele>
        <time>2024-01-29T12:04:57Z</time>
      </trkpt>
      <trkpt lat="46.20069" lon="6.39963">
        <ele>722.03</ele>
        <time>2024-01-29T12:05:00Z</time>
      </trkpt>
      <trkpt lat="46.20066" lon="6.39952">
        <ele>721.95</ele>
        <time>2024-01-29T12:05:02Z</time>
      </trkpt>
      <trkpt lat="46.20065" lon="6.39926">
        <ele>721.64</ele>
        <time>2024-01-29T12:05:08Z</time>
      </trkpt>
      <trkpt lat="46.20061" lon="6.39899">
        <ele>721.37</ele>
        <time>2024-01-29T12:05:13Z</time>
      </trkpt>
      <trkpt lat="46.20047" lon="6.39882">
        <ele>721.18</ele>
        <time>2024-01-29T12:05:18Z</time>
      </trkpt>
      <trkpt lat="46.20049" lon="6.39866">
        <ele>721.05</ele>
        <time>2024-01-29T12:05:22Z</time>
      </trkpt>
      <trkpt lat="46.20045" lon="6.39849">
        <ele>720.78</ele>
        <time>2024-01-29T12:05:25Z</time>
      </trkpt>
      <trkpt lat="46.20046" lon="6.39842">
        <ele>720.83</ele>
        <time>2024-01-29T12:05:27Z</time>
      </trkpt>
      <trkpt lat="46.20044" lon="6.39837">
        <ele>720.81</ele>
        <time>2024-01-29T12:05:28Z</time>
      </trkpt>
      <trkpt lat="46.20049" lon="6.39824">
        <ele>720.73</ele>
        <time>2024-01-29T12:05:31Z</time>
      </trkpt>
      <trkpt lat="46.20045" lon="6.3981">
        <ele>720.67</ele>
        <time>2024-01-29T12:05:34Z</time>
      </trkpt>
      <trkpt lat="46.20039" lon="6.39806">
        <ele>720.69</ele>
        <time>2024-01-29T12:05:36Z</time>
      </trkpt>
      <trkpt lat="46.20011" lon="6.39804">
        <ele>720.57</ele>
        <time>2024-01-29T12:05:44Z</time>
      </trkpt>
      <trkpt lat="46.20002" lon="6.398">
        <ele>720.56</ele>
        <time>2024-01-29T12:05:47Z</time>
      </trkpt>
      <trkpt lat="46.19976" lon="6.39769">
        <ele>720.04</ele>
        <time>2024-01-29T12:05:57Z</time>
      </trkpt>
      <trkpt lat="46.1996" lon="6.39754">
        <ele>719.87</ele>
        <time>2024-01-29T12:06:02Z</time>
      </trkpt>
      <trkpt lat="46.19947" lon="6.39747">
        <ele>719.61</ele>
        <time>2024-01-29T12:06:06Z</time>
      </trkpt>
      <trkpt lat="46.19941" lon="6.39739">
        <ele>719.37</ele>
        <time>2024-01-29T12:06:09Z</time>
      </trkpt>
      <trkpt lat="46.19929" lon="6.39737">
        <ele>719.18</ele>
        <time>2024-01-29T12:06:12Z</time>
      </trkpt>
      <trkpt lat="46.19914" lon="6.39728">
        <ele>718.89</ele>
        <time>2024-01-29T12:06:17Z</time>
      </trkpt>
      <trkpt lat="46.19897" lon="6.39733">
        <ele>719.19</ele>
        <time>2024-01-29T12:06:22Z</time>
      </trkpt>
      <trkpt lat="46.19892" lon="6.39731">
        <ele>719.31</ele>
        <time>2024-01-29T12:06:23Z</time>
      </trkpt>
      <trkpt lat="46.19887" lon="6.39714">
        <ele>719.06</ele>
        <time>2024-01-29T12:06:27Z</time>
      </trkpt>
      <trkpt lat="46.19872" lon="6.3969">
        <ele>718.8</ele>
        <time>2024-01-29T12:06:33Z</time>
      </trkpt>
      <trkpt lat="46.19862" lon="6.39661">
        <ele>718.13</ele>
        <time>2024-01-29T12:06:39Z</time>
      </trkpt>
      <trkpt lat="46.19858" lon="6.39632">
        <ele>718.52</ele>
        <time>2024-01-29T12:06:45Z</time>
      </trkpt>
      <trkpt lat="46.19851" lon="6.39609">
        <ele>718.39</ele>
        <time>2024-01-29T12:06:50Z</time>
      </trkpt>
      <trkpt lat="46.1985" lon="6.39598">
        <ele>718.27</ele>
        <time>2024-01-29T12:06:52Z</time>
      </trkpt>
      <trkpt lat="46.19854" lon="6.39564">
        <ele>717.85</ele>
        <time>2024-01-29T12:06:59Z</time>
      </trkpt>
      <trkpt lat="46.1985" lon="6.39532">
        <ele>717.96</ele>
        <time>2024-01-29T12:07:05Z</time>
      </trkpt>
      <trkpt lat="46.19855" lon="6.3952">
        <ele>718.33</ele>
        <time>2024-01-29T12:07:08Z</time>
      </trkpt>
      <trkpt lat="46.19849" lon="6.39514">
        <ele>717.27</ele>
        <time>2024-01-29T12:07:09Z</time>
      </trkpt>
      <trkpt lat="46.19839" lon="6.39503">
        <ele>718.13</ele>
        <time>2024-01-29T12:07:11Z</time>
      </trkpt>
      <trkpt lat="46.19833" lon="6.39499">
        <ele>718.29</ele>
        <time>2024-01-29T12:07:12Z</time>
      </trkpt>
      <trkpt lat="46.19792" lon="6.39478">
        <ele>717.39</ele>
        <time>2024-01-29T12:07:20Z</time>
      </trkpt>
      <trkpt lat="46.19752" lon="6.39446">
        <ele>716.35</ele>
        <time>2024-01-29T12:07:28Z</time>
      </trkpt>
      <trkpt lat="46.19738" lon="6.3944">
        <ele>716.21</ele>
        <time>2024-01-29T12:07:31Z</time>
      </trkpt>
      <trkpt lat="46.19724" lon="6.39429">
        <ele>716.64</ele>
        <time>2024-01-29T12:07:33Z</time>
      </trkpt>
      <trkpt lat="46.19712" lon="6.39422">
        <ele>716.64</ele>
        <time>2024-01-29T12:07:36Z</time>
      </trkpt>
      <trkpt lat="46.19698" lon="6.39422">
        <ele>716.53</ele>
        <time>2024-01-29T12:07:39Z</time>
      </trkpt>
      <trkpt lat="46.19654" lon="6.39439">
        <ele>716.43</ele>
        <time>2024-01-29T12:07:49Z</time>
      </trkpt>
      <trkpt lat="46.19608" lon="6.39445">
        <ele>716.92</ele>
        <time>2024-01-29T12:08:00Z</time>
      </trkpt>
      <trkpt lat="46.19577" lon="6.39457">
        <ele>716.76</ele>
        <time>2024-01-29T12:08:09Z</time>
      </trkpt>
      <trkpt lat="46.19568" lon="6.39469">
        <ele>716.85</ele>
        <time>2024-01-29T12:08:12Z</time>
      </trkpt>
      <trkpt lat="46.1955" lon="6.39529">
        <ele>717.07</ele>
        <time>2024-01-29T12:08:25Z</time>
      </trkpt>
      <trkpt lat="46.19532" lon="6.39567">
        <ele>717.37</ele>
        <time>2024-01-29T12:08:33Z</time>
      </trkpt>
      <trkpt lat="46.19506" lon="6.3961">
        <ele>719.06</ele>
        <time>2024-01-29T12:08:43Z</time>
      </trkpt>
      <trkpt lat="46.1948" lon="6.39629">
        <ele>720.4</ele>
        <time>2024-01-29T12:08:51Z</time>
      </trkpt>
      <trkpt lat="46.19468" lon="6.3965">
        <ele>719.97</ele>
        <time>2024-01-29T12:08:56Z</time>
      </trkpt>
      <trkpt lat="46.19434" lon="6.39631">
        <ele>719.36</ele>
        <time>2024-01-29T12:09:04Z</time>
      </trkpt>
      <trkpt lat="46.1942" lon="6.39628">
        <ele>719.44</ele>
        <time>2024-01-29T12:09:07Z</time>
      </trkpt>
      <trkpt lat="46.1939" lon="6.39629">
        <ele>720.14</ele>
        <time>2024-01-29T12:09:13Z</time>
      </trkpt>
      <trkpt lat="46.19375" lon="6.39625">
        <ele>720.54</ele>
        <time>2024-01-29T12:09:17Z</time>
      </trkpt>
      <trkpt lat="46.19363" lon="6.3961">
        <ele>721.08</ele>
        <time>2024-01-29T12:09:21Z</time>
      </trkpt>
      <trkpt lat="46.1929" lon="6.39488">
        <ele>717.08</ele>
        <time>2024-01-29T12:09:55Z</time>
      </trkpt>
      <trkpt lat="46.19267" lon="6.39507">
        <ele>718.24</ele>
        <time>2024-01-29T12:10:04Z</time>
      </trkpt>
      <trkpt lat="46.19151" lon="6.39555">
        <ele>724.78</ele>
        <time>2024-01-29T12:10:49Z</time>
      </trkpt>
      <trkpt lat="46.19145" lon="6.3956">
        <ele>725.14</ele>
        <time>2024-01-29T12:10:52Z</time>
      </trkpt>
      <trkpt lat="46.19135" lon="6.39542">
        <ele>726.4</ele>
        <time>2024-01-29T12:10:58Z</time>
      </trkpt>
      <trkpt lat="46.19126" lon="6.39485">
        <ele>730.99</ele>
        <time>2024-01-29T12:11:13Z</time>
      </trkpt>
      <trkpt lat="46.1912" lon="6.39469">
        <ele>732.07</ele>
        <time>2024-01-29T12:11:17Z</time>
      </trkpt>
      <trkpt lat="46.19096" lon="6.39448">
        <ele>733.97</ele>
        <time>2024-01-29T12:11:26Z</time>
      </trkpt>
      <trkpt lat="46.19088" lon="6.39442">
        <ele>734.48</ele>
        <time>2024-01-29T12:11:29Z</time>
      </trkpt>
      <trkpt lat="46.19083" lon="6.39439">
        <ele>734.7</ele>
        <time>2024-01-29T12:11:31Z</time>
      </trkpt>
      <trkpt lat="46.19071" lon="6.39431">
        <ele>735.49</ele>
        <time>2024-01-29T12:11:35Z</time>
      </trkpt>
      <trkpt lat="46.19062" lon="6.39425">
        <ele>735.93</ele>
        <time>2024-01-29T12:11:38Z</time>
      </trkpt>
      <trkpt lat="46.19034" lon="6.39406">
        <ele>737.02</ele>
        <time>2024-01-29T12:11:46Z</time>
      </trkpt>
      <trkpt lat="46.19032" lon="6.39405">
        <ele>737.02</ele>
        <time>2024-01-29T12:11:47Z</time>
      </trkpt>
      <trkpt lat="46.19013" lon="6.39387">
        <ele>737.97</ele>
        <time>2024-01-29T12:11:52Z</time>
      </trkpt>
      <trkpt lat="46.18986" lon="6.39343">
        <ele>738.49</ele>
        <time>2024-01-29T12:12:03Z</time>
      </trkpt>
      <trkpt lat="46.18975" lon="6.3932">
        <ele>738.79</ele>
        <time>2024-01-29T12:12:08Z</time>
      </trkpt>
      <trkpt lat="46.18956" lon="6.3928">
        <ele>739.84</ele>
        <time>2024-01-29T12:12:17Z</time>
      </trkpt>
      <trkpt lat="46.18933" lon="6.39232">
        <ele>740.16</ele>
        <time>2024-01-29T12:12:30Z</time>
      </trkpt>
      <trkpt lat="46.18909" lon="6.39189">
        <ele>740.55</ele>
        <time>2024-01-29T12:12:43Z</time>
      </trkpt>
      <trkpt lat="46.18899" lon="6.39174">
        <ele>740.64</ele>
        <time>2024-01-29T12:12:48Z</time>
      </trkpt>
      <trkpt lat="46.18877" lon="6.39151">
        <ele>740.96</ele>
        <time>2024-01-29T12:12:59Z</time>
      </trkpt>
      <trkpt lat="46.18864" lon="6.39139">
        <ele>741.36</ele>
        <time>2024-01-29T12:13:05Z</time>
      </trkpt>
      <trkpt lat="46.18834" lon="6.391">
        <ele>741.64</ele>
        <time>2024-01-29T12:13:21Z</time>
      </trkpt>
      <trkpt lat="46.18818" lon="6.39082">
        <ele>742.04</ele>
        <time>2024-01-29T12:13:31Z</time>
      </trkpt>
      <trkpt lat="46.18797" lon="6.39066">
        <ele>743.2</ele>
        <time>2024-01-29T12:13:44Z</time>
      </trkpt>
      <trkpt lat="46.18775" lon="6.39053">
        <ele>744.94</ele>
        <time>2024-01-29T12:13:58Z</time>
      </trkpt>
      <trkpt lat="46.18771" lon="6.39048">
        <ele>745.53</ele>
        <time>2024-01-29T12:14:02Z</time>
      </trkpt>
      <trkpt lat="46.1877" lon="6.39037">
        <ele>745.53</ele>
        <time>2024-01-29T12:14:07Z</time>
      </trkpt>
      <trkpt lat="46.18783" lon="6.38985">
        <ele>745.28</ele>
        <time>2024-01-29T12:14:30Z</time>
      </trkpt>
      <trkpt lat="46.18785" lon="6.38969">
        <ele>745.9</ele>
        <time>2024-01-29T12:14:36Z</time>
      </trkpt>
      <trkpt lat="46.18784" lon="6.38949">
        <ele>745.54</ele>
        <time>2024-01-29T12:14:44Z</time>
      </trkpt>
      <trkpt lat="46.18768" lon="6.38894">
        <ele>747.55</ele>
        <time>2024-01-29T12:15:07Z</time>
      </trkpt>
      <trkpt lat="46.18764" lon="6.38875">
        <ele>746.49</ele>
        <time>2024-01-29T12:15:14Z</time>
      </trkpt>
      <trkpt lat="46.18764" lon="6.38854">
        <ele>747.93</ele>
        <time>2024-01-29T12:15:23Z</time>
      </trkpt>
      <trkpt lat="46.18767" lon="6.38835">
        <ele>747.68</ele>
        <time>2024-01-29T12:15:31Z</time>
      </trkpt>
      <trkpt lat="46.18769" lon="6.3878">
        <ele>750.77</ele>
        <time>2024-01-29T12:15:59Z</time>
      </trkpt>
      <trkpt lat="46.18774" lon="6.38743">
        <ele>750.97</ele>
        <time>2024-01-29T12:16:19Z</time>
      </trkpt>
      <trkpt lat="46.18767" lon="6.38722">
        <ele>753.89</ele>
        <time>2024-01-29T12:16:31Z</time>
      </trkpt>
      <trkpt lat="46.18758" lon="6.38711">
        <ele>756.72</ele>
        <time>2024-01-29T12:16:40Z</time>
      </trkpt>
      <trkpt lat="46.18717" lon="6.38651">
        <ele>766.49</ele>
        <time>2024-01-29T12:17:15Z</time>
      </trkpt>
      <trkpt lat="46.18697" lon="6.3865">
        <ele>771.78</ele>
        <time>2024-01-29T12:17:25Z</time>
      </trkpt>
      <trkpt lat="46.18671" lon="6.38648">
        <ele>773.78</ele>
        <time>2024-01-29T12:17:35Z</time>
      </trkpt>
      <trkpt lat="46.18618" lon="6.38627">
        <ele>776.11</ele>
        <time>2024-01-29T12:17:50Z</time>
      </trkpt>
      <trkpt lat="46.1858" lon="6.38593">
        <ele>773.01</ele>
        <time>2024-01-29T12:18:00Z</time>
      </trkpt>
      <trkpt lat="46.18573" lon="6.38576">
        <ele>769.23</ele>
        <time>2024-01-29T12:18:03Z</time>
      </trkpt>
      <trkpt lat="46.1856" lon="6.38557">
        <ele>767.74</ele>
        <time>2024-01-29T12:18:06Z</time>
      </trkpt>
      <trkpt lat="46.18534" lon="6.38485">
        <ele>762.35</ele>
        <time>2024-01-29T12:18:17Z</time>
      </trkpt>
      <trkpt lat="46.18576" lon="6.38423">
        <ele>747.61</ele>
        <time>2024-01-29T12:18:28Z</time>
      </trkpt>
      <trkpt lat="46.18576" lon="6.38403">
        <ele>747.33</ele>
        <time>2024-01-29T12:18:31Z</time>
      </trkpt>
      <trkpt lat="46.1856" lon="6.38372">
        <ele>747.99</ele>
        <time>2024-01-29T12:18:36Z</time>
      </trkpt>
      <trkpt lat="46.18549" lon="6.38366">
        <ele>750.16</ele>
        <time>2024-01-29T12:18:38Z</time>
      </trkpt>
      <trkpt lat="46.18533" lon="6.38345">
        <ele>745.73</ele>
        <time>2024-01-29T12:18:42Z</time>
      </trkpt>
      <trkpt lat="46.185" lon="6.38322">
        <ele>739.67</ele>
        <time>2024-01-29T12:18:49Z</time>
      </trkpt>
      <trkpt lat="46.18481" lon="6.38316">
        <ele>735.32</ele>
        <time>2024-01-29T12:18:53Z</time>
      </trkpt>
      <trkpt lat="46.18463" lon="6.38312">
        <ele>728.51</ele>
        <time>2024-01-29T12:18:56Z</time>
      </trkpt>
      <trkpt lat="46.1845" lon="6.38337">
        <ele>733.62</ele>
        <time>2024-01-29T12:19:01Z</time>
      </trkpt>
      <trkpt lat="46.1844" lon="6.38345">
        <ele>733.7</ele>
        <time>2024-01-29T12:19:03Z</time>
      </trkpt>
      <trkpt lat="46.18427" lon="6.38341">
        <ele>728.02</ele>
        <time>2024-01-29T12:19:06Z</time>
      </trkpt>
      <trkpt lat="46.18422" lon="6.3833">
        <ele>722.75</ele>
        <time>2024-01-29T12:19:08Z</time>
      </trkpt>
      <trkpt lat="46.18427" lon="6.38315">
        <ele>719.68</ele>
        <time>2024-01-29T12:19:11Z</time>
      </trkpt>
      <trkpt lat="46.18418" lon="6.3828">
        <ele>710.07</ele>
        <time>2024-01-29T12:19:16Z</time>
      </trkpt>
      <trkpt lat="46.18396" lon="6.38247">
        <ele>703.79</ele>
        <time>2024-01-29T12:19:23Z</time>
      </trkpt>
      <trkpt lat="46.18385" lon="6.38237">
        <ele>702.46</ele>
        <time>2024-01-29T12:19:26Z</time>
      </trkpt>
      <trkpt lat="46.18345" lon="6.38236">
        <ele>704.83</ele>
        <time>2024-01-29T12:19:34Z</time>
      </trkpt>
      <trkpt lat="46.18325" lon="6.38194">
        <ele>704.58</ele>
        <time>2024-01-29T12:19:41Z</time>
      </trkpt>
      <trkpt lat="46.18331" lon="6.38157">
        <ele>704.26</ele>
        <time>2024-01-29T12:19:47Z</time>
      </trkpt>
      <trkpt lat="46.18355" lon="6.38128">
        <ele>701.23</ele>
        <time>2024-01-29T12:19:53Z</time>
      </trkpt>
      <trkpt lat="46.1838" lon="6.38113">
        <ele>696.43</ele>
        <time>2024-01-29T12:19:58Z</time>
      </trkpt>
      <trkpt lat="46.18417" lon="6.38096">
        <ele>689.57</ele>
        <time>2024-01-29T12:20:06Z</time>
      </trkpt>
      <trkpt lat="46.18436" lon="6.38064">
        <ele>687.66</ele>
        <time>2024-01-29T12:20:12Z</time>
      </trkpt>
      <trkpt lat="46.18455" lon="6.38017">
        <ele>683.78</ele>
        <time>2024-01-29T12:20:20Z</time>
      </trkpt>
      <trkpt lat="46.18489" lon="6.37993">
        <ele>678.66</ele>
        <time>2024-01-29T12:20:28Z</time>
      </trkpt>
      <trkpt lat="46.18491" lon="6.37982">
        <ele>676.85</ele>
        <time>2024-01-29T12:20:29Z</time>
      </trkpt>
      <trkpt lat="46.18487" lon="6.37961">
        <ele>673.5</ele>
        <time>2024-01-29T12:20:33Z</time>
      </trkpt>
      <trkpt lat="46.18469" lon="6.3794">
        <ele>671.37</ele>
        <time>2024-01-29T12:20:38Z</time>
      </trkpt>
      <trkpt lat="46.1844" lon="6.37925">
        <ele>670.22</ele>
        <time>2024-01-29T12:20:45Z</time>
      </trkpt>
      <trkpt lat="46.18328" lon="6.37917">
        <ele>666.87</ele>
        <time>2024-01-29T12:21:17Z</time>
      </trkpt>
      <trkpt lat="46.18274" lon="6.37895">
        <ele>665.77</ele>
        <time>2024-01-29T12:21:36Z</time>
      </trkpt>
      <trkpt lat="46.18258" lon="6.37894">
        <ele>666.19</ele>
        <time>2024-01-29T12:21:41Z</time>
      </trkpt>
      <trkpt lat="46.18244" lon="6.37887">
        <ele>667.81</ele>
        <time>2024-01-29T12:21:46Z</time>
      </trkpt>
      <trkpt lat="46.18221" lon="6.37853">
        <ele>670.98</ele>
        <time>2024-01-29T12:21:56Z</time>
      </trkpt>
      <trkpt lat="46.18199" lon="6.3783">
        <ele>672.49</ele>
        <time>2024-01-29T12:22:03Z</time>
      </trkpt>
      <trkpt lat="46.18144" lon="6.37742">
        <ele>673.76</ele>
        <time>2024-01-29T12:22:24Z</time>
      </trkpt>
      <trkpt lat="46.18037" lon="6.37655">
        <ele>663.05</ele>
        <time>2024-01-29T12:22:51Z</time>
      </trkpt>
      <trkpt lat="46.18026" lon="6.37637">
        <ele>661.32</ele>
        <time>2024-01-29T12:22:55Z</time>
      </trkpt>
      <trkpt lat="46.18017" lon="6.37591">
        <ele>660.74</ele>
        <time>2024-01-29T12:23:02Z</time>
      </trkpt>
      <trkpt lat="46.18002" lon="6.37561">
        <ele>662.15</ele>
        <time>2024-01-29T12:23:07Z</time>
      </trkpt>
      <trkpt lat="46.1797" lon="6.37527">
        <ele>664.29</ele>
        <time>2024-01-29T12:23:16Z</time>
      </trkpt>
      <trkpt lat="46.1796" lon="6.37516">
        <ele>665.36</ele>
        <time>2024-01-29T12:23:19Z</time>
      </trkpt>
      <trkpt lat="46.17948" lon="6.37511">
        <ele>666.47</ele>
        <time>2024-01-29T12:23:22Z</time>
      </trkpt>
      <trkpt lat="46.17923" lon="6.37513">
        <ele>667.62</ele>
        <time>2024-01-29T12:23:27Z</time>
      </trkpt>
      <trkpt lat="46.17899" lon="6.37527">
        <ele>666.68</ele>
        <time>2024-01-29T12:23:33Z</time>
      </trkpt>
      <trkpt lat="46.1788" lon="6.37532">
        <ele>665.82</ele>
        <time>2024-01-29T12:23:38Z</time>
      </trkpt>
      <trkpt lat="46.17866" lon="6.37529">
        <ele>665.27</ele>
        <time>2024-01-29T12:23:42Z</time>
      </trkpt>
      <trkpt lat="46.17835" lon="6.37517">
        <ele>664.51</ele>
        <time>2024-01-29T12:23:54Z</time>
      </trkpt>
      <trkpt lat="46.1781" lon="6.37512">
        <ele>664.53</ele>
        <time>2024-01-29T12:24:06Z</time>
      </trkpt>
      <trkpt lat="46.17793" lon="6.37512">
        <ele>664.21</ele>
        <time>2024-01-29T12:24:14Z</time>
      </trkpt>
      <trkpt lat="46.17777" lon="6.37515">
        <ele>662.94</ele>
        <time>2024-01-29T12:24:22Z</time>
      </trkpt>
      <trkpt lat="46.1775" lon="6.37527">
        <ele>660.03</ele>
        <time>2024-01-29T12:24:35Z</time>
      </trkpt>
      <trkpt lat="46.17716" lon="6.37537">
        <ele>655.36</ele>
        <time>2024-01-29T12:24:49Z</time>
      </trkpt>
      <trkpt lat="46.17698" lon="6.37547">
        <ele>652.65</ele>
        <time>2024-01-29T12:24:56Z</time>
      </trkpt>
      <trkpt lat="46.17682" lon="6.3755">
        <ele>651.02</ele>
        <time>2024-01-29T12:25:01Z</time>
      </trkpt>
      <trkpt lat="46.17567" lon="6.37501">
        <ele>640.26</ele>
        <time>2024-01-29T12:25:31Z</time>
      </trkpt>
      <trkpt lat="46.17534" lon="6.37486">
        <ele>637.48</ele>
        <time>2024-01-29T12:25:39Z</time>
      </trkpt>
      <trkpt lat="46.17492" lon="6.37474">
        <ele>636.15</ele>
        <time>2024-01-29T12:25:49Z</time>
      </trkpt>
      <trkpt lat="46.17443" lon="6.37482">
        <ele>636.79</ele>
        <time>2024-01-29T12:26:05Z</time>
      </trkpt>
      <trkpt lat="46.17397" lon="6.37498">
        <ele>640.62</ele>
        <time>2024-01-29T12:26:30Z</time>
      </trkpt>
      <trkpt lat="46.17365" lon="6.37496">
        <ele>642.99</ele>
        <time>2024-01-29T12:26:52Z</time>
      </trkpt>
      <trkpt lat="46.17358" lon="6.37499">
        <ele>643.29</ele>
        <time>2024-01-29T12:26:57Z</time>
      </trkpt>
      <trkpt lat="46.17353" lon="6.37504">
        <ele>643.72</ele>
        <time>2024-01-29T12:27:02Z</time>
      </trkpt>
      <trkpt lat="46.17349" lon="6.37513">
        <ele>644.38</ele>
        <time>2024-01-29T12:27:08Z</time>
      </trkpt>
      <trkpt lat="46.17341" lon="6.37551">
        <ele>646.24</ele>
        <time>2024-01-29T12:27:31Z</time>
      </trkpt>
      <trkpt lat="46.17336" lon="6.37562">
        <ele>646.99</ele>
        <time>2024-01-29T12:27:39Z</time>
      </trkpt>
      <trkpt lat="46.17308" lon="6.37597">
        <ele>650.05</ele>
        <time>2024-01-29T12:28:12Z</time>
      </trkpt>
      <trkpt lat="46.17293" lon="6.37612">
        <ele>650.25</ele>
        <time>2024-01-29T12:28:28Z</time>
      </trkpt>
      <trkpt lat="46.17224" lon="6.37662">
        <ele>650.65</ele>
        <time>2024-01-29T12:29:25Z</time>
      </trkpt>
      <trkpt lat="46.17184" lon="6.37707">
        <ele>656.1</ele>
        <time>2024-01-29T12:29:42Z</time>
      </trkpt>
      <trkpt lat="46.17143" lon="6.37753">
        <ele>661.8</ele>
        <time>2024-01-29T12:29:53Z</time>
      </trkpt>
      <trkpt lat="46.17134" lon="6.37757">
        <ele>661.84</ele>
        <time>2024-01-29T12:29:55Z</time>
      </trkpt>
      <trkpt lat="46.17127" lon="6.37752">
        <ele>660.82</ele>
        <time>2024-01-29T12:29:56Z</time>
      </trkpt>
      <trkpt lat="46.17116" lon="6.37719">
        <ele>658.81</ele>
        <time>2024-01-29T12:30:01Z</time>
      </trkpt>
      <trkpt lat="46.1706" lon="6.3764">
        <ele>656.77</ele>
        <time>2024-01-29T12:30:16Z</time>
      </trkpt>
      <trkpt lat="46.1704" lon="6.3762">
        <ele>656.47</ele>
        <time>2024-01-29T12:30:21Z</time>
      </trkpt>
      <trkpt lat="46.17001" lon="6.37593">
        <ele>654.47</ele>
        <time>2024-01-29T12:30:29Z</time>
      </trkpt>
      <trkpt lat="46.16932" lon="6.3757">
        <ele>648.96</ele>
        <time>2024-01-29T12:30:43Z</time>
      </trkpt>
      <trkpt lat="46.16856" lon="6.37551">
        <ele>642.63</ele>
        <time>2024-01-29T12:30:59Z</time>
      </trkpt>
      <trkpt lat="46.16821" lon="6.37536">
        <ele>638.53</ele>
        <time>2024-01-29T12:31:07Z</time>
      </trkpt>
      <trkpt lat="46.16768" lon="6.37524">
        <ele>633.74</ele>
        <time>2024-01-29T12:31:20Z</time>
      </trkpt>
      <trkpt lat="46.16731" lon="6.37523">
        <ele>631.6</ele>
        <time>2024-01-29T12:31:30Z</time>
      </trkpt>
      <trkpt lat="46.16721" lon="6.37525">
        <ele>630.73</ele>
        <time>2024-01-29T12:31:33Z</time>
      </trkpt>
      <trkpt lat="46.16681" lon="6.37534">
        <ele>629.05</ele>
        <time>2024-01-29T12:31:45Z</time>
      </trkpt>
      <trkpt lat="46.16626" lon="6.3754">
        <ele>627.57</ele>
        <time>2024-01-29T12:32:03Z</time>
      </trkpt>
      <trkpt lat="46.16546" lon="6.3756">
        <ele>628.34</ele>
        <time>2024-01-29T12:32:27Z</time>
      </trkpt>
      <trkpt lat="46.16498" lon="6.37576">
        <ele>630.05</ele>
        <time>2024-01-29T12:32:40Z</time>
      </trkpt>
      <trkpt lat="46.16495" lon="6.37575">
        <ele>630.05</ele>
        <time>2024-01-29T12:32:41Z</time>
      </trkpt>
      <trkpt lat="46.16493" lon="6.37574">
        <ele>630.18</ele>
        <time>2024-01-29T12:32:41Z</time>
      </trkpt>
      <trkpt lat="46.1649" lon="6.37573">
        <ele>630.18</ele>
        <time>2024-01-29T12:32:42Z</time>
      </trkpt>
      <trkpt lat="46.16487" lon="6.37571">
        <ele>630.01</ele>
        <time>2024-01-29T12:32:43Z</time>
      </trkpt>
      <trkpt lat="46.16487" lon="6.3757">
        <ele>630.01</ele>
        <time>2024-01-29T12:32:43Z</time>
      </trkpt>
      <trkpt lat="46.16474" lon="6.37557">
        <ele>629.68</ele>
        <time>2024-01-29T12:32:47Z</time>
      </trkpt>
      <trkpt lat="46.16447" lon="6.37537">
        <ele>629.17</ele>
        <time>2024-01-29T12:32:53Z</time>
      </trkpt>
      <trkpt lat="46.16416" lon="6.3753">
        <ele>630.31</ele>
        <time>2024-01-29T12:33:00Z</time>
      </trkpt>
      <trkpt lat="46.16408" lon="6.37525">
        <ele>629.68</ele>
        <time>2024-01-29T12:33:02Z</time>
      </trkpt>
      <trkpt lat="46.16402" lon="6.37514">
        <ele>628.97</ele>
        <time>2024-01-29T12:33:04Z</time>
      </trkpt>
      <trkpt lat="46.16401" lon="6.37505">
        <ele>628.12</ele>
        <time>2024-01-29T12:33:05Z</time>
      </trkpt>
      <trkpt lat="46.16399" lon="6.37409">
        <ele>618.98</ele>
        <time>2024-01-29T12:33:19Z</time>
      </trkpt>
      <trkpt lat="46.16389" lon="6.37331">
        <ele>610.87</ele>
        <time>2024-01-29T12:33:30Z</time>
      </trkpt>
      <trkpt lat="46.1639" lon="6.37314">
        <ele>608.58</ele>
        <time>2024-01-29T12:33:31Z</time>
      </trkpt>
      <trkpt lat="46.16385" lon="6.37274">
        <ele>604.75</ele>
        <time>2024-01-29T12:33:34Z</time>
      </trkpt>
      <trkpt lat="46.16382" lon="6.37265">
        <ele>604.39</ele>
        <time>2024-01-29T12:33:35Z</time>
      </trkpt>
      <trkpt lat="46.16426" lon="6.37299">
        <ele>602.85</ele>
        <time>2024-01-29T12:33:45Z</time>
      </trkpt>
      <trkpt lat="46.16432" lon="6.37301">
        <ele>602.68</ele>
        <time>2024-01-29T12:33:46Z</time>
      </trkpt>
      <trkpt lat="46.16437" lon="6.37295">
        <ele>601.6</ele>
        <time>2024-01-29T12:33:48Z</time>
      </trkpt>
      <trkpt lat="46.16439" lon="6.37282">
        <ele>598.53</ele>
        <time>2024-01-29T12:33:50Z</time>
      </trkpt>
      <trkpt lat="46.16436" lon="6.37263">
        <ele>596.41</ele>
        <time>2024-01-29T12:33:52Z</time>
      </trkpt>
      <trkpt lat="46.16422" lon="6.37231">
        <ele>593.37</ele>
        <time>2024-01-29T12:33:58Z</time>
      </trkpt>
      <trkpt lat="46.16422" lon="6.37226">
        <ele>592.62</ele>
        <time>2024-01-29T12:33:59Z</time>
      </trkpt>
      <trkpt lat="46.16427" lon="6.37222">
        <ele>591.4</ele>
        <time>2024-01-29T12:34:00Z</time>
      </trkpt>
      <trkpt lat="46.16461" lon="6.37229">
        <ele>587.57</ele>
        <time>2024-01-29T12:34:07Z</time>
      </trkpt>
      <trkpt lat="46.16466" lon="6.37226">
        <ele>586.83</ele>
        <time>2024-01-29T12:34:08Z</time>
      </trkpt>
      <trkpt lat="46.16468" lon="6.37219">
        <ele>585.55</ele>
        <time>2024-01-29T12:34:10Z</time>
      </trkpt>
      <trkpt lat="46.16465" lon="6.37214">
        <ele>585.17</ele>
        <time>2024-01-29T12:34:11Z</time>
      </trkpt>
      <trkpt lat="46.16445" lon="6.372">
        <ele>582.01</ele>
        <time>2024-01-29T12:34:15Z</time>
      </trkpt>
      <trkpt lat="46.16441" lon="6.37192">
        <ele>581.02</ele>
        <time>2024-01-29T12:34:17Z</time>
      </trkpt>
      <trkpt lat="46.16443" lon="6.37182">
        <ele>579.98</ele>
        <time>2024-01-29T12:34:19Z</time>
      </trkpt>
      <trkpt lat="46.16456" lon="6.37171">
        <ele>579.05</ele>
        <time>2024-01-29T12:34:22Z</time>
      </trkpt>
      <trkpt lat="46.16461" lon="6.37166">
        <ele>578.9</ele>
        <time>2024-01-29T12:34:23Z</time>
      </trkpt>
      <trkpt lat="46.16469" lon="6.37158">
        <ele>578.7</ele>
        <time>2024-01-29T12:34:25Z</time>
      </trkpt>
      <trkpt lat="46.16475" lon="6.3715">
        <ele>578.38</ele>
        <time>2024-01-29T12:34:26Z</time>
      </trkpt>
      <trkpt lat="46.16479" lon="6.37145">
        <ele>576.66</ele>
        <time>2024-01-29T12:34:27Z</time>
      </trkpt>
      <trkpt lat="46.16496" lon="6.37119">
        <ele>578.13</ele>
        <time>2024-01-29T12:34:30Z</time>
      </trkpt>
      <trkpt lat="46.165" lon="6.37108">
        <ele>578.25</ele>
        <time>2024-01-29T12:34:31Z</time>
      </trkpt>
      <trkpt lat="46.16492" lon="6.37091">
        <ele>576.1</ele>
        <time>2024-01-29T12:34:33Z</time>
      </trkpt>
      <trkpt lat="46.1647" lon="6.37055">
        <ele>573.99</ele>
        <time>2024-01-29T12:34:38Z</time>
      </trkpt>
      <trkpt lat="46.16463" lon="6.37038">
        <ele>573.01</ele>
        <time>2024-01-29T12:34:40Z</time>
      </trkpt>
      <trkpt lat="46.16422" lon="6.3691">
        <ele>570.01</ele>
        <time>2024-01-29T12:34:58Z</time>
      </trkpt>
      <trkpt lat="46.16419" lon="6.36902">
        <ele>569.61</ele>
        <time>2024-01-29T12:35:00Z</time>
      </trkpt>
      <trkpt lat="46.16412" lon="6.36895">
        <ele>569.37</ele>
        <time>2024-01-29T12:35:02Z</time>
      </trkpt>
      <trkpt lat="46.16392" lon="6.36878">
        <ele>568.48</ele>
        <time>2024-01-29T12:35:09Z</time>
      </trkpt>
      <trkpt lat="46.16387" lon="6.36869">
        <ele>568.2</ele>
        <time>2024-01-29T12:35:12Z</time>
      </trkpt>
      <trkpt lat="46.16387" lon="6.36852">
        <ele>568.02</ele>
        <time>2024-01-29T12:35:16Z</time>
      </trkpt>
      <trkpt lat="46.16394" lon="6.36843">
        <ele>568.12</ele>
        <time>2024-01-29T12:35:19Z</time>
      </trkpt>
      <trkpt lat="46.16401" lon="6.36838">
        <ele>568.55</ele>
        <time>2024-01-29T12:35:22Z</time>
      </trkpt>
      <trkpt lat="46.1641" lon="6.36826">
        <ele>569.19</ele>
        <time>2024-01-29T12:35:29Z</time>
      </trkpt>
      <trkpt lat="46.16425" lon="6.36772">
        <ele>570.27</ele>
        <time>2024-01-29T12:35:49Z</time>
      </trkpt>
      <trkpt lat="46.16411" lon="6.36701">
        <ele>571.87</ele>
        <time>2024-01-29T12:36:16Z</time>
      </trkpt>
      <trkpt lat="46.16407" lon="6.36665">
        <ele>573.1</ele>
        <time>2024-01-29T12:36:28Z</time>
      </trkpt>
      <trkpt lat="46.16413" lon="6.36617">
        <ele>578.49</ele>
        <time>2024-01-29T12:36:45Z</time>
      </trkpt>
      <trkpt lat="46.16413" lon="6.36569">
        <ele>580.29</ele>
        <time>2024-01-29T12:36:54Z</time>
      </trkpt>
      <trkpt lat="46.1641" lon="6.36534">
        <ele>582.86</ele>
        <time>2024-01-29T12:37:00Z</time>
      </trkpt>
      <trkpt lat="46.16413" lon="6.36515">
        <ele>584.35</ele>
        <time>2024-01-29T12:37:02Z</time>
      </trkpt>
      <trkpt lat="46.1641" lon="6.36505">
        <ele>583.4</ele>
        <time>2024-01-29T12:37:03Z</time>
      </trkpt>
      <trkpt lat="46.16409" lon="6.36499">
        <ele>583.39</ele>
        <time>2024-01-29T12:37:04Z</time>
      </trkpt>
      <trkpt lat="46.16398" lon="6.36456">
        <ele>581.07</ele>
        <time>2024-01-29T12:37:09Z</time>
      </trkpt>
      <trkpt lat="46.16409" lon="6.36448">
        <ele>583.09</ele>
        <time>2024-01-29T12:37:12Z</time>
      </trkpt>
      <trkpt lat="46.16414" lon="6.36436">
        <ele>583.98</ele>
        <time>2024-01-29T12:37:13Z</time>
      </trkpt>
      <trkpt lat="46.16415" lon="6.36418">
        <ele>584.36</ele>
        <time>2024-01-29T12:37:15Z</time>
      </trkpt>
      <trkpt lat="46.16407" lon="6.36363">
        <ele>583.3</ele>
        <time>2024-01-29T12:37:20Z</time>
      </trkpt>
      <trkpt lat="46.16408" lon="6.3633">
        <ele>583.74</ele>
        <time>2024-01-29T12:37:24Z</time>
      </trkpt>
      <trkpt lat="46.16415" lon="6.36298">
        <ele>584.17</ele>
        <time>2024-01-29T12:37:27Z</time>
      </trkpt>
      <trkpt lat="46.16434" lon="6.3625">
        <ele>584.54</ele>
        <time>2024-01-29T12:37:32Z</time>
      </trkpt>
      <trkpt lat="46.16442" lon="6.36223">
        <ele>583.97</ele>
        <time>2024-01-29T12:37:35Z</time>
      </trkpt>
      <trkpt lat="46.16451" lon="6.36105">
        <ele>583.03</ele>
        <time>2024-01-29T12:37:49Z</time>
      </trkpt>
      <trkpt lat="46.1646" lon="6.36063">
        <ele>583.29</ele>
        <time>2024-01-29T12:37:54Z</time>
      </trkpt>
      <trkpt lat="46.16484" lon="6.36019">
        <ele>585.73</ele>
        <time>2024-01-29T12:38:01Z</time>
      </trkpt>
      <trkpt lat="46.16501" lon="6.35992">
        <ele>587.35</ele>
        <time>2024-01-29T12:38:05Z</time>
      </trkpt>
      <trkpt lat="46.16497" lon="6.35971">
        <ele>585.44</ele>
        <time>2024-01-29T12:38:07Z</time>
      </trkpt>
      <trkpt lat="46.165" lon="6.35932">
        <ele>584.5</ele>
        <time>2024-01-29T12:38:11Z</time>
      </trkpt>
      <trkpt lat="46.16505" lon="6.35894">
        <ele>584.15</ele>
        <time>2024-01-29T12:38:15Z</time>
      </trkpt>
      <trkpt lat="46.1651" lon="6.3584">
        <ele>583.54</ele>
        <time>2024-01-29T12:38:21Z</time>
      </trkpt>
      <trkpt lat="46.16515" lon="6.35795">
        <ele>583.17</ele>
        <time>2024-01-29T12:38:25Z</time>
      </trkpt>
      <trkpt lat="46.16516" lon="6.35781">
        <ele>584.03</ele>
        <time>2024-01-29T12:38:26Z</time>
      </trkpt>
      <trkpt lat="46.16512" lon="6.35715">
        <ele>582.44</ele>
        <time>2024-01-29T12:38:32Z</time>
      </trkpt>
      <trkpt lat="46.16511" lon="6.35707">
        <ele>582.22</ele>
        <time>2024-01-29T12:38:33Z</time>
      </trkpt>
      <trkpt lat="46.16514" lon="6.35658">
        <ele>580.91</ele>
        <time>2024-01-29T12:38:38Z</time>
      </trkpt>
      <trkpt lat="46.16535" lon="6.35548">
        <ele>585.19</ele>
        <time>2024-01-29T12:38:48Z</time>
      </trkpt>
      <trkpt lat="46.16537" lon="6.35536">
        <ele>586.06</ele>
        <time>2024-01-29T12:38:49Z</time>
      </trkpt>
      <trkpt lat="46.16544" lon="6.35497">
        <ele>586.34</ele>
        <time>2024-01-29T12:38:53Z</time>
      </trkpt>
      <trkpt lat="46.16543" lon="6.35483">
        <ele>586.23</ele>
        <time>2024-01-29T12:38:54Z</time>
      </trkpt>
      <trkpt lat="46.1654" lon="6.35448">
        <ele>585.09</ele>
        <time>2024-01-29T12:38:58Z</time>
      </trkpt>
      <trkpt lat="46.16542" lon="6.35387">
        <ele>583.52</ele>
        <time>2024-01-29T12:39:04Z</time>
      </trkpt>
      <trkpt lat="46.1655" lon="6.35337">
        <ele>585.16</ele>
        <time>2024-01-29T12:39:10Z</time>
      </trkpt>
      <trkpt lat="46.16548" lon="6.35291">
        <ele>586.22</ele>
        <time>2024-01-29T12:39:14Z</time>
      </trkpt>
      <trkpt lat="46.16553" lon="6.35266">
        <ele>588.03</ele>
        <time>2024-01-29T12:39:16Z</time>
      </trkpt>
      <trkpt lat="46.1657" lon="6.3524">
        <ele>591.22</ele>
        <time>2024-01-29T12:39:19Z</time>
      </trkpt>
      <trkpt lat="46.1658" lon="6.35212">
        <ele>593.06</ele>
        <time>2024-01-29T12:39:22Z</time>
      </trkpt>
      <trkpt lat="46.16581" lon="6.35204">
        <ele>592.81</ele>
        <time>2024-01-29T12:39:23Z</time>
      </trkpt>
      <trkpt lat="46.16581" lon="6.35192">
        <ele>592.49</ele>
        <time>2024-01-29T12:39:24Z</time>
      </trkpt>
      <trkpt lat="46.16575" lon="6.35126">
        <ele>589.97</ele>
        <time>2024-01-29T12:39:30Z</time>
      </trkpt>
      <trkpt lat="46.16574" lon="6.35121">
        <ele>589.74</ele>
        <time>2024-01-29T12:39:30Z</time>
      </trkpt>
      <trkpt lat="46.16567" lon="6.35088">
        <ele>588.04</ele>
        <time>2024-01-29T12:39:33Z</time>
      </trkpt>
      <trkpt lat="46.16564" lon="6.35081">
        <ele>586.94</ele>
        <time>2024-01-29T12:39:34Z</time>
      </trkpt>
      <trkpt lat="46.16553" lon="6.35054">
        <ele>583.52</ele>
        <time>2024-01-29T12:39:37Z</time>
      </trkpt>
      <trkpt lat="46.1655" lon="6.35041">
        <ele>583</ele>
        <time>2024-01-29T12:39:38Z</time>
      </trkpt>
      <trkpt lat="46.16549" lon="6.35018">
        <ele>581.26</ele>
        <time>2024-01-29T12:39:40Z</time>
      </trkpt>
      <trkpt lat="46.16553" lon="6.34994">
        <ele>581.25</ele>
        <time>2024-01-29T12:39:42Z</time>
      </trkpt>
      <trkpt lat="46.16562" lon="6.34937">
        <ele>580.8</ele>
        <time>2024-01-29T12:39:48Z</time>
      </trkpt>
      <trkpt lat="46.16563" lon="6.34932">
        <ele>581.42</ele>
        <time>2024-01-29T12:39:48Z</time>
      </trkpt>
      <trkpt lat="46.16568" lon="6.34898">
        <ele>581.5</ele>
        <time>2024-01-29T12:39:52Z</time>
      </trkpt>
      <trkpt lat="46.16581" lon="6.34841">
        <ele>581.23</ele>
        <time>2024-01-29T12:39:58Z</time>
      </trkpt>
      <trkpt lat="46.16588" lon="6.34822">
        <ele>581.35</ele>
        <time>2024-01-29T12:40:01Z</time>
      </trkpt>
      <trkpt lat="46.16591" lon="6.34814">
        <ele>581.67</ele>
        <time>2024-01-29T12:40:02Z</time>
      </trkpt>
      <trkpt lat="46.16598" lon="6.34796">
        <ele>581.6</ele>
        <time>2024-01-29T12:40:05Z</time>
      </trkpt>
      <trkpt lat="46.16621" lon="6.34744">
        <ele>581.8</ele>
        <time>2024-01-29T12:40:14Z</time>
      </trkpt>
      <trkpt lat="46.16638" lon="6.34709">
        <ele>580.56</ele>
        <time>2024-01-29T12:40:20Z</time>
      </trkpt>
      <trkpt lat="46.16665" lon="6.34649">
        <ele>579.41</ele>
        <time>2024-01-29T12:40:30Z</time>
      </trkpt>
      <trkpt lat="46.16686" lon="6.34568">
        <ele>576.57</ele>
        <time>2024-01-29T12:40:41Z</time>
      </trkpt>
      <trkpt lat="46.16692" lon="6.34533">
        <ele>578.15</ele>
        <time>2024-01-29T12:40:46Z</time>
      </trkpt>
      <trkpt lat="46.16692" lon="6.34508">
        <ele>578.45</ele>
        <time>2024-01-29T12:40:50Z</time>
      </trkpt>
      <trkpt lat="46.16696" lon="6.34478">
        <ele>580.07</ele>
        <time>2024-01-29T12:40:54Z</time>
      </trkpt>
      <trkpt lat="46.16713" lon="6.34435">
        <ele>576.89</ele>
        <time>2024-01-29T12:41:02Z</time>
      </trkpt>
      <trkpt lat="46.1672" lon="6.344">
        <ele>575.51</ele>
        <time>2024-01-29T12:41:09Z</time>
      </trkpt>
      <trkpt lat="46.16727" lon="6.34369">
        <ele>577.42</ele>
        <time>2024-01-29T12:41:15Z</time>
      </trkpt>
      <trkpt lat="46.16734" lon="6.34354">
        <ele>578.5</ele>
        <time>2024-01-29T12:41:19Z</time>
      </trkpt>
      <trkpt lat="46.16736" lon="6.3435">
        <ele>578.64</ele>
        <time>2024-01-29T12:41:20Z</time>
      </trkpt>
      <trkpt lat="46.1674" lon="6.34344">
        <ele>579.26</ele>
        <time>2024-01-29T12:41:22Z</time>
      </trkpt>
      <trkpt lat="46.16754" lon="6.34322">
        <ele>580.29</ele>
        <time>2024-01-29T12:41:29Z</time>
      </trkpt>
      <trkpt lat="46.16768" lon="6.34299">
        <ele>580.49</ele>
        <time>2024-01-29T12:41:36Z</time>
      </trkpt>
      <trkpt lat="46.16769" lon="6.34298">
        <ele>580.79</ele>
        <time>2024-01-29T12:41:37Z</time>
      </trkpt>
      <trkpt lat="46.1678" lon="6.34281">
        <ele>581.68</ele>
        <time>2024-01-29T12:41:42Z</time>
      </trkpt>
      <trkpt lat="46.16791" lon="6.34267">
        <ele>582.58</ele>
        <time>2024-01-29T12:41:47Z</time>
      </trkpt>
      <trkpt lat="46.16817" lon="6.34248">
        <ele>583.74</ele>
        <time>2024-01-29T12:41:58Z</time>
      </trkpt>
      <trkpt lat="46.16835" lon="6.34223">
        <ele>583.74</ele>
        <time>2024-01-29T12:42:06Z</time>
      </trkpt>
      <trkpt lat="46.16857" lon="6.3418">
        <ele>581.83</ele>
        <time>2024-01-29T12:42:20Z</time>
      </trkpt>
      <trkpt lat="46.16864" lon="6.34119">
        <ele>579.03</ele>
        <time>2024-01-29T12:42:34Z</time>
      </trkpt>
      <trkpt lat="46.16884" lon="6.34046">
        <ele>575.2</ele>
        <time>2024-01-29T12:42:49Z</time>
      </trkpt>
      <trkpt lat="46.169" lon="6.34004">
        <ele>572.8</ele>
        <time>2024-01-29T12:42:56Z</time>
      </trkpt>
      <trkpt lat="46.16929" lon="6.33945">
        <ele>570.54</ele>
        <time>2024-01-29T12:43:03Z</time>
      </trkpt>
      <trkpt lat="46.1693" lon="6.33942">
        <ele>570.54</ele>
        <time>2024-01-29T12:43:04Z</time>
      </trkpt>
      <trkpt lat="46.16969" lon="6.33849">
        <ele>564.78</ele>
        <time>2024-01-29T12:43:15Z</time>
      </trkpt>
      <trkpt lat="46.16976" lon="6.33804">
        <ele>562.53</ele>
        <time>2024-01-29T12:43:19Z</time>
      </trkpt>
      <trkpt lat="46.16973" lon="6.33766">
        <ele>562.85</ele>
        <time>2024-01-29T12:43:23Z</time>
      </trkpt>
      <trkpt lat="46.16959" lon="6.33605">
        <ele>561.69</ele>
        <time>2024-01-29T12:43:38Z</time>
      </trkpt>
      <trkpt lat="46.16963" lon="6.33583">
        <ele>561.52</ele>
        <time>2024-01-29T12:43:41Z</time>
      </trkpt>
      <trkpt lat="46.16966" lon="6.33572">
        <ele>561.28</ele>
        <time>2024-01-29T12:43:42Z</time>
      </trkpt>
      <trkpt lat="46.16986" lon="6.33503">
        <ele>560.63</ele>
        <time>2024-01-29T12:43:50Z</time>
      </trkpt>
      <trkpt lat="46.16988" lon="6.33497">
        <ele>560.7</ele>
        <time>2024-01-29T12:43:50Z</time>
      </trkpt>
      <trkpt lat="46.16991" lon="6.33488">
        <ele>560.56</ele>
        <time>2024-01-29T12:43:51Z</time>
      </trkpt>
      <trkpt lat="46.17009" lon="6.33432">
        <ele>559.8</ele>
        <time>2024-01-29T12:43:57Z</time>
      </trkpt>
      <trkpt lat="46.17028" lon="6.33388">
        <ele>558.5</ele>
        <time>2024-01-29T12:44:02Z</time>
      </trkpt>
      <trkpt lat="46.16998" lon="6.33348">
        <ele>556.59</ele>
        <time>2024-01-29T12:44:08Z</time>
      </trkpt>
      <trkpt lat="46.16978" lon="6.33324">
        <ele>555.94</ele>
        <time>2024-01-29T12:44:11Z</time>
      </trkpt>
      <trkpt lat="46.16962" lon="6.33309">
        <ele>555.19</ele>
        <time>2024-01-29T12:44:13Z</time>
      </trkpt>
      <trkpt lat="46.16959" lon="6.33307">
        <ele>555.06</ele>
        <time>2024-01-29T12:44:14Z</time>
      </trkpt>
      <trkpt lat="46.1695" lon="6.33299">
        <ele>554.69</ele>
        <time>2024-01-29T12:44:15Z</time>
      </trkpt>
      <trkpt lat="46.16916" lon="6.33277">
        <ele>552.92</ele>
        <time>2024-01-29T12:44:19Z</time>
      </trkpt>
      <trkpt lat="46.16905" lon="6.33271">
        <ele>552</ele>
        <time>2024-01-29T12:44:21Z</time>
      </trkpt>
      <trkpt lat="46.16904" lon="6.3327">
        <ele>552</ele>
        <time>2024-01-29T12:44:21Z</time>
      </trkpt>
      <trkpt lat="46.169" lon="6.33267">
        <ele>551.65</ele>
        <time>2024-01-29T12:44:21Z</time>
      </trkpt>
      <trkpt lat="46.16894" lon="6.33264">
        <ele>551.4</ele>
        <time>2024-01-29T12:44:22Z</time>
      </trkpt>
      <trkpt lat="46.1688" lon="6.33255">
        <ele>550.38</ele>
        <time>2024-01-29T12:44:24Z</time>
      </trkpt>
      <trkpt lat="46.16857" lon="6.33237">
        <ele>548.17</ele>
        <time>2024-01-29T12:44:27Z</time>
      </trkpt>
      <trkpt lat="46.16839" lon="6.33212">
        <ele>546.07</ele>
        <time>2024-01-29T12:44:30Z</time>
      </trkpt>
      <trkpt lat="46.16827" lon="6.33179">
        <ele>543.54</ele>
        <time>2024-01-29T12:44:33Z</time>
      </trkpt>
      <trkpt lat="46.1682" lon="6.33151">
        <ele>541.41</ele>
        <time>2024-01-29T12:44:35Z</time>
      </trkpt>
      <trkpt lat="46.16813" lon="6.33126">
        <ele>539.86</ele>
        <time>2024-01-29T12:44:37Z</time>
      </trkpt>
      <trkpt lat="46.16796" lon="6.33081">
        <ele>536.94</ele>
        <time>2024-01-29T12:44:41Z</time>
      </trkpt>
      <trkpt lat="46.16774" lon="6.33036">
        <ele>535.13</ele>
        <time>2024-01-29T12:44:46Z</time>
      </trkpt>
      <trkpt lat="46.16769" lon="6.33016">
        <ele>534.69</ele>
        <time>2024-01-29T12:44:48Z</time>
      </trkpt>
      <trkpt lat="46.16766" lon="6.32991">
        <ele>534.66</ele>
        <time>2024-01-29T12:44:50Z</time>
      </trkpt>
      <trkpt lat="46.16766" lon="6.32963">
        <ele>534.7</ele>
        <time>2024-01-29T12:44:52Z</time>
      </trkpt>
      <trkpt lat="46.16772" lon="6.32939">
        <ele>534.55</ele>
        <time>2024-01-29T12:44:54Z</time>
      </trkpt>
      <trkpt lat="46.16757" lon="6.32924">
        <ele>535.33</ele>
        <time>2024-01-29T12:44:57Z</time>
      </trkpt>
      <trkpt lat="46.16752" lon="6.32915">
        <ele>535.72</ele>
        <time>2024-01-29T12:44:58Z</time>
      </trkpt>
      <trkpt lat="46.16741" lon="6.32886">
        <ele>537.2</ele>
        <time>2024-01-29T12:45:01Z</time>
      </trkpt>
      <trkpt lat="46.16739" lon="6.3287">
        <ele>538.69</ele>
        <time>2024-01-29T12:45:02Z</time>
      </trkpt>
      <trkpt lat="46.16745" lon="6.32825">
        <ele>540.95</ele>
        <time>2024-01-29T12:45:07Z</time>
      </trkpt>
      <trkpt lat="46.16748" lon="6.32818">
        <ele>541.43</ele>
        <time>2024-01-29T12:45:07Z</time>
      </trkpt>
      <trkpt lat="46.16756" lon="6.32809">
        <ele>542.09</ele>
        <time>2024-01-29T12:45:09Z</time>
      </trkpt>
      <trkpt lat="46.16763" lon="6.32803">
        <ele>542.64</ele>
        <time>2024-01-29T12:45:10Z</time>
      </trkpt>
      <trkpt lat="46.16765" lon="6.32801">
        <ele>542.7</ele>
        <time>2024-01-29T12:45:10Z</time>
      </trkpt>
      <trkpt lat="46.1677" lon="6.32789">
        <ele>543.27</ele>
        <time>2024-01-29T12:45:11Z</time>
      </trkpt>
      <trkpt lat="46.16773" lon="6.32777">
        <ele>543.66</ele>
        <time>2024-01-29T12:45:13Z</time>
      </trkpt>
      <trkpt lat="46.16775" lon="6.32764">
        <ele>543.76</ele>
        <time>2024-01-29T12:45:14Z</time>
      </trkpt>
      <trkpt lat="46.16776" lon="6.32752">
        <ele>543.61</ele>
        <time>2024-01-29T12:45:15Z</time>
      </trkpt>
      <trkpt lat="46.16776" lon="6.32752">
        <ele>543.61</ele>
        <time>2024-01-29T12:45:15Z</time>
      </trkpt>
      <trkpt lat="46.16776" lon="6.32747">
        <ele>543.56</ele>
        <time>2024-01-29T12:45:15Z</time>
      </trkpt>
      <trkpt lat="46.16776" lon="6.32728">
        <ele>543.26</ele>
        <time>2024-01-29T12:45:17Z</time>
      </trkpt>
      <trkpt lat="46.16775" lon="6.32718">
        <ele>543.07</ele>
        <time>2024-01-29T12:45:18Z</time>
      </trkpt>
      <trkpt lat="46.16775" lon="6.32705">
        <ele>542.95</ele>
        <time>2024-01-29T12:45:19Z</time>
      </trkpt>
      <trkpt lat="46.16773" lon="6.32679">
        <ele>542.62</ele>
        <time>2024-01-29T12:45:22Z</time>
      </trkpt>
      <trkpt lat="46.16772" lon="6.32668">
        <ele>542.37</ele>
        <time>2024-01-29T12:45:23Z</time>
      </trkpt>
      <trkpt lat="46.16771" lon="6.32658">
        <ele>542.09</ele>
        <time>2024-01-29T12:45:23Z</time>
      </trkpt>
      <trkpt lat="46.16769" lon="6.32647">
        <ele>541.74</ele>
        <time>2024-01-29T12:45:25Z</time>
      </trkpt>
      <trkpt lat="46.16767" lon="6.32631">
        <ele>541.34</ele>
        <time>2024-01-29T12:45:26Z</time>
      </trkpt>
      <trkpt lat="46.16767" lon="6.32626">
        <ele>541.27</ele>
        <time>2024-01-29T12:45:27Z</time>
      </trkpt>
      <trkpt lat="46.16764" lon="6.32607">
        <ele>540.89</ele>
        <time>2024-01-29T12:45:29Z</time>
      </trkpt>
      <trkpt lat="46.16763" lon="6.32599">
        <ele>540.7</ele>
        <time>2024-01-29T12:45:30Z</time>
      </trkpt>
      <trkpt lat="46.16762" lon="6.32591">
        <ele>540.38</ele>
        <time>2024-01-29T12:45:30Z</time>
      </trkpt>
      <trkpt lat="46.1676" lon="6.32579">
        <ele>540.01</ele>
        <time>2024-01-29T12:45:32Z</time>
      </trkpt>
      <trkpt lat="46.16759" lon="6.3257">
        <ele>539.79</ele>
        <time>2024-01-29T12:45:32Z</time>
      </trkpt>
      <trkpt lat="46.16758" lon="6.32566">
        <ele>539.68</ele>
        <time>2024-01-29T12:45:33Z</time>
      </trkpt>
      <trkpt lat="46.16757" lon="6.32558">
        <ele>539.46</ele>
        <time>2024-01-29T12:45:33Z</time>
      </trkpt>
      <trkpt lat="46.16757" lon="6.32558">
        <ele>539.46</ele>
        <time>2024-01-29T12:45:33Z</time>
      </trkpt>
      <trkpt lat="46.16756" lon="6.32554">
        <ele>539.31</ele>
        <time>2024-01-29T12:45:34Z</time>
      </trkpt>
      <trkpt lat="46.16751" lon="6.32523">
        <ele>538.63</ele>
        <time>2024-01-29T12:45:37Z</time>
      </trkpt>
      <trkpt lat="46.16739" lon="6.32453">
        <ele>536.47</ele>
        <time>2024-01-29T12:45:43Z</time>
      </trkpt>
      <trkpt lat="46.16738" lon="6.32396">
        <ele>533.39</ele>
        <time>2024-01-29T12:45:49Z</time>
      </trkpt>
      <trkpt lat="46.16734" lon="6.32344">
        <ele>530.02</ele>
        <time>2024-01-29T12:45:54Z</time>
      </trkpt>
      <trkpt lat="46.16736" lon="6.32337">
        <ele>529.57</ele>
        <time>2024-01-29T12:45:55Z</time>
      </trkpt>
      <trkpt lat="46.16743" lon="6.32334">
        <ele>528.29</ele>
        <time>2024-01-29T12:45:56Z</time>
      </trkpt>
      <trkpt lat="46.1676" lon="6.32334">
        <ele>526.53</ele>
        <time>2024-01-29T12:45:58Z</time>
      </trkpt>
      <trkpt lat="46.16771" lon="6.32372">
        <ele>522.58</ele>
        <time>2024-01-29T12:46:04Z</time>
      </trkpt>
      <trkpt lat="46.16777" lon="6.3237">
        <ele>521.37</ele>
        <time>2024-01-29T12:46:05Z</time>
      </trkpt>
      <trkpt lat="46.16779" lon="6.32335">
        <ele>515.71</ele>
        <time>2024-01-29T12:46:10Z</time>
      </trkpt>
      <trkpt lat="46.16779" lon="6.3228">
        <ele>506.85</ele>
        <time>2024-01-29T12:46:17Z</time>
      </trkpt>
      <trkpt lat="46.16782" lon="6.32271">
        <ele>505.79</ele>
        <time>2024-01-29T12:46:18Z</time>
      </trkpt>
      <trkpt lat="46.16779" lon="6.32265">
        <ele>505.4</ele>
        <time>2024-01-29T12:46:19Z</time>
      </trkpt>
      <trkpt lat="46.1677" lon="6.32247">
        <ele>503.31</ele>
        <time>2024-01-29T12:46:21Z</time>
      </trkpt>
      <trkpt lat="46.16736" lon="6.32217">
        <ele>499.01</ele>
        <time>2024-01-29T12:46:27Z</time>
      </trkpt>
      <trkpt lat="46.16729" lon="6.3221">
        <ele>498.22</ele>
        <time>2024-01-29T12:46:29Z</time>
      </trkpt>
      <trkpt lat="46.16714" lon="6.32194">
        <ele>497.45</ele>
        <time>2024-01-29T12:46:31Z</time>
      </trkpt>
      <trkpt lat="46.16715" lon="6.32189">
        <ele>497.36</ele>
        <time>2024-01-29T12:46:32Z</time>
      </trkpt>
      <trkpt lat="46.16716" lon="6.32187">
        <ele>497.36</ele>
        <time>2024-01-29T12:46:32Z</time>
      </trkpt>
      <trkpt lat="46.16716" lon="6.32184">
        <ele>497.27</ele>
        <time>2024-01-29T12:46:33Z</time>
      </trkpt>
      <trkpt lat="46.16717" lon="6.3218">
        <ele>497.18</ele>
        <time>2024-01-29T12:46:33Z</time>
      </trkpt>
      <trkpt lat="46.16717" lon="6.32177">
        <ele>497.11</ele>
        <time>2024-01-29T12:46:33Z</time>
      </trkpt>
      <trkpt lat="46.16718" lon="6.32173">
        <ele>497.03</ele>
        <time>2024-01-29T12:46:34Z</time>
      </trkpt>
      <trkpt lat="46.1672" lon="6.32162">
        <ele>496.87</ele>
        <time>2024-01-29T12:46:35Z</time>
      </trkpt>
      <trkpt lat="46.16707" lon="6.32155">
        <ele>496.57</ele>
        <time>2024-01-29T12:46:37Z</time>
      </trkpt>
      <trkpt lat="46.16698" lon="6.32151">
        <ele>496.38</ele>
        <time>2024-01-29T12:46:38Z</time>
      </trkpt>
      <trkpt lat="46.16689" lon="6.32146">
        <ele>496.23</ele>
        <time>2024-01-29T12:46:40Z</time>
      </trkpt>
      <trkpt lat="46.16687" lon="6.32145">
        <ele>496.23</ele>
        <time>2024-01-29T12:46:40Z</time>
      </trkpt>
      <trkpt lat="46.1667" lon="6.32137">
        <ele>495.92</ele>
        <time>2024-01-29T12:46:42Z</time>
      </trkpt>
      <trkpt lat="46.16665" lon="6.32134">
        <ele>496.16</ele>
        <time>2024-01-29T12:46:43Z</time>
      </trkpt>
      <trkpt lat="46.16653" lon="6.32129">
        <ele>496.43</ele>
        <time>2024-01-29T12:46:45Z</time>
      </trkpt>
      <trkpt lat="46.16649" lon="6.32127">
        <ele>496.56</ele>
        <time>2024-01-29T12:46:46Z</time>
      </trkpt>
      <trkpt lat="46.16636" lon="6.3212">
        <ele>496.93</ele>
        <time>2024-01-29T12:46:48Z</time>
      </trkpt>
      <trkpt lat="46.16608" lon="6.32104">
        <ele>496.55</ele>
        <time>2024-01-29T12:46:52Z</time>
      </trkpt>
      <trkpt lat="46.16573" lon="6.32084">
        <ele>498.74</ele>
        <time>2024-01-29T12:46:58Z</time>
      </trkpt>
      <trkpt lat="46.16565" lon="6.32081">
        <ele>500.08</ele>
        <time>2024-01-29T12:46:59Z</time>
      </trkpt>
      <trkpt lat="46.16566" lon="6.3207">
        <ele>500.3</ele>
        <time>2024-01-29T12:47:00Z</time>
      </trkpt>
      <trkpt lat="46.16601" lon="6.32043">
        <ele>494.79</ele>
        <time>2024-01-29T12:47:07Z</time>
      </trkpt>
      <trkpt lat="46.16653" lon="6.31977">
        <ele>490.89</ele>
        <time>2024-01-29T12:47:18Z</time>
      </trkpt>
      <trkpt lat="46.16717" lon="6.31905">
        <ele>489.49</ele>
        <time>2024-01-29T12:47:32Z</time>
      </trkpt>
      <trkpt lat="46.16759" lon="6.31833">
        <ele>488.61</ele>
        <time>2024-01-29T12:47:46Z</time>
      </trkpt>
      <trkpt lat="46.16764" lon="6.31818">
        <ele>488.46</ele>
        <time>2024-01-29T12:47:48Z</time>
      </trkpt>
      <trkpt lat="46.16764" lon="6.31803">
        <ele>487.92</ele>
        <time>2024-01-29T12:47:51Z</time>
      </trkpt>
      <trkpt lat="46.16759" lon="6.31788">
        <ele>487.83</ele>
        <time>2024-01-29T12:47:55Z</time>
      </trkpt>
      <trkpt lat="46.16759" lon="6.31779">
        <ele>487.65</ele>
        <time>2024-01-29T12:47:56Z</time>
      </trkpt>
      <trkpt lat="46.16773" lon="6.31752">
        <ele>487.47</ele>
        <time>2024-01-29T12:48:04Z</time>
      </trkpt>
      <trkpt lat="46.16775" lon="6.31738">
        <ele>487.52</ele>
        <time>2024-01-29T12:48:07Z</time>
      </trkpt>
      <trkpt lat="46.16753" lon="6.31678">
        <ele>486.86</ele>
        <time>2024-01-29T12:48:23Z</time>
      </trkpt>
      <trkpt lat="46.16745" lon="6.31664">
        <ele>486.69</ele>
        <time>2024-01-29T12:48:27Z</time>
      </trkpt>
      <trkpt lat="46.16736" lon="6.31662">
        <ele>486.44</ele>
        <time>2024-01-29T12:48:30Z</time>
      </trkpt>
      <trkpt lat="46.16729" lon="6.31657">
        <ele>486.29</ele>
        <time>2024-01-29T12:48:34Z</time>
      </trkpt>
      <trkpt lat="46.16705" lon="6.31645">
        <ele>485.98</ele>
        <time>2024-01-29T12:48:45Z</time>
      </trkpt>
      <trkpt lat="46.16696" lon="6.31636">
        <ele>485.67</ele>
        <time>2024-01-29T12:48:50Z</time>
      </trkpt>
      <trkpt lat="46.16666" lon="6.31595">
        <ele>485.1</ele>
        <time>2024-01-29T12:49:09Z</time>
      </trkpt>
      <trkpt lat="46.16655" lon="6.31575">
        <ele>484.86</ele>
        <time>2024-01-29T12:49:18Z</time>
      </trkpt>
      <trkpt lat="46.16644" lon="6.31547">
        <ele>484.76</ele>
        <time>2024-01-29T12:49:28Z</time>
      </trkpt>
      <trkpt lat="46.16644" lon="6.3154">
        <ele>484.61</ele>
        <time>2024-01-29T12:49:31Z</time>
      </trkpt>
      <trkpt lat="46.16647" lon="6.31531">
        <ele>484.64</ele>
        <time>2024-01-29T12:49:35Z</time>
      </trkpt>
      <trkpt lat="46.16647" lon="6.31513">
        <ele>484.46</ele>
        <time>2024-01-29T12:49:41Z</time>
      </trkpt>
      <trkpt lat="46.16636" lon="6.31497">
        <ele>484.18</ele>
        <time>2024-01-29T12:49:49Z</time>
      </trkpt>
      <trkpt lat="46.16628" lon="6.31465">
        <ele>483.78</ele>
        <time>2024-01-29T12:50:01Z</time>
      </trkpt>
      <trkpt lat="46.16628" lon="6.3145">
        <ele>483.7</ele>
        <time>2024-01-29T12:50:06Z</time>
      </trkpt>
      <trkpt lat="46.16625" lon="6.31442">
        <ele>485.07</ele>
        <time>2024-01-29T12:50:09Z</time>
      </trkpt>
      <trkpt lat="46.16623" lon="6.31419">
        <ele>487.94</ele>
        <time>2024-01-29T12:50:16Z</time>
      </trkpt>
      <trkpt lat="46.16619" lon="6.31406">
        <ele>489.74</ele>
        <time>2024-01-29T12:50:20Z</time>
      </trkpt>
      <trkpt lat="46.16608" lon="6.3139">
        <ele>494.67</ele>
        <time>2024-01-29T12:50:27Z</time>
      </trkpt>
      <trkpt lat="46.16594" lon="6.3138">
        <ele>499.75</ele>
        <time>2024-01-29T12:50:32Z</time>
      </trkpt>
      <trkpt lat="46.16584" lon="6.31355">
        <ele>503.94</ele>
        <time>2024-01-29T12:50:39Z</time>
      </trkpt>
      <trkpt lat="46.16579" lon="6.31331">
        <ele>508.53</ele>
        <time>2024-01-29T12:50:45Z</time>
      </trkpt>
      <trkpt lat="46.16573" lon="6.31246">
        <ele>516.83</ele>
        <time>2024-01-29T12:51:03Z</time>
      </trkpt>
      <trkpt lat="46.1658" lon="6.31202">
        <ele>516.43</ele>
        <time>2024-01-29T12:51:09Z</time>
      </trkpt>
      <trkpt lat="46.16591" lon="6.31165">
        <ele>516.68</ele>
        <time>2024-01-29T12:51:13Z</time>
      </trkpt>
      <trkpt lat="46.16633" lon="6.31085">
        <ele>517.04</ele>
        <time>2024-01-29T12:51:23Z</time>
      </trkpt>
      <trkpt lat="46.16668" lon="6.31005">
        <ele>516.92</ele>
        <time>2024-01-29T12:51:33Z</time>
      </trkpt>
      <trkpt lat="46.16702" lon="6.30961">
        <ele>516.03</ele>
        <time>2024-01-29T12:51:40Z</time>
      </trkpt>
      <trkpt lat="46.16724" lon="6.30916">
        <ele>516.07</ele>
        <time>2024-01-29T12:51:46Z</time>
      </trkpt>
      <trkpt lat="46.1673" lon="6.30902">
        <ele>516.38</ele>
        <time>2024-01-29T12:51:48Z</time>
      </trkpt>
      <trkpt lat="46.16731" lon="6.30895">
        <ele>516.4</ele>
        <time>2024-01-29T12:51:49Z</time>
      </trkpt>
      <trkpt lat="46.16721" lon="6.30881">
        <ele>516.94</ele>
        <time>2024-01-29T12:51:52Z</time>
      </trkpt>
      <trkpt lat="46.16714" lon="6.30872">
        <ele>517.15</ele>
        <time>2024-01-29T12:51:54Z</time>
      </trkpt>
      <trkpt lat="46.1663" lon="6.30751">
        <ele>518.27</ele>
        <time>2024-01-29T12:52:18Z</time>
      </trkpt>
      <trkpt lat="46.16588" lon="6.30689">
        <ele>519.33</ele>
        <time>2024-01-29T12:52:30Z</time>
      </trkpt>
      <trkpt lat="46.16608" lon="6.30657">
        <ele>519.11</ele>
        <time>2024-01-29T12:52:36Z</time>
      </trkpt>
      <trkpt lat="46.16622" lon="6.30617">
        <ele>518.52</ele>
        <time>2024-01-29T12:52:43Z</time>
      </trkpt>
      <trkpt lat="46.16638" lon="6.30563">
        <ele>517.13</ele>
        <time>2024-01-29T12:52:51Z</time>
      </trkpt>
      <trkpt lat="46.16635" lon="6.30541">
        <ele>516.28</ele>
        <time>2024-01-29T12:52:54Z</time>
      </trkpt>
      <trkpt lat="46.16629" lon="6.30525">
        <ele>515.22</ele>
        <time>2024-01-29T12:52:56Z</time>
      </trkpt>
      <trkpt lat="46.16615" lon="6.30507">
        <ele>513.8</ele>
        <time>2024-01-29T12:52:59Z</time>
      </trkpt>
      <trkpt lat="46.16592" lon="6.30487">
        <ele>511.78</ele>
        <time>2024-01-29T12:53:03Z</time>
      </trkpt>
      <trkpt lat="46.16587" lon="6.30479">
        <ele>510.89</ele>
        <time>2024-01-29T12:53:05Z</time>
      </trkpt>
      <trkpt lat="46.1656" lon="6.30442">
        <ele>508.33</ele>
        <time>2024-01-29T12:53:11Z</time>
      </trkpt>
      <trkpt lat="46.16526" lon="6.3038">
        <ele>505.65</ele>
        <time>2024-01-29T12:53:20Z</time>
      </trkpt>
      <trkpt lat="46.16467" lon="6.30277">
        <ele>502.53</ele>
        <time>2024-01-29T12:53:34Z</time>
      </trkpt>
      <trkpt lat="46.16405" lon="6.30174">
        <ele>500.8</ele>
        <time>2024-01-29T12:53:48Z</time>
      </trkpt>
      <trkpt lat="46.16341" lon="6.30071">
        <ele>498.32</ele>
        <time>2024-01-29T12:54:02Z</time>
      </trkpt>
      <trkpt lat="46.16284" lon="6.29969">
        <ele>496.09</ele>
        <time>2024-01-29T12:54:15Z</time>
      </trkpt>
      <trkpt lat="46.16264" lon="6.29925">
        <ele>495.41</ele>
        <time>2024-01-29T12:54:20Z</time>
      </trkpt>
      <trkpt lat="46.16238" lon="6.29831">
        <ele>494.1</ele>
        <time>2024-01-29T12:54:30Z</time>
      </trkpt>
      <trkpt lat="46.16202" lon="6.29777">
        <ele>492.85</ele>
        <time>2024-01-29T12:54:44Z</time>
      </trkpt>
      <trkpt lat="46.1619" lon="6.29751">
        <ele>492.1</ele>
        <time>2024-01-29T12:54:50Z</time>
      </trkpt>
      <trkpt lat="46.16189" lon="6.29738">
        <ele>492.31</ele>
        <time>2024-01-29T12:54:52Z</time>
      </trkpt>
      <trkpt lat="46.16192" lon="6.29727">
        <ele>492.29</ele>
        <time>2024-01-29T12:54:54Z</time>
      </trkpt>
      <trkpt lat="46.16209" lon="6.29674">
        <ele>493.58</ele>
        <time>2024-01-29T12:55:05Z</time>
      </trkpt>
      <trkpt lat="46.1622" lon="6.29581">
        <ele>492.36</ele>
        <time>2024-01-29T12:55:15Z</time>
      </trkpt>
      <trkpt lat="46.16212" lon="6.29432">
        <ele>491.95</ele>
        <time>2024-01-29T12:55:31Z</time>
      </trkpt>
      <trkpt lat="46.16198" lon="6.29367">
        <ele>490.15</ele>
        <time>2024-01-29T12:55:38Z</time>
      </trkpt>
      <trkpt lat="46.16107" lon="6.29023">
        <ele>481.78</ele>
        <time>2024-01-29T12:56:17Z</time>
      </trkpt>
      <trkpt lat="46.16091" lon="6.28964">
        <ele>481.31</ele>
        <time>2024-01-29T12:56:23Z</time>
      </trkpt>
      <trkpt lat="46.16064" lon="6.28865">
        <ele>481.47</ele>
        <time>2024-01-29T12:56:34Z</time>
      </trkpt>
      <trkpt lat="46.16034" lon="6.28789">
        <ele>481.57</ele>
        <time>2024-01-29T12:56:42Z</time>
      </trkpt>
      <trkpt lat="46.16015" lon="6.28745">
        <ele>480.96</ele>
        <time>2024-01-29T12:56:47Z</time>
      </trkpt>
      <trkpt lat="46.15939" lon="6.28617">
        <ele>474.78</ele>
        <time>2024-01-29T12:57:03Z</time>
      </trkpt>
      <trkpt lat="46.15929" lon="6.28602">
        <ele>474.29</ele>
        <time>2024-01-29T12:57:04Z</time>
      </trkpt>
      <trkpt lat="46.15903" lon="6.28569">
        <ele>473.73</ele>
        <time>2024-01-29T12:57:09Z</time>
      </trkpt>
      <trkpt lat="46.15884" lon="6.28541">
        <ele>473.2</ele>
        <time>2024-01-29T12:57:13Z</time>
      </trkpt>
      <trkpt lat="46.15878" lon="6.28531">
        <ele>472.85</ele>
        <time>2024-01-29T12:57:14Z</time>
      </trkpt>
      <trkpt lat="46.15866" lon="6.28521">
        <ele>473.66</ele>
        <time>2024-01-29T12:57:16Z</time>
      </trkpt>
      <trkpt lat="46.15876" lon="6.2847">
        <ele>474.4</ele>
        <time>2024-01-29T12:57:21Z</time>
      </trkpt>
      <trkpt lat="46.15888" lon="6.28428">
        <ele>475.44</ele>
        <time>2024-01-29T12:57:26Z</time>
      </trkpt>
      <trkpt lat="46.15883" lon="6.28424">
        <ele>475.55</ele>
        <time>2024-01-29T12:57:26Z</time>
      </trkpt>
      <trkpt lat="46.15866" lon="6.28411">
        <ele>474.65</ele>
        <time>2024-01-29T12:57:29Z</time>
      </trkpt>
      <trkpt lat="46.15855" lon="6.28397">
        <ele>474.05</ele>
        <time>2024-01-29T12:57:32Z</time>
      </trkpt>
      <trkpt lat="46.15841" lon="6.28374">
        <ele>473.21</ele>
        <time>2024-01-29T12:57:35Z</time>
      </trkpt>
      <trkpt lat="46.15835" lon="6.28363">
        <ele>473.06</ele>
        <time>2024-01-29T12:57:37Z</time>
      </trkpt>
      <trkpt lat="46.15828" lon="6.28334">
        <ele>473.43</ele>
        <time>2024-01-29T12:57:40Z</time>
      </trkpt>
      <trkpt lat="46.15827" lon="6.28295">
        <ele>474.78</ele>
        <time>2024-01-29T12:57:44Z</time>
      </trkpt>
      <trkpt lat="46.15828" lon="6.2827">
        <ele>475.59</ele>
        <time>2024-01-29T12:57:47Z</time>
      </trkpt>
      <trkpt lat="46.1583" lon="6.28249">
        <ele>476.54</ele>
        <time>2024-01-29T12:57:50Z</time>
      </trkpt>
      <trkpt lat="46.15829" lon="6.28213">
        <ele>477.21</ele>
        <time>2024-01-29T12:57:54Z</time>
      </trkpt>
      <trkpt lat="46.15826" lon="6.28192">
        <ele>477.35</ele>
        <time>2024-01-29T12:57:56Z</time>
      </trkpt>
      <trkpt lat="46.15815" lon="6.28154">
        <ele>477.57</ele>
        <time>2024-01-29T12:58:01Z</time>
      </trkpt>
      <trkpt lat="46.15798" lon="6.28108">
        <ele>477.56</ele>
        <time>2024-01-29T12:58:07Z</time>
      </trkpt>
      <trkpt lat="46.15779" lon="6.2808">
        <ele>477.43</ele>
        <time>2024-01-29T12:58:12Z</time>
      </trkpt>
      <trkpt lat="46.15758" lon="6.28063">
        <ele>477.29</ele>
        <time>2024-01-29T12:58:16Z</time>
      </trkpt>
      <trkpt lat="46.15737" lon="6.2805">
        <ele>477.17</ele>
        <time>2024-01-29T12:58:20Z</time>
      </trkpt>
      <trkpt lat="46.15728" lon="6.28045">
        <ele>476.88</ele>
        <time>2024-01-29T12:58:22Z</time>
      </trkpt>
      <trkpt lat="46.15676" lon="6.28014">
        <ele>477.07</ele>
        <time>2024-01-29T12:58:32Z</time>
      </trkpt>
      <trkpt lat="46.15666" lon="6.28004">
        <ele>477</ele>
        <time>2024-01-29T12:58:35Z</time>
      </trkpt>
      <trkpt lat="46.15659" lon="6.27993">
        <ele>476.99</ele>
        <time>2024-01-29T12:58:37Z</time>
      </trkpt>
      <trkpt lat="46.15654" lon="6.27973">
        <ele>477.08</ele>
        <time>2024-01-29T12:58:39Z</time>
      </trkpt>
      <trkpt lat="46.15656" lon="6.27957">
        <ele>477.2</ele>
        <time>2024-01-29T12:58:42Z</time>
      </trkpt>
      <trkpt lat="46.1566" lon="6.27943">
        <ele>477.15</ele>
        <time>2024-01-29T12:58:44Z</time>
      </trkpt>
      <trkpt lat="46.15732" lon="6.27796">
        <ele>477.77</ele>
        <time>2024-01-29T12:59:08Z</time>
      </trkpt>
      <trkpt lat="46.15707" lon="6.27762">
        <ele>477.46</ele>
        <time>2024-01-29T12:59:14Z</time>
      </trkpt>
      <trkpt lat="46.15667" lon="6.27716">
        <ele>477.51</ele>
        <time>2024-01-29T12:59:23Z</time>
      </trkpt>
      <trkpt lat="46.1564" lon="6.27685">
        <ele>477.57</ele>
        <time>2024-01-29T12:59:28Z</time>
      </trkpt>
      <trkpt lat="46.15607" lon="6.2765">
        <ele>477.46</ele>
        <time>2024-01-29T12:59:35Z</time>
      </trkpt>
      <trkpt lat="46.1559" lon="6.27632">
        <ele>477.27</ele>
        <time>2024-01-29T12:59:38Z</time>
      </trkpt>
      <trkpt lat="46.15579" lon="6.27619">
        <ele>476.79</ele>
        <time>2024-01-29T12:59:41Z</time>
      </trkpt>
      <trkpt lat="46.15564" lon="6.27602">
        <ele>476.57</ele>
        <time>2024-01-29T12:59:43Z</time>
      </trkpt>
      <trkpt lat="46.15556" lon="6.27574">
        <ele>476.01</ele>
        <time>2024-01-29T12:59:47Z</time>
      </trkpt>
      <trkpt lat="46.15551" lon="6.27541">
        <ele>475.19</ele>
        <time>2024-01-29T12:59:50Z</time>
      </trkpt>
      <trkpt lat="46.1555" lon="6.27536">
        <ele>475.08</ele>
        <time>2024-01-29T12:59:51Z</time>
      </trkpt>
      <trkpt lat="46.15541" lon="6.27483">
        <ele>474.4</ele>
        <time>2024-01-29T12:59:57Z</time>
      </trkpt>
      <trkpt lat="46.1554" lon="6.27475">
        <ele>474.33</ele>
        <time>2024-01-29T12:59:58Z</time>
      </trkpt>
      <trkpt lat="46.15535" lon="6.27442">
        <ele>474.72</ele>
        <time>2024-01-29T13:00:01Z</time>
      </trkpt>
      <trkpt lat="46.15529" lon="6.27413">
        <ele>475.2</ele>
        <time>2024-01-29T13:00:04Z</time>
      </trkpt>
      <trkpt lat="46.15522" lon="6.27383">
        <ele>475.66</ele>
        <time>2024-01-29T13:00:07Z</time>
      </trkpt>
      <trkpt lat="46.15501" lon="6.27325">
        <ele>476.02</ele>
        <time>2024-01-29T13:00:13Z</time>
      </trkpt>
      <trkpt lat="46.15497" lon="6.27317">
        <ele>475.96</ele>
        <time>2024-01-29T13:00:14Z</time>
      </trkpt>
      <trkpt lat="46.15483" lon="6.27286">
        <ele>475.79</ele>
        <time>2024-01-29T13:00:17Z</time>
      </trkpt>
      <trkpt lat="46.15483" lon="6.27279">
        <ele>475.7</ele>
        <time>2024-01-29T13:00:17Z</time>
      </trkpt>
      <trkpt lat="46.15467" lon="6.27265">
        <ele>472.57</ele>
        <time>2024-01-29T13:00:20Z</time>
      </trkpt>
      <trkpt lat="46.15446" lon="6.27255">
        <ele>468.64</ele>
        <time>2024-01-29T13:00:22Z</time>
      </trkpt>
      <trkpt lat="46.15374" lon="6.27227">
        <ele>456.05</ele>
        <time>2024-01-29T13:00:31Z</time>
      </trkpt>
      <trkpt lat="46.15366" lon="6.27222">
        <ele>454.17</ele>
        <time>2024-01-29T13:00:32Z</time>
      </trkpt>
      <trkpt lat="46.15349" lon="6.27219">
        <ele>450.69</ele>
        <time>2024-01-29T13:00:34Z</time>
      </trkpt>
      <trkpt lat="46.15313" lon="6.27213">
        <ele>444.85</ele>
        <time>2024-01-29T13:00:38Z</time>
      </trkpt>
      <trkpt lat="46.15299" lon="6.2721">
        <ele>442.61</ele>
        <time>2024-01-29T13:00:40Z</time>
      </trkpt>
      <trkpt lat="46.15292" lon="6.27204">
        <ele>441.68</ele>
        <time>2024-01-29T13:00:41Z</time>
      </trkpt>
      <trkpt lat="46.15294" lon="6.27183">
        <ele>438.9</ele>
        <time>2024-01-29T13:00:42Z</time>
      </trkpt>
      <trkpt lat="46.15299" lon="6.27146">
        <ele>435.29</ele>
        <time>2024-01-29T13:00:46Z</time>
      </trkpt>
      <trkpt lat="46.15295" lon="6.27144">
        <ele>434.84</ele>
        <time>2024-01-29T13:00:46Z</time>
      </trkpt>
      <trkpt lat="46.15282" lon="6.27137">
        <ele>433.14</ele>
        <time>2024-01-29T13:00:48Z</time>
      </trkpt>
      <trkpt lat="46.1524" lon="6.27114">
        <ele>428.42</ele>
        <time>2024-01-29T13:00:53Z</time>
      </trkpt>
      <trkpt lat="46.15198" lon="6.27089">
        <ele>424.83</ele>
        <time>2024-01-29T13:00:59Z</time>
      </trkpt>
      <trkpt lat="46.15194" lon="6.27087">
        <ele>424.39</ele>
        <time>2024-01-29T13:01:00Z</time>
      </trkpt>
      <trkpt lat="46.15131" lon="6.2705">
        <ele>421.95</ele>
        <time>2024-01-29T13:01:09Z</time>
      </trkpt>
      <trkpt lat="46.1509" lon="6.27012">
        <ele>422.98</ele>
        <time>2024-01-29T13:01:16Z</time>
      </trkpt>
      <trkpt lat="46.15078" lon="6.27013">
        <ele>423.04</ele>
        <time>2024-01-29T13:01:18Z</time>
      </trkpt>
      <trkpt lat="46.15066" lon="6.2703">
        <ele>419.65</ele>
        <time>2024-01-29T13:01:20Z</time>
      </trkpt>
      <trkpt lat="46.1502" lon="6.27117">
        <ele>420.2</ele>
        <time>2024-01-29T13:01:33Z</time>
      </trkpt>
      <trkpt lat="46.15013" lon="6.27127">
        <ele>421.64</ele>
        <time>2024-01-29T13:01:35Z</time>
      </trkpt>
      <trkpt lat="46.15" lon="6.27136">
        <ele>421.24</ele>
        <time>2024-01-29T13:01:37Z</time>
      </trkpt>
      <trkpt lat="46.1498" lon="6.27141">
        <ele>420.27</ele>
        <time>2024-01-29T13:01:41Z</time>
      </trkpt>
      <trkpt lat="46.14959" lon="6.27138">
        <ele>419.18</ele>
        <time>2024-01-29T13:01:45Z</time>
      </trkpt>
      <trkpt lat="46.14955" lon="6.27136">
        <ele>419.04</ele>
        <time>2024-01-29T13:01:46Z</time>
      </trkpt>
      <trkpt lat="46.14818" lon="6.27074">
        <ele>418.67</ele>
        <time>2024-01-29T13:02:18Z</time>
      </trkpt>
      <trkpt lat="46.14764" lon="6.27045">
        <ele>418.89</ele>
        <time>2024-01-29T13:02:32Z</time>
      </trkpt>
      <trkpt lat="46.14724" lon="6.27012">
        <ele>419.22</ele>
        <time>2024-01-29T13:02:43Z</time>
      </trkpt>
      <trkpt lat="46.14689" lon="6.26974">
        <ele>419.56</ele>
        <time>2024-01-29T13:02:52Z</time>
      </trkpt>
      <trkpt lat="46.14645" lon="6.26915">
        <ele>420.62</ele>
        <time>2024-01-29T13:03:04Z</time>
      </trkpt>
      <trkpt lat="46.14614" lon="6.26876">
        <ele>422.84</ele>
        <time>2024-01-29T13:03:12Z</time>
      </trkpt>
      <trkpt lat="46.14605" lon="6.26868">
        <ele>423.32</ele>
        <time>2024-01-29T13:03:14Z</time>
      </trkpt>
      <trkpt lat="46.14578" lon="6.26845">
        <ele>425.14</ele>
        <time>2024-01-29T13:03:19Z</time>
      </trkpt>
      <trkpt lat="46.14555" lon="6.26822">
        <ele>426.33</ele>
        <time>2024-01-29T13:03:24Z</time>
      </trkpt>
      <trkpt lat="46.14554" lon="6.2682">
        <ele>426.34</ele>
        <time>2024-01-29T13:03:24Z</time>
      </trkpt>
      <trkpt lat="46.14553" lon="6.26818">
        <ele>426.47</ele>
        <time>2024-01-29T13:03:24Z</time>
      </trkpt>
      <trkpt lat="46.14549" lon="6.26804">
        <ele>426.34</ele>
        <time>2024-01-29T13:03:26Z</time>
      </trkpt>
      <trkpt lat="46.14547" lon="6.26782">
        <ele>425.22</ele>
        <time>2024-01-29T13:03:28Z</time>
      </trkpt>
      <trkpt lat="46.14548" lon="6.26766">
        <ele>423.09</ele>
        <time>2024-01-29T13:03:30Z</time>
      </trkpt>
      <trkpt lat="46.14549" lon="6.26716">
        <ele>424.55</ele>
        <time>2024-01-29T13:03:36Z</time>
      </trkpt>
      <trkpt lat="46.14549" lon="6.267">
        <ele>424.3</ele>
        <time>2024-01-29T13:03:37Z</time>
      </trkpt>
      <trkpt lat="46.14551" lon="6.26578">
        <ele>423.52</ele>
        <time>2024-01-29T13:03:52Z</time>
      </trkpt>
      <trkpt lat="46.14551" lon="6.26469">
        <ele>424.09</ele>
        <time>2024-01-29T13:04:09Z</time>
      </trkpt>
      <trkpt lat="46.14556" lon="6.2642">
        <ele>424.8</ele>
        <time>2024-01-29T13:04:18Z</time>
      </trkpt>
      <trkpt lat="46.14565" lon="6.2639">
        <ele>425.54</ele>
        <time>2024-01-29T13:04:24Z</time>
      </trkpt>
      <trkpt lat="46.1458" lon="6.26359">
        <ele>426.34</ele>
        <time>2024-01-29T13:04:32Z</time>
      </trkpt>
      <trkpt lat="46.14605" lon="6.26319">
        <ele>427.6</ele>
        <time>2024-01-29T13:04:42Z</time>
      </trkpt>
      <trkpt lat="46.14632" lon="6.26284">
        <ele>428.67</ele>
        <time>2024-01-29T13:04:52Z</time>
      </trkpt>
      <trkpt lat="46.14671" lon="6.26243">
        <ele>430.47</ele>
        <time>2024-01-29T13:05:06Z</time>
      </trkpt>
      <trkpt lat="46.14697" lon="6.26224">
        <ele>431.8</ele>
        <time>2024-01-29T13:05:15Z</time>
      </trkpt>
      <trkpt lat="46.1475" lon="6.26195">
        <ele>433.91</ele>
        <time>2024-01-29T13:05:32Z</time>
      </trkpt>
      <trkpt lat="46.14771" lon="6.26179">
        <ele>434.89</ele>
        <time>2024-01-29T13:05:39Z</time>
      </trkpt>
      <trkpt lat="46.14786" lon="6.26159">
        <ele>435.73</ele>
        <time>2024-01-29T13:05:45Z</time>
      </trkpt>
      <trkpt lat="46.14804" lon="6.26123">
        <ele>436.85</ele>
        <time>2024-01-29T13:05:54Z</time>
      </trkpt>
      <trkpt lat="46.14819" lon="6.26072">
        <ele>437.4</ele>
        <time>2024-01-29T13:06:04Z</time>
      </trkpt>
      <trkpt lat="46.14893" lon="6.25806">
        <ele>432.02</ele>
        <time>2024-01-29T13:07:00Z</time>
      </trkpt>
      <trkpt lat="46.14923" lon="6.25738">
        <ele>432.77</ele>
        <time>2024-01-29T13:07:17Z</time>
      </trkpt>
      <trkpt lat="46.14975" lon="6.2566">
        <ele>435.14</ele>
        <time>2024-01-29T13:07:40Z</time>
      </trkpt>
      <trkpt lat="46.15028" lon="6.25579">
        <ele>436.74</ele>
        <time>2024-01-29T13:08:00Z</time>
      </trkpt>
      <trkpt lat="46.1503" lon="6.25561">
        <ele>437.02</ele>
        <time>2024-01-29T13:08:04Z</time>
      </trkpt>
      <trkpt lat="46.15061" lon="6.25501">
        <ele>439.26</ele>
        <time>2024-01-29T13:08:14Z</time>
      </trkpt>
      <trkpt lat="46.15073" lon="6.25467">
        <ele>440.57</ele>
        <time>2024-01-29T13:08:20Z</time>
      </trkpt>
      <trkpt lat="46.15085" lon="6.25426">
        <ele>440.77</ele>
        <time>2024-01-29T13:08:27Z</time>
      </trkpt>
      <trkpt lat="46.15116" lon="6.25331">
        <ele>441.66</ele>
        <time>2024-01-29T13:08:39Z</time>
      </trkpt>
      <trkpt lat="46.15131" lon="6.253">
        <ele>442.53</ele>
        <time>2024-01-29T13:08:43Z</time>
      </trkpt>
      <trkpt lat="46.15142" lon="6.25285">
        <ele>442.38</ele>
        <time>2024-01-29T13:08:45Z</time>
      </trkpt>
      <trkpt lat="46.15173" lon="6.25254">
        <ele>442.01</ele>
        <time>2024-01-29T13:08:52Z</time>
      </trkpt>
      <trkpt lat="46.15216" lon="6.25216">
        <ele>442.53</ele>
        <time>2024-01-29T13:09:04Z</time>
      </trkpt>
      <trkpt lat="46.15229" lon="6.25209">
        <ele>442.64</ele>
        <time>2024-01-29T13:09:08Z</time>
      </trkpt>
      <trkpt lat="46.15234" lon="6.25208">
        <ele>442.71</ele>
        <time>2024-01-29T13:09:09Z</time>
      </trkpt>
      <trkpt lat="46.15266" lon="6.25151">
        <ele>443.85</ele>
        <time>2024-01-29T13:09:24Z</time>
      </trkpt>
      <trkpt lat="46.15312" lon="6.2507">
        <ele>445.68</ele>
        <time>2024-01-29T13:09:45Z</time>
      </trkpt>
      <trkpt lat="46.15334" lon="6.25036">
        <ele>446.36</ele>
        <time>2024-01-29T13:09:54Z</time>
      </trkpt>
      <trkpt lat="46.15367" lon="6.24992">
        <ele>447.02</ele>
        <time>2024-01-29T13:10:06Z</time>
      </trkpt>
      <trkpt lat="46.15466" lon="6.24871">
        <ele>447.68</ele>
        <time>2024-01-29T13:10:40Z</time>
      </trkpt>
      <trkpt lat="46.15557" lon="6.24752">
        <ele>449.05</ele>
        <time>2024-01-29T13:11:08Z</time>
      </trkpt>
      <trkpt lat="46.15581" lon="6.24725">
        <ele>449.44</ele>
        <time>2024-01-29T13:11:15Z</time>
      </trkpt>
      <trkpt lat="46.15587" lon="6.24719">
        <ele>449.52</ele>
        <time>2024-01-29T13:11:17Z</time>
      </trkpt>
      <trkpt lat="46.15608" lon="6.24703">
        <ele>449.95</ele>
        <time>2024-01-29T13:11:22Z</time>
      </trkpt>
      <trkpt lat="46.157" lon="6.24653">
        <ele>452.28</ele>
        <time>2024-01-29T13:11:45Z</time>
      </trkpt>
      <trkpt lat="46.15721" lon="6.24637">
        <ele>449.64</ele>
        <time>2024-01-29T13:11:52Z</time>
      </trkpt>
      <trkpt lat="46.15752" lon="6.24598">
        <ele>451.85</ele>
        <time>2024-01-29T13:12:03Z</time>
      </trkpt>
      <trkpt lat="46.15773" lon="6.24553">
        <ele>454.6</ele>
        <time>2024-01-29T13:12:15Z</time>
      </trkpt>
      <trkpt lat="46.15783" lon="6.24522">
        <ele>456.68</ele>
        <time>2024-01-29T13:12:22Z</time>
      </trkpt>
      <trkpt lat="46.15799" lon="6.24448">
        <ele>458.81</ele>
        <time>2024-01-29T13:12:38Z</time>
      </trkpt>
      <trkpt lat="46.15807" lon="6.24424">
        <ele>459.55</ele>
        <time>2024-01-29T13:12:43Z</time>
      </trkpt>
      <trkpt lat="46.15817" lon="6.24404">
        <ele>459.59</ele>
        <time>2024-01-29T13:12:48Z</time>
      </trkpt>
      <trkpt lat="46.15837" lon="6.24378">
        <ele>459.5</ele>
        <time>2024-01-29T13:12:55Z</time>
      </trkpt>
      <trkpt lat="46.15932" lon="6.24302">
        <ele>458.06</ele>
        <time>2024-01-29T13:13:14Z</time>
      </trkpt>
      <trkpt lat="46.15949" lon="6.24295">
        <ele>457.4</ele>
        <time>2024-01-29T13:13:16Z</time>
      </trkpt>
      <trkpt lat="46.15959" lon="6.24293">
        <ele>456.93</ele>
        <time>2024-01-29T13:13:18Z</time>
      </trkpt>
      <trkpt lat="46.15966" lon="6.24295">
        <ele>456.57</ele>
        <time>2024-01-29T13:13:19Z</time>
      </trkpt>
      <trkpt lat="46.15973" lon="6.2429">
        <ele>456.4</ele>
        <time>2024-01-29T13:13:20Z</time>
      </trkpt>
      <trkpt lat="46.15977" lon="6.24281">
        <ele>456.89</ele>
        <time>2024-01-29T13:13:21Z</time>
      </trkpt>
      <trkpt lat="46.15985" lon="6.24273">
        <ele>456.62</ele>
        <time>2024-01-29T13:13:23Z</time>
      </trkpt>
      <trkpt lat="46.16005" lon="6.2426">
        <ele>456.58</ele>
        <time>2024-01-29T13:13:26Z</time>
      </trkpt>
      <trkpt lat="46.16037" lon="6.24246">
        <ele>456.12</ele>
        <time>2024-01-29T13:13:31Z</time>
      </trkpt>
      <trkpt lat="46.16072" lon="6.24221">
        <ele>456.67</ele>
        <time>2024-01-29T13:13:37Z</time>
      </trkpt>
      <trkpt lat="46.16155" lon="6.2415">
        <ele>457.05</ele>
        <time>2024-01-29T13:13:51Z</time>
      </trkpt>
      <trkpt lat="46.16162" lon="6.24143">
        <ele>452.24</ele>
        <time>2024-01-29T13:13:52Z</time>
      </trkpt>
      <trkpt lat="46.16173" lon="6.24126">
        <ele>451.08</ele>
        <time>2024-01-29T13:13:54Z</time>
      </trkpt>
      <trkpt lat="46.16177" lon="6.24111">
        <ele>449.96</ele>
        <time>2024-01-29T13:13:55Z</time>
      </trkpt>
      <trkpt lat="46.1618" lon="6.24084">
        <ele>448.76</ele>
        <time>2024-01-29T13:13:58Z</time>
      </trkpt>
      <trkpt lat="46.1618" lon="6.24069">
        <ele>448.01</ele>
        <time>2024-01-29T13:13:59Z</time>
      </trkpt>
      <trkpt lat="46.16184" lon="6.23976">
        <ele>438.56</ele>
        <time>2024-01-29T13:14:08Z</time>
      </trkpt>
      <trkpt lat="46.16187" lon="6.23953">
        <ele>448.28</ele>
        <time>2024-01-29T13:14:10Z</time>
      </trkpt>
      <trkpt lat="46.16193" lon="6.23942">
        <ele>448.82</ele>
        <time>2024-01-29T13:14:12Z</time>
      </trkpt>
      <trkpt lat="46.16197" lon="6.23937">
        <ele>449.47</ele>
        <time>2024-01-29T13:14:12Z</time>
      </trkpt>
      <trkpt lat="46.16182" lon="6.23905">
        <ele>451.93</ele>
        <time>2024-01-29T13:14:17Z</time>
      </trkpt>
      <trkpt lat="46.16181" lon="6.23902">
        <ele>452.26</ele>
        <time>2024-01-29T13:14:17Z</time>
      </trkpt>
      <trkpt lat="46.16122" lon="6.23775">
        <ele>462.7</ele>
        <time>2024-01-29T13:14:49Z</time>
      </trkpt>
      <trkpt lat="46.16112" lon="6.23749">
        <ele>464.67</ele>
        <time>2024-01-29T13:14:59Z</time>
      </trkpt>
      <trkpt lat="46.1611" lon="6.23733">
        <ele>466.45</ele>
        <time>2024-01-29T13:15:04Z</time>
      </trkpt>
      <trkpt lat="46.16116" lon="6.2371">
        <ele>468.98</ele>
        <time>2024-01-29T13:15:13Z</time>
      </trkpt>
      <trkpt lat="46.16124" lon="6.23702">
        <ele>469.51</ele>
        <time>2024-01-29T13:15:17Z</time>
      </trkpt>
      <trkpt lat="46.16107" lon="6.23637">
        <ele>474.36</ele>
        <time>2024-01-29T13:15:41Z</time>
      </trkpt>
      <trkpt lat="46.161" lon="6.236">
        <ele>476.06</ele>
        <time>2024-01-29T13:15:55Z</time>
      </trkpt>
      <trkpt lat="46.16096" lon="6.23535">
        <ele>477.64</ele>
        <time>2024-01-29T13:16:18Z</time>
      </trkpt>
      <trkpt lat="46.16099" lon="6.23476">
        <ele>479.32</ele>
        <time>2024-01-29T13:16:37Z</time>
      </trkpt>
      <trkpt lat="46.1609" lon="6.2341">
        <ele>480.93</ele>
        <time>2024-01-29T13:16:56Z</time>
      </trkpt>
      <trkpt lat="46.1609" lon="6.23323">
        <ele>481.11</ele>
        <time>2024-01-29T13:17:20Z</time>
      </trkpt>
      <trkpt lat="46.16084" lon="6.23288">
        <ele>480.91</ele>
        <time>2024-01-29T13:17:31Z</time>
      </trkpt>
      <trkpt lat="46.16068" lon="6.2322">
        <ele>483.97</ele>
        <time>2024-01-29T13:17:53Z</time>
      </trkpt>
      <trkpt lat="46.16062" lon="6.2318">
        <ele>486.81</ele>
        <time>2024-01-29T13:18:06Z</time>
      </trkpt>
      <trkpt lat="46.1606" lon="6.23153">
        <ele>488.56</ele>
        <time>2024-01-29T13:18:15Z</time>
      </trkpt>
      <trkpt lat="46.16061" lon="6.23081">
        <ele>494.73</ele>
        <time>2024-01-29T13:18:41Z</time>
      </trkpt>
      <trkpt lat="46.16059" lon="6.23071">
        <ele>495.78</ele>
        <time>2024-01-29T13:18:45Z</time>
      </trkpt>
      <trkpt lat="46.16051" lon="6.23048">
        <ele>498.09</ele>
        <time>2024-01-29T13:18:56Z</time>
      </trkpt>
      <trkpt lat="46.16022" lon="6.22997">
        <ele>503.5</ele>
        <time>2024-01-29T13:19:24Z</time>
      </trkpt>
      <trkpt lat="46.16018" lon="6.22983">
        <ele>504.75</ele>
        <time>2024-01-29T13:19:30Z</time>
      </trkpt>
      <trkpt lat="46.1601" lon="6.22944">
        <ele>507.98</ele>
        <time>2024-01-29T13:19:46Z</time>
      </trkpt>
      <trkpt lat="46.16005" lon="6.22906">
        <ele>511.01</ele>
        <time>2024-01-29T13:20:01Z</time>
      </trkpt>
      <trkpt lat="46.16001" lon="6.22869">
        <ele>513.54</ele>
        <time>2024-01-29T13:20:15Z</time>
      </trkpt>
      <trkpt lat="46.16002" lon="6.2286">
        <ele>514.11</ele>
        <time>2024-01-29T13:20:18Z</time>
      </trkpt>
      <trkpt lat="46.16007" lon="6.22847">
        <ele>514.99</ele>
        <time>2024-01-29T13:20:23Z</time>
      </trkpt>
      <trkpt lat="46.16025" lon="6.22831">
        <ele>516.51</ele>
        <time>2024-01-29T13:20:34Z</time>
      </trkpt>
      <trkpt lat="46.16033" lon="6.22844">
        <ele>516.52</ele>
        <time>2024-01-29T13:20:39Z</time>
      </trkpt>
      <trkpt lat="46.16045" lon="6.22882">
        <ele>519.14</ele>
        <time>2024-01-29T13:20:55Z</time>
      </trkpt>
      <trkpt lat="46.16053" lon="6.22901">
        <ele>521.06</ele>
        <time>2024-01-29T13:21:03Z</time>
      </trkpt>
      <trkpt lat="46.16117" lon="6.23016">
        <ele>535.82</ele>
        <time>2024-01-29T13:21:56Z</time>
      </trkpt>
      <trkpt lat="46.16126" lon="6.2302">
        <ele>536.51</ele>
        <time>2024-01-29T13:22:00Z</time>
      </trkpt>
      <trkpt lat="46.16136" lon="6.22933">
        <ele>539.43</ele>
        <time>2024-01-29T13:22:26Z</time>
      </trkpt>
      <trkpt lat="46.16136" lon="6.22908">
        <ele>540.17</ele>
        <time>2024-01-29T13:22:34Z</time>
      </trkpt>
      <trkpt lat="46.16134" lon="6.22897">
        <ele>540.89</ele>
        <time>2024-01-29T13:22:38Z</time>
      </trkpt>
      <trkpt lat="46.16128" lon="6.22871">
        <ele>541.81</ele>
        <time>2024-01-29T13:22:47Z</time>
      </trkpt>
      <trkpt lat="46.16114" lon="6.22821">
        <ele>543.67</ele>
        <time>2024-01-29T13:23:06Z</time>
      </trkpt>
      <trkpt lat="46.16107" lon="6.22802">
        <ele>544.19</ele>
        <time>2024-01-29T13:23:14Z</time>
      </trkpt>
      <trkpt lat="46.16067" lon="6.2274">
        <ele>547.1</ele>
        <time>2024-01-29T13:23:44Z</time>
      </trkpt>
      <trkpt lat="46.16078" lon="6.22724">
        <ele>547.79</ele>
        <time>2024-01-29T13:23:53Z</time>
      </trkpt>
      <trkpt lat="46.16087" lon="6.22721">
        <ele>548.63</ele>
        <time>2024-01-29T13:23:57Z</time>
      </trkpt>
      <trkpt lat="46.16092" lon="6.22724">
        <ele>548.91</ele>
        <time>2024-01-29T13:24:00Z</time>
      </trkpt>
      <trkpt lat="46.16105" lon="6.22738">
        <ele>549.75</ele>
        <time>2024-01-29T13:24:08Z</time>
      </trkpt>
      <trkpt lat="46.16127" lon="6.22757">
        <ele>551.09</ele>
        <time>2024-01-29T13:24:21Z</time>
      </trkpt>
      <trkpt lat="46.16177" lon="6.22779">
        <ele>554.06</ele>
        <time>2024-01-29T13:24:50Z</time>
      </trkpt>
      <trkpt lat="46.16213" lon="6.22779">
        <ele>555.91</ele>
        <time>2024-01-29T13:25:11Z</time>
      </trkpt>
      <trkpt lat="46.16231" lon="6.22787">
        <ele>557.09</ele>
        <time>2024-01-29T13:25:21Z</time>
      </trkpt>
      <trkpt lat="46.16272" lon="6.22822">
        <ele>560.37</ele>
        <time>2024-01-29T13:25:47Z</time>
      </trkpt>
      <trkpt lat="46.16301" lon="6.22847">
        <ele>562.63</ele>
        <time>2024-01-29T13:26:05Z</time>
      </trkpt>
      <trkpt lat="46.16328" lon="6.22879">
        <ele>564.57</ele>
        <time>2024-01-29T13:26:22Z</time>
      </trkpt>
      <trkpt lat="46.1633" lon="6.22879">
        <ele>564.57</ele>
        <time>2024-01-29T13:26:24Z</time>
      </trkpt>
      <trkpt lat="46.16334" lon="6.22885">
        <ele>564.96</ele>
        <time>2024-01-29T13:26:26Z</time>
      </trkpt>
      <trkpt lat="46.16344" lon="6.22889">
        <ele>565.65</ele>
        <time>2024-01-29T13:26:31Z</time>
      </trkpt>
      <trkpt lat="46.16399" lon="6.22908">
        <ele>569.12</ele>
        <time>2024-01-29T13:26:56Z</time>
      </trkpt>
      <trkpt lat="46.16443" lon="6.22934">
        <ele>571.55</ele>
        <time>2024-01-29T13:27:21Z</time>
      </trkpt>
      <trkpt lat="46.16451" lon="6.22934">
        <ele>572.08</ele>
        <time>2024-01-29T13:27:26Z</time>
      </trkpt>
      <trkpt lat="46.16453" lon="6.22927">
        <ele>572.51</ele>
        <time>2024-01-29T13:27:28Z</time>
      </trkpt>
      <trkpt lat="46.16431" lon="6.2291">
        <ele>575.15</ele>
        <time>2024-01-29T13:27:43Z</time>
      </trkpt>
      <trkpt lat="46.16423" lon="6.22898">
        <ele>577.31</ele>
        <time>2024-01-29T13:27:49Z</time>
      </trkpt>
      <trkpt lat="46.16417" lon="6.22879">
        <ele>580.47</ele>
        <time>2024-01-29T13:27:57Z</time>
      </trkpt>
      <trkpt lat="46.16417" lon="6.2286">
        <ele>582.76</ele>
        <time>2024-01-29T13:28:05Z</time>
      </trkpt>
      <trkpt lat="46.16418" lon="6.2285">
        <ele>584.79</ele>
        <time>2024-01-29T13:28:08Z</time>
      </trkpt>
      <trkpt lat="46.16422" lon="6.22835">
        <ele>588.16</ele>
        <time>2024-01-29T13:28:16Z</time>
      </trkpt>
      <trkpt lat="46.16431" lon="6.22795">
        <ele>595.1</ele>
        <time>2024-01-29T13:28:34Z</time>
      </trkpt>
      <trkpt lat="46.1643" lon="6.22759">
        <ele>600.46</ele>
        <time>2024-01-29T13:28:51Z</time>
      </trkpt>
      <trkpt lat="46.1642" lon="6.22736">
        <ele>603.79</ele>
        <time>2024-01-29T13:29:02Z</time>
      </trkpt>
      <trkpt lat="46.16369" lon="6.22677">
        <ele>608.64</ele>
        <time>2024-01-29T13:29:47Z</time>
      </trkpt>
      <trkpt lat="46.16356" lon="6.22653">
        <ele>610.19</ele>
        <time>2024-01-29T13:30:01Z</time>
      </trkpt>
      <trkpt lat="46.16347" lon="6.22642">
        <ele>610.59</ele>
        <time>2024-01-29T13:30:08Z</time>
      </trkpt>
      <trkpt lat="46.1631" lon="6.2262">
        <ele>614.59</ele>
        <time>2024-01-29T13:30:32Z</time>
      </trkpt>
      <trkpt lat="46.16236" lon="6.22558">
        <ele>618.76</ele>
        <time>2024-01-29T13:31:13Z</time>
      </trkpt>
      <trkpt lat="46.16212" lon="6.22533">
        <ele>620.33</ele>
        <time>2024-01-29T13:31:27Z</time>
      </trkpt>
      <trkpt lat="46.16192" lon="6.22521">
        <ele>621.96</ele>
        <time>2024-01-29T13:31:38Z</time>
      </trkpt>
      <trkpt lat="46.16157" lon="6.22513">
        <ele>624.15</ele>
        <time>2024-01-29T13:31:55Z</time>
      </trkpt>
      <trkpt lat="46.16145" lon="6.22507">
        <ele>624.73</ele>
        <time>2024-01-29T13:32:01Z</time>
      </trkpt>
      <trkpt lat="46.16104" lon="6.22469">
        <ele>627.99</ele>
        <time>2024-01-29T13:32:24Z</time>
      </trkpt>
      <trkpt lat="46.16063" lon="6.2241">
        <ele>631.06</ele>
        <time>2024-01-29T13:32:54Z</time>
      </trkpt>
      <trkpt lat="46.16029" lon="6.22391">
        <ele>633.53</ele>
        <time>2024-01-29T13:33:14Z</time>
      </trkpt>
      <trkpt lat="46.15961" lon="6.22319">
        <ele>636.58</ele>
        <time>2024-01-29T13:34:09Z</time>
      </trkpt>
      <trkpt lat="46.15937" lon="6.22286">
        <ele>637.52</ele>
        <time>2024-01-29T13:34:33Z</time>
      </trkpt>
      <trkpt lat="46.15913" lon="6.22239">
        <ele>638.48</ele>
        <time>2024-01-29T13:35:05Z</time>
      </trkpt>
      <trkpt lat="46.1589" lon="6.22212">
        <ele>639.21</ele>
        <time>2024-01-29T13:35:27Z</time>
      </trkpt>
      <trkpt lat="46.15862" lon="6.22208">
        <ele>635.93</ele>
        <time>2024-01-29T13:35:44Z</time>
      </trkpt>
      <trkpt lat="46.15827" lon="6.22131">
        <ele>640.67</ele>
        <time>2024-01-29T13:36:24Z</time>
      </trkpt>
      <trkpt lat="46.15818" lon="6.22108">
        <ele>641.62</ele>
        <time>2024-01-29T13:36:35Z</time>
      </trkpt>
      <trkpt lat="46.15817" lon="6.22106">
        <ele>641.62</ele>
        <time>2024-01-29T13:36:35Z</time>
      </trkpt>
      <trkpt lat="46.15814" lon="6.22098">
        <ele>641.97</ele>
        <time>2024-01-29T13:36:39Z</time>
      </trkpt>
      <trkpt lat="46.15811" lon="6.2209">
        <ele>642.29</ele>
        <time>2024-01-29T13:36:42Z</time>
      </trkpt>
      <trkpt lat="46.15808" lon="6.22085">
        <ele>642.39</ele>
        <time>2024-01-29T13:36:45Z</time>
      </trkpt>
      <trkpt lat="46.15807" lon="6.2208">
        <ele>642.55</ele>
        <time>2024-01-29T13:36:46Z</time>
      </trkpt>
      <trkpt lat="46.15794" lon="6.22049">
        <ele>643.65</ele>
        <time>2024-01-29T13:36:58Z</time>
      </trkpt>
      <trkpt lat="46.15792" lon="6.22045">
        <ele>643.65</ele>
        <time>2024-01-29T13:37:00Z</time>
      </trkpt>
      <trkpt lat="46.15784" lon="6.22024">
        <ele>644.34</ele>
        <time>2024-01-29T13:37:07Z</time>
      </trkpt>
      <trkpt lat="46.15766" lon="6.21977">
        <ele>646.08</ele>
        <time>2024-01-29T13:37:22Z</time>
      </trkpt>
      <trkpt lat="46.15757" lon="6.21944">
        <ele>647.93</ele>
        <time>2024-01-29T13:37:30Z</time>
      </trkpt>
      <trkpt lat="46.15756" lon="6.21906">
        <ele>649.88</ele>
        <time>2024-01-29T13:37:38Z</time>
      </trkpt>
      <trkpt lat="46.1576" lon="6.21882">
        <ele>650.79</ele>
        <time>2024-01-29T13:37:43Z</time>
      </trkpt>
      <trkpt lat="46.15765" lon="6.21865">
        <ele>651.63</ele>
        <time>2024-01-29T13:37:47Z</time>
      </trkpt>
      <trkpt lat="46.15767" lon="6.21859">
        <ele>651.99</ele>
        <time>2024-01-29T13:37:48Z</time>
      </trkpt>
      <trkpt lat="46.15771" lon="6.21851">
        <ele>652.39</ele>
        <time>2024-01-29T13:37:50Z</time>
      </trkpt>
      <trkpt lat="46.15793" lon="6.21787">
        <ele>655.38</ele>
        <time>2024-01-29T13:38:05Z</time>
      </trkpt>
      <trkpt lat="46.15806" lon="6.2175">
        <ele>657.22</ele>
        <time>2024-01-29T13:38:13Z</time>
      </trkpt>
      <trkpt lat="46.15808" lon="6.21742">
        <ele>657.74</ele>
        <time>2024-01-29T13:38:15Z</time>
      </trkpt>
      <trkpt lat="46.15812" lon="6.21728">
        <ele>658.36</ele>
        <time>2024-01-29T13:38:18Z</time>
      </trkpt>
      <trkpt lat="46.15813" lon="6.21722">
        <ele>658.7</ele>
        <time>2024-01-29T13:38:19Z</time>
      </trkpt>
      <trkpt lat="46.15814" lon="6.21721">
        <ele>658.7</ele>
        <time>2024-01-29T13:38:20Z</time>
      </trkpt>
      <trkpt lat="46.1582" lon="6.21697">
        <ele>659.97</ele>
        <time>2024-01-29T13:38:24Z</time>
      </trkpt>
      <trkpt lat="46.15822" lon="6.21685">
        <ele>660.44</ele>
        <time>2024-01-29T13:38:27Z</time>
      </trkpt>
      <trkpt lat="46.15834" lon="6.21629">
        <ele>663.49</ele>
        <time>2024-01-29T13:38:40Z</time>
      </trkpt>
      <trkpt lat="46.15844" lon="6.21576">
        <ele>666.07</ele>
        <time>2024-01-29T13:38:53Z</time>
      </trkpt>
      <trkpt lat="46.15846" lon="6.21568">
        <ele>666.53</ele>
        <time>2024-01-29T13:38:56Z</time>
      </trkpt>
      <trkpt lat="46.15852" lon="6.21547">
        <ele>667.49</ele>
        <time>2024-01-29T13:39:02Z</time>
      </trkpt>
      <trkpt lat="46.15856" lon="6.21534">
        <ele>668.03</ele>
        <time>2024-01-29T13:39:06Z</time>
      </trkpt>
      <trkpt lat="46.15872" lon="6.21487">
        <ele>669.79</ele>
        <time>2024-01-29T13:39:21Z</time>
      </trkpt>
      <trkpt lat="46.15893" lon="6.21432">
        <ele>671.23</ele>
        <time>2024-01-29T13:39:40Z</time>
      </trkpt>
      <trkpt lat="46.15895" lon="6.21429">
        <ele>671.31</ele>
        <time>2024-01-29T13:39:42Z</time>
      </trkpt>
      <trkpt lat="46.15896" lon="6.21422">
        <ele>671.46</ele>
        <time>2024-01-29T13:39:44Z</time>
      </trkpt>
      <trkpt lat="46.15894" lon="6.21416">
        <ele>671.54</ele>
        <time>2024-01-29T13:39:46Z</time>
      </trkpt>
      <trkpt lat="46.15891" lon="6.21415">
        <ele>671.56</ele>
        <time>2024-01-29T13:39:48Z</time>
      </trkpt>
      <trkpt lat="46.15882" lon="6.21388">
        <ele>671.94</ele>
        <time>2024-01-29T13:39:57Z</time>
      </trkpt>
      <trkpt lat="46.15876" lon="6.21333">
        <ele>672.98</ele>
        <time>2024-01-29T13:40:16Z</time>
      </trkpt>
      <trkpt lat="46.15867" lon="6.2126">
        <ele>675.41</ele>
        <time>2024-01-29T13:40:42Z</time>
      </trkpt>
      <trkpt lat="46.15861" lon="6.21208">
        <ele>678.33</ele>
        <time>2024-01-29T13:41:00Z</time>
      </trkpt>
      <trkpt lat="46.15857" lon="6.2117">
        <ele>680.3</ele>
        <time>2024-01-29T13:41:13Z</time>
      </trkpt>
      <trkpt lat="46.15851" lon="6.21109">
        <ele>684.03</ele>
        <time>2024-01-29T13:41:36Z</time>
      </trkpt>
      <trkpt lat="46.15852" lon="6.21083">
        <ele>685.52</ele>
        <time>2024-01-29T13:41:45Z</time>
      </trkpt>
      <trkpt lat="46.15859" lon="6.21041">
        <ele>687.36</ele>
        <time>2024-01-29T13:42:00Z</time>
      </trkpt>
      <trkpt lat="46.15869" lon="6.21005">
        <ele>689.11</ele>
        <time>2024-01-29T13:42:14Z</time>
      </trkpt>
      <trkpt lat="46.15945" lon="6.20745">
        <ele>700.57</ele>
        <time>2024-01-29T13:43:37Z</time>
      </trkpt>
      <trkpt lat="46.15948" lon="6.20735">
        <ele>700.72</ele>
        <time>2024-01-29T13:43:40Z</time>
      </trkpt>
      <trkpt lat="46.1596" lon="6.20697">
        <ele>700.92</ele>
        <time>2024-01-29T13:43:54Z</time>
      </trkpt>
      <trkpt lat="46.15973" lon="6.20668">
        <ele>700.65</ele>
        <time>2024-01-29T13:44:07Z</time>
      </trkpt>
      <trkpt lat="46.16001" lon="6.20627">
        <ele>700.09</ele>
        <time>2024-01-29T13:44:29Z</time>
      </trkpt>
      <trkpt lat="46.15999" lon="6.20621">
        <ele>700.38</ele>
        <time>2024-01-29T13:44:32Z</time>
      </trkpt>
      <trkpt lat="46.15994" lon="6.20603">
        <ele>702.07</ele>
        <time>2024-01-29T13:44:40Z</time>
      </trkpt>
      <trkpt lat="46.15991" lon="6.20594">
        <ele>703.32</ele>
        <time>2024-01-29T13:44:44Z</time>
      </trkpt>
      <trkpt lat="46.1599" lon="6.20593">
        <ele>703.32</ele>
        <time>2024-01-29T13:44:45Z</time>
      </trkpt>
      <trkpt lat="46.15986" lon="6.20583">
        <ele>704.43</ele>
        <time>2024-01-29T13:44:49Z</time>
      </trkpt>
      <trkpt lat="46.15981" lon="6.20556">
        <ele>707.9</ele>
        <time>2024-01-29T13:45:00Z</time>
      </trkpt>
      <trkpt lat="46.15996" lon="6.20414">
        <ele>717.7</ele>
        <time>2024-01-29T13:45:57Z</time>
      </trkpt>
      <trkpt lat="46.15981" lon="6.2045">
        <ele>720.24</ele>
        <time>2024-01-29T13:46:16Z</time>
      </trkpt>
      <trkpt lat="46.1596" lon="6.20489">
        <ele>723.44</ele>
        <time>2024-01-29T13:46:38Z</time>
      </trkpt>
      <trkpt lat="46.15925" lon="6.20533">
        <ele>727.29</ele>
        <time>2024-01-29T13:47:10Z</time>
      </trkpt>
      <trkpt lat="46.15895" lon="6.20585">
        <ele>730.19</ele>
        <time>2024-01-29T13:47:41Z</time>
      </trkpt>
      <trkpt lat="46.15859" lon="6.20614">
        <ele>734.2</ele>
        <time>2024-01-29T13:48:11Z</time>
      </trkpt>
      <trkpt lat="46.15839" lon="6.20645">
        <ele>738.38</ele>
        <time>2024-01-29T13:48:35Z</time>
      </trkpt>
      <trkpt lat="46.15829" lon="6.20657">
        <ele>740.02</ele>
        <time>2024-01-29T13:48:46Z</time>
      </trkpt>
      <trkpt lat="46.15804" lon="6.20677">
        <ele>744.16</ele>
        <time>2024-01-29T13:49:11Z</time>
      </trkpt>
      <trkpt lat="46.15726" lon="6.20777">
        <ele>758.14</ele>
        <time>2024-01-29T13:50:43Z</time>
      </trkpt>
      <trkpt lat="46.15713" lon="6.20797">
        <ele>760.61</ele>
        <time>2024-01-29T13:50:59Z</time>
      </trkpt>
      <trkpt lat="46.15704" lon="6.20819">
        <ele>763.43</ele>
        <time>2024-01-29T13:51:14Z</time>
      </trkpt>
      <trkpt lat="46.15693" lon="6.20832">
        <ele>764.84</ele>
        <time>2024-01-29T13:51:25Z</time>
      </trkpt>
      <trkpt lat="46.15645" lon="6.20914">
        <ele>773.69</ele>
        <time>2024-01-29T13:52:20Z</time>
      </trkpt>
      <trkpt lat="46.15635" lon="6.20948">
        <ele>776.33</ele>
        <time>2024-01-29T13:52:36Z</time>
      </trkpt>
      <trkpt lat="46.1563" lon="6.20959">
        <ele>777.85</ele>
        <time>2024-01-29T13:52:41Z</time>
      </trkpt>
      <trkpt lat="46.15608" lon="6.20994">
        <ele>781.76</ele>
        <time>2024-01-29T13:52:59Z</time>
      </trkpt>
      <trkpt lat="46.156" lon="6.20996">
        <ele>782.89</ele>
        <time>2024-01-29T13:53:04Z</time>
      </trkpt>
      <trkpt lat="46.15598" lon="6.20991">
        <ele>782.97</ele>
        <time>2024-01-29T13:53:07Z</time>
      </trkpt>
      <trkpt lat="46.156" lon="6.20978">
        <ele>784.01</ele>
        <time>2024-01-29T13:53:12Z</time>
      </trkpt>
      <trkpt lat="46.15644" lon="6.2087">
        <ele>793.67</ele>
        <time>2024-01-29T13:54:00Z</time>
      </trkpt>
      <trkpt lat="46.15652" lon="6.20845">
        <ele>797.12</ele>
        <time>2024-01-29T13:54:13Z</time>
      </trkpt>
      <trkpt lat="46.15666" lon="6.20776">
        <ele>802.91</ele>
        <time>2024-01-29T13:54:46Z</time>
      </trkpt>
      <trkpt lat="46.15674" lon="6.20712">
        <ele>809.69</ele>
        <time>2024-01-29T13:55:16Z</time>
      </trkpt>
      <trkpt lat="46.15705" lon="6.20562">
        <ele>823.59</ele>
        <time>2024-01-29T13:56:29Z</time>
      </trkpt>
      <trkpt lat="46.15713" lon="6.20492">
        <ele>830</ele>
        <time>2024-01-29T13:57:04Z</time>
      </trkpt>
      <trkpt lat="46.15735" lon="6.20451">
        <ele>834.88</ele>
        <time>2024-01-29T13:57:29Z</time>
      </trkpt>
      <trkpt lat="46.15752" lon="6.20385">
        <ele>840.35</ele>
        <time>2024-01-29T13:58:01Z</time>
      </trkpt>
      <trkpt lat="46.15761" lon="6.20338">
        <ele>844.28</ele>
        <time>2024-01-29T13:58:22Z</time>
      </trkpt>
      <trkpt lat="46.15782" lon="6.20275">
        <ele>849.37</ele>
        <time>2024-01-29T13:58:50Z</time>
      </trkpt>
      <trkpt lat="46.1579" lon="6.20205">
        <ele>855.24</ele>
        <time>2024-01-29T13:59:21Z</time>
      </trkpt>
      <trkpt lat="46.15805" lon="6.2018">
        <ele>858.09</ele>
        <time>2024-01-29T13:59:35Z</time>
      </trkpt>
      <trkpt lat="46.15842" lon="6.20091">
        <ele>865.59</ele>
        <time>2024-01-29T14:00:12Z</time>
      </trkpt>
      <trkpt lat="46.15851" lon="6.20056">
        <ele>868.57</ele>
        <time>2024-01-29T14:00:23Z</time>
      </trkpt>
      <trkpt lat="46.15856" lon="6.20012">
        <ele>872.22</ele>
        <time>2024-01-29T14:00:34Z</time>
      </trkpt>
      <trkpt lat="46.15888" lon="6.1998">
        <ele>875.98</ele>
        <time>2024-01-29T14:00:43Z</time>
      </trkpt>
      <trkpt lat="46.15916" lon="6.19948">
        <ele>876.6</ele>
        <time>2024-01-29T14:00:50Z</time>
      </trkpt>
      <trkpt lat="46.15935" lon="6.19913">
        <ele>877.85</ele>
        <time>2024-01-29T14:00:59Z</time>
      </trkpt>
      <trkpt lat="46.15955" lon="6.19883">
        <ele>880.47</ele>
        <time>2024-01-29T14:01:10Z</time>
      </trkpt>
      <trkpt lat="46.15968" lon="6.19869">
        <ele>882.75</ele>
        <time>2024-01-29T14:01:17Z</time>
      </trkpt>
      <trkpt lat="46.15982" lon="6.1986">
        <ele>884.01</ele>
        <time>2024-01-29T14:01:22Z</time>
      </trkpt>
      <trkpt lat="46.16003" lon="6.19854">
        <ele>885.42</ele>
        <time>2024-01-29T14:01:32Z</time>
      </trkpt>
      <trkpt lat="46.16015" lon="6.19845">
        <ele>886.69</ele>
        <time>2024-01-29T14:01:38Z</time>
      </trkpt>
      <trkpt lat="46.1602" lon="6.19836">
        <ele>887.2</ele>
        <time>2024-01-29T14:01:42Z</time>
      </trkpt>
      <trkpt lat="46.16017" lon="6.19824">
        <ele>888.08</ele>
        <time>2024-01-29T14:01:47Z</time>
      </trkpt>
      <trkpt lat="46.16013" lon="6.19821">
        <ele>888.67</ele>
        <time>2024-01-29T14:01:51Z</time>
      </trkpt>
      <trkpt lat="46.16007" lon="6.19821">
        <ele>888.98</ele>
        <time>2024-01-29T14:01:54Z</time>
      </trkpt>
      <trkpt lat="46.15982" lon="6.19833">
        <ele>891.7</ele>
        <time>2024-01-29T14:02:10Z</time>
      </trkpt>
      <trkpt lat="46.15939" lon="6.19843">
        <ele>897.67</ele>
        <time>2024-01-29T14:02:41Z</time>
      </trkpt>
      <trkpt lat="46.15902" lon="6.19869">
        <ele>902.33</ele>
        <time>2024-01-29T14:03:15Z</time>
      </trkpt>
      <trkpt lat="46.15902" lon="6.1987">
        <ele>902.33</ele>
        <time>2024-01-29T14:03:15Z</time>
      </trkpt>
      <trkpt lat="46.15859" lon="6.19905">
        <ele>907.83</ele>
        <time>2024-01-29T14:03:59Z</time>
      </trkpt>
      <trkpt lat="46.15784" lon="6.19946">
        <ele>917.69</ele>
        <time>2024-01-29T14:05:05Z</time>
      </trkpt>
      <trkpt lat="46.15777" lon="6.19955">
        <ele>919.37</ele>
        <time>2024-01-29T14:05:12Z</time>
      </trkpt>
      <trkpt lat="46.15761" lon="6.1999">
        <ele>921.26</ele>
        <time>2024-01-29T14:05:34Z</time>
      </trkpt>
      <trkpt lat="46.15745" lon="6.20017">
        <ele>924.12</ele>
        <time>2024-01-29T14:05:50Z</time>
      </trkpt>
      <trkpt lat="46.15722" lon="6.20045">
        <ele>927.1</ele>
        <time>2024-01-29T14:06:10Z</time>
      </trkpt>
      <trkpt lat="46.1571" lon="6.20054">
        <ele>928.9</ele>
        <time>2024-01-29T14:06:18Z</time>
      </trkpt>
      <trkpt lat="46.15685" lon="6.20063">
        <ele>931.87</ele>
        <time>2024-01-29T14:06:33Z</time>
      </trkpt>
      <trkpt lat="46.15673" lon="6.20072">
        <ele>933.99</ele>
        <time>2024-01-29T14:06:41Z</time>
      </trkpt>
      <trkpt lat="46.15642" lon="6.20142">
        <ele>940.46</ele>
        <time>2024-01-29T14:07:13Z</time>
      </trkpt>
      <trkpt lat="46.1561" lon="6.20201">
        <ele>945.65</ele>
        <time>2024-01-29T14:07:46Z</time>
      </trkpt>
      <trkpt lat="46.15599" lon="6.20217">
        <ele>947.86</ele>
        <time>2024-01-29T14:07:55Z</time>
      </trkpt>
      <trkpt lat="46.15558" lon="6.20246">
        <ele>952.86</ele>
        <time>2024-01-29T14:08:22Z</time>
      </trkpt>
      <trkpt lat="46.15542" lon="6.20263">
        <ele>955.28</ele>
        <time>2024-01-29T14:08:32Z</time>
      </trkpt>
      <trkpt lat="46.1552" lon="6.20273">
        <ele>957.67</ele>
        <time>2024-01-29T14:08:44Z</time>
      </trkpt>
      <trkpt lat="46.15516" lon="6.20278">
        <ele>958.25</ele>
        <time>2024-01-29T14:08:46Z</time>
      </trkpt>
      <trkpt lat="46.15473" lon="6.2036">
        <ele>966.81</ele>
        <time>2024-01-29T14:09:16Z</time>
      </trkpt>
      <trkpt lat="46.15452" lon="6.2039">
        <ele>970.32</ele>
        <time>2024-01-29T14:09:28Z</time>
      </trkpt>
      <trkpt lat="46.15448" lon="6.20421">
        <ele>973.27</ele>
        <time>2024-01-29T14:09:37Z</time>
      </trkpt>
      <trkpt lat="46.15442" lon="6.20441">
        <ele>975.07</ele>
        <time>2024-01-29T14:09:43Z</time>
      </trkpt>
      <trkpt lat="46.15416" lon="6.20493">
        <ele>979.93</ele>
        <time>2024-01-29T14:10:00Z</time>
      </trkpt>
      <trkpt lat="46.15406" lon="6.20503">
        <ele>981.05</ele>
        <time>2024-01-29T14:10:05Z</time>
      </trkpt>
      <trkpt lat="46.15395" lon="6.20508">
        <ele>982.44</ele>
        <time>2024-01-29T14:10:10Z</time>
      </trkpt>
      <trkpt lat="46.1538" lon="6.20505">
        <ele>983.72</ele>
        <time>2024-01-29T14:10:16Z</time>
      </trkpt>
      <trkpt lat="46.15352" lon="6.20483">
        <ele>987.1</ele>
        <time>2024-01-29T14:10:30Z</time>
      </trkpt>
      <trkpt lat="46.15339" lon="6.20463">
        <ele>988.95</ele>
        <time>2024-01-29T14:10:38Z</time>
      </trkpt>
      <trkpt lat="46.15335" lon="6.20448">
        <ele>990.64</ele>
        <time>2024-01-29T14:10:44Z</time>
      </trkpt>
      <trkpt lat="46.15336" lon="6.20435">
        <ele>991.84</ele>
        <time>2024-01-29T14:10:48Z</time>
      </trkpt>
      <trkpt lat="46.15356" lon="6.20391">
        <ele>995.86</ele>
        <time>2024-01-29T14:11:09Z</time>
      </trkpt>
      <trkpt lat="46.15367" lon="6.20313">
        <ele>1000.48</ele>
        <time>2024-01-29T14:11:45Z</time>
      </trkpt>
      <trkpt lat="46.15375" lon="6.20252">
        <ele>1004.25</ele>
        <time>2024-01-29T14:12:12Z</time>
      </trkpt>
      <trkpt lat="46.15381" lon="6.20201">
        <ele>1007.22</ele>
        <time>2024-01-29T14:12:33Z</time>
      </trkpt>
      <trkpt lat="46.15391" lon="6.20159">
        <ele>1009.58</ele>
        <time>2024-01-29T14:12:51Z</time>
      </trkpt>
      <trkpt lat="46.15405" lon="6.20136">
        <ele>1010.94</ele>
        <time>2024-01-29T14:13:02Z</time>
      </trkpt>
      <trkpt lat="46.1543" lon="6.20109">
        <ele>1014.02</ele>
        <time>2024-01-29T14:13:18Z</time>
      </trkpt>
      <trkpt lat="46.15474" lon="6.20073">
        <ele>1018.48</ele>
        <time>2024-01-29T14:13:43Z</time>
      </trkpt>
      <trkpt lat="46.15483" lon="6.20059">
        <ele>1019.36</ele>
        <time>2024-01-29T14:13:49Z</time>
      </trkpt>
      <trkpt lat="46.1552" lon="6.19965">
        <ele>1025.07</ele>
        <time>2024-01-29T14:14:21Z</time>
      </trkpt>
      <trkpt lat="46.1552" lon="6.19954">
        <ele>1025.8</ele>
        <time>2024-01-29T14:14:24Z</time>
      </trkpt>
      <trkpt lat="46.15514" lon="6.19945">
        <ele>1026.53</ele>
        <time>2024-01-29T14:14:28Z</time>
      </trkpt>
      <trkpt lat="46.15505" lon="6.19945">
        <ele>1027.28</ele>
        <time>2024-01-29T14:14:32Z</time>
      </trkpt>
      <trkpt lat="46.15484" lon="6.19974">
        <ele>1029.62</ele>
        <time>2024-01-29T14:14:46Z</time>
      </trkpt>
      <trkpt lat="46.15464" lon="6.19996">
        <ele>1031.88</ele>
        <time>2024-01-29T14:14:57Z</time>
      </trkpt>
      <trkpt lat="46.15455" lon="6.20003">
        <ele>1033.34</ele>
        <time>2024-01-29T14:15:03Z</time>
      </trkpt>
      <trkpt lat="46.15438" lon="6.2001">
        <ele>1035.1</ele>
        <time>2024-01-29T14:15:11Z</time>
      </trkpt>
      <trkpt lat="46.15396" lon="6.20014">
        <ele>1039.21</ele>
        <time>2024-01-29T14:15:34Z</time>
      </trkpt>
      <trkpt lat="46.15351" lon="6.20007">
        <ele>1043.93</ele>
        <time>2024-01-29T14:16:01Z</time>
      </trkpt>
      <trkpt lat="46.15333" lon="6.2">
        <ele>1045.86</ele>
        <time>2024-01-29T14:16:13Z</time>
      </trkpt>
      <trkpt lat="46.15304" lon="6.19981">
        <ele>1049.05</ele>
        <time>2024-01-29T14:16:34Z</time>
      </trkpt>
      <trkpt lat="46.15299" lon="6.19978">
        <ele>1049.58</ele>
        <time>2024-01-29T14:16:37Z</time>
      </trkpt>
      <trkpt lat="46.15278" lon="6.199">
        <ele>1059.14</ele>
        <time>2024-01-29T14:17:20Z</time>
      </trkpt>
      <trkpt lat="46.15264" lon="6.19874">
        <ele>1063.32</ele>
        <time>2024-01-29T14:17:37Z</time>
      </trkpt>
      <trkpt lat="46.15249" lon="6.19853">
        <ele>1067.06</ele>
        <time>2024-01-29T14:17:51Z</time>
      </trkpt>
      <trkpt lat="46.15227" lon="6.19816">
        <ele>1071.77</ele>
        <time>2024-01-29T14:18:14Z</time>
      </trkpt>
      <trkpt lat="46.15217" lon="6.19791">
        <ele>1074.51</ele>
        <time>2024-01-29T14:18:27Z</time>
      </trkpt>
      <trkpt lat="46.1521" lon="6.19766">
        <ele>1077.47</ele>
        <time>2024-01-29T14:18:39Z</time>
      </trkpt>
      <trkpt lat="46.15208" lon="6.19739">
        <ele>1079.81</ele>
        <time>2024-01-29T14:18:50Z</time>
      </trkpt>
      <trkpt lat="46.152" lon="6.19729">
        <ele>1081.01</ele>
        <time>2024-01-29T14:18:56Z</time>
      </trkpt>
      <trkpt lat="46.15165" lon="6.19747">
        <ele>1079.92</ele>
        <time>2024-01-29T14:19:14Z</time>
      </trkpt>
      <trkpt lat="46.1509" lon="6.19807">
        <ele>1080.41</ele>
        <time>2024-01-29T14:19:46Z</time>
      </trkpt>
      <trkpt lat="46.15064" lon="6.19821">
        <ele>1080.73</ele>
        <time>2024-01-29T14:19:55Z</time>
      </trkpt>
      <trkpt lat="46.15044" lon="6.19838">
        <ele>1080.45</ele>
        <time>2024-01-29T14:20:01Z</time>
      </trkpt>
      <trkpt lat="46.15005" lon="6.19886">
        <ele>1081.25</ele>
        <time>2024-01-29T14:20:15Z</time>
      </trkpt>
      <trkpt lat="46.14995" lon="6.19893">
        <ele>1081.92</ele>
        <time>2024-01-29T14:20:18Z</time>
      </trkpt>
      <trkpt lat="46.1496" lon="6.19909">
        <ele>1085.46</ele>
        <time>2024-01-29T14:20:35Z</time>
      </trkpt>
      <trkpt lat="46.14875" lon="6.19861">
        <ele>1093.27</ele>
        <time>2024-01-29T14:21:22Z</time>
      </trkpt>
      <trkpt lat="46.14867" lon="6.1985">
        <ele>1094.55</ele>
        <time>2024-01-29T14:21:29Z</time>
      </trkpt>
      <trkpt lat="46.14855" lon="6.19811">
        <ele>1098.13</ele>
        <time>2024-01-29T14:21:47Z</time>
      </trkpt>
      <trkpt lat="46.14847" lon="6.19797">
        <ele>1098.51</ele>
        <time>2024-01-29T14:21:55Z</time>
      </trkpt>
      <trkpt lat="46.14836" lon="6.19782">
        <ele>1099.39</ele>
        <time>2024-01-29T14:22:03Z</time>
      </trkpt>
      <trkpt lat="46.14821" lon="6.19773">
        <ele>1100.39</ele>
        <time>2024-01-29T14:22:11Z</time>
      </trkpt>
      <trkpt lat="46.14717" lon="6.19757">
        <ele>1110.37</ele>
        <time>2024-01-29T14:23:10Z</time>
      </trkpt>
      <trkpt lat="46.14708" lon="6.19761">
        <ele>1111.37</ele>
        <time>2024-01-29T14:23:15Z</time>
      </trkpt>
      <trkpt lat="46.14699" lon="6.19771">
        <ele>1111.74</ele>
        <time>2024-01-29T14:23:22Z</time>
      </trkpt>
      <trkpt lat="46.14692" lon="6.19797">
        <ele>1113.19</ele>
        <time>2024-01-29T14:23:33Z</time>
      </trkpt>
      <trkpt lat="46.14683" lon="6.19797">
        <ele>1113.54</ele>
        <time>2024-01-29T14:23:38Z</time>
      </trkpt>
      <trkpt lat="46.14677" lon="6.19788">
        <ele>1113.89</ele>
        <time>2024-01-29T14:23:43Z</time>
      </trkpt>
      <trkpt lat="46.14653" lon="6.19688">
        <ele>1119.75</ele>
        <time>2024-01-29T14:24:22Z</time>
      </trkpt>
      <trkpt lat="46.14627" lon="6.19653">
        <ele>1123.02</ele>
        <time>2024-01-29T14:24:40Z</time>
      </trkpt>
      <trkpt lat="46.14616" lon="6.19633">
        <ele>1123.85</ele>
        <time>2024-01-29T14:24:49Z</time>
      </trkpt>
      <trkpt lat="46.14597" lon="6.19608">
        <ele>1124.86</ele>
        <time>2024-01-29T14:25:05Z</time>
      </trkpt>
      <trkpt lat="46.14556" lon="6.19563">
        <ele>1128.86</ele>
        <time>2024-01-29T14:25:40Z</time>
      </trkpt>
      <trkpt lat="46.14554" lon="6.19555">
        <ele>1129.56</ele>
        <time>2024-01-29T14:25:44Z</time>
      </trkpt>
      <trkpt lat="46.14555" lon="6.19547">
        <ele>1130.3</ele>
        <time>2024-01-29T14:25:48Z</time>
      </trkpt>
      <trkpt lat="46.14559" lon="6.19539">
        <ele>1131.1</ele>
        <time>2024-01-29T14:25:53Z</time>
      </trkpt>
      <trkpt lat="46.14564" lon="6.19536">
        <ele>1131.43</ele>
        <time>2024-01-29T14:25:56Z</time>
      </trkpt>
      <trkpt lat="46.14604" lon="6.19527">
        <ele>1134.37</ele>
        <time>2024-01-29T14:26:25Z</time>
      </trkpt>
      <trkpt lat="46.14605" lon="6.19494">
        <ele>1137.29</ele>
        <time>2024-01-29T14:26:41Z</time>
      </trkpt>
      <trkpt lat="46.14611" lon="6.19463">
        <ele>1140.45</ele>
        <time>2024-01-29T14:26:58Z</time>
      </trkpt>
      <trkpt lat="46.14608" lon="6.19449">
        <ele>1141.06</ele>
        <time>2024-01-29T14:27:06Z</time>
      </trkpt>
      <trkpt lat="46.14558" lon="6.19392">
        <ele>1146.85</ele>
        <time>2024-01-29T14:27:56Z</time>
      </trkpt>
      <trkpt lat="46.14528" lon="6.1934">
        <ele>1150.26</ele>
        <time>2024-01-29T14:28:34Z</time>
      </trkpt>
      <trkpt lat="46.14514" lon="6.1933">
        <ele>1151.46</ele>
        <time>2024-01-29T14:28:46Z</time>
      </trkpt>
      <trkpt lat="46.14478" lon="6.19312">
        <ele>1154.72</ele>
        <time>2024-01-29T14:29:16Z</time>
      </trkpt>
      <trkpt lat="46.14428" lon="6.19295">
        <ele>1159.75</ele>
        <time>2024-01-29T14:29:53Z</time>
      </trkpt>
      <trkpt lat="46.14407" lon="6.19296">
        <ele>1162.26</ele>
        <time>2024-01-29T14:30:07Z</time>
      </trkpt>
      <trkpt lat="46.14381" lon="6.19305">
        <ele>1164.32</ele>
        <time>2024-01-29T14:30:24Z</time>
      </trkpt>
      <trkpt lat="46.1437" lon="6.19303">
        <ele>1165.07</ele>
        <time>2024-01-29T14:30:31Z</time>
      </trkpt>
      <trkpt lat="46.1436" lon="6.19297">
        <ele>1166.36</ele>
        <time>2024-01-29T14:30:38Z</time>
      </trkpt>
      <trkpt lat="46.14351" lon="6.1929">
        <ele>1167.05</ele>
        <time>2024-01-29T14:30:43Z</time>
      </trkpt>
      <trkpt lat="46.14339" lon="6.19289">
        <ele>1168.6</ele>
        <time>2024-01-29T14:30:51Z</time>
      </trkpt>
      <trkpt lat="46.14307" lon="6.19298">
        <ele>1171.47</ele>
        <time>2024-01-29T14:31:09Z</time>
      </trkpt>
      <trkpt lat="46.14299" lon="6.19296">
        <ele>1172.03</ele>
        <time>2024-01-29T14:31:13Z</time>
      </trkpt>
      <trkpt lat="46.14266" lon="6.19278">
        <ele>1174.71</ele>
        <time>2024-01-29T14:31:32Z</time>
      </trkpt>
      <trkpt lat="46.14215" lon="6.19276">
        <ele>1180.05</ele>
        <time>2024-01-29T14:31:59Z</time>
      </trkpt>
      <trkpt lat="46.14203" lon="6.19271">
        <ele>1180.89</ele>
        <time>2024-01-29T14:32:05Z</time>
      </trkpt>
      <trkpt lat="46.14158" lon="6.19219">
        <ele>1185.47</ele>
        <time>2024-01-29T14:32:35Z</time>
      </trkpt>
      <trkpt lat="46.14122" lon="6.1919">
        <ele>1189.48</ele>
        <time>2024-01-29T14:32:58Z</time>
      </trkpt>
      <trkpt lat="46.141" lon="6.19157">
        <ele>1191.78</ele>
        <time>2024-01-29T14:33:16Z</time>
      </trkpt>
      <trkpt lat="46.1409" lon="6.1915">
        <ele>1192.68</ele>
        <time>2024-01-29T14:33:22Z</time>
      </trkpt>
      <trkpt lat="46.14067" lon="6.19144">
        <ele>1194.88</ele>
        <time>2024-01-29T14:33:35Z</time>
      </trkpt>
      <trkpt lat="46.14005" lon="6.19039">
        <ele>1203.64</ele>
        <time>2024-01-29T14:34:31Z</time>
      </trkpt>
      <trkpt lat="46.13995" lon="6.19016">
        <ele>1205.35</ele>
        <time>2024-01-29T14:34:42Z</time>
      </trkpt>
      <trkpt lat="46.13986" lon="6.18986">
        <ele>1206.23</ele>
        <time>2024-01-29T14:34:53Z</time>
      </trkpt>
      <trkpt lat="46.13978" lon="6.18959">
        <ele>1206.48</ele>
        <time>2024-01-29T14:35:01Z</time>
      </trkpt>
      <trkpt lat="46.13963" lon="6.18925">
        <ele>1209.65</ele>
        <time>2024-01-29T14:35:13Z</time>
      </trkpt>
      <trkpt lat="46.13938" lon="6.18901">
        <ele>1207.57</ele>
        <time>2024-01-29T14:35:26Z</time>
      </trkpt>
      <trkpt lat="46.13893" lon="6.18876">
        <ele>1208.68</ele>
        <time>2024-01-29T14:35:46Z</time>
      </trkpt>
      <trkpt lat="46.13872" lon="6.18868">
        <ele>1209.38</ele>
        <time>2024-01-29T14:35:56Z</time>
      </trkpt>
      <trkpt lat="46.1386" lon="6.18877">
        <ele>1208.05</ele>
        <time>2024-01-29T14:36:01Z</time>
      </trkpt>
      <trkpt lat="46.1384" lon="6.1887">
        <ele>1209.84</ele>
        <time>2024-01-29T14:36:10Z</time>
      </trkpt>
      <trkpt lat="46.13826" lon="6.1886">
        <ele>1210.45</ele>
        <time>2024-01-29T14:36:17Z</time>
      </trkpt>
      <trkpt lat="46.13811" lon="6.1884">
        <ele>1210.33</ele>
        <time>2024-01-29T14:36:25Z</time>
      </trkpt>
      <trkpt lat="46.13801" lon="6.18817">
        <ele>1210.3</ele>
        <time>2024-01-29T14:36:33Z</time>
      </trkpt>
      <trkpt lat="46.13782" lon="6.188">
        <ele>1210.44</ele>
        <time>2024-01-29T14:36:44Z</time>
      </trkpt>
      <trkpt lat="46.13767" lon="6.18777">
        <ele>1211.67</ele>
        <time>2024-01-29T14:36:53Z</time>
      </trkpt>
      <trkpt lat="46.13758" lon="6.18771">
        <ele>1211.84</ele>
        <time>2024-01-29T14:36:58Z</time>
      </trkpt>
      <trkpt lat="46.13732" lon="6.18763">
        <ele>1213.13</ele>
        <time>2024-01-29T14:37:11Z</time>
      </trkpt>
      <trkpt lat="46.13719" lon="6.18758">
        <ele>1213.95</ele>
        <time>2024-01-29T14:37:18Z</time>
      </trkpt>
      <trkpt lat="46.13666" lon="6.18706">
        <ele>1220.29</ele>
        <time>2024-01-29T14:37:52Z</time>
      </trkpt>
      <trkpt lat="46.1362" lon="6.18669">
        <ele>1219.66</ele>
        <time>2024-01-29T14:38:22Z</time>
      </trkpt>
      <trkpt lat="46.13582" lon="6.18655">
        <ele>1220.82</ele>
        <time>2024-01-29T14:38:42Z</time>
      </trkpt>
      <trkpt lat="46.13559" lon="6.18641">
        <ele>1220.23</ele>
        <time>2024-01-29T14:38:54Z</time>
      </trkpt>
      <trkpt lat="46.13545" lon="6.18611">
        <ele>1223.27</ele>
        <time>2024-01-29T14:39:05Z</time>
      </trkpt>
      <trkpt lat="46.13517" lon="6.18573">
        <ele>1226.7</ele>
        <time>2024-01-29T14:39:20Z</time>
      </trkpt>
      <trkpt lat="46.13501" lon="6.18556">
        <ele>1227.91</ele>
        <time>2024-01-29T14:39:28Z</time>
      </trkpt>
      <trkpt lat="46.13454" lon="6.18533">
        <ele>1225.84</ele>
        <time>2024-01-29T14:39:47Z</time>
      </trkpt>
      <trkpt lat="46.13447" lon="6.18524">
        <ele>1228.41</ele>
        <time>2024-01-29T14:39:50Z</time>
      </trkpt>
      <trkpt lat="46.13422" lon="6.1852">
        <ele>1231.34</ele>
        <time>2024-01-29T14:39:59Z</time>
      </trkpt>
      <trkpt lat="46.13389" lon="6.18507">
        <ele>1232.55</ele>
        <time>2024-01-29T14:40:10Z</time>
      </trkpt>
      <trkpt lat="46.13378" lon="6.18493">
        <ele>1233.26</ele>
        <time>2024-01-29T14:40:15Z</time>
      </trkpt>
      <trkpt lat="46.13333" lon="6.18465">
        <ele>1233.03</ele>
        <time>2024-01-29T14:40:28Z</time>
      </trkpt>
      <trkpt lat="46.13244" lon="6.18402">
        <ele>1235.85</ele>
        <time>2024-01-29T14:40:57Z</time>
      </trkpt>
      <trkpt lat="46.13191" lon="6.18355">
        <ele>1240.16</ele>
        <time>2024-01-29T14:41:18Z</time>
      </trkpt>
      <trkpt lat="46.13167" lon="6.18307">
        <ele>1240.41</ele>
        <time>2024-01-29T14:41:32Z</time>
      </trkpt>
      <trkpt lat="46.13156" lon="6.18283">
        <ele>1242.31</ele>
        <time>2024-01-29T14:41:39Z</time>
      </trkpt>
      <trkpt lat="46.13135" lon="6.18253">
        <ele>1242.95</ele>
        <time>2024-01-29T14:41:48Z</time>
      </trkpt>
      <trkpt lat="46.13106" lon="6.18191">
        <ele>1241.15</ele>
        <time>2024-01-29T14:42:03Z</time>
      </trkpt>
      <trkpt lat="46.13105" lon="6.18172">
        <ele>1240.03</ele>
        <time>2024-01-29T14:42:07Z</time>
      </trkpt>
      <trkpt lat="46.13109" lon="6.18134">
        <ele>1237.64</ele>
        <time>2024-01-29T14:42:14Z</time>
      </trkpt>
      <trkpt lat="46.13104" lon="6.18082">
        <ele>1235.41</ele>
        <time>2024-01-29T14:42:24Z</time>
      </trkpt>
      <trkpt lat="46.13098" lon="6.18052">
        <ele>1233.5</ele>
        <time>2024-01-29T14:42:30Z</time>
      </trkpt>
      <trkpt lat="46.13093" lon="6.18045">
        <ele>1232.92</ele>
        <time>2024-01-29T14:42:31Z</time>
      </trkpt>
      <trkpt lat="46.13079" lon="6.1804">
        <ele>1230.64</ele>
        <time>2024-01-29T14:42:35Z</time>
      </trkpt>
      <trkpt lat="46.13071" lon="6.18026">
        <ele>1230.54</ele>
        <time>2024-01-29T14:42:38Z</time>
      </trkpt>
      <trkpt lat="46.13066" lon="6.17956">
        <ele>1230.59</ele>
        <time>2024-01-29T14:42:51Z</time>
      </trkpt>
      <trkpt lat="46.13066" lon="6.17955">
        <ele>1230.84</ele>
        <time>2024-01-29T14:42:51Z</time>
      </trkpt>
      <trkpt lat="46.13056" lon="6.17892">
        <ele>1231.42</ele>
        <time>2024-01-29T14:43:03Z</time>
      </trkpt>
      <trkpt lat="46.13058" lon="6.17851">
        <ele>1230.45</ele>
        <time>2024-01-29T14:43:11Z</time>
      </trkpt>
      <trkpt lat="46.13055" lon="6.17818">
        <ele>1230.89</ele>
        <time>2024-01-29T14:43:19Z</time>
      </trkpt>
      <trkpt lat="46.13057" lon="6.17786">
        <ele>1232.6</ele>
        <time>2024-01-29T14:43:28Z</time>
      </trkpt>
      <trkpt lat="46.13064" lon="6.17738">
        <ele>1232.04</ele>
        <time>2024-01-29T14:43:42Z</time>
      </trkpt>
      <trkpt lat="46.13077" lon="6.17683">
        <ele>1231.41</ele>
        <time>2024-01-29T14:44:00Z</time>
      </trkpt>
      <trkpt lat="46.13077" lon="6.17667">
        <ele>1231.76</ele>
        <time>2024-01-29T14:44:05Z</time>
      </trkpt>
      <trkpt lat="46.13071" lon="6.1765">
        <ele>1232.54</ele>
        <time>2024-01-29T14:44:11Z</time>
      </trkpt>
      <trkpt lat="46.13051" lon="6.17622">
        <ele>1234.06</ele>
        <time>2024-01-29T14:44:22Z</time>
      </trkpt>
      <trkpt lat="46.13023" lon="6.17597">
        <ele>1237.87</ele>
        <time>2024-01-29T14:44:37Z</time>
      </trkpt>
      <trkpt lat="46.12983" lon="6.1758">
        <ele>1239.99</ele>
        <time>2024-01-29T14:44:54Z</time>
      </trkpt>
      <trkpt lat="46.12959" lon="6.17562">
        <ele>1240.57</ele>
        <time>2024-01-29T14:45:04Z</time>
      </trkpt>
      <trkpt lat="46.12887" lon="6.17544">
        <ele>1240.21</ele>
        <time>2024-01-29T14:45:23Z</time>
      </trkpt>
      <trkpt lat="46.12875" lon="6.17539">
        <ele>1240.52</ele>
        <time>2024-01-29T14:45:26Z</time>
      </trkpt>
      <trkpt lat="46.12867" lon="6.17532">
        <ele>1240.22</ele>
        <time>2024-01-29T14:45:28Z</time>
      </trkpt>
      <trkpt lat="46.12827" lon="6.17518">
        <ele>1237.82</ele>
        <time>2024-01-29T14:45:33Z</time>
      </trkpt>
      <trkpt lat="46.12754" lon="6.1752">
        <ele>1233.06</ele>
        <time>2024-01-29T14:45:42Z</time>
      </trkpt>
      <trkpt lat="46.12725" lon="6.17517">
        <ele>1231.28</ele>
        <time>2024-01-29T14:45:46Z</time>
      </trkpt>
      <trkpt lat="46.12674" lon="6.17499">
        <ele>1228.02</ele>
        <time>2024-01-29T14:45:52Z</time>
      </trkpt>
      <trkpt lat="46.12661" lon="6.17492">
        <ele>1226.98</ele>
        <time>2024-01-29T14:45:53Z</time>
      </trkpt>
      <trkpt lat="46.12652" lon="6.17481">
        <ele>1226.27</ele>
        <time>2024-01-29T14:45:55Z</time>
      </trkpt>
      <trkpt lat="46.12622" lon="6.17415">
        <ele>1222.4</ele>
        <time>2024-01-29T14:46:02Z</time>
      </trkpt>
      <trkpt lat="46.12599" lon="6.17376">
        <ele>1220.14</ele>
        <time>2024-01-29T14:46:06Z</time>
      </trkpt>
      <trkpt lat="46.12584" lon="6.17341">
        <ele>1218.26</ele>
        <time>2024-01-29T14:46:10Z</time>
      </trkpt>
      <trkpt lat="46.12577" lon="6.173">
        <ele>1216.08</ele>
        <time>2024-01-29T14:46:15Z</time>
      </trkpt>
      <trkpt lat="46.12573" lon="6.17277">
        <ele>1214.75</ele>
        <time>2024-01-29T14:46:18Z</time>
      </trkpt>
      <trkpt lat="46.12572" lon="6.17271">
        <ele>1214.56</ele>
        <time>2024-01-29T14:46:19Z</time>
      </trkpt>
      <trkpt lat="46.1257" lon="6.17261">
        <ele>1214.01</ele>
        <time>2024-01-29T14:46:20Z</time>
      </trkpt>
      <trkpt lat="46.12566" lon="6.17252">
        <ele>1213.35</ele>
        <time>2024-01-29T14:46:21Z</time>
      </trkpt>
      <trkpt lat="46.12563" lon="6.17246">
        <ele>1213.27</ele>
        <time>2024-01-29T14:46:22Z</time>
      </trkpt>
      <trkpt lat="46.12558" lon="6.1724">
        <ele>1212.39</ele>
        <time>2024-01-29T14:46:28Z</time>
      </trkpt>
      <trkpt lat="46.12566" lon="6.17236">
        <ele>1213.3</ele>
        <time>2024-01-29T14:46:27Z</time>
      </trkpt>
      <trkpt lat="46.12573" lon="6.17237">
        <ele>1214.58</ele>
        <time>2024-01-29T14:46:26Z</time>
      </trkpt>
      <trkpt lat="46.12566" lon="6.17236">
        <ele>1213.3</ele>
        <time>2024-01-29T14:46:27Z</time>
      </trkpt>
      <trkpt lat="46.12558" lon="6.1724">
        <ele>1212.39</ele>
        <time>2024-01-29T14:46:28Z</time>
      </trkpt>
      <trkpt lat="46.12544" lon="6.17229">
        <ele>1211.44</ele>
        <time>2024-01-29T14:46:31Z</time>
      </trkpt>
      <trkpt lat="46.12499" lon="6.17194">
        <ele>1208.74</ele>
        <time>2024-01-29T14:46:39Z</time>
      </trkpt>
      <trkpt lat="46.12481" lon="6.17179">
        <ele>1207.55</ele>
        <time>2024-01-29T14:46:42Z</time>
      </trkpt>
      <trkpt lat="46.12452" lon="6.17157">
        <ele>1206.09</ele>
        <time>2024-01-29T14:46:46Z</time>
      </trkpt>
      <trkpt lat="46.12385" lon="6.17124">
        <ele>1202.12</ele>
        <time>2024-01-29T14:46:56Z</time>
      </trkpt>
      <trkpt lat="46.12321" lon="6.17072">
        <ele>1197.93</ele>
        <time>2024-01-29T14:47:05Z</time>
      </trkpt>
      <trkpt lat="46.12293" lon="6.17053">
        <ele>1196.03</ele>
        <time>2024-01-29T14:47:09Z</time>
      </trkpt>
      <trkpt lat="46.12279" lon="6.17049">
        <ele>1194.86</ele>
        <time>2024-01-29T14:47:10Z</time>
      </trkpt>
      <trkpt lat="46.12264" lon="6.17051">
        <ele>1194.04</ele>
        <time>2024-01-29T14:47:12Z</time>
      </trkpt>
      <trkpt lat="46.12257" lon="6.17052">
        <ele>1193.51</ele>
        <time>2024-01-29T14:47:13Z</time>
      </trkpt>
      <trkpt lat="46.12238" lon="6.17063">
        <ele>1192.23</ele>
        <time>2024-01-29T14:47:16Z</time>
      </trkpt>
      <trkpt lat="46.12234" lon="6.17067">
        <ele>1191.9</ele>
        <time>2024-01-29T14:47:16Z</time>
      </trkpt>
      <trkpt lat="46.12187" lon="6.17114">
        <ele>1188.95</ele>
        <time>2024-01-29T14:47:23Z</time>
      </trkpt>
      <trkpt lat="46.1217" lon="6.17121">
        <ele>1187.92</ele>
        <time>2024-01-29T14:47:25Z</time>
      </trkpt>
      <trkpt lat="46.12112" lon="6.17136">
        <ele>1183.71</ele>
        <time>2024-01-29T14:47:32Z</time>
      </trkpt>
      <trkpt lat="46.12086" lon="6.17157">
        <ele>1182.01</ele>
        <time>2024-01-29T14:47:36Z</time>
      </trkpt>
      <trkpt lat="46.1206" lon="6.1718">
        <ele>1180.18</ele>
        <time>2024-01-29T14:47:39Z</time>
      </trkpt>
      <trkpt lat="46.12048" lon="6.17185">
        <ele>1179.69</ele>
        <time>2024-01-29T14:47:41Z</time>
      </trkpt>
      <trkpt lat="46.12045" lon="6.17185">
        <ele>1179.4</ele>
        <time>2024-01-29T14:47:41Z</time>
      </trkpt>
      <trkpt lat="46.12042" lon="6.17186">
        <ele>1179.11</ele>
        <time>2024-01-29T14:47:42Z</time>
      </trkpt>
      <trkpt lat="46.12019" lon="6.17186">
        <ele>1177.86</ele>
        <time>2024-01-29T14:47:46Z</time>
      </trkpt>
      <trkpt lat="46.11993" lon="6.17185">
        <ele>1176.27</ele>
        <time>2024-01-29T14:47:51Z</time>
      </trkpt>
      <trkpt lat="46.11981" lon="6.17185">
        <ele>1175.45</ele>
        <time>2024-01-29T14:47:54Z</time>
      </trkpt>
      <trkpt lat="46.11965" lon="6.17182">
        <ele>1174.47</ele>
        <time>2024-01-29T14:47:56Z</time>
      </trkpt>
      <trkpt lat="46.11962" lon="6.1718">
        <ele>1174.47</ele>
        <time>2024-01-29T14:47:57Z</time>
      </trkpt>
      <trkpt lat="46.1196" lon="6.17178">
        <ele>1174.3</ele>
        <time>2024-01-29T14:47:57Z</time>
      </trkpt>
      <trkpt lat="46.11958" lon="6.17175">
        <ele>1174.3</ele>
        <time>2024-01-29T14:47:58Z</time>
      </trkpt>
      <trkpt lat="46.1195" lon="6.17162">
        <ele>1174.21</ele>
        <time>2024-01-29T14:48:00Z</time>
      </trkpt>
      <trkpt lat="46.11948" lon="6.17159">
        <ele>1174.26</ele>
        <time>2024-01-29T14:48:01Z</time>
      </trkpt>
      <trkpt lat="46.11947" lon="6.17155">
        <ele>1174.3</ele>
        <time>2024-01-29T14:48:02Z</time>
      </trkpt>
      <trkpt lat="46.11945" lon="6.1715">
        <ele>1174.34</ele>
        <time>2024-01-29T14:48:03Z</time>
      </trkpt>
      <trkpt lat="46.11943" lon="6.17127">
        <ele>1174.83</ele>
        <time>2024-01-29T14:48:08Z</time>
      </trkpt>
      <trkpt lat="46.11944" lon="6.17105">
        <ele>1176</ele>
        <time>2024-01-29T14:48:12Z</time>
      </trkpt>
      <trkpt lat="46.11942" lon="6.17076">
        <ele>1177.26</ele>
        <time>2024-01-29T14:48:20Z</time>
      </trkpt>
      <trkpt lat="46.11936" lon="6.17054">
        <ele>1178.56</ele>
        <time>2024-01-29T14:48:27Z</time>
      </trkpt>
      <trkpt lat="46.1193" lon="6.17025">
        <ele>1180.18</ele>
        <time>2024-01-29T14:48:37Z</time>
      </trkpt>
      <trkpt lat="46.11934" lon="6.1696">
        <ele>1183.36</ele>
        <time>2024-01-29T14:49:02Z</time>
      </trkpt>
      <trkpt lat="46.11924" lon="6.16902">
        <ele>1186.25</ele>
        <time>2024-01-29T14:49:29Z</time>
      </trkpt>
      <trkpt lat="46.1192" lon="6.16831">
        <ele>1189.71</ele>
        <time>2024-01-29T14:50:02Z</time>
      </trkpt>
      <trkpt lat="46.11921" lon="6.16807">
        <ele>1191.15</ele>
        <time>2024-01-29T14:50:13Z</time>
      </trkpt>
      <trkpt lat="46.11931" lon="6.1674">
        <ele>1194.81</ele>
        <time>2024-01-29T14:50:44Z</time>
      </trkpt>
      <trkpt lat="46.11934" lon="6.16709">
        <ele>1195.84</ele>
        <time>2024-01-29T14:50:58Z</time>
      </trkpt>
      <trkpt lat="46.11928" lon="6.16594">
        <ele>1200.8</ele>
        <time>2024-01-29T14:51:46Z</time>
      </trkpt>
      <trkpt lat="46.11917" lon="6.16545">
        <ele>1203.56</ele>
        <time>2024-01-29T14:52:06Z</time>
      </trkpt>
      <trkpt lat="46.11886" lon="6.16465">
        <ele>1207.51</ele>
        <time>2024-01-29T14:52:40Z</time>
      </trkpt>
      <trkpt lat="46.11851" lon="6.16402">
        <ele>1211.16</ele>
        <time>2024-01-29T14:53:08Z</time>
      </trkpt>
      <trkpt lat="46.11827" lon="6.16364">
        <ele>1213.63</ele>
        <time>2024-01-29T14:53:25Z</time>
      </trkpt>
      <trkpt lat="46.11812" lon="6.16343">
        <ele>1215.12</ele>
        <time>2024-01-29T14:53:35Z</time>
      </trkpt>
      <trkpt lat="46.11786" lon="6.16318">
        <ele>1216.47</ele>
        <time>2024-01-29T14:53:50Z</time>
      </trkpt>
      <trkpt lat="46.11674" lon="6.16246">
        <ele>1223.42</ele>
        <time>2024-01-29T14:54:48Z</time>
      </trkpt>
      <trkpt lat="46.11651" lon="6.16233">
        <ele>1224.7</ele>
        <time>2024-01-29T14:54:58Z</time>
      </trkpt>
      <trkpt lat="46.11581" lon="6.16207">
        <ele>1228.91</ele>
        <time>2024-01-29T14:55:27Z</time>
      </trkpt>
      <trkpt lat="46.11555" lon="6.16185">
        <ele>1230.81</ele>
        <time>2024-01-29T14:55:37Z</time>
      </trkpt>
      <trkpt lat="46.1154" lon="6.16163">
        <ele>1231.96</ele>
        <time>2024-01-29T14:55:44Z</time>
      </trkpt>
      <trkpt lat="46.11516" lon="6.16095">
        <ele>1235.22</ele>
        <time>2024-01-29T14:56:00Z</time>
      </trkpt>
      <trkpt lat="46.11482" lon="6.16022">
        <ele>1239.25</ele>
        <time>2024-01-29T14:56:18Z</time>
      </trkpt>
      <trkpt lat="46.1147" lon="6.16004">
        <ele>1240.56</ele>
        <time>2024-01-29T14:56:23Z</time>
      </trkpt>
      <trkpt lat="46.11433" lon="6.15963">
        <ele>1243.44</ele>
        <time>2024-01-29T14:56:39Z</time>
      </trkpt>
      <trkpt lat="46.11404" lon="6.15934">
        <ele>1245.4</ele>
        <time>2024-01-29T14:56:53Z</time>
      </trkpt>
      <trkpt lat="46.11343" lon="6.15888">
        <ele>1248.51</ele>
        <time>2024-01-29T14:57:24Z</time>
      </trkpt>
      <trkpt lat="46.11248" lon="6.15798">
        <ele>1254.85</ele>
        <time>2024-01-29T14:58:20Z</time>
      </trkpt>
      <trkpt lat="46.11176" lon="6.15721">
        <ele>1259.02</ele>
        <time>2024-01-29T14:59:04Z</time>
      </trkpt>
      <trkpt lat="46.11095" lon="6.15646">
        <ele>1263.5</ele>
        <time>2024-01-29T14:59:46Z</time>
      </trkpt>
      <trkpt lat="46.10978" lon="6.15553">
        <ele>1270.2</ele>
        <time>2024-01-29T15:00:39Z</time>
      </trkpt>
      <trkpt lat="46.10772" lon="6.15404">
        <ele>1280.95</ele>
        <time>2024-01-29T15:01:53Z</time>
      </trkpt>
      <trkpt lat="46.10654" lon="6.15341">
        <ele>1286.28</ele>
        <time>2024-01-29T15:02:12Z</time>
      </trkpt>
      <trkpt lat="46.10629" lon="6.15332">
        <ele>1286.64</ele>
        <time>2024-01-29T15:02:16Z</time>
      </trkpt>
      <trkpt lat="46.10562" lon="6.15318">
        <ele>1287.67</ele>
        <time>2024-01-29T15:02:25Z</time>
      </trkpt>
      <trkpt lat="46.10549" lon="6.15318">
        <ele>1287.85</ele>
        <time>2024-01-29T15:02:27Z</time>
      </trkpt>
      <trkpt lat="46.10523" lon="6.15326">
        <ele>1288.29</ele>
        <time>2024-01-29T15:02:30Z</time>
      </trkpt>
      <trkpt lat="46.10499" lon="6.15329">
        <ele>1288.72</ele>
        <time>2024-01-29T15:02:34Z</time>
      </trkpt>
      <trkpt lat="46.10421" lon="6.15294">
        <ele>1289.86</ele>
        <time>2024-01-29T15:02:47Z</time>
      </trkpt>
      <trkpt lat="46.10408" lon="6.15285">
        <ele>1290.17</ele>
        <time>2024-01-29T15:02:50Z</time>
      </trkpt>
      <trkpt lat="46.10291" lon="6.15185">
        <ele>1293.72</ele>
        <time>2024-01-29T15:03:32Z</time>
      </trkpt>
      <trkpt lat="46.10262" lon="6.15157">
        <ele>1295.19</ele>
        <time>2024-01-29T15:03:45Z</time>
      </trkpt>
      <trkpt lat="46.10235" lon="6.15124">
        <ele>1297.38</ele>
        <time>2024-01-29T15:03:59Z</time>
      </trkpt>
      <trkpt lat="46.10184" lon="6.15062">
        <ele>1301.06</ele>
        <time>2024-01-29T15:04:24Z</time>
      </trkpt>
      <trkpt lat="46.10117" lon="6.14948">
        <ele>1305.89</ele>
        <time>2024-01-29T15:04:56Z</time>
      </trkpt>
      <trkpt lat="46.1006" lon="6.14869">
        <ele>1309.01</ele>
        <time>2024-01-29T15:05:12Z</time>
      </trkpt>
      <trkpt lat="46.10053" lon="6.14863">
        <ele>1309.3</ele>
        <time>2024-01-29T15:05:13Z</time>
      </trkpt>
      <trkpt lat="46.10039" lon="6.14861">
        <ele>1309.84</ele>
        <time>2024-01-29T15:05:16Z</time>
      </trkpt>
      <trkpt lat="46.10025" lon="6.14865">
        <ele>1310.1</ele>
        <time>2024-01-29T15:05:18Z</time>
      </trkpt>
      <trkpt lat="46.10002" lon="6.14879">
        <ele>1310.41</ele>
        <time>2024-01-29T15:05:23Z</time>
      </trkpt>
      <trkpt lat="46.09994" lon="6.14881">
        <ele>1310.33</ele>
        <time>2024-01-29T15:05:25Z</time>
      </trkpt>
      <trkpt lat="46.09983" lon="6.14877">
        <ele>1310.4</ele>
        <time>2024-01-29T15:05:28Z</time>
      </trkpt>
      <trkpt lat="46.09902" lon="6.14817">
        <ele>1314.63</ele>
        <time>2024-01-29T15:05:52Z</time>
      </trkpt>
      <trkpt lat="46.09891" lon="6.14803">
        <ele>1314.98</ele>
        <time>2024-01-29T15:05:57Z</time>
      </trkpt>
      <trkpt lat="46.0988" lon="6.1478">
        <ele>1315.28</ele>
        <time>2024-01-29T15:06:04Z</time>
      </trkpt>
      <trkpt lat="46.09848" lon="6.14712">
        <ele>1318.19</ele>
        <time>2024-01-29T15:06:26Z</time>
      </trkpt>
      <trkpt lat="46.09794" lon="6.1464">
        <ele>1321.16</ele>
        <time>2024-01-29T15:06:56Z</time>
      </trkpt>
      <trkpt lat="46.09773" lon="6.14623">
        <ele>1322.5</ele>
        <time>2024-01-29T15:07:05Z</time>
      </trkpt>
      <trkpt lat="46.0976" lon="6.14617">
        <ele>1323.19</ele>
        <time>2024-01-29T15:07:11Z</time>
      </trkpt>
      <trkpt lat="46.09746" lon="6.14616">
        <ele>1323.85</ele>
        <time>2024-01-29T15:07:16Z</time>
      </trkpt>
      <trkpt lat="46.09737" lon="6.1462">
        <ele>1324.21</ele>
        <time>2024-01-29T15:07:19Z</time>
      </trkpt>
      <trkpt lat="46.09661" lon="6.14682">
        <ele>1328.08</ele>
        <time>2024-01-29T15:07:43Z</time>
      </trkpt>
      <trkpt lat="46.09645" lon="6.14686">
        <ele>1328.46</ele>
        <time>2024-01-29T15:07:46Z</time>
      </trkpt>
      <trkpt lat="46.0961" lon="6.1469">
        <ele>1328.56</ele>
        <time>2024-01-29T15:07:53Z</time>
      </trkpt>
      <trkpt lat="46.09577" lon="6.14699">
        <ele>1328.44</ele>
        <time>2024-01-29T15:07:58Z</time>
      </trkpt>
      <trkpt lat="46.09561" lon="6.14691">
        <ele>1328.18</ele>
        <time>2024-01-29T15:08:01Z</time>
      </trkpt>
      <trkpt lat="46.09545" lon="6.14677">
        <ele>1327.8</ele>
        <time>2024-01-29T15:08:04Z</time>
      </trkpt>
      <trkpt lat="46.09537" lon="6.14664">
        <ele>1327.46</ele>
        <time>2024-01-29T15:08:06Z</time>
      </trkpt>
      <trkpt lat="46.0953" lon="6.14646">
        <ele>1327.74</ele>
        <time>2024-01-29T15:08:09Z</time>
      </trkpt>
      <trkpt lat="46.09521" lon="6.1459">
        <ele>1328.18</ele>
        <time>2024-01-29T15:08:16Z</time>
      </trkpt>
      <trkpt lat="46.09515" lon="6.14593">
        <ele>1328.15</ele>
        <time>2024-01-29T15:08:41Z</time>
      </trkpt>
      <trkpt lat="46.09518" lon="6.14603">
        <ele>1328.22</ele>
        <time>2024-01-29T15:08:38Z</time>
      </trkpt>
      <trkpt lat="46.09525" lon="6.14639">
        <ele>1327.45</ele>
        <time>2024-01-29T15:08:29Z</time>
      </trkpt>
      <trkpt lat="46.09518" lon="6.14603">
        <ele>1328.22</ele>
        <time>2024-01-29T15:08:38Z</time>
      </trkpt>
      <trkpt lat="46.09515" lon="6.14593">
        <ele>1328.15</ele>
        <time>2024-01-29T15:08:41Z</time>
      </trkpt>
      <trkpt lat="46.09507" lon="6.14571">
        <ele>1327.94</ele>
        <time>2024-01-29T15:08:48Z</time>
      </trkpt>
      <trkpt lat="46.09468" lon="6.14494">
        <ele>1330.2</ele>
        <time>2024-01-29T15:09:16Z</time>
      </trkpt>
      <trkpt lat="46.09455" lon="6.14463">
        <ele>1330.09</ele>
        <time>2024-01-29T15:09:28Z</time>
      </trkpt>
      <trkpt lat="46.09442" lon="6.14443">
        <ele>1330.51</ele>
        <time>2024-01-29T15:09:37Z</time>
      </trkpt>
      <trkpt lat="46.09425" lon="6.14419">
        <ele>1331.34</ele>
        <time>2024-01-29T15:09:49Z</time>
      </trkpt>
      <trkpt lat="46.09392" lon="6.14397">
        <ele>1335.09</ele>
        <time>2024-01-29T15:10:09Z</time>
      </trkpt>
      <trkpt lat="46.09352" lon="6.14354">
        <ele>1336.17</ele>
        <time>2024-01-29T15:10:36Z</time>
      </trkpt>
      <trkpt lat="46.09332" lon="6.14314">
        <ele>1336.98</ele>
        <time>2024-01-29T15:10:54Z</time>
      </trkpt>
      <trkpt lat="46.09284" lon="6.1426">
        <ele>1338.28</ele>
        <time>2024-01-29T15:11:22Z</time>
      </trkpt>
      <trkpt lat="46.09254" lon="6.14194">
        <ele>1339.49</ele>
        <time>2024-01-29T15:11:43Z</time>
      </trkpt>
      <trkpt lat="46.09254" lon="6.14175">
        <ele>1338.61</ele>
        <time>2024-01-29T15:11:47Z</time>
      </trkpt>
      <trkpt lat="46.09259" lon="6.14179">
        <ele>1339.46</ele>
        <time>2024-01-29T15:11:50Z</time>
      </trkpt>
      <trkpt lat="46.09255" lon="6.14162">
        <ele>1338.8</ele>
        <time>2024-01-29T15:11:52Z</time>
      </trkpt>
      <trkpt lat="46.09223" lon="6.14021">
        <ele>1335.55</ele>
        <time>2024-01-29T15:12:09Z</time>
      </trkpt>
      <trkpt lat="46.09222" lon="6.14017">
        <ele>1335.55</ele>
        <time>2024-01-29T15:12:09Z</time>
      </trkpt>
      <trkpt lat="46.09215" lon="6.13998">
        <ele>1335.5</ele>
        <time>2024-01-29T15:12:11Z</time>
      </trkpt>
      <trkpt lat="46.09206" lon="6.1398">
        <ele>1335.44</ele>
        <time>2024-01-29T15:12:14Z</time>
      </trkpt>
      <trkpt lat="46.09199" lon="6.13972">
        <ele>1335.67</ele>
        <time>2024-01-29T15:12:15Z</time>
      </trkpt>
      <trkpt lat="46.09184" lon="6.1396">
        <ele>1336.16</ele>
        <time>2024-01-29T15:12:18Z</time>
      </trkpt>
      <trkpt lat="46.09167" lon="6.13954">
        <ele>1336.79</ele>
        <time>2024-01-29T15:12:20Z</time>
      </trkpt>
      <trkpt lat="46.09115" lon="6.13953">
        <ele>1337.41</ele>
        <time>2024-01-29T15:12:28Z</time>
      </trkpt>
      <trkpt lat="46.09097" lon="6.13949">
        <ele>1337.6</ele>
        <time>2024-01-29T15:12:31Z</time>
      </trkpt>
      <trkpt lat="46.09089" lon="6.13942">
        <ele>1337.9</ele>
        <time>2024-01-29T15:12:33Z</time>
      </trkpt>
      <trkpt lat="46.09074" lon="6.1391">
        <ele>1338.5</ele>
        <time>2024-01-29T15:12:38Z</time>
      </trkpt>
      <trkpt lat="46.09046" lon="6.13821">
        <ele>1339.06</ele>
        <time>2024-01-29T15:12:53Z</time>
      </trkpt>
      <trkpt lat="46.09037" lon="6.138">
        <ele>1338.94</ele>
        <time>2024-01-29T15:12:58Z</time>
      </trkpt>
      <trkpt lat="46.09026" lon="6.13787">
        <ele>1338.25</ele>
        <time>2024-01-29T15:13:01Z</time>
      </trkpt>
      <trkpt lat="46.09001" lon="6.13768">
        <ele>1338.27</ele>
        <time>2024-01-29T15:13:09Z</time>
      </trkpt>
      <trkpt lat="46.08977" lon="6.13745">
        <ele>1339.32</ele>
        <time>2024-01-29T15:13:17Z</time>
      </trkpt>
      <trkpt lat="46.08959" lon="6.13726">
        <ele>1339.86</ele>
        <time>2024-01-29T15:13:22Z</time>
      </trkpt>
      <trkpt lat="46.08945" lon="6.13705">
        <ele>1340.37</ele>
        <time>2024-01-29T15:13:26Z</time>
      </trkpt>
      <trkpt lat="46.08938" lon="6.13679">
        <ele>1340.81</ele>
        <time>2024-01-29T15:13:30Z</time>
      </trkpt>
      <trkpt lat="46.08936" lon="6.13639">
        <ele>1339.86</ele>
        <time>2024-01-29T15:13:35Z</time>
      </trkpt>
      <trkpt lat="46.08923" lon="6.13583">
        <ele>1335.61</ele>
        <time>2024-01-29T15:13:41Z</time>
      </trkpt>
      <trkpt lat="46.08914" lon="6.13544">
        <ele>1333.15</ele>
        <time>2024-01-29T15:13:45Z</time>
      </trkpt>
      <trkpt lat="46.08905" lon="6.13507">
        <ele>1330.97</ele>
        <time>2024-01-29T15:13:49Z</time>
      </trkpt>
      <trkpt lat="46.08891" lon="6.1345">
        <ele>1328.38</ele>
        <time>2024-01-29T15:13:55Z</time>
      </trkpt>
      <trkpt lat="46.08884" lon="6.13434">
        <ele>1327.65</ele>
        <time>2024-01-29T15:13:57Z</time>
      </trkpt>
      <trkpt lat="46.08863" lon="6.13411">
        <ele>1326.33</ele>
        <time>2024-01-29T15:14:00Z</time>
      </trkpt>
      <trkpt lat="46.08849" lon="6.13389">
        <ele>1325.61</ele>
        <time>2024-01-29T15:14:02Z</time>
      </trkpt>
      <trkpt lat="46.08827" lon="6.1332">
        <ele>1323.12</ele>
        <time>2024-01-29T15:14:09Z</time>
      </trkpt>
      <trkpt lat="46.08819" lon="6.13307">
        <ele>1322.64</ele>
        <time>2024-01-29T15:14:11Z</time>
      </trkpt>
      <trkpt lat="46.08791" lon="6.13284">
        <ele>1321.4</ele>
        <time>2024-01-29T15:14:15Z</time>
      </trkpt>
      <trkpt lat="46.08676" lon="6.13207">
        <ele>1314.42</ele>
        <time>2024-01-29T15:14:32Z</time>
      </trkpt>
      <trkpt lat="46.08608" lon="6.13162">
        <ele>1317.16</ele>
        <time>2024-01-29T15:14:43Z</time>
      </trkpt>
      <trkpt lat="46.08593" lon="6.13155">
        <ele>1317.67</ele>
        <time>2024-01-29T15:14:45Z</time>
      </trkpt>
      <trkpt lat="46.08552" lon="6.13143">
        <ele>1317.98</ele>
        <time>2024-01-29T15:14:52Z</time>
      </trkpt>
      <trkpt lat="46.08537" lon="6.1313">
        <ele>1317.58</ele>
        <time>2024-01-29T15:14:55Z</time>
      </trkpt>
      <trkpt lat="46.08502" lon="6.13086">
        <ele>1316.32</ele>
        <time>2024-01-29T15:15:04Z</time>
      </trkpt>
      <trkpt lat="46.08485" lon="6.13055">
        <ele>1315.29</ele>
        <time>2024-01-29T15:15:10Z</time>
      </trkpt>
      <trkpt lat="46.08459" lon="6.1299">
        <ele>1313.09</ele>
        <time>2024-01-29T15:15:20Z</time>
      </trkpt>
      <trkpt lat="46.08434" lon="6.12914">
        <ele>1312.56</ele>
        <time>2024-01-29T15:15:31Z</time>
      </trkpt>
      <trkpt lat="46.08427" lon="6.129">
        <ele>1312.64</ele>
        <time>2024-01-29T15:15:32Z</time>
      </trkpt>
      <trkpt lat="46.08364" lon="6.12812">
        <ele>1312.41</ele>
        <time>2024-01-29T15:15:45Z</time>
      </trkpt>
      <trkpt lat="46.08329" lon="6.12776">
        <ele>1310.35</ele>
        <time>2024-01-29T15:15:51Z</time>
      </trkpt>
      <trkpt lat="46.08298" lon="6.12754">
        <ele>1308.28</ele>
        <time>2024-01-29T15:15:55Z</time>
      </trkpt>
      <trkpt lat="46.08241" lon="6.12692">
        <ele>1303.17</ele>
        <time>2024-01-29T15:16:04Z</time>
      </trkpt>
      <trkpt lat="46.08233" lon="6.12686">
        <ele>1302.83</ele>
        <time>2024-01-29T15:16:06Z</time>
      </trkpt>
      <trkpt lat="46.08213" lon="6.12676">
        <ele>1301.3</ele>
        <time>2024-01-29T15:16:08Z</time>
      </trkpt>
      <trkpt lat="46.08204" lon="6.12667">
        <ele>1300.69</ele>
        <time>2024-01-29T15:16:10Z</time>
      </trkpt>
      <trkpt lat="46.08194" lon="6.12644">
        <ele>1299.63</ele>
        <time>2024-01-29T15:16:12Z</time>
      </trkpt>
      <trkpt lat="46.08172" lon="6.12564">
        <ele>1296.69</ele>
        <time>2024-01-29T15:16:19Z</time>
      </trkpt>
      <trkpt lat="46.08157" lon="6.12535">
        <ele>1296.61</ele>
        <time>2024-01-29T15:16:22Z</time>
      </trkpt>
      <trkpt lat="46.08164" lon="6.12522">
        <ele>1295.66</ele>
        <time>2024-01-29T15:16:25Z</time>
      </trkpt>
      <trkpt lat="46.08173" lon="6.12505">
        <ele>1294.7</ele>
        <time>2024-01-29T15:16:28Z</time>
      </trkpt>
      <trkpt lat="46.08183" lon="6.12474">
        <ele>1292.82</ele>
        <time>2024-01-29T15:16:33Z</time>
      </trkpt>
      <trkpt lat="46.08184" lon="6.12456">
        <ele>1292.31</ele>
        <time>2024-01-29T15:16:36Z</time>
      </trkpt>
      <trkpt lat="46.08174" lon="6.1236">
        <ele>1291.18</ele>
        <time>2024-01-29T15:16:50Z</time>
      </trkpt>
      <trkpt lat="46.08166" lon="6.12311">
        <ele>1287.83</ele>
        <time>2024-01-29T15:16:58Z</time>
      </trkpt>
      <trkpt lat="46.08167" lon="6.12293">
        <ele>1286.16</ele>
        <time>2024-01-29T15:17:01Z</time>
      </trkpt>
      <trkpt lat="46.08178" lon="6.12252">
        <ele>1283.9</ele>
        <time>2024-01-29T15:17:07Z</time>
      </trkpt>
      <trkpt lat="46.08182" lon="6.12214">
        <ele>1281.39</ele>
        <time>2024-01-29T15:17:12Z</time>
      </trkpt>
      <trkpt lat="46.08187" lon="6.12202">
        <ele>1280.02</ele>
        <time>2024-01-29T15:17:14Z</time>
      </trkpt>
      <trkpt lat="46.08205" lon="6.12182">
        <ele>1277.21</ele>
        <time>2024-01-29T15:17:19Z</time>
      </trkpt>
      <trkpt lat="46.0822" lon="6.12172">
        <ele>1275.92</ele>
        <time>2024-01-29T15:17:22Z</time>
      </trkpt>
      <trkpt lat="46.08254" lon="6.12155">
        <ele>1272.52</ele>
        <time>2024-01-29T15:17:29Z</time>
      </trkpt>
      <trkpt lat="46.08258" lon="6.12143">
        <ele>1271.17</ele>
        <time>2024-01-29T15:17:31Z</time>
      </trkpt>
      <trkpt lat="46.08257" lon="6.12128">
        <ele>1270.23</ele>
        <time>2024-01-29T15:17:33Z</time>
      </trkpt>
      <trkpt lat="46.08253" lon="6.12113">
        <ele>1269.45</ele>
        <time>2024-01-29T15:17:35Z</time>
      </trkpt>
      <trkpt lat="46.08245" lon="6.12096">
        <ele>1268.67</ele>
        <time>2024-01-29T15:17:38Z</time>
      </trkpt>
      <trkpt lat="46.08227" lon="6.12072">
        <ele>1267.35</ele>
        <time>2024-01-29T15:17:43Z</time>
      </trkpt>
      <trkpt lat="46.08213" lon="6.1206">
        <ele>1266.14</ele>
        <time>2024-01-29T15:17:47Z</time>
      </trkpt>
      <trkpt lat="46.08203" lon="6.12055">
        <ele>1265.16</ele>
        <time>2024-01-29T15:17:49Z</time>
      </trkpt>
      <trkpt lat="46.08196" lon="6.12056">
        <ele>1264.28</ele>
        <time>2024-01-29T15:17:50Z</time>
      </trkpt>
      <trkpt lat="46.08187" lon="6.12062">
        <ele>1263.24</ele>
        <time>2024-01-29T15:17:52Z</time>
      </trkpt>
      <trkpt lat="46.08109" lon="6.12146">
        <ele>1253.45</ele>
        <time>2024-01-29T15:18:14Z</time>
      </trkpt>
      <trkpt lat="46.08042" lon="6.12211">
        <ele>1245.01</ele>
        <time>2024-01-29T15:18:37Z</time>
      </trkpt>
      <trkpt lat="46.08018" lon="6.12246">
        <ele>1242.23</ele>
        <time>2024-01-29T15:18:46Z</time>
      </trkpt>
      <trkpt lat="46.08" lon="6.12286">
        <ele>1238.95</ele>
        <time>2024-01-29T15:18:54Z</time>
      </trkpt>
      <trkpt lat="46.07991" lon="6.1229">
        <ele>1238.36</ele>
        <time>2024-01-29T15:18:57Z</time>
      </trkpt>
      <trkpt lat="46.07985" lon="6.12292">
        <ele>1238.79</ele>
        <time>2024-01-29T15:18:58Z</time>
      </trkpt>
      <trkpt lat="46.0798" lon="6.12289">
        <ele>1238.56</ele>
        <time>2024-01-29T15:19:00Z</time>
      </trkpt>
      <trkpt lat="46.07964" lon="6.12278">
        <ele>1241.2</ele>
        <time>2024-01-29T15:19:04Z</time>
      </trkpt>
      <trkpt lat="46.07943" lon="6.1222">
        <ele>1240.86</ele>
        <time>2024-01-29T15:19:15Z</time>
      </trkpt>
      <trkpt lat="46.07922" lon="6.12182">
        <ele>1239.6</ele>
        <time>2024-01-29T15:19:23Z</time>
      </trkpt>
      <trkpt lat="46.07881" lon="6.12134">
        <ele>1237.05</ele>
        <time>2024-01-29T15:19:34Z</time>
      </trkpt>
      <trkpt lat="46.07854" lon="6.12102">
        <ele>1235.2</ele>
        <time>2024-01-29T15:19:42Z</time>
      </trkpt>
      <trkpt lat="46.07844" lon="6.12088">
        <ele>1232.61</ele>
        <time>2024-01-29T15:19:45Z</time>
      </trkpt>
      <trkpt lat="46.07824" lon="6.1202">
        <ele>1220.85</ele>
        <time>2024-01-29T15:19:57Z</time>
      </trkpt>
      <trkpt lat="46.07815" lon="6.12006">
        <ele>1218.14</ele>
        <time>2024-01-29T15:20:00Z</time>
      </trkpt>
      <trkpt lat="46.07803" lon="6.12004">
        <ele>1216.19</ele>
        <time>2024-01-29T15:20:03Z</time>
      </trkpt>
      <trkpt lat="46.07794" lon="6.11985">
        <ele>1214.47</ele>
        <time>2024-01-29T15:20:08Z</time>
      </trkpt>
      <trkpt lat="46.07757" lon="6.11965">
        <ele>1220.79</ele>
        <time>2024-01-29T15:20:19Z</time>
      </trkpt>
      <trkpt lat="46.07736" lon="6.1195">
        <ele>1223.32</ele>
        <time>2024-01-29T15:20:27Z</time>
      </trkpt>
      <trkpt lat="46.07718" lon="6.1193">
        <ele>1226.73</ele>
        <time>2024-01-29T15:20:35Z</time>
      </trkpt>
      <trkpt lat="46.07675" lon="6.11897">
        <ele>1228.7</ele>
        <time>2024-01-29T15:20:55Z</time>
      </trkpt>
      <trkpt lat="46.07655" lon="6.1189">
        <ele>1229.28</ele>
        <time>2024-01-29T15:21:05Z</time>
      </trkpt>
      <trkpt lat="46.07612" lon="6.11852">
        <ele>1223.32</ele>
        <time>2024-01-29T15:21:23Z</time>
      </trkpt>
      <trkpt lat="46.07591" lon="6.1184">
        <ele>1222</ele>
        <time>2024-01-29T15:21:30Z</time>
      </trkpt>
      <trkpt lat="46.07584" lon="6.11836">
        <ele>1222.43</ele>
        <time>2024-01-29T15:21:32Z</time>
      </trkpt>
      <trkpt lat="46.07575" lon="6.11816">
        <ele>1219.98</ele>
        <time>2024-01-29T15:21:36Z</time>
      </trkpt>
      <trkpt lat="46.07546" lon="6.11771">
        <ele>1217.33</ele>
        <time>2024-01-29T15:21:47Z</time>
      </trkpt>
      <trkpt lat="46.07496" lon="6.11715">
        <ele>1218.8</ele>
        <time>2024-01-29T15:22:02Z</time>
      </trkpt>
      <trkpt lat="46.07485" lon="6.11712">
        <ele>1220.86</ele>
        <time>2024-01-29T15:22:04Z</time>
      </trkpt>
      <trkpt lat="46.07423" lon="6.11681">
        <ele>1221.13</ele>
        <time>2024-01-29T15:22:19Z</time>
      </trkpt>
      <trkpt lat="46.07375" lon="6.11668">
        <ele>1219.1</ele>
        <time>2024-01-29T15:22:29Z</time>
      </trkpt>
      <trkpt lat="46.07326" lon="6.1165">
        <ele>1219.07</ele>
        <time>2024-01-29T15:22:40Z</time>
      </trkpt>
      <trkpt lat="46.07319" lon="6.11645">
        <ele>1218.94</ele>
        <time>2024-01-29T15:22:42Z</time>
      </trkpt>
      <trkpt lat="46.07287" lon="6.11632">
        <ele>1220.96</ele>
        <time>2024-01-29T15:22:49Z</time>
      </trkpt>
      <trkpt lat="46.07237" lon="6.11624">
        <ele>1222.45</ele>
        <time>2024-01-29T15:23:01Z</time>
      </trkpt>
      <trkpt lat="46.07199" lon="6.11632">
        <ele>1221.36</ele>
        <time>2024-01-29T15:23:10Z</time>
      </trkpt>
      <trkpt lat="46.07188" lon="6.11625">
        <ele>1221.28</ele>
        <time>2024-01-29T15:23:13Z</time>
      </trkpt>
      <trkpt lat="46.07151" lon="6.1159">
        <ele>1214.68</ele>
        <time>2024-01-29T15:23:26Z</time>
      </trkpt>
      <trkpt lat="46.07123" lon="6.11574">
        <ele>1212.42</ele>
        <time>2024-01-29T15:23:34Z</time>
      </trkpt>
      <trkpt lat="46.07116" lon="6.11563">
        <ele>1211.49</ele>
        <time>2024-01-29T15:23:37Z</time>
      </trkpt>
      <trkpt lat="46.07111" lon="6.11533">
        <ele>1211.07</ele>
        <time>2024-01-29T15:23:43Z</time>
      </trkpt>
      <trkpt lat="46.07103" lon="6.1152">
        <ele>1210.46</ele>
        <time>2024-01-29T15:23:48Z</time>
      </trkpt>
      <trkpt lat="46.07086" lon="6.11474">
        <ele>1210.84</ele>
        <time>2024-01-29T15:24:00Z</time>
      </trkpt>
      <trkpt lat="46.07065" lon="6.1144">
        <ele>1212.41</ele>
        <time>2024-01-29T15:24:10Z</time>
      </trkpt>
      <trkpt lat="46.07031" lon="6.11405">
        <ele>1215.32</ele>
        <time>2024-01-29T15:24:23Z</time>
      </trkpt>
      <trkpt lat="46.07017" lon="6.11402">
        <ele>1216.03</ele>
        <time>2024-01-29T15:24:28Z</time>
      </trkpt>
      <trkpt lat="46.06995" lon="6.11414">
        <ele>1216.61</ele>
        <time>2024-01-29T15:24:34Z</time>
      </trkpt>
      <trkpt lat="46.06999" lon="6.11403">
        <ele>1216.56</ele>
        <time>2024-01-29T15:24:37Z</time>
      </trkpt>
      <trkpt lat="46.07065" lon="6.1123">
        <ele>1216.09</ele>
        <time>2024-01-29T15:25:14Z</time>
      </trkpt>
      <trkpt lat="46.07067" lon="6.11219">
        <ele>1215.98</ele>
        <time>2024-01-29T15:25:16Z</time>
      </trkpt>
      <trkpt lat="46.07065" lon="6.1121">
        <ele>1215.97</ele>
        <time>2024-01-29T15:25:18Z</time>
      </trkpt>
      <trkpt lat="46.07058" lon="6.11198">
        <ele>1215.86</ele>
        <time>2024-01-29T15:25:21Z</time>
      </trkpt>
      <trkpt lat="46.06987" lon="6.11136">
        <ele>1212.9</ele>
        <time>2024-01-29T15:25:43Z</time>
      </trkpt>
      <trkpt lat="46.06941" lon="6.11089">
        <ele>1209.47</ele>
        <time>2024-01-29T15:25:57Z</time>
      </trkpt>
      <trkpt lat="46.06934" lon="6.11068">
        <ele>1209.32</ele>
        <time>2024-01-29T15:26:02Z</time>
      </trkpt>
      <trkpt lat="46.0693" lon="6.1104">
        <ele>1209.46</ele>
        <time>2024-01-29T15:26:07Z</time>
      </trkpt>
      <trkpt lat="46.06927" lon="6.10943">
        <ele>1208.33</ele>
        <time>2024-01-29T15:26:24Z</time>
      </trkpt>
      <trkpt lat="46.06925" lon="6.10926">
        <ele>1207.29</ele>
        <time>2024-01-29T15:26:27Z</time>
      </trkpt>
      <trkpt lat="46.06917" lon="6.1091">
        <ele>1207</ele>
        <time>2024-01-29T15:26:30Z</time>
      </trkpt>
      <trkpt lat="46.06906" lon="6.10891">
        <ele>1205.72</ele>
        <time>2024-01-29T15:26:34Z</time>
      </trkpt>
      <trkpt lat="46.06837" lon="6.10823">
        <ele>1199.5</ele>
        <time>2024-01-29T15:26:53Z</time>
      </trkpt>
      <trkpt lat="46.06822" lon="6.10804">
        <ele>1196.89</ele>
        <time>2024-01-29T15:26:58Z</time>
      </trkpt>
      <trkpt lat="46.06792" lon="6.10721">
        <ele>1196.72</ele>
        <time>2024-01-29T15:27:12Z</time>
      </trkpt>
      <trkpt lat="46.06774" lon="6.10676">
        <ele>1195.79</ele>
        <time>2024-01-29T15:27:20Z</time>
      </trkpt>
      <trkpt lat="46.06751" lon="6.10634">
        <ele>1193.17</ele>
        <time>2024-01-29T15:27:29Z</time>
      </trkpt>
      <trkpt lat="46.06736" lon="6.10622">
        <ele>1191.89</ele>
        <time>2024-01-29T15:27:33Z</time>
      </trkpt>
      <trkpt lat="46.06714" lon="6.10615">
        <ele>1189.17</ele>
        <time>2024-01-29T15:27:38Z</time>
      </trkpt>
      <trkpt lat="46.06702" lon="6.10617">
        <ele>1188.04</ele>
        <time>2024-01-29T15:27:41Z</time>
      </trkpt>
      <trkpt lat="46.06687" lon="6.10628">
        <ele>1187.84</ele>
        <time>2024-01-29T15:27:45Z</time>
      </trkpt>
      <trkpt lat="46.06653" lon="6.10662">
        <ele>1184.91</ele>
        <time>2024-01-29T15:27:55Z</time>
      </trkpt>
      <trkpt lat="46.06645" lon="6.10675">
        <ele>1184.37</ele>
        <time>2024-01-29T15:27:58Z</time>
      </trkpt>
      <trkpt lat="46.0664" lon="6.10695">
        <ele>1183.11</ele>
        <time>2024-01-29T15:28:02Z</time>
      </trkpt>
      <trkpt lat="46.06637" lon="6.10729">
        <ele>1183.23</ele>
        <time>2024-01-29T15:28:08Z</time>
      </trkpt>
      <trkpt lat="46.06639" lon="6.10754">
        <ele>1183.3</ele>
        <time>2024-01-29T15:28:12Z</time>
      </trkpt>
      <trkpt lat="46.06647" lon="6.10791">
        <ele>1185.36</ele>
        <time>2024-01-29T15:28:18Z</time>
      </trkpt>
      <trkpt lat="46.06645" lon="6.10803">
        <ele>1186.01</ele>
        <time>2024-01-29T15:28:20Z</time>
      </trkpt>
      <trkpt lat="46.06641" lon="6.10814">
        <ele>1185.96</ele>
        <time>2024-01-29T15:28:21Z</time>
      </trkpt>
      <trkpt lat="46.06624" lon="6.10838">
        <ele>1186.14</ele>
        <time>2024-01-29T15:28:27Z</time>
      </trkpt>
      <trkpt lat="46.06609" lon="6.10851">
        <ele>1185.41</ele>
        <time>2024-01-29T15:28:30Z</time>
      </trkpt>
      <trkpt lat="46.0659" lon="6.1086">
        <ele>1184.4</ele>
        <time>2024-01-29T15:28:35Z</time>
      </trkpt>
      <trkpt lat="46.06554" lon="6.10865">
        <ele>1180.4</ele>
        <time>2024-01-29T15:28:42Z</time>
      </trkpt>
      <trkpt lat="46.06544" lon="6.1087">
        <ele>1179.79</ele>
        <time>2024-01-29T15:28:44Z</time>
      </trkpt>
      <trkpt lat="46.06534" lon="6.1088">
        <ele>1178.86</ele>
        <time>2024-01-29T15:28:47Z</time>
      </trkpt>
      <trkpt lat="46.06522" lon="6.10905">
        <ele>1177.35</ele>
        <time>2024-01-29T15:28:51Z</time>
      </trkpt>
      <trkpt lat="46.06506" lon="6.10972">
        <ele>1174.72</ele>
        <time>2024-01-29T15:29:02Z</time>
      </trkpt>
      <trkpt lat="46.06496" lon="6.10979">
        <ele>1173</ele>
        <time>2024-01-29T15:29:04Z</time>
      </trkpt>
      <trkpt lat="46.0649" lon="6.10977">
        <ele>1171.45</ele>
        <time>2024-01-29T15:29:05Z</time>
      </trkpt>
      <trkpt lat="46.06483" lon="6.10968">
        <ele>1171.05</ele>
        <time>2024-01-29T15:29:07Z</time>
      </trkpt>
      <trkpt lat="46.06479" lon="6.10948">
        <ele>1170.55</ele>
        <time>2024-01-29T15:29:10Z</time>
      </trkpt>
      <trkpt lat="46.06477" lon="6.10915">
        <ele>1169.55</ele>
        <time>2024-01-29T15:29:15Z</time>
      </trkpt>
      <trkpt lat="46.06479" lon="6.10881">
        <ele>1169.04</ele>
        <time>2024-01-29T15:29:21Z</time>
      </trkpt>
      <trkpt lat="46.06492" lon="6.10808">
        <ele>1166.29</ele>
        <time>2024-01-29T15:29:33Z</time>
      </trkpt>
      <trkpt lat="46.06493" lon="6.10783">
        <ele>1165.45</ele>
        <time>2024-01-29T15:29:38Z</time>
      </trkpt>
      <trkpt lat="46.06487" lon="6.10762">
        <ele>1164.86</ele>
        <time>2024-01-29T15:29:42Z</time>
      </trkpt>
      <trkpt lat="46.06472" lon="6.10736">
        <ele>1162.39</ele>
        <time>2024-01-29T15:29:49Z</time>
      </trkpt>
      <trkpt lat="46.06465" lon="6.10714">
        <ele>1162.11</ele>
        <time>2024-01-29T15:29:54Z</time>
      </trkpt>
      <trkpt lat="46.06462" lon="6.10693">
        <ele>1161.87</ele>
        <time>2024-01-29T15:29:59Z</time>
      </trkpt>
      <trkpt lat="46.06469" lon="6.10614">
        <ele>1163.16</ele>
        <time>2024-01-29T15:30:15Z</time>
      </trkpt>
      <trkpt lat="46.06496" lon="6.10543">
        <ele>1161.61</ele>
        <time>2024-01-29T15:30:32Z</time>
      </trkpt>
      <trkpt lat="46.06495" lon="6.10521">
        <ele>1160.02</ele>
        <time>2024-01-29T15:30:36Z</time>
      </trkpt>
      <trkpt lat="46.06489" lon="6.10503">
        <ele>1158.04</ele>
        <time>2024-01-29T15:30:40Z</time>
      </trkpt>
      <trkpt lat="46.06475" lon="6.10485">
        <ele>1156.14</ele>
        <time>2024-01-29T15:30:46Z</time>
      </trkpt>
      <trkpt lat="46.0642" lon="6.10434">
        <ele>1152.18</ele>
        <time>2024-01-29T15:31:03Z</time>
      </trkpt>
      <trkpt lat="46.06404" lon="6.10412">
        <ele>1152.89</ele>
        <time>2024-01-29T15:31:09Z</time>
      </trkpt>
      <trkpt lat="46.06388" lon="6.10384">
        <ele>1154.15</ele>
        <time>2024-01-29T15:31:15Z</time>
      </trkpt>
      <trkpt lat="46.0638" lon="6.10375">
        <ele>1153.92</ele>
        <time>2024-01-29T15:31:18Z</time>
      </trkpt>
      <trkpt lat="46.06368" lon="6.10369">
        <ele>1152.83</ele>
        <time>2024-01-29T15:31:21Z</time>
      </trkpt>
      <trkpt lat="46.06346" lon="6.10365">
        <ele>1151.13</ele>
        <time>2024-01-29T15:31:26Z</time>
      </trkpt>
      <trkpt lat="46.06337" lon="6.10359">
        <ele>1150.94</ele>
        <time>2024-01-29T15:31:28Z</time>
      </trkpt>
      <trkpt lat="46.06326" lon="6.10343">
        <ele>1150.62</ele>
        <time>2024-01-29T15:31:32Z</time>
      </trkpt>
      <trkpt lat="46.06312" lon="6.10306">
        <ele>1151.19</ele>
        <time>2024-01-29T15:31:39Z</time>
      </trkpt>
      <trkpt lat="46.06263" lon="6.10179">
        <ele>1146.91</ele>
        <time>2024-01-29T15:32:02Z</time>
      </trkpt>
      <trkpt lat="46.06251" lon="6.10141">
        <ele>1144.95</ele>
        <time>2024-01-29T15:32:09Z</time>
      </trkpt>
      <trkpt lat="46.06238" lon="6.10126">
        <ele>1143.08</ele>
        <time>2024-01-29T15:32:12Z</time>
      </trkpt>
      <trkpt lat="46.06222" lon="6.10125">
        <ele>1141.11</ele>
        <time>2024-01-29T15:32:16Z</time>
      </trkpt>
      <trkpt lat="46.06204" lon="6.10151">
        <ele>1139.65</ele>
        <time>2024-01-29T15:32:21Z</time>
      </trkpt>
      <trkpt lat="46.0618" lon="6.10198">
        <ele>1136.9</ele>
        <time>2024-01-29T15:32:30Z</time>
      </trkpt>
      <trkpt lat="46.06119" lon="6.10279">
        <ele>1126.95</ele>
        <time>2024-01-29T15:32:48Z</time>
      </trkpt>
      <trkpt lat="46.06075" lon="6.10337">
        <ele>1122.41</ele>
        <time>2024-01-29T15:33:00Z</time>
      </trkpt>
      <trkpt lat="46.06061" lon="6.10371">
        <ele>1121.26</ele>
        <time>2024-01-29T15:33:06Z</time>
      </trkpt>
      <trkpt lat="46.06043" lon="6.10429">
        <ele>1117.79</ele>
        <time>2024-01-29T15:33:15Z</time>
      </trkpt>
      <trkpt lat="46.0603" lon="6.10447">
        <ele>1115.59</ele>
        <time>2024-01-29T15:33:19Z</time>
      </trkpt>
      <trkpt lat="46.06018" lon="6.1045">
        <ele>1114.38</ele>
        <time>2024-01-29T15:33:21Z</time>
      </trkpt>
      <trkpt lat="46.06" lon="6.10441">
        <ele>1112.49</ele>
        <time>2024-01-29T15:33:25Z</time>
      </trkpt>
      <trkpt lat="46.05945" lon="6.10375">
        <ele>1107.02</ele>
        <time>2024-01-29T15:33:40Z</time>
      </trkpt>
      <trkpt lat="46.05929" lon="6.10289">
        <ele>1104.23</ele>
        <time>2024-01-29T15:33:48Z</time>
      </trkpt>
      <trkpt lat="46.05929" lon="6.10267">
        <ele>1103.41</ele>
        <time>2024-01-29T15:33:50Z</time>
      </trkpt>
      <trkpt lat="46.05932" lon="6.10249">
        <ele>1102.71</ele>
        <time>2024-01-29T15:33:52Z</time>
      </trkpt>
      <trkpt lat="46.05955" lon="6.10154">
        <ele>1100.1</ele>
        <time>2024-01-29T15:34:01Z</time>
      </trkpt>
      <trkpt lat="46.05982" lon="6.10066">
        <ele>1096.14</ele>
        <time>2024-01-29T15:34:10Z</time>
      </trkpt>
      <trkpt lat="46.0597" lon="6.09976">
        <ele>1091.13</ele>
        <time>2024-01-29T15:34:19Z</time>
      </trkpt>
      <trkpt lat="46.05972" lon="6.0991">
        <ele>1089.66</ele>
        <time>2024-01-29T15:34:25Z</time>
      </trkpt>
      <trkpt lat="46.05984" lon="6.09853">
        <ele>1087.56</ele>
        <time>2024-01-29T15:34:30Z</time>
      </trkpt>
      <trkpt lat="46.05987" lon="6.09828">
        <ele>1085.57</ele>
        <time>2024-01-29T15:34:32Z</time>
      </trkpt>
      <trkpt lat="46.05983" lon="6.09794">
        <ele>1081.24</ele>
        <time>2024-01-29T15:34:35Z</time>
      </trkpt>
      <trkpt lat="46.05966" lon="6.09761">
        <ele>1075.38</ele>
        <time>2024-01-29T15:34:38Z</time>
      </trkpt>
      <trkpt lat="46.05956" lon="6.0975">
        <ele>1073.2</ele>
        <time>2024-01-29T15:34:40Z</time>
      </trkpt>
      <trkpt lat="46.0583" lon="6.0968">
        <ele>1053.56</ele>
        <time>2024-01-29T15:34:55Z</time>
      </trkpt>
      <trkpt lat="46.0579" lon="6.09665">
        <ele>1046.4</ele>
        <time>2024-01-29T15:34:59Z</time>
      </trkpt>
      <trkpt lat="46.05741" lon="6.0967">
        <ele>1040.52</ele>
        <time>2024-01-29T15:35:05Z</time>
      </trkpt>
      <trkpt lat="46.05721" lon="6.09647">
        <ele>1033.82</ele>
        <time>2024-01-29T15:35:08Z</time>
      </trkpt>
      <trkpt lat="46.0572" lon="6.09639">
        <ele>1033.15</ele>
        <time>2024-01-29T15:35:09Z</time>
      </trkpt>
      <trkpt lat="46.05729" lon="6.0958">
        <ele>1023.69</ele>
        <time>2024-01-29T15:35:13Z</time>
      </trkpt>
      <trkpt lat="46.05747" lon="6.0956">
        <ele>1020.57</ele>
        <time>2024-01-29T15:35:16Z</time>
      </trkpt>
      <trkpt lat="46.05776" lon="6.09545">
        <ele>1017.49</ele>
        <time>2024-01-29T15:35:19Z</time>
      </trkpt>
      <trkpt lat="46.05927" lon="6.09483">
        <ele>1000.16</ele>
        <time>2024-01-29T15:35:37Z</time>
      </trkpt>
      <trkpt lat="46.05956" lon="6.09468">
        <ele>997.96</ele>
        <time>2024-01-29T15:35:40Z</time>
      </trkpt>
      <trkpt lat="46.06094" lon="6.0933">
        <ele>980.41</ele>
        <time>2024-01-29T15:35:58Z</time>
      </trkpt>
      <trkpt lat="46.06119" lon="6.09312">
        <ele>976.28</ele>
        <time>2024-01-29T15:36:02Z</time>
      </trkpt>
      <trkpt lat="46.06182" lon="6.09284">
        <ele>968.01</ele>
        <time>2024-01-29T15:36:09Z</time>
      </trkpt>
      <trkpt lat="46.06207" lon="6.09284">
        <ele>965.25</ele>
        <time>2024-01-29T15:36:12Z</time>
      </trkpt>
      <trkpt lat="46.06327" lon="6.09308">
        <ele>952.33</ele>
        <time>2024-01-29T15:36:26Z</time>
      </trkpt>
      <trkpt lat="46.06356" lon="6.09309">
        <ele>951.32</ele>
        <time>2024-01-29T15:36:29Z</time>
      </trkpt>
      <trkpt lat="46.06382" lon="6.09303">
        <ele>947.62</ele>
        <time>2024-01-29T15:36:32Z</time>
      </trkpt>
      <trkpt lat="46.06443" lon="6.09268">
        <ele>938.53</ele>
        <time>2024-01-29T15:36:39Z</time>
      </trkpt>
      <trkpt lat="46.06473" lon="6.09263">
        <ele>934.62</ele>
        <time>2024-01-29T15:36:43Z</time>
      </trkpt>
      <trkpt lat="46.06493" lon="6.09268">
        <ele>931.24</ele>
        <time>2024-01-29T15:36:45Z</time>
      </trkpt>
      <trkpt lat="46.06532" lon="6.09292">
        <ele>928.66</ele>
        <time>2024-01-29T15:36:50Z</time>
      </trkpt>
      <trkpt lat="46.06571" lon="6.09318">
        <ele>924.79</ele>
        <time>2024-01-29T15:36:55Z</time>
      </trkpt>
      <trkpt lat="46.06632" lon="6.09364">
        <ele>917.49</ele>
        <time>2024-01-29T15:37:02Z</time>
      </trkpt>
      <trkpt lat="46.06673" lon="6.09393">
        <ele>912.63</ele>
        <time>2024-01-29T15:37:08Z</time>
      </trkpt>
      <trkpt lat="46.06682" lon="6.09392">
        <ele>910.88</ele>
        <time>2024-01-29T15:37:09Z</time>
      </trkpt>
      <trkpt lat="46.06689" lon="6.09388">
        <ele>908.8</ele>
        <time>2024-01-29T15:37:09Z</time>
      </trkpt>
      <trkpt lat="46.06694" lon="6.0938">
        <ele>907.27</ele>
        <time>2024-01-29T15:37:10Z</time>
      </trkpt>
      <trkpt lat="46.06696" lon="6.0937">
        <ele>905.81</ele>
        <time>2024-01-29T15:37:11Z</time>
      </trkpt>
      <trkpt lat="46.06697" lon="6.09359">
        <ele>905.13</ele>
        <time>2024-01-29T15:37:12Z</time>
      </trkpt>
      <trkpt lat="46.06693" lon="6.09344">
        <ele>904.46</ele>
        <time>2024-01-29T15:37:13Z</time>
      </trkpt>
      <trkpt lat="46.06648" lon="6.0923">
        <ele>900.54</ele>
        <time>2024-01-29T15:37:23Z</time>
      </trkpt>
      <trkpt lat="46.06643" lon="6.0921">
        <ele>899.41</ele>
        <time>2024-01-29T15:37:25Z</time>
      </trkpt>
      <trkpt lat="46.06641" lon="6.09188">
        <ele>897.86</ele>
        <time>2024-01-29T15:37:27Z</time>
      </trkpt>
      <trkpt lat="46.0665" lon="6.09123">
        <ele>892.83</ele>
        <time>2024-01-29T15:37:32Z</time>
      </trkpt>
      <trkpt lat="46.06648" lon="6.09104">
        <ele>890.94</ele>
        <time>2024-01-29T15:37:33Z</time>
      </trkpt>
      <trkpt lat="46.06704" lon="6.09144">
        <ele>890.82</ele>
        <time>2024-01-29T15:37:41Z</time>
      </trkpt>
      <trkpt lat="46.06822" lon="6.09257">
        <ele>888.43</ele>
        <time>2024-01-29T15:38:02Z</time>
      </trkpt>
      <trkpt lat="46.06872" lon="6.09312">
        <ele>885.51</ele>
        <time>2024-01-29T15:38:12Z</time>
      </trkpt>
      <trkpt lat="46.06883" lon="6.09298">
        <ele>885.62</ele>
        <time>2024-01-29T15:38:14Z</time>
      </trkpt>
      <trkpt lat="46.06899" lon="6.09263">
        <ele>886.17</ele>
        <time>2024-01-29T15:38:19Z</time>
      </trkpt>
      <trkpt lat="46.06913" lon="6.09219">
        <ele>886.58</ele>
        <time>2024-01-29T15:38:24Z</time>
      </trkpt>
      <trkpt lat="46.06934" lon="6.09107">
        <ele>887.05</ele>
        <time>2024-01-29T15:38:37Z</time>
      </trkpt>
      <trkpt lat="46.06934" lon="6.0909">
        <ele>887.21</ele>
        <time>2024-01-29T15:38:38Z</time>
      </trkpt>
      <trkpt lat="46.06929" lon="6.09074">
        <ele>887.21</ele>
        <time>2024-01-29T15:38:40Z</time>
      </trkpt>
      <trkpt lat="46.06875" lon="6.08963">
        <ele>884.61</ele>
        <time>2024-01-29T15:38:55Z</time>
      </trkpt>
      <trkpt lat="46.06828" lon="6.08883">
        <ele>881.74</ele>
        <time>2024-01-29T15:39:05Z</time>
      </trkpt>
      <trkpt lat="46.06764" lon="6.08787">
        <ele>877.36</ele>
        <time>2024-01-29T15:39:19Z</time>
      </trkpt>
      <trkpt lat="46.06717" lon="6.08707">
        <ele>872.28</ele>
        <time>2024-01-29T15:39:30Z</time>
      </trkpt>
      <trkpt lat="46.06709" lon="6.08698">
        <ele>871.48</ele>
        <time>2024-01-29T15:39:32Z</time>
      </trkpt>
      <trkpt lat="46.06734" lon="6.08645">
        <ele>873.85</ele>
        <time>2024-01-29T15:39:38Z</time>
      </trkpt>
      <trkpt lat="46.06745" lon="6.08632">
        <ele>873.89</ele>
        <time>2024-01-29T15:39:40Z</time>
      </trkpt>
      <trkpt lat="46.06804" lon="6.08564">
        <ele>869.12</ele>
        <time>2024-01-29T15:39:59Z</time>
      </trkpt>
      <trkpt lat="46.06838" lon="6.08489">
        <ele>862.58</ele>
        <time>2024-01-29T15:40:14Z</time>
      </trkpt>
      <trkpt lat="46.06844" lon="6.08482">
        <ele>861.49</ele>
        <time>2024-01-29T15:40:16Z</time>
      </trkpt>
      <trkpt lat="46.06857" lon="6.08477">
        <ele>859.4</ele>
        <time>2024-01-29T15:40:19Z</time>
      </trkpt>
      <trkpt lat="46.06877" lon="6.08482">
        <ele>856.43</ele>
        <time>2024-01-29T15:40:24Z</time>
      </trkpt>
      <trkpt lat="46.06921" lon="6.08506">
        <ele>851.41</ele>
        <time>2024-01-29T15:40:34Z</time>
      </trkpt>
      <trkpt lat="46.06963" lon="6.08512">
        <ele>842.9</ele>
        <time>2024-01-29T15:40:43Z</time>
      </trkpt>
      <trkpt lat="46.07002" lon="6.0853">
        <ele>835.6</ele>
        <time>2024-01-29T15:40:51Z</time>
      </trkpt>
      <trkpt lat="46.07015" lon="6.08548">
        <ele>834.08</ele>
        <time>2024-01-29T15:40:55Z</time>
      </trkpt>
      <trkpt lat="46.07023" lon="6.08572">
        <ele>834.13</ele>
        <time>2024-01-29T15:40:59Z</time>
      </trkpt>
      <trkpt lat="46.07044" lon="6.08611">
        <ele>831</ele>
        <time>2024-01-29T15:41:06Z</time>
      </trkpt>
      <trkpt lat="46.07065" lon="6.08642">
        <ele>828.15</ele>
        <time>2024-01-29T15:41:11Z</time>
      </trkpt>
      <trkpt lat="46.0708" lon="6.08659">
        <ele>824.81</ele>
        <time>2024-01-29T15:41:15Z</time>
      </trkpt>
      <trkpt lat="46.07085" lon="6.0865">
        <ele>823.28</ele>
        <time>2024-01-29T15:41:17Z</time>
      </trkpt>
      <trkpt lat="46.07095" lon="6.0866">
        <ele>822.22</ele>
        <time>2024-01-29T15:41:18Z</time>
      </trkpt>
      <trkpt lat="46.07133" lon="6.08679">
        <ele>816.99</ele>
        <time>2024-01-29T15:41:23Z</time>
      </trkpt>
      <trkpt lat="46.07166" lon="6.08688">
        <ele>813.49</ele>
        <time>2024-01-29T15:41:26Z</time>
      </trkpt>
      <trkpt lat="46.07211" lon="6.08695">
        <ele>809.85</ele>
        <time>2024-01-29T15:41:31Z</time>
      </trkpt>
      <trkpt lat="46.07305" lon="6.0871">
        <ele>799.28</ele>
        <time>2024-01-29T15:41:42Z</time>
      </trkpt>
      <trkpt lat="46.07352" lon="6.08718">
        <ele>793.85</ele>
        <time>2024-01-29T15:41:47Z</time>
      </trkpt>
      <trkpt lat="46.07364" lon="6.0872">
        <ele>792.48</ele>
        <time>2024-01-29T15:41:48Z</time>
      </trkpt>
      <trkpt lat="46.07385" lon="6.08723">
        <ele>790.09</ele>
        <time>2024-01-29T15:41:51Z</time>
      </trkpt>
      <trkpt lat="46.07396" lon="6.08722">
        <ele>789.17</ele>
        <time>2024-01-29T15:41:52Z</time>
      </trkpt>
      <trkpt lat="46.07406" lon="6.08715">
        <ele>787.92</ele>
        <time>2024-01-29T15:41:53Z</time>
      </trkpt>
      <trkpt lat="46.07428" lon="6.0869">
        <ele>786.71</ele>
        <time>2024-01-29T15:41:57Z</time>
      </trkpt>
      <trkpt lat="46.0744" lon="6.08695">
        <ele>785.99</ele>
        <time>2024-01-29T15:41:58Z</time>
      </trkpt>
      <trkpt lat="46.07446" lon="6.08695">
        <ele>785.92</ele>
        <time>2024-01-29T15:41:59Z</time>
      </trkpt>
      <trkpt lat="46.07456" lon="6.08688">
        <ele>786.43</ele>
        <time>2024-01-29T15:42:00Z</time>
      </trkpt>
      <trkpt lat="46.07459" lon="6.08688">
        <ele>786.43</ele>
        <time>2024-01-29T15:42:01Z</time>
      </trkpt>
      <trkpt lat="46.07467" lon="6.087">
        <ele>786.16</ele>
        <time>2024-01-29T15:42:02Z</time>
      </trkpt>
      <trkpt lat="46.07468" lon="6.08726">
        <ele>784.66</ele>
        <time>2024-01-29T15:42:05Z</time>
      </trkpt>
      <trkpt lat="46.07497" lon="6.08727">
        <ele>786.31</ele>
        <time>2024-01-29T15:42:10Z</time>
      </trkpt>
      <trkpt lat="46.07523" lon="6.08717">
        <ele>788.62</ele>
        <time>2024-01-29T15:42:15Z</time>
      </trkpt>
      <trkpt lat="46.07565" lon="6.08665">
        <ele>791.5</ele>
        <time>2024-01-29T15:42:29Z</time>
      </trkpt>
      <trkpt lat="46.07584" lon="6.08648">
        <ele>792.55</ele>
        <time>2024-01-29T15:42:37Z</time>
      </trkpt>
      <trkpt lat="46.07624" lon="6.08636">
        <ele>795.04</ele>
        <time>2024-01-29T15:42:54Z</time>
      </trkpt>
      <trkpt lat="46.07675" lon="6.08598">
        <ele>801.95</ele>
        <time>2024-01-29T15:43:25Z</time>
      </trkpt>
      <trkpt lat="46.07717" lon="6.08532">
        <ele>808.68</ele>
        <time>2024-01-29T15:44:02Z</time>
      </trkpt>
      <trkpt lat="46.07762" lon="6.08479">
        <ele>816.95</ele>
        <time>2024-01-29T15:44:39Z</time>
      </trkpt>
      <trkpt lat="46.07793" lon="6.08416">
        <ele>823.34</ele>
        <time>2024-01-29T15:45:13Z</time>
      </trkpt>
      <trkpt lat="46.07809" lon="6.08368">
        <ele>828.11</ele>
        <time>2024-01-29T15:45:36Z</time>
      </trkpt>
      <trkpt lat="46.07843" lon="6.08299">
        <ele>834.73</ele>
        <time>2024-01-29T15:46:11Z</time>
      </trkpt>
      <trkpt lat="46.07896" lon="6.08254">
        <ele>840.26</ele>
        <time>2024-01-29T15:46:43Z</time>
      </trkpt>
      <trkpt lat="46.07907" lon="6.08239">
        <ele>841.26</ele>
        <time>2024-01-29T15:46:51Z</time>
      </trkpt>
      <trkpt lat="46.0791" lon="6.08222">
        <ele>841.23</ele>
        <time>2024-01-29T15:46:57Z</time>
      </trkpt>
      <trkpt lat="46.07907" lon="6.08188">
        <ele>841.01</ele>
        <time>2024-01-29T15:47:07Z</time>
      </trkpt>
      <trkpt lat="46.07908" lon="6.08159">
        <ele>840.71</ele>
        <time>2024-01-29T15:47:16Z</time>
      </trkpt>
      <trkpt lat="46.07919" lon="6.08056">
        <ele>842.79</ele>
        <time>2024-01-29T15:47:45Z</time>
      </trkpt>
      <trkpt lat="46.07935" lon="6.07992">
        <ele>844.93</ele>
        <time>2024-01-29T15:48:02Z</time>
      </trkpt>
      <trkpt lat="46.0795" lon="6.07949">
        <ele>846.17</ele>
        <time>2024-01-29T15:48:13Z</time>
      </trkpt>
      <trkpt lat="46.07957" lon="6.07888">
        <ele>846.23</ele>
        <time>2024-01-29T15:48:27Z</time>
      </trkpt>
      <trkpt lat="46.07957" lon="6.07869">
        <ele>846.12</ele>
        <time>2024-01-29T15:48:31Z</time>
      </trkpt>
      <trkpt lat="46.07936" lon="6.07859">
        <ele>847.2</ele>
        <time>2024-01-29T15:48:39Z</time>
      </trkpt>
      <trkpt lat="46.07931" lon="6.07854">
        <ele>847.39</ele>
        <time>2024-01-29T15:48:41Z</time>
      </trkpt>
      <trkpt lat="46.07928" lon="6.07845">
        <ele>847.41</ele>
        <time>2024-01-29T15:48:43Z</time>
      </trkpt>
      <trkpt lat="46.0793" lon="6.0783">
        <ele>847.66</ele>
        <time>2024-01-29T15:48:46Z</time>
      </trkpt>
      <trkpt lat="46.07972" lon="6.07746">
        <ele>847.56</ele>
        <time>2024-01-29T15:49:06Z</time>
      </trkpt>
      <trkpt lat="46.07977" lon="6.07726">
        <ele>847.36</ele>
        <time>2024-01-29T15:49:10Z</time>
      </trkpt>
      <trkpt lat="46.07977" lon="6.07714">
        <ele>847.31</ele>
        <time>2024-01-29T15:49:12Z</time>
      </trkpt>
      <trkpt lat="46.07972" lon="6.0769">
        <ele>847.65</ele>
        <time>2024-01-29T15:49:16Z</time>
      </trkpt>
      <trkpt lat="46.0795" lon="6.07628">
        <ele>849.28</ele>
        <time>2024-01-29T15:49:25Z</time>
      </trkpt>
      <trkpt lat="46.08022" lon="6.07594">
        <ele>846.19</ele>
        <time>2024-01-29T15:49:46Z</time>
      </trkpt>
      <trkpt lat="46.0807" lon="6.07557">
        <ele>841.06</ele>
        <time>2024-01-29T15:50:01Z</time>
      </trkpt>
      <trkpt lat="46.08066" lon="6.07519">
        <ele>841.32</ele>
        <time>2024-01-29T15:50:06Z</time>
      </trkpt>
      <trkpt lat="46.08053" lon="6.0731">
        <ele>841.32</ele>
        <time>2024-01-29T15:50:34Z</time>
      </trkpt>
      <trkpt lat="46.0806" lon="6.07199">
        <ele>842.59</ele>
        <time>2024-01-29T15:50:55Z</time>
      </trkpt>
      <trkpt lat="46.08034" lon="6.07172">
        <ele>845.11</ele>
        <time>2024-01-29T15:51:03Z</time>
      </trkpt>
      <trkpt lat="46.07962" lon="6.07115">
        <ele>849.73</ele>
        <time>2024-01-29T15:51:23Z</time>
      </trkpt>
      <trkpt lat="46.0793" lon="6.07084">
        <ele>850.85</ele>
        <time>2024-01-29T15:51:32Z</time>
      </trkpt>
      <trkpt lat="46.07853" lon="6.07038">
        <ele>850.03</ele>
        <time>2024-01-29T15:51:52Z</time>
      </trkpt>
      <trkpt lat="46.07868" lon="6.07012">
        <ele>851.26</ele>
        <time>2024-01-29T15:52:00Z</time>
      </trkpt>
      <trkpt lat="46.07882" lon="6.0697">
        <ele>852.69</ele>
        <time>2024-01-29T15:52:10Z</time>
      </trkpt>
      <trkpt lat="46.07895" lon="6.06903">
        <ele>853.1</ele>
        <time>2024-01-29T15:52:25Z</time>
      </trkpt>
      <trkpt lat="46.07897" lon="6.0685">
        <ele>852.84</ele>
        <time>2024-01-29T15:52:37Z</time>
      </trkpt>
      <trkpt lat="46.07868" lon="6.06709">
        <ele>851.6</ele>
        <time>2024-01-29T15:53:10Z</time>
      </trkpt>
      <trkpt lat="46.07872" lon="6.06702">
        <ele>851.51</ele>
        <time>2024-01-29T15:53:12Z</time>
      </trkpt>
      <trkpt lat="46.07885" lon="6.06702">
        <ele>851.24</ele>
        <time>2024-01-29T15:53:15Z</time>
      </trkpt>
      <trkpt lat="46.07891" lon="6.06695">
        <ele>850.95</ele>
        <time>2024-01-29T15:53:18Z</time>
      </trkpt>
      <trkpt lat="46.07915" lon="6.06598">
        <ele>851.35</ele>
        <time>2024-01-29T15:53:38Z</time>
      </trkpt>
      <trkpt lat="46.07952" lon="6.06494">
        <ele>850.79</ele>
        <time>2024-01-29T15:53:52Z</time>
      </trkpt>
      <trkpt lat="46.07957" lon="6.06469">
        <ele>850.01</ele>
        <time>2024-01-29T15:53:55Z</time>
      </trkpt>
      <trkpt lat="46.07964" lon="6.06411">
        <ele>847.46</ele>
        <time>2024-01-29T15:54:02Z</time>
      </trkpt>
      <trkpt lat="46.07966" lon="6.06363">
        <ele>845.67</ele>
        <time>2024-01-29T15:54:07Z</time>
      </trkpt>
      <trkpt lat="46.07966" lon="6.06334">
        <ele>845.13</ele>
        <time>2024-01-29T15:54:12Z</time>
      </trkpt>
      <trkpt lat="46.07974" lon="6.06228">
        <ele>846.88</ele>
        <time>2024-01-29T15:54:31Z</time>
      </trkpt>
      <trkpt lat="46.07961" lon="6.06229">
        <ele>847.04</ele>
        <time>2024-01-29T15:54:35Z</time>
      </trkpt>
      <trkpt lat="46.07953" lon="6.06195">
        <ele>847.77</ele>
        <time>2024-01-29T15:54:41Z</time>
      </trkpt>
      <trkpt lat="46.07952" lon="6.06165">
        <ele>848.03</ele>
        <time>2024-01-29T15:54:47Z</time>
      </trkpt>
      <trkpt lat="46.07939" lon="6.06043">
        <ele>848.97</ele>
        <time>2024-01-29T15:55:10Z</time>
      </trkpt>
      <trkpt lat="46.07928" lon="6.06014">
        <ele>848.41</ele>
        <time>2024-01-29T15:55:16Z</time>
      </trkpt>
      <trkpt lat="46.07888" lon="6.05929">
        <ele>845.78</ele>
        <time>2024-01-29T15:55:35Z</time>
      </trkpt>
      <trkpt lat="46.07884" lon="6.05912">
        <ele>844.98</ele>
        <time>2024-01-29T15:55:38Z</time>
      </trkpt>
      <trkpt lat="46.07884" lon="6.05897">
        <ele>844.1</ele>
        <time>2024-01-29T15:55:40Z</time>
      </trkpt>
      <trkpt lat="46.07905" lon="6.05756">
        <ele>834.07</ele>
        <time>2024-01-29T15:56:04Z</time>
      </trkpt>
      <trkpt lat="46.07795" lon="6.05628">
        <ele>827.02</ele>
        <time>2024-01-29T15:56:36Z</time>
      </trkpt>
      <trkpt lat="46.07793" lon="6.0562">
        <ele>826.45</ele>
        <time>2024-01-29T15:56:37Z</time>
      </trkpt>
      <trkpt lat="46.07794" lon="6.05615">
        <ele>826.25</ele>
        <time>2024-01-29T15:56:38Z</time>
      </trkpt>
      <trkpt lat="46.07814" lon="6.0559">
        <ele>825.32</ele>
        <time>2024-01-29T15:56:41Z</time>
      </trkpt>
      <trkpt lat="46.07869" lon="6.05562">
        <ele>822.56</ele>
        <time>2024-01-29T15:56:49Z</time>
      </trkpt>
      <trkpt lat="46.07901" lon="6.05539">
        <ele>817.73</ele>
        <time>2024-01-29T15:56:54Z</time>
      </trkpt>
      <trkpt lat="46.07935" lon="6.0551">
        <ele>810.72</ele>
        <time>2024-01-29T15:56:59Z</time>
      </trkpt>
      <trkpt lat="46.0796" lon="6.05476">
        <ele>804.74</ele>
        <time>2024-01-29T15:57:04Z</time>
      </trkpt>
      <trkpt lat="46.07988" lon="6.05424">
        <ele>802.23</ele>
        <time>2024-01-29T15:57:10Z</time>
      </trkpt>
      <trkpt lat="46.07992" lon="6.05406">
        <ele>801.5</ele>
        <time>2024-01-29T15:57:11Z</time>
      </trkpt>
      <trkpt lat="46.0802" lon="6.05373">
        <ele>801.3</ele>
        <time>2024-01-29T15:57:16Z</time>
      </trkpt>
      <trkpt lat="46.08014" lon="6.05352">
        <ele>800.14</ele>
        <time>2024-01-29T15:57:18Z</time>
      </trkpt>
      <trkpt lat="46.08012" lon="6.05317">
        <ele>799.7</ele>
        <time>2024-01-29T15:57:21Z</time>
      </trkpt>
      <trkpt lat="46.08005" lon="6.05272">
        <ele>800.09</ele>
        <time>2024-01-29T15:57:26Z</time>
      </trkpt>
      <trkpt lat="46.07964" lon="6.05055">
        <ele>812.28</ele>
        <time>2024-01-29T15:58:07Z</time>
      </trkpt>
      <trkpt lat="46.07966" lon="6.05017">
        <ele>814.32</ele>
        <time>2024-01-29T15:58:17Z</time>
      </trkpt>
      <trkpt lat="46.07964" lon="6.04995">
        <ele>815.21</ele>
        <time>2024-01-29T15:58:23Z</time>
      </trkpt>
      <trkpt lat="46.07918" lon="6.04696">
        <ele>816.13</ele>
        <time>2024-01-29T15:59:28Z</time>
      </trkpt>
      <trkpt lat="46.07915" lon="6.04672">
        <ele>815.55</ele>
        <time>2024-01-29T15:59:32Z</time>
      </trkpt>
      <trkpt lat="46.07911" lon="6.04604">
        <ele>815.03</ele>
        <time>2024-01-29T15:59:41Z</time>
      </trkpt>
      <trkpt lat="46.07905" lon="6.04562">
        <ele>814.59</ele>
        <time>2024-01-29T15:59:47Z</time>
      </trkpt>
      <trkpt lat="46.07879" lon="6.04466">
        <ele>815.42</ele>
        <time>2024-01-29T15:59:59Z</time>
      </trkpt>
      <trkpt lat="46.07852" lon="6.04333">
        <ele>813.64</ele>
        <time>2024-01-29T16:00:15Z</time>
      </trkpt>
      <trkpt lat="46.07816" lon="6.04152">
        <ele>809.59</ele>
        <time>2024-01-29T16:00:35Z</time>
      </trkpt>
      <trkpt lat="46.07793" lon="6.04062">
        <ele>807.46</ele>
        <time>2024-01-29T16:00:45Z</time>
      </trkpt>
      <trkpt lat="46.07784" lon="6.04016">
        <ele>805.39</ele>
        <time>2024-01-29T16:00:50Z</time>
      </trkpt>
      <trkpt lat="46.07781" lon="6.04">
        <ele>804.56</ele>
        <time>2024-01-29T16:00:51Z</time>
      </trkpt>
      <trkpt lat="46.07769" lon="6.03971">
        <ele>802.41</ele>
        <time>2024-01-29T16:00:55Z</time>
      </trkpt>
      <trkpt lat="46.07744" lon="6.03922">
        <ele>797.9</ele>
        <time>2024-01-29T16:01:01Z</time>
      </trkpt>
      <trkpt lat="46.07738" lon="6.03904">
        <ele>796.96</ele>
        <time>2024-01-29T16:01:03Z</time>
      </trkpt>
      <trkpt lat="46.07728" lon="6.03848">
        <ele>793.75</ele>
        <time>2024-01-29T16:01:08Z</time>
      </trkpt>
      <trkpt lat="46.07732" lon="6.03801">
        <ele>791.44</ele>
        <time>2024-01-29T16:01:13Z</time>
      </trkpt>
      <trkpt lat="46.07759" lon="6.0362">
        <ele>782.68</ele>
        <time>2024-01-29T16:01:31Z</time>
      </trkpt>
      <trkpt lat="46.07768" lon="6.03603">
        <ele>781.6</ele>
        <time>2024-01-29T16:01:33Z</time>
      </trkpt>
      <trkpt lat="46.07748" lon="6.03595">
        <ele>781.92</ele>
        <time>2024-01-29T16:01:36Z</time>
      </trkpt>
      <trkpt lat="46.07703" lon="6.03591">
        <ele>780.44</ele>
        <time>2024-01-29T16:01:42Z</time>
      </trkpt>
      <trkpt lat="46.07695" lon="6.03598">
        <ele>780.69</ele>
        <time>2024-01-29T16:01:43Z</time>
      </trkpt>
      <trkpt lat="46.07688" lon="6.03611">
        <ele>781.23</ele>
        <time>2024-01-29T16:01:44Z</time>
      </trkpt>
      <trkpt lat="46.07683" lon="6.03613">
        <ele>781.06</ele>
        <time>2024-01-29T16:01:45Z</time>
      </trkpt>
      <trkpt lat="46.07652" lon="6.036">
        <ele>778.76</ele>
        <time>2024-01-29T16:01:49Z</time>
      </trkpt>
      <trkpt lat="46.0765" lon="6.03596">
        <ele>778.76</ele>
        <time>2024-01-29T16:01:49Z</time>
      </trkpt>
      <trkpt lat="46.07634" lon="6.03576">
        <ele>776.92</ele>
        <time>2024-01-29T16:01:52Z</time>
      </trkpt>
      <trkpt lat="46.07617" lon="6.03569">
        <ele>775.84</ele>
        <time>2024-01-29T16:01:54Z</time>
      </trkpt>
      <trkpt lat="46.0758" lon="6.03567">
        <ele>774.41</ele>
        <time>2024-01-29T16:01:58Z</time>
      </trkpt>
      <trkpt lat="46.07486" lon="6.03532">
        <ele>767.71</ele>
        <time>2024-01-29T16:02:10Z</time>
      </trkpt>
      <trkpt lat="46.07461" lon="6.03531">
        <ele>765.4</ele>
        <time>2024-01-29T16:02:13Z</time>
      </trkpt>
      <trkpt lat="46.07391" lon="6.03548">
        <ele>759.19</ele>
        <time>2024-01-29T16:02:22Z</time>
      </trkpt>
      <trkpt lat="46.07347" lon="6.03524">
        <ele>754.13</ele>
        <time>2024-01-29T16:02:28Z</time>
      </trkpt>
      <trkpt lat="46.07273" lon="6.03515">
        <ele>746.74</ele>
        <time>2024-01-29T16:02:38Z</time>
      </trkpt>
      <trkpt lat="46.07259" lon="6.03512">
        <ele>745.48</ele>
        <time>2024-01-29T16:02:40Z</time>
      </trkpt>
      <trkpt lat="46.07235" lon="6.03492">
        <ele>742.49</ele>
        <time>2024-01-29T16:02:44Z</time>
      </trkpt>
      <trkpt lat="46.07149" lon="6.03408">
        <ele>733.73</ele>
        <time>2024-01-29T16:02:57Z</time>
      </trkpt>
      <trkpt lat="46.07133" lon="6.03385">
        <ele>731.5</ele>
        <time>2024-01-29T16:03:00Z</time>
      </trkpt>
      <trkpt lat="46.07122" lon="6.03367">
        <ele>729.89</ele>
        <time>2024-01-29T16:03:04Z</time>
      </trkpt>
      <trkpt lat="46.07075" lon="6.03308">
        <ele>723.89</ele>
        <time>2024-01-29T16:03:17Z</time>
      </trkpt>
      <trkpt lat="46.07063" lon="6.03286">
        <ele>721.53</ele>
        <time>2024-01-29T16:03:21Z</time>
      </trkpt>
      <trkpt lat="46.07067" lon="6.03281">
        <ele>721.16</ele>
        <time>2024-01-29T16:03:21Z</time>
      </trkpt>
      <trkpt lat="46.07068" lon="6.03274">
        <ele>720.69</ele>
        <time>2024-01-29T16:03:22Z</time>
      </trkpt>
      <trkpt lat="46.07069" lon="6.03229">
        <ele>715.49</ele>
        <time>2024-01-29T16:03:25Z</time>
      </trkpt>
      <trkpt lat="46.07075" lon="6.03179">
        <ele>710.79</ele>
        <time>2024-01-29T16:03:29Z</time>
      </trkpt>
      <trkpt lat="46.07075" lon="6.03161">
        <ele>709.38</ele>
        <time>2024-01-29T16:03:31Z</time>
      </trkpt>
      <trkpt lat="46.07068" lon="6.0311">
        <ele>705.26</ele>
        <time>2024-01-29T16:03:34Z</time>
      </trkpt>
      <trkpt lat="46.07055" lon="6.03049">
        <ele>700.01</ele>
        <time>2024-01-29T16:03:39Z</time>
      </trkpt>
      <trkpt lat="46.07054" lon="6.03029">
        <ele>698.2</ele>
        <time>2024-01-29T16:03:41Z</time>
      </trkpt>
      <trkpt lat="46.07054" lon="6.03013">
        <ele>697.08</ele>
        <time>2024-01-29T16:03:42Z</time>
      </trkpt>
      <trkpt lat="46.07054" lon="6.03001">
        <ele>696.06</ele>
        <time>2024-01-29T16:03:43Z</time>
      </trkpt>
      <trkpt lat="46.07046" lon="6.02956">
        <ele>692.42</ele>
        <time>2024-01-29T16:03:47Z</time>
      </trkpt>
      <trkpt lat="46.07043" lon="6.02899">
        <ele>690.19</ele>
        <time>2024-01-29T16:03:51Z</time>
      </trkpt>
      <trkpt lat="46.07038" lon="6.02884">
        <ele>688.99</ele>
        <time>2024-01-29T16:03:53Z</time>
      </trkpt>
      <trkpt lat="46.07052" lon="6.02837">
        <ele>689.82</ele>
        <time>2024-01-29T16:03:57Z</time>
      </trkpt>
      <trkpt lat="46.07056" lon="6.02815">
        <ele>689.46</ele>
        <time>2024-01-29T16:04:00Z</time>
      </trkpt>
      <trkpt lat="46.07065" lon="6.02791">
        <ele>689.43</ele>
        <time>2024-01-29T16:04:03Z</time>
      </trkpt>
      <trkpt lat="46.0707" lon="6.02778">
        <ele>690.1</ele>
        <time>2024-01-29T16:04:04Z</time>
      </trkpt>
      <trkpt lat="46.0708" lon="6.02748">
        <ele>689.96</ele>
        <time>2024-01-29T16:04:08Z</time>
      </trkpt>
      <trkpt lat="46.0709" lon="6.0272">
        <ele>689.64</ele>
        <time>2024-01-29T16:04:13Z</time>
      </trkpt>
      <trkpt lat="46.0711" lon="6.0268">
        <ele>689.54</ele>
        <time>2024-01-29T16:04:20Z</time>
      </trkpt>
      <trkpt lat="46.07128" lon="6.02668">
        <ele>690.25</ele>
        <time>2024-01-29T16:04:25Z</time>
      </trkpt>
      <trkpt lat="46.07151" lon="6.02661">
        <ele>692.15</ele>
        <time>2024-01-29T16:04:29Z</time>
      </trkpt>
      <trkpt lat="46.07166" lon="6.02661">
        <ele>694.1</ele>
        <time>2024-01-29T16:04:32Z</time>
      </trkpt>
      <trkpt lat="46.07168" lon="6.02649">
        <ele>692.58</ele>
        <time>2024-01-29T16:04:33Z</time>
      </trkpt>
      <trkpt lat="46.07197" lon="6.02618">
        <ele>690.95</ele>
        <time>2024-01-29T16:04:38Z</time>
      </trkpt>
      <trkpt lat="46.07203" lon="6.02608">
        <ele>690.45</ele>
        <time>2024-01-29T16:04:39Z</time>
      </trkpt>
      <trkpt lat="46.07207" lon="6.02599">
        <ele>689.99</ele>
        <time>2024-01-29T16:04:40Z</time>
      </trkpt>
      <trkpt lat="46.07206" lon="6.02581">
        <ele>689.93</ele>
        <time>2024-01-29T16:04:42Z</time>
      </trkpt>
      <trkpt lat="46.07203" lon="6.02577">
        <ele>690.04</ele>
        <time>2024-01-29T16:04:43Z</time>
      </trkpt>
      <trkpt lat="46.07197" lon="6.02572">
        <ele>689.66</ele>
        <time>2024-01-29T16:04:44Z</time>
      </trkpt>
      <trkpt lat="46.07092" lon="6.02537">
        <ele>680.93</ele>
        <time>2024-01-29T16:04:57Z</time>
      </trkpt>
      <trkpt lat="46.07071" lon="6.02527">
        <ele>680.18</ele>
        <time>2024-01-29T16:05:00Z</time>
      </trkpt>
      <trkpt lat="46.07045" lon="6.025">
        <ele>679.05</ele>
        <time>2024-01-29T16:05:03Z</time>
      </trkpt>
      <trkpt lat="46.07017" lon="6.02455">
        <ele>677.41</ele>
        <time>2024-01-29T16:05:08Z</time>
      </trkpt>
      <trkpt lat="46.06993" lon="6.02411">
        <ele>676.44</ele>
        <time>2024-01-29T16:05:13Z</time>
      </trkpt>
      <trkpt lat="46.06955" lon="6.02344">
        <ele>671.18</ele>
        <time>2024-01-29T16:05:20Z</time>
      </trkpt>
      <trkpt lat="46.06916" lon="6.0224">
        <ele>666.23</ele>
        <time>2024-01-29T16:05:31Z</time>
      </trkpt>
      <trkpt lat="46.06892" lon="6.02169">
        <ele>663.65</ele>
        <time>2024-01-29T16:05:38Z</time>
      </trkpt>
      <trkpt lat="46.06874" lon="6.02102">
        <ele>661.8</ele>
        <time>2024-01-29T16:05:45Z</time>
      </trkpt>
      <trkpt lat="46.06865" lon="6.02082">
        <ele>661.16</ele>
        <time>2024-01-29T16:05:47Z</time>
      </trkpt>
      <trkpt lat="46.0685" lon="6.02061">
        <ele>659.57</ele>
        <time>2024-01-29T16:05:50Z</time>
      </trkpt>
      <trkpt lat="46.06817" lon="6.02033">
        <ele>657.25</ele>
        <time>2024-01-29T16:05:55Z</time>
      </trkpt>
      <trkpt lat="46.06752" lon="6.01978">
        <ele>653.66</ele>
        <time>2024-01-29T16:06:04Z</time>
      </trkpt>
      <trkpt lat="46.06685" lon="6.01955">
        <ele>649.61</ele>
        <time>2024-01-29T16:06:13Z</time>
      </trkpt>
      <trkpt lat="46.06661" lon="6.01947">
        <ele>648.51</ele>
        <time>2024-01-29T16:06:16Z</time>
      </trkpt>
      <trkpt lat="46.06636" lon="6.01938">
        <ele>647.67</ele>
        <time>2024-01-29T16:06:20Z</time>
      </trkpt>
      <trkpt lat="46.06634" lon="6.01924">
        <ele>648.66</ele>
        <time>2024-01-29T16:06:21Z</time>
      </trkpt>
      <trkpt lat="46.06561" lon="6.01838">
        <ele>651.91</ele>
        <time>2024-01-29T16:06:36Z</time>
      </trkpt>
      <trkpt lat="46.06522" lon="6.01819">
        <ele>652.59</ele>
        <time>2024-01-29T16:06:44Z</time>
      </trkpt>
      <trkpt lat="46.06482" lon="6.01793">
        <ele>652</ele>
        <time>2024-01-29T16:06:56Z</time>
      </trkpt>
      <trkpt lat="46.0643" lon="6.0175">
        <ele>652.49</ele>
        <time>2024-01-29T16:07:13Z</time>
      </trkpt>
      <trkpt lat="46.06346" lon="6.01672">
        <ele>656.72</ele>
        <time>2024-01-29T16:07:46Z</time>
      </trkpt>
      <trkpt lat="46.06271" lon="6.01585">
        <ele>661.48</ele>
        <time>2024-01-29T16:08:19Z</time>
      </trkpt>
      <trkpt lat="46.06256" lon="6.01569">
        <ele>662.48</ele>
        <time>2024-01-29T16:08:26Z</time>
      </trkpt>
      <trkpt lat="46.06245" lon="6.01562">
        <ele>662.32</ele>
        <time>2024-01-29T16:08:31Z</time>
      </trkpt>
      <trkpt lat="46.06196" lon="6.01547">
        <ele>662.01</ele>
        <time>2024-01-29T16:08:49Z</time>
      </trkpt>
      <trkpt lat="46.06187" lon="6.01544">
        <ele>662.12</ele>
        <time>2024-01-29T16:08:54Z</time>
      </trkpt>
      <trkpt lat="46.06106" lon="6.01506">
        <ele>661.67</ele>
        <time>2024-01-29T16:09:35Z</time>
      </trkpt>
      <trkpt lat="46.06074" lon="6.01482">
        <ele>662.94</ele>
        <time>2024-01-29T16:09:52Z</time>
      </trkpt>
      <trkpt lat="46.05992" lon="6.01401">
        <ele>668.17</ele>
        <time>2024-01-29T16:10:38Z</time>
      </trkpt>
      <trkpt lat="46.05954" lon="6.01353">
        <ele>671.14</ele>
        <time>2024-01-29T16:11:01Z</time>
      </trkpt>
      <trkpt lat="46.05937" lon="6.01328">
        <ele>672.48</ele>
        <time>2024-01-29T16:11:13Z</time>
      </trkpt>
      <trkpt lat="46.05889" lon="6.0125">
        <ele>677.59</ele>
        <time>2024-01-29T16:11:42Z</time>
      </trkpt>
      <trkpt lat="46.05844" lon="6.0115">
        <ele>680.37</ele>
        <time>2024-01-29T16:12:12Z</time>
      </trkpt>
      <trkpt lat="46.05799" lon="6.01036">
        <ele>678.59</ele>
        <time>2024-01-29T16:12:41Z</time>
      </trkpt>
      <trkpt lat="46.05774" lon="6.0096">
        <ele>674.86</ele>
        <time>2024-01-29T16:12:58Z</time>
      </trkpt>
      <trkpt lat="46.05765" lon="6.00863">
        <ele>671.98</ele>
        <time>2024-01-29T16:13:16Z</time>
      </trkpt>
      <trkpt lat="46.05764" lon="6.00839">
        <ele>671.21</ele>
        <time>2024-01-29T16:13:21Z</time>
      </trkpt>
      <trkpt lat="46.05753" lon="6.00794">
        <ele>669.78</ele>
        <time>2024-01-29T16:13:30Z</time>
      </trkpt>
      <trkpt lat="46.05761" lon="6.00781">
        <ele>669.92</ele>
        <time>2024-01-29T16:13:33Z</time>
      </trkpt>
      <trkpt lat="46.05793" lon="6.00748">
        <ele>670.02</ele>
        <time>2024-01-29T16:13:44Z</time>
      </trkpt>
      <trkpt lat="46.0587" lon="6.00723">
        <ele>671.54</ele>
        <time>2024-01-29T16:14:05Z</time>
      </trkpt>
      <trkpt lat="46.05887" lon="6.00708">
        <ele>670.6</ele>
        <time>2024-01-29T16:14:10Z</time>
      </trkpt>
      <trkpt lat="46.05898" lon="6.0069">
        <ele>669.72</ele>
        <time>2024-01-29T16:14:14Z</time>
      </trkpt>
      <trkpt lat="46.059" lon="6.00678">
        <ele>668.76</ele>
        <time>2024-01-29T16:14:16Z</time>
      </trkpt>
      <trkpt lat="46.05861" lon="6.00669">
        <ele>667.74</ele>
        <time>2024-01-29T16:14:22Z</time>
      </trkpt>
      <trkpt lat="46.05728" lon="6.00626">
        <ele>662.16</ele>
        <time>2024-01-29T16:14:41Z</time>
      </trkpt>
      <trkpt lat="46.05672" lon="6.00577">
        <ele>659.94</ele>
        <time>2024-01-29T16:14:52Z</time>
      </trkpt>
      <trkpt lat="46.05633" lon="6.00534">
        <ele>659.33</ele>
        <time>2024-01-29T16:15:01Z</time>
      </trkpt>
      <trkpt lat="46.05543" lon="6.00467">
        <ele>659.34</ele>
        <time>2024-01-29T16:15:23Z</time>
      </trkpt>
      <trkpt lat="46.05477" lon="6.00454">
        <ele>658.19</ele>
        <time>2024-01-29T16:15:45Z</time>
      </trkpt>
      <trkpt lat="46.05444" lon="6.00441">
        <ele>657.75</ele>
        <time>2024-01-29T16:15:56Z</time>
      </trkpt>
      <trkpt lat="46.05421" lon="6.00435">
        <ele>657.35</ele>
        <time>2024-01-29T16:16:02Z</time>
      </trkpt>
      <trkpt lat="46.0526" lon="6.00412">
        <ele>655.42</ele>
        <time>2024-01-29T16:16:43Z</time>
      </trkpt>
      <trkpt lat="46.05231" lon="6.00399">
        <ele>654.48</ele>
        <time>2024-01-29T16:16:51Z</time>
      </trkpt>
      <trkpt lat="46.05073" lon="6.00364">
        <ele>645.68</ele>
        <time>2024-01-29T16:17:28Z</time>
      </trkpt>
      <trkpt lat="46.05042" lon="6.00359">
        <ele>644.29</ele>
        <time>2024-01-29T16:17:35Z</time>
      </trkpt>
      <trkpt lat="46.04994" lon="6.00351">
        <ele>642.14</ele>
        <time>2024-01-29T16:17:46Z</time>
      </trkpt>
      <trkpt lat="46.04827" lon="6.00306">
        <ele>633.03</ele>
        <time>2024-01-29T16:18:23Z</time>
      </trkpt>
      <trkpt lat="46.04766" lon="6.00293">
        <ele>629.16</ele>
        <time>2024-01-29T16:18:37Z</time>
      </trkpt>
      <trkpt lat="46.04739" lon="6.00298">
        <ele>626.99</ele>
        <time>2024-01-29T16:18:42Z</time>
      </trkpt>
      <trkpt lat="46.04681" lon="6.0029">
        <ele>622.31</ele>
        <time>2024-01-29T16:18:54Z</time>
      </trkpt>
      <trkpt lat="46.04647" lon="6.00298">
        <ele>619.47</ele>
        <time>2024-01-29T16:19:01Z</time>
      </trkpt>
      <trkpt lat="46.04521" lon="6.00225">
        <ele>606.99</ele>
        <time>2024-01-29T16:19:29Z</time>
      </trkpt>
      <trkpt lat="46.04444" lon="6.00221">
        <ele>599.05</ele>
        <time>2024-01-29T16:19:46Z</time>
      </trkpt>
      <trkpt lat="46.04457" lon="6.00174">
        <ele>599.3</ele>
        <time>2024-01-29T16:19:51Z</time>
      </trkpt>
      <trkpt lat="46.04467" lon="6.00121">
        <ele>598.78</ele>
        <time>2024-01-29T16:19:56Z</time>
      </trkpt>
      <trkpt lat="46.04472" lon="6.00071">
        <ele>597.1</ele>
        <time>2024-01-29T16:20:01Z</time>
      </trkpt>
      <trkpt lat="46.04478" lon="6.00027">
        <ele>595.95</ele>
        <time>2024-01-29T16:20:05Z</time>
      </trkpt>
      <trkpt lat="46.04511" lon="5.99936">
        <ele>592.48</ele>
        <time>2024-01-29T16:20:16Z</time>
      </trkpt>
      <trkpt lat="46.04511" lon="5.99885">
        <ele>591.66</ele>
        <time>2024-01-29T16:20:20Z</time>
      </trkpt>
      <trkpt lat="46.04507" lon="5.99836">
        <ele>590.69</ele>
        <time>2024-01-29T16:20:25Z</time>
      </trkpt>
      <trkpt lat="46.04512" lon="5.9971">
        <ele>584.98</ele>
        <time>2024-01-29T16:20:36Z</time>
      </trkpt>
      <trkpt lat="46.0449" lon="5.99695">
        <ele>584.19</ele>
        <time>2024-01-29T16:20:42Z</time>
      </trkpt>
      <trkpt lat="46.04486" lon="5.99678">
        <ele>583.44</ele>
        <time>2024-01-29T16:20:44Z</time>
      </trkpt>
      <trkpt lat="46.04484" lon="5.99635">
        <ele>580.81</ele>
        <time>2024-01-29T16:20:51Z</time>
      </trkpt>
      <trkpt lat="46.0448" lon="5.99624">
        <ele>580.5</ele>
        <time>2024-01-29T16:20:53Z</time>
      </trkpt>
      <trkpt lat="46.04467" lon="5.99525">
        <ele>575.09</ele>
        <time>2024-01-29T16:21:08Z</time>
      </trkpt>
      <trkpt lat="46.04456" lon="5.9948">
        <ele>571.49</ele>
        <time>2024-01-29T16:21:15Z</time>
      </trkpt>
      <trkpt lat="46.0442" lon="5.9936">
        <ele>564.18</ele>
        <time>2024-01-29T16:21:35Z</time>
      </trkpt>
      <trkpt lat="46.04387" lon="5.99272">
        <ele>557.7</ele>
        <time>2024-01-29T16:21:49Z</time>
      </trkpt>
      <trkpt lat="46.04387" lon="5.99239">
        <ele>555.66</ele>
        <time>2024-01-29T16:21:54Z</time>
      </trkpt>
      <trkpt lat="46.04374" lon="5.99194">
        <ele>552.11</ele>
        <time>2024-01-29T16:22:01Z</time>
      </trkpt>
      <trkpt lat="46.04373" lon="5.99155">
        <ele>549</ele>
        <time>2024-01-29T16:22:07Z</time>
      </trkpt>
      <trkpt lat="46.04377" lon="5.99124">
        <ele>545.93</ele>
        <time>2024-01-29T16:22:11Z</time>
      </trkpt>
      <trkpt lat="46.04377" lon="5.991">
        <ele>543.86</ele>
        <time>2024-01-29T16:22:14Z</time>
      </trkpt>
      <trkpt lat="46.04369" lon="5.99062">
        <ele>539.91</ele>
        <time>2024-01-29T16:22:20Z</time>
      </trkpt>
      <trkpt lat="46.04363" lon="5.98965">
        <ele>529.98</ele>
        <time>2024-01-29T16:22:33Z</time>
      </trkpt>
      <trkpt lat="46.04358" lon="5.98933">
        <ele>527.35</ele>
        <time>2024-01-29T16:22:38Z</time>
      </trkpt>
      <trkpt lat="46.04353" lon="5.98851">
        <ele>521.44</ele>
        <time>2024-01-29T16:22:49Z</time>
      </trkpt>
      <trkpt lat="46.04353" lon="5.98802">
        <ele>516.9</ele>
        <time>2024-01-29T16:22:56Z</time>
      </trkpt>
      <trkpt lat="46.04356" lon="5.98776">
        <ele>514.98</ele>
        <time>2024-01-29T16:23:00Z</time>
      </trkpt>
      <trkpt lat="46.0437" lon="5.98723">
        <ele>510.28</ele>
        <time>2024-01-29T16:23:08Z</time>
      </trkpt>
      <trkpt lat="46.04404" lon="5.98652">
        <ele>505.55</ele>
        <time>2024-01-29T16:23:21Z</time>
      </trkpt>
      <trkpt lat="46.04406" lon="5.98633">
        <ele>504.73</ele>
        <time>2024-01-29T16:23:23Z</time>
      </trkpt>
      <trkpt lat="46.04403" lon="5.98607">
        <ele>504.03</ele>
        <time>2024-01-29T16:23:27Z</time>
      </trkpt>
      <trkpt lat="46.0438" lon="5.98534">
        <ele>499.2</ele>
        <time>2024-01-29T16:23:39Z</time>
      </trkpt>
      <trkpt lat="46.04359" lon="5.98447">
        <ele>492.55</ele>
        <time>2024-01-29T16:23:52Z</time>
      </trkpt>
      <trkpt lat="46.04342" lon="5.9841">
        <ele>487.96</ele>
        <time>2024-01-29T16:23:59Z</time>
      </trkpt>
      <trkpt lat="46.04309" lon="5.98354">
        <ele>479.6</ele>
        <time>2024-01-29T16:24:09Z</time>
      </trkpt>
      <trkpt lat="46.0431" lon="5.98337">
        <ele>478.91</ele>
        <time>2024-01-29T16:24:12Z</time>
      </trkpt>
      <trkpt lat="46.04252" lon="5.98288">
        <ele>475.44</ele>
        <time>2024-01-29T16:24:26Z</time>
      </trkpt>
      <trkpt lat="46.04222" lon="5.98267">
        <ele>473.19</ele>
        <time>2024-01-29T16:24:35Z</time>
      </trkpt>
      <trkpt lat="46.04149" lon="5.98224">
        <ele>467.1</ele>
        <time>2024-01-29T16:24:56Z</time>
      </trkpt>
      <trkpt lat="46.04083" lon="5.98239">
        <ele>469.38</ele>
        <time>2024-01-29T16:25:24Z</time>
      </trkpt>
      <trkpt lat="46.04061" lon="5.98214">
        <ele>470.56</ele>
        <time>2024-01-29T16:25:39Z</time>
      </trkpt>
      <trkpt lat="46.04008" lon="5.98192">
        <ele>475.41</ele>
        <time>2024-01-29T16:26:12Z</time>
      </trkpt>
      <trkpt lat="46.03956" lon="5.98201">
        <ele>482.17</ele>
        <time>2024-01-29T16:26:46Z</time>
      </trkpt>
      <trkpt lat="46.03905" lon="5.98221">
        <ele>488.68</ele>
        <time>2024-01-29T16:27:20Z</time>
      </trkpt>
      <trkpt lat="46.03871" lon="5.9823">
        <ele>492.85</ele>
        <time>2024-01-29T16:27:43Z</time>
      </trkpt>
      <trkpt lat="46.03844" lon="5.98219">
        <ele>494.95</ele>
        <time>2024-01-29T16:28:02Z</time>
      </trkpt>
      <trkpt lat="46.03806" lon="5.98196">
        <ele>497.17</ele>
        <time>2024-01-29T16:28:30Z</time>
      </trkpt>
      <trkpt lat="46.03791" lon="5.98193">
        <ele>498.71</ele>
        <time>2024-01-29T16:28:39Z</time>
      </trkpt>
      <trkpt lat="46.03776" lon="5.98195">
        <ele>500.26</ele>
        <time>2024-01-29T16:28:49Z</time>
      </trkpt>
      <trkpt lat="46.03747" lon="5.98207">
        <ele>504.36</ele>
        <time>2024-01-29T16:29:09Z</time>
      </trkpt>
      <trkpt lat="46.03715" lon="5.98215">
        <ele>508.08</ele>
        <time>2024-01-29T16:29:29Z</time>
      </trkpt>
      <trkpt lat="46.03617" lon="5.9823">
        <ele>517.2</ele>
        <time>2024-01-29T16:30:26Z</time>
      </trkpt>
      <trkpt lat="46.03597" lon="5.98237">
        <ele>518.74</ele>
        <time>2024-01-29T16:30:37Z</time>
      </trkpt>
      <trkpt lat="46.03532" lon="5.98294">
        <ele>524.59</ele>
        <time>2024-01-29T16:31:15Z</time>
      </trkpt>
      <trkpt lat="46.03446" lon="5.98322">
        <ele>528.29</ele>
        <time>2024-01-29T16:31:49Z</time>
      </trkpt>
      <trkpt lat="46.03228" lon="5.98376">
        <ele>542.02</ele>
        <time>2024-01-29T16:33:14Z</time>
      </trkpt>
      <trkpt lat="46.0313" lon="5.98405">
        <ele>547.22</ele>
        <time>2024-01-29T16:33:51Z</time>
      </trkpt>
      <trkpt lat="46.03068" lon="5.98397">
        <ele>550.28</ele>
        <time>2024-01-29T16:34:13Z</time>
      </trkpt>
      <trkpt lat="46.03028" lon="5.98383">
        <ele>552.06</ele>
        <time>2024-01-29T16:34:27Z</time>
      </trkpt>
      <trkpt lat="46.02988" lon="5.98374">
        <ele>553.88</ele>
        <time>2024-01-29T16:34:40Z</time>
      </trkpt>
      <trkpt lat="46.02892" lon="5.98371">
        <ele>556.73</ele>
        <time>2024-01-29T16:35:07Z</time>
      </trkpt>
      <trkpt lat="46.02805" lon="5.98343">
        <ele>559.43</ele>
        <time>2024-01-29T16:35:28Z</time>
      </trkpt>
      <trkpt lat="46.02797" lon="5.98343">
        <ele>559.59</ele>
        <time>2024-01-29T16:35:30Z</time>
      </trkpt>
      <trkpt lat="46.02786" lon="5.98335">
        <ele>559.87</ele>
        <time>2024-01-29T16:35:32Z</time>
      </trkpt>
      <trkpt lat="46.02782" lon="5.9832">
        <ele>559.97</ele>
        <time>2024-01-29T16:35:35Z</time>
      </trkpt>
      <trkpt lat="46.02747" lon="5.98234">
        <ele>560.69</ele>
        <time>2024-01-29T16:35:46Z</time>
      </trkpt>
      <trkpt lat="46.0268" lon="5.98166">
        <ele>560.36</ele>
        <time>2024-01-29T16:35:58Z</time>
      </trkpt>
      <trkpt lat="46.02638" lon="5.98141">
        <ele>558.32</ele>
        <time>2024-01-29T16:36:04Z</time>
      </trkpt>
      <trkpt lat="46.02627" lon="5.98137">
        <ele>557.38</ele>
        <time>2024-01-29T16:36:05Z</time>
      </trkpt>
      <trkpt lat="46.0261" lon="5.98137">
        <ele>555.76</ele>
        <time>2024-01-29T16:36:07Z</time>
      </trkpt>
      <trkpt lat="46.02594" lon="5.98148">
        <ele>554.26</ele>
        <time>2024-01-29T16:36:10Z</time>
      </trkpt>
      <trkpt lat="46.0259" lon="5.97893">
        <ele>541.8</ele>
        <time>2024-01-29T16:36:32Z</time>
      </trkpt>
      <trkpt lat="46.02592" lon="5.9779">
        <ele>536.06</ele>
        <time>2024-01-29T16:36:42Z</time>
      </trkpt>
      <trkpt lat="46.02585" lon="5.97727">
        <ele>535.14</ele>
        <time>2024-01-29T16:36:48Z</time>
      </trkpt>
      <trkpt lat="46.02469" lon="5.97571">
        <ele>532.73</ele>
        <time>2024-01-29T16:37:12Z</time>
      </trkpt>
      <trkpt lat="46.02389" lon="5.97447">
        <ele>535.11</ele>
        <time>2024-01-29T16:37:33Z</time>
      </trkpt>
      <trkpt lat="46.02268" lon="5.97301">
        <ele>539.02</ele>
        <time>2024-01-29T16:38:07Z</time>
      </trkpt>
      <trkpt lat="46.02193" lon="5.97235">
        <ele>539.26</ele>
        <time>2024-01-29T16:38:26Z</time>
      </trkpt>
      <trkpt lat="46.02084" lon="5.97152">
        <ele>539.27</ele>
        <time>2024-01-29T16:38:51Z</time>
      </trkpt>
      <trkpt lat="46.02061" lon="5.97147">
        <ele>538.62</ele>
        <time>2024-01-29T16:38:55Z</time>
      </trkpt>
      <trkpt lat="46.02038" lon="5.97148">
        <ele>537.87</ele>
        <time>2024-01-29T16:38:59Z</time>
      </trkpt>
      <trkpt lat="46.01939" lon="5.97165">
        <ele>534.1</ele>
        <time>2024-01-29T16:39:14Z</time>
      </trkpt>
      <trkpt lat="46.01846" lon="5.9716">
        <ele>533.28</ele>
        <time>2024-01-29T16:39:27Z</time>
      </trkpt>
      <trkpt lat="46.0181" lon="5.97179">
        <ele>530.37</ele>
        <time>2024-01-29T16:39:32Z</time>
      </trkpt>
      <trkpt lat="46.01796" lon="5.97182">
        <ele>529.45</ele>
        <time>2024-01-29T16:39:34Z</time>
      </trkpt>
      <trkpt lat="46.01657" lon="5.9719">
        <ele>517.53</ele>
        <time>2024-01-29T16:39:50Z</time>
      </trkpt>
      <trkpt lat="46.01592" lon="5.97199">
        <ele>510.47</ele>
        <time>2024-01-29T16:39:58Z</time>
      </trkpt>
      <trkpt lat="46.01581" lon="5.97195">
        <ele>510.51</ele>
        <time>2024-01-29T16:39:59Z</time>
      </trkpt>
      <trkpt lat="46.01561" lon="5.9718">
        <ele>509.27</ele>
        <time>2024-01-29T16:40:02Z</time>
      </trkpt>
      <trkpt lat="46.01523" lon="5.97113">
        <ele>508.51</ele>
        <time>2024-01-29T16:40:09Z</time>
      </trkpt>
      <trkpt lat="46.01507" lon="5.97089">
        <ele>506.39</ele>
        <time>2024-01-29T16:40:12Z</time>
      </trkpt>
      <trkpt lat="46.01493" lon="5.97074">
        <ele>504.08</ele>
        <time>2024-01-29T16:40:14Z</time>
      </trkpt>
      <trkpt lat="46.01455" lon="5.97043">
        <ele>498.86</ele>
        <time>2024-01-29T16:40:19Z</time>
      </trkpt>
      <trkpt lat="46.0137" lon="5.96941">
        <ele>491.93</ele>
        <time>2024-01-29T16:40:33Z</time>
      </trkpt>
      <trkpt lat="46.01267" lon="5.96777">
        <ele>487.14</ele>
        <time>2024-01-29T16:40:52Z</time>
      </trkpt>
      <trkpt lat="46.01248" lon="5.96752">
        <ele>486.36</ele>
        <time>2024-01-29T16:40:55Z</time>
      </trkpt>
      <trkpt lat="46.01176" lon="5.96703">
        <ele>471.74</ele>
        <time>2024-01-29T16:41:06Z</time>
      </trkpt>
      <trkpt lat="46.0116" lon="5.96697">
        <ele>468.85</ele>
        <time>2024-01-29T16:41:08Z</time>
      </trkpt>
      <trkpt lat="46.01139" lon="5.96676">
        <ele>466.83</ele>
        <time>2024-01-29T16:41:11Z</time>
      </trkpt>
      <trkpt lat="46.01128" lon="5.96657">
        <ele>466.07</ele>
        <time>2024-01-29T16:41:13Z</time>
      </trkpt>
      <trkpt lat="46.01096" lon="5.96598">
        <ele>464.86</ele>
        <time>2024-01-29T16:41:20Z</time>
      </trkpt>
      <trkpt lat="46.01062" lon="5.96521">
        <ele>459.55</ele>
        <time>2024-01-29T16:41:28Z</time>
      </trkpt>
      <trkpt lat="46.0102" lon="5.96395">
        <ele>449.98</ele>
        <time>2024-01-29T16:41:42Z</time>
      </trkpt>
      <trkpt lat="46.00997" lon="5.96215">
        <ele>441.45</ele>
        <time>2024-01-29T16:42:00Z</time>
      </trkpt>
      <trkpt lat="46.00995" lon="5.9612">
        <ele>442.8</ele>
        <time>2024-01-29T16:42:12Z</time>
      </trkpt>
      <trkpt lat="46.00999" lon="5.96072">
        <ele>443.49</ele>
        <time>2024-01-29T16:42:21Z</time>
      </trkpt>
      <trkpt lat="46.01006" lon="5.96003">
        <ele>444.42</ele>
        <time>2024-01-29T16:42:38Z</time>
      </trkpt>
      <trkpt lat="46.01013" lon="5.95973">
        <ele>444.64</ele>
        <time>2024-01-29T16:42:47Z</time>
      </trkpt>
      <trkpt lat="46.01021" lon="5.95943">
        <ele>444.81</ele>
        <time>2024-01-29T16:42:57Z</time>
      </trkpt>
      <trkpt lat="46.01029" lon="5.95931">
        <ele>445.59</ele>
        <time>2024-01-29T16:43:02Z</time>
      </trkpt>
      <trkpt lat="46.01038" lon="5.95922">
        <ele>445.63</ele>
        <time>2024-01-29T16:43:06Z</time>
      </trkpt>
      <trkpt lat="46.01076" lon="5.95917">
        <ele>448.29</ele>
        <time>2024-01-29T16:43:19Z</time>
      </trkpt>
      <trkpt lat="46.01133" lon="5.95916">
        <ele>449.69</ele>
        <time>2024-01-29T16:43:36Z</time>
      </trkpt>
      <trkpt lat="46.01176" lon="5.95914">
        <ele>449.44</ele>
        <time>2024-01-29T16:43:44Z</time>
      </trkpt>
      <trkpt lat="46.01191" lon="5.95899">
        <ele>447.12</ele>
        <time>2024-01-29T16:43:47Z</time>
      </trkpt>
      <trkpt lat="46.012" lon="5.95883">
        <ele>444.38</ele>
        <time>2024-01-29T16:43:49Z</time>
      </trkpt>
      <trkpt lat="46.01216" lon="5.95836">
        <ele>438.24</ele>
        <time>2024-01-29T16:43:54Z</time>
      </trkpt>
      <trkpt lat="46.01224" lon="5.95819">
        <ele>435.88</ele>
        <time>2024-01-29T16:43:56Z</time>
      </trkpt>
      <trkpt lat="46.0126" lon="5.95789">
        <ele>433.42</ele>
        <time>2024-01-29T16:44:01Z</time>
      </trkpt>
      <trkpt lat="46.0127" lon="5.95777">
        <ele>432.98</ele>
        <time>2024-01-29T16:44:03Z</time>
      </trkpt>
      <trkpt lat="46.01359" lon="5.95632">
        <ele>432.33</ele>
        <time>2024-01-29T16:44:19Z</time>
      </trkpt>
      <trkpt lat="46.01405" lon="5.95567">
        <ele>430.73</ele>
        <time>2024-01-29T16:44:28Z</time>
      </trkpt>
      <trkpt lat="46.01481" lon="5.95474">
        <ele>428.91</ele>
        <time>2024-01-29T16:44:42Z</time>
      </trkpt>
      <trkpt lat="46.01492" lon="5.9545">
        <ele>428.52</ele>
        <time>2024-01-29T16:44:45Z</time>
      </trkpt>
      <trkpt lat="46.01497" lon="5.95432">
        <ele>428.02</ele>
        <time>2024-01-29T16:44:47Z</time>
      </trkpt>
      <trkpt lat="46.01498" lon="5.9542">
        <ele>427.46</ele>
        <time>2024-01-29T16:44:48Z</time>
      </trkpt>
      <trkpt lat="46.01501" lon="5.95392">
        <ele>426.52</ele>
        <time>2024-01-29T16:46:00Z</time>
      </trkpt>
      <trkpt lat="46.01496" lon="5.95391">
        <ele>426.21</ele>
        <time>2024-01-29T16:45:58Z</time>
      </trkpt>
      <trkpt lat="46.01478" lon="5.95416">
        <ele>425.56</ele>
        <time>2024-01-29T16:45:50Z</time>
      </trkpt>
      <trkpt lat="46.01425" lon="5.95474">
        <ele>422.92</ele>
        <time>2024-01-29T16:45:28Z</time>
      </trkpt>
      <trkpt lat="46.01413" lon="5.95485">
        <ele>421.9</ele>
        <time>2024-01-29T16:45:22Z</time>
      </trkpt>
      <trkpt lat="46.01425" lon="5.95474">
        <ele>422.92</ele>
        <time>2024-01-29T16:45:28Z</time>
      </trkpt>
      <trkpt lat="46.01478" lon="5.95416">
        <ele>425.56</ele>
        <time>2024-01-29T16:45:50Z</time>
      </trkpt>
      <trkpt lat="46.01496" lon="5.95391">
        <ele>426.21</ele>
        <time>2024-01-29T16:45:58Z</time>
      </trkpt>
      <trkpt lat="46.01501" lon="5.95392">
        <ele>426.52</ele>
        <time>2024-01-29T16:46:00Z</time>
      </trkpt>
      <trkpt lat="46.0151" lon="5.95392">
        <ele>427.07</ele>
        <time>2024-01-29T16:46:02Z</time>
      </trkpt>
      <trkpt lat="46.01524" lon="5.95375">
        <ele>427.23</ele>
        <time>2024-01-29T16:46:06Z</time>
      </trkpt>
      <trkpt lat="46.01534" lon="5.95366">
        <ele>427.69</ele>
        <time>2024-01-29T16:46:08Z</time>
      </trkpt>
      <trkpt lat="46.01543" lon="5.95348">
        <ele>427.71</ele>
        <time>2024-01-29T16:46:12Z</time>
      </trkpt>
      <trkpt lat="46.0155" lon="5.95333">
        <ele>427.48</ele>
        <time>2024-01-29T16:46:14Z</time>
      </trkpt>
      <trkpt lat="46.01558" lon="5.95328">
        <ele>427.73</ele>
        <time>2024-01-29T16:46:17Z</time>
      </trkpt>
      <trkpt lat="46.0157" lon="5.95295">
        <ele>427.57</ele>
        <time>2024-01-29T16:46:21Z</time>
      </trkpt>
      <trkpt lat="46.01568" lon="5.95272">
        <ele>426.93</ele>
        <time>2024-01-29T16:46:24Z</time>
      </trkpt>
      <trkpt lat="46.01582" lon="5.9519">
        <ele>421.99</ele>
        <time>2024-01-29T16:46:33Z</time>
      </trkpt>
      <trkpt lat="46.01601" lon="5.95139">
        <ele>420.99</ele>
        <time>2024-01-29T16:46:39Z</time>
      </trkpt>
      <trkpt lat="46.01641" lon="5.95089">
        <ele>420.58</ele>
        <time>2024-01-29T16:46:46Z</time>
      </trkpt>
      <trkpt lat="46.01664" lon="5.95055">
        <ele>417.16</ele>
        <time>2024-01-29T16:46:50Z</time>
      </trkpt>
      <trkpt lat="46.01671" lon="5.95028">
        <ele>414.66</ele>
        <time>2024-01-29T16:46:52Z</time>
      </trkpt>
      <trkpt lat="46.01671" lon="5.94989">
        <ele>411.89</ele>
        <time>2024-01-29T16:46:55Z</time>
      </trkpt>
      <trkpt lat="46.01662" lon="5.94961">
        <ele>410.43</ele>
        <time>2024-01-29T16:46:58Z</time>
      </trkpt>
      <trkpt lat="46.01625" lon="5.94866">
        <ele>399.51</ele>
        <time>2024-01-29T16:47:06Z</time>
      </trkpt>
      <trkpt lat="46.01603" lon="5.94844">
        <ele>397.34</ele>
        <time>2024-01-29T16:47:09Z</time>
      </trkpt>
      <trkpt lat="46.01558" lon="5.94818">
        <ele>388.52</ele>
        <time>2024-01-29T16:47:14Z</time>
      </trkpt>
      <trkpt lat="46.01536" lon="5.94813">
        <ele>381.73</ele>
        <time>2024-01-29T16:47:16Z</time>
      </trkpt>
      <trkpt lat="46.015" lon="5.94828">
        <ele>378.29</ele>
        <time>2024-01-29T16:47:20Z</time>
      </trkpt>
      <trkpt lat="46.01487" lon="5.94827">
        <ele>375.01</ele>
        <time>2024-01-29T16:47:22Z</time>
      </trkpt>
      <trkpt lat="46.01478" lon="5.94821">
        <ele>372.36</ele>
        <time>2024-01-29T16:47:23Z</time>
      </trkpt>
      <trkpt lat="46.01471" lon="5.9481">
        <ele>368.02</ele>
        <time>2024-01-29T16:47:24Z</time>
      </trkpt>
      <trkpt lat="46.01472" lon="5.94793">
        <ele>364.69</ele>
        <time>2024-01-29T16:47:25Z</time>
      </trkpt>
      <trkpt lat="46.01478" lon="5.94774">
        <ele>362.12</ele>
        <time>2024-01-29T16:47:27Z</time>
      </trkpt>
      <trkpt lat="46.01521" lon="5.94708">
        <ele>355.06</ele>
        <time>2024-01-29T16:47:34Z</time>
      </trkpt>
      <trkpt lat="46.01581" lon="5.94654">
        <ele>350.25</ele>
        <time>2024-01-29T16:47:42Z</time>
      </trkpt>
      <trkpt lat="46.0162" lon="5.94609">
        <ele>344</ele>
        <time>2024-01-29T16:47:47Z</time>
      </trkpt>
      <trkpt lat="46.01647" lon="5.94582">
        <ele>340.47</ele>
        <time>2024-01-29T16:47:51Z</time>
      </trkpt>
      <trkpt lat="46.01681" lon="5.94511">
        <ele>329.13</ele>
        <time>2024-01-29T16:47:58Z</time>
      </trkpt>
      <trkpt lat="46.01688" lon="5.94487">
        <ele>327.93</ele>
        <time>2024-01-29T16:48:00Z</time>
      </trkpt>
      <trkpt lat="46.01691" lon="5.94459">
        <ele>327.34</ele>
        <time>2024-01-29T16:48:02Z</time>
      </trkpt>
      <trkpt lat="46.01688" lon="5.94433">
        <ele>328.29</ele>
        <time>2024-01-29T16:48:05Z</time>
      </trkpt>
      <trkpt lat="46.01678" lon="5.94403">
        <ele>328.6</ele>
        <time>2024-01-29T16:48:08Z</time>
      </trkpt>
      <trkpt lat="46.01671" lon="5.94372">
        <ele>328.22</ele>
        <time>2024-01-29T16:48:10Z</time>
      </trkpt>
      <trkpt lat="46.01672" lon="5.94366">
        <ele>328.13</ele>
        <time>2024-01-29T16:48:11Z</time>
      </trkpt>
      <trkpt lat="46.01687" lon="5.9435">
        <ele>326.36</ele>
        <time>2024-01-29T16:48:13Z</time>
      </trkpt>
      <trkpt lat="46.01705" lon="5.94339">
        <ele>325.59</ele>
        <time>2024-01-29T16:48:16Z</time>
      </trkpt>
      <trkpt lat="46.01707" lon="5.94337">
        <ele>325.47</ele>
        <time>2024-01-29T16:48:16Z</time>
      </trkpt>
      <trkpt lat="46.01723" lon="5.94319">
        <ele>324.88</ele>
        <time>2024-01-29T16:48:19Z</time>
      </trkpt>
      <trkpt lat="46.01735" lon="5.94306">
        <ele>324.9</ele>
        <time>2024-01-29T16:48:21Z</time>
      </trkpt>
      <trkpt lat="46.01763" lon="5.94269">
        <ele>328.11</ele>
        <time>2024-01-29T16:48:27Z</time>
      </trkpt>
      <trkpt lat="46.01773" lon="5.94241">
        <ele>329.34</ele>
        <time>2024-01-29T16:48:30Z</time>
      </trkpt>
      <trkpt lat="46.01774" lon="5.94218">
        <ele>329.06</ele>
        <time>2024-01-29T16:48:32Z</time>
      </trkpt>
      <trkpt lat="46.01765" lon="5.94122">
        <ele>328.65</ele>
        <time>2024-01-29T16:48:43Z</time>
      </trkpt>
      <trkpt lat="46.01765" lon="5.94086">
        <ele>328.16</ele>
        <time>2024-01-29T16:48:47Z</time>
      </trkpt>
      <trkpt lat="46.01751" lon="5.94053">
        <ele>325.21</ele>
        <time>2024-01-29T16:48:51Z</time>
      </trkpt>
      <trkpt lat="46.01742" lon="5.94027">
        <ele>324.36</ele>
        <time>2024-01-29T16:48:54Z</time>
      </trkpt>
      <trkpt lat="46.01739" lon="5.93996">
        <ele>324.12</ele>
        <time>2024-01-29T16:48:58Z</time>
      </trkpt>
      <trkpt lat="46.0177" lon="5.93801">
        <ele>325.74</ele>
        <time>2024-01-29T16:49:22Z</time>
      </trkpt>
      <trkpt lat="46.01775" lon="5.93758">
        <ele>325.04</ele>
        <time>2024-01-29T16:49:27Z</time>
      </trkpt>
      <trkpt lat="46.01792" lon="5.93667">
        <ele>324.5</ele>
        <time>2024-01-29T16:49:37Z</time>
      </trkpt>
      <trkpt lat="46.01792" lon="5.93571">
        <ele>324.53</ele>
        <time>2024-01-29T16:49:47Z</time>
      </trkpt>
      <trkpt lat="46.01814" lon="5.93468">
        <ele>323.81</ele>
        <time>2024-01-29T16:49:58Z</time>
      </trkpt>
      <trkpt lat="46.01826" lon="5.93417">
        <ele>323.19</ele>
        <time>2024-01-29T16:50:04Z</time>
      </trkpt>
      <trkpt lat="46.01807" lon="5.9341">
        <ele>323.05</ele>
        <time>2024-01-29T16:50:07Z</time>
      </trkpt>
      <trkpt lat="46.01803" lon="5.93336">
        <ele>322.25</ele>
        <time>2024-01-29T16:50:15Z</time>
      </trkpt>
      <trkpt lat="46.0179" lon="5.93127">
        <ele>320.31</ele>
        <time>2024-01-29T16:50:40Z</time>
      </trkpt>
      <trkpt lat="46.01789" lon="5.93071">
        <ele>319.52</ele>
        <time>2024-01-29T16:50:48Z</time>
      </trkpt>
      <trkpt lat="46.01789" lon="5.93066">
        <ele>319.48</ele>
        <time>2024-01-29T16:50:48Z</time>
      </trkpt>
      <trkpt lat="46.01789" lon="5.93019">
        <ele>318.78</ele>
        <time>2024-01-29T16:50:55Z</time>
      </trkpt>
      <trkpt lat="46.01789" lon="5.93006">
        <ele>318.66</ele>
        <time>2024-01-29T16:50:57Z</time>
      </trkpt>
      <trkpt lat="46.01789" lon="5.92914">
        <ele>319.69</ele>
        <time>2024-01-29T16:51:08Z</time>
      </trkpt>
      <trkpt lat="46.0179" lon="5.92891">
        <ele>319.86</ele>
        <time>2024-01-29T16:51:11Z</time>
      </trkpt>
      <trkpt lat="46.01792" lon="5.92886">
        <ele>319.96</ele>
        <time>2024-01-29T16:51:12Z</time>
      </trkpt>
      <trkpt lat="46.01788" lon="5.92873">
        <ele>320.04</ele>
        <time>2024-01-29T16:51:14Z</time>
      </trkpt>
      <trkpt lat="46.01786" lon="5.92655">
        <ele>318.52</ele>
        <time>2024-01-29T16:51:40Z</time>
      </trkpt>
      <trkpt lat="46.01786" lon="5.92645">
        <ele>318.49</ele>
        <time>2024-01-29T16:51:41Z</time>
      </trkpt>
      <trkpt lat="46.01787" lon="5.92639">
        <ele>318.55</ele>
        <time>2024-01-29T16:51:41Z</time>
      </trkpt>
      <trkpt lat="46.01787" lon="5.92581">
        <ele>318.1</ele>
        <time>2024-01-29T16:51:48Z</time>
      </trkpt>
      <trkpt lat="46.01787" lon="5.92568">
        <ele>317.99</ele>
        <time>2024-01-29T16:51:49Z</time>
      </trkpt>
      <trkpt lat="46.01787" lon="5.92527">
        <ele>317.68</ele>
        <time>2024-01-29T16:51:53Z</time>
      </trkpt>
      <trkpt lat="46.01792" lon="5.92466">
        <ele>316.83</ele>
        <time>2024-01-29T16:52:00Z</time>
      </trkpt>
      <trkpt lat="46.018" lon="5.92394">
        <ele>316.18</ele>
        <time>2024-01-29T16:52:07Z</time>
      </trkpt>
      <trkpt lat="46.01805" lon="5.92386">
        <ele>316.25</ele>
        <time>2024-01-29T16:52:09Z</time>
      </trkpt>
      <trkpt lat="46.01834" lon="5.92378">
        <ele>317.16</ele>
        <time>2024-01-29T16:52:13Z</time>
      </trkpt>
      <trkpt lat="46.01833" lon="5.92368">
        <ele>317.19</ele>
        <time>2024-01-29T16:52:14Z</time>
      </trkpt>
      <trkpt lat="46.01827" lon="5.92315">
        <ele>316.89</ele>
        <time>2024-01-29T16:52:20Z</time>
      </trkpt>
      <trkpt lat="46.01829" lon="5.92274">
        <ele>316.47</ele>
        <time>2024-01-29T16:52:24Z</time>
      </trkpt>
      <trkpt lat="46.01845" lon="5.92209">
        <ele>316.5</ele>
        <time>2024-01-29T16:52:32Z</time>
      </trkpt>
      <trkpt lat="46.01848" lon="5.92197">
        <ele>316.75</ele>
        <time>2024-01-29T16:52:34Z</time>
      </trkpt>
      <trkpt lat="46.01849" lon="5.92191">
        <ele>316.71</ele>
        <time>2024-01-29T16:52:35Z</time>
      </trkpt>
      <trkpt lat="46.01859" lon="5.92166">
        <ele>317.06</ele>
        <time>2024-01-29T16:52:39Z</time>
      </trkpt>
      <trkpt lat="46.01867" lon="5.92153">
        <ele>317.43</ele>
        <time>2024-01-29T16:52:42Z</time>
      </trkpt>
      <trkpt lat="46.01875" lon="5.92148">
        <ele>317.91</ele>
        <time>2024-01-29T16:52:44Z</time>
      </trkpt>
      <trkpt lat="46.01879" lon="5.92141">
        <ele>317.98</ele>
        <time>2024-01-29T16:52:45Z</time>
      </trkpt>
      <trkpt lat="46.01881" lon="5.92133">
        <ele>317.78</ele>
        <time>2024-01-29T16:52:47Z</time>
      </trkpt>
      <trkpt lat="46.0188" lon="5.92121">
        <ele>317.63</ele>
        <time>2024-01-29T16:52:50Z</time>
      </trkpt>
      <trkpt lat="46.01874" lon="5.9211">
        <ele>317.17</ele>
        <time>2024-01-29T16:52:53Z</time>
      </trkpt>
      <trkpt lat="46.01868" lon="5.92106">
        <ele>316.58</ele>
        <time>2024-01-29T16:52:55Z</time>
      </trkpt>
      <trkpt lat="46.01858" lon="5.92107">
        <ele>315.9</ele>
        <time>2024-01-29T16:52:59Z</time>
      </trkpt>
      <trkpt lat="46.01853" lon="5.92111">
        <ele>315.57</ele>
        <time>2024-01-29T16:53:01Z</time>
      </trkpt>
      <trkpt lat="46.01838" lon="5.92112">
        <ele>313.44</ele>
        <time>2024-01-29T16:53:05Z</time>
      </trkpt>
      <trkpt lat="46.01797" lon="5.92086">
        <ele>313.76</ele>
        <time>2024-01-29T16:53:20Z</time>
      </trkpt>
      <trkpt lat="46.01788" lon="5.92067">
        <ele>317.72</ele>
        <time>2024-01-29T16:53:26Z</time>
      </trkpt>
      <trkpt lat="46.01785" lon="5.92055">
        <ele>318.5</ele>
        <time>2024-01-29T16:53:29Z</time>
      </trkpt>
      <trkpt lat="46.01776" lon="5.92009">
        <ele>318.85</ele>
        <time>2024-01-29T16:53:42Z</time>
      </trkpt>
      <trkpt lat="46.01772" lon="5.91977">
        <ele>319.81</ele>
        <time>2024-01-29T16:53:52Z</time>
      </trkpt>
      <trkpt lat="46.01782" lon="5.91963">
        <ele>318.44</ele>
        <time>2024-01-29T16:53:57Z</time>
      </trkpt>
      <trkpt lat="46.01791" lon="5.91936">
        <ele>316.89</ele>
        <time>2024-01-29T16:54:06Z</time>
      </trkpt>
      <trkpt lat="46.01793" lon="5.91919">
        <ele>316.97</ele>
        <time>2024-01-29T16:54:10Z</time>
      </trkpt>
      <trkpt lat="46.01792" lon="5.91903">
        <ele>317.86</ele>
        <time>2024-01-29T16:54:15Z</time>
      </trkpt>
      <trkpt lat="46.0178" lon="5.91869">
        <ele>321.45</ele>
        <time>2024-01-29T16:54:24Z</time>
      </trkpt>
      <trkpt lat="46.01775" lon="5.91838">
        <ele>322.93</ele>
        <time>2024-01-29T16:54:33Z</time>
      </trkpt>
      <trkpt lat="46.01787" lon="5.91704">
        <ele>321.6</ele>
        <time>2024-01-29T16:54:59Z</time>
      </trkpt>
      <trkpt lat="46.01785" lon="5.91677">
        <ele>321.74</ele>
        <time>2024-01-29T16:55:05Z</time>
      </trkpt>
      <trkpt lat="46.01753" lon="5.91544">
        <ele>321.86</ele>
        <time>2024-01-29T16:55:31Z</time>
      </trkpt>
      <trkpt lat="46.01709" lon="5.91386">
        <ele>324.59</ele>
        <time>2024-01-29T16:56:14Z</time>
      </trkpt>
      <trkpt lat="46.01698" lon="5.91323">
        <ele>332.12</ele>
        <time>2024-01-29T16:56:30Z</time>
      </trkpt>
      <trkpt lat="46.01689" lon="5.91291">
        <ele>334.8</ele>
        <time>2024-01-29T16:56:37Z</time>
      </trkpt>
      <trkpt lat="46.01657" lon="5.91218">
        <ele>335.7</ele>
        <time>2024-01-29T16:56:56Z</time>
      </trkpt>
      <trkpt lat="46.01656" lon="5.91201">
        <ele>335.19</ele>
        <time>2024-01-29T16:57:00Z</time>
      </trkpt>
      <trkpt lat="46.0166" lon="5.91184">
        <ele>335.65</ele>
        <time>2024-01-29T16:57:03Z</time>
      </trkpt>
      <trkpt lat="46.01671" lon="5.91173">
        <ele>335.64</ele>
        <time>2024-01-29T16:57:08Z</time>
      </trkpt>
      <trkpt lat="46.0169" lon="5.91169">
        <ele>335.29</ele>
        <time>2024-01-29T16:57:14Z</time>
      </trkpt>
      <trkpt lat="46.0171" lon="5.91167">
        <ele>334.79</ele>
        <time>2024-01-29T16:57:20Z</time>
      </trkpt>
      <trkpt lat="46.01729" lon="5.91136">
        <ele>339.61</ele>
        <time>2024-01-29T16:57:28Z</time>
      </trkpt>
      <trkpt lat="46.01734" lon="5.9112">
        <ele>342.89</ele>
        <time>2024-01-29T16:57:31Z</time>
      </trkpt>
      <trkpt lat="46.01775" lon="5.91052">
        <ele>345.82</ele>
        <time>2024-01-29T16:57:49Z</time>
      </trkpt>
      <trkpt lat="46.01823" lon="5.90937">
        <ele>350.13</ele>
        <time>2024-01-29T16:58:23Z</time>
      </trkpt>
      <trkpt lat="46.01825" lon="5.90929">
        <ele>351.06</ele>
        <time>2024-01-29T16:58:25Z</time>
      </trkpt>
      <trkpt lat="46.01822" lon="5.90917">
        <ele>352.41</ele>
        <time>2024-01-29T16:58:29Z</time>
      </trkpt>
      <trkpt lat="46.01815" lon="5.90915">
        <ele>354.78</ele>
        <time>2024-01-29T16:58:32Z</time>
      </trkpt>
      <trkpt lat="46.01811" lon="5.90918">
        <ele>355.94</ele>
        <time>2024-01-29T16:58:34Z</time>
      </trkpt>
      <trkpt lat="46.01778" lon="5.90967">
        <ele>359.38</ele>
        <time>2024-01-29T16:58:54Z</time>
      </trkpt>
      <trkpt lat="46.01759" lon="5.90989">
        <ele>360.05</ele>
        <time>2024-01-29T16:59:05Z</time>
      </trkpt>
      <trkpt lat="46.01744" lon="5.91">
        <ele>360.28</ele>
        <time>2024-01-29T16:59:11Z</time>
      </trkpt>
      <trkpt lat="46.01728" lon="5.91008">
        <ele>362.01</ele>
        <time>2024-01-29T16:59:18Z</time>
      </trkpt>
      <trkpt lat="46.0168" lon="5.91015">
        <ele>365.18</ele>
        <time>2024-01-29T16:59:36Z</time>
      </trkpt>
      <trkpt lat="46.01676" lon="5.91014">
        <ele>365.44</ele>
        <time>2024-01-29T16:59:38Z</time>
      </trkpt>
      <trkpt lat="46.01646" lon="5.91006">
        <ele>368.13</ele>
        <time>2024-01-29T16:59:49Z</time>
      </trkpt>
      <trkpt lat="46.0164" lon="5.90998">
        <ele>369.66</ele>
        <time>2024-01-29T16:59:53Z</time>
      </trkpt>
      <trkpt lat="46.0164" lon="5.9099">
        <ele>370.8</ele>
        <time>2024-01-29T16:59:55Z</time>
      </trkpt>
      <trkpt lat="46.01644" lon="5.90983">
        <ele>371.19</ele>
        <time>2024-01-29T16:59:57Z</time>
      </trkpt>
      <trkpt lat="46.01689" lon="5.90963">
        <ele>371.29</ele>
        <time>2024-01-29T17:00:16Z</time>
      </trkpt>
      <trkpt lat="46.01697" lon="5.90956">
        <ele>371.77</ele>
        <time>2024-01-29T17:00:20Z</time>
      </trkpt>
      <trkpt lat="46.01688" lon="5.90943">
        <ele>374.05</ele>
        <time>2024-01-29T17:00:25Z</time>
      </trkpt>
      <trkpt lat="46.01681" lon="5.90938">
        <ele>375.2</ele>
        <time>2024-01-29T17:00:29Z</time>
      </trkpt>
      <trkpt lat="46.01643" lon="5.90932">
        <ele>378.85</ele>
        <time>2024-01-29T17:00:46Z</time>
      </trkpt>
      <trkpt lat="46.016" lon="5.90934">
        <ele>381.44</ele>
        <time>2024-01-29T17:01:06Z</time>
      </trkpt>
      <trkpt lat="46.01589" lon="5.9093">
        <ele>382.09</ele>
        <time>2024-01-29T17:01:12Z</time>
      </trkpt>
      <trkpt lat="46.0156" lon="5.90907">
        <ele>383.51</ele>
        <time>2024-01-29T17:01:28Z</time>
      </trkpt>
      <trkpt lat="46.01548" lon="5.90903">
        <ele>384.29</ele>
        <time>2024-01-29T17:01:35Z</time>
      </trkpt>
      <trkpt lat="46.01516" lon="5.90903">
        <ele>387.6</ele>
        <time>2024-01-29T17:01:51Z</time>
      </trkpt>
      <trkpt lat="46.01508" lon="5.909">
        <ele>388.42</ele>
        <time>2024-01-29T17:01:55Z</time>
      </trkpt>
      <trkpt lat="46.015" lon="5.9089">
        <ele>389.92</ele>
        <time>2024-01-29T17:02:00Z</time>
      </trkpt>
      <trkpt lat="46.01495" lon="5.90881">
        <ele>390.86</ele>
        <time>2024-01-29T17:02:04Z</time>
      </trkpt>
      <trkpt lat="46.01483" lon="5.90841">
        <ele>392.47</ele>
        <time>2024-01-29T17:02:19Z</time>
      </trkpt>
      <trkpt lat="46.01461" lon="5.90791">
        <ele>393.73</ele>
        <time>2024-01-29T17:02:38Z</time>
      </trkpt>
      <trkpt lat="46.01453" lon="5.90764">
        <ele>393.74</ele>
        <time>2024-01-29T17:02:48Z</time>
      </trkpt>
      <trkpt lat="46.01452" lon="5.90742">
        <ele>393.1</ele>
        <time>2024-01-29T17:02:55Z</time>
      </trkpt>
      <trkpt lat="46.01401" lon="5.90729">
        <ele>396.9</ele>
        <time>2024-01-29T17:03:19Z</time>
      </trkpt>
      <trkpt lat="46.01379" lon="5.90724">
        <ele>398.76</ele>
        <time>2024-01-29T17:03:29Z</time>
      </trkpt>
      <trkpt lat="46.0136" lon="5.90725">
        <ele>399.76</ele>
        <time>2024-01-29T17:03:37Z</time>
      </trkpt>
      <trkpt lat="46.01323" lon="5.90736">
        <ele>401.75</ele>
        <time>2024-01-29T17:03:55Z</time>
      </trkpt>
      <trkpt lat="46.01236" lon="5.90755">
        <ele>407.38</ele>
        <time>2024-01-29T17:04:42Z</time>
      </trkpt>
      <trkpt lat="46.01211" lon="5.90767">
        <ele>409.92</ele>
        <time>2024-01-29T17:04:56Z</time>
      </trkpt>
      <trkpt lat="46.01165" lon="5.90806">
        <ele>415</ele>
        <time>2024-01-29T17:05:26Z</time>
      </trkpt>
      <trkpt lat="46.01147" lon="5.90824">
        <ele>418.2</ele>
        <time>2024-01-29T17:05:37Z</time>
      </trkpt>
      <trkpt lat="46.01138" lon="5.90839">
        <ele>418.96</ele>
        <time>2024-01-29T17:05:45Z</time>
      </trkpt>
      <trkpt lat="46.01114" lon="5.90889">
        <ele>420.77</ele>
        <time>2024-01-29T17:06:07Z</time>
      </trkpt>
      <trkpt lat="46.01062" lon="5.91009">
        <ele>427.01</ele>
        <time>2024-01-29T17:06:57Z</time>
      </trkpt>
      <trkpt lat="46.01049" lon="5.91029">
        <ele>428.6</ele>
        <time>2024-01-29T17:07:05Z</time>
      </trkpt>
      <trkpt lat="46.01041" lon="5.91035">
        <ele>429.66</ele>
        <time>2024-01-29T17:07:10Z</time>
      </trkpt>
      <trkpt lat="46.01022" lon="5.91033">
        <ele>433.28</ele>
        <time>2024-01-29T17:07:18Z</time>
      </trkpt>
      <trkpt lat="46.01007" lon="5.91024">
        <ele>435.38</ele>
        <time>2024-01-29T17:07:26Z</time>
      </trkpt>
      <trkpt lat="46.01001" lon="5.91015">
        <ele>436.75</ele>
        <time>2024-01-29T17:07:30Z</time>
      </trkpt>
      <trkpt lat="46.00996" lon="5.90993">
        <ele>438.3</ele>
        <time>2024-01-29T17:07:38Z</time>
      </trkpt>
      <trkpt lat="46.00998" lon="5.90947">
        <ele>440.29</ele>
        <time>2024-01-29T17:07:54Z</time>
      </trkpt>
      <trkpt lat="46.00995" lon="5.90934">
        <ele>441.02</ele>
        <time>2024-01-29T17:08:00Z</time>
      </trkpt>
      <trkpt lat="46.00989" lon="5.90923">
        <ele>441.56</ele>
        <time>2024-01-29T17:08:05Z</time>
      </trkpt>
      <trkpt lat="46.0097" lon="5.90906">
        <ele>443.67</ele>
        <time>2024-01-29T17:08:17Z</time>
      </trkpt>
      <trkpt lat="46.00926" lon="5.90877">
        <ele>448.06</ele>
        <time>2024-01-29T17:08:45Z</time>
      </trkpt>
      <trkpt lat="46.0092" lon="5.90875">
        <ele>448.56</ele>
        <time>2024-01-29T17:08:49Z</time>
      </trkpt>
      <trkpt lat="46.00886" lon="5.90858">
        <ele>452.19</ele>
        <time>2024-01-29T17:09:09Z</time>
      </trkpt>
      <trkpt lat="46.0085" lon="5.90852">
        <ele>456.41</ele>
        <time>2024-01-29T17:09:29Z</time>
      </trkpt>
      <trkpt lat="46.00819" lon="5.90945">
        <ele>460.76</ele>
        <time>2024-01-29T17:10:10Z</time>
      </trkpt>
      <trkpt lat="46.00795" lon="5.90958">
        <ele>464.6</ele>
        <time>2024-01-29T17:10:24Z</time>
      </trkpt>
      <trkpt lat="46.00746" lon="5.90899">
        <ele>469.71</ele>
        <time>2024-01-29T17:11:00Z</time>
      </trkpt>
      <trkpt lat="46.00628" lon="5.90934">
        <ele>480.88</ele>
        <time>2024-01-29T17:12:05Z</time>
      </trkpt>
      <trkpt lat="46.00616" lon="5.9094">
        <ele>481.97</ele>
        <time>2024-01-29T17:12:13Z</time>
      </trkpt>
      <trkpt lat="46.00609" lon="5.9095">
        <ele>482.84</ele>
        <time>2024-01-29T17:12:19Z</time>
      </trkpt>
      <trkpt lat="46.00604" lon="5.90962">
        <ele>483.4</ele>
        <time>2024-01-29T17:12:24Z</time>
      </trkpt>
      <trkpt lat="46.00589" lon="5.91043">
        <ele>485.63</ele>
        <time>2024-01-29T17:12:55Z</time>
      </trkpt>
      <trkpt lat="46.00583" lon="5.91076">
        <ele>486.93</ele>
        <time>2024-01-29T17:13:07Z</time>
      </trkpt>
      <trkpt lat="46.00579" lon="5.91085">
        <ele>487.49</ele>
        <time>2024-01-29T17:13:11Z</time>
      </trkpt>
      <trkpt lat="46.00548" lon="5.91081">
        <ele>490.93</ele>
        <time>2024-01-29T17:13:25Z</time>
      </trkpt>
      <trkpt lat="46.00541" lon="5.91075">
        <ele>491.92</ele>
        <time>2024-01-29T17:13:29Z</time>
      </trkpt>
      <trkpt lat="46.00536" lon="5.91067">
        <ele>492.22</ele>
        <time>2024-01-29T17:13:33Z</time>
      </trkpt>
      <trkpt lat="46.00529" lon="5.91048">
        <ele>492.9</ele>
        <time>2024-01-29T17:13:39Z</time>
      </trkpt>
      <trkpt lat="46.00481" lon="5.90839">
        <ele>498.42</ele>
        <time>2024-01-29T17:14:39Z</time>
      </trkpt>
      <trkpt lat="46.00464" lon="5.90786">
        <ele>500.96</ele>
        <time>2024-01-29T17:14:53Z</time>
      </trkpt>
      <trkpt lat="46.00455" lon="5.90767">
        <ele>501.97</ele>
        <time>2024-01-29T17:14:59Z</time>
      </trkpt>
      <trkpt lat="46.00443" lon="5.90753">
        <ele>504.04</ele>
        <time>2024-01-29T17:15:05Z</time>
      </trkpt>
      <trkpt lat="46.00287" lon="5.90611">
        <ele>519.28</ele>
        <time>2024-01-29T17:16:11Z</time>
      </trkpt>
      <trkpt lat="46.00216" lon="5.90556">
        <ele>519.47</ele>
        <time>2024-01-29T17:16:32Z</time>
      </trkpt>
      <trkpt lat="46.00209" lon="5.90551">
        <ele>519.49</ele>
        <time>2024-01-29T17:16:34Z</time>
      </trkpt>
      <trkpt lat="46.00164" lon="5.90531">
        <ele>519.27</ele>
        <time>2024-01-29T17:16:43Z</time>
      </trkpt>
      <trkpt lat="46.00064" lon="5.90508">
        <ele>517.2</ele>
        <time>2024-01-29T17:17:00Z</time>
      </trkpt>
      <trkpt lat="46.00025" lon="5.90508">
        <ele>516.43</ele>
        <time>2024-01-29T17:17:06Z</time>
      </trkpt>
      <trkpt lat="45.99956" lon="5.90544">
        <ele>518.22</ele>
        <time>2024-01-29T17:17:16Z</time>
      </trkpt>
      <trkpt lat="45.99952" lon="5.90543">
        <ele>518.07</ele>
        <time>2024-01-29T17:17:17Z</time>
      </trkpt>
      <trkpt lat="45.99838" lon="5.9051">
        <ele>508.26</ele>
        <time>2024-01-29T17:17:31Z</time>
      </trkpt>
      <trkpt lat="45.99768" lon="5.90466">
        <ele>500.15</ele>
        <time>2024-01-29T17:17:41Z</time>
      </trkpt>
      <trkpt lat="45.99758" lon="5.90464">
        <ele>499.33</ele>
        <time>2024-01-29T17:17:42Z</time>
      </trkpt>
      <trkpt lat="45.99745" lon="5.90467">
        <ele>497.64</ele>
        <time>2024-01-29T17:17:44Z</time>
      </trkpt>
      <trkpt lat="45.9972" lon="5.90487">
        <ele>496.35</ele>
        <time>2024-01-29T17:17:48Z</time>
      </trkpt>
      <trkpt lat="45.99698" lon="5.90498">
        <ele>493.69</ele>
        <time>2024-01-29T17:17:51Z</time>
      </trkpt>
      <trkpt lat="45.99662" lon="5.90502">
        <ele>488.89</ele>
        <time>2024-01-29T17:17:55Z</time>
      </trkpt>
      <trkpt lat="45.99625" lon="5.90517">
        <ele>486.42</ele>
        <time>2024-01-29T17:18:01Z</time>
      </trkpt>
      <trkpt lat="45.99573" lon="5.90551">
        <ele>483.2</ele>
        <time>2024-01-29T17:18:09Z</time>
      </trkpt>
      <trkpt lat="45.99536" lon="5.90581">
        <ele>479.98</ele>
        <time>2024-01-29T17:18:17Z</time>
      </trkpt>
      <trkpt lat="45.99521" lon="5.906">
        <ele>479.75</ele>
        <time>2024-01-29T17:18:20Z</time>
      </trkpt>
      <trkpt lat="45.99507" lon="5.90602">
        <ele>478.52</ele>
        <time>2024-01-29T17:18:23Z</time>
      </trkpt>
      <trkpt lat="45.99486" lon="5.90571">
        <ele>475.04</ele>
        <time>2024-01-29T17:18:30Z</time>
      </trkpt>
      <trkpt lat="45.99414" lon="5.90427">
        <ele>490.75</ele>
        <time>2024-01-29T17:19:14Z</time>
      </trkpt>
      <trkpt lat="45.99399" lon="5.90389">
        <ele>494.73</ele>
        <time>2024-01-29T17:19:28Z</time>
      </trkpt>
      <trkpt lat="45.99395" lon="5.90378">
        <ele>495.74</ele>
        <time>2024-01-29T17:19:32Z</time>
      </trkpt>
      <trkpt lat="45.99369" lon="5.90297">
        <ele>501.12</ele>
        <time>2024-01-29T17:20:00Z</time>
      </trkpt>
      <trkpt lat="45.99364" lon="5.90247">
        <ele>503.23</ele>
        <time>2024-01-29T17:20:16Z</time>
      </trkpt>
      <trkpt lat="45.99349" lon="5.90208">
        <ele>507.18</ele>
        <time>2024-01-29T17:20:30Z</time>
      </trkpt>
      <trkpt lat="45.99345" lon="5.90182">
        <ele>507.73</ele>
        <time>2024-01-29T17:20:38Z</time>
      </trkpt>
      <trkpt lat="45.99357" lon="5.90103">
        <ele>509.6</ele>
        <time>2024-01-29T17:20:57Z</time>
      </trkpt>
      <trkpt lat="45.99356" lon="5.90094">
        <ele>510.15</ele>
        <time>2024-01-29T17:20:59Z</time>
      </trkpt>
      <trkpt lat="45.99351" lon="5.90083">
        <ele>511.45</ele>
        <time>2024-01-29T17:21:01Z</time>
      </trkpt>
      <trkpt lat="45.99302" lon="5.90295">
        <ele>512.06</ele>
        <time>2024-01-29T17:21:28Z</time>
      </trkpt>
      <trkpt lat="45.9929" lon="5.90334">
        <ele>513.1</ele>
        <time>2024-01-29T17:21:32Z</time>
      </trkpt>
      <trkpt lat="45.99275" lon="5.90366">
        <ele>512.64</ele>
        <time>2024-01-29T17:21:36Z</time>
      </trkpt>
      <trkpt lat="45.99258" lon="5.90393">
        <ele>513.01</ele>
        <time>2024-01-29T17:21:40Z</time>
      </trkpt>
      <trkpt lat="45.99228" lon="5.90414">
        <ele>513.72</ele>
        <time>2024-01-29T17:21:45Z</time>
      </trkpt>
      <trkpt lat="45.99175" lon="5.90435">
        <ele>513.43</ele>
        <time>2024-01-29T17:21:53Z</time>
      </trkpt>
      <trkpt lat="45.99112" lon="5.90451">
        <ele>512.51</ele>
        <time>2024-01-29T17:22:06Z</time>
      </trkpt>
      <trkpt lat="45.9908" lon="5.90455">
        <ele>512.81</ele>
        <time>2024-01-29T17:22:15Z</time>
      </trkpt>
      <trkpt lat="45.99056" lon="5.90451">
        <ele>512.84</ele>
        <time>2024-01-29T17:22:22Z</time>
      </trkpt>
      <trkpt lat="45.98992" lon="5.90426">
        <ele>516.04</ele>
        <time>2024-01-29T17:22:46Z</time>
      </trkpt>
      <trkpt lat="45.98958" lon="5.90415">
        <ele>517.96</ele>
        <time>2024-01-29T17:23:02Z</time>
      </trkpt>
      <trkpt lat="45.98942" lon="5.90413">
        <ele>518.34</ele>
        <time>2024-01-29T17:23:10Z</time>
      </trkpt>
      <trkpt lat="45.98928" lon="5.90415">
        <ele>518.73</ele>
        <time>2024-01-29T17:23:17Z</time>
      </trkpt>
      <trkpt lat="45.98862" lon="5.90438">
        <ele>523.7</ele>
        <time>2024-01-29T17:23:55Z</time>
      </trkpt>
      <trkpt lat="45.98843" lon="5.90439">
        <ele>525.4</ele>
        <time>2024-01-29T17:24:06Z</time>
      </trkpt>
      <trkpt lat="45.98819" lon="5.90434">
        <ele>528.1</ele>
        <time>2024-01-29T17:24:21Z</time>
      </trkpt>
      <trkpt lat="45.988" lon="5.90426">
        <ele>530.47</ele>
        <time>2024-01-29T17:24:34Z</time>
      </trkpt>
      <trkpt lat="45.98782" lon="5.90414">
        <ele>532.3</ele>
        <time>2024-01-29T17:24:46Z</time>
      </trkpt>
      <trkpt lat="45.98721" lon="5.90329">
        <ele>539.76</ele>
        <time>2024-01-29T17:25:37Z</time>
      </trkpt>
      <trkpt lat="45.98714" lon="5.90328">
        <ele>540.18</ele>
        <time>2024-01-29T17:25:41Z</time>
      </trkpt>
      <trkpt lat="45.98706" lon="5.90332">
        <ele>540.21</ele>
        <time>2024-01-29T17:25:46Z</time>
      </trkpt>
      <trkpt lat="45.9868" lon="5.9037">
        <ele>539.64</ele>
        <time>2024-01-29T17:26:06Z</time>
      </trkpt>
      <trkpt lat="45.98609" lon="5.90376">
        <ele>548.43</ele>
        <time>2024-01-29T17:26:39Z</time>
      </trkpt>
      <trkpt lat="45.98507" lon="5.90432">
        <ele>559.3</ele>
        <time>2024-01-29T17:27:24Z</time>
      </trkpt>
      <trkpt lat="45.9848" lon="5.90442">
        <ele>560.22</ele>
        <time>2024-01-29T17:27:36Z</time>
      </trkpt>
      <trkpt lat="45.98452" lon="5.90438">
        <ele>561.22</ele>
        <time>2024-01-29T17:27:47Z</time>
      </trkpt>
      <trkpt lat="45.98423" lon="5.90426">
        <ele>561.89</ele>
        <time>2024-01-29T17:27:59Z</time>
      </trkpt>
      <trkpt lat="45.98385" lon="5.90396">
        <ele>565.69</ele>
        <time>2024-01-29T17:28:17Z</time>
      </trkpt>
      <trkpt lat="45.98364" lon="5.90374">
        <ele>568.16</ele>
        <time>2024-01-29T17:28:27Z</time>
      </trkpt>
      <trkpt lat="45.98353" lon="5.9037">
        <ele>569.11</ele>
        <time>2024-01-29T17:28:32Z</time>
      </trkpt>
      <trkpt lat="45.98342" lon="5.9037">
        <ele>569.59</ele>
        <time>2024-01-29T17:28:36Z</time>
      </trkpt>
      <trkpt lat="45.98337" lon="5.90374">
        <ele>569.85</ele>
        <time>2024-01-29T17:28:39Z</time>
      </trkpt>
      <trkpt lat="45.98325" lon="5.90385">
        <ele>570.15</ele>
        <time>2024-01-29T17:28:44Z</time>
      </trkpt>
      <trkpt lat="45.98292" lon="5.90429">
        <ele>572.3</ele>
        <time>2024-01-29T17:29:03Z</time>
      </trkpt>
      <trkpt lat="45.98273" lon="5.90444">
        <ele>573.25</ele>
        <time>2024-01-29T17:29:12Z</time>
      </trkpt>
      <trkpt lat="45.98242" lon="5.9045">
        <ele>576.49</ele>
        <time>2024-01-29T17:29:25Z</time>
      </trkpt>
      <trkpt lat="45.98224" lon="5.90459">
        <ele>578.05</ele>
        <time>2024-01-29T17:29:34Z</time>
      </trkpt>
      <trkpt lat="45.98171" lon="5.90502">
        <ele>582.38</ele>
        <time>2024-01-29T17:30:01Z</time>
      </trkpt>
      <trkpt lat="45.98157" lon="5.90508">
        <ele>583.44</ele>
        <time>2024-01-29T17:30:07Z</time>
      </trkpt>
      <trkpt lat="45.98139" lon="5.90509">
        <ele>584.93</ele>
        <time>2024-01-29T17:30:16Z</time>
      </trkpt>
      <trkpt lat="45.98094" lon="5.90506">
        <ele>588.44</ele>
        <time>2024-01-29T17:30:37Z</time>
      </trkpt>
      <trkpt lat="45.98012" lon="5.90541">
        <ele>594.75</ele>
        <time>2024-01-29T17:31:18Z</time>
      </trkpt>
      <trkpt lat="45.97963" lon="5.90563">
        <ele>598.53</ele>
        <time>2024-01-29T17:31:44Z</time>
      </trkpt>
      <trkpt lat="45.97948" lon="5.90568">
        <ele>599.88</ele>
        <time>2024-01-29T17:31:52Z</time>
      </trkpt>
      <trkpt lat="45.97829" lon="5.90546">
        <ele>609.59</ele>
        <time>2024-01-29T17:32:54Z</time>
      </trkpt>
      <trkpt lat="45.97683" lon="5.90584">
        <ele>621.13</ele>
        <time>2024-01-29T17:34:15Z</time>
      </trkpt>
      <trkpt lat="45.97673" lon="5.90594">
        <ele>621.75</ele>
        <time>2024-01-29T17:34:22Z</time>
      </trkpt>
      <trkpt lat="45.97658" lon="5.9062">
        <ele>623.62</ele>
        <time>2024-01-29T17:34:34Z</time>
      </trkpt>
      <trkpt lat="45.9765" lon="5.9063">
        <ele>624.45</ele>
        <time>2024-01-29T17:34:41Z</time>
      </trkpt>
      <trkpt lat="45.97568" lon="5.90646">
        <ele>631</ele>
        <time>2024-01-29T17:35:26Z</time>
      </trkpt>
      <trkpt lat="45.97512" lon="5.90689">
        <ele>635.02</ele>
        <time>2024-01-29T17:35:59Z</time>
      </trkpt>
      <trkpt lat="45.97416" lon="5.90715">
        <ele>641.6</ele>
        <time>2024-01-29T17:36:43Z</time>
      </trkpt>
      <trkpt lat="45.97394" lon="5.90716">
        <ele>643.39</ele>
        <time>2024-01-29T17:36:50Z</time>
      </trkpt>
      <trkpt lat="45.9737" lon="5.90705">
        <ele>645.73</ele>
        <time>2024-01-29T17:36:59Z</time>
      </trkpt>
      <trkpt lat="45.97274" lon="5.90648">
        <ele>651.7</ele>
        <time>2024-01-29T17:37:26Z</time>
      </trkpt>
      <trkpt lat="45.97256" lon="5.90644">
        <ele>651.79</ele>
        <time>2024-01-29T17:37:28Z</time>
      </trkpt>
      <trkpt lat="45.9725" lon="5.90643">
        <ele>651.9</ele>
        <time>2024-01-29T17:37:29Z</time>
      </trkpt>
      <trkpt lat="45.97238" lon="5.90673">
        <ele>651.76</ele>
        <time>2024-01-29T17:37:33Z</time>
      </trkpt>
      <trkpt lat="45.97228" lon="5.90698">
        <ele>652.09</ele>
        <time>2024-01-29T17:37:35Z</time>
      </trkpt>
      <trkpt lat="45.97227" lon="5.90704">
        <ele>652.21</ele>
        <time>2024-01-29T17:37:36Z</time>
      </trkpt>
      <trkpt lat="45.9721" lon="5.9076">
        <ele>653.74</ele>
        <time>2024-01-29T17:37:42Z</time>
      </trkpt>
      <trkpt lat="45.97197" lon="5.9076">
        <ele>652.97</ele>
        <time>2024-01-29T17:37:43Z</time>
      </trkpt>
      <trkpt lat="45.97164" lon="5.90761">
        <ele>650.79</ele>
        <time>2024-01-29T17:37:47Z</time>
      </trkpt>
      <trkpt lat="45.97135" lon="5.90756">
        <ele>648.77</ele>
        <time>2024-01-29T17:37:51Z</time>
      </trkpt>
      <trkpt lat="45.97113" lon="5.90743">
        <ele>647.43</ele>
        <time>2024-01-29T17:37:54Z</time>
      </trkpt>
      <trkpt lat="45.97091" lon="5.90712">
        <ele>645.63</ele>
        <time>2024-01-29T17:37:58Z</time>
      </trkpt>
      <trkpt lat="45.97086" lon="5.90694">
        <ele>644.81</ele>
        <time>2024-01-29T17:38:00Z</time>
      </trkpt>
      <trkpt lat="45.9707" lon="5.90605">
        <ele>640.31</ele>
        <time>2024-01-29T17:38:07Z</time>
      </trkpt>
      <trkpt lat="45.97057" lon="5.90527">
        <ele>637.16</ele>
        <time>2024-01-29T17:38:14Z</time>
      </trkpt>
      <trkpt lat="45.97047" lon="5.90493">
        <ele>635.5</ele>
        <time>2024-01-29T17:38:17Z</time>
      </trkpt>
      <trkpt lat="45.97037" lon="5.90471">
        <ele>634.3</ele>
        <time>2024-01-29T17:38:20Z</time>
      </trkpt>
      <trkpt lat="45.97018" lon="5.90453">
        <ele>633.02</ele>
        <time>2024-01-29T17:38:23Z</time>
      </trkpt>
      <trkpt lat="45.96996" lon="5.90444">
        <ele>631.64</ele>
        <time>2024-01-29T17:38:25Z</time>
      </trkpt>
      <trkpt lat="45.96957" lon="5.90436">
        <ele>628.93</ele>
        <time>2024-01-29T17:38:30Z</time>
      </trkpt>
      <trkpt lat="45.9691" lon="5.90429">
        <ele>625.99</ele>
        <time>2024-01-29T17:38:36Z</time>
      </trkpt>
      <trkpt lat="45.96816" lon="5.90441">
        <ele>620.56</ele>
        <time>2024-01-29T17:38:49Z</time>
      </trkpt>
      <trkpt lat="45.96679" lon="5.90463">
        <ele>619.57</ele>
        <time>2024-01-29T17:39:07Z</time>
      </trkpt>
      <trkpt lat="45.96674" lon="5.90464">
        <ele>619.47</ele>
        <time>2024-01-29T17:39:08Z</time>
      </trkpt>
      <trkpt lat="45.96655" lon="5.90468">
        <ele>619.12</ele>
        <time>2024-01-29T17:39:10Z</time>
      </trkpt>
      <trkpt lat="45.96637" lon="5.90467">
        <ele>618.13</ele>
        <time>2024-01-29T17:39:13Z</time>
      </trkpt>
      <trkpt lat="45.96625" lon="5.90458">
        <ele>617.45</ele>
        <time>2024-01-29T17:39:14Z</time>
      </trkpt>
      <trkpt lat="45.96622" lon="5.90449">
        <ele>616.85</ele>
        <time>2024-01-29T17:39:15Z</time>
      </trkpt>
      <trkpt lat="45.96619" lon="5.9044">
        <ele>616.1</ele>
        <time>2024-01-29T17:39:16Z</time>
      </trkpt>
      <trkpt lat="45.96619" lon="5.90423">
        <ele>614.75</ele>
        <time>2024-01-29T17:39:17Z</time>
      </trkpt>
      <trkpt lat="45.96629" lon="5.90337">
        <ele>610.63</ele>
        <time>2024-01-29T17:39:24Z</time>
      </trkpt>
      <trkpt lat="45.96626" lon="5.90323">
        <ele>609.81</ele>
        <time>2024-01-29T17:39:26Z</time>
      </trkpt>
      <trkpt lat="45.9662" lon="5.90311">
        <ele>609.22</ele>
        <time>2024-01-29T17:39:27Z</time>
      </trkpt>
      <trkpt lat="45.96613" lon="5.90305">
        <ele>608.58</ele>
        <time>2024-01-29T17:39:28Z</time>
      </trkpt>
      <trkpt lat="45.96586" lon="5.90296">
        <ele>606.41</ele>
        <time>2024-01-29T17:39:31Z</time>
      </trkpt>
      <trkpt lat="45.96216" lon="5.90188">
        <ele>577.35</ele>
        <time>2024-01-29T17:40:15Z</time>
      </trkpt>
      <trkpt lat="45.96205" lon="5.90179">
        <ele>576.63</ele>
        <time>2024-01-29T17:40:17Z</time>
      </trkpt>
      <trkpt lat="45.96198" lon="5.90166">
        <ele>575.74</ele>
        <time>2024-01-29T17:40:18Z</time>
      </trkpt>
      <trkpt lat="45.96193" lon="5.90148">
        <ele>574.76</ele>
        <time>2024-01-29T17:40:20Z</time>
      </trkpt>
      <trkpt lat="45.96184" lon="5.90078">
        <ele>571.52</ele>
        <time>2024-01-29T17:40:27Z</time>
      </trkpt>
      <trkpt lat="45.96174" lon="5.90052">
        <ele>569.48</ele>
        <time>2024-01-29T17:40:31Z</time>
      </trkpt>
      <trkpt lat="45.96147" lon="5.90026">
        <ele>567.26</ele>
        <time>2024-01-29T17:40:37Z</time>
      </trkpt>
      <trkpt lat="45.96118" lon="5.90021">
        <ele>564.55</ele>
        <time>2024-01-29T17:40:44Z</time>
      </trkpt>
      <trkpt lat="45.96128" lon="5.89983">
        <ele>571.65</ele>
        <time>2024-01-29T17:40:55Z</time>
      </trkpt>
      <trkpt lat="45.96123" lon="5.89966">
        <ele>573.74</ele>
        <time>2024-01-29T17:40:59Z</time>
      </trkpt>
      <trkpt lat="45.96065" lon="5.89964">
        <ele>574.42</ele>
        <time>2024-01-29T17:41:20Z</time>
      </trkpt>
      <trkpt lat="45.9604" lon="5.89953">
        <ele>574.51</ele>
        <time>2024-01-29T17:41:30Z</time>
      </trkpt>
      <trkpt lat="45.95974" lon="5.89945">
        <ele>576.87</ele>
        <time>2024-01-29T17:41:56Z</time>
      </trkpt>
      <trkpt lat="45.95926" lon="5.89942">
        <ele>578.02</ele>
        <time>2024-01-29T17:42:12Z</time>
      </trkpt>
      <trkpt lat="45.95902" lon="5.89929">
        <ele>578.93</ele>
        <time>2024-01-29T17:42:21Z</time>
      </trkpt>
      <trkpt lat="45.95859" lon="5.89925">
        <ele>579.32</ele>
        <time>2024-01-29T17:42:34Z</time>
      </trkpt>
      <trkpt lat="45.95777" lon="5.89909">
        <ele>580.07</ele>
        <time>2024-01-29T17:42:58Z</time>
      </trkpt>
      <trkpt lat="45.95741" lon="5.89892">
        <ele>581.59</ele>
        <time>2024-01-29T17:43:07Z</time>
      </trkpt>
      <trkpt lat="45.95678" lon="5.89872">
        <ele>579.15</ele>
        <time>2024-01-29T17:43:22Z</time>
      </trkpt>
      <trkpt lat="45.95649" lon="5.89912">
        <ele>575.31</ele>
        <time>2024-01-29T17:43:28Z</time>
      </trkpt>
      <trkpt lat="45.95597" lon="5.89967">
        <ele>569.87</ele>
        <time>2024-01-29T17:43:36Z</time>
      </trkpt>
      <trkpt lat="45.95517" lon="5.90047">
        <ele>564.45</ele>
        <time>2024-01-29T17:43:47Z</time>
      </trkpt>
      <trkpt lat="45.95494" lon="5.9008">
        <ele>561.13</ele>
        <time>2024-01-29T17:43:51Z</time>
      </trkpt>
      <trkpt lat="45.95394" lon="5.9009">
        <ele>552.31</ele>
        <time>2024-01-29T17:44:03Z</time>
      </trkpt>
      <trkpt lat="45.95345" lon="5.90125">
        <ele>544.43</ele>
        <time>2024-01-29T17:44:09Z</time>
      </trkpt>
      <trkpt lat="45.9531" lon="5.90148">
        <ele>539.42</ele>
        <time>2024-01-29T17:44:14Z</time>
      </trkpt>
      <trkpt lat="45.95267" lon="5.90171">
        <ele>536.94</ele>
        <time>2024-01-29T17:44:19Z</time>
      </trkpt>
      <trkpt lat="45.95205" lon="5.90184">
        <ele>526.93</ele>
        <time>2024-01-29T17:44:27Z</time>
      </trkpt>
      <trkpt lat="45.95177" lon="5.90181">
        <ele>523.37</ele>
        <time>2024-01-29T17:44:30Z</time>
      </trkpt>
      <trkpt lat="45.95163" lon="5.90176">
        <ele>520.75</ele>
        <time>2024-01-29T17:44:32Z</time>
      </trkpt>
      <trkpt lat="45.95138" lon="5.90163">
        <ele>516</ele>
        <time>2024-01-29T17:44:35Z</time>
      </trkpt>
      <trkpt lat="45.95128" lon="5.90166">
        <ele>514.22</ele>
        <time>2024-01-29T17:44:36Z</time>
      </trkpt>
      <trkpt lat="45.95128" lon="5.90156">
        <ele>513.59</ele>
        <time>2024-01-29T17:44:37Z</time>
      </trkpt>
      <trkpt lat="45.95147" lon="5.90061">
        <ele>508.75</ele>
        <time>2024-01-29T17:44:46Z</time>
      </trkpt>
      <trkpt lat="45.95251" lon="5.8987">
        <ele>502.21</ele>
        <time>2024-01-29T17:45:09Z</time>
      </trkpt>
      <trkpt lat="45.95257" lon="5.89852">
        <ele>501.53</ele>
        <time>2024-01-29T17:45:11Z</time>
      </trkpt>
      <trkpt lat="45.95258" lon="5.89834">
        <ele>501.1</ele>
        <time>2024-01-29T17:45:12Z</time>
      </trkpt>
      <trkpt lat="45.95254" lon="5.89819">
        <ele>500.71</ele>
        <time>2024-01-29T17:45:14Z</time>
      </trkpt>
      <trkpt lat="45.95227" lon="5.89769">
        <ele>499.71</ele>
        <time>2024-01-29T17:45:19Z</time>
      </trkpt>
      <trkpt lat="45.95212" lon="5.89741">
        <ele>498.68</ele>
        <time>2024-01-29T17:45:22Z</time>
      </trkpt>
      <trkpt lat="45.95201" lon="5.8973">
        <ele>497.82</ele>
        <time>2024-01-29T17:45:23Z</time>
      </trkpt>
      <trkpt lat="45.95186" lon="5.89728">
        <ele>497.52</ele>
        <time>2024-01-29T17:45:25Z</time>
      </trkpt>
      <trkpt lat="45.95131" lon="5.89759">
        <ele>494.28</ele>
        <time>2024-01-29T17:45:32Z</time>
      </trkpt>
      <trkpt lat="45.95108" lon="5.8976">
        <ele>492.6</ele>
        <time>2024-01-29T17:45:35Z</time>
      </trkpt>
      <trkpt lat="45.95084" lon="5.89754">
        <ele>491.15</ele>
        <time>2024-01-29T17:45:38Z</time>
      </trkpt>
      <trkpt lat="45.95071" lon="5.89742">
        <ele>490.2</ele>
        <time>2024-01-29T17:45:40Z</time>
      </trkpt>
      <trkpt lat="45.9506" lon="5.89723">
        <ele>489.03</ele>
        <time>2024-01-29T17:45:42Z</time>
      </trkpt>
      <trkpt lat="45.95049" lon="5.89667">
        <ele>486.39</ele>
        <time>2024-01-29T17:45:47Z</time>
      </trkpt>
      <trkpt lat="45.95032" lon="5.89642">
        <ele>485.36</ele>
        <time>2024-01-29T17:45:50Z</time>
      </trkpt>
      <trkpt lat="45.95006" lon="5.89636">
        <ele>483.96</ele>
        <time>2024-01-29T17:45:53Z</time>
      </trkpt>
      <trkpt lat="45.94897" lon="5.8963">
        <ele>477.38</ele>
        <time>2024-01-29T17:46:08Z</time>
      </trkpt>
      <trkpt lat="45.94734" lon="5.89632">
        <ele>470.2</ele>
        <time>2024-01-29T17:46:30Z</time>
      </trkpt>
      <trkpt lat="45.94682" lon="5.89642">
        <ele>468.81</ele>
        <time>2024-01-29T17:46:37Z</time>
      </trkpt>
      <trkpt lat="45.94657" lon="5.89657">
        <ele>467.85</ele>
        <time>2024-01-29T17:46:41Z</time>
      </trkpt>
      <trkpt lat="45.94606" lon="5.89705">
        <ele>465.77</ele>
        <time>2024-01-29T17:46:50Z</time>
      </trkpt>
      <trkpt lat="45.94582" lon="5.8972">
        <ele>465.05</ele>
        <time>2024-01-29T17:46:53Z</time>
      </trkpt>
      <trkpt lat="45.94548" lon="5.89728">
        <ele>464.85</ele>
        <time>2024-01-29T17:46:58Z</time>
      </trkpt>
      <trkpt lat="45.9451" lon="5.89722">
        <ele>464.26</ele>
        <time>2024-01-29T17:47:04Z</time>
      </trkpt>
      <trkpt lat="45.94472" lon="5.89754">
        <ele>463.71</ele>
        <time>2024-01-29T17:47:10Z</time>
      </trkpt>
      <trkpt lat="45.94451" lon="5.89785">
        <ele>463.45</ele>
        <time>2024-01-29T17:47:14Z</time>
      </trkpt>
      <trkpt lat="45.94429" lon="5.89796">
        <ele>463.02</ele>
        <time>2024-01-29T17:47:18Z</time>
      </trkpt>
      <trkpt lat="45.9442" lon="5.89795">
        <ele>462.86</ele>
        <time>2024-01-29T17:47:19Z</time>
      </trkpt>
      <trkpt lat="45.94398" lon="5.89794">
        <ele>462.33</ele>
        <time>2024-01-29T17:47:23Z</time>
      </trkpt>
      <trkpt lat="45.9435" lon="5.89816">
        <ele>461.77</ele>
        <time>2024-01-29T17:47:30Z</time>
      </trkpt>
      <trkpt lat="45.94335" lon="5.89811">
        <ele>461.35</ele>
        <time>2024-01-29T17:47:32Z</time>
      </trkpt>
      <trkpt lat="45.94319" lon="5.89796">
        <ele>461.13</ele>
        <time>2024-01-29T17:47:35Z</time>
      </trkpt>
      <trkpt lat="45.94307" lon="5.89796">
        <ele>461.33</ele>
        <time>2024-01-29T17:47:36Z</time>
      </trkpt>
      <trkpt lat="45.94235" lon="5.89832">
        <ele>461.69</ele>
        <time>2024-01-29T17:47:47Z</time>
      </trkpt>
      <trkpt lat="45.9418" lon="5.89883">
        <ele>460.95</ele>
        <time>2024-01-29T17:47:56Z</time>
      </trkpt>
      <trkpt lat="45.94164" lon="5.89892">
        <ele>460.1</ele>
        <time>2024-01-29T17:47:58Z</time>
      </trkpt>
      <trkpt lat="45.94144" lon="5.89884">
        <ele>459.1</ele>
        <time>2024-01-29T17:48:01Z</time>
      </trkpt>
      <trkpt lat="45.94103" lon="5.89845">
        <ele>454.73</ele>
        <time>2024-01-29T17:48:07Z</time>
      </trkpt>
      <trkpt lat="45.94078" lon="5.89828">
        <ele>452.72</ele>
        <time>2024-01-29T17:48:10Z</time>
      </trkpt>
      <trkpt lat="45.94066" lon="5.89825">
        <ele>451.54</ele>
        <time>2024-01-29T17:48:11Z</time>
      </trkpt>
      <trkpt lat="45.94025" lon="5.89827">
        <ele>449.67</ele>
        <time>2024-01-29T17:48:16Z</time>
      </trkpt>
      <trkpt lat="45.93937" lon="5.89842">
        <ele>445.47</ele>
        <time>2024-01-29T17:48:28Z</time>
      </trkpt>
      <trkpt lat="45.93898" lon="5.89841">
        <ele>443.45</ele>
        <time>2024-01-29T17:48:32Z</time>
      </trkpt>
      <trkpt lat="45.93824" lon="5.89802">
        <ele>438.37</ele>
        <time>2024-01-29T17:48:42Z</time>
      </trkpt>
      <trkpt lat="45.93751" lon="5.89761">
        <ele>432.05</ele>
        <time>2024-01-29T17:48:51Z</time>
      </trkpt>
      <trkpt lat="45.93736" lon="5.89743">
        <ele>431.03</ele>
        <time>2024-01-29T17:48:54Z</time>
      </trkpt>
      <trkpt lat="45.93679" lon="5.89723">
        <ele>425.72</ele>
        <time>2024-01-29T17:49:00Z</time>
      </trkpt>
      <trkpt lat="45.93662" lon="5.89728">
        <ele>424.25</ele>
        <time>2024-01-29T17:49:02Z</time>
      </trkpt>
      <trkpt lat="45.93625" lon="5.89761">
        <ele>421.21</ele>
        <time>2024-01-29T17:49:08Z</time>
      </trkpt>
      <trkpt lat="45.93579" lon="5.8977">
        <ele>418.6</ele>
        <time>2024-01-29T17:49:13Z</time>
      </trkpt>
      <trkpt lat="45.93573" lon="5.89772">
        <ele>418.17</ele>
        <time>2024-01-29T17:49:14Z</time>
      </trkpt>
      <trkpt lat="45.9356" lon="5.89762">
        <ele>417.01</ele>
        <time>2024-01-29T17:49:15Z</time>
      </trkpt>
      <trkpt lat="45.93522" lon="5.89694">
        <ele>412.34</ele>
        <time>2024-01-29T17:49:22Z</time>
      </trkpt>
      <trkpt lat="45.93514" lon="5.89684">
        <ele>411.32</ele>
        <time>2024-01-29T17:49:24Z</time>
      </trkpt>
      <trkpt lat="45.9351" lon="5.89683">
        <ele>410.77</ele>
        <time>2024-01-29T17:49:24Z</time>
      </trkpt>
      <trkpt lat="45.935" lon="5.89687">
        <ele>409.99</ele>
        <time>2024-01-29T17:49:25Z</time>
      </trkpt>
      <trkpt lat="45.93496" lon="5.89704">
        <ele>408.26</ele>
        <time>2024-01-29T17:49:27Z</time>
      </trkpt>
      <trkpt lat="45.93505" lon="5.89865">
        <ele>400.07</ele>
        <time>2024-01-29T17:49:40Z</time>
      </trkpt>
      <trkpt lat="45.93503" lon="5.89885">
        <ele>398.75</ele>
        <time>2024-01-29T17:49:41Z</time>
      </trkpt>
      <trkpt lat="45.93492" lon="5.89894">
        <ele>397.66</ele>
        <time>2024-01-29T17:49:43Z</time>
      </trkpt>
      <trkpt lat="45.93477" lon="5.89891">
        <ele>395.6</ele>
        <time>2024-01-29T17:49:44Z</time>
      </trkpt>
      <trkpt lat="45.93371" lon="5.89771">
        <ele>382.4</ele>
        <time>2024-01-29T17:50:00Z</time>
      </trkpt>
      <trkpt lat="45.93356" lon="5.89762">
        <ele>380.88</ele>
        <time>2024-01-29T17:50:02Z</time>
      </trkpt>
      <trkpt lat="45.9334" lon="5.89768">
        <ele>378.95</ele>
        <time>2024-01-29T17:50:04Z</time>
      </trkpt>
      <trkpt lat="45.93328" lon="5.89787">
        <ele>377.13</ele>
        <time>2024-01-29T17:50:07Z</time>
      </trkpt>
      <trkpt lat="45.93323" lon="5.89818">
        <ele>375.22</ele>
        <time>2024-01-29T17:50:10Z</time>
      </trkpt>
      <trkpt lat="45.93329" lon="5.89853">
        <ele>372.93</ele>
        <time>2024-01-29T17:50:13Z</time>
      </trkpt>
      <trkpt lat="45.93345" lon="5.89886">
        <ele>370.05</ele>
        <time>2024-01-29T17:50:17Z</time>
      </trkpt>
      <trkpt lat="45.93345" lon="5.89901">
        <ele>368.9</ele>
        <time>2024-01-29T17:50:18Z</time>
      </trkpt>
      <trkpt lat="45.93338" lon="5.89919">
        <ele>367.66</ele>
        <time>2024-01-29T17:50:20Z</time>
      </trkpt>
      <trkpt lat="45.93323" lon="5.89921">
        <ele>366.62</ele>
        <time>2024-01-29T17:50:22Z</time>
      </trkpt>
      <trkpt lat="45.93301" lon="5.89903">
        <ele>365.69</ele>
        <time>2024-01-29T17:50:25Z</time>
      </trkpt>
      <trkpt lat="45.93228" lon="5.89828">
        <ele>356.26</ele>
        <time>2024-01-29T17:50:36Z</time>
      </trkpt>
      <trkpt lat="45.93212" lon="5.89814">
        <ele>353.99</ele>
        <time>2024-01-29T17:50:38Z</time>
      </trkpt>
      <trkpt lat="45.93183" lon="5.89814">
        <ele>351.29</ele>
        <time>2024-01-29T17:50:42Z</time>
      </trkpt>
      <trkpt lat="45.93155" lon="5.89821">
        <ele>348.11</ele>
        <time>2024-01-29T17:50:45Z</time>
      </trkpt>
      <trkpt lat="45.93123" lon="5.89843">
        <ele>344.6</ele>
        <time>2024-01-29T17:50:49Z</time>
      </trkpt>
      <trkpt lat="45.931" lon="5.89875">
        <ele>341.18</ele>
        <time>2024-01-29T17:50:52Z</time>
      </trkpt>
      <trkpt lat="45.93086" lon="5.89903">
        <ele>339.26</ele>
        <time>2024-01-29T17:50:55Z</time>
      </trkpt>
      <trkpt lat="45.93079" lon="5.89905">
        <ele>338.15</ele>
        <time>2024-01-29T17:50:56Z</time>
      </trkpt>
      <trkpt lat="45.9307" lon="5.89897">
        <ele>336.85</ele>
        <time>2024-01-29T17:50:57Z</time>
      </trkpt>
      <trkpt lat="45.93068" lon="5.89883">
        <ele>335.73</ele>
        <time>2024-01-29T17:50:58Z</time>
      </trkpt>
      <trkpt lat="45.93069" lon="5.89866">
        <ele>334.27</ele>
        <time>2024-01-29T17:50:59Z</time>
      </trkpt>
      <trkpt lat="45.93091" lon="5.89821">
        <ele>332.29</ele>
        <time>2024-01-29T17:51:04Z</time>
      </trkpt>
      <trkpt lat="45.93099" lon="5.89793">
        <ele>330.25</ele>
        <time>2024-01-29T17:51:06Z</time>
      </trkpt>
      <trkpt lat="45.93103" lon="5.8975">
        <ele>327.76</ele>
        <time>2024-01-29T17:51:10Z</time>
      </trkpt>
      <trkpt lat="45.93111" lon="5.89723">
        <ele>326.4</ele>
        <time>2024-01-29T17:51:12Z</time>
      </trkpt>
      <trkpt lat="45.93114" lon="5.8969">
        <ele>324.18</ele>
        <time>2024-01-29T17:51:15Z</time>
      </trkpt>
      <trkpt lat="45.93108" lon="5.89675">
        <ele>322.74</ele>
        <time>2024-01-29T17:51:16Z</time>
      </trkpt>
      <trkpt lat="45.93097" lon="5.8966">
        <ele>321.27</ele>
        <time>2024-01-29T17:51:18Z</time>
      </trkpt>
      <trkpt lat="45.93066" lon="5.89629">
        <ele>318.14</ele>
        <time>2024-01-29T17:51:22Z</time>
      </trkpt>
      <trkpt lat="45.93054" lon="5.89625">
        <ele>317.8</ele>
        <time>2024-01-29T17:51:24Z</time>
      </trkpt>
      <trkpt lat="45.93044" lon="5.89609">
        <ele>317.29</ele>
        <time>2024-01-29T17:51:25Z</time>
      </trkpt>
      <trkpt lat="45.93036" lon="5.89588">
        <ele>316.29</ele>
        <time>2024-01-29T17:51:27Z</time>
      </trkpt>
      <trkpt lat="45.93007" lon="5.89502">
        <ele>312.06</ele>
        <time>2024-01-29T17:51:36Z</time>
      </trkpt>
      <trkpt lat="45.92995" lon="5.89457">
        <ele>311.07</ele>
        <time>2024-01-29T17:51:40Z</time>
      </trkpt>
      <trkpt lat="45.92977" lon="5.89408">
        <ele>309.28</ele>
        <time>2024-01-29T17:51:46Z</time>
      </trkpt>
      <trkpt lat="45.92958" lon="5.89369">
        <ele>305.16</ele>
        <time>2024-01-29T17:51:51Z</time>
      </trkpt>
      <trkpt lat="45.92938" lon="5.89334">
        <ele>303.19</ele>
        <time>2024-01-29T17:51:57Z</time>
      </trkpt>
      <trkpt lat="45.92934" lon="5.89325">
        <ele>303.12</ele>
        <time>2024-01-29T17:51:58Z</time>
      </trkpt>
      <trkpt lat="45.9292" lon="5.89312">
        <ele>302.35</ele>
        <time>2024-01-29T17:52:02Z</time>
      </trkpt>
      <trkpt lat="45.92904" lon="5.89307">
        <ele>303.23</ele>
        <time>2024-01-29T17:52:05Z</time>
      </trkpt>
      <trkpt lat="45.92867" lon="5.89302">
        <ele>304.65</ele>
        <time>2024-01-29T17:52:13Z</time>
      </trkpt>
      <trkpt lat="45.92833" lon="5.89312">
        <ele>306.79</ele>
        <time>2024-01-29T17:52:21Z</time>
      </trkpt>
      <trkpt lat="45.92783" lon="5.89354">
        <ele>308.27</ele>
        <time>2024-01-29T17:52:38Z</time>
      </trkpt>
      <trkpt lat="45.92736" lon="5.89368">
        <ele>308.4</ele>
        <time>2024-01-29T17:52:50Z</time>
      </trkpt>
      <trkpt lat="45.92657" lon="5.89395">
        <ele>308.3</ele>
        <time>2024-01-29T17:53:05Z</time>
      </trkpt>
      <trkpt lat="45.9264" lon="5.89412">
        <ele>308.04</ele>
        <time>2024-01-29T17:53:08Z</time>
      </trkpt>
      <trkpt lat="45.9257" lon="5.89503">
        <ele>308.45</ele>
        <time>2024-01-29T17:53:24Z</time>
      </trkpt>
      <trkpt lat="45.92545" lon="5.89556">
        <ele>308.88</ele>
        <time>2024-01-29T17:53:31Z</time>
      </trkpt>
      <trkpt lat="45.92534" lon="5.89584">
        <ele>309.32</ele>
        <time>2024-01-29T17:53:35Z</time>
      </trkpt>
      <trkpt lat="45.92515" lon="5.89613">
        <ele>309.58</ele>
        <time>2024-01-29T17:53:40Z</time>
      </trkpt>
      <trkpt lat="45.92422" lon="5.89699">
        <ele>310.18</ele>
        <time>2024-01-29T17:53:59Z</time>
      </trkpt>
      <trkpt lat="45.92373" lon="5.89759">
        <ele>309.9</ele>
        <time>2024-01-29T17:54:11Z</time>
      </trkpt>
      <trkpt lat="45.92336" lon="5.89793">
        <ele>310.28</ele>
        <time>2024-01-29T17:54:19Z</time>
      </trkpt>
      <trkpt lat="45.92328" lon="5.89799">
        <ele>310.44</ele>
        <time>2024-01-29T17:54:21Z</time>
      </trkpt>
      <trkpt lat="45.92297" lon="5.89826">
        <ele>311</ele>
        <time>2024-01-29T17:54:29Z</time>
      </trkpt>
      <trkpt lat="45.92285" lon="5.89836">
        <ele>311.2</ele>
        <time>2024-01-29T17:54:32Z</time>
      </trkpt>
      <trkpt lat="45.92227" lon="5.89869">
        <ele>311.78</ele>
        <time>2024-01-29T17:54:46Z</time>
      </trkpt>
      <trkpt lat="45.92181" lon="5.89904">
        <ele>312.38</ele>
        <time>2024-01-29T17:54:57Z</time>
      </trkpt>
      <trkpt lat="45.92119" lon="5.89966">
        <ele>312.97</ele>
        <time>2024-01-29T17:55:14Z</time>
      </trkpt>
      <trkpt lat="45.92107" lon="5.89976">
        <ele>313.28</ele>
        <time>2024-01-29T17:55:17Z</time>
      </trkpt>
      <trkpt lat="45.92099" lon="5.89984">
        <ele>313.37</ele>
        <time>2024-01-29T17:55:19Z</time>
      </trkpt>
      <trkpt lat="45.92081" lon="5.90006">
        <ele>313.69</ele>
        <time>2024-01-29T17:55:24Z</time>
      </trkpt>
      <trkpt lat="45.92066" lon="5.90019">
        <ele>313.85</ele>
        <time>2024-01-29T17:55:27Z</time>
      </trkpt>
      <trkpt lat="45.92058" lon="5.90026">
        <ele>313.78</ele>
        <time>2024-01-29T17:55:29Z</time>
      </trkpt>
      <trkpt lat="45.91857" lon="5.9023">
        <ele>314.68</ele>
        <time>2024-01-29T17:56:19Z</time>
      </trkpt>
      <trkpt lat="45.91846" lon="5.90239">
        <ele>314.91</ele>
        <time>2024-01-29T17:56:22Z</time>
      </trkpt>
      <trkpt lat="45.9182" lon="5.90249">
        <ele>315.65</ele>
        <time>2024-01-29T17:56:30Z</time>
      </trkpt>
      <trkpt lat="45.91812" lon="5.90249">
        <ele>315.9</ele>
        <time>2024-01-29T17:56:32Z</time>
      </trkpt>
      <trkpt lat="45.91803" lon="5.90248">
        <ele>316.29</ele>
        <time>2024-01-29T17:56:34Z</time>
      </trkpt>
      <trkpt lat="45.91788" lon="5.90243">
        <ele>316.77</ele>
        <time>2024-01-29T17:56:39Z</time>
      </trkpt>
      <trkpt lat="45.91754" lon="5.90225">
        <ele>318.01</ele>
        <time>2024-01-29T17:56:48Z</time>
      </trkpt>
      <trkpt lat="45.91728" lon="5.9022">
        <ele>319.03</ele>
        <time>2024-01-29T17:56:55Z</time>
      </trkpt>
      <trkpt lat="45.91714" lon="5.90223">
        <ele>319.54</ele>
        <time>2024-01-29T17:56:59Z</time>
      </trkpt>
      <trkpt lat="45.91689" lon="5.90236">
        <ele>320.25</ele>
        <time>2024-01-29T17:57:06Z</time>
      </trkpt>
      <trkpt lat="45.91676" lon="5.90249">
        <ele>320.41</ele>
        <time>2024-01-29T17:57:10Z</time>
      </trkpt>
      <trkpt lat="45.91637" lon="5.90291">
        <ele>321.83</ele>
        <time>2024-01-29T17:57:23Z</time>
      </trkpt>
      <trkpt lat="45.91616" lon="5.90322">
        <ele>321.72</ele>
        <time>2024-01-29T17:57:31Z</time>
      </trkpt>
      <trkpt lat="45.91601" lon="5.90345">
        <ele>321.27</ele>
        <time>2024-01-29T17:57:36Z</time>
      </trkpt>
      <trkpt lat="45.91573" lon="5.90369">
        <ele>320.49</ele>
        <time>2024-01-29T17:57:43Z</time>
      </trkpt>
      <trkpt lat="45.91556" lon="5.9038">
        <ele>320.47</ele>
        <time>2024-01-29T17:57:47Z</time>
      </trkpt>
      <trkpt lat="45.91501" lon="5.90415">
        <ele>320.92</ele>
        <time>2024-01-29T17:58:00Z</time>
      </trkpt>
      <trkpt lat="45.9147" lon="5.90434">
        <ele>321.52</ele>
        <time>2024-01-29T17:58:09Z</time>
      </trkpt>
      <trkpt lat="45.91444" lon="5.90445">
        <ele>321.72</ele>
        <time>2024-01-29T17:58:16Z</time>
      </trkpt>
      <trkpt lat="45.91415" lon="5.90452">
        <ele>322.09</ele>
        <time>2024-01-29T17:58:23Z</time>
      </trkpt>
      <trkpt lat="45.9135" lon="5.90454">
        <ele>322.69</ele>
        <time>2024-01-29T17:58:39Z</time>
      </trkpt>
      <trkpt lat="45.91326" lon="5.90458">
        <ele>322.98</ele>
        <time>2024-01-29T17:58:44Z</time>
      </trkpt>
      <trkpt lat="45.91296" lon="5.9047">
        <ele>323.43</ele>
        <time>2024-01-29T17:58:52Z</time>
      </trkpt>
      <trkpt lat="45.91279" lon="5.90484">
        <ele>323.67</ele>
        <time>2024-01-29T17:58:56Z</time>
      </trkpt>
      <trkpt lat="45.91259" lon="5.90505">
        <ele>324.11</ele>
        <time>2024-01-29T17:59:02Z</time>
      </trkpt>
      <trkpt lat="45.91234" lon="5.90537">
        <ele>324.29</ele>
        <time>2024-01-29T17:59:10Z</time>
      </trkpt>
      <trkpt lat="45.91082" lon="5.90733">
        <ele>325.77</ele>
        <time>2024-01-29T17:59:52Z</time>
      </trkpt>
      <trkpt lat="45.90976" lon="5.90875">
        <ele>330.74</ele>
        <time>2024-01-29T18:00:16Z</time>
      </trkpt>
      <trkpt lat="45.90964" lon="5.90888">
        <ele>330.39</ele>
        <time>2024-01-29T18:00:18Z</time>
      </trkpt>
      <trkpt lat="45.90931" lon="5.9091">
        <ele>328.64</ele>
        <time>2024-01-29T18:00:26Z</time>
      </trkpt>
      <trkpt lat="45.90909" lon="5.9092">
        <ele>326.82</ele>
        <time>2024-01-29T18:00:31Z</time>
      </trkpt>
      <trkpt lat="45.90851" lon="5.90938">
        <ele>322.45</ele>
        <time>2024-01-29T18:00:48Z</time>
      </trkpt>
      <trkpt lat="45.9082" lon="5.90961">
        <ele>320.53</ele>
        <time>2024-01-29T18:00:58Z</time>
      </trkpt>
      <trkpt lat="45.90719" lon="5.91076">
        <ele>322.88</ele>
        <time>2024-01-29T18:01:31Z</time>
      </trkpt>
      <trkpt lat="45.90699" lon="5.91103">
        <ele>322.95</ele>
        <time>2024-01-29T18:01:35Z</time>
      </trkpt>
      <trkpt lat="45.90651" lon="5.91177">
        <ele>322.64</ele>
        <time>2024-01-29T18:01:45Z</time>
      </trkpt>
      <trkpt lat="45.90618" lon="5.91217">
        <ele>322.98</ele>
        <time>2024-01-29T18:01:51Z</time>
      </trkpt>
      <trkpt lat="45.90583" lon="5.91246">
        <ele>323.13</ele>
        <time>2024-01-29T18:01:57Z</time>
      </trkpt>
      <trkpt lat="45.90536" lon="5.91277">
        <ele>323.33</ele>
        <time>2024-01-29T18:02:06Z</time>
      </trkpt>
      <trkpt lat="45.90533" lon="5.91269">
        <ele>323.44</ele>
        <time>2024-01-29T18:02:08Z</time>
      </trkpt>
      <trkpt lat="45.9035" lon="5.90993">
        <ele>342.63</ele>
        <time>2024-01-29T18:04:18Z</time>
      </trkpt>
      <trkpt lat="45.9031" lon="5.90931">
        <ele>345.88</ele>
        <time>2024-01-29T18:04:46Z</time>
      </trkpt>
      <trkpt lat="45.90287" lon="5.90907">
        <ele>345.25</ele>
        <time>2024-01-29T18:04:59Z</time>
      </trkpt>
      <trkpt lat="45.90273" lon="5.90898">
        <ele>345.35</ele>
        <time>2024-01-29T18:05:05Z</time>
      </trkpt>
      <trkpt lat="45.90235" lon="5.90886">
        <ele>345.54</ele>
        <time>2024-01-29T18:05:19Z</time>
      </trkpt>
      <trkpt lat="45.90169" lon="5.90864">
        <ele>346.45</ele>
        <time>2024-01-29T18:05:40Z</time>
      </trkpt>
      <trkpt lat="45.90161" lon="5.9086">
        <ele>346.72</ele>
        <time>2024-01-29T18:05:42Z</time>
      </trkpt>
      <trkpt lat="45.90145" lon="5.90846">
        <ele>347.74</ele>
        <time>2024-01-29T18:05:47Z</time>
      </trkpt>
      <trkpt lat="45.90075" lon="5.90838">
        <ele>343.87</ele>
        <time>2024-01-29T18:06:05Z</time>
      </trkpt>
      <trkpt lat="45.90057" lon="5.9083">
        <ele>343.19</ele>
        <time>2024-01-29T18:06:10Z</time>
      </trkpt>
      <trkpt lat="45.90041" lon="5.90816">
        <ele>342.54</ele>
        <time>2024-01-29T18:06:15Z</time>
      </trkpt>
      <trkpt lat="45.90015" lon="5.9078">
        <ele>342.23</ele>
        <time>2024-01-29T18:06:25Z</time>
      </trkpt>
      <trkpt lat="45.90008" lon="5.90776">
        <ele>341.9</ele>
        <time>2024-01-29T18:06:27Z</time>
      </trkpt>
      <trkpt lat="45.9" lon="5.90775">
        <ele>341.69</ele>
        <time>2024-01-29T18:06:30Z</time>
      </trkpt>
      <trkpt lat="45.89988" lon="5.9078">
        <ele>342.18</ele>
        <time>2024-01-29T18:06:34Z</time>
      </trkpt>
      <trkpt lat="45.89953" lon="5.90811">
        <ele>343.63</ele>
        <time>2024-01-29T18:06:48Z</time>
      </trkpt>
      <trkpt lat="45.89942" lon="5.90811">
        <ele>344.21</ele>
        <time>2024-01-29T18:06:52Z</time>
      </trkpt>
      <trkpt lat="45.89896" lon="5.90762">
        <ele>345.8</ele>
        <time>2024-01-29T18:07:10Z</time>
      </trkpt>
      <trkpt lat="45.89876" lon="5.90749">
        <ele>345.54</ele>
        <time>2024-01-29T18:07:16Z</time>
      </trkpt>
      <trkpt lat="45.89846" lon="5.9074">
        <ele>345.84</ele>
        <time>2024-01-29T18:07:24Z</time>
      </trkpt>
      <trkpt lat="45.89831" lon="5.90731">
        <ele>344.55</ele>
        <time>2024-01-29T18:07:28Z</time>
      </trkpt>
      <trkpt lat="45.89805" lon="5.90709">
        <ele>346.06</ele>
        <time>2024-01-29T18:07:34Z</time>
      </trkpt>
      <trkpt lat="45.89677" lon="5.90631">
        <ele>350.82</ele>
        <time>2024-01-29T18:07:56Z</time>
      </trkpt>
      <trkpt lat="45.89657" lon="5.9062">
        <ele>352.33</ele>
        <time>2024-01-29T18:07:59Z</time>
      </trkpt>
      <trkpt lat="45.89594" lon="5.90579">
        <ele>357.63</ele>
        <time>2024-01-29T18:08:09Z</time>
      </trkpt>
      <trkpt lat="45.89574" lon="5.90573">
        <ele>358.61</ele>
        <time>2024-01-29T18:08:13Z</time>
      </trkpt>
      <trkpt lat="45.89534" lon="5.90576">
        <ele>361.44</ele>
        <time>2024-01-29T18:08:21Z</time>
      </trkpt>
      <trkpt lat="45.89498" lon="5.90571">
        <ele>363.76</ele>
        <time>2024-01-29T18:08:31Z</time>
      </trkpt>
      <trkpt lat="45.89392" lon="5.90539">
        <ele>369.28</ele>
        <time>2024-01-29T18:08:59Z</time>
      </trkpt>
      <trkpt lat="45.89366" lon="5.90533">
        <ele>368.14</ele>
        <time>2024-01-29T18:09:07Z</time>
      </trkpt>
      <trkpt lat="45.89355" lon="5.90535">
        <ele>367.93</ele>
        <time>2024-01-29T18:09:10Z</time>
      </trkpt>
      <trkpt lat="45.89337" lon="5.90551">
        <ele>368.12</ele>
        <time>2024-01-29T18:09:15Z</time>
      </trkpt>
      <trkpt lat="45.89328" lon="5.90575">
        <ele>368.47</ele>
        <time>2024-01-29T18:09:21Z</time>
      </trkpt>
      <trkpt lat="45.89316" lon="5.90592">
        <ele>368.85</ele>
        <time>2024-01-29T18:09:26Z</time>
      </trkpt>
      <trkpt lat="45.89246" lon="5.9063">
        <ele>369.86</ele>
        <time>2024-01-29T18:09:48Z</time>
      </trkpt>
      <trkpt lat="45.89232" lon="5.9063">
        <ele>369.79</ele>
        <time>2024-01-29T18:09:52Z</time>
      </trkpt>
      <trkpt lat="45.89221" lon="5.90626">
        <ele>369.77</ele>
        <time>2024-01-29T18:09:55Z</time>
      </trkpt>
      <trkpt lat="45.89165" lon="5.90587">
        <ele>369.82</ele>
        <time>2024-01-29T18:10:14Z</time>
      </trkpt>
      <trkpt lat="45.89147" lon="5.90577">
        <ele>370.45</ele>
        <time>2024-01-29T18:10:20Z</time>
      </trkpt>
      <trkpt lat="45.89124" lon="5.90576">
        <ele>371.16</ele>
        <time>2024-01-29T18:10:27Z</time>
      </trkpt>
      <trkpt lat="45.89097" lon="5.90584">
        <ele>371.85</ele>
        <time>2024-01-29T18:10:36Z</time>
      </trkpt>
      <trkpt lat="45.89064" lon="5.90603">
        <ele>372.15</ele>
        <time>2024-01-29T18:10:46Z</time>
      </trkpt>
      <trkpt lat="45.89056" lon="5.90611">
        <ele>372.3</ele>
        <time>2024-01-29T18:10:49Z</time>
      </trkpt>
      <trkpt lat="45.89046" lon="5.90633">
        <ele>372.99</ele>
        <time>2024-01-29T18:10:54Z</time>
      </trkpt>
      <trkpt lat="45.89037" lon="5.90645">
        <ele>373.77</ele>
        <time>2024-01-29T18:10:57Z</time>
      </trkpt>
      <trkpt lat="45.89026" lon="5.90652">
        <ele>374.38</ele>
        <time>2024-01-29T18:11:01Z</time>
      </trkpt>
      <trkpt lat="45.88917" lon="5.90644">
        <ele>378.11</ele>
        <time>2024-01-29T18:11:29Z</time>
      </trkpt>
      <trkpt lat="45.88814" lon="5.90613">
        <ele>379.96</ele>
        <time>2024-01-29T18:11:59Z</time>
      </trkpt>
      <trkpt lat="45.88783" lon="5.90613">
        <ele>380.59</ele>
        <time>2024-01-29T18:12:08Z</time>
      </trkpt>
      <trkpt lat="45.88777" lon="5.90614">
        <ele>380.99</ele>
        <time>2024-01-29T18:12:10Z</time>
      </trkpt>
      <trkpt lat="45.88708" lon="5.90619">
        <ele>382</ele>
        <time>2024-01-29T18:12:33Z</time>
      </trkpt>
      <trkpt lat="45.88689" lon="5.90627">
        <ele>382.2</ele>
        <time>2024-01-29T18:12:39Z</time>
      </trkpt>
      <trkpt lat="45.88656" lon="5.90678">
        <ele>385.24</ele>
        <time>2024-01-29T18:12:55Z</time>
      </trkpt>
      <trkpt lat="45.88639" lon="5.90691">
        <ele>386.8</ele>
        <time>2024-01-29T18:13:01Z</time>
      </trkpt>
      <trkpt lat="45.88609" lon="5.90696">
        <ele>389.09</ele>
        <time>2024-01-29T18:13:10Z</time>
      </trkpt>
      <trkpt lat="45.88551" lon="5.90696">
        <ele>392.66</ele>
        <time>2024-01-29T18:13:26Z</time>
      </trkpt>
      <trkpt lat="45.88448" lon="5.90691">
        <ele>397.78</ele>
        <time>2024-01-29T18:13:54Z</time>
      </trkpt>
      <trkpt lat="45.88429" lon="5.90687">
        <ele>398.57</ele>
        <time>2024-01-29T18:14:00Z</time>
      </trkpt>
      <trkpt lat="45.88409" lon="5.90677">
        <ele>399.28</ele>
        <time>2024-01-29T18:14:08Z</time>
      </trkpt>
      <trkpt lat="45.8837" lon="5.90653">
        <ele>401.01</ele>
        <time>2024-01-29T18:14:23Z</time>
      </trkpt>
      <trkpt lat="45.88374" lon="5.90627">
        <ele>402.73</ele>
        <time>2024-01-29T18:14:31Z</time>
      </trkpt>
      <trkpt lat="45.88375" lon="5.90598">
        <ele>404.39</ele>
        <time>2024-01-29T18:14:40Z</time>
      </trkpt>
      <trkpt lat="45.88369" lon="5.90529">
        <ele>408.08</ele>
        <time>2024-01-29T18:15:02Z</time>
      </trkpt>
      <trkpt lat="45.88364" lon="5.90509">
        <ele>409.29</ele>
        <time>2024-01-29T18:15:10Z</time>
      </trkpt>
      <trkpt lat="45.88347" lon="5.905">
        <ele>411.11</ele>
        <time>2024-01-29T18:15:19Z</time>
      </trkpt>
      <trkpt lat="45.88334" lon="5.90493">
        <ele>412.95</ele>
        <time>2024-01-29T18:15:26Z</time>
      </trkpt>
      <trkpt lat="45.882" lon="5.90444">
        <ele>425.4</ele>
        <time>2024-01-29T18:16:38Z</time>
      </trkpt>
      <trkpt lat="45.88127" lon="5.90384">
        <ele>431.03</ele>
        <time>2024-01-29T18:17:18Z</time>
      </trkpt>
      <trkpt lat="45.8805" lon="5.90346">
        <ele>436.55</ele>
        <time>2024-01-29T18:17:55Z</time>
      </trkpt>
      <trkpt lat="45.88047" lon="5.90344">
        <ele>436.74</ele>
        <time>2024-01-29T18:17:56Z</time>
      </trkpt>
      <trkpt lat="45.87858" lon="5.90251">
        <ele>452.38</ele>
        <time>2024-01-29T18:19:24Z</time>
      </trkpt>
      <trkpt lat="45.87804" lon="5.9028">
        <ele>454.21</ele>
        <time>2024-01-29T18:19:47Z</time>
      </trkpt>
      <trkpt lat="45.87784" lon="5.90288">
        <ele>455.42</ele>
        <time>2024-01-29T18:19:54Z</time>
      </trkpt>
      <trkpt lat="45.87767" lon="5.90288">
        <ele>456.88</ele>
        <time>2024-01-29T18:19:59Z</time>
      </trkpt>
      <trkpt lat="45.87753" lon="5.90287">
        <ele>458.48</ele>
        <time>2024-01-29T18:20:02Z</time>
      </trkpt>
      <trkpt lat="45.87701" lon="5.90248">
        <ele>462.73</ele>
        <time>2024-01-29T18:20:13Z</time>
      </trkpt>
      <trkpt lat="45.87692" lon="5.9024">
        <ele>463.29</ele>
        <time>2024-01-29T18:20:14Z</time>
      </trkpt>
      <trkpt lat="45.87671" lon="5.90233">
        <ele>463.83</ele>
        <time>2024-01-29T18:20:18Z</time>
      </trkpt>
      <trkpt lat="45.87618" lon="5.90272">
        <ele>462.23</ele>
        <time>2024-01-29T18:20:26Z</time>
      </trkpt>
      <trkpt lat="45.87597" lon="5.90277">
        <ele>461.49</ele>
        <time>2024-01-29T18:20:29Z</time>
      </trkpt>
      <trkpt lat="45.87559" lon="5.9027">
        <ele>459.74</ele>
        <time>2024-01-29T18:20:34Z</time>
      </trkpt>
      <trkpt lat="45.87459" lon="5.9024">
        <ele>454.23</ele>
        <time>2024-01-29T18:20:47Z</time>
      </trkpt>
      <trkpt lat="45.87417" lon="5.90205">
        <ele>451.69</ele>
        <time>2024-01-29T18:20:53Z</time>
      </trkpt>
      <trkpt lat="45.87395" lon="5.90197">
        <ele>448.76</ele>
        <time>2024-01-29T18:20:56Z</time>
      </trkpt>
      <trkpt lat="45.87371" lon="5.90192">
        <ele>445.8</ele>
        <time>2024-01-29T18:20:59Z</time>
      </trkpt>
      <trkpt lat="45.8734" lon="5.90191">
        <ele>442.91</ele>
        <time>2024-01-29T18:21:04Z</time>
      </trkpt>
      <trkpt lat="45.87288" lon="5.9022">
        <ele>438.85</ele>
        <time>2024-01-29T18:21:12Z</time>
      </trkpt>
      <trkpt lat="45.87271" lon="5.90233">
        <ele>437.28</ele>
        <time>2024-01-29T18:21:14Z</time>
      </trkpt>
      <trkpt lat="45.87265" lon="5.90247">
        <ele>436.43</ele>
        <time>2024-01-29T18:21:16Z</time>
      </trkpt>
      <trkpt lat="45.87262" lon="5.90285">
        <ele>434.6</ele>
        <time>2024-01-29T18:21:20Z</time>
      </trkpt>
      <trkpt lat="45.87257" lon="5.90303">
        <ele>434.26</ele>
        <time>2024-01-29T18:21:22Z</time>
      </trkpt>
      <trkpt lat="45.8724" lon="5.90319">
        <ele>434.2</ele>
        <time>2024-01-29T18:21:25Z</time>
      </trkpt>
      <trkpt lat="45.87164" lon="5.90347">
        <ele>435.4</ele>
        <time>2024-01-29T18:21:38Z</time>
      </trkpt>
      <trkpt lat="45.87063" lon="5.90367">
        <ele>436.64</ele>
        <time>2024-01-29T18:22:01Z</time>
      </trkpt>
      <trkpt lat="45.86994" lon="5.90388">
        <ele>437.15</ele>
        <time>2024-01-29T18:22:21Z</time>
      </trkpt>
      <trkpt lat="45.86968" lon="5.90394">
        <ele>438.92</ele>
        <time>2024-01-29T18:22:29Z</time>
      </trkpt>
      <trkpt lat="45.86872" lon="5.90429">
        <ele>443.53</ele>
        <time>2024-01-29T18:22:58Z</time>
      </trkpt>
      <trkpt lat="45.86824" lon="5.90471">
        <ele>439.09</ele>
        <time>2024-01-29T18:23:14Z</time>
      </trkpt>
      <trkpt lat="45.86727" lon="5.90496">
        <ele>445.11</ele>
        <time>2024-01-29T18:23:42Z</time>
      </trkpt>
      <trkpt lat="45.8671" lon="5.90495">
        <ele>445.7</ele>
        <time>2024-01-29T18:23:47Z</time>
      </trkpt>
      <trkpt lat="45.86646" lon="5.90472">
        <ele>449.08</ele>
        <time>2024-01-29T18:24:08Z</time>
      </trkpt>
      <trkpt lat="45.86637" lon="5.90489">
        <ele>447.79</ele>
        <time>2024-01-29T18:24:13Z</time>
      </trkpt>
      <trkpt lat="45.86627" lon="5.90525">
        <ele>445.97</ele>
        <time>2024-01-29T18:24:22Z</time>
      </trkpt>
      <trkpt lat="45.86619" lon="5.90568">
        <ele>446.85</ele>
        <time>2024-01-29T18:24:32Z</time>
      </trkpt>
      <trkpt lat="45.86565" lon="5.90571">
        <ele>451.41</ele>
        <time>2024-01-29T18:24:51Z</time>
      </trkpt>
      <trkpt lat="45.86553" lon="5.90578">
        <ele>453.09</ele>
        <time>2024-01-29T18:24:56Z</time>
      </trkpt>
      <trkpt lat="45.86537" lon="5.90596">
        <ele>455.32</ele>
        <time>2024-01-29T18:25:04Z</time>
      </trkpt>
      <trkpt lat="45.86525" lon="5.90618">
        <ele>456.03</ele>
        <time>2024-01-29T18:25:11Z</time>
      </trkpt>
      <trkpt lat="45.86484" lon="5.9068">
        <ele>458.97</ele>
        <time>2024-01-29T18:25:38Z</time>
      </trkpt>
      <trkpt lat="45.86467" lon="5.90689">
        <ele>460.04</ele>
        <time>2024-01-29T18:25:46Z</time>
      </trkpt>
      <trkpt lat="45.86456" lon="5.90686">
        <ele>461.96</ele>
        <time>2024-01-29T18:25:52Z</time>
      </trkpt>
      <trkpt lat="45.86449" lon="5.90677">
        <ele>463.38</ele>
        <time>2024-01-29T18:25:56Z</time>
      </trkpt>
      <trkpt lat="45.86445" lon="5.90662">
        <ele>464.92</ele>
        <time>2024-01-29T18:26:01Z</time>
      </trkpt>
      <trkpt lat="45.86452" lon="5.90643">
        <ele>466.79</ele>
        <time>2024-01-29T18:26:08Z</time>
      </trkpt>
      <trkpt lat="45.86475" lon="5.90608">
        <ele>466.3</ele>
        <time>2024-01-29T18:26:23Z</time>
      </trkpt>
      <trkpt lat="45.86477" lon="5.90578">
        <ele>467.75</ele>
        <time>2024-01-29T18:26:33Z</time>
      </trkpt>
      <trkpt lat="45.86469" lon="5.90559">
        <ele>469.29</ele>
        <time>2024-01-29T18:26:40Z</time>
      </trkpt>
      <trkpt lat="45.86453" lon="5.90552">
        <ele>471.65</ele>
        <time>2024-01-29T18:26:48Z</time>
      </trkpt>
      <trkpt lat="45.86445" lon="5.90562">
        <ele>473.98</ele>
        <time>2024-01-29T18:26:53Z</time>
      </trkpt>
      <trkpt lat="45.86427" lon="5.90601">
        <ele>477.29</ele>
        <time>2024-01-29T18:27:09Z</time>
      </trkpt>
      <trkpt lat="45.8641" lon="5.90622">
        <ele>478.94</ele>
        <time>2024-01-29T18:27:20Z</time>
      </trkpt>
      <trkpt lat="45.8638" lon="5.90649">
        <ele>478.45</ele>
        <time>2024-01-29T18:27:36Z</time>
      </trkpt>
      <trkpt lat="45.86292" lon="5.90675">
        <ele>483.18</ele>
        <time>2024-01-29T18:28:17Z</time>
      </trkpt>
      <trkpt lat="45.86254" lon="5.90675">
        <ele>490.47</ele>
        <time>2024-01-29T18:28:35Z</time>
      </trkpt>
      <trkpt lat="45.86235" lon="5.90667">
        <ele>494.05</ele>
        <time>2024-01-29T18:28:45Z</time>
      </trkpt>
      <trkpt lat="45.86023" lon="5.905">
        <ele>516.87</ele>
        <time>2024-01-29T18:30:54Z</time>
      </trkpt>
      <trkpt lat="45.86003" lon="5.90493">
        <ele>519.27</ele>
        <time>2024-01-29T18:31:04Z</time>
      </trkpt>
      <trkpt lat="45.85989" lon="5.90503">
        <ele>519.31</ele>
        <time>2024-01-29T18:31:11Z</time>
      </trkpt>
      <trkpt lat="45.8597" lon="5.9053">
        <ele>519.99</ele>
        <time>2024-01-29T18:31:24Z</time>
      </trkpt>
      <trkpt lat="45.8596" lon="5.90539">
        <ele>521.07</ele>
        <time>2024-01-29T18:31:30Z</time>
      </trkpt>
      <trkpt lat="45.85928" lon="5.90545">
        <ele>523.2</ele>
        <time>2024-01-29T18:31:46Z</time>
      </trkpt>
      <trkpt lat="45.85907" lon="5.90543">
        <ele>524.06</ele>
        <time>2024-01-29T18:31:56Z</time>
      </trkpt>
      <trkpt lat="45.85896" lon="5.90519">
        <ele>527.17</ele>
        <time>2024-01-29T18:32:06Z</time>
      </trkpt>
      <trkpt lat="45.85863" lon="5.90477">
        <ele>531.51</ele>
        <time>2024-01-29T18:32:27Z</time>
      </trkpt>
      <trkpt lat="45.85851" lon="5.90456">
        <ele>534.12</ele>
        <time>2024-01-29T18:32:36Z</time>
      </trkpt>
      <trkpt lat="45.85843" lon="5.9043">
        <ele>537.34</ele>
        <time>2024-01-29T18:32:46Z</time>
      </trkpt>
      <trkpt lat="45.85844" lon="5.90364">
        <ele>544.65</ele>
        <time>2024-01-29T18:33:13Z</time>
      </trkpt>
      <trkpt lat="45.85839" lon="5.90349">
        <ele>545.83</ele>
        <time>2024-01-29T18:33:20Z</time>
      </trkpt>
      <trkpt lat="45.85825" lon="5.90344">
        <ele>546.27</ele>
        <time>2024-01-29T18:33:29Z</time>
      </trkpt>
      <trkpt lat="45.85804" lon="5.90329">
        <ele>547.8</ele>
        <time>2024-01-29T18:33:44Z</time>
      </trkpt>
      <trkpt lat="45.85791" lon="5.90303">
        <ele>549.76</ele>
        <time>2024-01-29T18:33:58Z</time>
      </trkpt>
      <trkpt lat="45.85791" lon="5.90269">
        <ele>553.14</ele>
        <time>2024-01-29T18:34:13Z</time>
      </trkpt>
      <trkpt lat="45.85778" lon="5.90202">
        <ele>558.08</ele>
        <time>2024-01-29T18:34:40Z</time>
      </trkpt>
      <trkpt lat="45.85768" lon="5.90166">
        <ele>562.09</ele>
        <time>2024-01-29T18:34:55Z</time>
      </trkpt>
      <trkpt lat="45.85756" lon="5.90129">
        <ele>562.97</ele>
        <time>2024-01-29T18:35:10Z</time>
      </trkpt>
      <trkpt lat="45.85733" lon="5.90096">
        <ele>563.45</ele>
        <time>2024-01-29T18:35:27Z</time>
      </trkpt>
      <trkpt lat="45.8571" lon="5.90081">
        <ele>563.58</ele>
        <time>2024-01-29T18:35:40Z</time>
      </trkpt>
      <trkpt lat="45.85691" lon="5.90077">
        <ele>564.03</ele>
        <time>2024-01-29T18:35:49Z</time>
      </trkpt>
      <trkpt lat="45.85673" lon="5.90079">
        <ele>563.95</ele>
        <time>2024-01-29T18:35:58Z</time>
      </trkpt>
      <trkpt lat="45.85598" lon="5.90058">
        <ele>567.07</ele>
        <time>2024-01-29T18:36:30Z</time>
      </trkpt>
      <trkpt lat="45.85531" lon="5.90049">
        <ele>570.43</ele>
        <time>2024-01-29T18:36:52Z</time>
      </trkpt>
      <trkpt lat="45.85503" lon="5.90035">
        <ele>573.06</ele>
        <time>2024-01-29T18:37:01Z</time>
      </trkpt>
      <trkpt lat="45.85428" lon="5.90015">
        <ele>576.97</ele>
        <time>2024-01-29T18:37:22Z</time>
      </trkpt>
      <trkpt lat="45.85408" lon="5.90008">
        <ele>577.22</ele>
        <time>2024-01-29T18:37:26Z</time>
      </trkpt>
      <trkpt lat="45.85284" lon="5.89949">
        <ele>577.9</ele>
        <time>2024-01-29T18:37:58Z</time>
      </trkpt>
      <trkpt lat="45.85188" lon="5.89935">
        <ele>578.23</ele>
        <time>2024-01-29T18:38:19Z</time>
      </trkpt>
      <trkpt lat="45.8518" lon="5.89936">
        <ele>578.14</ele>
        <time>2024-01-29T18:38:20Z</time>
      </trkpt>
      <trkpt lat="45.85168" lon="5.89945">
        <ele>578.12</ele>
        <time>2024-01-29T18:38:23Z</time>
      </trkpt>
      <trkpt lat="45.85161" lon="5.89953">
        <ele>578.46</ele>
        <time>2024-01-29T18:38:25Z</time>
      </trkpt>
      <trkpt lat="45.85145" lon="5.89979">
        <ele>577.8</ele>
        <time>2024-01-29T18:38:30Z</time>
      </trkpt>
      <trkpt lat="45.85134" lon="5.90011">
        <ele>578.16</ele>
        <time>2024-01-29T18:38:36Z</time>
      </trkpt>
      <trkpt lat="45.85123" lon="5.90061">
        <ele>575.91</ele>
        <time>2024-01-29T18:38:44Z</time>
      </trkpt>
      <trkpt lat="45.85112" lon="5.90053">
        <ele>578.77</ele>
        <time>2024-01-29T18:38:49Z</time>
      </trkpt>
      <trkpt lat="45.8508" lon="5.90052">
        <ele>582.34</ele>
        <time>2024-01-29T18:39:00Z</time>
      </trkpt>
      <trkpt lat="45.85056" lon="5.90037">
        <ele>585.36</ele>
        <time>2024-01-29T18:39:09Z</time>
      </trkpt>
      <trkpt lat="45.85032" lon="5.90014">
        <ele>587.65</ele>
        <time>2024-01-29T18:39:19Z</time>
      </trkpt>
      <trkpt lat="45.84988" lon="5.89956">
        <ele>592.84</ele>
        <time>2024-01-29T18:39:45Z</time>
      </trkpt>
      <trkpt lat="45.84973" lon="5.89921">
        <ele>594.85</ele>
        <time>2024-01-29T18:39:58Z</time>
      </trkpt>
      <trkpt lat="45.84932" lon="5.89874">
        <ele>595.78</ele>
        <time>2024-01-29T18:40:23Z</time>
      </trkpt>
      <trkpt lat="45.84866" lon="5.89812">
        <ele>600.14</ele>
        <time>2024-01-29T18:41:02Z</time>
      </trkpt>
      <trkpt lat="45.84853" lon="5.89804">
        <ele>601.37</ele>
        <time>2024-01-29T18:41:10Z</time>
      </trkpt>
      <trkpt lat="45.84822" lon="5.89801">
        <ele>600.06</ele>
        <time>2024-01-29T18:41:26Z</time>
      </trkpt>
      <trkpt lat="45.84744" lon="5.89741">
        <ele>607.02</ele>
        <time>2024-01-29T18:42:13Z</time>
      </trkpt>
      <trkpt lat="45.84737" lon="5.89723">
        <ele>609.07</ele>
        <time>2024-01-29T18:42:20Z</time>
      </trkpt>
      <trkpt lat="45.84737" lon="5.89709">
        <ele>610.42</ele>
        <time>2024-01-29T18:42:25Z</time>
      </trkpt>
      <trkpt lat="45.84746" lon="5.89671">
        <ele>612.83</ele>
        <time>2024-01-29T18:42:40Z</time>
      </trkpt>
      <trkpt lat="45.84749" lon="5.89634">
        <ele>613.32</ele>
        <time>2024-01-29T18:42:54Z</time>
      </trkpt>
      <trkpt lat="45.84708" lon="5.89557">
        <ele>613.96</ele>
        <time>2024-01-29T18:43:32Z</time>
      </trkpt>
      <trkpt lat="45.84692" lon="5.89533">
        <ele>613.9</ele>
        <time>2024-01-29T18:43:47Z</time>
      </trkpt>
      <trkpt lat="45.84678" lon="5.89503">
        <ele>616.07</ele>
        <time>2024-01-29T18:44:02Z</time>
      </trkpt>
      <trkpt lat="45.84669" lon="5.89473">
        <ele>619.34</ele>
        <time>2024-01-29T18:44:17Z</time>
      </trkpt>
      <trkpt lat="45.84654" lon="5.89427">
        <ele>624.11</ele>
        <time>2024-01-29T18:44:41Z</time>
      </trkpt>
      <trkpt lat="45.84613" lon="5.89376">
        <ele>629</ele>
        <time>2024-01-29T18:45:15Z</time>
      </trkpt>
      <trkpt lat="45.84595" lon="5.89358">
        <ele>630.24</ele>
        <time>2024-01-29T18:45:32Z</time>
      </trkpt>
      <trkpt lat="45.8458" lon="5.89339">
        <ele>633.62</ele>
        <time>2024-01-29T18:45:46Z</time>
      </trkpt>
      <trkpt lat="45.84574" lon="5.89317">
        <ele>637.66</ele>
        <time>2024-01-29T18:45:59Z</time>
      </trkpt>
      <trkpt lat="45.84578" lon="5.89302">
        <ele>640.76</ele>
        <time>2024-01-29T18:46:07Z</time>
      </trkpt>
      <trkpt lat="45.84598" lon="5.89304">
        <ele>642.14</ele>
        <time>2024-01-29T18:46:23Z</time>
      </trkpt>
      <trkpt lat="45.84636" lon="5.89324">
        <ele>643.01</ele>
        <time>2024-01-29T18:46:54Z</time>
      </trkpt>
      <trkpt lat="45.84652" lon="5.89324">
        <ele>646.08</ele>
        <time>2024-01-29T18:47:07Z</time>
      </trkpt>
      <trkpt lat="45.84661" lon="5.89311">
        <ele>649.56</ele>
        <time>2024-01-29T18:47:18Z</time>
      </trkpt>
      <trkpt lat="45.84655" lon="5.89294">
        <ele>651.43</ele>
        <time>2024-01-29T18:47:28Z</time>
      </trkpt>
      <trkpt lat="45.8459" lon="5.89238">
        <ele>655.59</ele>
        <time>2024-01-29T18:48:25Z</time>
      </trkpt>
      <trkpt lat="45.84537" lon="5.89222">
        <ele>658.49</ele>
        <time>2024-01-29T18:49:08Z</time>
      </trkpt>
      <trkpt lat="45.84488" lon="5.892">
        <ele>662.64</ele>
        <time>2024-01-29T18:49:45Z</time>
      </trkpt>
      <trkpt lat="45.84451" lon="5.89203">
        <ele>661.31</ele>
        <time>2024-01-29T18:50:11Z</time>
      </trkpt>
      <trkpt lat="45.84434" lon="5.89211">
        <ele>662.21</ele>
        <time>2024-01-29T18:50:24Z</time>
      </trkpt>
      <trkpt lat="45.84399" lon="5.89194">
        <ele>665.96</ele>
        <time>2024-01-29T18:50:48Z</time>
      </trkpt>
      <trkpt lat="45.84376" lon="5.89178">
        <ele>668.39</ele>
        <time>2024-01-29T18:51:04Z</time>
      </trkpt>
      <trkpt lat="45.84352" lon="5.89163">
        <ele>671.38</ele>
        <time>2024-01-29T18:51:20Z</time>
      </trkpt>
      <trkpt lat="45.84331" lon="5.89157">
        <ele>672.47</ele>
        <time>2024-01-29T18:51:31Z</time>
      </trkpt>
      <trkpt lat="45.84308" lon="5.89145">
        <ele>675.53</ele>
        <time>2024-01-29T18:51:45Z</time>
      </trkpt>
      <trkpt lat="45.84285" lon="5.89137">
        <ele>676.18</ele>
        <time>2024-01-29T18:51:56Z</time>
      </trkpt>
      <trkpt lat="45.84259" lon="5.8912">
        <ele>678.46</ele>
        <time>2024-01-29T18:52:10Z</time>
      </trkpt>
      <trkpt lat="45.84234" lon="5.89109">
        <ele>680.13</ele>
        <time>2024-01-29T18:52:23Z</time>
      </trkpt>
      <trkpt lat="45.84204" lon="5.89086">
        <ele>682.76</ele>
        <time>2024-01-29T18:52:41Z</time>
      </trkpt>
      <trkpt lat="45.84184" lon="5.89074">
        <ele>683.96</ele>
        <time>2024-01-29T18:52:53Z</time>
      </trkpt>
      <trkpt lat="45.84168" lon="5.89056">
        <ele>686.08</ele>
        <time>2024-01-29T18:53:04Z</time>
      </trkpt>
      <trkpt lat="45.84151" lon="5.89028">
        <ele>687.44</ele>
        <time>2024-01-29T18:53:19Z</time>
      </trkpt>
      <trkpt lat="45.84133" lon="5.88971">
        <ele>688.68</ele>
        <time>2024-01-29T18:53:46Z</time>
      </trkpt>
      <trkpt lat="45.84101" lon="5.88935">
        <ele>691.2</ele>
        <time>2024-01-29T18:54:13Z</time>
      </trkpt>
      <trkpt lat="45.84065" lon="5.88924">
        <ele>692.68</ele>
        <time>2024-01-29T18:54:40Z</time>
      </trkpt>
      <trkpt lat="45.84038" lon="5.88909">
        <ele>695.01</ele>
        <time>2024-01-29T18:55:03Z</time>
      </trkpt>
      <trkpt lat="45.84011" lon="5.88886">
        <ele>698.7</ele>
        <time>2024-01-29T18:55:29Z</time>
      </trkpt>
      <trkpt lat="45.83937" lon="5.88832">
        <ele>712.19</ele>
        <time>2024-01-29T18:56:41Z</time>
      </trkpt>
      <trkpt lat="45.83907" lon="5.88813">
        <ele>718.41</ele>
        <time>2024-01-29T18:57:09Z</time>
      </trkpt>
      <trkpt lat="45.83882" lon="5.88801">
        <ele>722.44</ele>
        <time>2024-01-29T18:57:31Z</time>
      </trkpt>
      <trkpt lat="45.83808" lon="5.88727">
        <ele>737.81</ele>
        <time>2024-01-29T18:58:39Z</time>
      </trkpt>
      <trkpt lat="45.83753" lon="5.88708">
        <ele>742.28</ele>
        <time>2024-01-29T18:59:15Z</time>
      </trkpt>
      <trkpt lat="45.83622" lon="5.88617">
        <ele>750.47</ele>
        <time>2024-01-29T19:00:45Z</time>
      </trkpt>
      <trkpt lat="45.83597" lon="5.88592">
        <ele>752.85</ele>
        <time>2024-01-29T19:01:05Z</time>
      </trkpt>
      <trkpt lat="45.83585" lon="5.88566">
        <ele>758.51</ele>
        <time>2024-01-29T19:01:19Z</time>
      </trkpt>
      <trkpt lat="45.8359" lon="5.88563">
        <ele>759.85</ele>
        <time>2024-01-29T19:01:23Z</time>
      </trkpt>
      <trkpt lat="45.83617" lon="5.88575">
        <ele>766.21</ele>
        <time>2024-01-29T19:01:43Z</time>
      </trkpt>
      <trkpt lat="45.83694" lon="5.88583">
        <ele>778.59</ele>
        <time>2024-01-29T19:02:47Z</time>
      </trkpt>
      <trkpt lat="45.83747" lon="5.88598">
        <ele>784.86</ele>
        <time>2024-01-29T19:03:38Z</time>
      </trkpt>
      <trkpt lat="45.83793" lon="5.88595">
        <ele>794.43</ele>
        <time>2024-01-29T19:04:22Z</time>
      </trkpt>
      <trkpt lat="45.83809" lon="5.88578">
        <ele>799.57</ele>
        <time>2024-01-29T19:04:43Z</time>
      </trkpt>
      <trkpt lat="45.83855" lon="5.88563">
        <ele>812.09</ele>
        <time>2024-01-29T19:05:31Z</time>
      </trkpt>
      <trkpt lat="45.83911" lon="5.88557">
        <ele>825.84</ele>
        <time>2024-01-29T19:06:32Z</time>
      </trkpt>
      <trkpt lat="45.83944" lon="5.88562">
        <ele>830</ele>
        <time>2024-01-29T19:07:07Z</time>
      </trkpt>
      <trkpt lat="45.8398" lon="5.88557">
        <ele>833.36</ele>
        <time>2024-01-29T19:07:44Z</time>
      </trkpt>
      <trkpt lat="45.84029" lon="5.88514">
        <ele>836.28</ele>
        <time>2024-01-29T19:08:39Z</time>
      </trkpt>
      <trkpt lat="45.84074" lon="5.88487">
        <ele>836.4</ele>
        <time>2024-01-29T19:09:24Z</time>
      </trkpt>
      <trkpt lat="45.84125" lon="5.88478">
        <ele>845.41</ele>
        <time>2024-01-29T19:10:10Z</time>
      </trkpt>
      <trkpt lat="45.84167" lon="5.88453">
        <ele>850.17</ele>
        <time>2024-01-29T19:10:50Z</time>
      </trkpt>
      <trkpt lat="45.84208" lon="5.88451">
        <ele>853.32</ele>
        <time>2024-01-29T19:11:27Z</time>
      </trkpt>
      <trkpt lat="45.84224" lon="5.88441">
        <ele>856.4</ele>
        <time>2024-01-29T19:11:42Z</time>
      </trkpt>
      <trkpt lat="45.84233" lon="5.88407">
        <ele>862.8</ele>
        <time>2024-01-29T19:12:05Z</time>
      </trkpt>
      <trkpt lat="45.84253" lon="5.88379">
        <ele>869.9</ele>
        <time>2024-01-29T19:12:32Z</time>
      </trkpt>
      <trkpt lat="45.84265" lon="5.88345">
        <ele>873.38</ele>
        <time>2024-01-29T19:12:56Z</time>
      </trkpt>
      <trkpt lat="45.8429" lon="5.88245">
        <ele>885.13</ele>
        <time>2024-01-29T19:14:01Z</time>
      </trkpt>
      <trkpt lat="45.84301" lon="5.8822">
        <ele>888.48</ele>
        <time>2024-01-29T19:14:18Z</time>
      </trkpt>
      <trkpt lat="45.84315" lon="5.88205">
        <ele>893.06</ele>
        <time>2024-01-29T19:14:32Z</time>
      </trkpt>
      <trkpt lat="45.84422" lon="5.88219">
        <ele>903.35</ele>
        <time>2024-01-29T19:15:45Z</time>
      </trkpt>
      <trkpt lat="45.84452" lon="5.8825">
        <ele>904.23</ele>
        <time>2024-01-29T19:16:06Z</time>
      </trkpt>
      <trkpt lat="45.84479" lon="5.88274">
        <ele>905.49</ele>
        <time>2024-01-29T19:16:23Z</time>
      </trkpt>
      <trkpt lat="45.84505" lon="5.88291">
        <ele>906.65</ele>
        <time>2024-01-29T19:16:38Z</time>
      </trkpt>
      <trkpt lat="45.84555" lon="5.88274">
        <ele>914.54</ele>
        <time>2024-01-29T19:17:08Z</time>
      </trkpt>
      <trkpt lat="45.84605" lon="5.88285">
        <ele>916.47</ele>
        <time>2024-01-29T19:17:37Z</time>
      </trkpt>
      <trkpt lat="45.84648" lon="5.88279">
        <ele>920.33</ele>
        <time>2024-01-29T19:18:04Z</time>
      </trkpt>
      <trkpt lat="45.84692" lon="5.88283">
        <ele>923.13</ele>
        <time>2024-01-29T19:18:32Z</time>
      </trkpt>
      <trkpt lat="45.84752" lon="5.88266">
        <ele>928.25</ele>
        <time>2024-01-29T19:19:09Z</time>
      </trkpt>
      <trkpt lat="45.84779" lon="5.88275">
        <ele>930.35</ele>
        <time>2024-01-29T19:19:24Z</time>
      </trkpt>
      <trkpt lat="45.848" lon="5.88277">
        <ele>931.57</ele>
        <time>2024-01-29T19:19:36Z</time>
      </trkpt>
      <trkpt lat="45.84844" lon="5.88269">
        <ele>936.67</ele>
        <time>2024-01-29T19:20:01Z</time>
      </trkpt>
      <trkpt lat="45.8489" lon="5.88291">
        <ele>936.82</ele>
        <time>2024-01-29T19:20:25Z</time>
      </trkpt>
      <trkpt lat="45.8493" lon="5.88291">
        <ele>939.38</ele>
        <time>2024-01-29T19:20:44Z</time>
      </trkpt>
      <trkpt lat="45.84995" lon="5.88285">
        <ele>942</ele>
        <time>2024-01-29T19:21:14Z</time>
      </trkpt>
      <trkpt lat="45.85038" lon="5.88291">
        <ele>940.58</ele>
        <time>2024-01-29T19:21:34Z</time>
      </trkpt>
      <trkpt lat="45.85061" lon="5.88299">
        <ele>940.69</ele>
        <time>2024-01-29T19:21:44Z</time>
      </trkpt>
      <trkpt lat="45.85088" lon="5.88298">
        <ele>942.99</ele>
        <time>2024-01-29T19:21:56Z</time>
      </trkpt>
      <trkpt lat="45.85079" lon="5.88292">
        <ele>943.5</ele>
        <time>2024-01-29T19:21:59Z</time>
      </trkpt>
      <trkpt lat="45.85073" lon="5.8828">
        <ele>943.75</ele>
        <time>2024-01-29T19:22:02Z</time>
      </trkpt>
      <trkpt lat="45.85073" lon="5.88256">
        <ele>944.82</ele>
        <time>2024-01-29T19:22:07Z</time>
      </trkpt>
      <trkpt lat="45.85079" lon="5.88248">
        <ele>945.53</ele>
        <time>2024-01-29T19:22:10Z</time>
      </trkpt>
      <trkpt lat="45.85092" lon="5.88246">
        <ele>945.91</ele>
        <time>2024-01-29T19:22:14Z</time>
      </trkpt>
      <trkpt lat="45.85123" lon="5.88253">
        <ele>947.77</ele>
        <time>2024-01-29T19:22:25Z</time>
      </trkpt>
      <trkpt lat="45.85196" lon="5.88271">
        <ele>950.77</ele>
        <time>2024-01-29T19:22:49Z</time>
      </trkpt>
      <trkpt lat="45.85211" lon="5.88275">
        <ele>951.69</ele>
        <time>2024-01-29T19:22:55Z</time>
      </trkpt>
      <trkpt lat="45.85221" lon="5.88273">
        <ele>952.44</ele>
        <time>2024-01-29T19:22:58Z</time>
      </trkpt>
      <trkpt lat="45.85229" lon="5.88265">
        <ele>953.22</ele>
        <time>2024-01-29T19:23:01Z</time>
      </trkpt>
      <trkpt lat="45.85232" lon="5.88255">
        <ele>953.81</ele>
        <time>2024-01-29T19:23:04Z</time>
      </trkpt>
      <trkpt lat="45.8523" lon="5.88241">
        <ele>954.78</ele>
        <time>2024-01-29T19:23:07Z</time>
      </trkpt>
      <trkpt lat="45.85226" lon="5.88233">
        <ele>955.03</ele>
        <time>2024-01-29T19:23:09Z</time>
      </trkpt>
      <trkpt lat="45.85216" lon="5.88225">
        <ele>955.92</ele>
        <time>2024-01-29T19:23:13Z</time>
      </trkpt>
      <trkpt lat="45.85142" lon="5.88205">
        <ele>960.19</ele>
        <time>2024-01-29T19:23:41Z</time>
      </trkpt>
      <trkpt lat="45.85097" lon="5.88177">
        <ele>962.62</ele>
        <time>2024-01-29T19:23:59Z</time>
      </trkpt>
      <trkpt lat="45.85029" lon="5.88107">
        <ele>966.72</ele>
        <time>2024-01-29T19:24:30Z</time>
      </trkpt>
      <trkpt lat="45.85017" lon="5.88101">
        <ele>967.48</ele>
        <time>2024-01-29T19:24:35Z</time>
      </trkpt>
      <trkpt lat="45.84975" lon="5.88093">
        <ele>970.63</ele>
        <time>2024-01-29T19:24:51Z</time>
      </trkpt>
      <trkpt lat="45.8496" lon="5.88086">
        <ele>971.71</ele>
        <time>2024-01-29T19:24:57Z</time>
      </trkpt>
      <trkpt lat="45.84941" lon="5.88068">
        <ele>973.33</ele>
        <time>2024-01-29T19:25:06Z</time>
      </trkpt>
      <trkpt lat="45.84931" lon="5.88053">
        <ele>974.22</ele>
        <time>2024-01-29T19:25:11Z</time>
      </trkpt>
      <trkpt lat="45.84921" lon="5.88039">
        <ele>974.96</ele>
        <time>2024-01-29T19:25:16Z</time>
      </trkpt>
      <trkpt lat="45.8491" lon="5.88025">
        <ele>976.1</ele>
        <time>2024-01-29T19:25:21Z</time>
      </trkpt>
      <trkpt lat="45.84901" lon="5.88019">
        <ele>976.41</ele>
        <time>2024-01-29T19:25:25Z</time>
      </trkpt>
      <trkpt lat="45.84882" lon="5.88012">
        <ele>977.05</ele>
        <time>2024-01-29T19:25:31Z</time>
      </trkpt>
      <trkpt lat="45.84777" lon="5.87991">
        <ele>982.56</ele>
        <time>2024-01-29T19:26:08Z</time>
      </trkpt>
      <trkpt lat="45.8477" lon="5.87983">
        <ele>983.21</ele>
        <time>2024-01-29T19:26:11Z</time>
      </trkpt>
      <trkpt lat="45.84764" lon="5.8797">
        <ele>983.4</ele>
        <time>2024-01-29T19:26:15Z</time>
      </trkpt>
      <trkpt lat="45.84719" lon="5.87749">
        <ele>978.87</ele>
        <time>2024-01-29T19:27:14Z</time>
      </trkpt>
      <trkpt lat="45.8468" lon="5.8775">
        <ele>977.35</ele>
        <time>2024-01-29T19:27:35Z</time>
      </trkpt>
      <trkpt lat="45.84641" lon="5.87741">
        <ele>977.54</ele>
        <time>2024-01-29T19:27:57Z</time>
      </trkpt>
      <trkpt lat="45.8462" lon="5.87732">
        <ele>978</ele>
        <time>2024-01-29T19:28:08Z</time>
      </trkpt>
      <trkpt lat="45.84594" lon="5.87736">
        <ele>979.03</ele>
        <time>2024-01-29T19:28:20Z</time>
      </trkpt>
      <trkpt lat="45.84572" lon="5.87757">
        <ele>981.25</ele>
        <time>2024-01-29T19:28:33Z</time>
      </trkpt>
      <trkpt lat="45.84563" lon="5.87757">
        <ele>982.42</ele>
        <time>2024-01-29T19:28:37Z</time>
      </trkpt>
      <trkpt lat="45.84553" lon="5.87749">
        <ele>984.23</ele>
        <time>2024-01-29T19:28:42Z</time>
      </trkpt>
      <trkpt lat="45.84537" lon="5.87692">
        <ele>991.01</ele>
        <time>2024-01-29T19:28:59Z</time>
      </trkpt>
      <trkpt lat="45.84528" lon="5.87679">
        <ele>991.97</ele>
        <time>2024-01-29T19:29:03Z</time>
      </trkpt>
      <trkpt lat="45.84384" lon="5.87494">
        <ele>982.51</ele>
        <time>2024-01-29T19:29:58Z</time>
      </trkpt>
      <trkpt lat="45.84321" lon="5.87419">
        <ele>979.06</ele>
        <time>2024-01-29T19:30:24Z</time>
      </trkpt>
      <trkpt lat="45.84298" lon="5.87396">
        <ele>978.83</ele>
        <time>2024-01-29T19:30:34Z</time>
      </trkpt>
      <trkpt lat="45.84271" lon="5.87364">
        <ele>980.15</ele>
        <time>2024-01-29T19:30:46Z</time>
      </trkpt>
      <trkpt lat="45.84244" lon="5.87361">
        <ele>983.92</ele>
        <time>2024-01-29T19:30:55Z</time>
      </trkpt>
      <trkpt lat="45.84212" lon="5.8737">
        <ele>985.07</ele>
        <time>2024-01-29T19:31:05Z</time>
      </trkpt>
      <trkpt lat="45.84202" lon="5.87374">
        <ele>982.04</ele>
        <time>2024-01-29T19:31:07Z</time>
      </trkpt>
      <trkpt lat="45.84182" lon="5.87394">
        <ele>979.21</ele>
        <time>2024-01-29T19:31:13Z</time>
      </trkpt>
      <trkpt lat="45.84149" lon="5.87412">
        <ele>978.44</ele>
        <time>2024-01-29T19:31:22Z</time>
      </trkpt>
      <trkpt lat="45.8413" lon="5.87413">
        <ele>978</ele>
        <time>2024-01-29T19:31:27Z</time>
      </trkpt>
      <trkpt lat="45.84092" lon="5.87399">
        <ele>975.49</ele>
        <time>2024-01-29T19:31:37Z</time>
      </trkpt>
      <trkpt lat="45.84082" lon="5.87397">
        <ele>975.38</ele>
        <time>2024-01-29T19:31:40Z</time>
      </trkpt>
      <trkpt lat="45.84071" lon="5.87404">
        <ele>975.52</ele>
        <time>2024-01-29T19:31:43Z</time>
      </trkpt>
      <trkpt lat="45.84027" lon="5.87421">
        <ele>975.54</ele>
        <time>2024-01-29T19:31:55Z</time>
      </trkpt>
      <trkpt lat="45.83996" lon="5.87437">
        <ele>975.27</ele>
        <time>2024-01-29T19:32:03Z</time>
      </trkpt>
      <trkpt lat="45.83987" lon="5.87449">
        <ele>975.57</ele>
        <time>2024-01-29T19:32:06Z</time>
      </trkpt>
      <trkpt lat="45.83988" lon="5.87485">
        <ele>977.4</ele>
        <time>2024-01-29T19:32:13Z</time>
      </trkpt>
      <trkpt lat="45.83961" lon="5.87516">
        <ele>978.89</ele>
        <time>2024-01-29T19:32:23Z</time>
      </trkpt>
      <trkpt lat="45.83901" lon="5.87563">
        <ele>978.03</ele>
        <time>2024-01-29T19:32:45Z</time>
      </trkpt>
      <trkpt lat="45.83881" lon="5.87587">
        <ele>977.93</ele>
        <time>2024-01-29T19:32:54Z</time>
      </trkpt>
      <trkpt lat="45.83853" lon="5.87606">
        <ele>976.46</ele>
        <time>2024-01-29T19:33:04Z</time>
      </trkpt>
      <trkpt lat="45.83833" lon="5.87602">
        <ele>978.83</ele>
        <time>2024-01-29T19:33:10Z</time>
      </trkpt>
      <trkpt lat="45.8382" lon="5.87567">
        <ele>977.75</ele>
        <time>2024-01-29T19:33:18Z</time>
      </trkpt>
      <trkpt lat="45.83842" lon="5.87468">
        <ele>975.39</ele>
        <time>2024-01-29T19:33:37Z</time>
      </trkpt>
      <trkpt lat="45.83835" lon="5.87449">
        <ele>974.95</ele>
        <time>2024-01-29T19:33:41Z</time>
      </trkpt>
      <trkpt lat="45.8383" lon="5.87428">
        <ele>973.46</ele>
        <time>2024-01-29T19:33:45Z</time>
      </trkpt>
      <trkpt lat="45.83793" lon="5.87398">
        <ele>974.74</ele>
        <time>2024-01-29T19:33:55Z</time>
      </trkpt>
      <trkpt lat="45.8372" lon="5.87466">
        <ele>979.13</ele>
        <time>2024-01-29T19:34:13Z</time>
      </trkpt>
      <trkpt lat="45.83712" lon="5.87499">
        <ele>981.57</ele>
        <time>2024-01-29T19:34:17Z</time>
      </trkpt>
      <trkpt lat="45.83696" lon="5.8751">
        <ele>980.34</ele>
        <time>2024-01-29T19:34:21Z</time>
      </trkpt>
      <trkpt lat="45.8365" lon="5.87521">
        <ele>969.1</ele>
        <time>2024-01-29T19:34:30Z</time>
      </trkpt>
      <trkpt lat="45.83627" lon="5.87537">
        <ele>967.04</ele>
        <time>2024-01-29T19:34:34Z</time>
      </trkpt>
      <trkpt lat="45.83602" lon="5.87541">
        <ele>966.74</ele>
        <time>2024-01-29T19:34:39Z</time>
      </trkpt>
      <trkpt lat="45.83582" lon="5.87533">
        <ele>967.23</ele>
        <time>2024-01-29T19:34:43Z</time>
      </trkpt>
      <trkpt lat="45.83578" lon="5.87597">
        <ele>942.55</ele>
        <time>2024-01-29T19:34:52Z</time>
      </trkpt>
      <trkpt lat="45.83572" lon="5.87634">
        <ele>931.47</ele>
        <time>2024-01-29T19:34:57Z</time>
      </trkpt>
      <trkpt lat="45.8356" lon="5.87651">
        <ele>929.29</ele>
        <time>2024-01-29T19:35:00Z</time>
      </trkpt>
      <trkpt lat="45.83544" lon="5.87657">
        <ele>928.67</ele>
        <time>2024-01-29T19:35:03Z</time>
      </trkpt>
      <trkpt lat="45.83492" lon="5.87613">
        <ele>930.62</ele>
        <time>2024-01-29T19:35:17Z</time>
      </trkpt>
      <trkpt lat="45.83472" lon="5.87593">
        <ele>930.74</ele>
        <time>2024-01-29T19:35:22Z</time>
      </trkpt>
      <trkpt lat="45.83456" lon="5.87569">
        <ele>930.33</ele>
        <time>2024-01-29T19:35:28Z</time>
      </trkpt>
      <trkpt lat="45.83432" lon="5.87478">
        <ele>929.59</ele>
        <time>2024-01-29T19:35:51Z</time>
      </trkpt>
      <trkpt lat="45.83422" lon="5.8743">
        <ele>928.9</ele>
        <time>2024-01-29T19:36:03Z</time>
      </trkpt>
      <trkpt lat="45.83414" lon="5.87375">
        <ele>927.54</ele>
        <time>2024-01-29T19:36:14Z</time>
      </trkpt>
      <trkpt lat="45.83417" lon="5.87338">
        <ele>926.35</ele>
        <time>2024-01-29T19:36:21Z</time>
      </trkpt>
      <trkpt lat="45.83401" lon="5.87327">
        <ele>925.45</ele>
        <time>2024-01-29T19:36:26Z</time>
      </trkpt>
      <trkpt lat="45.83376" lon="5.87318">
        <ele>924.88</ele>
        <time>2024-01-29T19:36:32Z</time>
      </trkpt>
      <trkpt lat="45.83345" lon="5.87313">
        <ele>924.72</ele>
        <time>2024-01-29T19:36:40Z</time>
      </trkpt>
      <trkpt lat="45.83323" lon="5.87313">
        <ele>925.61</ele>
        <time>2024-01-29T19:36:45Z</time>
      </trkpt>
      <trkpt lat="45.83293" lon="5.87299">
        <ele>924.97</ele>
        <time>2024-01-29T19:36:52Z</time>
      </trkpt>
      <trkpt lat="45.8325" lon="5.87293">
        <ele>924.62</ele>
        <time>2024-01-29T19:37:01Z</time>
      </trkpt>
      <trkpt lat="45.83243" lon="5.873">
        <ele>921.02</ele>
        <time>2024-01-29T19:37:03Z</time>
      </trkpt>
      <trkpt lat="45.83218" lon="5.87335">
        <ele>913.66</ele>
        <time>2024-01-29T19:37:11Z</time>
      </trkpt>
      <trkpt lat="45.83213" lon="5.87366">
        <ele>912.51</ele>
        <time>2024-01-29T19:37:16Z</time>
      </trkpt>
      <trkpt lat="45.8321" lon="5.87431">
        <ele>907.4</ele>
        <time>2024-01-29T19:37:27Z</time>
      </trkpt>
      <trkpt lat="45.83204" lon="5.87442">
        <ele>905.45</ele>
        <time>2024-01-29T19:37:29Z</time>
      </trkpt>
      <trkpt lat="45.83192" lon="5.87455">
        <ele>904.25</ele>
        <time>2024-01-29T19:37:33Z</time>
      </trkpt>
      <trkpt lat="45.83127" lon="5.87368">
        <ele>902.69</ele>
        <time>2024-01-29T19:37:47Z</time>
      </trkpt>
      <trkpt lat="45.83104" lon="5.87345">
        <ele>901.65</ele>
        <time>2024-01-29T19:37:52Z</time>
      </trkpt>
      <trkpt lat="45.83083" lon="5.87319">
        <ele>900.84</ele>
        <time>2024-01-29T19:37:57Z</time>
      </trkpt>
      <trkpt lat="45.8306" lon="5.87283">
        <ele>900.71</ele>
        <time>2024-01-29T19:38:05Z</time>
      </trkpt>
      <trkpt lat="45.8301" lon="5.87182">
        <ele>898.44</ele>
        <time>2024-01-29T19:38:22Z</time>
      </trkpt>
      <trkpt lat="45.82954" lon="5.871">
        <ele>899.49</ele>
        <time>2024-01-29T19:38:34Z</time>
      </trkpt>
      <trkpt lat="45.82876" lon="5.86966">
        <ele>892.05</ele>
        <time>2024-01-29T19:38:52Z</time>
      </trkpt>
      <trkpt lat="45.8285" lon="5.86938">
        <ele>890.49</ele>
        <time>2024-01-29T19:38:56Z</time>
      </trkpt>
      <trkpt lat="45.82847" lon="5.86926">
        <ele>889.96</ele>
        <time>2024-01-29T19:38:58Z</time>
      </trkpt>
      <trkpt lat="45.82789" lon="5.86833">
        <ele>885.52</ele>
        <time>2024-01-29T19:39:17Z</time>
      </trkpt>
      <trkpt lat="45.82776" lon="5.86817">
        <ele>884.36</ele>
        <time>2024-01-29T19:39:21Z</time>
      </trkpt>
      <trkpt lat="45.82754" lon="5.86782">
        <ele>881.99</ele>
        <time>2024-01-29T19:39:28Z</time>
      </trkpt>
      <trkpt lat="45.82774" lon="5.86752">
        <ele>880.34</ele>
        <time>2024-01-29T19:39:32Z</time>
      </trkpt>
      <trkpt lat="45.82791" lon="5.86691">
        <ele>877.14</ele>
        <time>2024-01-29T19:39:37Z</time>
      </trkpt>
      <trkpt lat="45.82805" lon="5.86675">
        <ele>875.81</ele>
        <time>2024-01-29T19:39:39Z</time>
      </trkpt>
      <trkpt lat="45.82827" lon="5.8666">
        <ele>873.08</ele>
        <time>2024-01-29T19:39:43Z</time>
      </trkpt>
      <trkpt lat="45.8285" lon="5.86652">
        <ele>871.44</ele>
        <time>2024-01-29T19:39:46Z</time>
      </trkpt>
      <trkpt lat="45.82914" lon="5.86644">
        <ele>866.46</ele>
        <time>2024-01-29T19:39:54Z</time>
      </trkpt>
      <trkpt lat="45.82983" lon="5.86623">
        <ele>860.97</ele>
        <time>2024-01-29T19:40:04Z</time>
      </trkpt>
      <trkpt lat="45.83054" lon="5.86616">
        <ele>855.98</ele>
        <time>2024-01-29T19:40:13Z</time>
      </trkpt>
      <trkpt lat="45.83136" lon="5.86631">
        <ele>850.01</ele>
        <time>2024-01-29T19:40:23Z</time>
      </trkpt>
      <trkpt lat="45.83184" lon="5.86605">
        <ele>844.17</ele>
        <time>2024-01-29T19:40:28Z</time>
      </trkpt>
      <trkpt lat="45.8321" lon="5.86576">
        <ele>842.2</ele>
        <time>2024-01-29T19:40:32Z</time>
      </trkpt>
      <trkpt lat="45.8327" lon="5.86543">
        <ele>836.41</ele>
        <time>2024-01-29T19:40:39Z</time>
      </trkpt>
      <trkpt lat="45.83287" lon="5.8651">
        <ele>833.19</ele>
        <time>2024-01-29T19:40:42Z</time>
      </trkpt>
      <trkpt lat="45.83315" lon="5.86499">
        <ele>831.57</ele>
        <time>2024-01-29T19:40:45Z</time>
      </trkpt>
      <trkpt lat="45.83343" lon="5.86459">
        <ele>827.85</ele>
        <time>2024-01-29T19:40:50Z</time>
      </trkpt>
      <trkpt lat="45.83371" lon="5.864">
        <ele>823.8</ele>
        <time>2024-01-29T19:40:55Z</time>
      </trkpt>
      <trkpt lat="45.83389" lon="5.86392">
        <ele>822.17</ele>
        <time>2024-01-29T19:40:58Z</time>
      </trkpt>
      <trkpt lat="45.83438" lon="5.86383">
        <ele>817.02</ele>
        <time>2024-01-29T19:41:03Z</time>
      </trkpt>
      <trkpt lat="45.83513" lon="5.86359">
        <ele>809.43</ele>
        <time>2024-01-29T19:41:13Z</time>
      </trkpt>
      <trkpt lat="45.836" lon="5.86338">
        <ele>801.7</ele>
        <time>2024-01-29T19:41:24Z</time>
      </trkpt>
      <trkpt lat="45.83632" lon="5.86327">
        <ele>799.14</ele>
        <time>2024-01-29T19:41:28Z</time>
      </trkpt>
      <trkpt lat="45.8366" lon="5.86312">
        <ele>795.48</ele>
        <time>2024-01-29T19:41:31Z</time>
      </trkpt>
      <trkpt lat="45.83683" lon="5.86294">
        <ele>793.03</ele>
        <time>2024-01-29T19:41:34Z</time>
      </trkpt>
      <trkpt lat="45.83692" lon="5.86281">
        <ele>791.61</ele>
        <time>2024-01-29T19:41:36Z</time>
      </trkpt>
      <trkpt lat="45.83702" lon="5.86274">
        <ele>790.51</ele>
        <time>2024-01-29T19:41:37Z</time>
      </trkpt>
      <trkpt lat="45.83711" lon="5.86275">
        <ele>787.02</ele>
        <time>2024-01-29T19:41:38Z</time>
      </trkpt>
      <trkpt lat="45.83723" lon="5.86287">
        <ele>788.18</ele>
        <time>2024-01-29T19:41:40Z</time>
      </trkpt>
      <trkpt lat="45.83737" lon="5.86292">
        <ele>786.64</ele>
        <time>2024-01-29T19:41:41Z</time>
      </trkpt>
      <trkpt lat="45.83767" lon="5.86297">
        <ele>785.34</ele>
        <time>2024-01-29T19:41:45Z</time>
      </trkpt>
      <trkpt lat="45.83785" lon="5.86296">
        <ele>782.05</ele>
        <time>2024-01-29T19:41:47Z</time>
      </trkpt>
      <trkpt lat="45.83794" lon="5.86292">
        <ele>780.74</ele>
        <time>2024-01-29T19:41:48Z</time>
      </trkpt>
      <trkpt lat="45.83797" lon="5.86285">
        <ele>780.54</ele>
        <time>2024-01-29T19:41:49Z</time>
      </trkpt>
      <trkpt lat="45.83794" lon="5.86277">
        <ele>779.85</ele>
        <time>2024-01-29T19:41:50Z</time>
      </trkpt>
      <trkpt lat="45.8376" lon="5.86266">
        <ele>777.33</ele>
        <time>2024-01-29T19:41:54Z</time>
      </trkpt>
      <trkpt lat="45.83707" lon="5.86238">
        <ele>773.21</ele>
        <time>2024-01-29T19:42:00Z</time>
      </trkpt>
      <trkpt lat="45.83679" lon="5.86214">
        <ele>769.34</ele>
        <time>2024-01-29T19:42:04Z</time>
      </trkpt>
      <trkpt lat="45.83654" lon="5.8618">
        <ele>766.2</ele>
        <time>2024-01-29T19:42:07Z</time>
      </trkpt>
      <trkpt lat="45.83644" lon="5.8617">
        <ele>765.3</ele>
        <time>2024-01-29T19:42:09Z</time>
      </trkpt>
      <trkpt lat="45.83554" lon="5.86148">
        <ele>756.88</ele>
        <time>2024-01-29T19:42:19Z</time>
      </trkpt>
      <trkpt lat="45.83521" lon="5.86125">
        <ele>754.01</ele>
        <time>2024-01-29T19:42:23Z</time>
      </trkpt>
      <trkpt lat="45.83484" lon="5.86111">
        <ele>749.72</ele>
        <time>2024-01-29T19:42:28Z</time>
      </trkpt>
      <trkpt lat="45.83422" lon="5.86107">
        <ele>743.45</ele>
        <time>2024-01-29T19:42:35Z</time>
      </trkpt>
      <trkpt lat="45.83418" lon="5.86098">
        <ele>742.84</ele>
        <time>2024-01-29T19:42:36Z</time>
      </trkpt>
      <trkpt lat="45.8342" lon="5.86092">
        <ele>742.37</ele>
        <time>2024-01-29T19:42:36Z</time>
      </trkpt>
      <trkpt lat="45.83425" lon="5.86088">
        <ele>741.96</ele>
        <time>2024-01-29T19:42:37Z</time>
      </trkpt>
      <trkpt lat="45.83607" lon="5.86053">
        <ele>725.89</ele>
        <time>2024-01-29T19:42:59Z</time>
      </trkpt>
      <trkpt lat="45.83695" lon="5.86038">
        <ele>717.47</ele>
        <time>2024-01-29T19:43:10Z</time>
      </trkpt>
      <trkpt lat="45.83788" lon="5.86028">
        <ele>709.09</ele>
        <time>2024-01-29T19:43:21Z</time>
      </trkpt>
      <trkpt lat="45.83807" lon="5.86033">
        <ele>707.34</ele>
        <time>2024-01-29T19:43:23Z</time>
      </trkpt>
      <trkpt lat="45.83834" lon="5.86055">
        <ele>704.68</ele>
        <time>2024-01-29T19:43:26Z</time>
      </trkpt>
      <trkpt lat="45.83878" lon="5.86048">
        <ele>700.74</ele>
        <time>2024-01-29T19:43:32Z</time>
      </trkpt>
      <trkpt lat="45.83933" lon="5.86052">
        <ele>696.75</ele>
        <time>2024-01-29T19:43:38Z</time>
      </trkpt>
      <trkpt lat="45.83941" lon="5.86051">
        <ele>695.32</ele>
        <time>2024-01-29T19:43:39Z</time>
      </trkpt>
      <trkpt lat="45.83944" lon="5.86045">
        <ele>694.81</ele>
        <time>2024-01-29T19:43:39Z</time>
      </trkpt>
      <trkpt lat="45.83944" lon="5.86038">
        <ele>694.07</ele>
        <time>2024-01-29T19:43:40Z</time>
      </trkpt>
      <trkpt lat="45.8394" lon="5.86033">
        <ele>693.5</ele>
        <time>2024-01-29T19:43:41Z</time>
      </trkpt>
      <trkpt lat="45.83857" lon="5.85989">
        <ele>685.66</ele>
        <time>2024-01-29T19:43:51Z</time>
      </trkpt>
      <trkpt lat="45.83828" lon="5.85963">
        <ele>682.13</ele>
        <time>2024-01-29T19:43:55Z</time>
      </trkpt>
      <trkpt lat="45.83727" lon="5.85928">
        <ele>673.51</ele>
        <time>2024-01-29T19:44:07Z</time>
      </trkpt>
      <trkpt lat="45.83717" lon="5.85917">
        <ele>671.21</ele>
        <time>2024-01-29T19:44:09Z</time>
      </trkpt>
      <trkpt lat="45.83706" lon="5.85887">
        <ele>669.5</ele>
        <time>2024-01-29T19:44:11Z</time>
      </trkpt>
      <trkpt lat="45.83697" lon="5.85838">
        <ele>667.38</ele>
        <time>2024-01-29T19:44:15Z</time>
      </trkpt>
      <trkpt lat="45.83689" lon="5.85827">
        <ele>666.43</ele>
        <time>2024-01-29T19:44:16Z</time>
      </trkpt>
      <trkpt lat="45.83678" lon="5.8582">
        <ele>663.87</ele>
        <time>2024-01-29T19:44:18Z</time>
      </trkpt>
      <trkpt lat="45.83528" lon="5.85767">
        <ele>649.63</ele>
        <time>2024-01-29T19:44:35Z</time>
      </trkpt>
      <trkpt lat="45.83515" lon="5.85765">
        <ele>649.06</ele>
        <time>2024-01-29T19:44:36Z</time>
      </trkpt>
      <trkpt lat="45.83467" lon="5.85784">
        <ele>644.79</ele>
        <time>2024-01-29T19:44:42Z</time>
      </trkpt>
      <trkpt lat="45.83444" lon="5.85775">
        <ele>641.52</ele>
        <time>2024-01-29T19:44:44Z</time>
      </trkpt>
      <trkpt lat="45.83411" lon="5.85748">
        <ele>639.12</ele>
        <time>2024-01-29T19:44:49Z</time>
      </trkpt>
      <trkpt lat="45.83385" lon="5.85746">
        <ele>636.81</ele>
        <time>2024-01-29T19:44:52Z</time>
      </trkpt>
      <trkpt lat="45.8334" lon="5.85758">
        <ele>632.3</ele>
        <time>2024-01-29T19:44:58Z</time>
      </trkpt>
      <trkpt lat="45.8329" lon="5.85795">
        <ele>628.27</ele>
        <time>2024-01-29T19:45:04Z</time>
      </trkpt>
      <trkpt lat="45.83262" lon="5.85831">
        <ele>626.2</ele>
        <time>2024-01-29T19:45:08Z</time>
      </trkpt>
      <trkpt lat="45.83254" lon="5.85833">
        <ele>625.56</ele>
        <time>2024-01-29T19:45:09Z</time>
      </trkpt>
      <trkpt lat="45.83251" lon="5.85831">
        <ele>624.98</ele>
        <time>2024-01-29T19:45:10Z</time>
      </trkpt>
      <trkpt lat="45.8325" lon="5.85825">
        <ele>624.66</ele>
        <time>2024-01-29T19:45:10Z</time>
      </trkpt>
      <trkpt lat="45.83254" lon="5.85816">
        <ele>623.7</ele>
        <time>2024-01-29T19:45:11Z</time>
      </trkpt>
      <trkpt lat="45.83286" lon="5.85777">
        <ele>621.11</ele>
        <time>2024-01-29T19:45:16Z</time>
      </trkpt>
      <trkpt lat="45.83293" lon="5.85757">
        <ele>620.19</ele>
        <time>2024-01-29T19:45:18Z</time>
      </trkpt>
      <trkpt lat="45.83303" lon="5.85742">
        <ele>617.54</ele>
        <time>2024-01-29T19:45:20Z</time>
      </trkpt>
      <trkpt lat="45.83333" lon="5.85729">
        <ele>616.03</ele>
        <time>2024-01-29T19:45:24Z</time>
      </trkpt>
      <trkpt lat="45.83373" lon="5.85698">
        <ele>613.05</ele>
        <time>2024-01-29T19:45:29Z</time>
      </trkpt>
      <trkpt lat="45.834" lon="5.85684">
        <ele>610.59</ele>
        <time>2024-01-29T19:45:32Z</time>
      </trkpt>
      <trkpt lat="45.83433" lon="5.8568">
        <ele>607.52</ele>
        <time>2024-01-29T19:45:36Z</time>
      </trkpt>
      <trkpt lat="45.83453" lon="5.85674">
        <ele>606.09</ele>
        <time>2024-01-29T19:45:38Z</time>
      </trkpt>
      <trkpt lat="45.83488" lon="5.85643">
        <ele>601.99</ele>
        <time>2024-01-29T19:45:43Z</time>
      </trkpt>
      <trkpt lat="45.835" lon="5.85639">
        <ele>601.05</ele>
        <time>2024-01-29T19:45:45Z</time>
      </trkpt>
      <trkpt lat="45.83603" lon="5.85622">
        <ele>592.07</ele>
        <time>2024-01-29T19:45:57Z</time>
      </trkpt>
      <trkpt lat="45.83665" lon="5.85626">
        <ele>586.47</ele>
        <time>2024-01-29T19:46:05Z</time>
      </trkpt>
      <trkpt lat="45.83739" lon="5.85624">
        <ele>580.38</ele>
        <time>2024-01-29T19:46:13Z</time>
      </trkpt>
      <trkpt lat="45.83778" lon="5.85646">
        <ele>577.4</ele>
        <time>2024-01-29T19:46:18Z</time>
      </trkpt>
      <trkpt lat="45.83785" lon="5.85643">
        <ele>576.3</ele>
        <time>2024-01-29T19:46:19Z</time>
      </trkpt>
      <trkpt lat="45.83786" lon="5.85634">
        <ele>575.72</ele>
        <time>2024-01-29T19:46:19Z</time>
      </trkpt>
      <trkpt lat="45.83781" lon="5.85626">
        <ele>575.05</ele>
        <time>2024-01-29T19:46:20Z</time>
      </trkpt>
      <trkpt lat="45.83729" lon="5.85571">
        <ele>569.52</ele>
        <time>2024-01-29T19:46:27Z</time>
      </trkpt>
      <trkpt lat="45.8372" lon="5.85549">
        <ele>567.98</ele>
        <time>2024-01-29T19:46:29Z</time>
      </trkpt>
      <trkpt lat="45.83712" lon="5.85498">
        <ele>564.59</ele>
        <time>2024-01-29T19:46:33Z</time>
      </trkpt>
      <trkpt lat="45.83707" lon="5.85483">
        <ele>563.82</ele>
        <time>2024-01-29T19:46:34Z</time>
      </trkpt>
      <trkpt lat="45.83701" lon="5.85475">
        <ele>562.94</ele>
        <time>2024-01-29T19:46:35Z</time>
      </trkpt>
      <trkpt lat="45.83691" lon="5.85468">
        <ele>562.25</ele>
        <time>2024-01-29T19:46:37Z</time>
      </trkpt>
      <trkpt lat="45.83665" lon="5.85462">
        <ele>559.91</ele>
        <time>2024-01-29T19:46:39Z</time>
      </trkpt>
      <trkpt lat="45.836" lon="5.85481">
        <ele>554.62</ele>
        <time>2024-01-29T19:46:47Z</time>
      </trkpt>
      <trkpt lat="45.83533" lon="5.85502">
        <ele>549.65</ele>
        <time>2024-01-29T19:46:56Z</time>
      </trkpt>
      <trkpt lat="45.83454" lon="5.85512">
        <ele>544.69</ele>
        <time>2024-01-29T19:47:06Z</time>
      </trkpt>
      <trkpt lat="45.83433" lon="5.85512">
        <ele>543.3</ele>
        <time>2024-01-29T19:47:09Z</time>
      </trkpt>
      <trkpt lat="45.83382" lon="5.85497">
        <ele>539.25</ele>
        <time>2024-01-29T19:47:16Z</time>
      </trkpt>
      <trkpt lat="45.83366" lon="5.85499">
        <ele>538.4</ele>
        <time>2024-01-29T19:47:18Z</time>
      </trkpt>
      <trkpt lat="45.83316" lon="5.85523">
        <ele>534.47</ele>
        <time>2024-01-29T19:47:24Z</time>
      </trkpt>
      <trkpt lat="45.83298" lon="5.85534">
        <ele>533.38</ele>
        <time>2024-01-29T19:47:26Z</time>
      </trkpt>
      <trkpt lat="45.83284" lon="5.85548">
        <ele>532.59</ele>
        <time>2024-01-29T19:47:28Z</time>
      </trkpt>
      <trkpt lat="45.83276" lon="5.85556">
        <ele>532.04</ele>
        <time>2024-01-29T19:47:29Z</time>
      </trkpt>
      <trkpt lat="45.8327" lon="5.85556">
        <ele>531.67</ele>
        <time>2024-01-29T19:47:30Z</time>
      </trkpt>
      <trkpt lat="45.83266" lon="5.85551">
        <ele>531.1</ele>
        <time>2024-01-29T19:47:30Z</time>
      </trkpt>
      <trkpt lat="45.83268" lon="5.85542">
        <ele>530.41</ele>
        <time>2024-01-29T19:47:31Z</time>
      </trkpt>
      <trkpt lat="45.83305" lon="5.85499">
        <ele>527.33</ele>
        <time>2024-01-29T19:47:37Z</time>
      </trkpt>
      <trkpt lat="45.8335" lon="5.85422">
        <ele>522.49</ele>
        <time>2024-01-29T19:47:44Z</time>
      </trkpt>
      <trkpt lat="45.83373" lon="5.85396">
        <ele>520.16</ele>
        <time>2024-01-29T19:47:48Z</time>
      </trkpt>
      <trkpt lat="45.83396" lon="5.85367">
        <ele>518.09</ele>
        <time>2024-01-29T19:47:51Z</time>
      </trkpt>
      <trkpt lat="45.83421" lon="5.85349">
        <ele>516.63</ele>
        <time>2024-01-29T19:47:54Z</time>
      </trkpt>
      <trkpt lat="45.8342" lon="5.85336">
        <ele>515.81</ele>
        <time>2024-01-29T19:47:55Z</time>
      </trkpt>
      <trkpt lat="45.83415" lon="5.85332">
        <ele>515.33</ele>
        <time>2024-01-29T19:47:56Z</time>
      </trkpt>
      <trkpt lat="45.83393" lon="5.85333">
        <ele>513.58</ele>
        <time>2024-01-29T19:47:58Z</time>
      </trkpt>
      <trkpt lat="45.83359" lon="5.85344">
        <ele>510.79</ele>
        <time>2024-01-29T19:48:02Z</time>
      </trkpt>
      <trkpt lat="45.83312" lon="5.85382">
        <ele>506.5</ele>
        <time>2024-01-29T19:48:08Z</time>
      </trkpt>
      <trkpt lat="45.83292" lon="5.85391">
        <ele>504.78</ele>
        <time>2024-01-29T19:48:11Z</time>
      </trkpt>
      <trkpt lat="45.83269" lon="5.85413">
        <ele>503.23</ele>
        <time>2024-01-29T19:48:14Z</time>
      </trkpt>
      <trkpt lat="45.83266" lon="5.85413">
        <ele>502.66</ele>
        <time>2024-01-29T19:48:15Z</time>
      </trkpt>
      <trkpt lat="45.83261" lon="5.85406">
        <ele>501.79</ele>
        <time>2024-01-29T19:48:15Z</time>
      </trkpt>
      <trkpt lat="45.83263" lon="5.85391">
        <ele>500.72</ele>
        <time>2024-01-29T19:48:17Z</time>
      </trkpt>
      <trkpt lat="45.83286" lon="5.85368">
        <ele>498.54</ele>
        <time>2024-01-29T19:48:20Z</time>
      </trkpt>
      <trkpt lat="45.83311" lon="5.85343">
        <ele>496.11</ele>
        <time>2024-01-29T19:48:23Z</time>
      </trkpt>
      <trkpt lat="45.83312" lon="5.85332">
        <ele>495.71</ele>
        <time>2024-01-29T19:48:24Z</time>
      </trkpt>
      <trkpt lat="45.83306" lon="5.85327">
        <ele>494.55</ele>
        <time>2024-01-29T19:48:25Z</time>
      </trkpt>
      <trkpt lat="45.83235" lon="5.85366">
        <ele>488.34</ele>
        <time>2024-01-29T19:48:35Z</time>
      </trkpt>
      <trkpt lat="45.83202" lon="5.85388">
        <ele>484.68</ele>
        <time>2024-01-29T19:48:39Z</time>
      </trkpt>
      <trkpt lat="45.83115" lon="5.85475">
        <ele>476.66</ele>
        <time>2024-01-29T19:48:53Z</time>
      </trkpt>
      <trkpt lat="45.83097" lon="5.85487">
        <ele>473.54</ele>
        <time>2024-01-29T19:48:56Z</time>
      </trkpt>
      <trkpt lat="45.83082" lon="5.85494">
        <ele>471.79</ele>
        <time>2024-01-29T19:48:58Z</time>
      </trkpt>
      <trkpt lat="45.8307" lon="5.85497">
        <ele>470.08</ele>
        <time>2024-01-29T19:49:00Z</time>
      </trkpt>
      <trkpt lat="45.83019" lon="5.85495">
        <ele>465.22</ele>
        <time>2024-01-29T19:49:06Z</time>
      </trkpt>
      <trkpt lat="45.82994" lon="5.85506">
        <ele>463.48</ele>
        <time>2024-01-29T19:49:10Z</time>
      </trkpt>
      <trkpt lat="45.82979" lon="5.85512">
        <ele>462.99</ele>
        <time>2024-01-29T19:49:12Z</time>
      </trkpt>
      <trkpt lat="45.82933" lon="5.8552">
        <ele>459.63</ele>
        <time>2024-01-29T19:49:18Z</time>
      </trkpt>
      <trkpt lat="45.82864" lon="5.85505">
        <ele>454.09</ele>
        <time>2024-01-29T19:49:26Z</time>
      </trkpt>
      <trkpt lat="45.82776" lon="5.8551">
        <ele>447.34</ele>
        <time>2024-01-29T19:49:36Z</time>
      </trkpt>
      <trkpt lat="45.82675" lon="5.85519">
        <ele>439.18</ele>
        <time>2024-01-29T19:49:48Z</time>
      </trkpt>
      <trkpt lat="45.82643" lon="5.85518">
        <ele>437.19</ele>
        <time>2024-01-29T19:49:52Z</time>
      </trkpt>
      <trkpt lat="45.82579" lon="5.85507">
        <ele>431.52</ele>
        <time>2024-01-29T19:49:59Z</time>
      </trkpt>
      <trkpt lat="45.82551" lon="5.85495">
        <ele>429.51</ele>
        <time>2024-01-29T19:50:02Z</time>
      </trkpt>
      <trkpt lat="45.82538" lon="5.85483">
        <ele>427.97</ele>
        <time>2024-01-29T19:50:04Z</time>
      </trkpt>
      <trkpt lat="45.82533" lon="5.8547">
        <ele>427.06</ele>
        <time>2024-01-29T19:50:05Z</time>
      </trkpt>
      <trkpt lat="45.8253" lon="5.85453">
        <ele>426.07</ele>
        <time>2024-01-29T19:50:06Z</time>
      </trkpt>
      <trkpt lat="45.82534" lon="5.85429">
        <ele>424.74</ele>
        <time>2024-01-29T19:50:08Z</time>
      </trkpt>
      <trkpt lat="45.8254" lon="5.85415">
        <ele>423.52</ele>
        <time>2024-01-29T19:50:10Z</time>
      </trkpt>
      <trkpt lat="45.82548" lon="5.85406">
        <ele>422.63</ele>
        <time>2024-01-29T19:50:11Z</time>
      </trkpt>
      <trkpt lat="45.82558" lon="5.85403">
        <ele>421.82</ele>
        <time>2024-01-29T19:50:12Z</time>
      </trkpt>
      <trkpt lat="45.82595" lon="5.85403">
        <ele>418.26</ele>
        <time>2024-01-29T19:50:16Z</time>
      </trkpt>
      <trkpt lat="45.82607" lon="5.85393">
        <ele>416.95</ele>
        <time>2024-01-29T19:50:18Z</time>
      </trkpt>
      <trkpt lat="45.82613" lon="5.8538">
        <ele>415.57</ele>
        <time>2024-01-29T19:50:19Z</time>
      </trkpt>
      <trkpt lat="45.82625" lon="5.85344">
        <ele>412.37</ele>
        <time>2024-01-29T19:50:22Z</time>
      </trkpt>
      <trkpt lat="45.82635" lon="5.85336">
        <ele>411.38</ele>
        <time>2024-01-29T19:50:24Z</time>
      </trkpt>
      <trkpt lat="45.82649" lon="5.8533">
        <ele>410.31</ele>
        <time>2024-01-29T19:50:25Z</time>
      </trkpt>
      <trkpt lat="45.82664" lon="5.85329">
        <ele>409.16</ele>
        <time>2024-01-29T19:50:27Z</time>
      </trkpt>
      <trkpt lat="45.82737" lon="5.85339">
        <ele>403.77</ele>
        <time>2024-01-29T19:50:36Z</time>
      </trkpt>
      <trkpt lat="45.82781" lon="5.85339">
        <ele>399.49</ele>
        <time>2024-01-29T19:50:41Z</time>
      </trkpt>
      <trkpt lat="45.82835" lon="5.85325">
        <ele>394.23</ele>
        <time>2024-01-29T19:50:48Z</time>
      </trkpt>
      <trkpt lat="45.82876" lon="5.85303">
        <ele>389.2</ele>
        <time>2024-01-29T19:50:53Z</time>
      </trkpt>
      <trkpt lat="45.8289" lon="5.85292">
        <ele>386.73</ele>
        <time>2024-01-29T19:50:55Z</time>
      </trkpt>
      <trkpt lat="45.82952" lon="5.85228">
        <ele>386.04</ele>
        <time>2024-01-29T19:51:04Z</time>
      </trkpt>
      <trkpt lat="45.82955" lon="5.85217">
        <ele>380.76</ele>
        <time>2024-01-29T19:51:05Z</time>
      </trkpt>
      <trkpt lat="45.82952" lon="5.85211">
        <ele>380.19</ele>
        <time>2024-01-29T19:51:06Z</time>
      </trkpt>
      <trkpt lat="45.82944" lon="5.85211">
        <ele>379.3</ele>
        <time>2024-01-29T19:51:07Z</time>
      </trkpt>
      <trkpt lat="45.82919" lon="5.85232">
        <ele>377.86</ele>
        <time>2024-01-29T19:51:10Z</time>
      </trkpt>
      <trkpt lat="45.82895" lon="5.85234">
        <ele>375.31</ele>
        <time>2024-01-29T19:51:13Z</time>
      </trkpt>
      <trkpt lat="45.82859" lon="5.85259">
        <ele>375.6</ele>
        <time>2024-01-29T19:51:18Z</time>
      </trkpt>
      <trkpt lat="45.82843" lon="5.85262">
        <ele>374.09</ele>
        <time>2024-01-29T19:51:20Z</time>
      </trkpt>
      <trkpt lat="45.82815" lon="5.85256">
        <ele>371.85</ele>
        <time>2024-01-29T19:51:23Z</time>
      </trkpt>
      <trkpt lat="45.82775" lon="5.85229">
        <ele>367.66</ele>
        <time>2024-01-29T19:51:29Z</time>
      </trkpt>
      <trkpt lat="45.82748" lon="5.85216">
        <ele>364.9</ele>
        <time>2024-01-29T19:51:32Z</time>
      </trkpt>
      <trkpt lat="45.82632" lon="5.85171">
        <ele>355.35</ele>
        <time>2024-01-29T19:51:45Z</time>
      </trkpt>
      <trkpt lat="45.82622" lon="5.85164">
        <ele>354.53</ele>
        <time>2024-01-29T19:51:46Z</time>
      </trkpt>
      <trkpt lat="45.82613" lon="5.8515">
        <ele>352.9</ele>
        <time>2024-01-29T19:51:48Z</time>
      </trkpt>
      <trkpt lat="45.82606" lon="5.85129">
        <ele>351.9</ele>
        <time>2024-01-29T19:51:50Z</time>
      </trkpt>
      <trkpt lat="45.826" lon="5.85062">
        <ele>349.23</ele>
        <time>2024-01-29T19:51:55Z</time>
      </trkpt>
      <trkpt lat="45.82598" lon="5.85056">
        <ele>349.25</ele>
        <time>2024-01-29T19:51:55Z</time>
      </trkpt>
      <trkpt lat="45.82591" lon="5.85054">
        <ele>349.24</ele>
        <time>2024-01-29T19:51:56Z</time>
      </trkpt>
      <trkpt lat="45.82565" lon="5.8506">
        <ele>348.42</ele>
        <time>2024-01-29T19:51:59Z</time>
      </trkpt>
      <trkpt lat="45.82548" lon="5.85059">
        <ele>347.05</ele>
        <time>2024-01-29T19:52:01Z</time>
      </trkpt>
      <trkpt lat="45.82525" lon="5.85048">
        <ele>344.31</ele>
        <time>2024-01-29T19:52:03Z</time>
      </trkpt>
      <trkpt lat="45.82492" lon="5.85039">
        <ele>340.52</ele>
        <time>2024-01-29T19:52:07Z</time>
      </trkpt>
      <trkpt lat="45.82456" lon="5.85033">
        <ele>336.46</ele>
        <time>2024-01-29T19:52:11Z</time>
      </trkpt>
      <trkpt lat="45.82401" lon="5.85036">
        <ele>331.47</ele>
        <time>2024-01-29T19:52:18Z</time>
      </trkpt>
      <trkpt lat="45.82378" lon="5.8504">
        <ele>329.55</ele>
        <time>2024-01-29T19:52:20Z</time>
      </trkpt>
      <trkpt lat="45.8235" lon="5.85053">
        <ele>327.2</ele>
        <time>2024-01-29T19:52:24Z</time>
      </trkpt>
      <trkpt lat="45.82252" lon="5.8512">
        <ele>321.03</ele>
        <time>2024-01-29T19:52:37Z</time>
      </trkpt>
      <trkpt lat="45.82212" lon="5.8515">
        <ele>317.11</ele>
        <time>2024-01-29T19:52:43Z</time>
      </trkpt>
      <trkpt lat="45.82206" lon="5.85154">
        <ele>316.72</ele>
        <time>2024-01-29T19:52:44Z</time>
      </trkpt>
      <trkpt lat="45.82198" lon="5.85158">
        <ele>315.83</ele>
        <time>2024-01-29T19:52:45Z</time>
      </trkpt>
      <trkpt lat="45.82164" lon="5.85176">
        <ele>313.83</ele>
        <time>2024-01-29T19:52:50Z</time>
      </trkpt>
      <trkpt lat="45.8214" lon="5.85238">
        <ele>314.14</ele>
        <time>2024-01-29T19:52:57Z</time>
      </trkpt>
      <trkpt lat="45.82131" lon="5.85253">
        <ele>314.09</ele>
        <time>2024-01-29T19:52:59Z</time>
      </trkpt>
      <trkpt lat="45.82119" lon="5.85264">
        <ele>314.11</ele>
        <time>2024-01-29T19:53:01Z</time>
      </trkpt>
      <trkpt lat="45.82092" lon="5.85271">
        <ele>312.89</ele>
        <time>2024-01-29T19:53:06Z</time>
      </trkpt>
      <trkpt lat="45.82061" lon="5.85275">
        <ele>311.1</ele>
        <time>2024-01-29T19:53:10Z</time>
      </trkpt>
      <trkpt lat="45.8199" lon="5.8528">
        <ele>307.06</ele>
        <time>2024-01-29T19:53:20Z</time>
      </trkpt>
      <trkpt lat="45.81946" lon="5.85295">
        <ele>305.61</ele>
        <time>2024-01-29T19:53:26Z</time>
      </trkpt>
      <trkpt lat="45.81908" lon="5.8531">
        <ele>305</ele>
        <time>2024-01-29T19:53:31Z</time>
      </trkpt>
      <trkpt lat="45.81899" lon="5.85308">
        <ele>303.65</ele>
        <time>2024-01-29T19:53:33Z</time>
      </trkpt>
      <trkpt lat="45.81875" lon="5.85279">
        <ele>300.61</ele>
        <time>2024-01-29T19:53:36Z</time>
      </trkpt>
      <trkpt lat="45.8187" lon="5.85276">
        <ele>300.36</ele>
        <time>2024-01-29T19:53:37Z</time>
      </trkpt>
      <trkpt lat="45.8175" lon="5.85296">
        <ele>296.43</ele>
        <time>2024-01-29T19:53:52Z</time>
      </trkpt>
      <trkpt lat="45.81722" lon="5.85279">
        <ele>293.43</ele>
        <time>2024-01-29T19:53:56Z</time>
      </trkpt>
      <trkpt lat="45.8169" lon="5.85258">
        <ele>290.34</ele>
        <time>2024-01-29T19:54:00Z</time>
      </trkpt>
      <trkpt lat="45.81605" lon="5.85249">
        <ele>283.05</ele>
        <time>2024-01-29T19:54:11Z</time>
      </trkpt>
      <trkpt lat="45.81527" lon="5.8526">
        <ele>279.49</ele>
        <time>2024-01-29T19:54:20Z</time>
      </trkpt>
      <trkpt lat="45.81461" lon="5.85249">
        <ele>275</ele>
        <time>2024-01-29T19:54:28Z</time>
      </trkpt>
      <trkpt lat="45.8144" lon="5.85212">
        <ele>271.3</ele>
        <time>2024-01-29T19:54:32Z</time>
      </trkpt>
      <trkpt lat="45.81422" lon="5.85189">
        <ele>268.71</ele>
        <time>2024-01-29T19:54:35Z</time>
      </trkpt>
      <trkpt lat="45.8138" lon="5.85156">
        <ele>264.12</ele>
        <time>2024-01-29T19:54:41Z</time>
      </trkpt>
      <trkpt lat="45.81349" lon="5.85112">
        <ele>259.06</ele>
        <time>2024-01-29T19:54:46Z</time>
      </trkpt>
      <trkpt lat="45.81287" lon="5.85041">
        <ele>249.99</ele>
        <time>2024-01-29T19:54:55Z</time>
      </trkpt>
      <trkpt lat="45.81257" lon="5.85015">
        <ele>246.85</ele>
        <time>2024-01-29T19:55:00Z</time>
      </trkpt>
      <trkpt lat="45.81248" lon="5.84997">
        <ele>245.79</ele>
        <time>2024-01-29T19:55:01Z</time>
      </trkpt>
      <trkpt lat="45.81244" lon="5.84978">
        <ele>245.09</ele>
        <time>2024-01-29T19:55:03Z</time>
      </trkpt>
      <trkpt lat="45.81207" lon="5.84986">
        <ele>245.07</ele>
        <time>2024-01-29T19:55:08Z</time>
      </trkpt>
      <trkpt lat="45.81174" lon="5.84994">
        <ele>244.98</ele>
        <time>2024-01-29T19:55:12Z</time>
      </trkpt>
      <trkpt lat="45.81152" lon="5.85003">
        <ele>245.13</ele>
        <time>2024-01-29T19:55:15Z</time>
      </trkpt>
      <trkpt lat="45.81088" lon="5.85053">
        <ele>244.23</ele>
        <time>2024-01-29T19:55:25Z</time>
      </trkpt>
      <trkpt lat="45.81073" lon="5.85051">
        <ele>244.12</ele>
        <time>2024-01-29T19:55:28Z</time>
      </trkpt>
      <trkpt lat="45.81067" lon="5.85048">
        <ele>244</ele>
        <time>2024-01-29T19:55:29Z</time>
      </trkpt>
      <trkpt lat="45.8106" lon="5.85048">
        <ele>243.96</ele>
        <time>2024-01-29T19:55:30Z</time>
      </trkpt>
      <trkpt lat="45.81054" lon="5.85053">
        <ele>243.89</ele>
        <time>2024-01-29T19:55:31Z</time>
      </trkpt>
      <trkpt lat="45.81032" lon="5.85054">
        <ele>242.92</ele>
        <time>2024-01-29T19:55:34Z</time>
      </trkpt>
      <trkpt lat="45.81031" lon="5.85053">
        <ele>242.92</ele>
        <time>2024-01-29T19:55:34Z</time>
      </trkpt>
      <trkpt lat="45.81026" lon="5.85049">
        <ele>242.58</ele>
        <time>2024-01-29T19:55:35Z</time>
      </trkpt>
      <trkpt lat="45.81021" lon="5.85046">
        <ele>242.4</ele>
        <time>2024-01-29T19:55:35Z</time>
      </trkpt>
      <trkpt lat="45.81019" lon="5.8505">
        <ele>242.46</ele>
        <time>2024-01-29T19:55:36Z</time>
      </trkpt>
      <trkpt lat="45.80961" lon="5.84997">
        <ele>242.57</ele>
        <time>2024-01-29T19:55:46Z</time>
      </trkpt>
      <trkpt lat="45.80928" lon="5.84978">
        <ele>239.44</ele>
        <time>2024-01-29T19:55:51Z</time>
      </trkpt>
      <trkpt lat="45.80878" lon="5.84949">
        <ele>237.25</ele>
        <time>2024-01-29T19:55:59Z</time>
      </trkpt>
      <trkpt lat="45.80836" lon="5.8491">
        <ele>234.59</ele>
        <time>2024-01-29T19:56:07Z</time>
      </trkpt>
      <trkpt lat="45.80836" lon="5.84901">
        <ele>234.58</ele>
        <time>2024-01-29T19:56:08Z</time>
      </trkpt>
      <trkpt lat="45.80788" lon="5.84849">
        <ele>233.78</ele>
        <time>2024-01-29T19:56:17Z</time>
      </trkpt>
      <trkpt lat="45.80732" lon="5.84779">
        <ele>233.56</ele>
        <time>2024-01-29T19:56:29Z</time>
      </trkpt>
      <trkpt lat="45.80687" lon="5.84722">
        <ele>233.93</ele>
        <time>2024-01-29T19:56:39Z</time>
      </trkpt>
      <trkpt lat="45.80681" lon="5.84712">
        <ele>234</ele>
        <time>2024-01-29T19:56:41Z</time>
      </trkpt>
      <trkpt lat="45.80679" lon="5.84705">
        <ele>233.99</ele>
        <time>2024-01-29T19:56:42Z</time>
      </trkpt>
      <trkpt lat="45.80677" lon="5.84688">
        <ele>234.09</ele>
        <time>2024-01-29T19:56:44Z</time>
      </trkpt>
      <trkpt lat="45.80682" lon="5.84639">
        <ele>234.26</ele>
        <time>2024-01-29T19:56:50Z</time>
      </trkpt>
      <trkpt lat="45.8068" lon="5.84604">
        <ele>234.24</ele>
        <time>2024-01-29T19:56:54Z</time>
      </trkpt>
      <trkpt lat="45.80665" lon="5.8455">
        <ele>234.03</ele>
        <time>2024-01-29T19:57:01Z</time>
      </trkpt>
      <trkpt lat="45.80634" lon="5.84469">
        <ele>234.3</ele>
        <time>2024-01-29T19:57:12Z</time>
      </trkpt>
      <trkpt lat="45.8063" lon="5.84448">
        <ele>233.97</ele>
        <time>2024-01-29T19:57:14Z</time>
      </trkpt>
      <trkpt lat="45.8063" lon="5.84425">
        <ele>233.86</ele>
        <time>2024-01-29T19:57:17Z</time>
      </trkpt>
      <trkpt lat="45.80633" lon="5.84404">
        <ele>233.47</ele>
        <time>2024-01-29T19:57:19Z</time>
      </trkpt>
      <trkpt lat="45.80683" lon="5.84207">
        <ele>233.28</ele>
        <time>2024-01-29T19:57:41Z</time>
      </trkpt>
      <trkpt lat="45.80723" lon="5.84061">
        <ele>233.37</ele>
        <time>2024-01-29T19:57:59Z</time>
      </trkpt>
      <trkpt lat="45.80939" lon="5.8341">
        <ele>233.14</ele>
        <time>2024-01-29T19:59:46Z</time>
      </trkpt>
      <trkpt lat="45.80949" lon="5.83387">
        <ele>233.54</ele>
        <time>2024-01-29T19:59:51Z</time>
      </trkpt>
      <trkpt lat="45.8096" lon="5.83369">
        <ele>234.09</ele>
        <time>2024-01-29T19:59:55Z</time>
      </trkpt>
      <trkpt lat="45.80994" lon="5.83332">
        <ele>235.28</ele>
        <time>2024-01-29T20:00:06Z</time>
      </trkpt>
      <trkpt lat="45.81067" lon="5.83257">
        <ele>240.04</ele>
        <time>2024-01-29T20:00:28Z</time>
      </trkpt>
      <trkpt lat="45.81072" lon="5.83248">
        <ele>240.92</ele>
        <time>2024-01-29T20:00:30Z</time>
      </trkpt>
      <trkpt lat="45.81074" lon="5.83236">
        <ele>241.35</ele>
        <time>2024-01-29T20:00:32Z</time>
      </trkpt>
      <trkpt lat="45.8107" lon="5.83189">
        <ele>239.81</ele>
        <time>2024-01-29T20:00:42Z</time>
      </trkpt>
      <trkpt lat="45.8107" lon="5.83179">
        <ele>241.14</ele>
        <time>2024-01-29T20:00:44Z</time>
      </trkpt>
      <trkpt lat="45.81075" lon="5.83126">
        <ele>238.07</ele>
        <time>2024-01-29T20:00:55Z</time>
      </trkpt>
      <trkpt lat="45.81077" lon="5.83108">
        <ele>236.8</ele>
        <time>2024-01-29T20:00:59Z</time>
      </trkpt>
      <trkpt lat="45.81074" lon="5.83091">
        <ele>235.91</ele>
        <time>2024-01-29T20:01:04Z</time>
      </trkpt>
      <trkpt lat="45.81068" lon="5.83077">
        <ele>234.82</ele>
        <time>2024-01-29T20:01:08Z</time>
      </trkpt>
      <trkpt lat="45.81056" lon="5.83061">
        <ele>234.08</ele>
        <time>2024-01-29T20:01:13Z</time>
      </trkpt>
      <trkpt lat="45.81042" lon="5.83053">
        <ele>233.87</ele>
        <time>2024-01-29T20:01:20Z</time>
      </trkpt>
      <trkpt lat="45.80994" lon="5.83046">
        <ele>233.31</ele>
        <time>2024-01-29T20:01:37Z</time>
      </trkpt>
      <trkpt lat="45.8097" lon="5.83029">
        <ele>233.72</ele>
        <time>2024-01-29T20:01:45Z</time>
      </trkpt>
      <trkpt lat="45.80901" lon="5.82961">
        <ele>233.49</ele>
        <time>2024-01-29T20:02:00Z</time>
      </trkpt>
      <trkpt lat="45.80881" lon="5.8293">
        <ele>233.72</ele>
        <time>2024-01-29T20:02:04Z</time>
      </trkpt>
      <trkpt lat="45.80866" lon="5.82887">
        <ele>233.29</ele>
        <time>2024-01-29T20:02:08Z</time>
      </trkpt>
      <trkpt lat="45.80859" lon="5.82844">
        <ele>233.13</ele>
        <time>2024-01-29T20:02:12Z</time>
      </trkpt>
      <trkpt lat="45.80855" lon="5.82783">
        <ele>234.37</ele>
        <time>2024-01-29T20:02:17Z</time>
      </trkpt>
      <trkpt lat="45.80848" lon="5.8273">
        <ele>234.25</ele>
        <time>2024-01-29T20:02:22Z</time>
      </trkpt>
      <trkpt lat="45.80834" lon="5.82688">
        <ele>233.34</ele>
        <time>2024-01-29T20:02:26Z</time>
      </trkpt>
      <trkpt lat="45.80793" lon="5.82589">
        <ele>233.43</ele>
        <time>2024-01-29T20:02:36Z</time>
      </trkpt>
      <trkpt lat="45.80746" lon="5.82487">
        <ele>234.07</ele>
        <time>2024-01-29T20:02:51Z</time>
      </trkpt>
      <trkpt lat="45.80682" lon="5.8238">
        <ele>233.5</ele>
        <time>2024-01-29T20:03:11Z</time>
      </trkpt>
      <trkpt lat="45.80675" lon="5.82356">
        <ele>233.51</ele>
        <time>2024-01-29T20:03:15Z</time>
      </trkpt>
      <trkpt lat="45.80656" lon="5.82246">
        <ele>233.39</ele>
        <time>2024-01-29T20:03:31Z</time>
      </trkpt>
      <trkpt lat="45.80644" lon="5.82176">
        <ele>233.62</ele>
        <time>2024-01-29T20:03:40Z</time>
      </trkpt>
      <trkpt lat="45.80627" lon="5.82056">
        <ele>234.53</ele>
        <time>2024-01-29T20:03:55Z</time>
      </trkpt>
      <trkpt lat="45.80626" lon="5.81988">
        <ele>235.53</ele>
        <time>2024-01-29T20:04:03Z</time>
      </trkpt>
      <trkpt lat="45.80622" lon="5.81948">
        <ele>236.43</ele>
        <time>2024-01-29T20:04:08Z</time>
      </trkpt>
      <trkpt lat="45.80605" lon="5.8191">
        <ele>237.37</ele>
        <time>2024-01-29T20:04:14Z</time>
      </trkpt>
      <trkpt lat="45.80585" lon="5.81883">
        <ele>238.55</ele>
        <time>2024-01-29T20:04:20Z</time>
      </trkpt>
      <trkpt lat="45.80552" lon="5.81844">
        <ele>236.91</ele>
        <time>2024-01-29T20:04:30Z</time>
      </trkpt>
      <trkpt lat="45.80538" lon="5.81829">
        <ele>237.96</ele>
        <time>2024-01-29T20:04:34Z</time>
      </trkpt>
      <trkpt lat="45.80505" lon="5.81788">
        <ele>235.56</ele>
        <time>2024-01-29T20:04:42Z</time>
      </trkpt>
      <trkpt lat="45.80497" lon="5.81779">
        <ele>235.42</ele>
        <time>2024-01-29T20:04:44Z</time>
      </trkpt>
      <trkpt lat="45.80482" lon="5.81759">
        <ele>235.01</ele>
        <time>2024-01-29T20:04:48Z</time>
      </trkpt>
      <trkpt lat="45.80455" lon="5.81749">
        <ele>233.64</ele>
        <time>2024-01-29T20:04:53Z</time>
      </trkpt>
      <trkpt lat="45.80431" lon="5.81745">
        <ele>233.65</ele>
        <time>2024-01-29T20:04:57Z</time>
      </trkpt>
      <trkpt lat="45.80345" lon="5.81743">
        <ele>231.42</ele>
        <time>2024-01-29T20:05:12Z</time>
      </trkpt>
      <trkpt lat="45.80208" lon="5.81711">
        <ele>233.64</ele>
        <time>2024-01-29T20:05:37Z</time>
      </trkpt>
      <trkpt lat="45.80203" lon="5.8171">
        <ele>233.6</ele>
        <time>2024-01-29T20:05:38Z</time>
      </trkpt>
      <trkpt lat="45.80159" lon="5.81702">
        <ele>233.45</ele>
        <time>2024-01-29T20:05:47Z</time>
      </trkpt>
      <trkpt lat="45.80114" lon="5.81705">
        <ele>232.91</ele>
        <time>2024-01-29T20:05:57Z</time>
      </trkpt>
      <trkpt lat="45.80062" lon="5.81714">
        <ele>232.93</ele>
        <time>2024-01-29T20:06:08Z</time>
      </trkpt>
      <trkpt lat="45.79994" lon="5.81738">
        <ele>233.56</ele>
        <time>2024-01-29T20:06:22Z</time>
      </trkpt>
      <trkpt lat="45.79815" lon="5.81776">
        <ele>233.33</ele>
        <time>2024-01-29T20:06:53Z</time>
      </trkpt>
      <trkpt lat="45.79741" lon="5.81764">
        <ele>233.2</ele>
        <time>2024-01-29T20:07:07Z</time>
      </trkpt>
      <trkpt lat="45.79596" lon="5.81789">
        <ele>233.03</ele>
        <time>2024-01-29T20:07:39Z</time>
      </trkpt>
      <trkpt lat="45.79548" lon="5.81799">
        <ele>233.59</ele>
        <time>2024-01-29T20:07:50Z</time>
      </trkpt>
      <trkpt lat="45.7952" lon="5.81809">
        <ele>234.1</ele>
        <time>2024-01-29T20:07:57Z</time>
      </trkpt>
      <trkpt lat="45.7946" lon="5.8187">
        <ele>235.75</ele>
        <time>2024-01-29T20:08:18Z</time>
      </trkpt>
      <trkpt lat="45.79393" lon="5.81924">
        <ele>238.24</ele>
        <time>2024-01-29T20:08:43Z</time>
      </trkpt>
      <trkpt lat="45.79359" lon="5.81948">
        <ele>240.22</ele>
        <time>2024-01-29T20:08:56Z</time>
      </trkpt>
      <trkpt lat="45.79351" lon="5.81956">
        <ele>240.89</ele>
        <time>2024-01-29T20:09:00Z</time>
      </trkpt>
      <trkpt lat="45.79302" lon="5.82008">
        <ele>247.66</ele>
        <time>2024-01-29T20:09:23Z</time>
      </trkpt>
      <trkpt lat="45.79212" lon="5.82054">
        <ele>253.85</ele>
        <time>2024-01-29T20:10:00Z</time>
      </trkpt>
      <trkpt lat="45.7911" lon="5.82103">
        <ele>258.55</ele>
        <time>2024-01-29T20:10:42Z</time>
      </trkpt>
      <trkpt lat="45.79058" lon="5.82128">
        <ele>259.64</ele>
        <time>2024-01-29T20:11:02Z</time>
      </trkpt>
      <trkpt lat="45.7905" lon="5.82132">
        <ele>259.93</ele>
        <time>2024-01-29T20:11:06Z</time>
      </trkpt>
      <trkpt lat="45.79037" lon="5.82138">
        <ele>261.38</ele>
        <time>2024-01-29T20:11:11Z</time>
      </trkpt>
      <trkpt lat="45.79007" lon="5.82156">
        <ele>260.65</ele>
        <time>2024-01-29T20:11:24Z</time>
      </trkpt>
      <trkpt lat="45.78971" lon="5.82181">
        <ele>266.08</ele>
        <time>2024-01-29T20:11:43Z</time>
      </trkpt>
      <trkpt lat="45.78945" lon="5.8222">
        <ele>268.72</ele>
        <time>2024-01-29T20:12:02Z</time>
      </trkpt>
      <trkpt lat="45.78922" lon="5.82248">
        <ele>272.45</ele>
        <time>2024-01-29T20:12:19Z</time>
      </trkpt>
      <trkpt lat="45.78897" lon="5.82259">
        <ele>274.68</ele>
        <time>2024-01-29T20:12:33Z</time>
      </trkpt>
      <trkpt lat="45.78853" lon="5.8227">
        <ele>277.31</ele>
        <time>2024-01-29T20:12:58Z</time>
      </trkpt>
      <trkpt lat="45.78836" lon="5.82283">
        <ele>278.79</ele>
        <time>2024-01-29T20:13:09Z</time>
      </trkpt>
      <trkpt lat="45.78812" lon="5.82316">
        <ele>281.23</ele>
        <time>2024-01-29T20:13:29Z</time>
      </trkpt>
      <trkpt lat="45.78807" lon="5.82319">
        <ele>281.72</ele>
        <time>2024-01-29T20:13:32Z</time>
      </trkpt>
      <trkpt lat="45.788" lon="5.82313">
        <ele>282.41</ele>
        <time>2024-01-29T20:13:38Z</time>
      </trkpt>
      <trkpt lat="45.788" lon="5.823">
        <ele>283.02</ele>
        <time>2024-01-29T20:13:44Z</time>
      </trkpt>
      <trkpt lat="45.78827" lon="5.82202">
        <ele>287.86</ele>
        <time>2024-01-29T20:14:36Z</time>
      </trkpt>
      <trkpt lat="45.78827" lon="5.8218">
        <ele>289.06</ele>
        <time>2024-01-29T20:14:46Z</time>
      </trkpt>
      <trkpt lat="45.7883" lon="5.82166">
        <ele>289.56</ele>
        <time>2024-01-29T20:14:53Z</time>
      </trkpt>
      <trkpt lat="45.78802" lon="5.82164">
        <ele>292.53</ele>
        <time>2024-01-29T20:15:11Z</time>
      </trkpt>
      <trkpt lat="45.78788" lon="5.82175">
        <ele>294.7</ele>
        <time>2024-01-29T20:15:22Z</time>
      </trkpt>
      <trkpt lat="45.78763" lon="5.82216">
        <ele>301.01</ele>
        <time>2024-01-29T20:15:44Z</time>
      </trkpt>
      <trkpt lat="45.78749" lon="5.82233">
        <ele>304.31</ele>
        <time>2024-01-29T20:15:54Z</time>
      </trkpt>
      <trkpt lat="45.78733" lon="5.82235">
        <ele>306.36</ele>
        <time>2024-01-29T20:16:04Z</time>
      </trkpt>
      <trkpt lat="45.78725" lon="5.82239">
        <ele>307.49</ele>
        <time>2024-01-29T20:16:09Z</time>
      </trkpt>
      <trkpt lat="45.78712" lon="5.82257">
        <ele>309.43</ele>
        <time>2024-01-29T20:16:19Z</time>
      </trkpt>
      <trkpt lat="45.78697" lon="5.82289">
        <ele>314.15</ele>
        <time>2024-01-29T20:16:34Z</time>
      </trkpt>
      <trkpt lat="45.78675" lon="5.82325">
        <ele>319.7</ele>
        <time>2024-01-29T20:16:55Z</time>
      </trkpt>
      <trkpt lat="45.78641" lon="5.8236">
        <ele>324.81</ele>
        <time>2024-01-29T20:17:21Z</time>
      </trkpt>
      <trkpt lat="45.78621" lon="5.82371">
        <ele>326.26</ele>
        <time>2024-01-29T20:17:34Z</time>
      </trkpt>
      <trkpt lat="45.78606" lon="5.82374">
        <ele>329.61</ele>
        <time>2024-01-29T20:17:44Z</time>
      </trkpt>
      <trkpt lat="45.78599" lon="5.82378">
        <ele>330.23</ele>
        <time>2024-01-29T20:17:47Z</time>
      </trkpt>
      <trkpt lat="45.78572" lon="5.82393">
        <ele>332.59</ele>
        <time>2024-01-29T20:18:00Z</time>
      </trkpt>
      <trkpt lat="45.78546" lon="5.82402">
        <ele>335</ele>
        <time>2024-01-29T20:18:12Z</time>
      </trkpt>
      <trkpt lat="45.7845" lon="5.82412">
        <ele>343.9</ele>
        <time>2024-01-29T20:19:03Z</time>
      </trkpt>
      <trkpt lat="45.7844" lon="5.82415">
        <ele>345.08</ele>
        <time>2024-01-29T20:19:08Z</time>
      </trkpt>
      <trkpt lat="45.78401" lon="5.82447">
        <ele>349.07</ele>
        <time>2024-01-29T20:19:33Z</time>
      </trkpt>
      <trkpt lat="45.78382" lon="5.82459">
        <ele>350.88</ele>
        <time>2024-01-29T20:19:44Z</time>
      </trkpt>
      <trkpt lat="45.78375" lon="5.82457">
        <ele>351.23</ele>
        <time>2024-01-29T20:19:48Z</time>
      </trkpt>
      <trkpt lat="45.78373" lon="5.82453">
        <ele>351.31</ele>
        <time>2024-01-29T20:19:50Z</time>
      </trkpt>
      <trkpt lat="45.78375" lon="5.8244">
        <ele>351.79</ele>
        <time>2024-01-29T20:19:56Z</time>
      </trkpt>
      <trkpt lat="45.78401" lon="5.82417">
        <ele>353.44</ele>
        <time>2024-01-29T20:20:13Z</time>
      </trkpt>
      <trkpt lat="45.78481" lon="5.82333">
        <ele>359.35</ele>
        <time>2024-01-29T20:21:19Z</time>
      </trkpt>
      <trkpt lat="45.78486" lon="5.82327">
        <ele>359.67</ele>
        <time>2024-01-29T20:21:25Z</time>
      </trkpt>
      <trkpt lat="45.78492" lon="5.82313">
        <ele>360.53</ele>
        <time>2024-01-29T20:21:32Z</time>
      </trkpt>
      <trkpt lat="45.78489" lon="5.82277">
        <ele>362.12</ele>
        <time>2024-01-29T20:21:50Z</time>
      </trkpt>
      <trkpt lat="45.78486" lon="5.82257">
        <ele>363.2</ele>
        <time>2024-01-29T20:21:58Z</time>
      </trkpt>
      <trkpt lat="45.78475" lon="5.82232">
        <ele>363.96</ele>
        <time>2024-01-29T20:22:11Z</time>
      </trkpt>
      <trkpt lat="45.78454" lon="5.82201">
        <ele>367.47</ele>
        <time>2024-01-29T20:22:31Z</time>
      </trkpt>
      <trkpt lat="45.78451" lon="5.82194">
        <ele>367.51</ele>
        <time>2024-01-29T20:22:35Z</time>
      </trkpt>
      <trkpt lat="45.78452" lon="5.82173">
        <ele>368.72</ele>
        <time>2024-01-29T20:22:44Z</time>
      </trkpt>
      <trkpt lat="45.78478" lon="5.8212">
        <ele>372.12</ele>
        <time>2024-01-29T20:23:18Z</time>
      </trkpt>
      <trkpt lat="45.78507" lon="5.82049">
        <ele>375.96</ele>
        <time>2024-01-29T20:23:55Z</time>
      </trkpt>
      <trkpt lat="45.78525" lon="5.82017">
        <ele>378.57</ele>
        <time>2024-01-29T20:24:08Z</time>
      </trkpt>
      <trkpt lat="45.78546" lon="5.81953">
        <ele>381.94</ele>
        <time>2024-01-29T20:24:26Z</time>
      </trkpt>
      <trkpt lat="45.78551" lon="5.81903">
        <ele>384.32</ele>
        <time>2024-01-29T20:24:37Z</time>
      </trkpt>
      <trkpt lat="45.78552" lon="5.81885">
        <ele>384.73</ele>
        <time>2024-01-29T20:24:40Z</time>
      </trkpt>
      <trkpt lat="45.78548" lon="5.81863">
        <ele>384.76</ele>
        <time>2024-01-29T20:24:44Z</time>
      </trkpt>
      <trkpt lat="45.78537" lon="5.81825">
        <ele>385.28</ele>
        <time>2024-01-29T20:24:51Z</time>
      </trkpt>
      <trkpt lat="45.78517" lon="5.81792">
        <ele>385.69</ele>
        <time>2024-01-29T20:24:57Z</time>
      </trkpt>
      <trkpt lat="45.78493" lon="5.8178">
        <ele>385.59</ele>
        <time>2024-01-29T20:25:00Z</time>
      </trkpt>
      <trkpt lat="45.78409" lon="5.81781">
        <ele>383.25</ele>
        <time>2024-01-29T20:25:11Z</time>
      </trkpt>
      <trkpt lat="45.78337" lon="5.81778">
        <ele>380.84</ele>
        <time>2024-01-29T20:25:20Z</time>
      </trkpt>
      <trkpt lat="45.78212" lon="5.8178">
        <ele>376.26</ele>
        <time>2024-01-29T20:25:36Z</time>
      </trkpt>
      <trkpt lat="45.78181" lon="5.81777">
        <ele>375.74</ele>
        <time>2024-01-29T20:25:40Z</time>
      </trkpt>
      <trkpt lat="45.78141" lon="5.81752">
        <ele>375.68</ele>
        <time>2024-01-29T20:25:46Z</time>
      </trkpt>
      <trkpt lat="45.78068" lon="5.81691">
        <ele>376.53</ele>
        <time>2024-01-29T20:25:59Z</time>
      </trkpt>
      <trkpt lat="45.78025" lon="5.81656">
        <ele>377.65</ele>
        <time>2024-01-29T20:26:06Z</time>
      </trkpt>
      <trkpt lat="45.77954" lon="5.816">
        <ele>378.14</ele>
        <time>2024-01-29T20:26:20Z</time>
      </trkpt>
      <trkpt lat="45.77903" lon="5.81556">
        <ele>378.46</ele>
        <time>2024-01-29T20:26:31Z</time>
      </trkpt>
      <trkpt lat="45.77889" lon="5.81547">
        <ele>378.55</ele>
        <time>2024-01-29T20:26:35Z</time>
      </trkpt>
      <trkpt lat="45.77847" lon="5.81531">
        <ele>378.95</ele>
        <time>2024-01-29T20:26:44Z</time>
      </trkpt>
      <trkpt lat="45.77809" lon="5.81517">
        <ele>379.47</ele>
        <time>2024-01-29T20:26:54Z</time>
      </trkpt>
      <trkpt lat="45.77791" lon="5.81509">
        <ele>380.03</ele>
        <time>2024-01-29T20:26:59Z</time>
      </trkpt>
      <trkpt lat="45.77775" lon="5.81502">
        <ele>380.74</ele>
        <time>2024-01-29T20:27:03Z</time>
      </trkpt>
      <trkpt lat="45.7774" lon="5.8149">
        <ele>382.03</ele>
        <time>2024-01-29T20:27:12Z</time>
      </trkpt>
      <trkpt lat="45.7766" lon="5.81471">
        <ele>384.47</ele>
        <time>2024-01-29T20:27:37Z</time>
      </trkpt>
      <trkpt lat="45.77612" lon="5.81457">
        <ele>385.13</ele>
        <time>2024-01-29T20:27:55Z</time>
      </trkpt>
      <trkpt lat="45.77609" lon="5.81457">
        <ele>385.13</ele>
        <time>2024-01-29T20:27:57Z</time>
      </trkpt>
      <trkpt lat="45.77605" lon="5.81456">
        <ele>385.16</ele>
        <time>2024-01-29T20:27:58Z</time>
      </trkpt>
      <trkpt lat="45.77562" lon="5.81515">
        <ele>385.56</ele>
        <time>2024-01-29T20:28:26Z</time>
      </trkpt>
      <trkpt lat="45.77538" lon="5.81542">
        <ele>388.77</ele>
        <time>2024-01-29T20:28:41Z</time>
      </trkpt>
      <trkpt lat="45.77529" lon="5.81552">
        <ele>389.56</ele>
        <time>2024-01-29T20:28:46Z</time>
      </trkpt>
      <trkpt lat="45.77523" lon="5.81561">
        <ele>390.17</ele>
        <time>2024-01-29T20:28:51Z</time>
      </trkpt>
      <trkpt lat="45.77521" lon="5.81566">
        <ele>390.68</ele>
        <time>2024-01-29T20:28:53Z</time>
      </trkpt>
      <trkpt lat="45.77502" lon="5.81617">
        <ele>393.61</ele>
        <time>2024-01-29T20:29:14Z</time>
      </trkpt>
      <trkpt lat="45.77473" lon="5.81646">
        <ele>398.06</ele>
        <time>2024-01-29T20:29:35Z</time>
      </trkpt>
      <trkpt lat="45.7747" lon="5.81657">
        <ele>398.94</ele>
        <time>2024-01-29T20:29:41Z</time>
      </trkpt>
      <trkpt lat="45.77475" lon="5.8167">
        <ele>399.62</ele>
        <time>2024-01-29T20:29:47Z</time>
      </trkpt>
      <trkpt lat="45.77479" lon="5.81674">
        <ele>399.88</ele>
        <time>2024-01-29T20:29:51Z</time>
      </trkpt>
      <trkpt lat="45.77514" lon="5.81694">
        <ele>401.63</ele>
        <time>2024-01-29T20:30:18Z</time>
      </trkpt>
      <trkpt lat="45.77529" lon="5.81724">
        <ele>403.1</ele>
        <time>2024-01-29T20:30:36Z</time>
      </trkpt>
      <trkpt lat="45.77532" lon="5.8175">
        <ele>404.58</ele>
        <time>2024-01-29T20:30:48Z</time>
      </trkpt>
      <trkpt lat="45.77536" lon="5.81788">
        <ele>407.52</ele>
        <time>2024-01-29T20:31:04Z</time>
      </trkpt>
      <trkpt lat="45.77541" lon="5.81839">
        <ele>411.08</ele>
        <time>2024-01-29T20:31:24Z</time>
      </trkpt>
      <trkpt lat="45.77542" lon="5.81854">
        <ele>411.97</ele>
        <time>2024-01-29T20:31:29Z</time>
      </trkpt>
      <trkpt lat="45.77547" lon="5.81894">
        <ele>414.63</ele>
        <time>2024-01-29T20:31:46Z</time>
      </trkpt>
      <trkpt lat="45.77551" lon="5.81901">
        <ele>414.59</ele>
        <time>2024-01-29T20:31:49Z</time>
      </trkpt>
      <trkpt lat="45.77565" lon="5.81916">
        <ele>415.99</ele>
        <time>2024-01-29T20:32:00Z</time>
      </trkpt>
      <trkpt lat="45.77599" lon="5.81933">
        <ele>418.98</ele>
        <time>2024-01-29T20:32:24Z</time>
      </trkpt>
      <trkpt lat="45.77643" lon="5.81953">
        <ele>422.65</ele>
        <time>2024-01-29T20:32:56Z</time>
      </trkpt>
      <trkpt lat="45.77649" lon="5.81963">
        <ele>423.37</ele>
        <time>2024-01-29T20:33:02Z</time>
      </trkpt>
      <trkpt lat="45.7765" lon="5.81974">
        <ele>423.97</ele>
        <time>2024-01-29T20:33:08Z</time>
      </trkpt>
      <trkpt lat="45.77643" lon="5.81983">
        <ele>424.79</ele>
        <time>2024-01-29T20:33:15Z</time>
      </trkpt>
      <trkpt lat="45.77631" lon="5.81984">
        <ele>426.14</ele>
        <time>2024-01-29T20:33:22Z</time>
      </trkpt>
      <trkpt lat="45.77623" lon="5.81982">
        <ele>427.04</ele>
        <time>2024-01-29T20:33:26Z</time>
      </trkpt>
      <trkpt lat="45.77601" lon="5.81965">
        <ele>429.61</ele>
        <time>2024-01-29T20:33:41Z</time>
      </trkpt>
      <trkpt lat="45.77589" lon="5.81964">
        <ele>430.74</ele>
        <time>2024-01-29T20:33:47Z</time>
      </trkpt>
      <trkpt lat="45.77583" lon="5.81971">
        <ele>431.47</ele>
        <time>2024-01-29T20:33:51Z</time>
      </trkpt>
      <trkpt lat="45.77576" lon="5.81992">
        <ele>433.13</ele>
        <time>2024-01-29T20:33:59Z</time>
      </trkpt>
      <trkpt lat="45.77566" lon="5.82042">
        <ele>436.43</ele>
        <time>2024-01-29T20:34:18Z</time>
      </trkpt>
      <trkpt lat="45.77561" lon="5.82052">
        <ele>437.88</ele>
        <time>2024-01-29T20:34:22Z</time>
      </trkpt>
      <trkpt lat="45.77553" lon="5.82059">
        <ele>438.52</ele>
        <time>2024-01-29T20:34:27Z</time>
      </trkpt>
      <trkpt lat="45.77536" lon="5.8206">
        <ele>440.42</ele>
        <time>2024-01-29T20:34:38Z</time>
      </trkpt>
      <trkpt lat="45.77503" lon="5.82052">
        <ele>443.86</ele>
        <time>2024-01-29T20:34:56Z</time>
      </trkpt>
      <trkpt lat="45.77489" lon="5.82043">
        <ele>444.82</ele>
        <time>2024-01-29T20:35:04Z</time>
      </trkpt>
      <trkpt lat="45.77482" lon="5.82027">
        <ele>446.06</ele>
        <time>2024-01-29T20:35:12Z</time>
      </trkpt>
      <trkpt lat="45.77476" lon="5.81999">
        <ele>448.47</ele>
        <time>2024-01-29T20:35:23Z</time>
      </trkpt>
      <trkpt lat="45.77469" lon="5.81987">
        <ele>449.96</ele>
        <time>2024-01-29T20:35:29Z</time>
      </trkpt>
      <trkpt lat="45.77432" lon="5.81974">
        <ele>453.78</ele>
        <time>2024-01-29T20:35:50Z</time>
      </trkpt>
      <trkpt lat="45.77405" lon="5.81955">
        <ele>457.27</ele>
        <time>2024-01-29T20:36:08Z</time>
      </trkpt>
      <trkpt lat="45.77398" lon="5.81961">
        <ele>458.04</ele>
        <time>2024-01-29T20:36:13Z</time>
      </trkpt>
      <trkpt lat="45.77389" lon="5.81983">
        <ele>460.6</ele>
        <time>2024-01-29T20:36:24Z</time>
      </trkpt>
      <trkpt lat="45.77385" lon="5.81988">
        <ele>461.28</ele>
        <time>2024-01-29T20:36:27Z</time>
      </trkpt>
      <trkpt lat="45.77338" lon="5.82007">
        <ele>465.55</ele>
        <time>2024-01-29T20:36:59Z</time>
      </trkpt>
      <trkpt lat="45.77332" lon="5.82018">
        <ele>466.6</ele>
        <time>2024-01-29T20:37:07Z</time>
      </trkpt>
      <trkpt lat="45.7733" lon="5.82032">
        <ele>467.27</ele>
        <time>2024-01-29T20:37:14Z</time>
      </trkpt>
      <trkpt lat="45.77331" lon="5.82039">
        <ele>467.97</ele>
        <time>2024-01-29T20:37:18Z</time>
      </trkpt>
      <trkpt lat="45.77348" lon="5.82063">
        <ele>469.31</ele>
        <time>2024-01-29T20:37:36Z</time>
      </trkpt>
      <trkpt lat="45.7735" lon="5.8207">
        <ele>469.67</ele>
        <time>2024-01-29T20:37:39Z</time>
      </trkpt>
      <trkpt lat="45.77349" lon="5.82084">
        <ele>471.01</ele>
        <time>2024-01-29T20:37:46Z</time>
      </trkpt>
      <trkpt lat="45.77343" lon="5.82093">
        <ele>472.09</ele>
        <time>2024-01-29T20:37:53Z</time>
      </trkpt>
      <trkpt lat="45.77234" lon="5.82097">
        <ele>482.75</ele>
        <time>2024-01-29T20:38:49Z</time>
      </trkpt>
      <trkpt lat="45.77164" lon="5.82095">
        <ele>483.17</ele>
        <time>2024-01-29T20:39:02Z</time>
      </trkpt>
      <trkpt lat="45.7713" lon="5.82099">
        <ele>482.57</ele>
        <time>2024-01-29T20:39:07Z</time>
      </trkpt>
      <trkpt lat="45.77092" lon="5.82109">
        <ele>481.78</ele>
        <time>2024-01-29T20:39:12Z</time>
      </trkpt>
      <trkpt lat="45.7709" lon="5.8211">
        <ele>481.78</ele>
        <time>2024-01-29T20:39:12Z</time>
      </trkpt>
      <trkpt lat="45.76901" lon="5.82191">
        <ele>474.92</ele>
        <time>2024-01-29T20:39:35Z</time>
      </trkpt>
      <trkpt lat="45.76817" lon="5.82247">
        <ele>469.76</ele>
        <time>2024-01-29T20:39:46Z</time>
      </trkpt>
      <trkpt lat="45.76783" lon="5.82274">
        <ele>466.19</ele>
        <time>2024-01-29T20:39:51Z</time>
      </trkpt>
      <trkpt lat="45.76752" lon="5.82323">
        <ele>462.7</ele>
        <time>2024-01-29T20:39:58Z</time>
      </trkpt>
      <trkpt lat="45.7673" lon="5.82347">
        <ele>461.21</ele>
        <time>2024-01-29T20:40:02Z</time>
      </trkpt>
      <trkpt lat="45.76713" lon="5.82367">
        <ele>461.92</ele>
        <time>2024-01-29T20:40:06Z</time>
      </trkpt>
      <trkpt lat="45.76702" lon="5.82374">
        <ele>461.95</ele>
        <time>2024-01-29T20:40:08Z</time>
      </trkpt>
      <trkpt lat="45.76682" lon="5.8238">
        <ele>460.99</ele>
        <time>2024-01-29T20:40:13Z</time>
      </trkpt>
      <trkpt lat="45.76659" lon="5.82388">
        <ele>460.07</ele>
        <time>2024-01-29T20:40:20Z</time>
      </trkpt>
      <trkpt lat="45.76618" lon="5.82404">
        <ele>457.96</ele>
        <time>2024-01-29T20:40:38Z</time>
      </trkpt>
      <trkpt lat="45.7659" lon="5.82421">
        <ele>457.42</ele>
        <time>2024-01-29T20:40:52Z</time>
      </trkpt>
      <trkpt lat="45.7654" lon="5.82442">
        <ele>457.51</ele>
        <time>2024-01-29T20:41:18Z</time>
      </trkpt>
      <trkpt lat="45.76518" lon="5.82456">
        <ele>460.01</ele>
        <time>2024-01-29T20:41:31Z</time>
      </trkpt>
      <trkpt lat="45.76502" lon="5.82461">
        <ele>460.58</ele>
        <time>2024-01-29T20:41:41Z</time>
      </trkpt>
      <trkpt lat="45.76467" lon="5.82486">
        <ele>466.37</ele>
        <time>2024-01-29T20:42:06Z</time>
      </trkpt>
      <trkpt lat="45.76406" lon="5.82532">
        <ele>476.33</ele>
        <time>2024-01-29T20:42:47Z</time>
      </trkpt>
      <trkpt lat="45.76403" lon="5.82545">
        <ele>480.17</ele>
        <time>2024-01-29T20:42:52Z</time>
      </trkpt>
      <trkpt lat="45.76402" lon="5.82566">
        <ele>481.62</ele>
        <time>2024-01-29T20:43:01Z</time>
      </trkpt>
      <trkpt lat="45.76407" lon="5.82569">
        <ele>483.04</ele>
        <time>2024-01-29T20:43:04Z</time>
      </trkpt>
      <trkpt lat="45.76398" lon="5.82595">
        <ele>484.19</ele>
        <time>2024-01-29T20:43:13Z</time>
      </trkpt>
      <trkpt lat="45.7639" lon="5.82608">
        <ele>485.56</ele>
        <time>2024-01-29T20:43:18Z</time>
      </trkpt>
      <trkpt lat="45.76345" lon="5.82652">
        <ele>490.17</ele>
        <time>2024-01-29T20:43:40Z</time>
      </trkpt>
      <trkpt lat="45.76332" lon="5.8266">
        <ele>491.39</ele>
        <time>2024-01-29T20:43:45Z</time>
      </trkpt>
      <trkpt lat="45.76295" lon="5.82665">
        <ele>494.87</ele>
        <time>2024-01-29T20:43:58Z</time>
      </trkpt>
      <trkpt lat="45.7628" lon="5.82671">
        <ele>496.33</ele>
        <time>2024-01-29T20:44:03Z</time>
      </trkpt>
      <trkpt lat="45.76236" lon="5.82716">
        <ele>500.4</ele>
        <time>2024-01-29T20:44:20Z</time>
      </trkpt>
      <trkpt lat="45.76127" lon="5.82746">
        <ele>508.67</ele>
        <time>2024-01-29T20:45:03Z</time>
      </trkpt>
      <trkpt lat="45.76018" lon="5.82766">
        <ele>516.91</ele>
        <time>2024-01-29T20:46:04Z</time>
      </trkpt>
      <trkpt lat="45.75939" lon="5.82767">
        <ele>523.31</ele>
        <time>2024-01-29T20:46:53Z</time>
      </trkpt>
      <trkpt lat="45.75845" lon="5.82783">
        <ele>530.57</ele>
        <time>2024-01-29T20:47:45Z</time>
      </trkpt>
      <trkpt lat="45.75837" lon="5.82788">
        <ele>531.42</ele>
        <time>2024-01-29T20:47:50Z</time>
      </trkpt>
      <trkpt lat="45.75812" lon="5.82814">
        <ele>534.43</ele>
        <time>2024-01-29T20:48:04Z</time>
      </trkpt>
      <trkpt lat="45.75781" lon="5.82829">
        <ele>536.7</ele>
        <time>2024-01-29T20:48:19Z</time>
      </trkpt>
      <trkpt lat="45.75777" lon="5.82834">
        <ele>537.14</ele>
        <time>2024-01-29T20:48:21Z</time>
      </trkpt>
      <trkpt lat="45.75766" lon="5.82866">
        <ele>539.44</ele>
        <time>2024-01-29T20:48:31Z</time>
      </trkpt>
      <trkpt lat="45.75756" lon="5.82873">
        <ele>540.25</ele>
        <time>2024-01-29T20:48:35Z</time>
      </trkpt>
      <trkpt lat="45.75604" lon="5.82945">
        <ele>551.68</ele>
        <time>2024-01-29T20:49:36Z</time>
      </trkpt>
      <trkpt lat="45.75597" lon="5.82944">
        <ele>553.32</ele>
        <time>2024-01-29T20:49:39Z</time>
      </trkpt>
      <trkpt lat="45.75592" lon="5.82937">
        <ele>553.76</ele>
        <time>2024-01-29T20:49:42Z</time>
      </trkpt>
      <trkpt lat="45.75591" lon="5.82927">
        <ele>554.72</ele>
        <time>2024-01-29T20:49:46Z</time>
      </trkpt>
      <trkpt lat="45.75594" lon="5.82916">
        <ele>555.01</ele>
        <time>2024-01-29T20:49:50Z</time>
      </trkpt>
      <trkpt lat="45.75648" lon="5.82897">
        <ele>558.79</ele>
        <time>2024-01-29T20:50:18Z</time>
      </trkpt>
      <trkpt lat="45.75694" lon="5.82866">
        <ele>562.78</ele>
        <time>2024-01-29T20:50:41Z</time>
      </trkpt>
      <trkpt lat="45.75698" lon="5.8286">
        <ele>563.11</ele>
        <time>2024-01-29T20:50:44Z</time>
      </trkpt>
      <trkpt lat="45.75703" lon="5.82845">
        <ele>564.09</ele>
        <time>2024-01-29T20:50:49Z</time>
      </trkpt>
      <trkpt lat="45.75701" lon="5.82807">
        <ele>565.97</ele>
        <time>2024-01-29T20:51:01Z</time>
      </trkpt>
      <trkpt lat="45.75696" lon="5.82792">
        <ele>566.99</ele>
        <time>2024-01-29T20:51:06Z</time>
      </trkpt>
      <trkpt lat="45.7569" lon="5.82787">
        <ele>567.71</ele>
        <time>2024-01-29T20:51:10Z</time>
      </trkpt>
      <trkpt lat="45.75684" lon="5.82787">
        <ele>568.07</ele>
        <time>2024-01-29T20:51:13Z</time>
      </trkpt>
      <trkpt lat="45.7568" lon="5.8279">
        <ele>568.69</ele>
        <time>2024-01-29T20:51:15Z</time>
      </trkpt>
      <trkpt lat="45.75676" lon="5.82799">
        <ele>569.03</ele>
        <time>2024-01-29T20:51:19Z</time>
      </trkpt>
      <trkpt lat="45.75674" lon="5.82828">
        <ele>570.75</ele>
        <time>2024-01-29T20:51:29Z</time>
      </trkpt>
      <trkpt lat="45.75669" lon="5.82852">
        <ele>572.39</ele>
        <time>2024-01-29T20:51:39Z</time>
      </trkpt>
      <trkpt lat="45.75659" lon="5.82864">
        <ele>572.65</ele>
        <time>2024-01-29T20:51:45Z</time>
      </trkpt>
      <trkpt lat="45.7562" lon="5.82877">
        <ele>575.58</ele>
        <time>2024-01-29T20:52:04Z</time>
      </trkpt>
      <trkpt lat="45.75599" lon="5.82878">
        <ele>577.25</ele>
        <time>2024-01-29T20:52:13Z</time>
      </trkpt>
      <trkpt lat="45.75568" lon="5.82884">
        <ele>579.85</ele>
        <time>2024-01-29T20:52:26Z</time>
      </trkpt>
      <trkpt lat="45.75538" lon="5.82884">
        <ele>582.06</ele>
        <time>2024-01-29T20:52:37Z</time>
      </trkpt>
      <trkpt lat="45.75526" lon="5.82886">
        <ele>582.84</ele>
        <time>2024-01-29T20:52:42Z</time>
      </trkpt>
      <trkpt lat="45.75403" lon="5.82962">
        <ele>592.25</ele>
        <time>2024-01-29T20:53:36Z</time>
      </trkpt>
      <trkpt lat="45.75351" lon="5.82984">
        <ele>594.52</ele>
        <time>2024-01-29T20:53:57Z</time>
      </trkpt>
      <trkpt lat="45.75284" lon="5.82995">
        <ele>597.98</ele>
        <time>2024-01-29T20:54:16Z</time>
      </trkpt>
      <trkpt lat="45.75244" lon="5.82989">
        <ele>600.38</ele>
        <time>2024-01-29T20:54:25Z</time>
      </trkpt>
      <trkpt lat="45.75222" lon="5.82996">
        <ele>599.75</ele>
        <time>2024-01-29T20:54:30Z</time>
      </trkpt>
      <trkpt lat="45.75133" lon="5.83058">
        <ele>594.61</ele>
        <time>2024-01-29T20:54:53Z</time>
      </trkpt>
      <trkpt lat="45.75107" lon="5.83066">
        <ele>595.08</ele>
        <time>2024-01-29T20:54:59Z</time>
      </trkpt>
      <trkpt lat="45.75036" lon="5.83085">
        <ele>599.76</ele>
        <time>2024-01-29T20:55:11Z</time>
      </trkpt>
      <trkpt lat="45.74991" lon="5.83111">
        <ele>603.15</ele>
        <time>2024-01-29T20:55:19Z</time>
      </trkpt>
      <trkpt lat="45.74984" lon="5.83111">
        <ele>603.7</ele>
        <time>2024-01-29T20:55:20Z</time>
      </trkpt>
      <trkpt lat="45.74958" lon="5.83115">
        <ele>604.31</ele>
        <time>2024-01-29T20:55:26Z</time>
      </trkpt>
      <trkpt lat="45.74919" lon="5.83137">
        <ele>604.11</ele>
        <time>2024-01-29T20:55:34Z</time>
      </trkpt>
      <trkpt lat="45.7487" lon="5.83177">
        <ele>603.22</ele>
        <time>2024-01-29T20:55:42Z</time>
      </trkpt>
      <trkpt lat="45.74862" lon="5.83172">
        <ele>603.56</ele>
        <time>2024-01-29T20:55:45Z</time>
      </trkpt>
      <trkpt lat="45.74856" lon="5.83173">
        <ele>604.08</ele>
        <time>2024-01-29T20:55:46Z</time>
      </trkpt>
      <trkpt lat="45.74824" lon="5.8319">
        <ele>606.7</ele>
        <time>2024-01-29T20:55:56Z</time>
      </trkpt>
      <trkpt lat="45.74764" lon="5.83219">
        <ele>611.93</ele>
        <time>2024-01-29T20:56:20Z</time>
      </trkpt>
      <trkpt lat="45.74754" lon="5.83219">
        <ele>612.91</ele>
        <time>2024-01-29T20:56:25Z</time>
      </trkpt>
      <trkpt lat="45.74747" lon="5.83214">
        <ele>613.46</ele>
        <time>2024-01-29T20:56:28Z</time>
      </trkpt>
      <trkpt lat="45.74747" lon="5.83199">
        <ele>614.56</ele>
        <time>2024-01-29T20:56:34Z</time>
      </trkpt>
      <trkpt lat="45.74823" lon="5.83134">
        <ele>621.82</ele>
        <time>2024-01-29T20:57:30Z</time>
      </trkpt>
      <trkpt lat="45.74867" lon="5.83083">
        <ele>626.53</ele>
        <time>2024-01-29T20:58:15Z</time>
      </trkpt>
      <trkpt lat="45.7496" lon="5.83014">
        <ele>635.92</ele>
        <time>2024-01-29T20:59:40Z</time>
      </trkpt>
      <trkpt lat="45.75006" lon="5.82976">
        <ele>640.08</ele>
        <time>2024-01-29T21:00:17Z</time>
      </trkpt>
      <trkpt lat="45.75024" lon="5.82955">
        <ele>641.66</ele>
        <time>2024-01-29T21:00:31Z</time>
      </trkpt>
      <trkpt lat="45.75057" lon="5.82897">
        <ele>645.86</ele>
        <time>2024-01-29T21:00:59Z</time>
      </trkpt>
      <trkpt lat="45.75109" lon="5.82841">
        <ele>651.97</ele>
        <time>2024-01-29T21:01:33Z</time>
      </trkpt>
      <trkpt lat="45.75115" lon="5.82837">
        <ele>652.58</ele>
        <time>2024-01-29T21:01:37Z</time>
      </trkpt>
      <trkpt lat="45.75149" lon="5.82827">
        <ele>655.81</ele>
        <time>2024-01-29T21:01:54Z</time>
      </trkpt>
      <trkpt lat="45.7516" lon="5.82821">
        <ele>656.65</ele>
        <time>2024-01-29T21:01:59Z</time>
      </trkpt>
      <trkpt lat="45.75173" lon="5.82809">
        <ele>658.21</ele>
        <time>2024-01-29T21:02:06Z</time>
      </trkpt>
      <trkpt lat="45.75248" lon="5.82721">
        <ele>667.97</ele>
        <time>2024-01-29T21:02:45Z</time>
      </trkpt>
      <trkpt lat="45.75406" lon="5.82566">
        <ele>682.92</ele>
        <time>2024-01-29T21:04:18Z</time>
      </trkpt>
      <trkpt lat="45.7545" lon="5.82494">
        <ele>688.1</ele>
        <time>2024-01-29T21:04:51Z</time>
      </trkpt>
      <trkpt lat="45.75452" lon="5.82491">
        <ele>688.1</ele>
        <time>2024-01-29T21:04:53Z</time>
      </trkpt>
      <trkpt lat="45.75578" lon="5.82324">
        <ele>702.39</ele>
        <time>2024-01-29T21:06:28Z</time>
      </trkpt>
      <trkpt lat="45.75581" lon="5.82316">
        <ele>703.06</ele>
        <time>2024-01-29T21:06:32Z</time>
      </trkpt>
      <trkpt lat="45.75583" lon="5.82304">
        <ele>703.96</ele>
        <time>2024-01-29T21:06:36Z</time>
      </trkpt>
      <trkpt lat="45.75578" lon="5.82277">
        <ele>705.69</ele>
        <time>2024-01-29T21:06:48Z</time>
      </trkpt>
      <trkpt lat="45.75563" lon="5.82224">
        <ele>708.21</ele>
        <time>2024-01-29T21:07:10Z</time>
      </trkpt>
      <trkpt lat="45.75554" lon="5.82188">
        <ele>707.9</ele>
        <time>2024-01-29T21:07:24Z</time>
      </trkpt>
      <trkpt lat="45.75553" lon="5.82184">
        <ele>707.83</ele>
        <time>2024-01-29T21:07:25Z</time>
      </trkpt>
      <trkpt lat="45.75543" lon="5.82144">
        <ele>708.61</ele>
        <time>2024-01-29T21:07:42Z</time>
      </trkpt>
      <trkpt lat="45.75536" lon="5.82126">
        <ele>708.76</ele>
        <time>2024-01-29T21:07:50Z</time>
      </trkpt>
      <trkpt lat="45.75483" lon="5.82088">
        <ele>712.72</ele>
        <time>2024-01-29T21:08:20Z</time>
      </trkpt>
      <trkpt lat="45.75465" lon="5.82062">
        <ele>715.03</ele>
        <time>2024-01-29T21:08:33Z</time>
      </trkpt>
      <trkpt lat="45.75459" lon="5.82057">
        <ele>715.64</ele>
        <time>2024-01-29T21:08:37Z</time>
      </trkpt>
      <trkpt lat="45.75453" lon="5.82057">
        <ele>716.64</ele>
        <time>2024-01-29T21:08:40Z</time>
      </trkpt>
      <trkpt lat="45.75435" lon="5.82066">
        <ele>719.02</ele>
        <time>2024-01-29T21:08:50Z</time>
      </trkpt>
      <trkpt lat="45.75424" lon="5.82067">
        <ele>719.78</ele>
        <time>2024-01-29T21:08:55Z</time>
      </trkpt>
      <trkpt lat="45.75429" lon="5.82096">
        <ele>722.1</ele>
        <time>2024-01-29T21:09:06Z</time>
      </trkpt>
      <trkpt lat="45.75448" lon="5.82123">
        <ele>726.54</ele>
        <time>2024-01-29T21:09:20Z</time>
      </trkpt>
      <trkpt lat="45.75436" lon="5.82135">
        <ele>729.62</ele>
        <time>2024-01-29T21:09:28Z</time>
      </trkpt>
      <trkpt lat="45.75399" lon="5.82153">
        <ele>735.69</ele>
        <time>2024-01-29T21:09:50Z</time>
      </trkpt>
      <trkpt lat="45.75379" lon="5.82169">
        <ele>738.42</ele>
        <time>2024-01-29T21:10:03Z</time>
      </trkpt>
      <trkpt lat="45.7536" lon="5.82189">
        <ele>740.38</ele>
        <time>2024-01-29T21:10:17Z</time>
      </trkpt>
      <trkpt lat="45.75341" lon="5.82216">
        <ele>744.76</ele>
        <time>2024-01-29T21:10:34Z</time>
      </trkpt>
      <trkpt lat="45.7532" lon="5.82216">
        <ele>747.46</ele>
        <time>2024-01-29T21:10:49Z</time>
      </trkpt>
      <trkpt lat="45.75289" lon="5.8223">
        <ele>750.97</ele>
        <time>2024-01-29T21:11:14Z</time>
      </trkpt>
      <trkpt lat="45.75276" lon="5.82228">
        <ele>750.94</ele>
        <time>2024-01-29T21:11:25Z</time>
      </trkpt>
      <trkpt lat="45.75248" lon="5.82211">
        <ele>747.86</ele>
        <time>2024-01-29T21:11:49Z</time>
      </trkpt>
      <trkpt lat="45.7522" lon="5.82174">
        <ele>748.12</ele>
        <time>2024-01-29T21:12:21Z</time>
      </trkpt>
      <trkpt lat="45.75209" lon="5.82169">
        <ele>748.88</ele>
        <time>2024-01-29T21:12:31Z</time>
      </trkpt>
      <trkpt lat="45.75203" lon="5.82171">
        <ele>749.62</ele>
        <time>2024-01-29T21:12:36Z</time>
      </trkpt>
      <trkpt lat="45.75167" lon="5.82204">
        <ele>752.5</ele>
        <time>2024-01-29T21:13:12Z</time>
      </trkpt>
      <trkpt lat="45.75146" lon="5.82217">
        <ele>755.28</ele>
        <time>2024-01-29T21:13:30Z</time>
      </trkpt>
      <trkpt lat="45.75126" lon="5.82227">
        <ele>758.71</ele>
        <time>2024-01-29T21:13:48Z</time>
      </trkpt>
      <trkpt lat="45.75091" lon="5.82238">
        <ele>763.93</ele>
        <time>2024-01-29T21:14:18Z</time>
      </trkpt>
      <trkpt lat="45.75033" lon="5.82266">
        <ele>773.77</ele>
        <time>2024-01-29T21:15:11Z</time>
      </trkpt>
      <trkpt lat="45.75029" lon="5.82276">
        <ele>775.31</ele>
        <time>2024-01-29T21:15:18Z</time>
      </trkpt>
      <trkpt lat="45.75028" lon="5.82287">
        <ele>776.87</ele>
        <time>2024-01-29T21:15:25Z</time>
      </trkpt>
      <trkpt lat="45.7503" lon="5.82296">
        <ele>777.4</ele>
        <time>2024-01-29T21:15:30Z</time>
      </trkpt>
      <trkpt lat="45.75027" lon="5.82307">
        <ele>780.22</ele>
        <time>2024-01-29T21:15:37Z</time>
      </trkpt>
      <trkpt lat="45.75021" lon="5.82313">
        <ele>781.72</ele>
        <time>2024-01-29T21:15:44Z</time>
      </trkpt>
      <trkpt lat="45.74954" lon="5.82325">
        <ele>792.97</ele>
        <time>2024-01-29T21:16:36Z</time>
      </trkpt>
      <trkpt lat="45.74946" lon="5.82319">
        <ele>794.78</ele>
        <time>2024-01-29T21:16:42Z</time>
      </trkpt>
      <trkpt lat="45.74937" lon="5.82298">
        <ele>797.06</ele>
        <time>2024-01-29T21:16:54Z</time>
      </trkpt>
      <trkpt lat="45.74931" lon="5.82292">
        <ele>798.1</ele>
        <time>2024-01-29T21:16:59Z</time>
      </trkpt>
      <trkpt lat="45.7491" lon="5.82293">
        <ele>801.83</ele>
        <time>2024-01-29T21:17:13Z</time>
      </trkpt>
      <trkpt lat="45.74899" lon="5.82298">
        <ele>803.68</ele>
        <time>2024-01-29T21:17:20Z</time>
      </trkpt>
      <trkpt lat="45.74848" lon="5.82339">
        <ele>808</ele>
        <time>2024-01-29T21:17:50Z</time>
      </trkpt>
      <trkpt lat="45.74832" lon="5.82334">
        <ele>809.66</ele>
        <time>2024-01-29T21:17:56Z</time>
      </trkpt>
      <trkpt lat="45.7482" lon="5.82311">
        <ele>810.15</ele>
        <time>2024-01-29T21:18:03Z</time>
      </trkpt>
      <trkpt lat="45.74816" lon="5.8229">
        <ele>810.37</ele>
        <time>2024-01-29T21:18:08Z</time>
      </trkpt>
      <trkpt lat="45.74822" lon="5.82258">
        <ele>811.34</ele>
        <time>2024-01-29T21:18:14Z</time>
      </trkpt>
      <trkpt lat="45.74822" lon="5.82241">
        <ele>813.34</ele>
        <time>2024-01-29T21:18:17Z</time>
      </trkpt>
      <trkpt lat="45.74818" lon="5.82233">
        <ele>814.4</ele>
        <time>2024-01-29T21:18:19Z</time>
      </trkpt>
      <trkpt lat="45.74808" lon="5.82224">
        <ele>816.16</ele>
        <time>2024-01-29T21:18:22Z</time>
      </trkpt>
      <trkpt lat="45.74782" lon="5.82214">
        <ele>822.48</ele>
        <time>2024-01-29T21:18:29Z</time>
      </trkpt>
      <trkpt lat="45.74757" lon="5.82213">
        <ele>824.45</ele>
        <time>2024-01-29T21:18:35Z</time>
      </trkpt>
      <trkpt lat="45.74755" lon="5.82205">
        <ele>826.63</ele>
        <time>2024-01-29T21:18:36Z</time>
      </trkpt>
      <trkpt lat="45.74759" lon="5.82184">
        <ele>830.12</ele>
        <time>2024-01-29T21:18:40Z</time>
      </trkpt>
      <trkpt lat="45.74752" lon="5.82098">
        <ele>826.07</ele>
        <time>2024-01-29T21:18:56Z</time>
      </trkpt>
      <trkpt lat="45.74745" lon="5.82078">
        <ele>823.32</ele>
        <time>2024-01-29T21:19:00Z</time>
      </trkpt>
      <trkpt lat="45.74726" lon="5.8204">
        <ele>822.38</ele>
        <time>2024-01-29T21:19:12Z</time>
      </trkpt>
      <trkpt lat="45.74711" lon="5.82019">
        <ele>822.66</ele>
        <time>2024-01-29T21:19:22Z</time>
      </trkpt>
      <trkpt lat="45.74699" lon="5.81994">
        <ele>822.48</ele>
        <time>2024-01-29T21:19:31Z</time>
      </trkpt>
      <trkpt lat="45.74687" lon="5.81956">
        <ele>820.33</ele>
        <time>2024-01-29T21:19:42Z</time>
      </trkpt>
      <trkpt lat="45.74685" lon="5.81898">
        <ele>818.18</ele>
        <time>2024-01-29T21:19:56Z</time>
      </trkpt>
      <trkpt lat="45.74671" lon="5.81878">
        <ele>816.58</ele>
        <time>2024-01-29T21:20:03Z</time>
      </trkpt>
      <trkpt lat="45.74668" lon="5.81853">
        <ele>816.52</ele>
        <time>2024-01-29T21:20:08Z</time>
      </trkpt>
      <trkpt lat="45.74655" lon="5.81845">
        <ele>817.18</ele>
        <time>2024-01-29T21:20:12Z</time>
      </trkpt>
      <trkpt lat="45.74628" lon="5.81859">
        <ele>815.91</ele>
        <time>2024-01-29T21:20:20Z</time>
      </trkpt>
      <trkpt lat="45.74613" lon="5.81874">
        <ele>814.81</ele>
        <time>2024-01-29T21:20:25Z</time>
      </trkpt>
      <trkpt lat="45.7456" lon="5.81888">
        <ele>813.49</ele>
        <time>2024-01-29T21:20:39Z</time>
      </trkpt>
      <trkpt lat="45.74549" lon="5.81884">
        <ele>812.94</ele>
        <time>2024-01-29T21:20:41Z</time>
      </trkpt>
      <trkpt lat="45.74518" lon="5.81882">
        <ele>809.29</ele>
        <time>2024-01-29T21:20:49Z</time>
      </trkpt>
      <trkpt lat="45.7451" lon="5.81878">
        <ele>808.13</ele>
        <time>2024-01-29T21:20:51Z</time>
      </trkpt>
      <trkpt lat="45.74497" lon="5.81868">
        <ele>806.58</ele>
        <time>2024-01-29T21:20:54Z</time>
      </trkpt>
      <trkpt lat="45.74489" lon="5.81851">
        <ele>808.42</ele>
        <time>2024-01-29T21:20:58Z</time>
      </trkpt>
      <trkpt lat="45.74475" lon="5.81833">
        <ele>809.51</ele>
        <time>2024-01-29T21:21:03Z</time>
      </trkpt>
      <trkpt lat="45.74449" lon="5.81821">
        <ele>808.86</ele>
        <time>2024-01-29T21:21:10Z</time>
      </trkpt>
      <trkpt lat="45.74435" lon="5.81807">
        <ele>809.17</ele>
        <time>2024-01-29T21:21:15Z</time>
      </trkpt>
      <trkpt lat="45.74425" lon="5.8181">
        <ele>809.91</ele>
        <time>2024-01-29T21:21:18Z</time>
      </trkpt>
      <trkpt lat="45.74421" lon="5.81807">
        <ele>810.35</ele>
        <time>2024-01-29T21:21:20Z</time>
      </trkpt>
      <trkpt lat="45.74409" lon="5.81764">
        <ele>807.62</ele>
        <time>2024-01-29T21:21:31Z</time>
      </trkpt>
      <trkpt lat="45.74399" lon="5.81737">
        <ele>809.76</ele>
        <time>2024-01-29T21:21:40Z</time>
      </trkpt>
      <trkpt lat="45.74394" lon="5.8171">
        <ele>809.38</ele>
        <time>2024-01-29T21:21:48Z</time>
      </trkpt>
      <trkpt lat="45.74387" lon="5.81703">
        <ele>808.89</ele>
        <time>2024-01-29T21:21:52Z</time>
      </trkpt>
      <trkpt lat="45.74355" lon="5.81705">
        <ele>805.23</ele>
        <time>2024-01-29T21:22:07Z</time>
      </trkpt>
      <trkpt lat="45.74336" lon="5.81718">
        <ele>806.88</ele>
        <time>2024-01-29T21:22:18Z</time>
      </trkpt>
      <trkpt lat="45.74329" lon="5.81717">
        <ele>806.12</ele>
        <time>2024-01-29T21:22:22Z</time>
      </trkpt>
      <trkpt lat="45.74321" lon="5.81707">
        <ele>806.15</ele>
        <time>2024-01-29T21:22:28Z</time>
      </trkpt>
      <trkpt lat="45.74303" lon="5.81695">
        <ele>804.81</ele>
        <time>2024-01-29T21:22:39Z</time>
      </trkpt>
      <trkpt lat="45.74293" lon="5.81691">
        <ele>804.77</ele>
        <time>2024-01-29T21:22:46Z</time>
      </trkpt>
      <trkpt lat="45.74285" lon="5.81696">
        <ele>804.75</ele>
        <time>2024-01-29T21:22:52Z</time>
      </trkpt>
      <trkpt lat="45.7427" lon="5.81717">
        <ele>805.06</ele>
        <time>2024-01-29T21:23:06Z</time>
      </trkpt>
      <trkpt lat="45.74257" lon="5.81741">
        <ele>805.63</ele>
        <time>2024-01-29T21:23:19Z</time>
      </trkpt>
      <trkpt lat="45.74243" lon="5.81784">
        <ele>804.92</ele>
        <time>2024-01-29T21:23:39Z</time>
      </trkpt>
      <trkpt lat="45.74223" lon="5.81824">
        <ele>805.08</ele>
        <time>2024-01-29T21:23:57Z</time>
      </trkpt>
      <trkpt lat="45.74215" lon="5.81829">
        <ele>805.6</ele>
        <time>2024-01-29T21:24:02Z</time>
      </trkpt>
      <trkpt lat="45.74198" lon="5.81828">
        <ele>806.83</ele>
        <time>2024-01-29T21:24:11Z</time>
      </trkpt>
      <trkpt lat="45.74189" lon="5.81834">
        <ele>807.01</ele>
        <time>2024-01-29T21:24:16Z</time>
      </trkpt>
      <trkpt lat="45.74179" lon="5.81847">
        <ele>807.31</ele>
        <time>2024-01-29T21:24:23Z</time>
      </trkpt>
      <trkpt lat="45.7418" lon="5.8182">
        <ele>804.05</ele>
        <time>2024-01-29T21:24:31Z</time>
      </trkpt>
      <trkpt lat="45.74181" lon="5.81784">
        <ele>801.16</ele>
        <time>2024-01-29T21:24:42Z</time>
      </trkpt>
      <trkpt lat="45.74198" lon="5.81717">
        <ele>796.38</ele>
        <time>2024-01-29T21:24:56Z</time>
      </trkpt>
      <trkpt lat="45.742" lon="5.81692">
        <ele>794.66</ele>
        <time>2024-01-29T21:25:00Z</time>
      </trkpt>
      <trkpt lat="45.74197" lon="5.81665">
        <ele>791.14</ele>
        <time>2024-01-29T21:25:04Z</time>
      </trkpt>
      <trkpt lat="45.74171" lon="5.81619">
        <ele>789.04</ele>
        <time>2024-01-29T21:25:12Z</time>
      </trkpt>
      <trkpt lat="45.74162" lon="5.81588">
        <ele>786.72</ele>
        <time>2024-01-29T21:25:17Z</time>
      </trkpt>
      <trkpt lat="45.74157" lon="5.81561">
        <ele>784.28</ele>
        <time>2024-01-29T21:25:21Z</time>
      </trkpt>
      <trkpt lat="45.74133" lon="5.81503">
        <ele>775.15</ele>
        <time>2024-01-29T21:25:30Z</time>
      </trkpt>
      <trkpt lat="45.74112" lon="5.81473">
        <ele>770.28</ele>
        <time>2024-01-29T21:25:35Z</time>
      </trkpt>
      <trkpt lat="45.74107" lon="5.8146">
        <ele>768.38</ele>
        <time>2024-01-29T21:25:37Z</time>
      </trkpt>
      <trkpt lat="45.74093" lon="5.81394">
        <ele>757.64</ele>
        <time>2024-01-29T21:25:46Z</time>
      </trkpt>
      <trkpt lat="45.74078" lon="5.81388">
        <ele>755.63</ele>
        <time>2024-01-29T21:25:49Z</time>
      </trkpt>
      <trkpt lat="45.74056" lon="5.81399">
        <ele>753.31</ele>
        <time>2024-01-29T21:25:53Z</time>
      </trkpt>
      <trkpt lat="45.74045" lon="5.81395">
        <ele>751.82</ele>
        <time>2024-01-29T21:25:55Z</time>
      </trkpt>
      <trkpt lat="45.74041" lon="5.81383">
        <ele>751.75</ele>
        <time>2024-01-29T21:25:57Z</time>
      </trkpt>
      <trkpt lat="45.74044" lon="5.81376">
        <ele>750.64</ele>
        <time>2024-01-29T21:25:58Z</time>
      </trkpt>
      <trkpt lat="45.74044" lon="5.81355">
        <ele>748.6</ele>
        <time>2024-01-29T21:26:01Z</time>
      </trkpt>
      <trkpt lat="45.74032" lon="5.81347">
        <ele>746.96</ele>
        <time>2024-01-29T21:26:04Z</time>
      </trkpt>
      <trkpt lat="45.74025" lon="5.81306">
        <ele>742.18</ele>
        <time>2024-01-29T21:26:09Z</time>
      </trkpt>
      <trkpt lat="45.74043" lon="5.81277">
        <ele>737.26</ele>
        <time>2024-01-29T21:26:15Z</time>
      </trkpt>
      <trkpt lat="45.74051" lon="5.81263">
        <ele>735.48</ele>
        <time>2024-01-29T21:26:17Z</time>
      </trkpt>
      <trkpt lat="45.7404" lon="5.8125">
        <ele>734.2</ele>
        <time>2024-01-29T21:26:20Z</time>
      </trkpt>
      <trkpt lat="45.73925" lon="5.81253">
        <ele>713.25</ele>
        <time>2024-01-29T21:26:43Z</time>
      </trkpt>
      <trkpt lat="45.73858" lon="5.81223">
        <ele>700.81</ele>
        <time>2024-01-29T21:26:57Z</time>
      </trkpt>
      <trkpt lat="45.73804" lon="5.81174">
        <ele>693.96</ele>
        <time>2024-01-29T21:27:10Z</time>
      </trkpt>
      <trkpt lat="45.73844" lon="5.81187">
        <ele>687.41</ele>
        <time>2024-01-29T21:27:18Z</time>
      </trkpt>
      <trkpt lat="45.73883" lon="5.81186">
        <ele>681.32</ele>
        <time>2024-01-29T21:27:25Z</time>
      </trkpt>
      <trkpt lat="45.73888" lon="5.81181">
        <ele>679.31</ele>
        <time>2024-01-29T21:27:26Z</time>
      </trkpt>
      <trkpt lat="45.73914" lon="5.8118">
        <ele>676.12</ele>
        <time>2024-01-29T21:27:31Z</time>
      </trkpt>
      <trkpt lat="45.73962" lon="5.81165">
        <ele>668.66</ele>
        <time>2024-01-29T21:27:41Z</time>
      </trkpt>
      <trkpt lat="45.74014" lon="5.81139">
        <ele>659.77</ele>
        <time>2024-01-29T21:27:51Z</time>
      </trkpt>
      <trkpt lat="45.74074" lon="5.81098">
        <ele>646.67</ele>
        <time>2024-01-29T21:28:04Z</time>
      </trkpt>
      <trkpt lat="45.74106" lon="5.81085">
        <ele>642.15</ele>
        <time>2024-01-29T21:28:10Z</time>
      </trkpt>
      <trkpt lat="45.74121" lon="5.81075">
        <ele>638.42</ele>
        <time>2024-01-29T21:28:13Z</time>
      </trkpt>
      <trkpt lat="45.74136" lon="5.81073">
        <ele>636.48</ele>
        <time>2024-01-29T21:28:16Z</time>
      </trkpt>
      <trkpt lat="45.74152" lon="5.81061">
        <ele>633.54</ele>
        <time>2024-01-29T21:28:19Z</time>
      </trkpt>
      <trkpt lat="45.74164" lon="5.81061">
        <ele>633.83</ele>
        <time>2024-01-29T21:28:21Z</time>
      </trkpt>
      <trkpt lat="45.74202" lon="5.81041">
        <ele>626.45</ele>
        <time>2024-01-29T21:28:29Z</time>
      </trkpt>
      <trkpt lat="45.74231" lon="5.81019">
        <ele>617.74</ele>
        <time>2024-01-29T21:28:35Z</time>
      </trkpt>
      <trkpt lat="45.74245" lon="5.81015">
        <ele>616.02</ele>
        <time>2024-01-29T21:28:38Z</time>
      </trkpt>
      <trkpt lat="45.74256" lon="5.81005">
        <ele>611.21</ele>
        <time>2024-01-29T21:28:40Z</time>
      </trkpt>
      <trkpt lat="45.7426" lon="5.81005">
        <ele>610.74</ele>
        <time>2024-01-29T21:28:41Z</time>
      </trkpt>
      <trkpt lat="45.74272" lon="5.80996">
        <ele>607.81</ele>
        <time>2024-01-29T21:28:43Z</time>
      </trkpt>
      <trkpt lat="45.74282" lon="5.80982">
        <ele>603.29</ele>
        <time>2024-01-29T21:28:46Z</time>
      </trkpt>
      <trkpt lat="45.74299" lon="5.80981">
        <ele>600.82</ele>
        <time>2024-01-29T21:28:49Z</time>
      </trkpt>
      <trkpt lat="45.74345" lon="5.80968">
        <ele>591.38</ele>
        <time>2024-01-29T21:28:58Z</time>
      </trkpt>
      <trkpt lat="45.74363" lon="5.8097">
        <ele>587.85</ele>
        <time>2024-01-29T21:29:01Z</time>
      </trkpt>
      <trkpt lat="45.74394" lon="5.80961">
        <ele>581.13</ele>
        <time>2024-01-29T21:29:07Z</time>
      </trkpt>
      <trkpt lat="45.7441" lon="5.80967">
        <ele>578.64</ele>
        <time>2024-01-29T21:29:10Z</time>
      </trkpt>
      <trkpt lat="45.74429" lon="5.80968">
        <ele>574.34</ele>
        <time>2024-01-29T21:29:14Z</time>
      </trkpt>
      <trkpt lat="45.74439" lon="5.80964">
        <ele>572.39</ele>
        <time>2024-01-29T21:29:16Z</time>
      </trkpt>
      <trkpt lat="45.74441" lon="5.8096">
        <ele>571.79</ele>
        <time>2024-01-29T21:29:16Z</time>
      </trkpt>
      <trkpt lat="45.74453" lon="5.80959">
        <ele>569.45</ele>
        <time>2024-01-29T21:29:18Z</time>
      </trkpt>
      <trkpt lat="45.74478" lon="5.80937">
        <ele>563.3</ele>
        <time>2024-01-29T21:29:24Z</time>
      </trkpt>
      <trkpt lat="45.74487" lon="5.80926">
        <ele>560.28</ele>
        <time>2024-01-29T21:29:26Z</time>
      </trkpt>
      <trkpt lat="45.74506" lon="5.80883">
        <ele>553.34</ele>
        <time>2024-01-29T21:29:33Z</time>
      </trkpt>
      <trkpt lat="45.74521" lon="5.80875">
        <ele>551.09</ele>
        <time>2024-01-29T21:29:36Z</time>
      </trkpt>
      <trkpt lat="45.74551" lon="5.8088">
        <ele>546.92</ele>
        <time>2024-01-29T21:29:41Z</time>
      </trkpt>
      <trkpt lat="45.74565" lon="5.80873">
        <ele>545.51</ele>
        <time>2024-01-29T21:29:44Z</time>
      </trkpt>
      <trkpt lat="45.74567" lon="5.80863">
        <ele>543.81</ele>
        <time>2024-01-29T21:29:45Z</time>
      </trkpt>
      <trkpt lat="45.74564" lon="5.80853">
        <ele>542.81</ele>
        <time>2024-01-29T21:29:47Z</time>
      </trkpt>
      <trkpt lat="45.74545" lon="5.80824">
        <ele>539.79</ele>
        <time>2024-01-29T21:29:52Z</time>
      </trkpt>
      <trkpt lat="45.74546" lon="5.80816">
        <ele>538.83</ele>
        <time>2024-01-29T21:29:53Z</time>
      </trkpt>
      <trkpt lat="45.74562" lon="5.80806">
        <ele>536.1</ele>
        <time>2024-01-29T21:29:56Z</time>
      </trkpt>
      <trkpt lat="45.74567" lon="5.80799">
        <ele>535.29</ele>
        <time>2024-01-29T21:29:58Z</time>
      </trkpt>
      <trkpt lat="45.74525" lon="5.80724">
        <ele>525.36</ele>
        <time>2024-01-29T21:30:11Z</time>
      </trkpt>
      <trkpt lat="45.7452" lon="5.80701">
        <ele>523.2</ele>
        <time>2024-01-29T21:30:14Z</time>
      </trkpt>
      <trkpt lat="45.74506" lon="5.80676">
        <ele>521.39</ele>
        <time>2024-01-29T21:30:18Z</time>
      </trkpt>
      <trkpt lat="45.74468" lon="5.80652">
        <ele>519.73</ele>
        <time>2024-01-29T21:30:27Z</time>
      </trkpt>
      <trkpt lat="45.74436" lon="5.80656">
        <ele>517.55</ele>
        <time>2024-01-29T21:30:33Z</time>
      </trkpt>
      <trkpt lat="45.744" lon="5.80655">
        <ele>514.63</ele>
        <time>2024-01-29T21:30:40Z</time>
      </trkpt>
      <trkpt lat="45.74389" lon="5.80659">
        <ele>513.85</ele>
        <time>2024-01-29T21:30:43Z</time>
      </trkpt>
      <trkpt lat="45.74374" lon="5.80665">
        <ele>512.63</ele>
        <time>2024-01-29T21:30:46Z</time>
      </trkpt>
      <trkpt lat="45.74339" lon="5.80649">
        <ele>508.18</ele>
        <time>2024-01-29T21:30:53Z</time>
      </trkpt>
      <trkpt lat="45.74334" lon="5.80645">
        <ele>507.14</ele>
        <time>2024-01-29T21:30:55Z</time>
      </trkpt>
      <trkpt lat="45.74322" lon="5.80643">
        <ele>505.87</ele>
        <time>2024-01-29T21:30:57Z</time>
      </trkpt>
      <trkpt lat="45.74272" lon="5.80607">
        <ele>499.58</ele>
        <time>2024-01-29T21:31:09Z</time>
      </trkpt>
      <trkpt lat="45.74245" lon="5.80593">
        <ele>496.29</ele>
        <time>2024-01-29T21:31:14Z</time>
      </trkpt>
      <trkpt lat="45.74242" lon="5.80595">
        <ele>495.78</ele>
        <time>2024-01-29T21:31:15Z</time>
      </trkpt>
      <trkpt lat="45.74209" lon="5.80583">
        <ele>491.88</ele>
        <time>2024-01-29T21:31:22Z</time>
      </trkpt>
      <trkpt lat="45.74171" lon="5.80571">
        <ele>487.15</ele>
        <time>2024-01-29T21:31:30Z</time>
      </trkpt>
      <trkpt lat="45.7413" lon="5.80568">
        <ele>484.38</ele>
        <time>2024-01-29T21:31:38Z</time>
      </trkpt>
      <trkpt lat="45.7409" lon="5.80541">
        <ele>478.87</ele>
        <time>2024-01-29T21:31:47Z</time>
      </trkpt>
      <trkpt lat="45.74077" lon="5.80537">
        <ele>477.5</ele>
        <time>2024-01-29T21:31:49Z</time>
      </trkpt>
      <trkpt lat="45.74028" lon="5.80539">
        <ele>472.33</ele>
        <time>2024-01-29T21:32:00Z</time>
      </trkpt>
      <trkpt lat="45.74012" lon="5.80544">
        <ele>471</ele>
        <time>2024-01-29T21:32:03Z</time>
      </trkpt>
      <trkpt lat="45.73982" lon="5.80564">
        <ele>470.1</ele>
        <time>2024-01-29T21:32:10Z</time>
      </trkpt>
      <trkpt lat="45.73961" lon="5.80568">
        <ele>468.77</ele>
        <time>2024-01-29T21:32:15Z</time>
      </trkpt>
      <trkpt lat="45.7395" lon="5.80568">
        <ele>468.59</ele>
        <time>2024-01-29T21:32:18Z</time>
      </trkpt>
      <trkpt lat="45.73925" lon="5.80561">
        <ele>464.65</ele>
        <time>2024-01-29T21:32:24Z</time>
      </trkpt>
      <trkpt lat="45.73868" lon="5.80589">
        <ele>457.58</ele>
        <time>2024-01-29T21:32:38Z</time>
      </trkpt>
      <trkpt lat="45.73836" lon="5.80608">
        <ele>454.67</ele>
        <time>2024-01-29T21:32:46Z</time>
      </trkpt>
      <trkpt lat="45.73806" lon="5.80608">
        <ele>453.44</ele>
        <time>2024-01-29T21:32:53Z</time>
      </trkpt>
      <trkpt lat="45.73777" lon="5.80614">
        <ele>448.89</ele>
        <time>2024-01-29T21:33:00Z</time>
      </trkpt>
      <trkpt lat="45.73765" lon="5.80611">
        <ele>449.7</ele>
        <time>2024-01-29T21:33:03Z</time>
      </trkpt>
      <trkpt lat="45.73743" lon="5.8058">
        <ele>450.09</ele>
        <time>2024-01-29T21:33:10Z</time>
      </trkpt>
      <trkpt lat="45.73725" lon="5.80566">
        <ele>451.17</ele>
        <time>2024-01-29T21:33:15Z</time>
      </trkpt>
      <trkpt lat="45.7371" lon="5.8056">
        <ele>451.42</ele>
        <time>2024-01-29T21:33:18Z</time>
      </trkpt>
      <trkpt lat="45.73697" lon="5.80561">
        <ele>449.83</ele>
        <time>2024-01-29T21:33:21Z</time>
      </trkpt>
      <trkpt lat="45.73682" lon="5.80575">
        <ele>448.97</ele>
        <time>2024-01-29T21:33:25Z</time>
      </trkpt>
      <trkpt lat="45.73659" lon="5.80608">
        <ele>444.18</ele>
        <time>2024-01-29T21:33:32Z</time>
      </trkpt>
      <trkpt lat="45.7364" lon="5.80612">
        <ele>441.39</ele>
        <time>2024-01-29T21:33:36Z</time>
      </trkpt>
      <trkpt lat="45.73629" lon="5.80605">
        <ele>439.84</ele>
        <time>2024-01-29T21:33:39Z</time>
      </trkpt>
      <trkpt lat="45.73615" lon="5.80573">
        <ele>436.27</ele>
        <time>2024-01-29T21:33:45Z</time>
      </trkpt>
      <trkpt lat="45.73604" lon="5.80555">
        <ele>440.02</ele>
        <time>2024-01-29T21:33:48Z</time>
      </trkpt>
      <trkpt lat="45.73594" lon="5.80549">
        <ele>440.61</ele>
        <time>2024-01-29T21:33:51Z</time>
      </trkpt>
      <trkpt lat="45.7358" lon="5.80548">
        <ele>440.56</ele>
        <time>2024-01-29T21:33:54Z</time>
      </trkpt>
      <trkpt lat="45.73543" lon="5.80588">
        <ele>436.58</ele>
        <time>2024-01-29T21:34:03Z</time>
      </trkpt>
      <trkpt lat="45.73531" lon="5.80594">
        <ele>436.16</ele>
        <time>2024-01-29T21:34:06Z</time>
      </trkpt>
      <trkpt lat="45.73518" lon="5.80594">
        <ele>434.22</ele>
        <time>2024-01-29T21:34:09Z</time>
      </trkpt>
      <trkpt lat="45.7351" lon="5.80589">
        <ele>432.75</ele>
        <time>2024-01-29T21:34:10Z</time>
      </trkpt>
      <trkpt lat="45.73502" lon="5.80587">
        <ele>431.48</ele>
        <time>2024-01-29T21:34:12Z</time>
      </trkpt>
      <trkpt lat="45.73476" lon="5.80567">
        <ele>428.17</ele>
        <time>2024-01-29T21:34:18Z</time>
      </trkpt>
      <trkpt lat="45.7342" lon="5.80533">
        <ele>419.98</ele>
        <time>2024-01-29T21:34:30Z</time>
      </trkpt>
      <trkpt lat="45.73411" lon="5.80526">
        <ele>419.56</ele>
        <time>2024-01-29T21:34:31Z</time>
      </trkpt>
      <trkpt lat="45.73405" lon="5.80511">
        <ele>417.17</ele>
        <time>2024-01-29T21:34:33Z</time>
      </trkpt>
      <trkpt lat="45.73401" lon="5.80482">
        <ele>413.28</ele>
        <time>2024-01-29T21:34:35Z</time>
      </trkpt>
      <trkpt lat="45.73394" lon="5.80464">
        <ele>410.13</ele>
        <time>2024-01-29T21:34:37Z</time>
      </trkpt>
      <trkpt lat="45.73377" lon="5.80434">
        <ele>405.57</ele>
        <time>2024-01-29T21:34:40Z</time>
      </trkpt>
      <trkpt lat="45.73365" lon="5.80422">
        <ele>405.09</ele>
        <time>2024-01-29T21:34:41Z</time>
      </trkpt>
      <trkpt lat="45.73348" lon="5.80418">
        <ele>404.88</ele>
        <time>2024-01-29T21:34:43Z</time>
      </trkpt>
      <trkpt lat="45.73317" lon="5.80399">
        <ele>404.18</ele>
        <time>2024-01-29T21:34:47Z</time>
      </trkpt>
      <trkpt lat="45.73305" lon="5.80382">
        <ele>403.21</ele>
        <time>2024-01-29T21:34:49Z</time>
      </trkpt>
      <trkpt lat="45.73288" lon="5.80356">
        <ele>402.29</ele>
        <time>2024-01-29T21:34:52Z</time>
      </trkpt>
      <trkpt lat="45.73244" lon="5.80306">
        <ele>401.53</ele>
        <time>2024-01-29T21:34:59Z</time>
      </trkpt>
      <trkpt lat="45.73253" lon="5.8025">
        <ele>396.83</ele>
        <time>2024-01-29T21:35:05Z</time>
      </trkpt>
      <trkpt lat="45.73261" lon="5.80205">
        <ele>394.47</ele>
        <time>2024-01-29T21:35:10Z</time>
      </trkpt>
      <trkpt lat="45.73215" lon="5.8019">
        <ele>395.17</ele>
        <time>2024-01-29T21:35:18Z</time>
      </trkpt>
      <trkpt lat="45.73174" lon="5.80178">
        <ele>395.04</ele>
        <time>2024-01-29T21:35:27Z</time>
      </trkpt>
      <trkpt lat="45.73148" lon="5.8017">
        <ele>395.07</ele>
        <time>2024-01-29T21:35:34Z</time>
      </trkpt>
      <trkpt lat="45.73109" lon="5.80159">
        <ele>395.46</ele>
        <time>2024-01-29T21:35:48Z</time>
      </trkpt>
      <trkpt lat="45.73089" lon="5.80136">
        <ele>396.53</ele>
        <time>2024-01-29T21:36:00Z</time>
      </trkpt>
      <trkpt lat="45.73068" lon="5.80118">
        <ele>399.12</ele>
        <time>2024-01-29T21:36:11Z</time>
      </trkpt>
      <trkpt lat="45.73064" lon="5.80109">
        <ele>400.21</ele>
        <time>2024-01-29T21:36:14Z</time>
      </trkpt>
      <trkpt lat="45.73061" lon="5.80102">
        <ele>401.14</ele>
        <time>2024-01-29T21:36:17Z</time>
      </trkpt>
      <trkpt lat="45.73048" lon="5.80072">
        <ele>404.28</ele>
        <time>2024-01-29T21:36:29Z</time>
      </trkpt>
      <trkpt lat="45.73038" lon="5.80056">
        <ele>405.7</ele>
        <time>2024-01-29T21:36:36Z</time>
      </trkpt>
      <trkpt lat="45.73012" lon="5.80034">
        <ele>408.94</ele>
        <time>2024-01-29T21:36:51Z</time>
      </trkpt>
      <trkpt lat="45.73003" lon="5.80031">
        <ele>410.19</ele>
        <time>2024-01-29T21:36:55Z</time>
      </trkpt>
      <trkpt lat="45.72978" lon="5.8004">
        <ele>414.8</ele>
        <time>2024-01-29T21:37:09Z</time>
      </trkpt>
      <trkpt lat="45.72953" lon="5.80056">
        <ele>419.27</ele>
        <time>2024-01-29T21:37:22Z</time>
      </trkpt>
      <trkpt lat="45.72911" lon="5.80104">
        <ele>424.78</ele>
        <time>2024-01-29T21:37:47Z</time>
      </trkpt>
      <trkpt lat="45.72888" lon="5.80123">
        <ele>426.99</ele>
        <time>2024-01-29T21:38:00Z</time>
      </trkpt>
      <trkpt lat="45.72841" lon="5.80157">
        <ele>429.18</ele>
        <time>2024-01-29T21:38:31Z</time>
      </trkpt>
      <trkpt lat="45.72823" lon="5.80175">
        <ele>430.22</ele>
        <time>2024-01-29T21:38:45Z</time>
      </trkpt>
      <trkpt lat="45.72807" lon="5.80193">
        <ele>431.28</ele>
        <time>2024-01-29T21:38:58Z</time>
      </trkpt>
      <trkpt lat="45.72792" lon="5.80217">
        <ele>432.36</ele>
        <time>2024-01-29T21:39:13Z</time>
      </trkpt>
      <trkpt lat="45.72784" lon="5.80231">
        <ele>432.4</ele>
        <time>2024-01-29T21:39:21Z</time>
      </trkpt>
      <trkpt lat="45.72782" lon="5.80248">
        <ele>433.74</ele>
        <time>2024-01-29T21:39:30Z</time>
      </trkpt>
      <trkpt lat="45.72752" lon="5.80305">
        <ele>435.2</ele>
        <time>2024-01-29T21:40:01Z</time>
      </trkpt>
      <trkpt lat="45.72719" lon="5.80342">
        <ele>437.05</ele>
        <time>2024-01-29T21:40:24Z</time>
      </trkpt>
      <trkpt lat="45.72713" lon="5.80353">
        <ele>438.24</ele>
        <time>2024-01-29T21:40:29Z</time>
      </trkpt>
      <trkpt lat="45.72698" lon="5.80367">
        <ele>438.02</ele>
        <time>2024-01-29T21:40:39Z</time>
      </trkpt>
      <trkpt lat="45.72674" lon="5.80372">
        <ele>438.48</ele>
        <time>2024-01-29T21:40:51Z</time>
      </trkpt>
      <trkpt lat="45.72659" lon="5.8037">
        <ele>439.6</ele>
        <time>2024-01-29T21:40:58Z</time>
      </trkpt>
      <trkpt lat="45.72628" lon="5.80354">
        <ele>444.38</ele>
        <time>2024-01-29T21:41:14Z</time>
      </trkpt>
      <trkpt lat="45.72602" lon="5.80349">
        <ele>448.18</ele>
        <time>2024-01-29T21:41:26Z</time>
      </trkpt>
      <trkpt lat="45.72586" lon="5.80353">
        <ele>450.87</ele>
        <time>2024-01-29T21:41:33Z</time>
      </trkpt>
      <trkpt lat="45.72563" lon="5.80366">
        <ele>452.63</ele>
        <time>2024-01-29T21:41:42Z</time>
      </trkpt>
      <trkpt lat="45.72554" lon="5.80377">
        <ele>453.12</ele>
        <time>2024-01-29T21:41:46Z</time>
      </trkpt>
      <trkpt lat="45.72549" lon="5.80384">
        <ele>453.44</ele>
        <time>2024-01-29T21:41:48Z</time>
      </trkpt>
      <trkpt lat="45.72533" lon="5.80411">
        <ele>451.36</ele>
        <time>2024-01-29T21:41:55Z</time>
      </trkpt>
      <trkpt lat="45.72515" lon="5.80465">
        <ele>447.87</ele>
        <time>2024-01-29T21:42:07Z</time>
      </trkpt>
      <trkpt lat="45.72499" lon="5.80483">
        <ele>446.98</ele>
        <time>2024-01-29T21:42:12Z</time>
      </trkpt>
      <trkpt lat="45.72474" lon="5.80497">
        <ele>448.48</ele>
        <time>2024-01-29T21:42:21Z</time>
      </trkpt>
      <trkpt lat="45.72438" lon="5.8053">
        <ele>453.94</ele>
        <time>2024-01-29T21:42:35Z</time>
      </trkpt>
      <trkpt lat="45.72409" lon="5.80551">
        <ele>455.14</ele>
        <time>2024-01-29T21:42:46Z</time>
      </trkpt>
      <trkpt lat="45.72393" lon="5.80568">
        <ele>455.75</ele>
        <time>2024-01-29T21:42:53Z</time>
      </trkpt>
      <trkpt lat="45.72353" lon="5.80617">
        <ele>454.8</ele>
        <time>2024-01-29T21:43:09Z</time>
      </trkpt>
      <trkpt lat="45.72313" lon="5.80673">
        <ele>454.84</ele>
        <time>2024-01-29T21:43:25Z</time>
      </trkpt>
      <trkpt lat="45.72301" lon="5.80694">
        <ele>453.99</ele>
        <time>2024-01-29T21:43:30Z</time>
      </trkpt>
      <trkpt lat="45.7229" lon="5.80724">
        <ele>453.5</ele>
        <time>2024-01-29T21:43:36Z</time>
      </trkpt>
      <trkpt lat="45.72283" lon="5.80751">
        <ele>453.77</ele>
        <time>2024-01-29T21:43:41Z</time>
      </trkpt>
      <trkpt lat="45.72279" lon="5.80797">
        <ele>452.65</ele>
        <time>2024-01-29T21:43:48Z</time>
      </trkpt>
      <trkpt lat="45.72274" lon="5.8082">
        <ele>452.34</ele>
        <time>2024-01-29T21:43:52Z</time>
      </trkpt>
      <trkpt lat="45.72258" lon="5.80833">
        <ele>451.91</ele>
        <time>2024-01-29T21:43:57Z</time>
      </trkpt>
      <trkpt lat="45.72242" lon="5.80834">
        <ele>452.05</ele>
        <time>2024-01-29T21:44:00Z</time>
      </trkpt>
      <trkpt lat="45.72232" lon="5.80834">
        <ele>452.12</ele>
        <time>2024-01-29T21:44:01Z</time>
      </trkpt>
      <trkpt lat="45.7222" lon="5.80834">
        <ele>451.63</ele>
        <time>2024-01-29T21:44:03Z</time>
      </trkpt>
      <trkpt lat="45.72204" lon="5.80838">
        <ele>450.13</ele>
        <time>2024-01-29T21:44:05Z</time>
      </trkpt>
      <trkpt lat="45.72174" lon="5.80859">
        <ele>446.5</ele>
        <time>2024-01-29T21:44:09Z</time>
      </trkpt>
      <trkpt lat="45.72148" lon="5.80869">
        <ele>443.54</ele>
        <time>2024-01-29T21:44:12Z</time>
      </trkpt>
      <trkpt lat="45.72128" lon="5.80871">
        <ele>441.22</ele>
        <time>2024-01-29T21:44:15Z</time>
      </trkpt>
      <trkpt lat="45.72099" lon="5.80874">
        <ele>438.09</ele>
        <time>2024-01-29T21:44:18Z</time>
      </trkpt>
      <trkpt lat="45.72077" lon="5.80885">
        <ele>434.95</ele>
        <time>2024-01-29T21:44:21Z</time>
      </trkpt>
      <trkpt lat="45.72026" lon="5.8094">
        <ele>426.54</ele>
        <time>2024-01-29T21:44:28Z</time>
      </trkpt>
      <trkpt lat="45.7201" lon="5.80964">
        <ele>423.12</ele>
        <time>2024-01-29T21:44:31Z</time>
      </trkpt>
      <trkpt lat="45.72006" lon="5.8097">
        <ele>422.43</ele>
        <time>2024-01-29T21:44:32Z</time>
      </trkpt>
      <trkpt lat="45.71991" lon="5.80979">
        <ele>421.08</ele>
        <time>2024-01-29T21:44:34Z</time>
      </trkpt>
      <trkpt lat="45.71968" lon="5.80982">
        <ele>419.74</ele>
        <time>2024-01-29T21:44:37Z</time>
      </trkpt>
      <trkpt lat="45.7192" lon="5.80986">
        <ele>416.49</ele>
        <time>2024-01-29T21:44:43Z</time>
      </trkpt>
      <trkpt lat="45.71907" lon="5.81026">
        <ele>416.09</ele>
        <time>2024-01-29T21:44:47Z</time>
      </trkpt>
      <trkpt lat="45.71887" lon="5.81057">
        <ele>415.67</ele>
        <time>2024-01-29T21:44:51Z</time>
      </trkpt>
      <trkpt lat="45.71881" lon="5.81065">
        <ele>415.63</ele>
        <time>2024-01-29T21:44:52Z</time>
      </trkpt>
      <trkpt lat="45.71871" lon="5.81077">
        <ele>415.06</ele>
        <time>2024-01-29T21:44:54Z</time>
      </trkpt>
      <trkpt lat="45.7182" lon="5.81119">
        <ele>411.6</ele>
        <time>2024-01-29T21:45:02Z</time>
      </trkpt>
      <trkpt lat="45.71801" lon="5.81134">
        <ele>411.12</ele>
        <time>2024-01-29T21:45:05Z</time>
      </trkpt>
      <trkpt lat="45.71775" lon="5.8117">
        <ele>411.25</ele>
        <time>2024-01-29T21:45:09Z</time>
      </trkpt>
      <trkpt lat="45.71754" lon="5.81193">
        <ele>410.83</ele>
        <time>2024-01-29T21:45:13Z</time>
      </trkpt>
      <trkpt lat="45.71729" lon="5.81212">
        <ele>410.36</ele>
        <time>2024-01-29T21:45:17Z</time>
      </trkpt>
      <trkpt lat="45.71639" lon="5.8129">
        <ele>406.82</ele>
        <time>2024-01-29T21:45:30Z</time>
      </trkpt>
      <trkpt lat="45.71623" lon="5.81312">
        <ele>405.8</ele>
        <time>2024-01-29T21:45:32Z</time>
      </trkpt>
      <trkpt lat="45.71602" lon="5.81348">
        <ele>404.31</ele>
        <time>2024-01-29T21:45:37Z</time>
      </trkpt>
      <trkpt lat="45.71592" lon="5.81372">
        <ele>403.47</ele>
        <time>2024-01-29T21:45:39Z</time>
      </trkpt>
      <trkpt lat="45.71592" lon="5.81393">
        <ele>402.74</ele>
        <time>2024-01-29T21:45:41Z</time>
      </trkpt>
      <trkpt lat="45.71576" lon="5.81437">
        <ele>400.14</ele>
        <time>2024-01-29T21:45:49Z</time>
      </trkpt>
      <trkpt lat="45.71557" lon="5.81465">
        <ele>397.58</ele>
        <time>2024-01-29T21:45:55Z</time>
      </trkpt>
      <trkpt lat="45.71545" lon="5.81494">
        <ele>396.13</ele>
        <time>2024-01-29T21:46:01Z</time>
      </trkpt>
      <trkpt lat="45.71541" lon="5.81499">
        <ele>394.85</ele>
        <time>2024-01-29T21:46:02Z</time>
      </trkpt>
      <trkpt lat="45.71544" lon="5.81554">
        <ele>392.02</ele>
        <time>2024-01-29T21:46:12Z</time>
      </trkpt>
      <trkpt lat="45.71542" lon="5.81569">
        <ele>391.63</ele>
        <time>2024-01-29T21:46:15Z</time>
      </trkpt>
      <trkpt lat="45.7153" lon="5.81614">
        <ele>390.12</ele>
        <time>2024-01-29T21:46:23Z</time>
      </trkpt>
      <trkpt lat="45.71518" lon="5.81641">
        <ele>389.75</ele>
        <time>2024-01-29T21:46:29Z</time>
      </trkpt>
      <trkpt lat="45.71463" lon="5.81663">
        <ele>389.13</ele>
        <time>2024-01-29T21:46:38Z</time>
      </trkpt>
      <trkpt lat="45.71315" lon="5.81758">
        <ele>391.52</ele>
        <time>2024-01-29T21:47:00Z</time>
      </trkpt>
      <trkpt lat="45.71294" lon="5.81768">
        <ele>391.37</ele>
        <time>2024-01-29T21:47:02Z</time>
      </trkpt>
      <trkpt lat="45.71274" lon="5.81766">
        <ele>390.71</ele>
        <time>2024-01-29T21:47:05Z</time>
      </trkpt>
      <trkpt lat="45.71253" lon="5.8175">
        <ele>389.29</ele>
        <time>2024-01-29T21:47:08Z</time>
      </trkpt>
      <trkpt lat="45.71234" lon="5.81706">
        <ele>387.35</ele>
        <time>2024-01-29T21:47:12Z</time>
      </trkpt>
      <trkpt lat="45.71222" lon="5.81689">
        <ele>386.4</ele>
        <time>2024-01-29T21:47:14Z</time>
      </trkpt>
      <trkpt lat="45.71188" lon="5.81659">
        <ele>383.96</ele>
        <time>2024-01-29T21:47:18Z</time>
      </trkpt>
      <trkpt lat="45.71162" lon="5.8163">
        <ele>382.03</ele>
        <time>2024-01-29T21:47:22Z</time>
      </trkpt>
      <trkpt lat="45.71115" lon="5.81552">
        <ele>378.45</ele>
        <time>2024-01-29T21:47:31Z</time>
      </trkpt>
      <trkpt lat="45.711" lon="5.81521">
        <ele>377.16</ele>
        <time>2024-01-29T21:47:35Z</time>
      </trkpt>
      <trkpt lat="45.7107" lon="5.81415">
        <ele>373.08</ele>
        <time>2024-01-29T21:47:47Z</time>
      </trkpt>
      <trkpt lat="45.71063" lon="5.814">
        <ele>372.29</ele>
        <time>2024-01-29T21:47:50Z</time>
      </trkpt>
      <trkpt lat="45.71023" lon="5.81365">
        <ele>370.52</ele>
        <time>2024-01-29T21:48:02Z</time>
      </trkpt>
      <trkpt lat="45.70998" lon="5.81327">
        <ele>369.39</ele>
        <time>2024-01-29T21:48:12Z</time>
      </trkpt>
      <trkpt lat="45.70986" lon="5.81317">
        <ele>368.87</ele>
        <time>2024-01-29T21:48:16Z</time>
      </trkpt>
      <trkpt lat="45.70974" lon="5.81315">
        <ele>368.58</ele>
        <time>2024-01-29T21:48:20Z</time>
      </trkpt>
      <trkpt lat="45.70959" lon="5.81323">
        <ele>367.99</ele>
        <time>2024-01-29T21:48:24Z</time>
      </trkpt>
      <trkpt lat="45.70945" lon="5.81338">
        <ele>367.13</ele>
        <time>2024-01-29T21:48:29Z</time>
      </trkpt>
      <trkpt lat="45.709" lon="5.81343">
        <ele>364.74</ele>
        <time>2024-01-29T21:48:41Z</time>
      </trkpt>
      <trkpt lat="45.70874" lon="5.81372">
        <ele>363.21</ele>
        <time>2024-01-29T21:48:51Z</time>
      </trkpt>
      <trkpt lat="45.70837" lon="5.81423">
        <ele>360.02</ele>
        <time>2024-01-29T21:49:07Z</time>
      </trkpt>
      <trkpt lat="45.70784" lon="5.81468">
        <ele>356.87</ele>
        <time>2024-01-29T21:49:26Z</time>
      </trkpt>
      <trkpt lat="45.70726" lon="5.81481">
        <ele>354.36</ele>
        <time>2024-01-29T21:49:40Z</time>
      </trkpt>
      <trkpt lat="45.70673" lon="5.81566">
        <ele>349.35</ele>
        <time>2024-01-29T21:49:51Z</time>
      </trkpt>
      <trkpt lat="45.70657" lon="5.81584">
        <ele>348</ele>
        <time>2024-01-29T21:49:54Z</time>
      </trkpt>
      <trkpt lat="45.70641" lon="5.8163">
        <ele>346.04</ele>
        <time>2024-01-29T21:49:58Z</time>
      </trkpt>
      <trkpt lat="45.70618" lon="5.81685">
        <ele>342.07</ele>
        <time>2024-01-29T21:50:03Z</time>
      </trkpt>
      <trkpt lat="45.70595" lon="5.81724">
        <ele>341.33</ele>
        <time>2024-01-29T21:50:07Z</time>
      </trkpt>
      <trkpt lat="45.70559" lon="5.81772">
        <ele>338.55</ele>
        <time>2024-01-29T21:50:12Z</time>
      </trkpt>
      <trkpt lat="45.70548" lon="5.81796">
        <ele>337.42</ele>
        <time>2024-01-29T21:50:14Z</time>
      </trkpt>
      <trkpt lat="45.7054" lon="5.81808">
        <ele>336.93</ele>
        <time>2024-01-29T21:50:16Z</time>
      </trkpt>
      <trkpt lat="45.70525" lon="5.81815">
        <ele>336.09</ele>
        <time>2024-01-29T21:50:17Z</time>
      </trkpt>
      <trkpt lat="45.705" lon="5.81818">
        <ele>334.8</ele>
        <time>2024-01-29T21:50:20Z</time>
      </trkpt>
      <trkpt lat="45.70476" lon="5.81824">
        <ele>333.81</ele>
        <time>2024-01-29T21:50:23Z</time>
      </trkpt>
      <trkpt lat="45.70456" lon="5.81834">
        <ele>332.32</ele>
        <time>2024-01-29T21:50:25Z</time>
      </trkpt>
      <trkpt lat="45.7039" lon="5.81882">
        <ele>328.49</ele>
        <time>2024-01-29T21:50:34Z</time>
      </trkpt>
      <trkpt lat="45.7037" lon="5.81889">
        <ele>327.22</ele>
        <time>2024-01-29T21:50:37Z</time>
      </trkpt>
      <trkpt lat="45.70315" lon="5.81888">
        <ele>324.75</ele>
        <time>2024-01-29T21:50:45Z</time>
      </trkpt>
      <trkpt lat="45.7029" lon="5.81896">
        <ele>323.54</ele>
        <time>2024-01-29T21:50:48Z</time>
      </trkpt>
      <trkpt lat="45.70269" lon="5.81907">
        <ele>322.85</ele>
        <time>2024-01-29T21:50:51Z</time>
      </trkpt>
      <trkpt lat="45.70205" lon="5.81952">
        <ele>321.7</ele>
        <time>2024-01-29T21:51:01Z</time>
      </trkpt>
      <trkpt lat="45.70189" lon="5.81967">
        <ele>320.95</ele>
        <time>2024-01-29T21:51:03Z</time>
      </trkpt>
      <trkpt lat="45.70121" lon="5.82034">
        <ele>317.07</ele>
        <time>2024-01-29T21:51:14Z</time>
      </trkpt>
      <trkpt lat="45.70098" lon="5.82042">
        <ele>315.97</ele>
        <time>2024-01-29T21:51:17Z</time>
      </trkpt>
      <trkpt lat="45.70079" lon="5.82032">
        <ele>315.3</ele>
        <time>2024-01-29T21:51:20Z</time>
      </trkpt>
      <trkpt lat="45.70053" lon="5.81988">
        <ele>313.18</ele>
        <time>2024-01-29T21:51:25Z</time>
      </trkpt>
      <trkpt lat="45.70038" lon="5.81986">
        <ele>312.41</ele>
        <time>2024-01-29T21:51:27Z</time>
      </trkpt>
      <trkpt lat="45.70019" lon="5.81992">
        <ele>311.6</ele>
        <time>2024-01-29T21:51:30Z</time>
      </trkpt>
      <trkpt lat="45.69994" lon="5.82012">
        <ele>310.5</ele>
        <time>2024-01-29T21:51:34Z</time>
      </trkpt>
      <trkpt lat="45.6993" lon="5.82076">
        <ele>309.98</ele>
        <time>2024-01-29T21:51:46Z</time>
      </trkpt>
      <trkpt lat="45.69895" lon="5.82096">
        <ele>310.26</ele>
        <time>2024-01-29T21:51:51Z</time>
      </trkpt>
      <trkpt lat="45.69834" lon="5.82083">
        <ele>310.85</ele>
        <time>2024-01-29T21:52:00Z</time>
      </trkpt>
      <trkpt lat="45.69816" lon="5.82082">
        <ele>311.06</ele>
        <time>2024-01-29T21:52:03Z</time>
      </trkpt>
      <trkpt lat="45.69792" lon="5.82086">
        <ele>311.57</ele>
        <time>2024-01-29T21:52:06Z</time>
      </trkpt>
      <trkpt lat="45.69758" lon="5.82107">
        <ele>312.04</ele>
        <time>2024-01-29T21:52:12Z</time>
      </trkpt>
      <trkpt lat="45.69731" lon="5.82127">
        <ele>312.03</ele>
        <time>2024-01-29T21:52:17Z</time>
      </trkpt>
      <trkpt lat="45.69688" lon="5.82156">
        <ele>309.56</ele>
        <time>2024-01-29T21:52:26Z</time>
      </trkpt>
      <trkpt lat="45.69675" lon="5.82158">
        <ele>308.88</ele>
        <time>2024-01-29T21:52:28Z</time>
      </trkpt>
      <trkpt lat="45.69661" lon="5.82152">
        <ele>308.03</ele>
        <time>2024-01-29T21:52:31Z</time>
      </trkpt>
      <trkpt lat="45.69598" lon="5.82078">
        <ele>302.76</ele>
        <time>2024-01-29T21:52:46Z</time>
      </trkpt>
      <trkpt lat="45.69592" lon="5.8207">
        <ele>303.21</ele>
        <time>2024-01-29T21:52:47Z</time>
      </trkpt>
      <trkpt lat="45.69559" lon="5.8203">
        <ele>304.42</ele>
        <time>2024-01-29T21:52:56Z</time>
      </trkpt>
      <trkpt lat="45.69542" lon="5.81995">
        <ele>304.94</ele>
        <time>2024-01-29T21:53:02Z</time>
      </trkpt>
      <trkpt lat="45.69539" lon="5.81967">
        <ele>305.11</ele>
        <time>2024-01-29T21:53:06Z</time>
      </trkpt>
      <trkpt lat="45.69539" lon="5.81917">
        <ele>305.16</ele>
        <time>2024-01-29T21:53:13Z</time>
      </trkpt>
      <trkpt lat="45.69535" lon="5.8189">
        <ele>305.25</ele>
        <time>2024-01-29T21:53:17Z</time>
      </trkpt>
      <trkpt lat="45.69519" lon="5.81865">
        <ele>305.65</ele>
        <time>2024-01-29T21:53:22Z</time>
      </trkpt>
      <trkpt lat="45.69455" lon="5.81804">
        <ele>306.98</ele>
        <time>2024-01-29T21:53:37Z</time>
      </trkpt>
      <trkpt lat="45.69349" lon="5.81703">
        <ele>309.11</ele>
        <time>2024-01-29T21:54:09Z</time>
      </trkpt>
      <trkpt lat="45.69303" lon="5.81663">
        <ele>310.24</ele>
        <time>2024-01-29T21:54:24Z</time>
      </trkpt>
      <trkpt lat="45.69297" lon="5.81659">
        <ele>310.37</ele>
        <time>2024-01-29T21:54:25Z</time>
      </trkpt>
      <trkpt lat="45.69294" lon="5.81659">
        <ele>310.5</ele>
        <time>2024-01-29T21:54:26Z</time>
      </trkpt>
      <trkpt lat="45.69282" lon="5.81653">
        <ele>311.08</ele>
        <time>2024-01-29T21:54:29Z</time>
      </trkpt>
      <trkpt lat="45.69241" lon="5.81656">
        <ele>312.95</ele>
        <time>2024-01-29T21:54:41Z</time>
      </trkpt>
      <trkpt lat="45.69214" lon="5.81653">
        <ele>314.26</ele>
        <time>2024-01-29T21:54:49Z</time>
      </trkpt>
      <trkpt lat="45.69167" lon="5.81627">
        <ele>315.65</ele>
        <time>2024-01-29T21:55:03Z</time>
      </trkpt>
      <trkpt lat="45.6916" lon="5.81622">
        <ele>316.02</ele>
        <time>2024-01-29T21:55:05Z</time>
      </trkpt>
      <trkpt lat="45.69095" lon="5.81579">
        <ele>318.8</ele>
        <time>2024-01-29T21:55:22Z</time>
      </trkpt>
      <trkpt lat="45.69073" lon="5.81565">
        <ele>318.48</ele>
        <time>2024-01-29T21:55:28Z</time>
      </trkpt>
      <trkpt lat="45.69052" lon="5.81548">
        <ele>318.38</ele>
        <time>2024-01-29T21:55:33Z</time>
      </trkpt>
      <trkpt lat="45.6904" lon="5.81544">
        <ele>318.68</ele>
        <time>2024-01-29T21:55:36Z</time>
      </trkpt>
      <trkpt lat="45.69037" lon="5.81531">
        <ele>318.26</ele>
        <time>2024-01-29T21:55:38Z</time>
      </trkpt>
      <trkpt lat="45.69033" lon="5.81528">
        <ele>318.25</ele>
        <time>2024-01-29T21:55:39Z</time>
      </trkpt>
      <trkpt lat="45.69024" lon="5.8153">
        <ele>318.52</ele>
        <time>2024-01-29T21:55:41Z</time>
      </trkpt>
      <trkpt lat="45.69021" lon="5.81535">
        <ele>318.64</ele>
        <time>2024-01-29T21:55:42Z</time>
      </trkpt>
      <trkpt lat="45.6901" lon="5.81523">
        <ele>318.22</ele>
        <time>2024-01-29T21:55:45Z</time>
      </trkpt>
      <trkpt lat="45.68997" lon="5.81504">
        <ele>318.21</ele>
        <time>2024-01-29T21:55:49Z</time>
      </trkpt>
      <trkpt lat="45.68994" lon="5.815">
        <ele>318.25</ele>
        <time>2024-01-29T21:55:50Z</time>
      </trkpt>
      <trkpt lat="45.68942" lon="5.81443">
        <ele>319.16</ele>
        <time>2024-01-29T21:56:02Z</time>
      </trkpt>
      <trkpt lat="45.68944" lon="5.81415">
        <ele>318.54</ele>
        <time>2024-01-29T21:56:06Z</time>
      </trkpt>
      <trkpt lat="45.68958" lon="5.81347">
        <ele>318.53</ele>
        <time>2024-01-29T21:56:15Z</time>
      </trkpt>
      <trkpt lat="45.68966" lon="5.81316">
        <ele>318.75</ele>
        <time>2024-01-29T21:56:19Z</time>
      </trkpt>
      <trkpt lat="45.68974" lon="5.81257">
        <ele>319.98</ele>
        <time>2024-01-29T21:56:27Z</time>
      </trkpt>
      <trkpt lat="45.68975" lon="5.8125">
        <ele>320.1</ele>
        <time>2024-01-29T21:56:27Z</time>
      </trkpt>
      <trkpt lat="45.68983" lon="5.81209">
        <ele>320.91</ele>
        <time>2024-01-29T21:56:32Z</time>
      </trkpt>
      <trkpt lat="45.68991" lon="5.8119">
        <ele>320.26</ele>
        <time>2024-01-29T21:56:35Z</time>
      </trkpt>
      <trkpt lat="45.6903" lon="5.81112">
        <ele>319.99</ele>
        <time>2024-01-29T21:56:50Z</time>
      </trkpt>
      <trkpt lat="45.69062" lon="5.81047">
        <ele>322.14</ele>
        <time>2024-01-29T21:57:05Z</time>
      </trkpt>
      <trkpt lat="45.69063" lon="5.81038">
        <ele>322.64</ele>
        <time>2024-01-29T21:57:07Z</time>
      </trkpt>
      <trkpt lat="45.69058" lon="5.80964">
        <ele>328.78</ele>
        <time>2024-01-29T21:57:25Z</time>
      </trkpt>
      <trkpt lat="45.69046" lon="5.80917">
        <ele>333.76</ele>
        <time>2024-01-29T21:57:44Z</time>
      </trkpt>
      <trkpt lat="45.69037" lon="5.80902">
        <ele>335.53</ele>
        <time>2024-01-29T21:57:52Z</time>
      </trkpt>
      <trkpt lat="45.69032" lon="5.80882">
        <ele>337.3</ele>
        <time>2024-01-29T21:58:00Z</time>
      </trkpt>
      <trkpt lat="45.69033" lon="5.80876">
        <ele>338.08</ele>
        <time>2024-01-29T21:58:03Z</time>
      </trkpt>
      <trkpt lat="45.69035" lon="5.80864">
        <ele>338.34</ele>
        <time>2024-01-29T21:58:08Z</time>
      </trkpt>
      <trkpt lat="45.69053" lon="5.80818">
        <ele>340.12</ele>
        <time>2024-01-29T21:58:29Z</time>
      </trkpt>
      <trkpt lat="45.69091" lon="5.80762">
        <ele>341.89</ele>
        <time>2024-01-29T21:58:59Z</time>
      </trkpt>
      <trkpt lat="45.69098" lon="5.8074">
        <ele>341.06</ele>
        <time>2024-01-29T21:59:08Z</time>
      </trkpt>
      <trkpt lat="45.69101" lon="5.8068">
        <ele>339.59</ele>
        <time>2024-01-29T21:59:30Z</time>
      </trkpt>
      <trkpt lat="45.69082" lon="5.80475">
        <ele>337.24</ele>
        <time>2024-01-29T22:00:36Z</time>
      </trkpt>
      <trkpt lat="45.69073" lon="5.80409">
        <ele>337.32</ele>
        <time>2024-01-29T22:00:59Z</time>
      </trkpt>
      <trkpt lat="45.69059" lon="5.80423">
        <ele>339.66</ele>
        <time>2024-01-29T22:01:08Z</time>
      </trkpt>
      <trkpt lat="45.69046" lon="5.80426">
        <ele>342.3</ele>
        <time>2024-01-29T22:01:15Z</time>
      </trkpt>
      <trkpt lat="45.68992" lon="5.80396">
        <ele>351.76</ele>
        <time>2024-01-29T22:01:50Z</time>
      </trkpt>
      <trkpt lat="45.68943" lon="5.80381">
        <ele>356.45</ele>
        <time>2024-01-29T22:02:22Z</time>
      </trkpt>
      <trkpt lat="45.68913" lon="5.80368">
        <ele>360.27</ele>
        <time>2024-01-29T22:02:43Z</time>
      </trkpt>
      <trkpt lat="45.68884" lon="5.80349">
        <ele>364.39</ele>
        <time>2024-01-29T22:03:04Z</time>
      </trkpt>
      <trkpt lat="45.6886" lon="5.80338">
        <ele>367.5</ele>
        <time>2024-01-29T22:03:19Z</time>
      </trkpt>
      <trkpt lat="45.68858" lon="5.8033">
        <ele>367.75</ele>
        <time>2024-01-29T22:03:23Z</time>
      </trkpt>
      <trkpt lat="45.68815" lon="5.80314">
        <ele>370.51</ele>
        <time>2024-01-29T22:03:46Z</time>
      </trkpt>
      <trkpt lat="45.68775" lon="5.80306">
        <ele>374.04</ele>
        <time>2024-01-29T22:04:06Z</time>
      </trkpt>
      <trkpt lat="45.68749" lon="5.80307">
        <ele>375.21</ele>
        <time>2024-01-29T22:04:19Z</time>
      </trkpt>
      <trkpt lat="45.68696" lon="5.8032">
        <ele>376.36</ele>
        <time>2024-01-29T22:04:45Z</time>
      </trkpt>
      <trkpt lat="45.68632" lon="5.80351">
        <ele>379.71</ele>
        <time>2024-01-29T22:05:16Z</time>
      </trkpt>
      <trkpt lat="45.68614" lon="5.80352">
        <ele>381.99</ele>
        <time>2024-01-29T22:05:24Z</time>
      </trkpt>
      <trkpt lat="45.68608" lon="5.80347">
        <ele>383.4</ele>
        <time>2024-01-29T22:05:27Z</time>
      </trkpt>
      <trkpt lat="45.68589" lon="5.80292">
        <ele>386.98</ele>
        <time>2024-01-29T22:05:46Z</time>
      </trkpt>
      <trkpt lat="45.68584" lon="5.80287">
        <ele>387.61</ele>
        <time>2024-01-29T22:05:49Z</time>
      </trkpt>
      <trkpt lat="45.68576" lon="5.80286">
        <ele>388.43</ele>
        <time>2024-01-29T22:05:52Z</time>
      </trkpt>
      <trkpt lat="45.68562" lon="5.80311">
        <ele>391.21</ele>
        <time>2024-01-29T22:06:02Z</time>
      </trkpt>
      <trkpt lat="45.68527" lon="5.80246">
        <ele>395.32</ele>
        <time>2024-01-29T22:06:31Z</time>
      </trkpt>
      <trkpt lat="45.68481" lon="5.80188">
        <ele>397.33</ele>
        <time>2024-01-29T22:07:00Z</time>
      </trkpt>
      <trkpt lat="45.68448" lon="5.80134">
        <ele>398.53</ele>
        <time>2024-01-29T22:07:23Z</time>
      </trkpt>
      <trkpt lat="45.68417" lon="5.80082">
        <ele>399.61</ele>
        <time>2024-01-29T22:07:44Z</time>
      </trkpt>
      <trkpt lat="45.68388" lon="5.80014">
        <ele>401.69</ele>
        <time>2024-01-29T22:08:08Z</time>
      </trkpt>
      <trkpt lat="45.68359" lon="5.79964">
        <ele>405.15</ele>
        <time>2024-01-29T22:08:26Z</time>
      </trkpt>
      <trkpt lat="45.68303" lon="5.79917">
        <ele>407.5</ele>
        <time>2024-01-29T22:08:51Z</time>
      </trkpt>
      <trkpt lat="45.68246" lon="5.79849">
        <ele>405.75</ele>
        <time>2024-01-29T22:09:20Z</time>
      </trkpt>
      <trkpt lat="45.68217" lon="5.79798">
        <ele>404.33</ele>
        <time>2024-01-29T22:09:39Z</time>
      </trkpt>
      <trkpt lat="45.68213" lon="5.79791">
        <ele>404.44</ele>
        <time>2024-01-29T22:09:42Z</time>
      </trkpt>
      <trkpt lat="45.68182" lon="5.79762">
        <ele>403.69</ele>
        <time>2024-01-29T22:09:59Z</time>
      </trkpt>
      <trkpt lat="45.68164" lon="5.79738">
        <ele>404.78</ele>
        <time>2024-01-29T22:10:11Z</time>
      </trkpt>
      <trkpt lat="45.68147" lon="5.79706">
        <ele>406.67</ele>
        <time>2024-01-29T22:10:25Z</time>
      </trkpt>
      <trkpt lat="45.68118" lon="5.79665">
        <ele>407.62</ele>
        <time>2024-01-29T22:10:46Z</time>
      </trkpt>
      <trkpt lat="45.68104" lon="5.79654">
        <ele>407.39</ele>
        <time>2024-01-29T22:10:54Z</time>
      </trkpt>
      <trkpt lat="45.68058" lon="5.79632">
        <ele>406.31</ele>
        <time>2024-01-29T22:11:18Z</time>
      </trkpt>
      <trkpt lat="45.68012" lon="5.79615">
        <ele>408.84</ele>
        <time>2024-01-29T22:11:39Z</time>
      </trkpt>
      <trkpt lat="45.67993" lon="5.79605">
        <ele>411.16</ele>
        <time>2024-01-29T22:11:48Z</time>
      </trkpt>
      <trkpt lat="45.67971" lon="5.79579">
        <ele>413.65</ele>
        <time>2024-01-29T22:12:00Z</time>
      </trkpt>
      <trkpt lat="45.67912" lon="5.79462">
        <ele>414.12</ele>
        <time>2024-01-29T22:12:34Z</time>
      </trkpt>
      <trkpt lat="45.67876" lon="5.79393">
        <ele>413.15</ele>
        <time>2024-01-29T22:12:50Z</time>
      </trkpt>
      <trkpt lat="45.6784" lon="5.79316">
        <ele>417.04</ele>
        <time>2024-01-29T22:13:08Z</time>
      </trkpt>
      <trkpt lat="45.67836" lon="5.79305">
        <ele>417.29</ele>
        <time>2024-01-29T22:13:10Z</time>
      </trkpt>
      <trkpt lat="45.67829" lon="5.79297">
        <ele>417.37</ele>
        <time>2024-01-29T22:13:12Z</time>
      </trkpt>
      <trkpt lat="45.67814" lon="5.7921">
        <ele>414.74</ele>
        <time>2024-01-29T22:13:26Z</time>
      </trkpt>
      <trkpt lat="45.67814" lon="5.79193">
        <ele>414.58</ele>
        <time>2024-01-29T22:13:29Z</time>
      </trkpt>
      <trkpt lat="45.67812" lon="5.79158">
        <ele>416.33</ele>
        <time>2024-01-29T22:13:36Z</time>
      </trkpt>
      <trkpt lat="45.67804" lon="5.79121">
        <ele>420.17</ele>
        <time>2024-01-29T22:13:45Z</time>
      </trkpt>
      <trkpt lat="45.67795" lon="5.79103">
        <ele>421.59</ele>
        <time>2024-01-29T22:13:50Z</time>
      </trkpt>
      <trkpt lat="45.67749" lon="5.79038">
        <ele>426.04</ele>
        <time>2024-01-29T22:14:14Z</time>
      </trkpt>
      <trkpt lat="45.67685" lon="5.78944">
        <ele>432.46</ele>
        <time>2024-01-29T22:14:51Z</time>
      </trkpt>
      <trkpt lat="45.67657" lon="5.78897">
        <ele>434.81</ele>
        <time>2024-01-29T22:15:08Z</time>
      </trkpt>
      <trkpt lat="45.67645" lon="5.78859">
        <ele>435.38</ele>
        <time>2024-01-29T22:15:18Z</time>
      </trkpt>
      <trkpt lat="45.6763" lon="5.78779">
        <ele>434.08</ele>
        <time>2024-01-29T22:15:37Z</time>
      </trkpt>
      <trkpt lat="45.67623" lon="5.78737">
        <ele>433.57</ele>
        <time>2024-01-29T22:15:46Z</time>
      </trkpt>
      <trkpt lat="45.67623" lon="5.78717">
        <ele>433.16</ele>
        <time>2024-01-29T22:15:50Z</time>
      </trkpt>
      <trkpt lat="45.67623" lon="5.78701">
        <ele>432.88</ele>
        <time>2024-01-29T22:15:53Z</time>
      </trkpt>
      <trkpt lat="45.67613" lon="5.78669">
        <ele>432.58</ele>
        <time>2024-01-29T22:16:00Z</time>
      </trkpt>
      <trkpt lat="45.67591" lon="5.78621">
        <ele>434.02</ele>
        <time>2024-01-29T22:16:11Z</time>
      </trkpt>
      <trkpt lat="45.67562" lon="5.78566">
        <ele>434.82</ele>
        <time>2024-01-29T22:16:25Z</time>
      </trkpt>
      <trkpt lat="45.67533" lon="5.78527">
        <ele>436.33</ele>
        <time>2024-01-29T22:16:36Z</time>
      </trkpt>
      <trkpt lat="45.67498" lon="5.78456">
        <ele>438.43</ele>
        <time>2024-01-29T22:16:54Z</time>
      </trkpt>
      <trkpt lat="45.67447" lon="5.78342">
        <ele>443.38</ele>
        <time>2024-01-29T22:17:25Z</time>
      </trkpt>
      <trkpt lat="45.67443" lon="5.78324">
        <ele>443.78</ele>
        <time>2024-01-29T22:17:29Z</time>
      </trkpt>
      <trkpt lat="45.67404" lon="5.78298">
        <ele>446.69</ele>
        <time>2024-01-29T22:17:42Z</time>
      </trkpt>
      <trkpt lat="45.674" lon="5.78287">
        <ele>447.28</ele>
        <time>2024-01-29T22:17:45Z</time>
      </trkpt>
      <trkpt lat="45.67365" lon="5.78239">
        <ele>450.12</ele>
        <time>2024-01-29T22:17:59Z</time>
      </trkpt>
      <trkpt lat="45.67333" lon="5.78193">
        <ele>453.28</ele>
        <time>2024-01-29T22:18:12Z</time>
      </trkpt>
      <trkpt lat="45.67301" lon="5.78139">
        <ele>455.07</ele>
        <time>2024-01-29T22:18:31Z</time>
      </trkpt>
      <trkpt lat="45.67237" lon="5.78042">
        <ele>452.83</ele>
        <time>2024-01-29T22:19:02Z</time>
      </trkpt>
      <trkpt lat="45.67152" lon="5.77922">
        <ele>451.53</ele>
        <time>2024-01-29T22:19:37Z</time>
      </trkpt>
      <trkpt lat="45.6712" lon="5.77888">
        <ele>453.43</ele>
        <time>2024-01-29T22:19:47Z</time>
      </trkpt>
      <trkpt lat="45.67093" lon="5.77825">
        <ele>453.86</ele>
        <time>2024-01-29T22:20:01Z</time>
      </trkpt>
      <trkpt lat="45.67077" lon="5.77794">
        <ele>453.35</ele>
        <time>2024-01-29T22:20:08Z</time>
      </trkpt>
      <trkpt lat="45.67042" lon="5.77744">
        <ele>451.82</ele>
        <time>2024-01-29T22:20:20Z</time>
      </trkpt>
      <trkpt lat="45.67035" lon="5.77721">
        <ele>450.49</ele>
        <time>2024-01-29T22:20:25Z</time>
      </trkpt>
      <trkpt lat="45.67014" lon="5.77684">
        <ele>447.79</ele>
        <time>2024-01-29T22:20:35Z</time>
      </trkpt>
      <trkpt lat="45.66995" lon="5.77658">
        <ele>445.8</ele>
        <time>2024-01-29T22:20:44Z</time>
      </trkpt>
      <trkpt lat="45.66969" lon="5.77597">
        <ele>438.36</ele>
        <time>2024-01-29T22:21:03Z</time>
      </trkpt>
      <trkpt lat="45.66945" lon="5.77578">
        <ele>435.01</ele>
        <time>2024-01-29T22:21:15Z</time>
      </trkpt>
      <trkpt lat="45.66923" lon="5.7758">
        <ele>433.87</ele>
        <time>2024-01-29T22:21:23Z</time>
      </trkpt>
      <trkpt lat="45.66898" lon="5.77568">
        <ele>432.95</ele>
        <time>2024-01-29T22:21:32Z</time>
      </trkpt>
      <trkpt lat="45.66885" lon="5.77549">
        <ele>432.98</ele>
        <time>2024-01-29T22:21:39Z</time>
      </trkpt>
      <trkpt lat="45.66842" lon="5.77423">
        <ele>433.36</ele>
        <time>2024-01-29T22:22:10Z</time>
      </trkpt>
      <trkpt lat="45.66823" lon="5.77391">
        <ele>433.58</ele>
        <time>2024-01-29T22:22:16Z</time>
      </trkpt>
      <trkpt lat="45.66802" lon="5.77361">
        <ele>433.8</ele>
        <time>2024-01-29T22:22:20Z</time>
      </trkpt>
      <trkpt lat="45.6667" lon="5.77231">
        <ele>434.67</ele>
        <time>2024-01-29T22:22:40Z</time>
      </trkpt>
      <trkpt lat="45.66597" lon="5.77162">
        <ele>434.99</ele>
        <time>2024-01-29T22:22:53Z</time>
      </trkpt>
      <trkpt lat="45.66574" lon="5.77151">
        <ele>434.63</ele>
        <time>2024-01-29T22:22:57Z</time>
      </trkpt>
      <trkpt lat="45.66488" lon="5.77169">
        <ele>433.27</ele>
        <time>2024-01-29T22:23:12Z</time>
      </trkpt>
      <trkpt lat="45.66454" lon="5.7716">
        <ele>433</ele>
        <time>2024-01-29T22:23:18Z</time>
      </trkpt>
      <trkpt lat="45.66289" lon="5.77054">
        <ele>433.97</ele>
        <time>2024-01-29T22:23:43Z</time>
      </trkpt>
      <trkpt lat="45.66249" lon="5.77046">
        <ele>433.62</ele>
        <time>2024-01-29T22:23:49Z</time>
      </trkpt>
      <trkpt lat="45.66206" lon="5.77062">
        <ele>432.67</ele>
        <time>2024-01-29T22:23:55Z</time>
      </trkpt>
      <trkpt lat="45.66182" lon="5.77078">
        <ele>431.08</ele>
        <time>2024-01-29T22:23:59Z</time>
      </trkpt>
      <trkpt lat="45.66171" lon="5.77077">
        <ele>431.49</ele>
        <time>2024-01-29T22:24:00Z</time>
      </trkpt>
      <trkpt lat="45.66161" lon="5.77066">
        <ele>431.88</ele>
        <time>2024-01-29T22:24:03Z</time>
      </trkpt>
      <trkpt lat="45.66102" lon="5.76958">
        <ele>435.27</ele>
        <time>2024-01-29T22:24:21Z</time>
      </trkpt>
      <trkpt lat="45.66096" lon="5.76952">
        <ele>435.35</ele>
        <time>2024-01-29T22:24:23Z</time>
      </trkpt>
      <trkpt lat="45.66086" lon="5.7694">
        <ele>435.38</ele>
        <time>2024-01-29T22:24:25Z</time>
      </trkpt>
      <trkpt lat="45.66078" lon="5.76932">
        <ele>435.28</ele>
        <time>2024-01-29T22:24:27Z</time>
      </trkpt>
      <trkpt lat="45.66001" lon="5.76895">
        <ele>433.07</ele>
        <time>2024-01-29T22:24:41Z</time>
      </trkpt>
      <trkpt lat="45.65767" lon="5.76769">
        <ele>427.19</ele>
        <time>2024-01-29T22:25:18Z</time>
      </trkpt>
      <trkpt lat="45.65754" lon="5.76763">
        <ele>426.86</ele>
        <time>2024-01-29T22:25:20Z</time>
      </trkpt>
      <trkpt lat="45.65721" lon="5.76751">
        <ele>425.99</ele>
        <time>2024-01-29T22:25:24Z</time>
      </trkpt>
      <trkpt lat="45.65695" lon="5.76749">
        <ele>424.88</ele>
        <time>2024-01-29T22:25:27Z</time>
      </trkpt>
      <trkpt lat="45.65511" lon="5.76753">
        <ele>414.01</ele>
        <time>2024-01-29T22:25:51Z</time>
      </trkpt>
      <trkpt lat="45.65482" lon="5.76765">
        <ele>412.64</ele>
        <time>2024-01-29T22:25:55Z</time>
      </trkpt>
      <trkpt lat="45.65429" lon="5.76821">
        <ele>411.32</ele>
        <time>2024-01-29T22:26:03Z</time>
      </trkpt>
      <trkpt lat="45.65408" lon="5.76839">
        <ele>411.08</ele>
        <time>2024-01-29T22:26:06Z</time>
      </trkpt>
      <trkpt lat="45.65397" lon="5.76844">
        <ele>411.1</ele>
        <time>2024-01-29T22:26:08Z</time>
      </trkpt>
      <trkpt lat="45.65372" lon="5.7684">
        <ele>410.96</ele>
        <time>2024-01-29T22:26:11Z</time>
      </trkpt>
      <trkpt lat="45.65362" lon="5.76835">
        <ele>410.9</ele>
        <time>2024-01-29T22:26:12Z</time>
      </trkpt>
      <trkpt lat="45.65347" lon="5.76821">
        <ele>410.94</ele>
        <time>2024-01-29T22:26:15Z</time>
      </trkpt>
      <trkpt lat="45.65331" lon="5.76789">
        <ele>410.85</ele>
        <time>2024-01-29T22:26:19Z</time>
      </trkpt>
      <trkpt lat="45.65312" lon="5.76721">
        <ele>411.56</ele>
        <time>2024-01-29T22:26:27Z</time>
      </trkpt>
      <trkpt lat="45.653" lon="5.76696">
        <ele>412.17</ele>
        <time>2024-01-29T22:26:31Z</time>
      </trkpt>
      <trkpt lat="45.65292" lon="5.7669">
        <ele>412.24</ele>
        <time>2024-01-29T22:26:32Z</time>
      </trkpt>
      <trkpt lat="45.6528" lon="5.76687">
        <ele>412.35</ele>
        <time>2024-01-29T22:26:35Z</time>
      </trkpt>
      <trkpt lat="45.65172" lon="5.76672">
        <ele>412.08</ele>
        <time>2024-01-29T22:27:01Z</time>
      </trkpt>
      <trkpt lat="45.65155" lon="5.76663">
        <ele>411.58</ele>
        <time>2024-01-29T22:27:04Z</time>
      </trkpt>
      <trkpt lat="45.65063" lon="5.76663">
        <ele>404.87</ele>
        <time>2024-01-29T22:27:17Z</time>
      </trkpt>
      <trkpt lat="45.65046" lon="5.76658">
        <ele>403.57</ele>
        <time>2024-01-29T22:27:20Z</time>
      </trkpt>
      <trkpt lat="45.65029" lon="5.76646">
        <ele>402.38</ele>
        <time>2024-01-29T22:27:22Z</time>
      </trkpt>
      <trkpt lat="45.64987" lon="5.76585">
        <ele>398.65</ele>
        <time>2024-01-29T22:27:29Z</time>
      </trkpt>
      <trkpt lat="45.6491" lon="5.76536">
        <ele>390.82</ele>
        <time>2024-01-29T22:27:39Z</time>
      </trkpt>
      <trkpt lat="45.64888" lon="5.76537">
        <ele>388.22</ele>
        <time>2024-01-29T22:27:42Z</time>
      </trkpt>
      <trkpt lat="45.64826" lon="5.76552">
        <ele>382.29</ele>
        <time>2024-01-29T22:27:50Z</time>
      </trkpt>
      <trkpt lat="45.64802" lon="5.76555">
        <ele>380.05</ele>
        <time>2024-01-29T22:27:53Z</time>
      </trkpt>
      <trkpt lat="45.64671" lon="5.76535">
        <ele>369.57</ele>
        <time>2024-01-29T22:28:09Z</time>
      </trkpt>
      <trkpt lat="45.64643" lon="5.7654">
        <ele>368.18</ele>
        <time>2024-01-29T22:28:12Z</time>
      </trkpt>
      <trkpt lat="45.64636" lon="5.76534">
        <ele>367.69</ele>
        <time>2024-01-29T22:28:13Z</time>
      </trkpt>
      <trkpt lat="45.6462" lon="5.76504">
        <ele>365.7</ele>
        <time>2024-01-29T22:28:16Z</time>
      </trkpt>
      <trkpt lat="45.64614" lon="5.76483">
        <ele>368.37</ele>
        <time>2024-01-29T22:28:19Z</time>
      </trkpt>
      <trkpt lat="45.64616" lon="5.76468">
        <ele>369.13</ele>
        <time>2024-01-29T22:28:20Z</time>
      </trkpt>
      <trkpt lat="45.64623" lon="5.76457">
        <ele>369.86</ele>
        <time>2024-01-29T22:28:21Z</time>
      </trkpt>
      <trkpt lat="45.6464" lon="5.76446">
        <ele>371.34</ele>
        <time>2024-01-29T22:28:24Z</time>
      </trkpt>
      <trkpt lat="45.64645" lon="5.76432">
        <ele>371.66</ele>
        <time>2024-01-29T22:28:25Z</time>
      </trkpt>
      <trkpt lat="45.64552" lon="5.76479">
        <ele>376.54</ele>
        <time>2024-01-29T22:28:39Z</time>
      </trkpt>
      <trkpt lat="45.64515" lon="5.7649">
        <ele>379.48</ele>
        <time>2024-01-29T22:28:48Z</time>
      </trkpt>
      <trkpt lat="45.64463" lon="5.76497">
        <ele>379.56</ele>
        <time>2024-01-29T22:29:03Z</time>
      </trkpt>
      <trkpt lat="45.64442" lon="5.76507">
        <ele>379.15</ele>
        <time>2024-01-29T22:29:10Z</time>
      </trkpt>
      <trkpt lat="45.64359" lon="5.76578">
        <ele>376.45</ele>
        <time>2024-01-29T22:29:46Z</time>
      </trkpt>
      <trkpt lat="45.643" lon="5.76607">
        <ele>377.55</ele>
        <time>2024-01-29T22:30:10Z</time>
      </trkpt>
      <trkpt lat="45.6426" lon="5.76632">
        <ele>378.43</ele>
        <time>2024-01-29T22:30:26Z</time>
      </trkpt>
      <trkpt lat="45.64191" lon="5.7666">
        <ele>380.3</ele>
        <time>2024-01-29T22:30:50Z</time>
      </trkpt>
      <trkpt lat="45.64128" lon="5.76669">
        <ele>381.97</ele>
        <time>2024-01-29T22:31:07Z</time>
      </trkpt>
      <trkpt lat="45.6402" lon="5.76726">
        <ele>385.23</ele>
        <time>2024-01-29T22:31:40Z</time>
      </trkpt>
      <trkpt lat="45.63995" lon="5.76729">
        <ele>386.09</ele>
        <time>2024-01-29T22:31:49Z</time>
      </trkpt>
      <trkpt lat="45.63957" lon="5.76714">
        <ele>386.55</ele>
        <time>2024-01-29T22:32:04Z</time>
      </trkpt>
      <trkpt lat="45.63883" lon="5.76721">
        <ele>387.52</ele>
        <time>2024-01-29T22:32:33Z</time>
      </trkpt>
      <trkpt lat="45.63854" lon="5.76708">
        <ele>387.86</ele>
        <time>2024-01-29T22:32:45Z</time>
      </trkpt>
      <trkpt lat="45.63802" lon="5.76678">
        <ele>389.51</ele>
        <time>2024-01-29T22:33:07Z</time>
      </trkpt>
      <trkpt lat="45.638" lon="5.76687">
        <ele>389.32</ele>
        <time>2024-01-29T22:33:10Z</time>
      </trkpt>
      <trkpt lat="45.63795" lon="5.76705">
        <ele>388.21</ele>
        <time>2024-01-29T22:33:14Z</time>
      </trkpt>
      <trkpt lat="45.63789" lon="5.76711">
        <ele>389.79</ele>
        <time>2024-01-29T22:33:17Z</time>
      </trkpt>
      <trkpt lat="45.6376" lon="5.76709">
        <ele>391.61</ele>
        <time>2024-01-29T22:33:27Z</time>
      </trkpt>
      <trkpt lat="45.63731" lon="5.76716">
        <ele>394.03</ele>
        <time>2024-01-29T22:33:36Z</time>
      </trkpt>
      <trkpt lat="45.63701" lon="5.76731">
        <ele>396.27</ele>
        <time>2024-01-29T22:33:45Z</time>
      </trkpt>
      <trkpt lat="45.63693" lon="5.76723">
        <ele>395.88</ele>
        <time>2024-01-29T22:33:47Z</time>
      </trkpt>
      <trkpt lat="45.63677" lon="5.76707">
        <ele>396.55</ele>
        <time>2024-01-29T22:33:52Z</time>
      </trkpt>
      <trkpt lat="45.63613" lon="5.7664">
        <ele>399.79</ele>
        <time>2024-01-29T22:34:13Z</time>
      </trkpt>
      <trkpt lat="45.63587" lon="5.76622">
        <ele>401.29</ele>
        <time>2024-01-29T22:34:21Z</time>
      </trkpt>
      <trkpt lat="45.63544" lon="5.7661">
        <ele>403.57</ele>
        <time>2024-01-29T22:34:34Z</time>
      </trkpt>
      <trkpt lat="45.63527" lon="5.76602">
        <ele>404.67</ele>
        <time>2024-01-29T22:34:41Z</time>
      </trkpt>
      <trkpt lat="45.63473" lon="5.76555">
        <ele>407.83</ele>
        <time>2024-01-29T22:35:06Z</time>
      </trkpt>
      <trkpt lat="45.63456" lon="5.76552">
        <ele>408.7</ele>
        <time>2024-01-29T22:35:13Z</time>
      </trkpt>
      <trkpt lat="45.63441" lon="5.76561">
        <ele>409.65</ele>
        <time>2024-01-29T22:35:19Z</time>
      </trkpt>
      <trkpt lat="45.63407" lon="5.76599">
        <ele>411.9</ele>
        <time>2024-01-29T22:35:36Z</time>
      </trkpt>
      <trkpt lat="45.63318" lon="5.76642">
        <ele>416.78</ele>
        <time>2024-01-29T22:36:17Z</time>
      </trkpt>
      <trkpt lat="45.63291" lon="5.76643">
        <ele>418.37</ele>
        <time>2024-01-29T22:36:29Z</time>
      </trkpt>
      <trkpt lat="45.63248" lon="5.76653">
        <ele>420.46</ele>
        <time>2024-01-29T22:36:50Z</time>
      </trkpt>
      <trkpt lat="45.63096" lon="5.76743">
        <ele>428.81</ele>
        <time>2024-01-29T22:38:21Z</time>
      </trkpt>
      <trkpt lat="45.63082" lon="5.76756">
        <ele>429.69</ele>
        <time>2024-01-29T22:38:31Z</time>
      </trkpt>
      <trkpt lat="45.63034" lon="5.76857">
        <ele>434.54</ele>
        <time>2024-01-29T22:39:19Z</time>
      </trkpt>
      <trkpt lat="45.63013" lon="5.76879">
        <ele>436.01</ele>
        <time>2024-01-29T22:39:33Z</time>
      </trkpt>
      <trkpt lat="45.62968" lon="5.76895">
        <ele>438.33</ele>
        <time>2024-01-29T22:39:55Z</time>
      </trkpt>
      <trkpt lat="45.6286" lon="5.76908">
        <ele>444.18</ele>
        <time>2024-01-29T22:40:33Z</time>
      </trkpt>
      <trkpt lat="45.6282" lon="5.76907">
        <ele>446.32</ele>
        <time>2024-01-29T22:40:46Z</time>
      </trkpt>
      <trkpt lat="45.62766" lon="5.76878">
        <ele>449.64</ele>
        <time>2024-01-29T22:41:03Z</time>
      </trkpt>
      <trkpt lat="45.62748" lon="5.76872">
        <ele>450.75</ele>
        <time>2024-01-29T22:41:08Z</time>
      </trkpt>
      <trkpt lat="45.62735" lon="5.76873">
        <ele>451.33</ele>
        <time>2024-01-29T22:41:11Z</time>
      </trkpt>
      <trkpt lat="45.62722" lon="5.76879">
        <ele>452.18</ele>
        <time>2024-01-29T22:41:14Z</time>
      </trkpt>
      <trkpt lat="45.62707" lon="5.76897">
        <ele>453.39</ele>
        <time>2024-01-29T22:41:18Z</time>
      </trkpt>
      <trkpt lat="45.62689" lon="5.76925">
        <ele>454.82</ele>
        <time>2024-01-29T22:41:23Z</time>
      </trkpt>
      <trkpt lat="45.62677" lon="5.76935">
        <ele>455.62</ele>
        <time>2024-01-29T22:41:25Z</time>
      </trkpt>
      <trkpt lat="45.62668" lon="5.76934">
        <ele>456.18</ele>
        <time>2024-01-29T22:41:27Z</time>
      </trkpt>
      <trkpt lat="45.62655" lon="5.76917">
        <ele>456.87</ele>
        <time>2024-01-29T22:41:29Z</time>
      </trkpt>
      <trkpt lat="45.62656" lon="5.76888">
        <ele>457.74</ele>
        <time>2024-01-29T22:41:32Z</time>
      </trkpt>
      <trkpt lat="45.6267" lon="5.76822">
        <ele>459.9</ele>
        <time>2024-01-29T22:41:39Z</time>
      </trkpt>
      <trkpt lat="45.62688" lon="5.76797">
        <ele>461.51</ele>
        <time>2024-01-29T22:41:42Z</time>
      </trkpt>
      <trkpt lat="45.62726" lon="5.76764">
        <ele>463.89</ele>
        <time>2024-01-29T22:41:48Z</time>
      </trkpt>
      <trkpt lat="45.62752" lon="5.76725">
        <ele>465.94</ele>
        <time>2024-01-29T22:41:52Z</time>
      </trkpt>
      <trkpt lat="45.62777" lon="5.76708">
        <ele>467.87</ele>
        <time>2024-01-29T22:41:56Z</time>
      </trkpt>
      <trkpt lat="45.62797" lon="5.76708">
        <ele>468.84</ele>
        <time>2024-01-29T22:41:59Z</time>
      </trkpt>
      <trkpt lat="45.62836" lon="5.76723">
        <ele>471.15</ele>
        <time>2024-01-29T22:42:07Z</time>
      </trkpt>
      <trkpt lat="45.62849" lon="5.76716">
        <ele>471.65</ele>
        <time>2024-01-29T22:42:11Z</time>
      </trkpt>
      <trkpt lat="45.6286" lon="5.76707">
        <ele>472.53</ele>
        <time>2024-01-29T22:42:14Z</time>
      </trkpt>
      <trkpt lat="45.62873" lon="5.76688">
        <ele>473.61</ele>
        <time>2024-01-29T22:42:19Z</time>
      </trkpt>
      <trkpt lat="45.62877" lon="5.76661">
        <ele>474.63</ele>
        <time>2024-01-29T22:42:26Z</time>
      </trkpt>
      <trkpt lat="45.62872" lon="5.76645">
        <ele>475.13</ele>
        <time>2024-01-29T22:42:30Z</time>
      </trkpt>
      <trkpt lat="45.6286" lon="5.7663">
        <ele>476.18</ele>
        <time>2024-01-29T22:42:36Z</time>
      </trkpt>
      <trkpt lat="45.62834" lon="5.76609">
        <ele>477.73</ele>
        <time>2024-01-29T22:42:49Z</time>
      </trkpt>
      <trkpt lat="45.62818" lon="5.76605">
        <ele>478.44</ele>
        <time>2024-01-29T22:42:57Z</time>
      </trkpt>
      <trkpt lat="45.62803" lon="5.76606">
        <ele>479.16</ele>
        <time>2024-01-29T22:43:04Z</time>
      </trkpt>
      <trkpt lat="45.62791" lon="5.7661">
        <ele>479.85</ele>
        <time>2024-01-29T22:43:11Z</time>
      </trkpt>
      <trkpt lat="45.62567" lon="5.76755">
        <ele>485.92</ele>
        <time>2024-01-29T22:44:53Z</time>
      </trkpt>
      <trkpt lat="45.62562" lon="5.76873">
        <ele>493.77</ele>
        <time>2024-01-29T22:45:32Z</time>
      </trkpt>
      <trkpt lat="45.62558" lon="5.76887">
        <ele>494.56</ele>
        <time>2024-01-29T22:45:37Z</time>
      </trkpt>
      <trkpt lat="45.62547" lon="5.76897">
        <ele>495.99</ele>
        <time>2024-01-29T22:45:44Z</time>
      </trkpt>
      <trkpt lat="45.62521" lon="5.76892">
        <ele>498.69</ele>
        <time>2024-01-29T22:45:57Z</time>
      </trkpt>
      <trkpt lat="45.62512" lon="5.76895">
        <ele>499.86</ele>
        <time>2024-01-29T22:46:02Z</time>
      </trkpt>
      <trkpt lat="45.62493" lon="5.76909">
        <ele>503.59</ele>
        <time>2024-01-29T22:46:14Z</time>
      </trkpt>
      <trkpt lat="45.62469" lon="5.76941">
        <ele>508.27</ele>
        <time>2024-01-29T22:46:33Z</time>
      </trkpt>
      <trkpt lat="45.62445" lon="5.76988">
        <ele>514.48</ele>
        <time>2024-01-29T22:46:59Z</time>
      </trkpt>
      <trkpt lat="45.62422" lon="5.77017">
        <ele>515.12</ele>
        <time>2024-01-29T22:47:21Z</time>
      </trkpt>
      <trkpt lat="45.62366" lon="5.77069">
        <ele>524.51</ele>
        <time>2024-01-29T22:48:10Z</time>
      </trkpt>
      <trkpt lat="45.62322" lon="5.77132">
        <ele>528.46</ele>
        <time>2024-01-29T22:48:54Z</time>
      </trkpt>
      <trkpt lat="45.62246" lon="5.77144">
        <ele>532.83</ele>
        <time>2024-01-29T22:49:43Z</time>
      </trkpt>
      <trkpt lat="45.62206" lon="5.77154">
        <ele>533.73</ele>
        <time>2024-01-29T22:50:07Z</time>
      </trkpt>
      <trkpt lat="45.62162" lon="5.77177">
        <ele>533.89</ele>
        <time>2024-01-29T22:50:35Z</time>
      </trkpt>
      <trkpt lat="45.62142" lon="5.77193">
        <ele>533.49</ele>
        <time>2024-01-29T22:50:48Z</time>
      </trkpt>
      <trkpt lat="45.62124" lon="5.77225">
        <ele>534.08</ele>
        <time>2024-01-29T22:51:05Z</time>
      </trkpt>
      <trkpt lat="45.62107" lon="5.77271">
        <ele>535.54</ele>
        <time>2024-01-29T22:51:26Z</time>
      </trkpt>
      <trkpt lat="45.621" lon="5.77279">
        <ele>535.5</ele>
        <time>2024-01-29T22:51:32Z</time>
      </trkpt>
      <trkpt lat="45.62088" lon="5.77279">
        <ele>535.82</ele>
        <time>2024-01-29T22:51:38Z</time>
      </trkpt>
      <trkpt lat="45.62045" lon="5.77256">
        <ele>538.59</ele>
        <time>2024-01-29T22:52:06Z</time>
      </trkpt>
      <trkpt lat="45.62026" lon="5.77252">
        <ele>540.57</ele>
        <time>2024-01-29T22:52:18Z</time>
      </trkpt>
      <trkpt lat="45.62012" lon="5.77244">
        <ele>541.8</ele>
        <time>2024-01-29T22:52:28Z</time>
      </trkpt>
      <trkpt lat="45.62005" lon="5.77245">
        <ele>542.63</ele>
        <time>2024-01-29T22:52:32Z</time>
      </trkpt>
      <trkpt lat="45.62003" lon="5.7726">
        <ele>544.8</ele>
        <time>2024-01-29T22:52:40Z</time>
      </trkpt>
      <trkpt lat="45.62013" lon="5.7728">
        <ele>546.03</ele>
        <time>2024-01-29T22:52:52Z</time>
      </trkpt>
      <trkpt lat="45.62019" lon="5.77302">
        <ele>547.43</ele>
        <time>2024-01-29T22:53:03Z</time>
      </trkpt>
      <trkpt lat="45.6202" lon="5.77321">
        <ele>548.73</ele>
        <time>2024-01-29T22:53:12Z</time>
      </trkpt>
      <trkpt lat="45.62021" lon="5.7735">
        <ele>549.87</ele>
        <time>2024-01-29T22:53:27Z</time>
      </trkpt>
      <trkpt lat="45.62018" lon="5.77365">
        <ele>550.27</ele>
        <time>2024-01-29T22:53:35Z</time>
      </trkpt>
      <trkpt lat="45.62015" lon="5.77371">
        <ele>551.1</ele>
        <time>2024-01-29T22:53:38Z</time>
      </trkpt>
      <trkpt lat="45.62008" lon="5.77374">
        <ele>551.83</ele>
        <time>2024-01-29T22:53:44Z</time>
      </trkpt>
      <trkpt lat="45.62003" lon="5.77369">
        <ele>553.51</ele>
        <time>2024-01-29T22:53:48Z</time>
      </trkpt>
      <trkpt lat="45.61995" lon="5.77343">
        <ele>555.13</ele>
        <time>2024-01-29T22:54:03Z</time>
      </trkpt>
      <trkpt lat="45.61987" lon="5.7733">
        <ele>555.21</ele>
        <time>2024-01-29T22:54:11Z</time>
      </trkpt>
      <trkpt lat="45.6195" lon="5.77293">
        <ele>558.85</ele>
        <time>2024-01-29T22:54:45Z</time>
      </trkpt>
      <trkpt lat="45.61938" lon="5.77285">
        <ele>560.92</ele>
        <time>2024-01-29T22:54:56Z</time>
      </trkpt>
      <trkpt lat="45.61904" lon="5.77268">
        <ele>564.73</ele>
        <time>2024-01-29T22:55:25Z</time>
      </trkpt>
      <trkpt lat="45.61878" lon="5.77258">
        <ele>567.56</ele>
        <time>2024-01-29T22:55:48Z</time>
      </trkpt>
      <trkpt lat="45.61859" lon="5.77254">
        <ele>570.11</ele>
        <time>2024-01-29T22:56:06Z</time>
      </trkpt>
      <trkpt lat="45.61842" lon="5.77254">
        <ele>572.39</ele>
        <time>2024-01-29T22:56:21Z</time>
      </trkpt>
      <trkpt lat="45.61819" lon="5.77263">
        <ele>574.8</ele>
        <time>2024-01-29T22:56:43Z</time>
      </trkpt>
      <trkpt lat="45.61802" lon="5.77274">
        <ele>577.28</ele>
        <time>2024-01-29T22:57:00Z</time>
      </trkpt>
      <trkpt lat="45.61774" lon="5.7733">
        <ele>581.53</ele>
        <time>2024-01-29T22:57:41Z</time>
      </trkpt>
      <trkpt lat="45.61738" lon="5.77413">
        <ele>591.13</ele>
        <time>2024-01-29T22:58:33Z</time>
      </trkpt>
      <trkpt lat="45.61738" lon="5.77421">
        <ele>591.45</ele>
        <time>2024-01-29T22:58:37Z</time>
      </trkpt>
      <trkpt lat="45.61747" lon="5.77443">
        <ele>592.63</ele>
        <time>2024-01-29T22:58:49Z</time>
      </trkpt>
      <trkpt lat="45.6175" lon="5.77454">
        <ele>593.51</ele>
        <time>2024-01-29T22:58:53Z</time>
      </trkpt>
      <trkpt lat="45.61749" lon="5.77462">
        <ele>593.9</ele>
        <time>2024-01-29T22:58:56Z</time>
      </trkpt>
      <trkpt lat="45.61746" lon="5.77469">
        <ele>594.71</ele>
        <time>2024-01-29T22:59:00Z</time>
      </trkpt>
      <trkpt lat="45.61739" lon="5.77473">
        <ele>595.23</ele>
        <time>2024-01-29T22:59:03Z</time>
      </trkpt>
      <trkpt lat="45.61699" lon="5.77446">
        <ele>598.11</ele>
        <time>2024-01-29T22:59:24Z</time>
      </trkpt>
      <trkpt lat="45.61665" lon="5.77413">
        <ele>602.06</ele>
        <time>2024-01-29T22:59:42Z</time>
      </trkpt>
      <trkpt lat="45.61657" lon="5.77411">
        <ele>602.72</ele>
        <time>2024-01-29T22:59:45Z</time>
      </trkpt>
      <trkpt lat="45.61652" lon="5.77414">
        <ele>603.9</ele>
        <time>2024-01-29T22:59:47Z</time>
      </trkpt>
      <trkpt lat="45.61653" lon="5.7744">
        <ele>606.38</ele>
        <time>2024-01-29T22:59:53Z</time>
      </trkpt>
      <trkpt lat="45.61648" lon="5.77447">
        <ele>607.08</ele>
        <time>2024-01-29T22:59:56Z</time>
      </trkpt>
      <trkpt lat="45.61629" lon="5.77449">
        <ele>609.66</ele>
        <time>2024-01-29T23:00:02Z</time>
      </trkpt>
      <trkpt lat="45.61623" lon="5.77442">
        <ele>608.95</ele>
        <time>2024-01-29T23:00:04Z</time>
      </trkpt>
      <trkpt lat="45.61612" lon="5.77436">
        <ele>608.77</ele>
        <time>2024-01-29T23:00:08Z</time>
      </trkpt>
      <trkpt lat="45.61603" lon="5.77436">
        <ele>608.39</ele>
        <time>2024-01-29T23:00:10Z</time>
      </trkpt>
      <trkpt lat="45.61591" lon="5.7745">
        <ele>607.8</ele>
        <time>2024-01-29T23:00:14Z</time>
      </trkpt>
      <trkpt lat="45.61563" lon="5.77493">
        <ele>606.51</ele>
        <time>2024-01-29T23:00:24Z</time>
      </trkpt>
      <trkpt lat="45.61548" lon="5.77507">
        <ele>605.62</ele>
        <time>2024-01-29T23:00:28Z</time>
      </trkpt>
      <trkpt lat="45.6152" lon="5.77524">
        <ele>605.63</ele>
        <time>2024-01-29T23:00:35Z</time>
      </trkpt>
      <trkpt lat="45.61512" lon="5.77526">
        <ele>605.55</ele>
        <time>2024-01-29T23:00:36Z</time>
      </trkpt>
      <trkpt lat="45.61506" lon="5.7752">
        <ele>605.19</ele>
        <time>2024-01-29T23:00:38Z</time>
      </trkpt>
      <trkpt lat="45.61502" lon="5.77502">
        <ele>605.23</ele>
        <time>2024-01-29T23:00:41Z</time>
      </trkpt>
      <trkpt lat="45.61516" lon="5.77406">
        <ele>604.65</ele>
        <time>2024-01-29T23:00:57Z</time>
      </trkpt>
      <trkpt lat="45.61516" lon="5.77353">
        <ele>606.63</ele>
        <time>2024-01-29T23:01:04Z</time>
      </trkpt>
      <trkpt lat="45.61511" lon="5.77337">
        <ele>607.35</ele>
        <time>2024-01-29T23:01:07Z</time>
      </trkpt>
      <trkpt lat="45.61502" lon="5.77324">
        <ele>607.21</ele>
        <time>2024-01-29T23:01:09Z</time>
      </trkpt>
      <trkpt lat="45.61475" lon="5.77301">
        <ele>606.85</ele>
        <time>2024-01-29T23:01:15Z</time>
      </trkpt>
      <trkpt lat="45.61455" lon="5.77269">
        <ele>607.96</ele>
        <time>2024-01-29T23:01:23Z</time>
      </trkpt>
      <trkpt lat="45.61435" lon="5.7726">
        <ele>609.8</ele>
        <time>2024-01-29T23:01:29Z</time>
      </trkpt>
      <trkpt lat="45.61451" lon="5.77286">
        <ele>610.86</ele>
        <time>2024-01-29T23:01:38Z</time>
      </trkpt>
      <trkpt lat="45.61456" lon="5.77293">
        <ele>610.84</ele>
        <time>2024-01-29T23:01:41Z</time>
      </trkpt>
      <trkpt lat="45.61458" lon="5.77322">
        <ele>612.51</ele>
        <time>2024-01-29T23:01:49Z</time>
      </trkpt>
      <trkpt lat="45.61452" lon="5.77355">
        <ele>614.38</ele>
        <time>2024-01-29T23:02:00Z</time>
      </trkpt>
      <trkpt lat="45.61466" lon="5.77392">
        <ele>616.4</ele>
        <time>2024-01-29T23:02:15Z</time>
      </trkpt>
      <trkpt lat="45.61469" lon="5.77413">
        <ele>617.76</ele>
        <time>2024-01-29T23:02:22Z</time>
      </trkpt>
      <trkpt lat="45.61384" lon="5.77684">
        <ele>636.81</ele>
        <time>2024-01-29T23:04:21Z</time>
      </trkpt>
      <trkpt lat="45.61379" lon="5.77724">
        <ele>638.91</ele>
        <time>2024-01-29T23:04:37Z</time>
      </trkpt>
      <trkpt lat="45.61385" lon="5.77762">
        <ele>641.89</ele>
        <time>2024-01-29T23:04:52Z</time>
      </trkpt>
      <trkpt lat="45.61413" lon="5.77835">
        <ele>646.82</ele>
        <time>2024-01-29T23:05:23Z</time>
      </trkpt>
      <trkpt lat="45.6145" lon="5.77891">
        <ele>650.55</ele>
        <time>2024-01-29T23:05:47Z</time>
      </trkpt>
      <trkpt lat="45.61456" lon="5.77909">
        <ele>651.79</ele>
        <time>2024-01-29T23:05:53Z</time>
      </trkpt>
      <trkpt lat="45.61455" lon="5.77926">
        <ele>653.01</ele>
        <time>2024-01-29T23:05:57Z</time>
      </trkpt>
      <trkpt lat="45.61444" lon="5.77953">
        <ele>654.46</ele>
        <time>2024-01-29T23:06:05Z</time>
      </trkpt>
      <trkpt lat="45.61436" lon="5.77996">
        <ele>656.97</ele>
        <time>2024-01-29T23:06:15Z</time>
      </trkpt>
      <trkpt lat="45.61391" lon="5.7797">
        <ele>656.14</ele>
        <time>2024-01-29T23:06:29Z</time>
      </trkpt>
      <trkpt lat="45.61301" lon="5.7793">
        <ele>654.54</ele>
        <time>2024-01-29T23:06:49Z</time>
      </trkpt>
      <trkpt lat="45.61112" lon="5.77844">
        <ele>649.31</ele>
        <time>2024-01-29T23:07:17Z</time>
      </trkpt>
      <trkpt lat="45.61057" lon="5.77815">
        <ele>649.04</ele>
        <time>2024-01-29T23:07:25Z</time>
      </trkpt>
      <trkpt lat="45.61043" lon="5.77812">
        <ele>649.16</ele>
        <time>2024-01-29T23:07:27Z</time>
      </trkpt>
      <trkpt lat="45.6104" lon="5.77812">
        <ele>649.12</ele>
        <time>2024-01-29T23:07:27Z</time>
      </trkpt>
      <trkpt lat="45.60997" lon="5.77833">
        <ele>648.35</ele>
        <time>2024-01-29T23:07:33Z</time>
      </trkpt>
      <trkpt lat="45.60981" lon="5.77844">
        <ele>647.91</ele>
        <time>2024-01-29T23:07:36Z</time>
      </trkpt>
      <trkpt lat="45.60968" lon="5.77857">
        <ele>647.38</ele>
        <time>2024-01-29T23:07:38Z</time>
      </trkpt>
      <trkpt lat="45.60914" lon="5.78009">
        <ele>639.01</ele>
        <time>2024-01-29T23:07:54Z</time>
      </trkpt>
      <trkpt lat="45.60855" lon="5.78121">
        <ele>632.97</ele>
        <time>2024-01-29T23:08:07Z</time>
      </trkpt>
      <trkpt lat="45.60844" lon="5.78135">
        <ele>631.55</ele>
        <time>2024-01-29T23:08:09Z</time>
      </trkpt>
      <trkpt lat="45.60757" lon="5.78194">
        <ele>628.05</ele>
        <time>2024-01-29T23:08:21Z</time>
      </trkpt>
      <trkpt lat="45.60731" lon="5.78215">
        <ele>626.14</ele>
        <time>2024-01-29T23:08:24Z</time>
      </trkpt>
      <trkpt lat="45.60712" lon="5.78253">
        <ele>622.96</ele>
        <time>2024-01-29T23:08:28Z</time>
      </trkpt>
      <trkpt lat="45.60687" lon="5.78292">
        <ele>620.03</ele>
        <time>2024-01-29T23:08:32Z</time>
      </trkpt>
      <trkpt lat="45.60657" lon="5.78367">
        <ele>614.59</ele>
        <time>2024-01-29T23:08:39Z</time>
      </trkpt>
      <trkpt lat="45.60616" lon="5.7843">
        <ele>608.16</ele>
        <time>2024-01-29T23:08:45Z</time>
      </trkpt>
      <trkpt lat="45.60611" lon="5.78446">
        <ele>607.3</ele>
        <time>2024-01-29T23:08:47Z</time>
      </trkpt>
      <trkpt lat="45.60606" lon="5.78504">
        <ele>603.66</ele>
        <time>2024-01-29T23:08:51Z</time>
      </trkpt>
      <trkpt lat="45.60602" lon="5.78517">
        <ele>603.05</ele>
        <time>2024-01-29T23:08:52Z</time>
      </trkpt>
      <trkpt lat="45.60583" lon="5.78549">
        <ele>600.49</ele>
        <time>2024-01-29T23:08:56Z</time>
      </trkpt>
      <trkpt lat="45.60572" lon="5.78561">
        <ele>599.17</ele>
        <time>2024-01-29T23:08:57Z</time>
      </trkpt>
      <trkpt lat="45.60566" lon="5.78559">
        <ele>597.77</ele>
        <time>2024-01-29T23:08:58Z</time>
      </trkpt>
      <trkpt lat="45.60562" lon="5.78552">
        <ele>597.42</ele>
        <time>2024-01-29T23:08:59Z</time>
      </trkpt>
      <trkpt lat="45.60562" lon="5.78538">
        <ele>596.45</ele>
        <time>2024-01-29T23:09:00Z</time>
      </trkpt>
      <trkpt lat="45.6057" lon="5.78507">
        <ele>594.98</ele>
        <time>2024-01-29T23:09:03Z</time>
      </trkpt>
      <trkpt lat="45.60569" lon="5.78501">
        <ele>594.8</ele>
        <time>2024-01-29T23:09:03Z</time>
      </trkpt>
      <trkpt lat="45.60564" lon="5.78498">
        <ele>594.2</ele>
        <time>2024-01-29T23:09:04Z</time>
      </trkpt>
      <trkpt lat="45.60533" lon="5.78525">
        <ele>590.95</ele>
        <time>2024-01-29T23:09:08Z</time>
      </trkpt>
      <trkpt lat="45.60501" lon="5.78481">
        <ele>586.57</ele>
        <time>2024-01-29T23:09:13Z</time>
      </trkpt>
      <trkpt lat="45.60499" lon="5.78467">
        <ele>585.87</ele>
        <time>2024-01-29T23:09:15Z</time>
      </trkpt>
      <trkpt lat="45.60505" lon="5.78453">
        <ele>585.13</ele>
        <time>2024-01-29T23:09:16Z</time>
      </trkpt>
      <trkpt lat="45.60511" lon="5.78446">
        <ele>584.34</ele>
        <time>2024-01-29T23:09:17Z</time>
      </trkpt>
      <trkpt lat="45.60548" lon="5.78445">
        <ele>582.99</ele>
        <time>2024-01-29T23:09:21Z</time>
      </trkpt>
      <trkpt lat="45.60553" lon="5.7844">
        <ele>582.3</ele>
        <time>2024-01-29T23:09:22Z</time>
      </trkpt>
      <trkpt lat="45.60555" lon="5.78434">
        <ele>581.91</ele>
        <time>2024-01-29T23:09:23Z</time>
      </trkpt>
      <trkpt lat="45.60552" lon="5.78422">
        <ele>581.1</ele>
        <time>2024-01-29T23:09:24Z</time>
      </trkpt>
      <trkpt lat="45.60529" lon="5.7841">
        <ele>577.97</ele>
        <time>2024-01-29T23:09:27Z</time>
      </trkpt>
      <trkpt lat="45.60488" lon="5.78412">
        <ele>573.91</ele>
        <time>2024-01-29T23:09:32Z</time>
      </trkpt>
      <trkpt lat="45.60449" lon="5.78425">
        <ele>570.26</ele>
        <time>2024-01-29T23:09:37Z</time>
      </trkpt>
      <trkpt lat="45.60436" lon="5.78435">
        <ele>569.14</ele>
        <time>2024-01-29T23:09:38Z</time>
      </trkpt>
      <trkpt lat="45.60429" lon="5.78441">
        <ele>568.11</ele>
        <time>2024-01-29T23:09:39Z</time>
      </trkpt>
      <trkpt lat="45.60387" lon="5.78474">
        <ele>564.73</ele>
        <time>2024-01-29T23:09:45Z</time>
      </trkpt>
      <trkpt lat="45.60346" lon="5.78531">
        <ele>559.94</ele>
        <time>2024-01-29T23:09:53Z</time>
      </trkpt>
      <trkpt lat="45.60343" lon="5.78556">
        <ele>559.6</ele>
        <time>2024-01-29T23:09:55Z</time>
      </trkpt>
      <trkpt lat="45.60337" lon="5.78571">
        <ele>559.29</ele>
        <time>2024-01-29T23:09:57Z</time>
      </trkpt>
      <trkpt lat="45.60272" lon="5.78652">
        <ele>556.36</ele>
        <time>2024-01-29T23:10:08Z</time>
      </trkpt>
      <trkpt lat="45.60246" lon="5.78675">
        <ele>555.75</ele>
        <time>2024-01-29T23:10:12Z</time>
      </trkpt>
      <trkpt lat="45.60204" lon="5.78693">
        <ele>554.29</ele>
        <time>2024-01-29T23:10:18Z</time>
      </trkpt>
      <trkpt lat="45.60163" lon="5.78708">
        <ele>553.15</ele>
        <time>2024-01-29T23:10:23Z</time>
      </trkpt>
      <trkpt lat="45.60136" lon="5.78728">
        <ele>551.68</ele>
        <time>2024-01-29T23:10:27Z</time>
      </trkpt>
      <trkpt lat="45.60057" lon="5.78846">
        <ele>547.2</ele>
        <time>2024-01-29T23:10:41Z</time>
      </trkpt>
      <trkpt lat="45.60041" lon="5.78864">
        <ele>546.02</ele>
        <time>2024-01-29T23:10:43Z</time>
      </trkpt>
      <trkpt lat="45.60019" lon="5.78879">
        <ele>544.47</ele>
        <time>2024-01-29T23:10:46Z</time>
      </trkpt>
      <trkpt lat="45.60008" lon="5.78882">
        <ele>544.04</ele>
        <time>2024-01-29T23:10:47Z</time>
      </trkpt>
      <trkpt lat="45.59944" lon="5.78882">
        <ele>541.15</ele>
        <time>2024-01-29T23:10:55Z</time>
      </trkpt>
      <trkpt lat="45.59914" lon="5.78882">
        <ele>539.47</ele>
        <time>2024-01-29T23:10:58Z</time>
      </trkpt>
      <trkpt lat="45.59908" lon="5.78882">
        <ele>539.19</ele>
        <time>2024-01-29T23:10:59Z</time>
      </trkpt>
      <trkpt lat="45.59889" lon="5.78883">
        <ele>538.03</ele>
        <time>2024-01-29T23:11:01Z</time>
      </trkpt>
      <trkpt lat="45.59873" lon="5.78884">
        <ele>536.97</ele>
        <time>2024-01-29T23:11:03Z</time>
      </trkpt>
      <trkpt lat="45.59864" lon="5.7889">
        <ele>536.58</ele>
        <time>2024-01-29T23:11:04Z</time>
      </trkpt>
      <trkpt lat="45.59855" lon="5.78903">
        <ele>535.85</ele>
        <time>2024-01-29T23:11:06Z</time>
      </trkpt>
      <trkpt lat="45.59827" lon="5.78966">
        <ele>532.74</ele>
        <time>2024-01-29T23:11:12Z</time>
      </trkpt>
      <trkpt lat="45.59815" lon="5.79043">
        <ele>529.72</ele>
        <time>2024-01-29T23:11:19Z</time>
      </trkpt>
      <trkpt lat="45.59802" lon="5.79072">
        <ele>527.74</ele>
        <time>2024-01-29T23:11:22Z</time>
      </trkpt>
      <trkpt lat="45.59775" lon="5.79119">
        <ele>524.73</ele>
        <time>2024-01-29T23:11:28Z</time>
      </trkpt>
      <trkpt lat="45.59761" lon="5.79135">
        <ele>523.07</ele>
        <time>2024-01-29T23:11:30Z</time>
      </trkpt>
      <trkpt lat="45.59716" lon="5.79168">
        <ele>517.6</ele>
        <time>2024-01-29T23:11:37Z</time>
      </trkpt>
      <trkpt lat="45.59646" lon="5.79231">
        <ele>510.04</ele>
        <time>2024-01-29T23:11:47Z</time>
      </trkpt>
      <trkpt lat="45.5957" lon="5.79324">
        <ele>506.7</ele>
        <time>2024-01-29T23:11:59Z</time>
      </trkpt>
      <trkpt lat="45.59486" lon="5.79325">
        <ele>502.83</ele>
        <time>2024-01-29T23:12:09Z</time>
      </trkpt>
      <trkpt lat="45.59459" lon="5.79318">
        <ele>501.72</ele>
        <time>2024-01-29T23:12:13Z</time>
      </trkpt>
      <trkpt lat="45.59392" lon="5.79291">
        <ele>501.09</ele>
        <time>2024-01-29T23:12:22Z</time>
      </trkpt>
      <trkpt lat="45.59382" lon="5.79283">
        <ele>501.13</ele>
        <time>2024-01-29T23:12:23Z</time>
      </trkpt>
      <trkpt lat="45.5936" lon="5.79298">
        <ele>501.98</ele>
        <time>2024-01-29T23:12:26Z</time>
      </trkpt>
      <trkpt lat="45.59347" lon="5.79308">
        <ele>503.07</ele>
        <time>2024-01-29T23:12:28Z</time>
      </trkpt>
      <trkpt lat="45.59282" lon="5.7938">
        <ele>499.15</ele>
        <time>2024-01-29T23:12:38Z</time>
      </trkpt>
      <trkpt lat="45.59253" lon="5.79406">
        <ele>494.94</ele>
        <time>2024-01-29T23:12:42Z</time>
      </trkpt>
      <trkpt lat="45.59229" lon="5.79435">
        <ele>491.29</ele>
        <time>2024-01-29T23:12:46Z</time>
      </trkpt>
      <trkpt lat="45.59216" lon="5.79455">
        <ele>488.92</ele>
        <time>2024-01-29T23:12:48Z</time>
      </trkpt>
      <trkpt lat="45.5917" lon="5.79497">
        <ele>480.33</ele>
        <time>2024-01-29T23:12:54Z</time>
      </trkpt>
      <trkpt lat="45.59153" lon="5.79508">
        <ele>477.38</ele>
        <time>2024-01-29T23:12:56Z</time>
      </trkpt>
      <trkpt lat="45.59136" lon="5.79511">
        <ele>474.08</ele>
        <time>2024-01-29T23:12:58Z</time>
      </trkpt>
      <trkpt lat="45.59133" lon="5.79512">
        <ele>473.19</ele>
        <time>2024-01-29T23:12:59Z</time>
      </trkpt>
      <trkpt lat="45.59113" lon="5.79502">
        <ele>469.94</ele>
        <time>2024-01-29T23:13:01Z</time>
      </trkpt>
      <trkpt lat="45.59094" lon="5.79493">
        <ele>466.15</ele>
        <time>2024-01-29T23:13:03Z</time>
      </trkpt>
      <trkpt lat="45.59074" lon="5.79485">
        <ele>463.54</ele>
        <time>2024-01-29T23:13:06Z</time>
      </trkpt>
      <trkpt lat="45.59058" lon="5.79541">
        <ele>461.43</ele>
        <time>2024-01-29T23:13:10Z</time>
      </trkpt>
      <trkpt lat="45.59053" lon="5.7957">
        <ele>460.68</ele>
        <time>2024-01-29T23:13:13Z</time>
      </trkpt>
      <trkpt lat="45.59053" lon="5.79611">
        <ele>459.75</ele>
        <time>2024-01-29T23:13:16Z</time>
      </trkpt>
      <trkpt lat="45.59048" lon="5.79618">
        <ele>459.49</ele>
        <time>2024-01-29T23:13:17Z</time>
      </trkpt>
      <trkpt lat="45.59043" lon="5.79619">
        <ele>458.84</ele>
        <time>2024-01-29T23:13:18Z</time>
      </trkpt>
      <trkpt lat="45.59017" lon="5.79616">
        <ele>458.46</ele>
        <time>2024-01-29T23:13:21Z</time>
      </trkpt>
      <trkpt lat="45.58989" lon="5.79631">
        <ele>458.4</ele>
        <time>2024-01-29T23:13:25Z</time>
      </trkpt>
      <trkpt lat="45.58984" lon="5.79631">
        <ele>458.32</ele>
        <time>2024-01-29T23:13:26Z</time>
      </trkpt>
      <trkpt lat="45.58974" lon="5.79627">
        <ele>457.84</ele>
        <time>2024-01-29T23:13:27Z</time>
      </trkpt>
      <trkpt lat="45.58929" lon="5.79599">
        <ele>453.67</ele>
        <time>2024-01-29T23:13:33Z</time>
      </trkpt>
      <trkpt lat="45.58837" lon="5.79608">
        <ele>444.38</ele>
        <time>2024-01-29T23:13:45Z</time>
      </trkpt>
      <trkpt lat="45.58818" lon="5.79625">
        <ele>442.1</ele>
        <time>2024-01-29T23:13:47Z</time>
      </trkpt>
      <trkpt lat="45.58809" lon="5.79649">
        <ele>440.2</ele>
        <time>2024-01-29T23:13:50Z</time>
      </trkpt>
      <trkpt lat="45.58805" lon="5.79674">
        <ele>438.92</ele>
        <time>2024-01-29T23:13:52Z</time>
      </trkpt>
      <trkpt lat="45.58796" lon="5.79685">
        <ele>437.72</ele>
        <time>2024-01-29T23:13:53Z</time>
      </trkpt>
      <trkpt lat="45.58781" lon="5.79686">
        <ele>436.25</ele>
        <time>2024-01-29T23:13:55Z</time>
      </trkpt>
      <trkpt lat="45.58775" lon="5.79679">
        <ele>435.24</ele>
        <time>2024-01-29T23:13:56Z</time>
      </trkpt>
      <trkpt lat="45.58769" lon="5.7966">
        <ele>433.9</ele>
        <time>2024-01-29T23:13:58Z</time>
      </trkpt>
      <trkpt lat="45.58769" lon="5.7962">
        <ele>431.09</ele>
        <time>2024-01-29T23:14:01Z</time>
      </trkpt>
      <trkpt lat="45.58775" lon="5.79561">
        <ele>426.5</ele>
        <time>2024-01-29T23:14:06Z</time>
      </trkpt>
      <trkpt lat="45.58773" lon="5.79542">
        <ele>425.12</ele>
        <time>2024-01-29T23:14:07Z</time>
      </trkpt>
      <trkpt lat="45.58762" lon="5.79515">
        <ele>422.18</ele>
        <time>2024-01-29T23:14:10Z</time>
      </trkpt>
      <trkpt lat="45.58736" lon="5.79479">
        <ele>418.55</ele>
        <time>2024-01-29T23:14:14Z</time>
      </trkpt>
      <trkpt lat="45.58724" lon="5.79472">
        <ele>416.93</ele>
        <time>2024-01-29T23:14:15Z</time>
      </trkpt>
      <trkpt lat="45.58695" lon="5.79471">
        <ele>413.27</ele>
        <time>2024-01-29T23:14:18Z</time>
      </trkpt>
      <trkpt lat="45.58613" lon="5.79468">
        <ele>404.01</ele>
        <time>2024-01-29T23:14:27Z</time>
      </trkpt>
      <trkpt lat="45.58588" lon="5.79459">
        <ele>401.83</ele>
        <time>2024-01-29T23:14:30Z</time>
      </trkpt>
      <trkpt lat="45.5854" lon="5.79415">
        <ele>397.4</ele>
        <time>2024-01-29T23:14:37Z</time>
      </trkpt>
      <trkpt lat="45.58521" lon="5.79407">
        <ele>396.39</ele>
        <time>2024-01-29T23:14:39Z</time>
      </trkpt>
      <trkpt lat="45.58497" lon="5.79406">
        <ele>395.52</ele>
        <time>2024-01-29T23:14:42Z</time>
      </trkpt>
      <trkpt lat="45.58478" lon="5.79412">
        <ele>394.98</ele>
        <time>2024-01-29T23:14:45Z</time>
      </trkpt>
      <trkpt lat="45.5844" lon="5.79423">
        <ele>393.31</ele>
        <time>2024-01-29T23:14:50Z</time>
      </trkpt>
      <trkpt lat="45.58431" lon="5.79434">
        <ele>393.09</ele>
        <time>2024-01-29T23:14:52Z</time>
      </trkpt>
      <trkpt lat="45.58423" lon="5.79441">
        <ele>392.71</ele>
        <time>2024-01-29T23:14:53Z</time>
      </trkpt>
      <trkpt lat="45.58399" lon="5.79467">
        <ele>391.35</ele>
        <time>2024-01-29T23:14:57Z</time>
      </trkpt>
      <trkpt lat="45.58349" lon="5.79513">
        <ele>389.14</ele>
        <time>2024-01-29T23:15:05Z</time>
      </trkpt>
      <trkpt lat="45.58245" lon="5.79542">
        <ele>385.12</ele>
        <time>2024-01-29T23:15:20Z</time>
      </trkpt>
      <trkpt lat="45.58159" lon="5.79575">
        <ele>382.15</ele>
        <time>2024-01-29T23:15:32Z</time>
      </trkpt>
      <trkpt lat="45.58126" lon="5.79599">
        <ele>381.72</ele>
        <time>2024-01-29T23:15:38Z</time>
      </trkpt>
      <trkpt lat="45.58067" lon="5.79646">
        <ele>381.2</ele>
        <time>2024-01-29T23:15:47Z</time>
      </trkpt>
      <trkpt lat="45.58104" lon="5.79718">
        <ele>380.18</ele>
        <time>2024-01-29T23:15:56Z</time>
      </trkpt>
      <trkpt lat="45.58122" lon="5.79753">
        <ele>379.8</ele>
        <time>2024-01-29T23:16:01Z</time>
      </trkpt>
      <trkpt lat="45.58134" lon="5.79787">
        <ele>379.53</ele>
        <time>2024-01-29T23:16:05Z</time>
      </trkpt>
      <trkpt lat="45.58147" lon="5.7989">
        <ele>378.87</ele>
        <time>2024-01-29T23:16:16Z</time>
      </trkpt>
      <trkpt lat="45.5815" lon="5.79951">
        <ele>378.44</ele>
        <time>2024-01-29T23:16:25Z</time>
      </trkpt>
      <trkpt lat="45.58191" lon="5.80037">
        <ele>378.17</ele>
        <time>2024-01-29T23:16:47Z</time>
      </trkpt>
      <trkpt lat="45.5821" lon="5.80088">
        <ele>378.47</ele>
        <time>2024-01-29T23:16:59Z</time>
      </trkpt>
      <trkpt lat="45.58224" lon="5.80098">
        <ele>378.59</ele>
        <time>2024-01-29T23:17:04Z</time>
      </trkpt>
      <trkpt lat="45.58242" lon="5.80099">
        <ele>378.84</ele>
        <time>2024-01-29T23:17:10Z</time>
      </trkpt>
      <trkpt lat="45.58243" lon="5.80102">
        <ele>378.82</ele>
        <time>2024-01-29T23:17:11Z</time>
      </trkpt>
      <trkpt lat="45.58257" lon="5.80138">
        <ele>379.77</ele>
        <time>2024-01-29T23:17:19Z</time>
      </trkpt>
      <trkpt lat="45.58256" lon="5.80163">
        <ele>381.51</ele>
        <time>2024-01-29T23:17:24Z</time>
      </trkpt>
      <trkpt lat="45.58242" lon="5.80192">
        <ele>382.41</ele>
        <time>2024-01-29T23:17:31Z</time>
      </trkpt>
      <trkpt lat="45.58227" lon="5.8024">
        <ele>381.61</ele>
        <time>2024-01-29T23:17:42Z</time>
      </trkpt>
      <trkpt lat="45.58214" lon="5.80259">
        <ele>382.34</ele>
        <time>2024-01-29T23:17:47Z</time>
      </trkpt>
      <trkpt lat="45.5816" lon="5.80309">
        <ele>380.98</ele>
        <time>2024-01-29T23:18:05Z</time>
      </trkpt>
      <trkpt lat="45.58141" lon="5.80333">
        <ele>380.43</ele>
        <time>2024-01-29T23:18:12Z</time>
      </trkpt>
      <trkpt lat="45.58115" lon="5.80358">
        <ele>382.11</ele>
        <time>2024-01-29T23:18:18Z</time>
      </trkpt>
      <trkpt lat="45.58092" lon="5.80377">
        <ele>383.18</ele>
        <time>2024-01-29T23:18:22Z</time>
      </trkpt>
      <trkpt lat="45.58035" lon="5.8041">
        <ele>386.32</ele>
        <time>2024-01-29T23:18:33Z</time>
      </trkpt>
      <trkpt lat="45.58021" lon="5.80424">
        <ele>388.27</ele>
        <time>2024-01-29T23:18:37Z</time>
      </trkpt>
      <trkpt lat="45.58005" lon="5.80428">
        <ele>389.23</ele>
        <time>2024-01-29T23:18:42Z</time>
      </trkpt>
      <trkpt lat="45.57982" lon="5.80429">
        <ele>389.08</ele>
        <time>2024-01-29T23:18:49Z</time>
      </trkpt>
      <trkpt lat="45.57977" lon="5.8043">
        <ele>389.07</ele>
        <time>2024-01-29T23:18:50Z</time>
      </trkpt>
      <trkpt lat="45.57975" lon="5.8043">
        <ele>389.07</ele>
        <time>2024-01-29T23:18:51Z</time>
      </trkpt>
      <trkpt lat="45.57953" lon="5.80431">
        <ele>386.79</ele>
        <time>2024-01-29T23:18:58Z</time>
      </trkpt>
      <trkpt lat="45.57939" lon="5.8043">
        <ele>385.64</ele>
        <time>2024-01-29T23:19:02Z</time>
      </trkpt>
      <trkpt lat="45.57935" lon="5.80448">
        <ele>386.5</ele>
        <time>2024-01-29T23:19:05Z</time>
      </trkpt>
      <trkpt lat="45.57931" lon="5.80455">
        <ele>386.55</ele>
        <time>2024-01-29T23:19:07Z</time>
      </trkpt>
      <trkpt lat="45.57882" lon="5.8048">
        <ele>383.47</ele>
        <time>2024-01-29T23:19:18Z</time>
      </trkpt>
      <trkpt lat="45.57836" lon="5.80502">
        <ele>381.39</ele>
        <time>2024-01-29T23:19:27Z</time>
      </trkpt>
      <trkpt lat="45.57785" lon="5.80516">
        <ele>379.22</ele>
        <time>2024-01-29T23:19:39Z</time>
      </trkpt>
      <trkpt lat="45.5774" lon="5.80542">
        <ele>377.57</ele>
        <time>2024-01-29T23:19:46Z</time>
      </trkpt>
      <trkpt lat="45.5768" lon="5.80556">
        <ele>376</ele>
        <time>2024-01-29T23:19:53Z</time>
      </trkpt>
      <trkpt lat="45.57661" lon="5.80555">
        <ele>376.24</ele>
        <time>2024-01-29T23:19:56Z</time>
      </trkpt>
      <trkpt lat="45.57645" lon="5.80549">
        <ele>376.09</ele>
        <time>2024-01-29T23:19:58Z</time>
      </trkpt>
      <trkpt lat="45.57636" lon="5.80538">
        <ele>376.13</ele>
        <time>2024-01-29T23:19:59Z</time>
      </trkpt>
      <trkpt lat="45.5763" lon="5.80525">
        <ele>376.41</ele>
        <time>2024-01-29T23:20:01Z</time>
      </trkpt>
      <trkpt lat="45.57619" lon="5.80535">
        <ele>376.67</ele>
        <time>2024-01-29T23:20:02Z</time>
      </trkpt>
      <trkpt lat="45.57617" lon="5.80527">
        <ele>376.51</ele>
        <time>2024-01-29T23:20:06Z</time>
      </trkpt>
      <trkpt lat="45.57584" lon="5.80537">
        <ele>377.44</ele>
        <time>2024-01-29T23:20:11Z</time>
      </trkpt>
      <trkpt lat="45.57551" lon="5.80535">
        <ele>378.16</ele>
        <time>2024-01-29T23:20:16Z</time>
      </trkpt>
      <trkpt lat="45.5752" lon="5.80539">
        <ele>378.68</ele>
        <time>2024-01-29T23:20:20Z</time>
      </trkpt>
      <trkpt lat="45.57407" lon="5.80602">
        <ele>380.43</ele>
        <time>2024-01-29T23:20:42Z</time>
      </trkpt>
      <trkpt lat="45.5739" lon="5.80605">
        <ele>380.4</ele>
        <time>2024-01-29T23:20:47Z</time>
      </trkpt>
      <trkpt lat="45.57343" lon="5.80638">
        <ele>380.91</ele>
        <time>2024-01-29T23:21:06Z</time>
      </trkpt>
      <trkpt lat="45.57319" lon="5.80666">
        <ele>381.18</ele>
        <time>2024-01-29T23:21:20Z</time>
      </trkpt>
      <trkpt lat="45.57289" lon="5.80716">
        <ele>381.22</ele>
        <time>2024-01-29T23:21:42Z</time>
      </trkpt>
      <trkpt lat="45.57278" lon="5.8073">
        <ele>381.19</ele>
        <time>2024-01-29T23:21:48Z</time>
      </trkpt>
      <trkpt lat="45.57214" lon="5.80803">
        <ele>381.54</ele>
        <time>2024-01-29T23:22:22Z</time>
      </trkpt>
      <trkpt lat="45.5717" lon="5.80847">
        <ele>381.87</ele>
        <time>2024-01-29T23:22:40Z</time>
      </trkpt>
      <trkpt lat="45.57161" lon="5.80852">
        <ele>381.92</ele>
        <time>2024-01-29T23:22:42Z</time>
      </trkpt>
      <trkpt lat="45.57039" lon="5.8089">
        <ele>382.51</ele>
        <time>2024-01-29T23:23:02Z</time>
      </trkpt>
      <trkpt lat="45.57014" lon="5.80893">
        <ele>382.59</ele>
        <time>2024-01-29T23:23:06Z</time>
      </trkpt>
      <trkpt lat="45.56966" lon="5.80896">
        <ele>383.1</ele>
        <time>2024-01-29T23:23:12Z</time>
      </trkpt>
      <trkpt lat="45.56838" lon="5.80874">
        <ele>384.52</ele>
        <time>2024-01-29T23:23:30Z</time>
      </trkpt>
      <trkpt lat="45.56812" lon="5.80874">
        <ele>384.72</ele>
        <time>2024-01-29T23:23:35Z</time>
      </trkpt>
      <trkpt lat="45.56723" lon="5.809">
        <ele>385.52</ele>
        <time>2024-01-29T23:23:50Z</time>
      </trkpt>
      <trkpt lat="45.56658" lon="5.80932">
        <ele>386.09</ele>
        <time>2024-01-29T23:24:09Z</time>
      </trkpt>
      <trkpt lat="45.56605" lon="5.8097">
        <ele>385.81</ele>
        <time>2024-01-29T23:24:29Z</time>
      </trkpt>
      <trkpt lat="45.5653" lon="5.8103">
        <ele>387.06</ele>
        <time>2024-01-29T23:25:01Z</time>
      </trkpt>
      <trkpt lat="45.56495" lon="5.81051">
        <ele>387.61</ele>
        <time>2024-01-29T23:25:16Z</time>
      </trkpt>
      <trkpt lat="45.56425" lon="5.81122">
        <ele>388.52</ele>
        <time>2024-01-29T23:25:55Z</time>
      </trkpt>
      <trkpt lat="45.56409" lon="5.81126">
        <ele>388.75</ele>
        <time>2024-01-29T23:26:04Z</time>
      </trkpt>
      <trkpt lat="45.56373" lon="5.81128">
        <ele>389.43</ele>
        <time>2024-01-29T23:26:23Z</time>
      </trkpt>
      <trkpt lat="45.56351" lon="5.81136">
        <ele>389.75</ele>
        <time>2024-01-29T23:26:36Z</time>
      </trkpt>
      <trkpt lat="45.56331" lon="5.81146">
        <ele>390.08</ele>
        <time>2024-01-29T23:26:48Z</time>
      </trkpt>
      <trkpt lat="45.56283" lon="5.81187">
        <ele>390.94</ele>
        <time>2024-01-29T23:27:21Z</time>
      </trkpt>
      <trkpt lat="45.56267" lon="5.81195">
        <ele>391.16</ele>
        <time>2024-01-29T23:27:30Z</time>
      </trkpt>
      <trkpt lat="45.56255" lon="5.812">
        <ele>391.25</ele>
        <time>2024-01-29T23:27:38Z</time>
      </trkpt>
      <trkpt lat="45.5621" lon="5.81206">
        <ele>392.28</ele>
        <time>2024-01-29T23:28:03Z</time>
      </trkpt>
      <trkpt lat="45.56146" lon="5.81234">
        <ele>393.49</ele>
        <time>2024-01-29T23:28:31Z</time>
      </trkpt>
      <trkpt lat="45.56082" lon="5.81246">
        <ele>394.11</ele>
        <time>2024-01-29T23:28:45Z</time>
      </trkpt>
      <trkpt lat="45.56049" lon="5.81244">
        <ele>394.14</ele>
        <time>2024-01-29T23:28:51Z</time>
      </trkpt>
      <trkpt lat="45.56011" lon="5.81234">
        <ele>394.24</ele>
        <time>2024-01-29T23:28:56Z</time>
      </trkpt>
      <trkpt lat="45.55932" lon="5.81241">
        <ele>394.02</ele>
        <time>2024-01-29T23:29:07Z</time>
      </trkpt>
      <trkpt lat="45.55922" lon="5.8124">
        <ele>393.91</ele>
        <time>2024-01-29T23:29:08Z</time>
      </trkpt>
      <trkpt lat="45.55912" lon="5.81235">
        <ele>393.89</ele>
        <time>2024-01-29T23:29:09Z</time>
      </trkpt>
      <trkpt lat="45.55899" lon="5.81225">
        <ele>393.82</ele>
        <time>2024-01-29T23:29:12Z</time>
      </trkpt>
      <trkpt lat="45.55893" lon="5.81217">
        <ele>393.79</ele>
        <time>2024-01-29T23:29:13Z</time>
      </trkpt>
      <trkpt lat="45.55891" lon="5.81214">
        <ele>393.62</ele>
        <time>2024-01-29T23:29:13Z</time>
      </trkpt>
      <trkpt lat="45.55883" lon="5.81198">
        <ele>393.71</ele>
        <time>2024-01-29T23:29:15Z</time>
      </trkpt>
      <trkpt lat="45.55881" lon="5.81167">
        <ele>393.89</ele>
        <time>2024-01-29T23:29:18Z</time>
      </trkpt>
      <trkpt lat="45.55891" lon="5.81118">
        <ele>394.54</ele>
        <time>2024-01-29T23:29:24Z</time>
      </trkpt>
      <trkpt lat="45.55892" lon="5.81111">
        <ele>394.93</ele>
        <time>2024-01-29T23:29:25Z</time>
      </trkpt>
      <trkpt lat="45.55899" lon="5.8108">
        <ele>395.3</ele>
        <time>2024-01-29T23:29:29Z</time>
      </trkpt>
      <trkpt lat="45.55904" lon="5.8102">
        <ele>396.17</ele>
        <time>2024-01-29T23:29:36Z</time>
      </trkpt>
      <trkpt lat="45.55904" lon="5.80946">
        <ele>397.21</ele>
        <time>2024-01-29T23:29:45Z</time>
      </trkpt>
      <trkpt lat="45.55901" lon="5.80901">
        <ele>396.07</ele>
        <time>2024-01-29T23:29:50Z</time>
      </trkpt>
      <trkpt lat="45.55905" lon="5.80873">
        <ele>395.3</ele>
        <time>2024-01-29T23:29:53Z</time>
      </trkpt>
      <trkpt lat="45.55915" lon="5.80842">
        <ele>393.82</ele>
        <time>2024-01-29T23:29:57Z</time>
      </trkpt>
      <trkpt lat="45.55928" lon="5.8082">
        <ele>393.38</ele>
        <time>2024-01-29T23:30:00Z</time>
      </trkpt>
      <trkpt lat="45.55951" lon="5.80798">
        <ele>392.7</ele>
        <time>2024-01-29T23:30:04Z</time>
      </trkpt>
      <trkpt lat="45.56044" lon="5.80728">
        <ele>393.7</ele>
        <time>2024-01-29T23:30:20Z</time>
      </trkpt>
      <trkpt lat="45.56052" lon="5.80719">
        <ele>394.04</ele>
        <time>2024-01-29T23:30:22Z</time>
      </trkpt>
      <trkpt lat="45.56051" lon="5.8071">
        <ele>394</ele>
        <time>2024-01-29T23:30:23Z</time>
      </trkpt>
      <trkpt lat="45.56054" lon="5.80696">
        <ele>394.18</ele>
        <time>2024-01-29T23:30:25Z</time>
      </trkpt>
      <trkpt lat="45.56051" lon="5.80682">
        <ele>394.02</ele>
        <time>2024-01-29T23:30:27Z</time>
      </trkpt>
      <trkpt lat="45.56044" lon="5.80675">
        <ele>393.45</ele>
        <time>2024-01-29T23:30:29Z</time>
      </trkpt>
      <trkpt lat="45.5595" lon="5.8066">
        <ele>390.9</ele>
        <time>2024-01-29T23:30:52Z</time>
      </trkpt>
      <trkpt lat="45.55875" lon="5.80654">
        <ele>391.95</ele>
        <time>2024-01-29T23:31:11Z</time>
      </trkpt>
      <trkpt lat="45.55823" lon="5.80637">
        <ele>390.09</ele>
        <time>2024-01-29T23:31:20Z</time>
      </trkpt>
      <trkpt lat="45.55789" lon="5.80631">
        <ele>388.11</ele>
        <time>2024-01-29T23:31:25Z</time>
      </trkpt>
      <trkpt lat="45.55764" lon="5.80634">
        <ele>387.74</ele>
        <time>2024-01-29T23:31:29Z</time>
      </trkpt>
      <trkpt lat="45.55726" lon="5.80652">
        <ele>385.33</ele>
        <time>2024-01-29T23:31:35Z</time>
      </trkpt>
      <trkpt lat="45.55695" lon="5.80678">
        <ele>384.32</ele>
        <time>2024-01-29T23:31:41Z</time>
      </trkpt>
      <trkpt lat="45.55642" lon="5.8073">
        <ele>384.68</ele>
        <time>2024-01-29T23:31:54Z</time>
      </trkpt>
      <trkpt lat="45.55458" lon="5.80895">
        <ele>392.7</ele>
        <time>2024-01-29T23:33:09Z</time>
      </trkpt>
      <trkpt lat="45.55415" lon="5.80927">
        <ele>388.52</ele>
        <time>2024-01-29T23:33:20Z</time>
      </trkpt>
      <trkpt lat="45.55371" lon="5.80951">
        <ele>390.67</ele>
        <time>2024-01-29T23:33:28Z</time>
      </trkpt>
      <trkpt lat="45.55243" lon="5.80942">
        <ele>385.3</ele>
        <time>2024-01-29T23:33:45Z</time>
      </trkpt>
      <trkpt lat="45.55153" lon="5.80955">
        <ele>384.68</ele>
        <time>2024-01-29T23:33:56Z</time>
      </trkpt>
      <trkpt lat="45.55065" lon="5.80977">
        <ele>383.61</ele>
        <time>2024-01-29T23:34:08Z</time>
      </trkpt>
      <trkpt lat="45.55006" lon="5.80986">
        <ele>380.96</ele>
        <time>2024-01-29T23:34:17Z</time>
      </trkpt>
      <trkpt lat="45.54949" lon="5.81003">
        <ele>380.84</ele>
        <time>2024-01-29T23:34:28Z</time>
      </trkpt>
      <trkpt lat="45.54753" lon="5.81101">
        <ele>378.91</ele>
        <time>2024-01-29T23:35:12Z</time>
      </trkpt>
      <trkpt lat="45.54676" lon="5.81126">
        <ele>379.01</ele>
        <time>2024-01-29T23:35:25Z</time>
      </trkpt>
      <trkpt lat="45.54655" lon="5.81135">
        <ele>378.24</ele>
        <time>2024-01-29T23:35:28Z</time>
      </trkpt>
      <trkpt lat="45.54634" lon="5.81148">
        <ele>378.18</ele>
        <time>2024-01-29T23:35:32Z</time>
      </trkpt>
      <trkpt lat="45.54604" lon="5.81166">
        <ele>377.89</ele>
        <time>2024-01-29T23:35:36Z</time>
      </trkpt>
      <trkpt lat="45.54585" lon="5.81175">
        <ele>377.82</ele>
        <time>2024-01-29T23:35:39Z</time>
      </trkpt>
      <trkpt lat="45.54541" lon="5.81188">
        <ele>377.68</ele>
        <time>2024-01-29T23:35:45Z</time>
      </trkpt>
      <trkpt lat="45.5452" lon="5.81204">
        <ele>377.83</ele>
        <time>2024-01-29T23:35:48Z</time>
      </trkpt>
      <trkpt lat="45.54498" lon="5.81228">
        <ele>376.99</ele>
        <time>2024-01-29T23:35:52Z</time>
      </trkpt>
      <trkpt lat="45.54489" lon="5.81242">
        <ele>376.64</ele>
        <time>2024-01-29T23:35:54Z</time>
      </trkpt>
      <trkpt lat="45.54474" lon="5.81271">
        <ele>376.48</ele>
        <time>2024-01-29T23:35:58Z</time>
      </trkpt>
      <trkpt lat="45.54465" lon="5.81298">
        <ele>376.72</ele>
        <time>2024-01-29T23:36:02Z</time>
      </trkpt>
      <trkpt lat="45.54464" lon="5.81306">
        <ele>376.78</ele>
        <time>2024-01-29T23:36:03Z</time>
      </trkpt>
      <trkpt lat="45.54465" lon="5.81321">
        <ele>376.89</ele>
        <time>2024-01-29T23:36:06Z</time>
      </trkpt>
      <trkpt lat="45.54471" lon="5.81337">
        <ele>377.03</ele>
        <time>2024-01-29T23:36:09Z</time>
      </trkpt>
      <trkpt lat="45.54484" lon="5.81362">
        <ele>377.25</ele>
        <time>2024-01-29T23:36:15Z</time>
      </trkpt>
      <trkpt lat="45.54494" lon="5.81381">
        <ele>377.67</ele>
        <time>2024-01-29T23:36:20Z</time>
      </trkpt>
      <trkpt lat="45.54509" lon="5.81411">
        <ele>378.77</ele>
        <time>2024-01-29T23:36:28Z</time>
      </trkpt>
      <trkpt lat="45.54515" lon="5.81435">
        <ele>379.39</ele>
        <time>2024-01-29T23:36:34Z</time>
      </trkpt>
      <trkpt lat="45.54517" lon="5.81471">
        <ele>380.04</ele>
        <time>2024-01-29T23:36:42Z</time>
      </trkpt>
      <trkpt lat="45.54513" lon="5.81494">
        <ele>380.34</ele>
        <time>2024-01-29T23:36:47Z</time>
      </trkpt>
      <trkpt lat="45.54509" lon="5.81506">
        <ele>380.5</ele>
        <time>2024-01-29T23:36:50Z</time>
      </trkpt>
      <trkpt lat="45.54506" lon="5.81515">
        <ele>380.55</ele>
        <time>2024-01-29T23:36:53Z</time>
      </trkpt>
      <trkpt lat="45.54494" lon="5.81535">
        <ele>380.48</ele>
        <time>2024-01-29T23:36:58Z</time>
      </trkpt>
      <trkpt lat="45.54482" lon="5.81548">
        <ele>380.36</ele>
        <time>2024-01-29T23:37:03Z</time>
      </trkpt>
      <trkpt lat="45.54473" lon="5.81554">
        <ele>380.22</ele>
        <time>2024-01-29T23:37:06Z</time>
      </trkpt>
      <trkpt lat="45.54452" lon="5.81563">
        <ele>380.1</ele>
        <time>2024-01-29T23:37:12Z</time>
      </trkpt>
      <trkpt lat="45.54395" lon="5.81578">
        <ele>379.15</ele>
        <time>2024-01-29T23:37:28Z</time>
      </trkpt>
      <trkpt lat="45.5439" lon="5.81579">
        <ele>379.07</ele>
        <time>2024-01-29T23:37:30Z</time>
      </trkpt>
      <trkpt lat="45.54342" lon="5.81593">
        <ele>379.05</ele>
        <time>2024-01-29T23:37:40Z</time>
      </trkpt>
      <trkpt lat="45.54292" lon="5.81628">
        <ele>378.97</ele>
        <time>2024-01-29T23:37:49Z</time>
      </trkpt>
      <trkpt lat="45.54243" lon="5.8166">
        <ele>379.35</ele>
        <time>2024-01-29T23:37:57Z</time>
      </trkpt>
      <trkpt lat="45.54216" lon="5.81669">
        <ele>379.73</ele>
        <time>2024-01-29T23:38:01Z</time>
      </trkpt>
      <trkpt lat="45.54187" lon="5.81673">
        <ele>380.14</ele>
        <time>2024-01-29T23:38:06Z</time>
      </trkpt>
      <trkpt lat="45.54151" lon="5.81672">
        <ele>380.71</ele>
        <time>2024-01-29T23:38:12Z</time>
      </trkpt>
      <trkpt lat="45.54123" lon="5.81663">
        <ele>380.51</ele>
        <time>2024-01-29T23:38:16Z</time>
      </trkpt>
      <trkpt lat="45.54059" lon="5.81628">
        <ele>380.54</ele>
        <time>2024-01-29T23:38:26Z</time>
      </trkpt>
      <trkpt lat="45.54029" lon="5.81624">
        <ele>380.92</ele>
        <time>2024-01-29T23:38:30Z</time>
      </trkpt>
      <trkpt lat="45.54002" lon="5.81627">
        <ele>381.68</ele>
        <time>2024-01-29T23:38:33Z</time>
      </trkpt>
      <trkpt lat="45.53978" lon="5.81619">
        <ele>382.76</ele>
        <time>2024-01-29T23:38:37Z</time>
      </trkpt>
      <trkpt lat="45.53977" lon="5.81603">
        <ele>382.42</ele>
        <time>2024-01-29T23:38:38Z</time>
      </trkpt>
      <trkpt lat="45.53967" lon="5.81584">
        <ele>382.25</ele>
        <time>2024-01-29T23:38:41Z</time>
      </trkpt>
      <trkpt lat="45.5395" lon="5.8156">
        <ele>382.81</ele>
        <time>2024-01-29T23:38:45Z</time>
      </trkpt>
      <trkpt lat="45.53925" lon="5.81538">
        <ele>382.78</ele>
        <time>2024-01-29T23:38:50Z</time>
      </trkpt>
      <trkpt lat="45.53916" lon="5.81524">
        <ele>382.48</ele>
        <time>2024-01-29T23:38:53Z</time>
      </trkpt>
      <trkpt lat="45.53891" lon="5.81465">
        <ele>383.63</ele>
        <time>2024-01-29T23:39:05Z</time>
      </trkpt>
      <trkpt lat="45.53882" lon="5.81455">
        <ele>384.75</ele>
        <time>2024-01-29T23:39:07Z</time>
      </trkpt>
      <trkpt lat="45.53853" lon="5.81436">
        <ele>388.55</ele>
        <time>2024-01-29T23:39:16Z</time>
      </trkpt>
      <trkpt lat="45.5384" lon="5.81418">
        <ele>390.4</ele>
        <time>2024-01-29T23:39:22Z</time>
      </trkpt>
      <trkpt lat="45.53831" lon="5.81402">
        <ele>391.81</ele>
        <time>2024-01-29T23:39:27Z</time>
      </trkpt>
      <trkpt lat="45.5382" lon="5.81392">
        <ele>393.74</ele>
        <time>2024-01-29T23:39:31Z</time>
      </trkpt>
      <trkpt lat="45.53793" lon="5.81387">
        <ele>398.38</ele>
        <time>2024-01-29T23:39:40Z</time>
      </trkpt>
      <trkpt lat="45.53782" lon="5.81388">
        <ele>399.31</ele>
        <time>2024-01-29T23:39:45Z</time>
      </trkpt>
      <trkpt lat="45.5377" lon="5.81348">
        <ele>398.97</ele>
        <time>2024-01-29T23:39:55Z</time>
      </trkpt>
      <trkpt lat="45.53767" lon="5.81339">
        <ele>399.03</ele>
        <time>2024-01-29T23:39:58Z</time>
      </trkpt>
      <trkpt lat="45.53752" lon="5.81301">
        <ele>398.7</ele>
        <time>2024-01-29T23:40:09Z</time>
      </trkpt>
      <trkpt lat="45.53734" lon="5.81227">
        <ele>398.12</ele>
        <time>2024-01-29T23:40:27Z</time>
      </trkpt>
      <trkpt lat="45.53721" lon="5.81116">
        <ele>397.69</ele>
        <time>2024-01-29T23:40:41Z</time>
      </trkpt>
      <trkpt lat="45.53718" lon="5.81067">
        <ele>397.24</ele>
        <time>2024-01-29T23:40:46Z</time>
      </trkpt>
      <trkpt lat="45.53723" lon="5.81038">
        <ele>397.27</ele>
        <time>2024-01-29T23:40:49Z</time>
      </trkpt>
      <trkpt lat="45.5373" lon="5.81021">
        <ele>397.26</ele>
        <time>2024-01-29T23:40:51Z</time>
      </trkpt>
      <trkpt lat="45.53739" lon="5.81005">
        <ele>397</ele>
        <time>2024-01-29T23:40:53Z</time>
      </trkpt>
      <trkpt lat="45.53745" lon="5.80998">
        <ele>396.97</ele>
        <time>2024-01-29T23:40:54Z</time>
      </trkpt>
      <trkpt lat="45.53758" lon="5.80992">
        <ele>396.97</ele>
        <time>2024-01-29T23:40:56Z</time>
      </trkpt>
      <trkpt lat="45.53804" lon="5.80979">
        <ele>396.55</ele>
        <time>2024-01-29T23:41:03Z</time>
      </trkpt>
      <trkpt lat="45.53821" lon="5.80964">
        <ele>396.41</ele>
        <time>2024-01-29T23:41:06Z</time>
      </trkpt>
      <trkpt lat="45.53836" lon="5.80936">
        <ele>395.85</ele>
        <time>2024-01-29T23:41:09Z</time>
      </trkpt>
      <trkpt lat="45.53872" lon="5.8084">
        <ele>393.64</ele>
        <time>2024-01-29T23:41:21Z</time>
      </trkpt>
      <trkpt lat="45.53883" lon="5.80801">
        <ele>392.48</ele>
        <time>2024-01-29T23:41:26Z</time>
      </trkpt>
      <trkpt lat="45.53883" lon="5.80702">
        <ele>389.8</ele>
        <time>2024-01-29T23:41:38Z</time>
      </trkpt>
      <trkpt lat="45.53885" lon="5.80681">
        <ele>388.64</ele>
        <time>2024-01-29T23:41:40Z</time>
      </trkpt>
      <trkpt lat="45.5389" lon="5.80662">
        <ele>388.29</ele>
        <time>2024-01-29T23:41:42Z</time>
      </trkpt>
      <trkpt lat="45.53897" lon="5.8065">
        <ele>388.18</ele>
        <time>2024-01-29T23:41:44Z</time>
      </trkpt>
      <trkpt lat="45.53906" lon="5.80641">
        <ele>387.5</ele>
        <time>2024-01-29T23:41:46Z</time>
      </trkpt>
      <trkpt lat="45.53911" lon="5.80637">
        <ele>387.39</ele>
        <time>2024-01-29T23:41:47Z</time>
      </trkpt>
      <trkpt lat="45.53976" lon="5.80621">
        <ele>384.87</ele>
        <time>2024-01-29T23:41:56Z</time>
      </trkpt>
      <trkpt lat="45.5403" lon="5.80615">
        <ele>382.85</ele>
        <time>2024-01-29T23:42:03Z</time>
      </trkpt>
      <trkpt lat="45.54054" lon="5.80603">
        <ele>381.98</ele>
        <time>2024-01-29T23:42:06Z</time>
      </trkpt>
      <trkpt lat="45.54069" lon="5.80586">
        <ele>381.1</ele>
        <time>2024-01-29T23:42:09Z</time>
      </trkpt>
      <trkpt lat="45.5411" lon="5.80506">
        <ele>379.24</ele>
        <time>2024-01-29T23:42:19Z</time>
      </trkpt>
      <trkpt lat="45.54125" lon="5.80484">
        <ele>379.1</ele>
        <time>2024-01-29T23:42:23Z</time>
      </trkpt>
      <trkpt lat="45.54129" lon="5.8047">
        <ele>379.04</ele>
        <time>2024-01-29T23:42:26Z</time>
      </trkpt>
      <trkpt lat="45.5413" lon="5.80454">
        <ele>378.83</ele>
        <time>2024-01-29T23:42:29Z</time>
      </trkpt>
      <trkpt lat="45.54124" lon="5.80433">
        <ele>378.73</ele>
        <time>2024-01-29T23:42:33Z</time>
      </trkpt>
      <trkpt lat="45.53978" lon="5.80227">
        <ele>380.54</ele>
        <time>2024-01-29T23:43:43Z</time>
      </trkpt>
      <trkpt lat="45.53944" lon="5.80188">
        <ele>380.8</ele>
        <time>2024-01-29T23:43:55Z</time>
      </trkpt>
      <trkpt lat="45.53886" lon="5.80136">
        <ele>381.51</ele>
        <time>2024-01-29T23:44:07Z</time>
      </trkpt>
      <trkpt lat="45.53866" lon="5.8011">
        <ele>381.77</ele>
        <time>2024-01-29T23:44:11Z</time>
      </trkpt>
      <trkpt lat="45.53857" lon="5.80095">
        <ele>381.92</ele>
        <time>2024-01-29T23:44:13Z</time>
      </trkpt>
      <trkpt lat="45.53793" lon="5.79949">
        <ele>382.62</ele>
        <time>2024-01-29T23:44:30Z</time>
      </trkpt>
      <trkpt lat="45.53771" lon="5.79897">
        <ele>382.73</ele>
        <time>2024-01-29T23:44:35Z</time>
      </trkpt>
      <trkpt lat="45.53767" lon="5.79884">
        <ele>382.71</ele>
        <time>2024-01-29T23:44:37Z</time>
      </trkpt>
      <trkpt lat="45.53763" lon="5.79866">
        <ele>382.76</ele>
        <time>2024-01-29T23:44:39Z</time>
      </trkpt>
      <trkpt lat="45.53761" lon="5.79827">
        <ele>382.73</ele>
        <time>2024-01-29T23:44:43Z</time>
      </trkpt>
      <trkpt lat="45.53762" lon="5.79752">
        <ele>382.57</ele>
        <time>2024-01-29T23:44:51Z</time>
      </trkpt>
      <trkpt lat="45.53764" lon="5.79641">
        <ele>382.3</ele>
        <time>2024-01-29T23:45:08Z</time>
      </trkpt>
      <trkpt lat="45.53758" lon="5.79618">
        <ele>382.52</ele>
        <time>2024-01-29T23:45:12Z</time>
      </trkpt>
      <trkpt lat="45.53754" lon="5.79578">
        <ele>383.49</ele>
        <time>2024-01-29T23:45:19Z</time>
      </trkpt>
      <trkpt lat="45.53753" lon="5.79511">
        <ele>387.86</ele>
        <time>2024-01-29T23:45:35Z</time>
      </trkpt>
      <trkpt lat="45.53766" lon="5.79388">
        <ele>392.37</ele>
        <time>2024-01-29T23:46:12Z</time>
      </trkpt>
      <trkpt lat="45.53729" lon="5.79371">
        <ele>397.04</ele>
        <time>2024-01-29T23:46:29Z</time>
      </trkpt>
      <trkpt lat="45.5371" lon="5.79376">
        <ele>399.41</ele>
        <time>2024-01-29T23:46:39Z</time>
      </trkpt>
      <trkpt lat="45.5368" lon="5.79383">
        <ele>403.18</ele>
        <time>2024-01-29T23:46:54Z</time>
      </trkpt>
      <trkpt lat="45.53658" lon="5.79391">
        <ele>405.74</ele>
        <time>2024-01-29T23:47:06Z</time>
      </trkpt>
      <trkpt lat="45.53652" lon="5.7939">
        <ele>404.87</ele>
        <time>2024-01-29T23:47:09Z</time>
      </trkpt>
      <trkpt lat="45.53641" lon="5.79387">
        <ele>401.76</ele>
        <time>2024-01-29T23:47:15Z</time>
      </trkpt>
      <trkpt lat="45.53626" lon="5.79386">
        <ele>408.43</ele>
        <time>2024-01-29T23:47:23Z</time>
      </trkpt>
      <trkpt lat="45.53604" lon="5.79406">
        <ele>410.41</ele>
        <time>2024-01-29T23:47:38Z</time>
      </trkpt>
      <trkpt lat="45.53594" lon="5.79408">
        <ele>411.11</ele>
        <time>2024-01-29T23:47:44Z</time>
      </trkpt>
      <trkpt lat="45.53549" lon="5.794">
        <ele>414.46</ele>
        <time>2024-01-29T23:48:08Z</time>
      </trkpt>
      <trkpt lat="45.53529" lon="5.79376">
        <ele>415.6</ele>
        <time>2024-01-29T23:48:22Z</time>
      </trkpt>
      <trkpt lat="45.53503" lon="5.79333">
        <ele>417.23</ele>
        <time>2024-01-29T23:48:42Z</time>
      </trkpt>
      <trkpt lat="45.53459" lon="5.79254">
        <ele>420.51</ele>
        <time>2024-01-29T23:49:14Z</time>
      </trkpt>
      <trkpt lat="45.53445" lon="5.79228">
        <ele>422.19</ele>
        <time>2024-01-29T23:49:24Z</time>
      </trkpt>
      <trkpt lat="45.53437" lon="5.79165">
        <ele>426.21</ele>
        <time>2024-01-29T23:49:44Z</time>
      </trkpt>
      <trkpt lat="45.53433" lon="5.79152">
        <ele>426.88</ele>
        <time>2024-01-29T23:49:49Z</time>
      </trkpt>
      <trkpt lat="45.53425" lon="5.79135">
        <ele>427.58</ele>
        <time>2024-01-29T23:49:55Z</time>
      </trkpt>
      <trkpt lat="45.53411" lon="5.79121">
        <ele>428.59</ele>
        <time>2024-01-29T23:50:03Z</time>
      </trkpt>
      <trkpt lat="45.53407" lon="5.79117">
        <ele>428.82</ele>
        <time>2024-01-29T23:50:05Z</time>
      </trkpt>
      <trkpt lat="45.53337" lon="5.79083">
        <ele>436.79</ele>
        <time>2024-01-29T23:50:38Z</time>
      </trkpt>
      <trkpt lat="45.53292" lon="5.79074">
        <ele>443.27</ele>
        <time>2024-01-29T23:51:00Z</time>
      </trkpt>
      <trkpt lat="45.53262" lon="5.79082">
        <ele>446.89</ele>
        <time>2024-01-29T23:51:15Z</time>
      </trkpt>
      <trkpt lat="45.53218" lon="5.79093">
        <ele>447.74</ele>
        <time>2024-01-29T23:51:39Z</time>
      </trkpt>
      <trkpt lat="45.53214" lon="5.79091">
        <ele>447.89</ele>
        <time>2024-01-29T23:51:41Z</time>
      </trkpt>
      <trkpt lat="45.5321" lon="5.7909">
        <ele>448.09</ele>
        <time>2024-01-29T23:51:43Z</time>
      </trkpt>
      <trkpt lat="45.53206" lon="5.79088">
        <ele>448.29</ele>
        <time>2024-01-29T23:51:46Z</time>
      </trkpt>
      <trkpt lat="45.53196" lon="5.79077">
        <ele>448.69</ele>
        <time>2024-01-29T23:51:53Z</time>
      </trkpt>
      <trkpt lat="45.53183" lon="5.79052">
        <ele>449.52</ele>
        <time>2024-01-29T23:52:05Z</time>
      </trkpt>
      <trkpt lat="45.53134" lon="5.78962">
        <ele>454.13</ele>
        <time>2024-01-29T23:52:49Z</time>
      </trkpt>
      <trkpt lat="45.53085" lon="5.78881">
        <ele>461.32</ele>
        <time>2024-01-29T23:53:30Z</time>
      </trkpt>
      <trkpt lat="45.52988" lon="5.78792">
        <ele>469.45</ele>
        <time>2024-01-29T23:54:29Z</time>
      </trkpt>
      <trkpt lat="45.52938" lon="5.78696">
        <ele>469.43</ele>
        <time>2024-01-29T23:55:14Z</time>
      </trkpt>
      <trkpt lat="45.5292" lon="5.78683">
        <ele>470.34</ele>
        <time>2024-01-29T23:55:25Z</time>
      </trkpt>
      <trkpt lat="45.52873" lon="5.78669">
        <ele>475.21</ele>
        <time>2024-01-29T23:55:52Z</time>
      </trkpt>
      <trkpt lat="45.52805" lon="5.78607">
        <ele>488.66</ele>
        <time>2024-01-29T23:56:37Z</time>
      </trkpt>
      <trkpt lat="45.52798" lon="5.78597">
        <ele>490.27</ele>
        <time>2024-01-29T23:56:43Z</time>
      </trkpt>
      <trkpt lat="45.52795" lon="5.78586">
        <ele>490.78</ele>
        <time>2024-01-29T23:56:47Z</time>
      </trkpt>
      <trkpt lat="45.52778" lon="5.78502">
        <ele>497.86</ele>
        <time>2024-01-29T23:57:20Z</time>
      </trkpt>
      <trkpt lat="45.52772" lon="5.78488">
        <ele>499.51</ele>
        <time>2024-01-29T23:57:26Z</time>
      </trkpt>
      <trkpt lat="45.52762" lon="5.78495">
        <ele>499.82</ele>
        <time>2024-01-29T23:57:32Z</time>
      </trkpt>
      <trkpt lat="45.52735" lon="5.78493">
        <ele>500.47</ele>
        <time>2024-01-29T23:57:46Z</time>
      </trkpt>
      <trkpt lat="45.52716" lon="5.78498">
        <ele>501.37</ele>
        <time>2024-01-29T23:57:55Z</time>
      </trkpt>
      <trkpt lat="45.5267" lon="5.78527">
        <ele>503.92</ele>
        <time>2024-01-29T23:58:17Z</time>
      </trkpt>
      <trkpt lat="45.52663" lon="5.7854">
        <ele>504.3</ele>
        <time>2024-01-29T23:58:22Z</time>
      </trkpt>
      <trkpt lat="45.52661" lon="5.78547">
        <ele>504.85</ele>
        <time>2024-01-29T23:58:24Z</time>
      </trkpt>
      <trkpt lat="45.52669" lon="5.78631">
        <ele>504.61</ele>
        <time>2024-01-29T23:58:46Z</time>
      </trkpt>
      <trkpt lat="45.52652" lon="5.78715">
        <ele>506.52</ele>
        <time>2024-01-29T23:59:05Z</time>
      </trkpt>
      <trkpt lat="45.5265" lon="5.78748">
        <ele>508.04</ele>
        <time>2024-01-29T23:59:11Z</time>
      </trkpt>
      <trkpt lat="45.52663" lon="5.78774">
        <ele>509.66</ele>
        <time>2024-01-29T23:59:17Z</time>
      </trkpt>
      <trkpt lat="45.52703" lon="5.78994">
        <ele>520.91</ele>
        <time>2024-01-30T00:00:01Z</time>
      </trkpt>
      <trkpt lat="45.52698" lon="5.79007">
        <ele>521.68</ele>
        <time>2024-01-30T00:00:04Z</time>
      </trkpt>
      <trkpt lat="45.5269" lon="5.79016">
        <ele>522.35</ele>
        <time>2024-01-30T00:00:08Z</time>
      </trkpt>
      <trkpt lat="45.52679" lon="5.79015">
        <ele>522.67</ele>
        <time>2024-01-30T00:00:13Z</time>
      </trkpt>
      <trkpt lat="45.52671" lon="5.7901">
        <ele>523.12</ele>
        <time>2024-01-30T00:00:16Z</time>
      </trkpt>
      <trkpt lat="45.52628" lon="5.78918">
        <ele>528.45</ele>
        <time>2024-01-30T00:00:48Z</time>
      </trkpt>
      <trkpt lat="45.52619" lon="5.78908">
        <ele>529.61</ele>
        <time>2024-01-30T00:00:53Z</time>
      </trkpt>
      <trkpt lat="45.52609" lon="5.78906">
        <ele>530.53</ele>
        <time>2024-01-30T00:00:57Z</time>
      </trkpt>
      <trkpt lat="45.52569" lon="5.7892">
        <ele>533.82</ele>
        <time>2024-01-30T00:01:13Z</time>
      </trkpt>
      <trkpt lat="45.5256" lon="5.78928">
        <ele>534.82</ele>
        <time>2024-01-30T00:01:17Z</time>
      </trkpt>
      <trkpt lat="45.52554" lon="5.78944">
        <ele>536.23</ele>
        <time>2024-01-30T00:01:23Z</time>
      </trkpt>
      <trkpt lat="45.52535" lon="5.79062">
        <ele>539.37</ele>
        <time>2024-01-30T00:01:59Z</time>
      </trkpt>
      <trkpt lat="45.52507" lon="5.79114">
        <ele>539.7</ele>
        <time>2024-01-30T00:02:20Z</time>
      </trkpt>
      <trkpt lat="45.52487" lon="5.79129">
        <ele>540.9</ele>
        <time>2024-01-30T00:02:30Z</time>
      </trkpt>
      <trkpt lat="45.52451" lon="5.79139">
        <ele>541.27</ele>
        <time>2024-01-30T00:02:42Z</time>
      </trkpt>
      <trkpt lat="45.5241" lon="5.79164">
        <ele>543.14</ele>
        <time>2024-01-30T00:02:54Z</time>
      </trkpt>
      <trkpt lat="45.52389" lon="5.79155">
        <ele>545.02</ele>
        <time>2024-01-30T00:02:59Z</time>
      </trkpt>
      <trkpt lat="45.52381" lon="5.79151">
        <ele>545.41</ele>
        <time>2024-01-30T00:03:01Z</time>
      </trkpt>
      <trkpt lat="45.52335" lon="5.79126">
        <ele>545.52</ele>
        <time>2024-01-30T00:03:11Z</time>
      </trkpt>
      <trkpt lat="45.52274" lon="5.79085">
        <ele>541.63</ele>
        <time>2024-01-30T00:03:21Z</time>
      </trkpt>
      <trkpt lat="45.52251" lon="5.79074">
        <ele>539.66</ele>
        <time>2024-01-30T00:03:24Z</time>
      </trkpt>
      <trkpt lat="45.52206" lon="5.79061">
        <ele>535.31</ele>
        <time>2024-01-30T00:03:30Z</time>
      </trkpt>
      <trkpt lat="45.52134" lon="5.7903">
        <ele>528.55</ele>
        <time>2024-01-30T00:03:39Z</time>
      </trkpt>
      <trkpt lat="45.52076" lon="5.78983">
        <ele>526.59</ele>
        <time>2024-01-30T00:03:50Z</time>
      </trkpt>
      <trkpt lat="45.52051" lon="5.78969">
        <ele>527.52</ele>
        <time>2024-01-30T00:03:57Z</time>
      </trkpt>
      <trkpt lat="45.52024" lon="5.78962">
        <ele>528.7</ele>
        <time>2024-01-30T00:04:04Z</time>
      </trkpt>
      <trkpt lat="45.51967" lon="5.78954">
        <ele>531.41</ele>
        <time>2024-01-30T00:04:24Z</time>
      </trkpt>
      <trkpt lat="45.51912" lon="5.7897">
        <ele>535.21</ele>
        <time>2024-01-30T00:04:43Z</time>
      </trkpt>
      <trkpt lat="45.51897" lon="5.78965">
        <ele>536.71</ele>
        <time>2024-01-30T00:04:49Z</time>
      </trkpt>
      <trkpt lat="45.51871" lon="5.78936">
        <ele>539.6</ele>
        <time>2024-01-30T00:05:00Z</time>
      </trkpt>
      <trkpt lat="45.51861" lon="5.78918">
        <ele>540.47</ele>
        <time>2024-01-30T00:05:05Z</time>
      </trkpt>
      <trkpt lat="45.51855" lon="5.7889">
        <ele>541.49</ele>
        <time>2024-01-30T00:05:12Z</time>
      </trkpt>
      <trkpt lat="45.51861" lon="5.78836">
        <ele>543.39</ele>
        <time>2024-01-30T00:05:24Z</time>
      </trkpt>
      <trkpt lat="45.5186" lon="5.78792">
        <ele>544.6</ele>
        <time>2024-01-30T00:05:33Z</time>
      </trkpt>
      <trkpt lat="45.51854" lon="5.78751">
        <ele>546.27</ele>
        <time>2024-01-30T00:05:40Z</time>
      </trkpt>
      <trkpt lat="45.51835" lon="5.78695">
        <ele>548.06</ele>
        <time>2024-01-30T00:05:53Z</time>
      </trkpt>
      <trkpt lat="45.51811" lon="5.78606">
        <ele>553.48</ele>
        <time>2024-01-30T00:06:15Z</time>
      </trkpt>
      <trkpt lat="45.51791" lon="5.78582">
        <ele>556.24</ele>
        <time>2024-01-30T00:06:27Z</time>
      </trkpt>
      <trkpt lat="45.51735" lon="5.78458">
        <ele>567.08</ele>
        <time>2024-01-30T00:07:26Z</time>
      </trkpt>
      <trkpt lat="45.51723" lon="5.78443">
        <ele>568.93</ele>
        <time>2024-01-30T00:07:37Z</time>
      </trkpt>
      <trkpt lat="45.51709" lon="5.78431">
        <ele>570.62</ele>
        <time>2024-01-30T00:07:49Z</time>
      </trkpt>
      <trkpt lat="45.51636" lon="5.78392">
        <ele>579.03</ele>
        <time>2024-01-30T00:08:48Z</time>
      </trkpt>
      <trkpt lat="45.51554" lon="5.78338">
        <ele>588.93</ele>
        <time>2024-01-30T00:09:50Z</time>
      </trkpt>
      <trkpt lat="45.51521" lon="5.78315">
        <ele>592.43</ele>
        <time>2024-01-30T00:10:12Z</time>
      </trkpt>
      <trkpt lat="45.5151" lon="5.78299">
        <ele>594.03</ele>
        <time>2024-01-30T00:10:20Z</time>
      </trkpt>
      <trkpt lat="45.51483" lon="5.7823">
        <ele>599.11</ele>
        <time>2024-01-30T00:10:47Z</time>
      </trkpt>
      <trkpt lat="45.51465" lon="5.78212">
        <ele>601.39</ele>
        <time>2024-01-30T00:10:56Z</time>
      </trkpt>
      <trkpt lat="45.51441" lon="5.7819">
        <ele>604.1</ele>
        <time>2024-01-30T00:11:07Z</time>
      </trkpt>
      <trkpt lat="45.51361" lon="5.78129">
        <ele>604.58</ele>
        <time>2024-01-30T00:11:34Z</time>
      </trkpt>
      <trkpt lat="45.51306" lon="5.78107">
        <ele>603.47</ele>
        <time>2024-01-30T00:11:48Z</time>
      </trkpt>
      <trkpt lat="45.51218" lon="5.78033">
        <ele>601.68</ele>
        <time>2024-01-30T00:12:09Z</time>
      </trkpt>
      <trkpt lat="45.51185" lon="5.78008">
        <ele>601.91</ele>
        <time>2024-01-30T00:12:15Z</time>
      </trkpt>
      <trkpt lat="45.51149" lon="5.77988">
        <ele>601.27</ele>
        <time>2024-01-30T00:12:21Z</time>
      </trkpt>
      <trkpt lat="45.51119" lon="5.77958">
        <ele>602.07</ele>
        <time>2024-01-30T00:12:27Z</time>
      </trkpt>
      <trkpt lat="45.5104" lon="5.77903">
        <ele>600.05</ele>
        <time>2024-01-30T00:12:44Z</time>
      </trkpt>
      <trkpt lat="45.50907" lon="5.77845">
        <ele>604.76</ele>
        <time>2024-01-30T00:13:16Z</time>
      </trkpt>
      <trkpt lat="45.5082" lon="5.778">
        <ele>606.61</ele>
        <time>2024-01-30T00:13:42Z</time>
      </trkpt>
      <trkpt lat="45.50798" lon="5.77771">
        <ele>606.3</ele>
        <time>2024-01-30T00:13:51Z</time>
      </trkpt>
      <trkpt lat="45.50751" lon="5.77795">
        <ele>611.23</ele>
        <time>2024-01-30T00:14:06Z</time>
      </trkpt>
      <trkpt lat="45.50713" lon="5.77772">
        <ele>610.85</ele>
        <time>2024-01-30T00:14:19Z</time>
      </trkpt>
      <trkpt lat="45.50688" lon="5.77764">
        <ele>609.22</ele>
        <time>2024-01-30T00:14:27Z</time>
      </trkpt>
      <trkpt lat="45.50676" lon="5.77765">
        <ele>610.51</ele>
        <time>2024-01-30T00:14:31Z</time>
      </trkpt>
      <trkpt lat="45.50643" lon="5.7774">
        <ele>613.37</ele>
        <time>2024-01-30T00:14:42Z</time>
      </trkpt>
      <trkpt lat="45.50618" lon="5.77706">
        <ele>614.26</ele>
        <time>2024-01-30T00:14:52Z</time>
      </trkpt>
      <trkpt lat="45.5055" lon="5.77473">
        <ele>610.55</ele>
        <time>2024-01-30T00:15:32Z</time>
      </trkpt>
      <trkpt lat="45.50533" lon="5.77439">
        <ele>612.65</ele>
        <time>2024-01-30T00:15:37Z</time>
      </trkpt>
      <trkpt lat="45.50512" lon="5.77427">
        <ele>614.01</ele>
        <time>2024-01-30T00:15:40Z</time>
      </trkpt>
      <trkpt lat="45.50423" lon="5.77416">
        <ele>612.14</ele>
        <time>2024-01-30T00:15:54Z</time>
      </trkpt>
      <trkpt lat="45.50332" lon="5.77442">
        <ele>607.31</ele>
        <time>2024-01-30T00:16:07Z</time>
      </trkpt>
      <trkpt lat="45.50284" lon="5.77465">
        <ele>604.98</ele>
        <time>2024-01-30T00:16:14Z</time>
      </trkpt>
      <trkpt lat="45.50258" lon="5.77492">
        <ele>603.83</ele>
        <time>2024-01-30T00:16:18Z</time>
      </trkpt>
      <trkpt lat="45.50248" lon="5.77495">
        <ele>603.65</ele>
        <time>2024-01-30T00:16:20Z</time>
      </trkpt>
      <trkpt lat="45.50217" lon="5.77489">
        <ele>603.25</ele>
        <time>2024-01-30T00:16:24Z</time>
      </trkpt>
      <trkpt lat="45.50158" lon="5.77452">
        <ele>603.09</ele>
        <time>2024-01-30T00:16:33Z</time>
      </trkpt>
      <trkpt lat="45.50117" lon="5.77391">
        <ele>599.27</ele>
        <time>2024-01-30T00:16:40Z</time>
      </trkpt>
      <trkpt lat="45.50077" lon="5.7731">
        <ele>594.84</ele>
        <time>2024-01-30T00:16:50Z</time>
      </trkpt>
      <trkpt lat="45.5006" lon="5.77294">
        <ele>593.68</ele>
        <time>2024-01-30T00:16:52Z</time>
      </trkpt>
      <trkpt lat="45.49963" lon="5.77245">
        <ele>590.99</ele>
        <time>2024-01-30T00:17:06Z</time>
      </trkpt>
      <trkpt lat="45.49921" lon="5.77209">
        <ele>588.01</ele>
        <time>2024-01-30T00:17:12Z</time>
      </trkpt>
      <trkpt lat="45.49908" lon="5.77185">
        <ele>586.11</ele>
        <time>2024-01-30T00:17:15Z</time>
      </trkpt>
      <trkpt lat="45.49865" lon="5.77151">
        <ele>583.82</ele>
        <time>2024-01-30T00:17:21Z</time>
      </trkpt>
      <trkpt lat="45.49834" lon="5.77109">
        <ele>580.78</ele>
        <time>2024-01-30T00:17:26Z</time>
      </trkpt>
      <trkpt lat="45.49825" lon="5.771">
        <ele>579.7</ele>
        <time>2024-01-30T00:17:28Z</time>
      </trkpt>
      <trkpt lat="45.49809" lon="5.7709">
        <ele>578.83</ele>
        <time>2024-01-30T00:17:30Z</time>
      </trkpt>
      <trkpt lat="45.49767" lon="5.77081">
        <ele>576.92</ele>
        <time>2024-01-30T00:17:35Z</time>
      </trkpt>
      <trkpt lat="45.49752" lon="5.77068">
        <ele>576.49</ele>
        <time>2024-01-30T00:17:38Z</time>
      </trkpt>
      <trkpt lat="45.49692" lon="5.77007">
        <ele>573.87</ele>
        <time>2024-01-30T00:17:48Z</time>
      </trkpt>
      <trkpt lat="45.49687" lon="5.76996">
        <ele>573.46</ele>
        <time>2024-01-30T00:17:50Z</time>
      </trkpt>
      <trkpt lat="45.49687" lon="5.76985">
        <ele>573.04</ele>
        <time>2024-01-30T00:17:51Z</time>
      </trkpt>
      <trkpt lat="45.49599" lon="5.7697">
        <ele>575.19</ele>
        <time>2024-01-30T00:18:08Z</time>
      </trkpt>
      <trkpt lat="45.49539" lon="5.76985">
        <ele>576.91</ele>
        <time>2024-01-30T00:18:22Z</time>
      </trkpt>
      <trkpt lat="45.49466" lon="5.77009">
        <ele>577.07</ele>
        <time>2024-01-30T00:18:39Z</time>
      </trkpt>
      <trkpt lat="45.49404" lon="5.77028">
        <ele>573.92</ele>
        <time>2024-01-30T00:18:49Z</time>
      </trkpt>
      <trkpt lat="45.49292" lon="5.77066">
        <ele>567.86</ele>
        <time>2024-01-30T00:19:05Z</time>
      </trkpt>
      <trkpt lat="45.49265" lon="5.7707">
        <ele>566.48</ele>
        <time>2024-01-30T00:19:08Z</time>
      </trkpt>
      <trkpt lat="45.49228" lon="5.77058">
        <ele>564.54</ele>
        <time>2024-01-30T00:19:13Z</time>
      </trkpt>
      <trkpt lat="45.49157" lon="5.77017">
        <ele>563.06</ele>
        <time>2024-01-30T00:19:23Z</time>
      </trkpt>
      <trkpt lat="45.4911" lon="5.76998">
        <ele>562.21</ele>
        <time>2024-01-30T00:19:29Z</time>
      </trkpt>
      <trkpt lat="45.49063" lon="5.7699">
        <ele>561.51</ele>
        <time>2024-01-30T00:19:35Z</time>
      </trkpt>
      <trkpt lat="45.4904" lon="5.76989">
        <ele>561.15</ele>
        <time>2024-01-30T00:19:38Z</time>
      </trkpt>
      <trkpt lat="45.48936" lon="5.76994">
        <ele>557.61</ele>
        <time>2024-01-30T00:19:53Z</time>
      </trkpt>
      <trkpt lat="45.48909" lon="5.77001">
        <ele>556.75</ele>
        <time>2024-01-30T00:19:57Z</time>
      </trkpt>
      <trkpt lat="45.48894" lon="5.77006">
        <ele>556.33</ele>
        <time>2024-01-30T00:19:59Z</time>
      </trkpt>
      <trkpt lat="45.48876" lon="5.77006">
        <ele>555.77</ele>
        <time>2024-01-30T00:20:01Z</time>
      </trkpt>
      <trkpt lat="45.48848" lon="5.76988">
        <ele>554.84</ele>
        <time>2024-01-30T00:20:06Z</time>
      </trkpt>
      <trkpt lat="45.48803" lon="5.76951">
        <ele>553.16</ele>
        <time>2024-01-30T00:20:13Z</time>
      </trkpt>
      <trkpt lat="45.48756" lon="5.76933">
        <ele>551.57</ele>
        <time>2024-01-30T00:20:20Z</time>
      </trkpt>
      <trkpt lat="45.4874" lon="5.76924">
        <ele>550.94</ele>
        <time>2024-01-30T00:20:22Z</time>
      </trkpt>
      <trkpt lat="45.4873" lon="5.76914">
        <ele>550.93</ele>
        <time>2024-01-30T00:20:24Z</time>
      </trkpt>
      <trkpt lat="45.48696" lon="5.76862">
        <ele>549.96</ele>
        <time>2024-01-30T00:20:30Z</time>
      </trkpt>
      <trkpt lat="45.48613" lon="5.76767">
        <ele>548.58</ele>
        <time>2024-01-30T00:20:45Z</time>
      </trkpt>
      <trkpt lat="45.48577" lon="5.7674">
        <ele>548.06</ele>
        <time>2024-01-30T00:20:50Z</time>
      </trkpt>
      <trkpt lat="45.48535" lon="5.76721">
        <ele>547.24</ele>
        <time>2024-01-30T00:20:57Z</time>
      </trkpt>
      <trkpt lat="45.48493" lon="5.76702">
        <ele>546.31</ele>
        <time>2024-01-30T00:21:04Z</time>
      </trkpt>
      <trkpt lat="45.48478" lon="5.76701">
        <ele>545.91</ele>
        <time>2024-01-30T00:21:06Z</time>
      </trkpt>
      <trkpt lat="45.48405" lon="5.76716">
        <ele>543.69</ele>
        <time>2024-01-30T00:21:19Z</time>
      </trkpt>
      <trkpt lat="45.48396" lon="5.76713">
        <ele>541.16</ele>
        <time>2024-01-30T00:21:20Z</time>
      </trkpt>
      <trkpt lat="45.48372" lon="5.76698">
        <ele>543.08</ele>
        <time>2024-01-30T00:21:25Z</time>
      </trkpt>
      <trkpt lat="45.4831" lon="5.76638">
        <ele>542.6</ele>
        <time>2024-01-30T00:21:38Z</time>
      </trkpt>
      <trkpt lat="45.48274" lon="5.76605">
        <ele>542.44</ele>
        <time>2024-01-30T00:21:46Z</time>
      </trkpt>
      <trkpt lat="45.48246" lon="5.76583">
        <ele>542.32</ele>
        <time>2024-01-30T00:21:53Z</time>
      </trkpt>
      <trkpt lat="45.48204" lon="5.76561">
        <ele>542.05</ele>
        <time>2024-01-30T00:22:02Z</time>
      </trkpt>
      <trkpt lat="45.48161" lon="5.76545">
        <ele>541.97</ele>
        <time>2024-01-30T00:22:11Z</time>
      </trkpt>
      <trkpt lat="45.48108" lon="5.76524">
        <ele>541.75</ele>
        <time>2024-01-30T00:22:21Z</time>
      </trkpt>
      <trkpt lat="45.4809" lon="5.76504">
        <ele>541.81</ele>
        <time>2024-01-30T00:22:25Z</time>
      </trkpt>
      <trkpt lat="45.48074" lon="5.76467">
        <ele>541.75</ele>
        <time>2024-01-30T00:22:30Z</time>
      </trkpt>
      <trkpt lat="45.48033" lon="5.76348">
        <ele>544.1</ele>
        <time>2024-01-30T00:22:49Z</time>
      </trkpt>
      <trkpt lat="45.48006" lon="5.76275">
        <ele>545.57</ele>
        <time>2024-01-30T00:22:59Z</time>
      </trkpt>
      <trkpt lat="45.4799" lon="5.76256">
        <ele>546.34</ele>
        <time>2024-01-30T00:23:02Z</time>
      </trkpt>
      <trkpt lat="45.47987" lon="5.76253">
        <ele>546.49</ele>
        <time>2024-01-30T00:23:03Z</time>
      </trkpt>
      <trkpt lat="45.47963" lon="5.76244">
        <ele>546.86</ele>
        <time>2024-01-30T00:23:07Z</time>
      </trkpt>
      <trkpt lat="45.47949" lon="5.76245">
        <ele>546.85</ele>
        <time>2024-01-30T00:23:09Z</time>
      </trkpt>
      <trkpt lat="45.4777" lon="5.76265">
        <ele>543.05</ele>
        <time>2024-01-30T00:23:37Z</time>
      </trkpt>
      <trkpt lat="45.47729" lon="5.76266">
        <ele>542.24</ele>
        <time>2024-01-30T00:23:42Z</time>
      </trkpt>
      <trkpt lat="45.47686" lon="5.76267">
        <ele>541.01</ele>
        <time>2024-01-30T00:23:48Z</time>
      </trkpt>
      <trkpt lat="45.47493" lon="5.76244">
        <ele>534.64</ele>
        <time>2024-01-30T00:24:15Z</time>
      </trkpt>
      <trkpt lat="45.47465" lon="5.76241">
        <ele>533.46</ele>
        <time>2024-01-30T00:24:20Z</time>
      </trkpt>
      <trkpt lat="45.47438" lon="5.76235">
        <ele>532.35</ele>
        <time>2024-01-30T00:24:24Z</time>
      </trkpt>
      <trkpt lat="45.47411" lon="5.76222">
        <ele>531.48</ele>
        <time>2024-01-30T00:24:29Z</time>
      </trkpt>
      <trkpt lat="45.47264" lon="5.7611">
        <ele>528.61</ele>
        <time>2024-01-30T00:24:57Z</time>
      </trkpt>
      <trkpt lat="45.47191" lon="5.76057">
        <ele>527.63</ele>
        <time>2024-01-30T00:25:10Z</time>
      </trkpt>
      <trkpt lat="45.4713" lon="5.76028">
        <ele>526.68</ele>
        <time>2024-01-30T00:25:20Z</time>
      </trkpt>
      <trkpt lat="45.47069" lon="5.75964">
        <ele>525.64</ele>
        <time>2024-01-30T00:25:31Z</time>
      </trkpt>
      <trkpt lat="45.4701" lon="5.75898">
        <ele>524.76</ele>
        <time>2024-01-30T00:25:42Z</time>
      </trkpt>
      <trkpt lat="45.47002" lon="5.75889">
        <ele>524.58</ele>
        <time>2024-01-30T00:25:44Z</time>
      </trkpt>
      <trkpt lat="45.46967" lon="5.7585">
        <ele>523.91</ele>
        <time>2024-01-30T00:25:51Z</time>
      </trkpt>
      <trkpt lat="45.46948" lon="5.7582">
        <ele>524.07</ele>
        <time>2024-01-30T00:25:55Z</time>
      </trkpt>
      <trkpt lat="45.46939" lon="5.75798">
        <ele>524.18</ele>
        <time>2024-01-30T00:25:59Z</time>
      </trkpt>
      <trkpt lat="45.46926" lon="5.75754">
        <ele>525.28</ele>
        <time>2024-01-30T00:26:06Z</time>
      </trkpt>
      <trkpt lat="45.46906" lon="5.75717">
        <ele>526.86</ele>
        <time>2024-01-30T00:26:15Z</time>
      </trkpt>
      <trkpt lat="45.46882" lon="5.75697">
        <ele>527.84</ele>
        <time>2024-01-30T00:26:24Z</time>
      </trkpt>
      <trkpt lat="45.46639" lon="5.75583">
        <ele>538.35</ele>
        <time>2024-01-30T00:28:22Z</time>
      </trkpt>
      <trkpt lat="45.46609" lon="5.75557">
        <ele>539.38</ele>
        <time>2024-01-30T00:28:41Z</time>
      </trkpt>
      <trkpt lat="45.46567" lon="5.75665">
        <ele>550.93</ele>
        <time>2024-01-30T00:29:26Z</time>
      </trkpt>
      <trkpt lat="45.46544" lon="5.75658">
        <ele>552.46</ele>
        <time>2024-01-30T00:29:37Z</time>
      </trkpt>
      <trkpt lat="45.46477" lon="5.75607">
        <ele>558.55</ele>
        <time>2024-01-30T00:30:14Z</time>
      </trkpt>
      <trkpt lat="45.46453" lon="5.75585">
        <ele>561.29</ele>
        <time>2024-01-30T00:30:26Z</time>
      </trkpt>
      <trkpt lat="45.46425" lon="5.75567">
        <ele>561.37</ele>
        <time>2024-01-30T00:30:37Z</time>
      </trkpt>
      <trkpt lat="45.46343" lon="5.75572">
        <ele>565.26</ele>
        <time>2024-01-30T00:31:07Z</time>
      </trkpt>
      <trkpt lat="45.46323" lon="5.75565">
        <ele>566.99</ele>
        <time>2024-01-30T00:31:15Z</time>
      </trkpt>
      <trkpt lat="45.46281" lon="5.75562">
        <ele>567.89</ele>
        <time>2024-01-30T00:31:31Z</time>
      </trkpt>
      <trkpt lat="45.46267" lon="5.75566">
        <ele>569.26</ele>
        <time>2024-01-30T00:31:36Z</time>
      </trkpt>
      <trkpt lat="45.46261" lon="5.75568">
        <ele>570.97</ele>
        <time>2024-01-30T00:31:39Z</time>
      </trkpt>
      <trkpt lat="45.46187" lon="5.75566">
        <ele>575.32</ele>
        <time>2024-01-30T00:32:06Z</time>
      </trkpt>
      <trkpt lat="45.461" lon="5.7556">
        <ele>576.45</ele>
        <time>2024-01-30T00:32:35Z</time>
      </trkpt>
      <trkpt lat="45.46085" lon="5.75665">
        <ele>579.79</ele>
        <time>2024-01-30T00:32:51Z</time>
      </trkpt>
      <trkpt lat="45.46079" lon="5.75736">
        <ele>581.14</ele>
        <time>2024-01-30T00:32:59Z</time>
      </trkpt>
      <trkpt lat="45.46075" lon="5.75731">
        <ele>580.59</ele>
        <time>2024-01-30T00:33:00Z</time>
      </trkpt>
      <trkpt lat="45.4599" lon="5.75709">
        <ele>571.26</ele>
        <time>2024-01-30T00:33:12Z</time>
      </trkpt>
      <trkpt lat="45.45941" lon="5.75703">
        <ele>567.43</ele>
        <time>2024-01-30T00:33:18Z</time>
      </trkpt>
      <trkpt lat="45.45851" lon="5.75708">
        <ele>558.05</ele>
        <time>2024-01-30T00:33:29Z</time>
      </trkpt>
      <trkpt lat="45.45805" lon="5.75716">
        <ele>552.77</ele>
        <time>2024-01-30T00:33:35Z</time>
      </trkpt>
      <trkpt lat="45.45761" lon="5.75729">
        <ele>550.9</ele>
        <time>2024-01-30T00:33:40Z</time>
      </trkpt>
      <trkpt lat="45.45694" lon="5.7577">
        <ele>548.88</ele>
        <time>2024-01-30T00:33:49Z</time>
      </trkpt>
      <trkpt lat="45.45655" lon="5.75778">
        <ele>545.86</ele>
        <time>2024-01-30T00:33:53Z</time>
      </trkpt>
      <trkpt lat="45.45639" lon="5.75775">
        <ele>544.64</ele>
        <time>2024-01-30T00:33:55Z</time>
      </trkpt>
      <trkpt lat="45.45627" lon="5.75772">
        <ele>543.26</ele>
        <time>2024-01-30T00:33:57Z</time>
      </trkpt>
      <trkpt lat="45.45585" lon="5.75753">
        <ele>539.12</ele>
        <time>2024-01-30T00:34:02Z</time>
      </trkpt>
      <trkpt lat="45.45476" lon="5.75661">
        <ele>525.23</ele>
        <time>2024-01-30T00:34:16Z</time>
      </trkpt>
      <trkpt lat="45.4539" lon="5.75607">
        <ele>515.62</ele>
        <time>2024-01-30T00:34:27Z</time>
      </trkpt>
      <trkpt lat="45.45349" lon="5.75588">
        <ele>510.41</ele>
        <time>2024-01-30T00:34:32Z</time>
      </trkpt>
      <trkpt lat="45.453" lon="5.75578">
        <ele>503.93</ele>
        <time>2024-01-30T00:34:38Z</time>
      </trkpt>
      <trkpt lat="45.45283" lon="5.75568">
        <ele>501.64</ele>
        <time>2024-01-30T00:34:40Z</time>
      </trkpt>
      <trkpt lat="45.4526" lon="5.75545">
        <ele>498.26</ele>
        <time>2024-01-30T00:34:44Z</time>
      </trkpt>
      <trkpt lat="45.45252" lon="5.7553">
        <ele>496.86</ele>
        <time>2024-01-30T00:34:45Z</time>
      </trkpt>
      <trkpt lat="45.45249" lon="5.7551">
        <ele>495.29</ele>
        <time>2024-01-30T00:34:47Z</time>
      </trkpt>
      <trkpt lat="45.45255" lon="5.75477">
        <ele>492.23</ele>
        <time>2024-01-30T00:34:50Z</time>
      </trkpt>
      <trkpt lat="45.45253" lon="5.75464">
        <ele>490.57</ele>
        <time>2024-01-30T00:34:51Z</time>
      </trkpt>
      <trkpt lat="45.45247" lon="5.75451">
        <ele>489.19</ele>
        <time>2024-01-30T00:34:52Z</time>
      </trkpt>
      <trkpt lat="45.45192" lon="5.75405">
        <ele>482.05</ele>
        <time>2024-01-30T00:34:59Z</time>
      </trkpt>
      <trkpt lat="45.45175" lon="5.75381">
        <ele>479.72</ele>
        <time>2024-01-30T00:35:02Z</time>
      </trkpt>
      <trkpt lat="45.4516" lon="5.7533">
        <ele>474.66</ele>
        <time>2024-01-30T00:35:07Z</time>
      </trkpt>
      <trkpt lat="45.45112" lon="5.75282">
        <ele>466.8</ele>
        <time>2024-01-30T00:35:13Z</time>
      </trkpt>
      <trkpt lat="45.45062" lon="5.7523">
        <ele>457.99</ele>
        <time>2024-01-30T00:35:20Z</time>
      </trkpt>
      <trkpt lat="45.45027" lon="5.75204">
        <ele>451.45</ele>
        <time>2024-01-30T00:35:25Z</time>
      </trkpt>
      <trkpt lat="45.44984" lon="5.75182">
        <ele>444.16</ele>
        <time>2024-01-30T00:35:30Z</time>
      </trkpt>
      <trkpt lat="45.44978" lon="5.75179">
        <ele>443.46</ele>
        <time>2024-01-30T00:35:31Z</time>
      </trkpt>
      <trkpt lat="45.44913" lon="5.75138">
        <ele>436.01</ele>
        <time>2024-01-30T00:35:40Z</time>
      </trkpt>
      <trkpt lat="45.44892" lon="5.75121">
        <ele>434.01</ele>
        <time>2024-01-30T00:35:42Z</time>
      </trkpt>
      <trkpt lat="45.44809" lon="5.75082">
        <ele>426.74</ele>
        <time>2024-01-30T00:35:53Z</time>
      </trkpt>
      <trkpt lat="45.44778" lon="5.75071">
        <ele>423.91</ele>
        <time>2024-01-30T00:35:57Z</time>
      </trkpt>
      <trkpt lat="45.44751" lon="5.75064">
        <ele>421.3</ele>
        <time>2024-01-30T00:36:01Z</time>
      </trkpt>
      <trkpt lat="45.44736" lon="5.75065">
        <ele>419.95</ele>
        <time>2024-01-30T00:36:02Z</time>
      </trkpt>
      <trkpt lat="45.44715" lon="5.75076">
        <ele>418.32</ele>
        <time>2024-01-30T00:36:05Z</time>
      </trkpt>
      <trkpt lat="45.44701" lon="5.7508">
        <ele>417.3</ele>
        <time>2024-01-30T00:36:07Z</time>
      </trkpt>
      <trkpt lat="45.44678" lon="5.75073">
        <ele>416.36</ele>
        <time>2024-01-30T00:36:10Z</time>
      </trkpt>
      <trkpt lat="45.44665" lon="5.75062">
        <ele>416.03</ele>
        <time>2024-01-30T00:36:12Z</time>
      </trkpt>
      <trkpt lat="45.44644" lon="5.75039">
        <ele>415.48</ele>
        <time>2024-01-30T00:36:15Z</time>
      </trkpt>
      <trkpt lat="45.44636" lon="5.75024">
        <ele>415.14</ele>
        <time>2024-01-30T00:36:17Z</time>
      </trkpt>
      <trkpt lat="45.44617" lon="5.74969">
        <ele>412.57</ele>
        <time>2024-01-30T00:36:22Z</time>
      </trkpt>
      <trkpt lat="45.44591" lon="5.74925">
        <ele>409.1</ele>
        <time>2024-01-30T00:36:27Z</time>
      </trkpt>
      <trkpt lat="45.44565" lon="5.74889">
        <ele>406.37</ele>
        <time>2024-01-30T00:36:32Z</time>
      </trkpt>
      <trkpt lat="45.44538" lon="5.74861">
        <ele>403.8</ele>
        <time>2024-01-30T00:36:36Z</time>
      </trkpt>
      <trkpt lat="45.44448" lon="5.74814">
        <ele>397.84</ele>
        <time>2024-01-30T00:36:49Z</time>
      </trkpt>
      <trkpt lat="45.44435" lon="5.74804">
        <ele>396.2</ele>
        <time>2024-01-30T00:36:51Z</time>
      </trkpt>
      <trkpt lat="45.44341" lon="5.74725">
        <ele>388.17</ele>
        <time>2024-01-30T00:37:06Z</time>
      </trkpt>
      <trkpt lat="45.44287" lon="5.74679">
        <ele>385.33</ele>
        <time>2024-01-30T00:37:15Z</time>
      </trkpt>
      <trkpt lat="45.44246" lon="5.74643">
        <ele>383.87</ele>
        <time>2024-01-30T00:37:21Z</time>
      </trkpt>
      <trkpt lat="45.44173" lon="5.74592">
        <ele>382.56</ele>
        <time>2024-01-30T00:37:33Z</time>
      </trkpt>
      <trkpt lat="45.44136" lon="5.74561">
        <ele>381.71</ele>
        <time>2024-01-30T00:37:40Z</time>
      </trkpt>
      <trkpt lat="45.44117" lon="5.74595">
        <ele>381.16</ele>
        <time>2024-01-30T00:37:44Z</time>
      </trkpt>
      <trkpt lat="45.44018" lon="5.74758">
        <ele>382.51</ele>
        <time>2024-01-30T00:38:09Z</time>
      </trkpt>
      <trkpt lat="45.43977" lon="5.74825">
        <ele>383.04</ele>
        <time>2024-01-30T00:38:22Z</time>
      </trkpt>
      <trkpt lat="45.43976" lon="5.74825">
        <ele>383.04</ele>
        <time>2024-01-30T00:38:22Z</time>
      </trkpt>
      <trkpt lat="45.43974" lon="5.74899">
        <ele>384.03</ele>
        <time>2024-01-30T00:38:35Z</time>
      </trkpt>
      <trkpt lat="45.43979" lon="5.7491">
        <ele>384.37</ele>
        <time>2024-01-30T00:38:37Z</time>
      </trkpt>
      <trkpt lat="45.43987" lon="5.74897">
        <ele>384.41</ele>
        <time>2024-01-30T00:38:40Z</time>
      </trkpt>
      <trkpt lat="45.43991" lon="5.74903">
        <ele>384.36</ele>
        <time>2024-01-30T00:38:42Z</time>
      </trkpt>
      <trkpt lat="45.43968" lon="5.75009">
        <ele>385.36</ele>
        <time>2024-01-30T00:39:04Z</time>
      </trkpt>
      <trkpt lat="45.43946" lon="5.75034">
        <ele>385.55</ele>
        <time>2024-01-30T00:39:12Z</time>
      </trkpt>
      <trkpt lat="45.43941" lon="5.75057">
        <ele>385.59</ele>
        <time>2024-01-30T00:39:16Z</time>
      </trkpt>
      <trkpt lat="45.43923" lon="5.75075">
        <ele>385.7</ele>
        <time>2024-01-30T00:39:23Z</time>
      </trkpt>
      <trkpt lat="45.43878" lon="5.75107">
        <ele>385.89</ele>
        <time>2024-01-30T00:39:37Z</time>
      </trkpt>
      <trkpt lat="45.43869" lon="5.75113">
        <ele>385.99</ele>
        <time>2024-01-30T00:39:40Z</time>
      </trkpt>
      <trkpt lat="45.4386" lon="5.75113">
        <ele>385.98</ele>
        <time>2024-01-30T00:39:42Z</time>
      </trkpt>
      <trkpt lat="45.43857" lon="5.75111">
        <ele>386.03</ele>
        <time>2024-01-30T00:39:43Z</time>
      </trkpt>
      <trkpt lat="45.43825" lon="5.75108">
        <ele>385.08</ele>
        <time>2024-01-30T00:39:49Z</time>
      </trkpt>
      <trkpt lat="45.43784" lon="5.75102">
        <ele>384.04</ele>
        <time>2024-01-30T00:39:56Z</time>
      </trkpt>
      <trkpt lat="45.43772" lon="5.75105">
        <ele>383.44</ele>
        <time>2024-01-30T00:39:57Z</time>
      </trkpt>
      <trkpt lat="45.43761" lon="5.7511">
        <ele>383</ele>
        <time>2024-01-30T00:39:59Z</time>
      </trkpt>
      <trkpt lat="45.43718" lon="5.75137">
        <ele>381.8</ele>
        <time>2024-01-30T00:40:06Z</time>
      </trkpt>
      <trkpt lat="45.43715" lon="5.75139">
        <ele>381.77</ele>
        <time>2024-01-30T00:40:07Z</time>
      </trkpt>
      <trkpt lat="45.43664" lon="5.75172">
        <ele>382.03</ele>
        <time>2024-01-30T00:40:15Z</time>
      </trkpt>
      <trkpt lat="45.43545" lon="5.75247">
        <ele>385.1</ele>
        <time>2024-01-30T00:40:36Z</time>
      </trkpt>
      <trkpt lat="45.43528" lon="5.75252">
        <ele>385.65</ele>
        <time>2024-01-30T00:40:39Z</time>
      </trkpt>
      <trkpt lat="45.43504" lon="5.75252">
        <ele>385.22</ele>
        <time>2024-01-30T00:40:44Z</time>
      </trkpt>
      <trkpt lat="45.43456" lon="5.75249">
        <ele>385.44</ele>
        <time>2024-01-30T00:40:55Z</time>
      </trkpt>
      <trkpt lat="45.4343" lon="5.75247">
        <ele>385.47</ele>
        <time>2024-01-30T00:41:02Z</time>
      </trkpt>
      <trkpt lat="45.43368" lon="5.75242">
        <ele>384.6</ele>
        <time>2024-01-30T00:41:18Z</time>
      </trkpt>
      <trkpt lat="45.43364" lon="5.75241">
        <ele>384.52</ele>
        <time>2024-01-30T00:41:19Z</time>
      </trkpt>
      <trkpt lat="45.43321" lon="5.75236">
        <ele>384.56</ele>
        <time>2024-01-30T00:41:31Z</time>
      </trkpt>
      <trkpt lat="45.43297" lon="5.75238">
        <ele>384.88</ele>
        <time>2024-01-30T00:41:38Z</time>
      </trkpt>
      <trkpt lat="45.43293" lon="5.75207">
        <ele>385.11</ele>
        <time>2024-01-30T00:41:43Z</time>
      </trkpt>
      <trkpt lat="45.43277" lon="5.75195">
        <ele>386.36</ele>
        <time>2024-01-30T00:41:48Z</time>
      </trkpt>
      <trkpt lat="45.43247" lon="5.75153">
        <ele>388.72</ele>
        <time>2024-01-30T00:41:58Z</time>
      </trkpt>
      <trkpt lat="45.43226" lon="5.75132">
        <ele>389.67</ele>
        <time>2024-01-30T00:42:03Z</time>
      </trkpt>
      <trkpt lat="45.43212" lon="5.75124">
        <ele>389.68</ele>
        <time>2024-01-30T00:42:06Z</time>
      </trkpt>
      <trkpt lat="45.43169" lon="5.751">
        <ele>389.92</ele>
        <time>2024-01-30T00:42:14Z</time>
      </trkpt>
      <trkpt lat="45.43156" lon="5.75091">
        <ele>389.89</ele>
        <time>2024-01-30T00:42:16Z</time>
      </trkpt>
      <trkpt lat="45.43145" lon="5.75077">
        <ele>389.69</ele>
        <time>2024-01-30T00:42:18Z</time>
      </trkpt>
      <trkpt lat="45.43137" lon="5.75059">
        <ele>389.58</ele>
        <time>2024-01-30T00:42:21Z</time>
      </trkpt>
      <trkpt lat="45.43128" lon="5.75034">
        <ele>389.46</ele>
        <time>2024-01-30T00:42:24Z</time>
      </trkpt>
      <trkpt lat="45.43091" lon="5.74943">
        <ele>388.97</ele>
        <time>2024-01-30T00:42:34Z</time>
      </trkpt>
      <trkpt lat="45.4308" lon="5.74918">
        <ele>388.92</ele>
        <time>2024-01-30T00:42:37Z</time>
      </trkpt>
      <trkpt lat="45.43056" lon="5.74864">
        <ele>388.59</ele>
        <time>2024-01-30T00:42:43Z</time>
      </trkpt>
      <trkpt lat="45.43029" lon="5.74801">
        <ele>388.32</ele>
        <time>2024-01-30T00:42:50Z</time>
      </trkpt>
      <trkpt lat="45.43009" lon="5.74758">
        <ele>387.88</ele>
        <time>2024-01-30T00:42:56Z</time>
      </trkpt>
      <trkpt lat="45.43" lon="5.74732">
        <ele>387.27</ele>
        <time>2024-01-30T00:42:59Z</time>
      </trkpt>
      <trkpt lat="45.42986" lon="5.74695">
        <ele>385.77</ele>
        <time>2024-01-30T00:43:04Z</time>
      </trkpt>
      <trkpt lat="45.42975" lon="5.7466">
        <ele>383.19</ele>
        <time>2024-01-30T00:43:08Z</time>
      </trkpt>
      <trkpt lat="45.42966" lon="5.74627">
        <ele>385.27</ele>
        <time>2024-01-30T00:43:12Z</time>
      </trkpt>
      <trkpt lat="45.42964" lon="5.74621">
        <ele>385.4</ele>
        <time>2024-01-30T00:43:13Z</time>
      </trkpt>
      <trkpt lat="45.42961" lon="5.74616">
        <ele>385.49</ele>
        <time>2024-01-30T00:43:14Z</time>
      </trkpt>
      <trkpt lat="45.42956" lon="5.74622">
        <ele>385.35</ele>
        <time>2024-01-30T00:43:16Z</time>
      </trkpt>
      <trkpt lat="45.42935" lon="5.74632">
        <ele>384.34</ele>
        <time>2024-01-30T00:43:20Z</time>
      </trkpt>
      <trkpt lat="45.42924" lon="5.74645">
        <ele>383.26</ele>
        <time>2024-01-30T00:43:23Z</time>
      </trkpt>
      <trkpt lat="45.42771" lon="5.74732">
        <ele>383.72</ele>
        <time>2024-01-30T00:43:55Z</time>
      </trkpt>
      <trkpt lat="45.42732" lon="5.74768">
        <ele>383.64</ele>
        <time>2024-01-30T00:44:03Z</time>
      </trkpt>
      <trkpt lat="45.42685" lon="5.748">
        <ele>383.88</ele>
        <time>2024-01-30T00:44:13Z</time>
      </trkpt>
      <trkpt lat="45.42651" lon="5.74814">
        <ele>384.07</ele>
        <time>2024-01-30T00:44:20Z</time>
      </trkpt>
      <trkpt lat="45.42626" lon="5.74819">
        <ele>384.3</ele>
        <time>2024-01-30T00:44:25Z</time>
      </trkpt>
      <trkpt lat="45.42615" lon="5.74817">
        <ele>384.32</ele>
        <time>2024-01-30T00:44:27Z</time>
      </trkpt>
      <trkpt lat="45.42597" lon="5.74813">
        <ele>384.46</ele>
        <time>2024-01-30T00:44:31Z</time>
      </trkpt>
      <trkpt lat="45.42389" lon="5.74711">
        <ele>384.26</ele>
        <time>2024-01-30T00:45:22Z</time>
      </trkpt>
      <trkpt lat="45.42267" lon="5.74658">
        <ele>385.56</ele>
        <time>2024-01-30T00:45:53Z</time>
      </trkpt>
      <trkpt lat="45.42232" lon="5.74658">
        <ele>386.03</ele>
        <time>2024-01-30T00:46:01Z</time>
      </trkpt>
      <trkpt lat="45.42216" lon="5.74671">
        <ele>384.09</ele>
        <time>2024-01-30T00:46:06Z</time>
      </trkpt>
      <trkpt lat="45.42159" lon="5.74701">
        <ele>386.33</ele>
        <time>2024-01-30T00:46:19Z</time>
      </trkpt>
      <trkpt lat="45.42111" lon="5.74755">
        <ele>386.03</ele>
        <time>2024-01-30T00:46:32Z</time>
      </trkpt>
      <trkpt lat="45.4209" lon="5.74795">
        <ele>386.22</ele>
        <time>2024-01-30T00:46:40Z</time>
      </trkpt>
      <trkpt lat="45.42079" lon="5.7481">
        <ele>386.24</ele>
        <time>2024-01-30T00:46:43Z</time>
      </trkpt>
      <trkpt lat="45.42034" lon="5.74698">
        <ele>385.13</ele>
        <time>2024-01-30T00:47:04Z</time>
      </trkpt>
      <trkpt lat="45.42029" lon="5.74673">
        <ele>385.14</ele>
        <time>2024-01-30T00:47:08Z</time>
      </trkpt>
      <trkpt lat="45.42024" lon="5.74584">
        <ele>385.4</ele>
        <time>2024-01-30T00:47:24Z</time>
      </trkpt>
      <trkpt lat="45.42017" lon="5.74563">
        <ele>385.47</ele>
        <time>2024-01-30T00:47:27Z</time>
      </trkpt>
      <trkpt lat="45.42008" lon="5.74552">
        <ele>385.59</ele>
        <time>2024-01-30T00:47:30Z</time>
      </trkpt>
      <trkpt lat="45.41997" lon="5.74545">
        <ele>385.65</ele>
        <time>2024-01-30T00:47:33Z</time>
      </trkpt>
      <trkpt lat="45.41946" lon="5.74528">
        <ele>385.85</ele>
        <time>2024-01-30T00:47:45Z</time>
      </trkpt>
      <trkpt lat="45.41942" lon="5.74518">
        <ele>385.98</ele>
        <time>2024-01-30T00:47:47Z</time>
      </trkpt>
      <trkpt lat="45.41941" lon="5.74506">
        <ele>386.35</ele>
        <time>2024-01-30T00:47:48Z</time>
      </trkpt>
      <trkpt lat="45.41948" lon="5.74477">
        <ele>386.15</ele>
        <time>2024-01-30T00:47:53Z</time>
      </trkpt>
      <trkpt lat="45.41885" lon="5.74434">
        <ele>386.39</ele>
        <time>2024-01-30T00:48:07Z</time>
      </trkpt>
      <trkpt lat="45.41855" lon="5.74433">
        <ele>386.42</ele>
        <time>2024-01-30T00:48:13Z</time>
      </trkpt>
      <trkpt lat="45.41842" lon="5.74435">
        <ele>386.41</ele>
        <time>2024-01-30T00:48:16Z</time>
      </trkpt>
      <trkpt lat="45.41825" lon="5.74398">
        <ele>386.56</ele>
        <time>2024-01-30T00:48:22Z</time>
      </trkpt>
      <trkpt lat="45.41812" lon="5.74376">
        <ele>386.57</ele>
        <time>2024-01-30T00:48:26Z</time>
      </trkpt>
      <trkpt lat="45.41803" lon="5.74365">
        <ele>386.47</ele>
        <time>2024-01-30T00:48:28Z</time>
      </trkpt>
      <trkpt lat="45.41756" lon="5.7434">
        <ele>386.52</ele>
        <time>2024-01-30T00:48:38Z</time>
      </trkpt>
      <trkpt lat="45.41745" lon="5.74328">
        <ele>386.47</ele>
        <time>2024-01-30T00:48:41Z</time>
      </trkpt>
      <trkpt lat="45.4172" lon="5.7431">
        <ele>386.57</ele>
        <time>2024-01-30T00:48:47Z</time>
      </trkpt>
      <trkpt lat="45.41682" lon="5.74277">
        <ele>387.04</ele>
        <time>2024-01-30T00:48:57Z</time>
      </trkpt>
      <trkpt lat="45.41664" lon="5.74258">
        <ele>387.24</ele>
        <time>2024-01-30T00:49:01Z</time>
      </trkpt>
      <trkpt lat="45.41658" lon="5.74249">
        <ele>387.35</ele>
        <time>2024-01-30T00:49:03Z</time>
      </trkpt>
      <trkpt lat="45.41645" lon="5.74216">
        <ele>387.36</ele>
        <time>2024-01-30T00:49:09Z</time>
      </trkpt>
      <trkpt lat="45.416" lon="5.7412">
        <ele>388.1</ele>
        <time>2024-01-30T00:49:28Z</time>
      </trkpt>
      <trkpt lat="45.41571" lon="5.74047">
        <ele>388.56</ele>
        <time>2024-01-30T00:49:41Z</time>
      </trkpt>
      <trkpt lat="45.41556" lon="5.7402">
        <ele>388.52</ele>
        <time>2024-01-30T00:49:46Z</time>
      </trkpt>
      <trkpt lat="45.41544" lon="5.74004">
        <ele>388.62</ele>
        <time>2024-01-30T00:49:50Z</time>
      </trkpt>
      <trkpt lat="45.41513" lon="5.73969">
        <ele>389.01</ele>
        <time>2024-01-30T00:49:59Z</time>
      </trkpt>
      <trkpt lat="45.41463" lon="5.73919">
        <ele>388.95</ele>
        <time>2024-01-30T00:50:11Z</time>
      </trkpt>
      <trkpt lat="45.41377" lon="5.73833">
        <ele>388.82</ele>
        <time>2024-01-30T00:50:32Z</time>
      </trkpt>
      <trkpt lat="45.41355" lon="5.73808">
        <ele>389.61</ele>
        <time>2024-01-30T00:50:38Z</time>
      </trkpt>
      <trkpt lat="45.41362" lon="5.73795">
        <ele>389.47</ele>
        <time>2024-01-30T00:50:41Z</time>
      </trkpt>
      <trkpt lat="45.41282" lon="5.73707">
        <ele>390.9</ele>
        <time>2024-01-30T00:51:05Z</time>
      </trkpt>
      <trkpt lat="45.41102" lon="5.73436">
        <ele>391.63</ele>
        <time>2024-01-30T00:52:14Z</time>
      </trkpt>
      <trkpt lat="45.4099" lon="5.73262">
        <ele>393.33</ele>
        <time>2024-01-30T00:52:52Z</time>
      </trkpt>
      <trkpt lat="45.40965" lon="5.73209">
        <ele>393.53</ele>
        <time>2024-01-30T00:53:02Z</time>
      </trkpt>
      <trkpt lat="45.40944" lon="5.73152">
        <ele>393.64</ele>
        <time>2024-01-30T00:53:11Z</time>
      </trkpt>
      <trkpt lat="45.40823" lon="5.72798">
        <ele>395.13</ele>
        <time>2024-01-30T00:54:09Z</time>
      </trkpt>
      <trkpt lat="45.4082" lon="5.72781">
        <ele>395.44</ele>
        <time>2024-01-30T00:54:12Z</time>
      </trkpt>
      <trkpt lat="45.4081" lon="5.7279">
        <ele>395.2</ele>
        <time>2024-01-30T00:54:15Z</time>
      </trkpt>
      <trkpt lat="45.40805" lon="5.72795">
        <ele>395.14</ele>
        <time>2024-01-30T00:54:16Z</time>
      </trkpt>
      <trkpt lat="45.40802" lon="5.72798">
        <ele>395.11</ele>
        <time>2024-01-30T00:54:17Z</time>
      </trkpt>
      <trkpt lat="45.4072" lon="5.72621">
        <ele>395.27</ele>
        <time>2024-01-30T00:54:47Z</time>
      </trkpt>
      <trkpt lat="45.40626" lon="5.72452">
        <ele>396.01</ele>
        <time>2024-01-30T00:55:18Z</time>
      </trkpt>
      <trkpt lat="45.40363" lon="5.72115">
        <ele>396.23</ele>
        <time>2024-01-30T00:56:28Z</time>
      </trkpt>
      <trkpt lat="45.40255" lon="5.72235">
        <ele>395.96</ele>
        <time>2024-01-30T00:56:53Z</time>
      </trkpt>
      <trkpt lat="45.40213" lon="5.72276">
        <ele>396.49</ele>
        <time>2024-01-30T00:57:02Z</time>
      </trkpt>
      <trkpt lat="45.40195" lon="5.72288">
        <ele>396.85</ele>
        <time>2024-01-30T00:57:05Z</time>
      </trkpt>
      <trkpt lat="45.40153" lon="5.72312">
        <ele>398.42</ele>
        <time>2024-01-30T00:57:13Z</time>
      </trkpt>
      <trkpt lat="45.40118" lon="5.72327">
        <ele>399.53</ele>
        <time>2024-01-30T00:57:20Z</time>
      </trkpt>
      <trkpt lat="45.40091" lon="5.72332">
        <ele>399.46</ele>
        <time>2024-01-30T00:57:25Z</time>
      </trkpt>
      <trkpt lat="45.40084" lon="5.72325">
        <ele>399.52</ele>
        <time>2024-01-30T00:57:26Z</time>
      </trkpt>
      <trkpt lat="45.40065" lon="5.72311">
        <ele>399.68</ele>
        <time>2024-01-30T00:57:30Z</time>
      </trkpt>
      <trkpt lat="45.40032" lon="5.72332">
        <ele>399.42</ele>
        <time>2024-01-30T00:57:37Z</time>
      </trkpt>
      <trkpt lat="45.39984" lon="5.7236">
        <ele>399.47</ele>
        <time>2024-01-30T00:57:46Z</time>
      </trkpt>
      <trkpt lat="45.39963" lon="5.72376">
        <ele>399.52</ele>
        <time>2024-01-30T00:57:50Z</time>
      </trkpt>
      <trkpt lat="45.39936" lon="5.72412">
        <ele>399.75</ele>
        <time>2024-01-30T00:57:57Z</time>
      </trkpt>
      <trkpt lat="45.39917" lon="5.72448">
        <ele>400.06</ele>
        <time>2024-01-30T00:58:04Z</time>
      </trkpt>
      <trkpt lat="45.39906" lon="5.72466">
        <ele>400.27</ele>
        <time>2024-01-30T00:58:07Z</time>
      </trkpt>
      <trkpt lat="45.39888" lon="5.72485">
        <ele>400.41</ele>
        <time>2024-01-30T00:58:11Z</time>
      </trkpt>
      <trkpt lat="45.39745" lon="5.72618">
        <ele>401.32</ele>
        <time>2024-01-30T00:58:46Z</time>
      </trkpt>
      <trkpt lat="45.39649" lon="5.72706">
        <ele>402.85</ele>
        <time>2024-01-30T00:59:12Z</time>
      </trkpt>
      <trkpt lat="45.39611" lon="5.72739">
        <ele>403.3</ele>
        <time>2024-01-30T00:59:22Z</time>
      </trkpt>
      <trkpt lat="45.39606" lon="5.72743">
        <ele>403.38</ele>
        <time>2024-01-30T00:59:24Z</time>
      </trkpt>
      <trkpt lat="45.39582" lon="5.72765">
        <ele>403.62</ele>
        <time>2024-01-30T00:59:30Z</time>
      </trkpt>
      <trkpt lat="45.39556" lon="5.72789">
        <ele>403.93</ele>
        <time>2024-01-30T00:59:38Z</time>
      </trkpt>
      <trkpt lat="45.39548" lon="5.728">
        <ele>404.05</ele>
        <time>2024-01-30T00:59:41Z</time>
      </trkpt>
      <trkpt lat="45.39508" lon="5.72848">
        <ele>404.5</ele>
        <time>2024-01-30T00:59:53Z</time>
      </trkpt>
      <trkpt lat="45.39485" lon="5.72881">
        <ele>404.78</ele>
        <time>2024-01-30T01:00:01Z</time>
      </trkpt>
      <trkpt lat="45.39461" lon="5.72915">
        <ele>405.07</ele>
        <time>2024-01-30T01:00:10Z</time>
      </trkpt>
      <trkpt lat="45.39429" lon="5.7295">
        <ele>405.37</ele>
        <time>2024-01-30T01:00:20Z</time>
      </trkpt>
      <trkpt lat="45.39369" lon="5.73004">
        <ele>405.9</ele>
        <time>2024-01-30T01:00:38Z</time>
      </trkpt>
      <trkpt lat="45.39287" lon="5.73078">
        <ele>407.2</ele>
        <time>2024-01-30T01:01:02Z</time>
      </trkpt>
      <trkpt lat="45.39284" lon="5.73077">
        <ele>407.26</ele>
        <time>2024-01-30T01:01:03Z</time>
      </trkpt>
      <trkpt lat="45.39278" lon="5.73083">
        <ele>407.28</ele>
        <time>2024-01-30T01:01:05Z</time>
      </trkpt>
      <trkpt lat="45.39268" lon="5.73081">
        <ele>407.44</ele>
        <time>2024-01-30T01:01:08Z</time>
      </trkpt>
      <trkpt lat="45.39236" lon="5.7307">
        <ele>407.78</ele>
        <time>2024-01-30T01:01:16Z</time>
      </trkpt>
      <trkpt lat="45.39223" lon="5.73078">
        <ele>407.6</ele>
        <time>2024-01-30T01:01:19Z</time>
      </trkpt>
      <trkpt lat="45.39175" lon="5.73132">
        <ele>407.19</ele>
        <time>2024-01-30T01:01:34Z</time>
      </trkpt>
      <trkpt lat="45.3915" lon="5.73165">
        <ele>407.27</ele>
        <time>2024-01-30T01:01:42Z</time>
      </trkpt>
      <trkpt lat="45.39109" lon="5.73219">
        <ele>407.81</ele>
        <time>2024-01-30T01:01:55Z</time>
      </trkpt>
      <trkpt lat="45.39085" lon="5.73243">
        <ele>408.05</ele>
        <time>2024-01-30T01:02:01Z</time>
      </trkpt>
      <trkpt lat="45.39068" lon="5.73259">
        <ele>408.23</ele>
        <time>2024-01-30T01:02:05Z</time>
      </trkpt>
      <trkpt lat="45.39032" lon="5.73296">
        <ele>408.69</ele>
        <time>2024-01-30T01:02:15Z</time>
      </trkpt>
      <trkpt lat="45.38999" lon="5.7332">
        <ele>409.04</ele>
        <time>2024-01-30T01:02:23Z</time>
      </trkpt>
      <trkpt lat="45.38994" lon="5.73323">
        <ele>409.1</ele>
        <time>2024-01-30T01:02:24Z</time>
      </trkpt>
      <trkpt lat="45.39016" lon="5.73434">
        <ele>408.49</ele>
        <time>2024-01-30T01:02:42Z</time>
      </trkpt>
      <trkpt lat="45.39011" lon="5.73438">
        <ele>408.36</ele>
        <time>2024-01-30T01:02:43Z</time>
      </trkpt>
      <trkpt lat="45.38978" lon="5.73464">
        <ele>408.28</ele>
        <time>2024-01-30T01:02:52Z</time>
      </trkpt>
      <trkpt lat="45.38957" lon="5.73485">
        <ele>408.7</ele>
        <time>2024-01-30T01:02:57Z</time>
      </trkpt>
      <trkpt lat="45.38897" lon="5.73558">
        <ele>409.97</ele>
        <time>2024-01-30T01:03:16Z</time>
      </trkpt>
      <trkpt lat="45.38875" lon="5.73571">
        <ele>410.29</ele>
        <time>2024-01-30T01:03:22Z</time>
      </trkpt>
      <trkpt lat="45.3887" lon="5.73574">
        <ele>410.34</ele>
        <time>2024-01-30T01:03:24Z</time>
      </trkpt>
      <trkpt lat="45.38857" lon="5.7358">
        <ele>410.54</ele>
        <time>2024-01-30T01:03:27Z</time>
      </trkpt>
      <trkpt lat="45.38856" lon="5.73575">
        <ele>410.58</ele>
        <time>2024-01-30T01:03:28Z</time>
      </trkpt>
      <trkpt lat="45.3885" lon="5.7357">
        <ele>410.79</ele>
        <time>2024-01-30T01:03:30Z</time>
      </trkpt>
      <trkpt lat="45.3881" lon="5.73563">
        <ele>411.59</ele>
        <time>2024-01-30T01:03:40Z</time>
      </trkpt>
      <trkpt lat="45.38805" lon="5.73562">
        <ele>411.59</ele>
        <time>2024-01-30T01:03:42Z</time>
      </trkpt>
      <trkpt lat="45.38801" lon="5.73563">
        <ele>411.56</ele>
        <time>2024-01-30T01:03:43Z</time>
      </trkpt>
      <trkpt lat="45.38797" lon="5.7357">
        <ele>411.31</ele>
        <time>2024-01-30T01:03:44Z</time>
      </trkpt>
      <trkpt lat="45.38773" lon="5.73568">
        <ele>411.34</ele>
        <time>2024-01-30T01:03:51Z</time>
      </trkpt>
      <trkpt lat="45.3876" lon="5.73569">
        <ele>411.78</ele>
        <time>2024-01-30T01:03:54Z</time>
      </trkpt>
      <trkpt lat="45.38738" lon="5.73572">
        <ele>412.87</ele>
        <time>2024-01-30T01:04:01Z</time>
      </trkpt>
      <trkpt lat="45.38707" lon="5.73569">
        <ele>414.11</ele>
        <time>2024-01-30T01:04:10Z</time>
      </trkpt>
      <trkpt lat="45.38701" lon="5.73572">
        <ele>414.19</ele>
        <time>2024-01-30T01:04:13Z</time>
      </trkpt>
      <trkpt lat="45.3864" lon="5.73576">
        <ele>412.96</ele>
        <time>2024-01-30T01:04:37Z</time>
      </trkpt>
      <trkpt lat="45.38608" lon="5.73575">
        <ele>412.46</ele>
        <time>2024-01-30T01:04:52Z</time>
      </trkpt>
      <trkpt lat="45.38587" lon="5.73562">
        <ele>412.73</ele>
        <time>2024-01-30T01:05:03Z</time>
      </trkpt>
      <trkpt lat="45.3855" lon="5.73548">
        <ele>413.38</ele>
        <time>2024-01-30T01:05:22Z</time>
      </trkpt>
      <trkpt lat="45.38516" lon="5.7353">
        <ele>417.84</ele>
        <time>2024-01-30T01:05:41Z</time>
      </trkpt>
      <trkpt lat="45.38487" lon="5.73522">
        <ele>419.34</ele>
        <time>2024-01-30T01:05:57Z</time>
      </trkpt>
      <trkpt lat="45.38443" lon="5.73526">
        <ele>418.32</ele>
        <time>2024-01-30T01:06:20Z</time>
      </trkpt>
      <trkpt lat="45.38409" lon="5.73526">
        <ele>420.13</ele>
        <time>2024-01-30T01:06:37Z</time>
      </trkpt>
      <trkpt lat="45.38367" lon="5.73525">
        <ele>421.3</ele>
        <time>2024-01-30T01:06:56Z</time>
      </trkpt>
      <trkpt lat="45.38288" lon="5.73531">
        <ele>425.16</ele>
        <time>2024-01-30T01:07:27Z</time>
      </trkpt>
      <trkpt lat="45.38258" lon="5.73537">
        <ele>426.8</ele>
        <time>2024-01-30T01:07:38Z</time>
      </trkpt>
      <trkpt lat="45.38198" lon="5.7356">
        <ele>423.95</ele>
        <time>2024-01-30T01:07:57Z</time>
      </trkpt>
      <trkpt lat="45.38158" lon="5.73579">
        <ele>417.55</ele>
        <time>2024-01-30T01:08:09Z</time>
      </trkpt>
      <trkpt lat="45.38137" lon="5.73594">
        <ele>415.85</ele>
        <time>2024-01-30T01:08:15Z</time>
      </trkpt>
      <trkpt lat="45.38115" lon="5.73618">
        <ele>415.91</ele>
        <time>2024-01-30T01:08:24Z</time>
      </trkpt>
      <trkpt lat="45.38094" lon="5.73647">
        <ele>416.27</ele>
        <time>2024-01-30T01:08:34Z</time>
      </trkpt>
      <trkpt lat="45.38063" lon="5.73709">
        <ele>416.2</ele>
        <time>2024-01-30T01:08:50Z</time>
      </trkpt>
      <trkpt lat="45.38054" lon="5.73713">
        <ele>417.42</ele>
        <time>2024-01-30T01:08:54Z</time>
      </trkpt>
      <trkpt lat="45.38031" lon="5.7375">
        <ele>419.57</ele>
        <time>2024-01-30T01:09:03Z</time>
      </trkpt>
      <trkpt lat="45.38021" lon="5.73761">
        <ele>420.79</ele>
        <time>2024-01-30T01:09:07Z</time>
      </trkpt>
      <trkpt lat="45.37996" lon="5.7378">
        <ele>425.62</ele>
        <time>2024-01-30T01:09:15Z</time>
      </trkpt>
      <trkpt lat="45.37959" lon="5.73817">
        <ele>430.94</ele>
        <time>2024-01-30T01:09:32Z</time>
      </trkpt>
      <trkpt lat="45.37946" lon="5.73839">
        <ele>430.78</ele>
        <time>2024-01-30T01:09:40Z</time>
      </trkpt>
      <trkpt lat="45.37933" lon="5.73901">
        <ele>428.11</ele>
        <time>2024-01-30T01:10:02Z</time>
      </trkpt>
      <trkpt lat="45.37924" lon="5.73919">
        <ele>429.55</ele>
        <time>2024-01-30T01:10:09Z</time>
      </trkpt>
      <trkpt lat="45.37912" lon="5.73936">
        <ele>431.07</ele>
        <time>2024-01-30T01:10:18Z</time>
      </trkpt>
      <trkpt lat="45.37898" lon="5.73944">
        <ele>438.38</ele>
        <time>2024-01-30T01:10:25Z</time>
      </trkpt>
      <trkpt lat="45.37866" lon="5.73943">
        <ele>451.76</ele>
        <time>2024-01-30T01:10:40Z</time>
      </trkpt>
      <trkpt lat="45.3786" lon="5.73946">
        <ele>452.97</ele>
        <time>2024-01-30T01:10:43Z</time>
      </trkpt>
      <trkpt lat="45.3785" lon="5.73959">
        <ele>456.16</ele>
        <time>2024-01-30T01:10:50Z</time>
      </trkpt>
      <trkpt lat="45.37832" lon="5.73989">
        <ele>459.02</ele>
        <time>2024-01-30T01:11:05Z</time>
      </trkpt>
      <trkpt lat="45.37808" lon="5.74059">
        <ele>463.88</ele>
        <time>2024-01-30T01:11:41Z</time>
      </trkpt>
      <trkpt lat="45.37802" lon="5.74085">
        <ele>464.09</ele>
        <time>2024-01-30T01:11:55Z</time>
      </trkpt>
      <trkpt lat="45.37804" lon="5.74113">
        <ele>462.79</ele>
        <time>2024-01-30T01:12:10Z</time>
      </trkpt>
      <trkpt lat="45.378" lon="5.74132">
        <ele>462.54</ele>
        <time>2024-01-30T01:12:18Z</time>
      </trkpt>
      <trkpt lat="45.37795" lon="5.74138">
        <ele>467.1</ele>
        <time>2024-01-30T01:12:22Z</time>
      </trkpt>
      <trkpt lat="45.3779" lon="5.74141">
        <ele>469.5</ele>
        <time>2024-01-30T01:12:27Z</time>
      </trkpt>
      <trkpt lat="45.37783" lon="5.74139">
        <ele>471.83</ele>
        <time>2024-01-30T01:12:32Z</time>
      </trkpt>
      <trkpt lat="45.37778" lon="5.74131">
        <ele>476.63</ele>
        <time>2024-01-30T01:12:37Z</time>
      </trkpt>
      <trkpt lat="45.37774" lon="5.74122">
        <ele>476.52</ele>
        <time>2024-01-30T01:12:41Z</time>
      </trkpt>
      <trkpt lat="45.37773" lon="5.74079">
        <ele>478.92</ele>
        <time>2024-01-30T01:13:00Z</time>
      </trkpt>
      <trkpt lat="45.37769" lon="5.74058">
        <ele>481.48</ele>
        <time>2024-01-30T01:13:08Z</time>
      </trkpt>
      <trkpt lat="45.37757" lon="5.74018">
        <ele>488.5</ele>
        <time>2024-01-30T01:13:28Z</time>
      </trkpt>
      <trkpt lat="45.37755" lon="5.73999">
        <ele>489.43</ele>
        <time>2024-01-30T01:13:37Z</time>
      </trkpt>
      <trkpt lat="45.37757" lon="5.73984">
        <ele>490.82</ele>
        <time>2024-01-30T01:13:45Z</time>
      </trkpt>
      <trkpt lat="45.37766" lon="5.73959">
        <ele>487.48</ele>
        <time>2024-01-30T01:13:58Z</time>
      </trkpt>
      <trkpt lat="45.37771" lon="5.73914">
        <ele>491.17</ele>
        <time>2024-01-30T01:14:21Z</time>
      </trkpt>
      <trkpt lat="45.37781" lon="5.73858">
        <ele>497.24</ele>
        <time>2024-01-30T01:14:51Z</time>
      </trkpt>
      <trkpt lat="45.37785" lon="5.73813">
        <ele>503.52</ele>
        <time>2024-01-30T01:15:14Z</time>
      </trkpt>
      <trkpt lat="45.37783" lon="5.73772">
        <ele>506.2</ele>
        <time>2024-01-30T01:15:35Z</time>
      </trkpt>
      <trkpt lat="45.37769" lon="5.73729">
        <ele>510.82</ele>
        <time>2024-01-30T01:16:01Z</time>
      </trkpt>
      <trkpt lat="45.37768" lon="5.73713">
        <ele>512.04</ele>
        <time>2024-01-30T01:16:10Z</time>
      </trkpt>
      <trkpt lat="45.37776" lon="5.7368">
        <ele>514.41</ele>
        <time>2024-01-30T01:16:30Z</time>
      </trkpt>
      <trkpt lat="45.37779" lon="5.73658">
        <ele>518.91</ele>
        <time>2024-01-30T01:16:44Z</time>
      </trkpt>
      <trkpt lat="45.37771" lon="5.73638">
        <ele>524.19</ele>
        <time>2024-01-30T01:16:57Z</time>
      </trkpt>
      <trkpt lat="45.37763" lon="5.7363">
        <ele>527.58</ele>
        <time>2024-01-30T01:17:06Z</time>
      </trkpt>
      <trkpt lat="45.3775" lon="5.73629">
        <ele>529.49</ele>
        <time>2024-01-30T01:17:16Z</time>
      </trkpt>
      <trkpt lat="45.37733" lon="5.73636">
        <ele>531.4</ele>
        <time>2024-01-30T01:17:30Z</time>
      </trkpt>
      <trkpt lat="45.377" lon="5.73683">
        <ele>531.52</ele>
        <time>2024-01-30T01:18:03Z</time>
      </trkpt>
      <trkpt lat="45.37667" lon="5.73716">
        <ele>540.62</ele>
        <time>2024-01-30T01:18:29Z</time>
      </trkpt>
      <trkpt lat="45.37661" lon="5.73724">
        <ele>544.47</ele>
        <time>2024-01-30T01:18:34Z</time>
      </trkpt>
      <trkpt lat="45.37655" lon="5.73741">
        <ele>547.7</ele>
        <time>2024-01-30T01:18:43Z</time>
      </trkpt>
      <trkpt lat="45.37654" lon="5.73763">
        <ele>550.33</ele>
        <time>2024-01-30T01:18:54Z</time>
      </trkpt>
      <trkpt lat="45.37656" lon="5.73776">
        <ele>552.11</ele>
        <time>2024-01-30T01:19:01Z</time>
      </trkpt>
      <trkpt lat="45.37663" lon="5.73793">
        <ele>550.27</ele>
        <time>2024-01-30T01:19:11Z</time>
      </trkpt>
      <trkpt lat="45.37691" lon="5.73839">
        <ele>541.25</ele>
        <time>2024-01-30T01:19:46Z</time>
      </trkpt>
      <trkpt lat="45.37695" lon="5.73852">
        <ele>539.27</ele>
        <time>2024-01-30T01:19:55Z</time>
      </trkpt>
      <trkpt lat="45.37694" lon="5.73858">
        <ele>539.14</ele>
        <time>2024-01-30T01:19:58Z</time>
      </trkpt>
      <trkpt lat="45.37684" lon="5.7387">
        <ele>543.62</ele>
        <time>2024-01-30T01:20:09Z</time>
      </trkpt>
      <trkpt lat="45.37656" lon="5.73874">
        <ele>553.77</ele>
        <time>2024-01-30T01:20:33Z</time>
      </trkpt>
      <trkpt lat="45.37625" lon="5.73907">
        <ele>557.23</ele>
        <time>2024-01-30T01:21:07Z</time>
      </trkpt>
      <trkpt lat="45.37599" lon="5.73918">
        <ele>566.24</ele>
        <time>2024-01-30T01:21:32Z</time>
      </trkpt>
      <trkpt lat="45.37589" lon="5.73925">
        <ele>570.46</ele>
        <time>2024-01-30T01:21:42Z</time>
      </trkpt>
      <trkpt lat="45.3758" lon="5.73936">
        <ele>572.96</ele>
        <time>2024-01-30T01:21:53Z</time>
      </trkpt>
      <trkpt lat="45.37559" lon="5.73975">
        <ele>578.88</ele>
        <time>2024-01-30T01:22:24Z</time>
      </trkpt>
      <trkpt lat="45.37534" lon="5.74042">
        <ele>588.47</ele>
        <time>2024-01-30T01:23:08Z</time>
      </trkpt>
      <trkpt lat="45.37513" lon="5.74086">
        <ele>601.61</ele>
        <time>2024-01-30T01:23:35Z</time>
      </trkpt>
      <trkpt lat="45.37504" lon="5.74109">
        <ele>606.96</ele>
        <time>2024-01-30T01:23:50Z</time>
      </trkpt>
      <trkpt lat="45.37515" lon="5.74181">
        <ele>606.57</ele>
        <time>2024-01-30T01:24:34Z</time>
      </trkpt>
      <trkpt lat="45.37509" lon="5.74217">
        <ele>608.51</ele>
        <time>2024-01-30T01:24:55Z</time>
      </trkpt>
      <trkpt lat="45.37503" lon="5.74251">
        <ele>609.15</ele>
        <time>2024-01-30T01:25:14Z</time>
      </trkpt>
      <trkpt lat="45.37496" lon="5.74271">
        <ele>608.74</ele>
        <time>2024-01-30T01:25:24Z</time>
      </trkpt>
      <trkpt lat="45.37489" lon="5.74282">
        <ele>609.66</ele>
        <time>2024-01-30T01:25:31Z</time>
      </trkpt>
      <trkpt lat="45.37483" lon="5.74287">
        <ele>610.24</ele>
        <time>2024-01-30T01:25:36Z</time>
      </trkpt>
      <trkpt lat="45.37471" lon="5.74291">
        <ele>613.33</ele>
        <time>2024-01-30T01:25:42Z</time>
      </trkpt>
      <trkpt lat="45.37445" lon="5.74297">
        <ele>622.68</ele>
        <time>2024-01-30T01:25:55Z</time>
      </trkpt>
      <trkpt lat="45.37439" lon="5.74302">
        <ele>627.41</ele>
        <time>2024-01-30T01:25:57Z</time>
      </trkpt>
      <trkpt lat="45.37433" lon="5.74311">
        <ele>630.64</ele>
        <time>2024-01-30T01:26:00Z</time>
      </trkpt>
      <trkpt lat="45.37426" lon="5.74329">
        <ele>637.32</ele>
        <time>2024-01-30T01:26:06Z</time>
      </trkpt>
      <trkpt lat="45.37423" lon="5.74347">
        <ele>639.72</ele>
        <time>2024-01-30T01:26:10Z</time>
      </trkpt>
      <trkpt lat="45.3743" lon="5.74379">
        <ele>644.11</ele>
        <time>2024-01-30T01:26:18Z</time>
      </trkpt>
      <trkpt lat="45.37446" lon="5.74414">
        <ele>653.48</ele>
        <time>2024-01-30T01:26:24Z</time>
      </trkpt>
      <trkpt lat="45.37461" lon="5.74439">
        <ele>656.57</ele>
        <time>2024-01-30T01:26:30Z</time>
      </trkpt>
      <trkpt lat="45.37511" lon="5.74498">
        <ele>642.28</ele>
        <time>2024-01-30T01:26:38Z</time>
      </trkpt>
      <trkpt lat="45.37518" lon="5.74511">
        <ele>639.24</ele>
        <time>2024-01-30T01:26:40Z</time>
      </trkpt>
      <trkpt lat="45.3752" lon="5.74527">
        <ele>644.6</ele>
        <time>2024-01-30T01:26:41Z</time>
      </trkpt>
      <trkpt lat="45.37508" lon="5.7457">
        <ele>652.28</ele>
        <time>2024-01-30T01:26:46Z</time>
      </trkpt>
      <trkpt lat="45.37505" lon="5.74604">
        <ele>641.78</ele>
        <time>2024-01-30T01:26:50Z</time>
      </trkpt>
      <trkpt lat="45.37501" lon="5.7461">
        <ele>641.64</ele>
        <time>2024-01-30T01:26:51Z</time>
      </trkpt>
      <trkpt lat="45.37492" lon="5.74615">
        <ele>643.34</ele>
        <time>2024-01-30T01:26:54Z</time>
      </trkpt>
      <trkpt lat="45.37473" lon="5.74614">
        <ele>651.72</ele>
        <time>2024-01-30T01:27:00Z</time>
      </trkpt>
      <trkpt lat="45.37407" lon="5.74579">
        <ele>679.21</ele>
        <time>2024-01-30T01:27:38Z</time>
      </trkpt>
      <trkpt lat="45.37396" lon="5.74578">
        <ele>680.16</ele>
        <time>2024-01-30T01:27:46Z</time>
      </trkpt>
      <trkpt lat="45.37379" lon="5.74581">
        <ele>680</ele>
        <time>2024-01-30T01:27:59Z</time>
      </trkpt>
      <trkpt lat="45.37357" lon="5.74592">
        <ele>680.06</ele>
        <time>2024-01-30T01:28:18Z</time>
      </trkpt>
      <trkpt lat="45.37328" lon="5.74598">
        <ele>680.51</ele>
        <time>2024-01-30T01:28:42Z</time>
      </trkpt>
      <trkpt lat="45.37294" lon="5.74593">
        <ele>685.25</ele>
        <time>2024-01-30T01:29:12Z</time>
      </trkpt>
      <trkpt lat="45.37232" lon="5.74576">
        <ele>687.33</ele>
        <time>2024-01-30T01:30:08Z</time>
      </trkpt>
      <trkpt lat="45.37203" lon="5.74558">
        <ele>690</ele>
        <time>2024-01-30T01:30:40Z</time>
      </trkpt>
      <trkpt lat="45.37138" lon="5.74504">
        <ele>698.07</ele>
        <time>2024-01-30T01:32:02Z</time>
      </trkpt>
      <trkpt lat="45.37101" lon="5.74484">
        <ele>698.88</ele>
        <time>2024-01-30T01:32:42Z</time>
      </trkpt>
      <trkpt lat="45.37088" lon="5.74471">
        <ele>701.73</ele>
        <time>2024-01-30T01:32:57Z</time>
      </trkpt>
      <trkpt lat="45.37064" lon="5.74436">
        <ele>716.02</ele>
        <time>2024-01-30T01:33:23Z</time>
      </trkpt>
      <trkpt lat="45.37051" lon="5.74427">
        <ele>720.55</ele>
        <time>2024-01-30T01:33:33Z</time>
      </trkpt>
      <trkpt lat="45.37036" lon="5.74427">
        <ele>721.71</ele>
        <time>2024-01-30T01:33:43Z</time>
      </trkpt>
      <trkpt lat="45.37013" lon="5.74432">
        <ele>728.16</ele>
        <time>2024-01-30T01:33:55Z</time>
      </trkpt>
      <trkpt lat="45.37" lon="5.74442">
        <ele>731.4</ele>
        <time>2024-01-30T01:34:04Z</time>
      </trkpt>
      <trkpt lat="45.36984" lon="5.74494">
        <ele>722.75</ele>
        <time>2024-01-30T01:34:23Z</time>
      </trkpt>
      <trkpt lat="45.36958" lon="5.74532">
        <ele>729.19</ele>
        <time>2024-01-30T01:34:38Z</time>
      </trkpt>
      <trkpt lat="45.36913" lon="5.74556">
        <ele>736.59</ele>
        <time>2024-01-30T01:34:55Z</time>
      </trkpt>
      <trkpt lat="45.36894" lon="5.74566">
        <ele>740.03</ele>
        <time>2024-01-30T01:35:03Z</time>
      </trkpt>
      <trkpt lat="45.36836" lon="5.74583">
        <ele>747.19</ele>
        <time>2024-01-30T01:35:17Z</time>
      </trkpt>
      <trkpt lat="45.36809" lon="5.74606">
        <ele>737.08</ele>
        <time>2024-01-30T01:35:30Z</time>
      </trkpt>
      <trkpt lat="45.36798" lon="5.74606">
        <ele>739.54</ele>
        <time>2024-01-30T01:35:36Z</time>
      </trkpt>
      <trkpt lat="45.36789" lon="5.74601">
        <ele>744.06</ele>
        <time>2024-01-30T01:35:41Z</time>
      </trkpt>
      <trkpt lat="45.36767" lon="5.7458">
        <ele>760.99</ele>
        <time>2024-01-30T01:35:57Z</time>
      </trkpt>
      <trkpt lat="45.36759" lon="5.74579">
        <ele>762.96</ele>
        <time>2024-01-30T01:36:02Z</time>
      </trkpt>
      <trkpt lat="45.36723" lon="5.74596">
        <ele>760.4</ele>
        <time>2024-01-30T01:36:28Z</time>
      </trkpt>
      <trkpt lat="45.36714" lon="5.746">
        <ele>758.77</ele>
        <time>2024-01-30T01:36:33Z</time>
      </trkpt>
      <trkpt lat="45.36702" lon="5.74599">
        <ele>758.5</ele>
        <time>2024-01-30T01:36:41Z</time>
      </trkpt>
      <trkpt lat="45.36688" lon="5.74591">
        <ele>760.68</ele>
        <time>2024-01-30T01:36:52Z</time>
      </trkpt>
      <trkpt lat="45.36622" lon="5.74516">
        <ele>780.74</ele>
        <time>2024-01-30T01:37:47Z</time>
      </trkpt>
      <trkpt lat="45.36558" lon="5.74478">
        <ele>786.97</ele>
        <time>2024-01-30T01:38:53Z</time>
      </trkpt>
      <trkpt lat="45.36526" lon="5.74454">
        <ele>789.35</ele>
        <time>2024-01-30T01:39:31Z</time>
      </trkpt>
      <trkpt lat="45.36506" lon="5.74422">
        <ele>796.07</ele>
        <time>2024-01-30T01:40:02Z</time>
      </trkpt>
      <trkpt lat="45.36464" lon="5.7437">
        <ele>804.26</ele>
        <time>2024-01-30T01:40:48Z</time>
      </trkpt>
      <trkpt lat="45.3645" lon="5.74356">
        <ele>807.18</ele>
        <time>2024-01-30T01:41:00Z</time>
      </trkpt>
      <trkpt lat="45.36431" lon="5.74349">
        <ele>809.65</ele>
        <time>2024-01-30T01:41:12Z</time>
      </trkpt>
      <trkpt lat="45.3642" lon="5.74352">
        <ele>811.77</ele>
        <time>2024-01-30T01:41:18Z</time>
      </trkpt>
      <trkpt lat="45.36411" lon="5.74359">
        <ele>813.35</ele>
        <time>2024-01-30T01:41:25Z</time>
      </trkpt>
      <trkpt lat="45.364" lon="5.74377">
        <ele>817.35</ele>
        <time>2024-01-30T01:41:34Z</time>
      </trkpt>
      <trkpt lat="45.36398" lon="5.74389">
        <ele>816.11</ele>
        <time>2024-01-30T01:41:38Z</time>
      </trkpt>
      <trkpt lat="45.36386" lon="5.74485">
        <ele>811.67</ele>
        <time>2024-01-30T01:42:07Z</time>
      </trkpt>
      <trkpt lat="45.36381" lon="5.74495">
        <ele>810.12</ele>
        <time>2024-01-30T01:42:10Z</time>
      </trkpt>
      <trkpt lat="45.36361" lon="5.74512">
        <ele>810.47</ele>
        <time>2024-01-30T01:42:17Z</time>
      </trkpt>
      <trkpt lat="45.36339" lon="5.74519">
        <ele>807.9</ele>
        <time>2024-01-30T01:42:22Z</time>
      </trkpt>
      <trkpt lat="45.36324" lon="5.74514">
        <ele>809.58</ele>
        <time>2024-01-30T01:42:25Z</time>
      </trkpt>
      <trkpt lat="45.36313" lon="5.74502">
        <ele>814.44</ele>
        <time>2024-01-30T01:42:27Z</time>
      </trkpt>
      <trkpt lat="45.36293" lon="5.74469">
        <ele>823.05</ele>
        <time>2024-01-30T01:42:35Z</time>
      </trkpt>
      <trkpt lat="45.36283" lon="5.74455">
        <ele>825.07</ele>
        <time>2024-01-30T01:42:39Z</time>
      </trkpt>
      <trkpt lat="45.3627" lon="5.74444">
        <ele>825.43</ele>
        <time>2024-01-30T01:42:44Z</time>
      </trkpt>
      <trkpt lat="45.36243" lon="5.74433">
        <ele>826.59</ele>
        <time>2024-01-30T01:42:56Z</time>
      </trkpt>
      <trkpt lat="45.36223" lon="5.74435">
        <ele>823.56</ele>
        <time>2024-01-30T01:43:06Z</time>
      </trkpt>
      <trkpt lat="45.36204" lon="5.74432">
        <ele>823.69</ele>
        <time>2024-01-30T01:43:15Z</time>
      </trkpt>
      <trkpt lat="45.36195" lon="5.74427">
        <ele>824.48</ele>
        <time>2024-01-30T01:43:20Z</time>
      </trkpt>
      <trkpt lat="45.36176" lon="5.74404">
        <ele>829.55</ele>
        <time>2024-01-30T01:43:32Z</time>
      </trkpt>
      <trkpt lat="45.36144" lon="5.74385">
        <ele>831.19</ele>
        <time>2024-01-30T01:43:47Z</time>
      </trkpt>
      <trkpt lat="45.36093" lon="5.74351">
        <ele>835.07</ele>
        <time>2024-01-30T01:44:11Z</time>
      </trkpt>
      <trkpt lat="45.36073" lon="5.74343">
        <ele>836.43</ele>
        <time>2024-01-30T01:44:21Z</time>
      </trkpt>
      <trkpt lat="45.3605" lon="5.7434">
        <ele>838.04</ele>
        <time>2024-01-30T01:44:32Z</time>
      </trkpt>
      <trkpt lat="45.3597" lon="5.74342">
        <ele>845.24</ele>
        <time>2024-01-30T01:45:15Z</time>
      </trkpt>
      <trkpt lat="45.35954" lon="5.74343">
        <ele>846.91</ele>
        <time>2024-01-30T01:45:23Z</time>
      </trkpt>
      <trkpt lat="45.35894" lon="5.74361">
        <ele>850.72</ele>
        <time>2024-01-30T01:45:54Z</time>
      </trkpt>
      <trkpt lat="45.35879" lon="5.74362">
        <ele>851.72</ele>
        <time>2024-01-30T01:46:01Z</time>
      </trkpt>
      <trkpt lat="45.35866" lon="5.74368">
        <ele>852.6</ele>
        <time>2024-01-30T01:46:08Z</time>
      </trkpt>
      <trkpt lat="45.35848" lon="5.74382">
        <ele>852.93</ele>
        <time>2024-01-30T01:46:18Z</time>
      </trkpt>
      <trkpt lat="45.35833" lon="5.74395">
        <ele>853.8</ele>
        <time>2024-01-30T01:46:27Z</time>
      </trkpt>
      <trkpt lat="45.3581" lon="5.74422">
        <ele>855.71</ele>
        <time>2024-01-30T01:46:42Z</time>
      </trkpt>
      <trkpt lat="45.35797" lon="5.7445">
        <ele>857.4</ele>
        <time>2024-01-30T01:46:54Z</time>
      </trkpt>
      <trkpt lat="45.35795" lon="5.74455">
        <ele>858.43</ele>
        <time>2024-01-30T01:46:56Z</time>
      </trkpt>
      <trkpt lat="45.35741" lon="5.74537">
        <ele>866.35</ele>
        <time>2024-01-30T01:47:39Z</time>
      </trkpt>
      <trkpt lat="45.3573" lon="5.74559">
        <ele>866.88</ele>
        <time>2024-01-30T01:47:51Z</time>
      </trkpt>
      <trkpt lat="45.35688" lon="5.74621">
        <ele>872.34</ele>
        <time>2024-01-30T01:48:33Z</time>
      </trkpt>
      <trkpt lat="45.35648" lon="5.74687">
        <ele>880.29</ele>
        <time>2024-01-30T01:49:25Z</time>
      </trkpt>
      <trkpt lat="45.35633" lon="5.74718">
        <ele>885.3</ele>
        <time>2024-01-30T01:49:46Z</time>
      </trkpt>
      <trkpt lat="45.35625" lon="5.74745">
        <ele>890.55</ele>
        <time>2024-01-30T01:50:00Z</time>
      </trkpt>
      <trkpt lat="45.35618" lon="5.74779">
        <ele>897.51</ele>
        <time>2024-01-30T01:50:16Z</time>
      </trkpt>
      <trkpt lat="45.35615" lon="5.74807">
        <ele>902.77</ele>
        <time>2024-01-30T01:50:27Z</time>
      </trkpt>
      <trkpt lat="45.35616" lon="5.74849">
        <ele>903.77</ele>
        <time>2024-01-30T01:50:39Z</time>
      </trkpt>
      <trkpt lat="45.35611" lon="5.74861">
        <ele>917.85</ele>
        <time>2024-01-30T01:50:44Z</time>
      </trkpt>
      <trkpt lat="45.35404" lon="5.75001">
        <ele>922.12</ele>
        <time>2024-01-30T01:51:39Z</time>
      </trkpt>
      <trkpt lat="45.35387" lon="5.74992">
        <ele>914.42</ele>
        <time>2024-01-30T01:51:44Z</time>
      </trkpt>
      <trkpt lat="45.35378" lon="5.74983">
        <ele>912.18</ele>
        <time>2024-01-30T01:51:47Z</time>
      </trkpt>
      <trkpt lat="45.35326" lon="5.74912">
        <ele>916.7</ele>
        <time>2024-01-30T01:52:14Z</time>
      </trkpt>
      <trkpt lat="45.35263" lon="5.74839">
        <ele>938.54</ele>
        <time>2024-01-30T01:53:11Z</time>
      </trkpt>
      <trkpt lat="45.35242" lon="5.74822">
        <ele>943.14</ele>
        <time>2024-01-30T01:53:30Z</time>
      </trkpt>
      <trkpt lat="45.35219" lon="5.74807">
        <ele>942.34</ele>
        <time>2024-01-30T01:53:52Z</time>
      </trkpt>
      <trkpt lat="45.3521" lon="5.74802">
        <ele>940.82</ele>
        <time>2024-01-30T01:54:00Z</time>
      </trkpt>
      <trkpt lat="45.35196" lon="5.74787">
        <ele>942.26</ele>
        <time>2024-01-30T01:54:15Z</time>
      </trkpt>
      <trkpt lat="45.35183" lon="5.74772">
        <ele>945.44</ele>
        <time>2024-01-30T01:54:29Z</time>
      </trkpt>
      <trkpt lat="45.35157" lon="5.74732">
        <ele>953.67</ele>
        <time>2024-01-30T01:55:00Z</time>
      </trkpt>
      <trkpt lat="45.35061" lon="5.74618">
        <ele>966.93</ele>
        <time>2024-01-30T01:57:04Z</time>
      </trkpt>
      <trkpt lat="45.34986" lon="5.74562">
        <ele>965.58</ele>
        <time>2024-01-30T01:58:37Z</time>
      </trkpt>
      <trkpt lat="45.34972" lon="5.74547">
        <ele>967.6</ele>
        <time>2024-01-30T01:58:56Z</time>
      </trkpt>
      <trkpt lat="45.34951" lon="5.74513">
        <ele>976.91</ele>
        <time>2024-01-30T01:59:30Z</time>
      </trkpt>
      <trkpt lat="45.34901" lon="5.74447">
        <ele>984.06</ele>
        <time>2024-01-30T02:00:25Z</time>
      </trkpt>
      <trkpt lat="45.34891" lon="5.74439">
        <ele>984.16</ele>
        <time>2024-01-30T02:00:32Z</time>
      </trkpt>
      <trkpt lat="45.34881" lon="5.7444">
        <ele>984.78</ele>
        <time>2024-01-30T02:00:38Z</time>
      </trkpt>
      <trkpt lat="45.34875" lon="5.74449">
        <ele>983.68</ele>
        <time>2024-01-30T02:00:43Z</time>
      </trkpt>
      <trkpt lat="45.34873" lon="5.74459">
        <ele>983.85</ele>
        <time>2024-01-30T02:00:46Z</time>
      </trkpt>
      <trkpt lat="45.34871" lon="5.74472">
        <ele>982.02</ele>
        <time>2024-01-30T02:00:50Z</time>
      </trkpt>
      <trkpt lat="45.34871" lon="5.74495">
        <ele>982.2</ele>
        <time>2024-01-30T02:00:56Z</time>
      </trkpt>
      <trkpt lat="45.34881" lon="5.74536">
        <ele>982.69</ele>
        <time>2024-01-30T02:01:02Z</time>
      </trkpt>
      <trkpt lat="45.34895" lon="5.74581">
        <ele>977.84</ele>
        <time>2024-01-30T02:01:06Z</time>
      </trkpt>
      <trkpt lat="45.34902" lon="5.74653">
        <ele>980.72</ele>
        <time>2024-01-30T02:01:12Z</time>
      </trkpt>
      <trkpt lat="45.34905" lon="5.74725">
        <ele>977.96</ele>
        <time>2024-01-30T02:01:18Z</time>
      </trkpt>
      <trkpt lat="45.34915" lon="5.748">
        <ele>980.86</ele>
        <time>2024-01-30T02:01:24Z</time>
      </trkpt>
      <trkpt lat="45.34924" lon="5.74889">
        <ele>973.33</ele>
        <time>2024-01-30T02:01:33Z</time>
      </trkpt>
      <trkpt lat="45.34924" lon="5.74907">
        <ele>972.8</ele>
        <time>2024-01-30T02:01:37Z</time>
      </trkpt>
      <trkpt lat="45.3492" lon="5.74917">
        <ele>974.1</ele>
        <time>2024-01-30T02:01:40Z</time>
      </trkpt>
      <trkpt lat="45.34914" lon="5.74921">
        <ele>975.93</ele>
        <time>2024-01-30T02:01:42Z</time>
      </trkpt>
      <trkpt lat="45.34895" lon="5.74916">
        <ele>981.37</ele>
        <time>2024-01-30T02:01:51Z</time>
      </trkpt>
      <trkpt lat="45.34871" lon="5.74924">
        <ele>982.02</ele>
        <time>2024-01-30T02:02:06Z</time>
      </trkpt>
      <trkpt lat="45.34863" lon="5.74935">
        <ele>980.61</ele>
        <time>2024-01-30T02:02:14Z</time>
      </trkpt>
      <trkpt lat="45.34855" lon="5.74955">
        <ele>976.94</ele>
        <time>2024-01-30T02:02:28Z</time>
      </trkpt>
      <trkpt lat="45.3481" lon="5.75076">
        <ele>979.63</ele>
        <time>2024-01-30T02:03:59Z</time>
      </trkpt>
      <trkpt lat="45.34793" lon="5.75131">
        <ele>982.86</ele>
        <time>2024-01-30T02:04:33Z</time>
      </trkpt>
      <trkpt lat="45.34788" lon="5.75162">
        <ele>983.61</ele>
        <time>2024-01-30T02:04:47Z</time>
      </trkpt>
      <trkpt lat="45.34784" lon="5.75214">
        <ele>986.74</ele>
        <time>2024-01-30T02:05:00Z</time>
      </trkpt>
      <trkpt lat="45.34786" lon="5.75326">
        <ele>990.68</ele>
        <time>2024-01-30T02:05:10Z</time>
      </trkpt>
      <trkpt lat="45.34783" lon="5.75416">
        <ele>974.97</ele>
        <time>2024-01-30T02:05:17Z</time>
      </trkpt>
      <trkpt lat="45.34778" lon="5.7545">
        <ele>979.7</ele>
        <time>2024-01-30T02:05:20Z</time>
      </trkpt>
      <trkpt lat="45.34762" lon="5.75504">
        <ele>994.22</ele>
        <time>2024-01-30T02:05:24Z</time>
      </trkpt>
      <trkpt lat="45.34719" lon="5.75563">
        <ele>998.05</ele>
        <time>2024-01-30T02:05:30Z</time>
      </trkpt>
      <trkpt lat="45.34679" lon="5.7562">
        <ele>980.32</ele>
        <time>2024-01-30T02:05:37Z</time>
      </trkpt>
      <trkpt lat="45.34673" lon="5.75623">
        <ele>983.02</ele>
        <time>2024-01-30T02:05:38Z</time>
      </trkpt>
      <trkpt lat="45.34661" lon="5.75623">
        <ele>989.55</ele>
        <time>2024-01-30T02:05:40Z</time>
      </trkpt>
      <trkpt lat="45.34644" lon="5.75616">
        <ele>998.6</ele>
        <time>2024-01-30T02:05:44Z</time>
      </trkpt>
      <trkpt lat="45.34632" lon="5.75616">
        <ele>1001.97</ele>
        <time>2024-01-30T02:05:49Z</time>
      </trkpt>
      <trkpt lat="45.34578" lon="5.75654">
        <ele>1001.13</ele>
        <time>2024-01-30T02:06:25Z</time>
      </trkpt>
      <trkpt lat="45.34569" lon="5.75665">
        <ele>1001.55</ele>
        <time>2024-01-30T02:06:35Z</time>
      </trkpt>
      <trkpt lat="45.34542" lon="5.75716">
        <ele>997.91</ele>
        <time>2024-01-30T02:07:13Z</time>
      </trkpt>
      <trkpt lat="45.34528" lon="5.75731">
        <ele>995.94</ele>
        <time>2024-01-30T02:07:28Z</time>
      </trkpt>
      <trkpt lat="45.34517" lon="5.75733">
        <ele>995.67</ele>
        <time>2024-01-30T02:07:38Z</time>
      </trkpt>
      <trkpt lat="45.34504" lon="5.75727">
        <ele>994.02</ele>
        <time>2024-01-30T02:07:51Z</time>
      </trkpt>
      <trkpt lat="45.34487" lon="5.75704">
        <ele>994.9</ele>
        <time>2024-01-30T02:08:10Z</time>
      </trkpt>
      <trkpt lat="45.34449" lon="5.75645">
        <ele>997.13</ele>
        <time>2024-01-30T02:08:56Z</time>
      </trkpt>
      <trkpt lat="45.34389" lon="5.75512">
        <ele>1014.61</ele>
        <time>2024-01-30T02:10:30Z</time>
      </trkpt>
      <trkpt lat="45.34381" lon="5.75499">
        <ele>1015.62</ele>
        <time>2024-01-30T02:10:39Z</time>
      </trkpt>
      <trkpt lat="45.3437" lon="5.75491">
        <ele>1015.98</ele>
        <time>2024-01-30T02:10:48Z</time>
      </trkpt>
      <trkpt lat="45.34353" lon="5.75486">
        <ele>1014.95</ele>
        <time>2024-01-30T02:11:01Z</time>
      </trkpt>
      <trkpt lat="45.34345" lon="5.75488">
        <ele>1014.23</ele>
        <time>2024-01-30T02:11:07Z</time>
      </trkpt>
      <trkpt lat="45.34335" lon="5.75489">
        <ele>1013.7</ele>
        <time>2024-01-30T02:11:13Z</time>
      </trkpt>
      <trkpt lat="45.34315" lon="5.75487">
        <ele>1013.95</ele>
        <time>2024-01-30T02:11:27Z</time>
      </trkpt>
      <trkpt lat="45.34265" lon="5.75437">
        <ele>1021.38</ele>
        <time>2024-01-30T02:12:11Z</time>
      </trkpt>
      <trkpt lat="45.34247" lon="5.75414">
        <ele>1022.19</ele>
        <time>2024-01-30T02:12:29Z</time>
      </trkpt>
      <trkpt lat="45.34225" lon="5.75368">
        <ele>1025.04</ele>
        <time>2024-01-30T02:12:58Z</time>
      </trkpt>
      <trkpt lat="45.34209" lon="5.75346">
        <ele>1027.34</ele>
        <time>2024-01-30T02:13:11Z</time>
      </trkpt>
      <trkpt lat="45.34188" lon="5.75324">
        <ele>1029.8</ele>
        <time>2024-01-30T02:13:26Z</time>
      </trkpt>
      <trkpt lat="45.34097" lon="5.7526">
        <ele>1036.64</ele>
        <time>2024-01-30T02:13:59Z</time>
      </trkpt>
      <trkpt lat="45.34054" lon="5.75236">
        <ele>1045.75</ele>
        <time>2024-01-30T02:14:11Z</time>
      </trkpt>
      <trkpt lat="45.34048" lon="5.75229">
        <ele>1047.56</ele>
        <time>2024-01-30T02:14:13Z</time>
      </trkpt>
      <trkpt lat="45.34035" lon="5.75194">
        <ele>1046.58</ele>
        <time>2024-01-30T02:14:20Z</time>
      </trkpt>
      <trkpt lat="45.34029" lon="5.75183">
        <ele>1047.43</ele>
        <time>2024-01-30T02:14:22Z</time>
      </trkpt>
      <trkpt lat="45.34003" lon="5.75163">
        <ele>1054.49</ele>
        <time>2024-01-30T02:14:27Z</time>
      </trkpt>
      <trkpt lat="45.33997" lon="5.75156">
        <ele>1056.46</ele>
        <time>2024-01-30T02:14:28Z</time>
      </trkpt>
      <trkpt lat="45.33989" lon="5.75135">
        <ele>1058.26</ele>
        <time>2024-01-30T02:14:31Z</time>
      </trkpt>
      <trkpt lat="45.33974" lon="5.75124">
        <ele>1060.44</ele>
        <time>2024-01-30T02:14:33Z</time>
      </trkpt>
      <trkpt lat="45.33943" lon="5.75117">
        <ele>1065.63</ele>
        <time>2024-01-30T02:14:37Z</time>
      </trkpt>
      <trkpt lat="45.33923" lon="5.75104">
        <ele>1068.18</ele>
        <time>2024-01-30T02:14:40Z</time>
      </trkpt>
      <trkpt lat="45.33889" lon="5.75057">
        <ele>1065.19</ele>
        <time>2024-01-30T02:14:46Z</time>
      </trkpt>
      <trkpt lat="45.33871" lon="5.75038">
        <ele>1064.92</ele>
        <time>2024-01-30T02:14:49Z</time>
      </trkpt>
      <trkpt lat="45.33865" lon="5.7503">
        <ele>1064.69</ele>
        <time>2024-01-30T02:14:51Z</time>
      </trkpt>
      <trkpt lat="45.33855" lon="5.75018">
        <ele>1064.67</ele>
        <time>2024-01-30T02:14:53Z</time>
      </trkpt>
      <trkpt lat="45.33805" lon="5.74969">
        <ele>1064.39</ele>
        <time>2024-01-30T02:15:02Z</time>
      </trkpt>
      <trkpt lat="45.3374" lon="5.74896">
        <ele>1065.96</ele>
        <time>2024-01-30T02:15:19Z</time>
      </trkpt>
      <trkpt lat="45.33684" lon="5.74842">
        <ele>1080.02</ele>
        <time>2024-01-30T02:15:41Z</time>
      </trkpt>
      <trkpt lat="45.33669" lon="5.74834">
        <ele>1084.86</ele>
        <time>2024-01-30T02:15:48Z</time>
      </trkpt>
      <trkpt lat="45.33655" lon="5.74829">
        <ele>1087.97</ele>
        <time>2024-01-30T02:15:54Z</time>
      </trkpt>
      <trkpt lat="45.33641" lon="5.74829">
        <ele>1089.5</ele>
        <time>2024-01-30T02:16:00Z</time>
      </trkpt>
      <trkpt lat="45.33595" lon="5.74842">
        <ele>1085.89</ele>
        <time>2024-01-30T02:16:21Z</time>
      </trkpt>
      <trkpt lat="45.33536" lon="5.74821">
        <ele>1091.4</ele>
        <time>2024-01-30T02:16:56Z</time>
      </trkpt>
      <trkpt lat="45.33467" lon="5.74805">
        <ele>1089.01</ele>
        <time>2024-01-30T02:17:41Z</time>
      </trkpt>
      <trkpt lat="45.33456" lon="5.74797">
        <ele>1090.23</ele>
        <time>2024-01-30T02:17:50Z</time>
      </trkpt>
      <trkpt lat="45.33284" lon="5.7465">
        <ele>1095.46</ele>
        <time>2024-01-30T02:20:22Z</time>
      </trkpt>
      <trkpt lat="45.33267" lon="5.7463">
        <ele>1096.36</ele>
        <time>2024-01-30T02:20:37Z</time>
      </trkpt>
      <trkpt lat="45.33222" lon="5.74557">
        <ele>1107.26</ele>
        <time>2024-01-30T02:21:21Z</time>
      </trkpt>
      <trkpt lat="45.33198" lon="5.74523">
        <ele>1110.71</ele>
        <time>2024-01-30T02:21:41Z</time>
      </trkpt>
      <trkpt lat="45.33171" lon="5.74474">
        <ele>1122.14</ele>
        <time>2024-01-30T02:22:03Z</time>
      </trkpt>
      <trkpt lat="45.33163" lon="5.74465">
        <ele>1124.86</ele>
        <time>2024-01-30T02:22:08Z</time>
      </trkpt>
      <trkpt lat="45.33087" lon="5.74401">
        <ele>1137.24</ele>
        <time>2024-01-30T02:22:49Z</time>
      </trkpt>
      <trkpt lat="45.33008" lon="5.74363">
        <ele>1145.43</ele>
        <time>2024-01-30T02:23:32Z</time>
      </trkpt>
      <trkpt lat="45.32955" lon="5.74326">
        <ele>1152.11</ele>
        <time>2024-01-30T02:24:10Z</time>
      </trkpt>
      <trkpt lat="45.32919" lon="5.74291">
        <ele>1153.81</ele>
        <time>2024-01-30T02:24:45Z</time>
      </trkpt>
      <trkpt lat="45.32889" lon="5.74256">
        <ele>1159.28</ele>
        <time>2024-01-30T02:25:19Z</time>
      </trkpt>
      <trkpt lat="45.32863" lon="5.74232">
        <ele>1163.54</ele>
        <time>2024-01-30T02:25:47Z</time>
      </trkpt>
      <trkpt lat="45.32842" lon="5.74201">
        <ele>1166.97</ele>
        <time>2024-01-30T02:26:15Z</time>
      </trkpt>
      <trkpt lat="45.32829" lon="5.74176">
        <ele>1170.3</ele>
        <time>2024-01-30T02:26:34Z</time>
      </trkpt>
      <trkpt lat="45.3282" lon="5.74168">
        <ele>1170.98</ele>
        <time>2024-01-30T02:26:43Z</time>
      </trkpt>
      <trkpt lat="45.32796" lon="5.74159">
        <ele>1173.42</ele>
        <time>2024-01-30T02:27:04Z</time>
      </trkpt>
      <trkpt lat="45.32772" lon="5.74162">
        <ele>1176.3</ele>
        <time>2024-01-30T02:27:23Z</time>
      </trkpt>
      <trkpt lat="45.32765" lon="5.74168">
        <ele>1177.68</ele>
        <time>2024-01-30T02:27:31Z</time>
      </trkpt>
      <trkpt lat="45.32759" lon="5.7418">
        <ele>1176.04</ele>
        <time>2024-01-30T02:27:40Z</time>
      </trkpt>
      <trkpt lat="45.32744" lon="5.74228">
        <ele>1175.67</ele>
        <time>2024-01-30T02:28:10Z</time>
      </trkpt>
      <trkpt lat="45.32711" lon="5.74272">
        <ele>1186.57</ele>
        <time>2024-01-30T02:28:46Z</time>
      </trkpt>
      <trkpt lat="45.32704" lon="5.7428">
        <ele>1191.32</ele>
        <time>2024-01-30T02:28:52Z</time>
      </trkpt>
      <trkpt lat="45.32688" lon="5.74289">
        <ele>1193.42</ele>
        <time>2024-01-30T02:29:05Z</time>
      </trkpt>
      <trkpt lat="45.32658" lon="5.74297">
        <ele>1192.31</ele>
        <time>2024-01-30T02:29:27Z</time>
      </trkpt>
      <trkpt lat="45.32623" lon="5.74287">
        <ele>1198.41</ele>
        <time>2024-01-30T02:29:51Z</time>
      </trkpt>
      <trkpt lat="45.32565" lon="5.74252">
        <ele>1207.41</ele>
        <time>2024-01-30T02:30:38Z</time>
      </trkpt>
      <trkpt lat="45.32523" lon="5.74234">
        <ele>1209.85</ele>
        <time>2024-01-30T02:31:14Z</time>
      </trkpt>
      <trkpt lat="45.32514" lon="5.74226">
        <ele>1211.78</ele>
        <time>2024-01-30T02:31:23Z</time>
      </trkpt>
      <trkpt lat="45.32452" lon="5.74149">
        <ele>1232.63</ele>
        <time>2024-01-30T02:32:30Z</time>
      </trkpt>
      <trkpt lat="45.32435" lon="5.7413">
        <ele>1237.65</ele>
        <time>2024-01-30T02:32:47Z</time>
      </trkpt>
      <trkpt lat="45.32388" lon="5.74108">
        <ele>1245.46</ele>
        <time>2024-01-30T02:33:23Z</time>
      </trkpt>
      <trkpt lat="45.32345" lon="5.74079">
        <ele>1250.52</ele>
        <time>2024-01-30T02:33:58Z</time>
      </trkpt>
      <trkpt lat="45.32318" lon="5.74066">
        <ele>1250.35</ele>
        <time>2024-01-30T02:34:17Z</time>
      </trkpt>
      <trkpt lat="45.32285" lon="5.74053">
        <ele>1253.73</ele>
        <time>2024-01-30T02:34:40Z</time>
      </trkpt>
      <trkpt lat="45.32224" lon="5.74045">
        <ele>1258.25</ele>
        <time>2024-01-30T02:35:23Z</time>
      </trkpt>
      <trkpt lat="45.32209" lon="5.74037">
        <ele>1259.64</ele>
        <time>2024-01-30T02:35:33Z</time>
      </trkpt>
      <trkpt lat="45.32198" lon="5.74026">
        <ele>1260.81</ele>
        <time>2024-01-30T02:35:43Z</time>
      </trkpt>
      <trkpt lat="45.32195" lon="5.74018">
        <ele>1261.26</ele>
        <time>2024-01-30T02:35:47Z</time>
      </trkpt>
      <trkpt lat="45.3219" lon="5.74012">
        <ele>1261.57</ele>
        <time>2024-01-30T02:35:51Z</time>
      </trkpt>
      <trkpt lat="45.32186" lon="5.74001">
        <ele>1262.19</ele>
        <time>2024-01-30T02:35:57Z</time>
      </trkpt>
      <trkpt lat="45.3216" lon="5.74036">
        <ele>1265.56</ele>
        <time>2024-01-30T02:36:25Z</time>
      </trkpt>
      <trkpt lat="45.3216" lon="5.74036">
        <ele>1266.08</ele>
        <time>2024-01-30T02:36:26Z</time>
      </trkpt>
      <trkpt lat="45.32147" lon="5.74046">
        <ele>1269.6</ele>
        <time>2024-01-30T02:36:37Z</time>
      </trkpt>
      <trkpt lat="45.32137" lon="5.74051">
        <ele>1271.83</ele>
        <time>2024-01-30T02:36:45Z</time>
      </trkpt>
      <trkpt lat="45.32101" lon="5.74046">
        <ele>1276.81</ele>
        <time>2024-01-30T02:37:11Z</time>
      </trkpt>
      <trkpt lat="45.32075" lon="5.74055">
        <ele>1281.59</ele>
        <time>2024-01-30T02:37:29Z</time>
      </trkpt>
      <trkpt lat="45.32037" lon="5.74058">
        <ele>1287.16</ele>
        <time>2024-01-30T02:37:53Z</time>
      </trkpt>
      <trkpt lat="45.32021" lon="5.74054">
        <ele>1288.35</ele>
        <time>2024-01-30T02:38:03Z</time>
      </trkpt>
      <trkpt lat="45.31977" lon="5.74031">
        <ele>1286.67</ele>
        <time>2024-01-30T02:38:29Z</time>
      </trkpt>
      <trkpt lat="45.31939" lon="5.7402">
        <ele>1286.81</ele>
        <time>2024-01-30T02:38:45Z</time>
      </trkpt>
      <trkpt lat="45.31888" lon="5.74015">
        <ele>1286.95</ele>
        <time>2024-01-30T02:39:00Z</time>
      </trkpt>
      <trkpt lat="45.31849" lon="5.74018">
        <ele>1289.4</ele>
        <time>2024-01-30T02:39:09Z</time>
      </trkpt>
      <trkpt lat="45.31821" lon="5.74028">
        <ele>1293.69</ele>
        <time>2024-01-30T02:39:16Z</time>
      </trkpt>
      <trkpt lat="45.31805" lon="5.7402">
        <ele>1293.56</ele>
        <time>2024-01-30T02:39:20Z</time>
      </trkpt>
      <trkpt lat="45.31781" lon="5.74017">
        <ele>1295.36</ele>
        <time>2024-01-30T02:39:25Z</time>
      </trkpt>
      <trkpt lat="45.31768" lon="5.74009">
        <ele>1295.39</ele>
        <time>2024-01-30T02:39:28Z</time>
      </trkpt>
      <trkpt lat="45.3175" lon="5.74004">
        <ele>1295.93</ele>
        <time>2024-01-30T02:39:32Z</time>
      </trkpt>
      <trkpt lat="45.31728" lon="5.74019">
        <ele>1296.69</ele>
        <time>2024-01-30T02:39:38Z</time>
      </trkpt>
      <trkpt lat="45.3171" lon="5.74023">
        <ele>1295.23</ele>
        <time>2024-01-30T02:39:42Z</time>
      </trkpt>
      <trkpt lat="45.31685" lon="5.74038">
        <ele>1290.83</ele>
        <time>2024-01-30T02:39:48Z</time>
      </trkpt>
      <trkpt lat="45.31655" lon="5.7407">
        <ele>1287.65</ele>
        <time>2024-01-30T02:39:56Z</time>
      </trkpt>
      <trkpt lat="45.31634" lon="5.74086">
        <ele>1286.17</ele>
        <time>2024-01-30T02:40:02Z</time>
      </trkpt>
      <trkpt lat="45.31613" lon="5.74105">
        <ele>1285.23</ele>
        <time>2024-01-30T02:40:09Z</time>
      </trkpt>
      <trkpt lat="45.31592" lon="5.74121">
        <ele>1282.7</ele>
        <time>2024-01-30T02:40:16Z</time>
      </trkpt>
      <trkpt lat="45.3157" lon="5.74145">
        <ele>1279.83</ele>
        <time>2024-01-30T02:40:25Z</time>
      </trkpt>
      <trkpt lat="45.31553" lon="5.74168">
        <ele>1278.26</ele>
        <time>2024-01-30T02:40:34Z</time>
      </trkpt>
      <trkpt lat="45.3153" lon="5.74182">
        <ele>1276.38</ele>
        <time>2024-01-30T02:40:44Z</time>
      </trkpt>
      <trkpt lat="45.31523" lon="5.7419">
        <ele>1275.6</ele>
        <time>2024-01-30T02:40:48Z</time>
      </trkpt>
      <trkpt lat="45.31511" lon="5.74213">
        <ele>1278.67</ele>
        <time>2024-01-30T02:40:57Z</time>
      </trkpt>
      <trkpt lat="45.31495" lon="5.74229">
        <ele>1280.84</ele>
        <time>2024-01-30T02:41:08Z</time>
      </trkpt>
      <trkpt lat="45.31462" lon="5.74229">
        <ele>1280.63</ele>
        <time>2024-01-30T02:41:28Z</time>
      </trkpt>
      <trkpt lat="45.31448" lon="5.7422">
        <ele>1279.05</ele>
        <time>2024-01-30T02:41:38Z</time>
      </trkpt>
      <trkpt lat="45.31427" lon="5.74211">
        <ele>1278.68</ele>
        <time>2024-01-30T02:41:54Z</time>
      </trkpt>
      <trkpt lat="45.31394" lon="5.74192">
        <ele>1276.98</ele>
        <time>2024-01-30T02:42:19Z</time>
      </trkpt>
      <trkpt lat="45.31377" lon="5.74173">
        <ele>1274.93</ele>
        <time>2024-01-30T02:42:36Z</time>
      </trkpt>
      <trkpt lat="45.31327" lon="5.74147">
        <ele>1275.78</ele>
        <time>2024-01-30T02:43:17Z</time>
      </trkpt>
      <trkpt lat="45.31304" lon="5.74125">
        <ele>1280.99</ele>
        <time>2024-01-30T02:43:38Z</time>
      </trkpt>
      <trkpt lat="45.31261" lon="5.7407">
        <ele>1289.61</ele>
        <time>2024-01-30T02:44:24Z</time>
      </trkpt>
      <trkpt lat="45.31216" lon="5.74034">
        <ele>1298.36</ele>
        <time>2024-01-30T02:45:01Z</time>
      </trkpt>
      <trkpt lat="45.31198" lon="5.7403">
        <ele>1302.04</ele>
        <time>2024-01-30T02:45:12Z</time>
      </trkpt>
      <trkpt lat="45.31136" lon="5.7399">
        <ele>1309.49</ele>
        <time>2024-01-30T02:45:48Z</time>
      </trkpt>
      <trkpt lat="45.31104" lon="5.73983">
        <ele>1314.88</ele>
        <time>2024-01-30T02:46:02Z</time>
      </trkpt>
      <trkpt lat="45.31068" lon="5.73968">
        <ele>1318.08</ele>
        <time>2024-01-30T02:46:16Z</time>
      </trkpt>
      <trkpt lat="45.31055" lon="5.73958">
        <ele>1318.4</ele>
        <time>2024-01-30T02:46:21Z</time>
      </trkpt>
      <trkpt lat="45.3105" lon="5.73948">
        <ele>1318.39</ele>
        <time>2024-01-30T02:46:23Z</time>
      </trkpt>
      <trkpt lat="45.31044" lon="5.73943">
        <ele>1318.58</ele>
        <time>2024-01-30T02:46:25Z</time>
      </trkpt>
      <trkpt lat="45.31021" lon="5.73935">
        <ele>1318.62</ele>
        <time>2024-01-30T02:46:31Z</time>
      </trkpt>
      <trkpt lat="45.31011" lon="5.73938">
        <ele>1318.74</ele>
        <time>2024-01-30T02:46:34Z</time>
      </trkpt>
      <trkpt lat="45.31004" lon="5.73948">
        <ele>1319.19</ele>
        <time>2024-01-30T02:46:37Z</time>
      </trkpt>
      <trkpt lat="45.30997" lon="5.73967">
        <ele>1321.19</ele>
        <time>2024-01-30T02:46:41Z</time>
      </trkpt>
      <trkpt lat="45.30991" lon="5.73971">
        <ele>1321.22</ele>
        <time>2024-01-30T02:46:42Z</time>
      </trkpt>
      <trkpt lat="45.3097" lon="5.73971">
        <ele>1321.14</ele>
        <time>2024-01-30T02:46:47Z</time>
      </trkpt>
      <trkpt lat="45.30949" lon="5.73962">
        <ele>1319.05</ele>
        <time>2024-01-30T02:46:53Z</time>
      </trkpt>
      <trkpt lat="45.30924" lon="5.73961">
        <ele>1317.03</ele>
        <time>2024-01-30T02:46:58Z</time>
      </trkpt>
      <trkpt lat="45.30868" lon="5.73933">
        <ele>1308.62</ele>
        <time>2024-01-30T02:47:11Z</time>
      </trkpt>
      <trkpt lat="45.30812" lon="5.73911">
        <ele>1304.17</ele>
        <time>2024-01-30T02:47:23Z</time>
      </trkpt>
      <trkpt lat="45.30803" lon="5.73904">
        <ele>1303.66</ele>
        <time>2024-01-30T02:47:25Z</time>
      </trkpt>
      <trkpt lat="45.30774" lon="5.739">
        <ele>1302.84</ele>
        <time>2024-01-30T02:47:31Z</time>
      </trkpt>
      <trkpt lat="45.30758" lon="5.73888">
        <ele>1299.84</ele>
        <time>2024-01-30T02:47:35Z</time>
      </trkpt>
      <trkpt lat="45.30735" lon="5.73878">
        <ele>1297.11</ele>
        <time>2024-01-30T02:47:40Z</time>
      </trkpt>
      <trkpt lat="45.30647" lon="5.7382">
        <ele>1281.26</ele>
        <time>2024-01-30T02:47:59Z</time>
      </trkpt>
      <trkpt lat="45.3063" lon="5.73812">
        <ele>1279.32</ele>
        <time>2024-01-30T02:48:03Z</time>
      </trkpt>
      <trkpt lat="45.30607" lon="5.73783">
        <ele>1275.57</ele>
        <time>2024-01-30T02:48:09Z</time>
      </trkpt>
      <trkpt lat="45.30589" lon="5.73756">
        <ele>1273.76</ele>
        <time>2024-01-30T02:48:15Z</time>
      </trkpt>
      <trkpt lat="45.30582" lon="5.73736">
        <ele>1273.43</ele>
        <time>2024-01-30T02:48:19Z</time>
      </trkpt>
      <trkpt lat="45.30576" lon="5.7372">
        <ele>1273.47</ele>
        <time>2024-01-30T02:48:21Z</time>
      </trkpt>
      <trkpt lat="45.30573" lon="5.73692">
        <ele>1271.71</ele>
        <time>2024-01-30T02:48:26Z</time>
      </trkpt>
      <trkpt lat="45.30576" lon="5.73668">
        <ele>1269.82</ele>
        <time>2024-01-30T02:48:30Z</time>
      </trkpt>
      <trkpt lat="45.3058" lon="5.73655">
        <ele>1268.59</ele>
        <time>2024-01-30T02:48:33Z</time>
      </trkpt>
      <trkpt lat="45.30483" lon="5.73586">
        <ele>1278.65</ele>
        <time>2024-01-30T02:49:12Z</time>
      </trkpt>
      <trkpt lat="45.30466" lon="5.73581">
        <ele>1279.88</ele>
        <time>2024-01-30T02:49:21Z</time>
      </trkpt>
      <trkpt lat="45.30435" lon="5.73579">
        <ele>1281.87</ele>
        <time>2024-01-30T02:49:38Z</time>
      </trkpt>
      <trkpt lat="45.30421" lon="5.73585">
        <ele>1282.57</ele>
        <time>2024-01-30T02:49:48Z</time>
      </trkpt>
      <trkpt lat="45.30339" lon="5.73665">
        <ele>1294.2</ele>
        <time>2024-01-30T02:50:57Z</time>
      </trkpt>
      <trkpt lat="45.30318" lon="5.73676">
        <ele>1296.99</ele>
        <time>2024-01-30T02:51:13Z</time>
      </trkpt>
      <trkpt lat="45.30291" lon="5.73678">
        <ele>1300.28</ele>
        <time>2024-01-30T02:51:33Z</time>
      </trkpt>
      <trkpt lat="45.30263" lon="5.73634">
        <ele>1306.24</ele>
        <time>2024-01-30T02:52:05Z</time>
      </trkpt>
      <trkpt lat="45.3023" lon="5.73614">
        <ele>1309.34</ele>
        <time>2024-01-30T02:52:30Z</time>
      </trkpt>
      <trkpt lat="45.30204" lon="5.73587">
        <ele>1311.65</ele>
        <time>2024-01-30T02:52:52Z</time>
      </trkpt>
      <trkpt lat="45.30171" lon="5.73566">
        <ele>1313.76</ele>
        <time>2024-01-30T02:53:15Z</time>
      </trkpt>
      <trkpt lat="45.30126" lon="5.73571">
        <ele>1320.28</ele>
        <time>2024-01-30T02:53:41Z</time>
      </trkpt>
      <trkpt lat="45.30096" lon="5.73547">
        <ele>1320.74</ele>
        <time>2024-01-30T02:53:58Z</time>
      </trkpt>
      <trkpt lat="45.30036" lon="5.73527">
        <ele>1323.06</ele>
        <time>2024-01-30T02:54:19Z</time>
      </trkpt>
      <trkpt lat="45.29974" lon="5.73513">
        <ele>1325.38</ele>
        <time>2024-01-30T02:54:35Z</time>
      </trkpt>
      <trkpt lat="45.29926" lon="5.7348">
        <ele>1321.69</ele>
        <time>2024-01-30T02:54:49Z</time>
      </trkpt>
      <trkpt lat="45.29924" lon="5.73449">
        <ele>1321.94</ele>
        <time>2024-01-30T02:54:54Z</time>
      </trkpt>
      <trkpt lat="45.29931" lon="5.73419">
        <ele>1325.37</ele>
        <time>2024-01-30T02:54:59Z</time>
      </trkpt>
      <trkpt lat="45.29938" lon="5.73407">
        <ele>1326.53</ele>
        <time>2024-01-30T02:55:02Z</time>
      </trkpt>
      <trkpt lat="45.29966" lon="5.73371">
        <ele>1327.27</ele>
        <time>2024-01-30T02:55:11Z</time>
      </trkpt>
      <trkpt lat="45.29982" lon="5.73343">
        <ele>1327.84</ele>
        <time>2024-01-30T02:55:17Z</time>
      </trkpt>
      <trkpt lat="45.3001" lon="5.73322">
        <ele>1325</ele>
        <time>2024-01-30T02:55:25Z</time>
      </trkpt>
      <trkpt lat="45.30014" lon="5.73313">
        <ele>1324.57</ele>
        <time>2024-01-30T02:55:27Z</time>
      </trkpt>
      <trkpt lat="45.30023" lon="5.73288">
        <ele>1323.35</ele>
        <time>2024-01-30T02:55:32Z</time>
      </trkpt>
      <trkpt lat="45.30023" lon="5.73272">
        <ele>1323.09</ele>
        <time>2024-01-30T02:55:36Z</time>
      </trkpt>
      <trkpt lat="45.30018" lon="5.73245">
        <ele>1322.25</ele>
        <time>2024-01-30T02:55:41Z</time>
      </trkpt>
      <trkpt lat="45.30002" lon="5.73217">
        <ele>1322.21</ele>
        <time>2024-01-30T02:55:48Z</time>
      </trkpt>
      <trkpt lat="45.29984" lon="5.73192">
        <ele>1322.98</ele>
        <time>2024-01-30T02:55:54Z</time>
      </trkpt>
      <trkpt lat="45.29943" lon="5.73145">
        <ele>1320.15</ele>
        <time>2024-01-30T02:56:06Z</time>
      </trkpt>
      <trkpt lat="45.29924" lon="5.73127">
        <ele>1319.4</ele>
        <time>2024-01-30T02:56:10Z</time>
      </trkpt>
      <trkpt lat="45.29901" lon="5.73107">
        <ele>1317.31</ele>
        <time>2024-01-30T02:56:16Z</time>
      </trkpt>
      <trkpt lat="45.2988" lon="5.73095">
        <ele>1315.84</ele>
        <time>2024-01-30T02:56:21Z</time>
      </trkpt>
      <trkpt lat="45.2987" lon="5.73091">
        <ele>1315.22</ele>
        <time>2024-01-30T02:56:23Z</time>
      </trkpt>
      <trkpt lat="45.29832" lon="5.73076">
        <ele>1312.1</ele>
        <time>2024-01-30T02:56:31Z</time>
      </trkpt>
      <trkpt lat="45.29792" lon="5.73073">
        <ele>1307.27</ele>
        <time>2024-01-30T02:56:39Z</time>
      </trkpt>
      <trkpt lat="45.29783" lon="5.73076">
        <ele>1305.91</ele>
        <time>2024-01-30T02:56:41Z</time>
      </trkpt>
      <trkpt lat="45.29771" lon="5.73083">
        <ele>1304.27</ele>
        <time>2024-01-30T02:56:43Z</time>
      </trkpt>
      <trkpt lat="45.29761" lon="5.73105">
        <ele>1300.79</ele>
        <time>2024-01-30T02:56:47Z</time>
      </trkpt>
      <trkpt lat="45.29754" lon="5.73134">
        <ele>1297.58</ele>
        <time>2024-01-30T02:56:51Z</time>
      </trkpt>
      <trkpt lat="45.29754" lon="5.73153">
        <ele>1295.36</ele>
        <time>2024-01-30T02:56:54Z</time>
      </trkpt>
      <trkpt lat="45.29771" lon="5.73257">
        <ele>1289.58</ele>
        <time>2024-01-30T02:57:11Z</time>
      </trkpt>
      <trkpt lat="45.2978" lon="5.73296">
        <ele>1288.56</ele>
        <time>2024-01-30T02:57:18Z</time>
      </trkpt>
      <trkpt lat="45.29781" lon="5.73323">
        <ele>1286.29</ele>
        <time>2024-01-30T02:57:22Z</time>
      </trkpt>
      <trkpt lat="45.29777" lon="5.73342">
        <ele>1284.34</ele>
        <time>2024-01-30T02:57:26Z</time>
      </trkpt>
      <trkpt lat="45.29771" lon="5.73354">
        <ele>1283.71</ele>
        <time>2024-01-30T02:57:29Z</time>
      </trkpt>
      <trkpt lat="45.29743" lon="5.7337">
        <ele>1281.4</ele>
        <time>2024-01-30T02:57:36Z</time>
      </trkpt>
      <trkpt lat="45.29704" lon="5.73383">
        <ele>1279.15</ele>
        <time>2024-01-30T02:57:47Z</time>
      </trkpt>
      <trkpt lat="45.29659" lon="5.7334">
        <ele>1275.3</ele>
        <time>2024-01-30T02:58:00Z</time>
      </trkpt>
      <trkpt lat="45.29622" lon="5.73286">
        <ele>1271.85</ele>
        <time>2024-01-30T02:58:12Z</time>
      </trkpt>
      <trkpt lat="45.29606" lon="5.73254">
        <ele>1269.16</ele>
        <time>2024-01-30T02:58:19Z</time>
      </trkpt>
      <trkpt lat="45.29578" lon="5.7314">
        <ele>1264.02</ele>
        <time>2024-01-30T02:58:40Z</time>
      </trkpt>
      <trkpt lat="45.29569" lon="5.73118">
        <ele>1263.25</ele>
        <time>2024-01-30T02:58:45Z</time>
      </trkpt>
      <trkpt lat="45.29548" lon="5.73086">
        <ele>1262.22</ele>
        <time>2024-01-30T02:58:53Z</time>
      </trkpt>
      <trkpt lat="45.29531" lon="5.7308">
        <ele>1261.45</ele>
        <time>2024-01-30T02:58:58Z</time>
      </trkpt>
      <trkpt lat="45.29511" lon="5.73094">
        <ele>1259.07</ele>
        <time>2024-01-30T02:59:04Z</time>
      </trkpt>
      <trkpt lat="45.29489" lon="5.7312">
        <ele>1257.24</ele>
        <time>2024-01-30T02:59:12Z</time>
      </trkpt>
      <trkpt lat="45.2948" lon="5.73127">
        <ele>1257.69</ele>
        <time>2024-01-30T02:59:15Z</time>
      </trkpt>
      <trkpt lat="45.29469" lon="5.73127">
        <ele>1258.1</ele>
        <time>2024-01-30T02:59:18Z</time>
      </trkpt>
      <trkpt lat="45.29421" lon="5.73038">
        <ele>1248.6</ele>
        <time>2024-01-30T02:59:39Z</time>
      </trkpt>
      <trkpt lat="45.29407" lon="5.73015">
        <ele>1246.52</ele>
        <time>2024-01-30T02:59:44Z</time>
      </trkpt>
      <trkpt lat="45.29368" lon="5.72967">
        <ele>1242.39</ele>
        <time>2024-01-30T02:59:57Z</time>
      </trkpt>
      <trkpt lat="45.29352" lon="5.72929">
        <ele>1240.02</ele>
        <time>2024-01-30T03:00:04Z</time>
      </trkpt>
      <trkpt lat="45.2934" lon="5.72883">
        <ele>1234.68</ele>
        <time>2024-01-30T03:00:11Z</time>
      </trkpt>
      <trkpt lat="45.29322" lon="5.72794">
        <ele>1241.31</ele>
        <time>2024-01-30T03:00:25Z</time>
      </trkpt>
      <trkpt lat="45.29315" lon="5.72727">
        <ele>1242.85</ele>
        <time>2024-01-30T03:00:34Z</time>
      </trkpt>
      <trkpt lat="45.29311" lon="5.72648">
        <ele>1249.96</ele>
        <time>2024-01-30T03:00:46Z</time>
      </trkpt>
      <trkpt lat="45.29304" lon="5.72625">
        <ele>1249.33</ele>
        <time>2024-01-30T03:00:49Z</time>
      </trkpt>
      <trkpt lat="45.29294" lon="5.72603">
        <ele>1245.32</ele>
        <time>2024-01-30T03:00:53Z</time>
      </trkpt>
      <trkpt lat="45.29274" lon="5.72581">
        <ele>1240.22</ele>
        <time>2024-01-30T03:00:58Z</time>
      </trkpt>
      <trkpt lat="45.29254" lon="5.72571">
        <ele>1236.47</ele>
        <time>2024-01-30T03:01:02Z</time>
      </trkpt>
      <trkpt lat="45.29245" lon="5.72569">
        <ele>1235.01</ele>
        <time>2024-01-30T03:01:04Z</time>
      </trkpt>
      <trkpt lat="45.2923" lon="5.72576">
        <ele>1232.75</ele>
        <time>2024-01-30T03:01:07Z</time>
      </trkpt>
      <trkpt lat="45.2922" lon="5.72587">
        <ele>1230.24</ele>
        <time>2024-01-30T03:01:09Z</time>
      </trkpt>
      <trkpt lat="45.29206" lon="5.72612">
        <ele>1228.8</ele>
        <time>2024-01-30T03:01:14Z</time>
      </trkpt>
      <trkpt lat="45.29194" lon="5.72623">
        <ele>1225.44</ele>
        <time>2024-01-30T03:01:16Z</time>
      </trkpt>
      <trkpt lat="45.29165" lon="5.7264">
        <ele>1224.2</ele>
        <time>2024-01-30T03:01:23Z</time>
      </trkpt>
      <trkpt lat="45.29103" lon="5.72637">
        <ele>1213.2</ele>
        <time>2024-01-30T03:01:36Z</time>
      </trkpt>
      <trkpt lat="45.2909" lon="5.72637">
        <ele>1213.84</ele>
        <time>2024-01-30T03:01:40Z</time>
      </trkpt>
      <trkpt lat="45.29081" lon="5.72641">
        <ele>1213.59</ele>
        <time>2024-01-30T03:01:42Z</time>
      </trkpt>
      <trkpt lat="45.29077" lon="5.7265">
        <ele>1215.06</ele>
        <time>2024-01-30T03:01:44Z</time>
      </trkpt>
      <trkpt lat="45.29074" lon="5.72678">
        <ele>1217.79</ele>
        <time>2024-01-30T03:01:48Z</time>
      </trkpt>
      <trkpt lat="45.29071" lon="5.72687">
        <ele>1216.43</ele>
        <time>2024-01-30T03:01:50Z</time>
      </trkpt>
      <trkpt lat="45.29046" lon="5.72715">
        <ele>1208.38</ele>
        <time>2024-01-30T03:01:57Z</time>
      </trkpt>
      <trkpt lat="45.29043" lon="5.72732">
        <ele>1206.51</ele>
        <time>2024-01-30T03:02:00Z</time>
      </trkpt>
      <trkpt lat="45.29045" lon="5.72759">
        <ele>1207.17</ele>
        <time>2024-01-30T03:02:05Z</time>
      </trkpt>
      <trkpt lat="45.2904" lon="5.72784">
        <ele>1205.69</ele>
        <time>2024-01-30T03:02:10Z</time>
      </trkpt>
      <trkpt lat="45.29033" lon="5.72792">
        <ele>1205.63</ele>
        <time>2024-01-30T03:02:12Z</time>
      </trkpt>
      <trkpt lat="45.29026" lon="5.72795">
        <ele>1204.5</ele>
        <time>2024-01-30T03:02:14Z</time>
      </trkpt>
      <trkpt lat="45.29011" lon="5.72796">
        <ele>1204.41</ele>
        <time>2024-01-30T03:02:20Z</time>
      </trkpt>
      <trkpt lat="45.28986" lon="5.72786">
        <ele>1202.36</ele>
        <time>2024-01-30T03:02:28Z</time>
      </trkpt>
      <trkpt lat="45.28967" lon="5.72783">
        <ele>1204.04</ele>
        <time>2024-01-30T03:02:36Z</time>
      </trkpt>
      <trkpt lat="45.28925" lon="5.72768">
        <ele>1198.6</ele>
        <time>2024-01-30T03:02:48Z</time>
      </trkpt>
      <trkpt lat="45.28907" lon="5.72771">
        <ele>1195.84</ele>
        <time>2024-01-30T03:02:52Z</time>
      </trkpt>
      <trkpt lat="45.28893" lon="5.7278">
        <ele>1194.6</ele>
        <time>2024-01-30T03:02:55Z</time>
      </trkpt>
      <trkpt lat="45.28865" lon="5.72815">
        <ele>1199.05</ele>
        <time>2024-01-30T03:03:03Z</time>
      </trkpt>
      <trkpt lat="45.28856" lon="5.72819">
        <ele>1199.83</ele>
        <time>2024-01-30T03:03:05Z</time>
      </trkpt>
      <trkpt lat="45.2884" lon="5.72814">
        <ele>1200.26</ele>
        <time>2024-01-30T03:03:08Z</time>
      </trkpt>
      <trkpt lat="45.28816" lon="5.72771">
        <ele>1193.67</ele>
        <time>2024-01-30T03:03:16Z</time>
      </trkpt>
      <trkpt lat="45.28745" lon="5.72688">
        <ele>1182.22</ele>
        <time>2024-01-30T03:03:36Z</time>
      </trkpt>
      <trkpt lat="45.28722" lon="5.72689">
        <ele>1181.57</ele>
        <time>2024-01-30T03:03:41Z</time>
      </trkpt>
      <trkpt lat="45.28707" lon="5.72702">
        <ele>1182.47</ele>
        <time>2024-01-30T03:03:44Z</time>
      </trkpt>
      <trkpt lat="45.28691" lon="5.72724">
        <ele>1184.26</ele>
        <time>2024-01-30T03:03:49Z</time>
      </trkpt>
      <trkpt lat="45.28641" lon="5.72745">
        <ele>1179.42</ele>
        <time>2024-01-30T03:04:00Z</time>
      </trkpt>
      <trkpt lat="45.28591" lon="5.72755">
        <ele>1175.13</ele>
        <time>2024-01-30T03:04:10Z</time>
      </trkpt>
      <trkpt lat="45.28461" lon="5.72699">
        <ele>1156.05</ele>
        <time>2024-01-30T03:04:39Z</time>
      </trkpt>
      <trkpt lat="45.28412" lon="5.72691">
        <ele>1153.59</ele>
        <time>2024-01-30T03:04:50Z</time>
      </trkpt>
      <trkpt lat="45.28388" lon="5.7269">
        <ele>1149.37</ele>
        <time>2024-01-30T03:04:55Z</time>
      </trkpt>
      <trkpt lat="45.28368" lon="5.72695">
        <ele>1146.68</ele>
        <time>2024-01-30T03:05:00Z</time>
      </trkpt>
      <trkpt lat="45.28351" lon="5.72705">
        <ele>1144.62</ele>
        <time>2024-01-30T03:05:03Z</time>
      </trkpt>
      <trkpt lat="45.28339" lon="5.72747">
        <ele>1149.37</ele>
        <time>2024-01-30T03:05:10Z</time>
      </trkpt>
      <trkpt lat="45.28335" lon="5.72748">
        <ele>1147.84</ele>
        <time>2024-01-30T03:05:11Z</time>
      </trkpt>
      <trkpt lat="45.28331" lon="5.72749">
        <ele>1147.02</ele>
        <time>2024-01-30T03:05:11Z</time>
      </trkpt>
      <trkpt lat="45.28279" lon="5.72725">
        <ele>1135.97</ele>
        <time>2024-01-30T03:05:22Z</time>
      </trkpt>
      <trkpt lat="45.28262" lon="5.72702">
        <ele>1133.71</ele>
        <time>2024-01-30T03:05:27Z</time>
      </trkpt>
      <trkpt lat="45.28248" lon="5.72674">
        <ele>1130.56</ele>
        <time>2024-01-30T03:05:31Z</time>
      </trkpt>
      <trkpt lat="45.28235" lon="5.72658">
        <ele>1129.69</ele>
        <time>2024-01-30T03:05:35Z</time>
      </trkpt>
      <trkpt lat="45.28203" lon="5.72627">
        <ele>1123.21</ele>
        <time>2024-01-30T03:05:42Z</time>
      </trkpt>
      <trkpt lat="45.28188" lon="5.72602">
        <ele>1117.42</ele>
        <time>2024-01-30T03:05:47Z</time>
      </trkpt>
      <trkpt lat="45.28184" lon="5.7258">
        <ele>1115.69</ele>
        <time>2024-01-30T03:05:50Z</time>
      </trkpt>
      <trkpt lat="45.28184" lon="5.72563">
        <ele>1114.95</ele>
        <time>2024-01-30T03:05:53Z</time>
      </trkpt>
      <trkpt lat="45.28192" lon="5.7255">
        <ele>1114.81</ele>
        <time>2024-01-30T03:05:55Z</time>
      </trkpt>
      <trkpt lat="45.28206" lon="5.72539">
        <ele>1113.89</ele>
        <time>2024-01-30T03:05:58Z</time>
      </trkpt>
      <trkpt lat="45.28228" lon="5.72535">
        <ele>1110.3</ele>
        <time>2024-01-30T03:06:03Z</time>
      </trkpt>
      <trkpt lat="45.28239" lon="5.72544">
        <ele>1108.96</ele>
        <time>2024-01-30T03:06:05Z</time>
      </trkpt>
      <trkpt lat="45.28244" lon="5.72552">
        <ele>1109.7</ele>
        <time>2024-01-30T03:06:07Z</time>
      </trkpt>
      <trkpt lat="45.28245" lon="5.72577">
        <ele>1115.07</ele>
        <time>2024-01-30T03:06:11Z</time>
      </trkpt>
      <trkpt lat="45.28248" lon="5.72588">
        <ele>1116.11</ele>
        <time>2024-01-30T03:06:12Z</time>
      </trkpt>
      <trkpt lat="45.28262" lon="5.72602">
        <ele>1116.64</ele>
        <time>2024-01-30T03:06:16Z</time>
      </trkpt>
      <trkpt lat="45.28293" lon="5.726">
        <ele>1111.54</ele>
        <time>2024-01-30T03:06:23Z</time>
      </trkpt>
      <trkpt lat="45.28323" lon="5.72616">
        <ele>1114.47</ele>
        <time>2024-01-30T03:06:31Z</time>
      </trkpt>
      <trkpt lat="45.28336" lon="5.72615">
        <ele>1113.97</ele>
        <time>2024-01-30T03:06:34Z</time>
      </trkpt>
      <trkpt lat="45.28347" lon="5.72605">
        <ele>1113.29</ele>
        <time>2024-01-30T03:06:38Z</time>
      </trkpt>
      <trkpt lat="45.28355" lon="5.72591">
        <ele>1111.55</ele>
        <time>2024-01-30T03:06:41Z</time>
      </trkpt>
      <trkpt lat="45.28375" lon="5.72525">
        <ele>1097.11</ele>
        <time>2024-01-30T03:06:53Z</time>
      </trkpt>
      <trkpt lat="45.28381" lon="5.72507">
        <ele>1093.28</ele>
        <time>2024-01-30T03:06:56Z</time>
      </trkpt>
      <trkpt lat="45.28387" lon="5.72498">
        <ele>1091</ele>
        <time>2024-01-30T03:06:58Z</time>
      </trkpt>
      <trkpt lat="45.28399" lon="5.72494">
        <ele>1090.32</ele>
        <time>2024-01-30T03:07:00Z</time>
      </trkpt>
      <trkpt lat="45.28413" lon="5.72496">
        <ele>1091.38</ele>
        <time>2024-01-30T03:07:03Z</time>
      </trkpt>
      <trkpt lat="45.28438" lon="5.72516">
        <ele>1094.45</ele>
        <time>2024-01-30T03:07:09Z</time>
      </trkpt>
      <trkpt lat="45.28454" lon="5.7252">
        <ele>1092.11</ele>
        <time>2024-01-30T03:07:12Z</time>
      </trkpt>
      <trkpt lat="45.28463" lon="5.7252">
        <ele>1090.16</ele>
        <time>2024-01-30T03:07:14Z</time>
      </trkpt>
      <trkpt lat="45.2847" lon="5.72516">
        <ele>1087.85</ele>
        <time>2024-01-30T03:07:15Z</time>
      </trkpt>
      <trkpt lat="45.28477" lon="5.72512">
        <ele>1085.37</ele>
        <time>2024-01-30T03:07:17Z</time>
      </trkpt>
      <trkpt lat="45.28511" lon="5.72509">
        <ele>1087.74</ele>
        <time>2024-01-30T03:07:24Z</time>
      </trkpt>
      <trkpt lat="45.28522" lon="5.72499">
        <ele>1086.51</ele>
        <time>2024-01-30T03:07:26Z</time>
      </trkpt>
      <trkpt lat="45.28529" lon="5.72483">
        <ele>1086.08</ele>
        <time>2024-01-30T03:07:29Z</time>
      </trkpt>
      <trkpt lat="45.28539" lon="5.72456">
        <ele>1082.72</ele>
        <time>2024-01-30T03:07:33Z</time>
      </trkpt>
      <trkpt lat="45.28552" lon="5.72411">
        <ele>1074.91</ele>
        <time>2024-01-30T03:07:40Z</time>
      </trkpt>
      <trkpt lat="45.28562" lon="5.72394">
        <ele>1070.92</ele>
        <time>2024-01-30T03:07:43Z</time>
      </trkpt>
      <trkpt lat="45.28572" lon="5.72386">
        <ele>1068.84</ele>
        <time>2024-01-30T03:07:46Z</time>
      </trkpt>
      <trkpt lat="45.28586" lon="5.72381">
        <ele>1067.51</ele>
        <time>2024-01-30T03:07:49Z</time>
      </trkpt>
      <trkpt lat="45.28604" lon="5.7238">
        <ele>1064.86</ele>
        <time>2024-01-30T03:07:52Z</time>
      </trkpt>
      <trkpt lat="45.28622" lon="5.7239">
        <ele>1063.83</ele>
        <time>2024-01-30T03:07:56Z</time>
      </trkpt>
      <trkpt lat="45.28639" lon="5.72394">
        <ele>1061.91</ele>
        <time>2024-01-30T03:07:59Z</time>
      </trkpt>
      <trkpt lat="45.2865" lon="5.7239">
        <ele>1059.51</ele>
        <time>2024-01-30T03:08:01Z</time>
      </trkpt>
      <trkpt lat="45.28666" lon="5.7237">
        <ele>1054.32</ele>
        <time>2024-01-30T03:08:05Z</time>
      </trkpt>
      <trkpt lat="45.28668" lon="5.72363">
        <ele>1054.12</ele>
        <time>2024-01-30T03:08:07Z</time>
      </trkpt>
      <trkpt lat="45.28665" lon="5.72352">
        <ele>1050.55</ele>
        <time>2024-01-30T03:08:07Z</time>
      </trkpt>
      <trkpt lat="45.28655" lon="5.72348">
        <ele>1047.39</ele>
        <time>2024-01-30T03:08:09Z</time>
      </trkpt>
      <trkpt lat="45.28635" lon="5.72357">
        <ele>1049.15</ele>
        <time>2024-01-30T03:08:11Z</time>
      </trkpt>
      <trkpt lat="45.28621" lon="5.72353">
        <ele>1048.79</ele>
        <time>2024-01-30T03:08:13Z</time>
      </trkpt>
      <trkpt lat="45.28575" lon="5.72321">
        <ele>1039.37</ele>
        <time>2024-01-30T03:08:18Z</time>
      </trkpt>
      <trkpt lat="45.28547" lon="5.72317">
        <ele>1035.95</ele>
        <time>2024-01-30T03:08:21Z</time>
      </trkpt>
      <trkpt lat="45.28516" lon="5.7232">
        <ele>1033.1</ele>
        <time>2024-01-30T03:08:25Z</time>
      </trkpt>
      <trkpt lat="45.285" lon="5.72327">
        <ele>1032.09</ele>
        <time>2024-01-30T03:08:27Z</time>
      </trkpt>
      <trkpt lat="45.28484" lon="5.72343">
        <ele>1034.58</ele>
        <time>2024-01-30T03:08:29Z</time>
      </trkpt>
      <trkpt lat="45.28473" lon="5.72348">
        <ele>1033.58</ele>
        <time>2024-01-30T03:08:30Z</time>
      </trkpt>
      <trkpt lat="45.28465" lon="5.72345">
        <ele>1031.29</ele>
        <time>2024-01-30T03:08:31Z</time>
      </trkpt>
      <trkpt lat="45.2846" lon="5.72336">
        <ele>1028.58</ele>
        <time>2024-01-30T03:08:32Z</time>
      </trkpt>
      <trkpt lat="45.28445" lon="5.72282">
        <ele>1014.97</ele>
        <time>2024-01-30T03:08:36Z</time>
      </trkpt>
      <trkpt lat="45.2843" lon="5.72271">
        <ele>1012.8</ele>
        <time>2024-01-30T03:08:38Z</time>
      </trkpt>
      <trkpt lat="45.28397" lon="5.72259">
        <ele>1009.51</ele>
        <time>2024-01-30T03:08:42Z</time>
      </trkpt>
      <trkpt lat="45.28356" lon="5.7223">
        <ele>998.11</ele>
        <time>2024-01-30T03:08:48Z</time>
      </trkpt>
      <trkpt lat="45.28335" lon="5.72236">
        <ele>999.1</ele>
        <time>2024-01-30T03:08:50Z</time>
      </trkpt>
      <trkpt lat="45.28314" lon="5.7225">
        <ele>1002.66</ele>
        <time>2024-01-30T03:08:53Z</time>
      </trkpt>
      <trkpt lat="45.28292" lon="5.72251">
        <ele>1002.11</ele>
        <time>2024-01-30T03:08:55Z</time>
      </trkpt>
      <trkpt lat="45.28252" lon="5.72237">
        <ele>999.9</ele>
        <time>2024-01-30T03:09:00Z</time>
      </trkpt>
      <trkpt lat="45.28244" lon="5.72223">
        <ele>997.97</ele>
        <time>2024-01-30T03:09:01Z</time>
      </trkpt>
      <trkpt lat="45.28239" lon="5.7221">
        <ele>994.77</ele>
        <time>2024-01-30T03:09:03Z</time>
      </trkpt>
      <trkpt lat="45.28237" lon="5.72196">
        <ele>991.32</ele>
        <time>2024-01-30T03:09:04Z</time>
      </trkpt>
      <trkpt lat="45.2825" lon="5.72157">
        <ele>976.37</ele>
        <time>2024-01-30T03:09:07Z</time>
      </trkpt>
      <trkpt lat="45.2825" lon="5.72146">
        <ele>973.8</ele>
        <time>2024-01-30T03:09:08Z</time>
      </trkpt>
      <trkpt lat="45.28242" lon="5.72132">
        <ele>973.07</ele>
        <time>2024-01-30T03:09:09Z</time>
      </trkpt>
      <trkpt lat="45.28227" lon="5.72127">
        <ele>973.6</ele>
        <time>2024-01-30T03:09:11Z</time>
      </trkpt>
      <trkpt lat="45.28189" lon="5.72125">
        <ele>975.82</ele>
        <time>2024-01-30T03:09:15Z</time>
      </trkpt>
      <trkpt lat="45.28181" lon="5.72116">
        <ele>975.04</ele>
        <time>2024-01-30T03:09:16Z</time>
      </trkpt>
      <trkpt lat="45.2817" lon="5.72101">
        <ele>974.03</ele>
        <time>2024-01-30T03:09:17Z</time>
      </trkpt>
      <trkpt lat="45.28168" lon="5.72072">
        <ele>968.33</ele>
        <time>2024-01-30T03:09:20Z</time>
      </trkpt>
      <trkpt lat="45.28169" lon="5.72054">
        <ele>964.93</ele>
        <time>2024-01-30T03:09:21Z</time>
      </trkpt>
      <trkpt lat="45.28182" lon="5.72012">
        <ele>953.97</ele>
        <time>2024-01-30T03:09:24Z</time>
      </trkpt>
      <trkpt lat="45.28185" lon="5.71999">
        <ele>950.8</ele>
        <time>2024-01-30T03:09:25Z</time>
      </trkpt>
      <trkpt lat="45.28186" lon="5.71984">
        <ele>948.2</ele>
        <time>2024-01-30T03:09:26Z</time>
      </trkpt>
      <trkpt lat="45.28183" lon="5.7197">
        <ele>946.2</ele>
        <time>2024-01-30T03:09:28Z</time>
      </trkpt>
      <trkpt lat="45.28166" lon="5.71952">
        <ele>945.7</ele>
        <time>2024-01-30T03:09:30Z</time>
      </trkpt>
      <trkpt lat="45.2811" lon="5.71922">
        <ele>941.18</ele>
        <time>2024-01-30T03:09:36Z</time>
      </trkpt>
      <trkpt lat="45.28026" lon="5.71909">
        <ele>933.24</ele>
        <time>2024-01-30T03:09:45Z</time>
      </trkpt>
      <trkpt lat="45.27984" lon="5.71889">
        <ele>925.24</ele>
        <time>2024-01-30T03:09:50Z</time>
      </trkpt>
      <trkpt lat="45.27942" lon="5.71866">
        <ele>920.63</ele>
        <time>2024-01-30T03:09:55Z</time>
      </trkpt>
      <trkpt lat="45.27896" lon="5.71817">
        <ele>913.9</ele>
        <time>2024-01-30T03:10:01Z</time>
      </trkpt>
      <trkpt lat="45.27878" lon="5.71794">
        <ele>909.89</ele>
        <time>2024-01-30T03:10:03Z</time>
      </trkpt>
      <trkpt lat="45.27864" lon="5.71783">
        <ele>908.51</ele>
        <time>2024-01-30T03:10:05Z</time>
      </trkpt>
      <trkpt lat="45.27834" lon="5.71776">
        <ele>905.45</ele>
        <time>2024-01-30T03:10:09Z</time>
      </trkpt>
      <trkpt lat="45.27685" lon="5.71775">
        <ele>890.83</ele>
        <time>2024-01-30T03:10:25Z</time>
      </trkpt>
      <trkpt lat="45.27636" lon="5.7177">
        <ele>885.42</ele>
        <time>2024-01-30T03:10:30Z</time>
      </trkpt>
      <trkpt lat="45.27604" lon="5.71779">
        <ele>885.84</ele>
        <time>2024-01-30T03:10:34Z</time>
      </trkpt>
      <trkpt lat="45.27582" lon="5.71774">
        <ele>881.74</ele>
        <time>2024-01-30T03:10:37Z</time>
      </trkpt>
      <trkpt lat="45.27581" lon="5.71768">
        <ele>880.26</ele>
        <time>2024-01-30T03:10:37Z</time>
      </trkpt>
      <trkpt lat="45.27586" lon="5.7175">
        <ele>877.12</ele>
        <time>2024-01-30T03:10:39Z</time>
      </trkpt>
      <trkpt lat="45.27601" lon="5.71735">
        <ele>873.47</ele>
        <time>2024-01-30T03:10:41Z</time>
      </trkpt>
      <trkpt lat="45.27619" lon="5.71727">
        <ele>872.28</ele>
        <time>2024-01-30T03:10:43Z</time>
      </trkpt>
      <trkpt lat="45.27638" lon="5.71714">
        <ele>870.95</ele>
        <time>2024-01-30T03:10:46Z</time>
      </trkpt>
      <trkpt lat="45.27685" lon="5.71643">
        <ele>863.83</ele>
        <time>2024-01-30T03:10:53Z</time>
      </trkpt>
      <trkpt lat="45.27699" lon="5.71622">
        <ele>860.95</ele>
        <time>2024-01-30T03:10:56Z</time>
      </trkpt>
      <trkpt lat="45.27735" lon="5.71587">
        <ele>855.85</ele>
        <time>2024-01-30T03:11:01Z</time>
      </trkpt>
      <trkpt lat="45.27769" lon="5.71557">
        <ele>851.63</ele>
        <time>2024-01-30T03:11:05Z</time>
      </trkpt>
      <trkpt lat="45.27788" lon="5.71531">
        <ele>847.78</ele>
        <time>2024-01-30T03:11:08Z</time>
      </trkpt>
      <trkpt lat="45.27799" lon="5.71515">
        <ele>844.97</ele>
        <time>2024-01-30T03:11:10Z</time>
      </trkpt>
      <trkpt lat="45.27823" lon="5.71463">
        <ele>839.92</ele>
        <time>2024-01-30T03:11:15Z</time>
      </trkpt>
      <trkpt lat="45.27868" lon="5.71361">
        <ele>831.61</ele>
        <time>2024-01-30T03:11:25Z</time>
      </trkpt>
      <trkpt lat="45.27873" lon="5.71351">
        <ele>830.58</ele>
        <time>2024-01-30T03:11:26Z</time>
      </trkpt>
      <trkpt lat="45.27886" lon="5.71324">
        <ele>826.6</ele>
        <time>2024-01-30T03:11:29Z</time>
      </trkpt>
      <trkpt lat="45.27894" lon="5.71312">
        <ele>824.01</ele>
        <time>2024-01-30T03:11:31Z</time>
      </trkpt>
      <trkpt lat="45.279" lon="5.7131">
        <ele>822.46</ele>
        <time>2024-01-30T03:11:31Z</time>
      </trkpt>
      <trkpt lat="45.27904" lon="5.71308">
        <ele>821.91</ele>
        <time>2024-01-30T03:11:32Z</time>
      </trkpt>
      <trkpt lat="45.27919" lon="5.7131">
        <ele>819.57</ele>
        <time>2024-01-30T03:11:34Z</time>
      </trkpt>
      <trkpt lat="45.27948" lon="5.71332">
        <ele>819.02</ele>
        <time>2024-01-30T03:11:38Z</time>
      </trkpt>
      <trkpt lat="45.27967" lon="5.71339">
        <ele>816.37</ele>
        <time>2024-01-30T03:11:40Z</time>
      </trkpt>
      <trkpt lat="45.27999" lon="5.71342">
        <ele>814.3</ele>
        <time>2024-01-30T03:11:44Z</time>
      </trkpt>
      <trkpt lat="45.28059" lon="5.71295">
        <ele>804.39</ele>
        <time>2024-01-30T03:11:52Z</time>
      </trkpt>
      <trkpt lat="45.28076" lon="5.71259">
        <ele>802.35</ele>
        <time>2024-01-30T03:11:56Z</time>
      </trkpt>
      <trkpt lat="45.28083" lon="5.71222">
        <ele>798.29</ele>
        <time>2024-01-30T03:12:00Z</time>
      </trkpt>
      <trkpt lat="45.28086" lon="5.71183">
        <ele>792.97</ele>
        <time>2024-01-30T03:12:03Z</time>
      </trkpt>
      <trkpt lat="45.28093" lon="5.7116">
        <ele>789</ele>
        <time>2024-01-30T03:12:05Z</time>
      </trkpt>
      <trkpt lat="45.28112" lon="5.71159">
        <ele>787.19</ele>
        <time>2024-01-30T03:12:08Z</time>
      </trkpt>
      <trkpt lat="45.28135" lon="5.7118">
        <ele>785.62</ele>
        <time>2024-01-30T03:12:11Z</time>
      </trkpt>
      <trkpt lat="45.28159" lon="5.71207">
        <ele>786.33</ele>
        <time>2024-01-30T03:12:15Z</time>
      </trkpt>
      <trkpt lat="45.28199" lon="5.71239">
        <ele>784.7</ele>
        <time>2024-01-30T03:12:20Z</time>
      </trkpt>
      <trkpt lat="45.28236" lon="5.71258">
        <ele>779.14</ele>
        <time>2024-01-30T03:12:25Z</time>
      </trkpt>
      <trkpt lat="45.28246" lon="5.71259">
        <ele>777.44</ele>
        <time>2024-01-30T03:12:26Z</time>
      </trkpt>
      <trkpt lat="45.28276" lon="5.71233">
        <ele>768.4</ele>
        <time>2024-01-30T03:12:30Z</time>
      </trkpt>
      <trkpt lat="45.28291" lon="5.71218">
        <ele>765.75</ele>
        <time>2024-01-30T03:12:32Z</time>
      </trkpt>
      <trkpt lat="45.28303" lon="5.71201">
        <ele>763.15</ele>
        <time>2024-01-30T03:12:34Z</time>
      </trkpt>
      <trkpt lat="45.28307" lon="5.71186">
        <ele>761.34</ele>
        <time>2024-01-30T03:12:35Z</time>
      </trkpt>
      <trkpt lat="45.28269" lon="5.71149">
        <ele>756.52</ele>
        <time>2024-01-30T03:12:40Z</time>
      </trkpt>
      <trkpt lat="45.28258" lon="5.71132">
        <ele>754.29</ele>
        <time>2024-01-30T03:12:42Z</time>
      </trkpt>
      <trkpt lat="45.28247" lon="5.71106">
        <ele>750.75</ele>
        <time>2024-01-30T03:12:44Z</time>
      </trkpt>
      <trkpt lat="45.28244" lon="5.71091">
        <ele>748.41</ele>
        <time>2024-01-30T03:12:45Z</time>
      </trkpt>
      <trkpt lat="45.28237" lon="5.71086">
        <ele>747.72</ele>
        <time>2024-01-30T03:12:46Z</time>
      </trkpt>
      <trkpt lat="45.2821" lon="5.71062">
        <ele>744.11</ele>
        <time>2024-01-30T03:12:50Z</time>
      </trkpt>
      <trkpt lat="45.28191" lon="5.71045">
        <ele>740.84</ele>
        <time>2024-01-30T03:12:52Z</time>
      </trkpt>
      <trkpt lat="45.28171" lon="5.71034">
        <ele>738</ele>
        <time>2024-01-30T03:12:55Z</time>
      </trkpt>
      <trkpt lat="45.28151" lon="5.71027">
        <ele>736.59</ele>
        <time>2024-01-30T03:12:57Z</time>
      </trkpt>
      <trkpt lat="45.28121" lon="5.71034">
        <ele>738.69</ele>
        <time>2024-01-30T03:13:00Z</time>
      </trkpt>
      <trkpt lat="45.28101" lon="5.71023">
        <ele>737.16</ele>
        <time>2024-01-30T03:13:03Z</time>
      </trkpt>
      <trkpt lat="45.28087" lon="5.71002">
        <ele>730.51</ele>
        <time>2024-01-30T03:13:05Z</time>
      </trkpt>
      <trkpt lat="45.28078" lon="5.70994">
        <ele>728.44</ele>
        <time>2024-01-30T03:13:06Z</time>
      </trkpt>
      <trkpt lat="45.28059" lon="5.70976">
        <ele>724.9</ele>
        <time>2024-01-30T03:13:09Z</time>
      </trkpt>
      <trkpt lat="45.27965" lon="5.70907">
        <ele>714</ele>
        <time>2024-01-30T03:13:21Z</time>
      </trkpt>
      <trkpt lat="45.27929" lon="5.70885">
        <ele>709.68</ele>
        <time>2024-01-30T03:13:25Z</time>
      </trkpt>
      <trkpt lat="45.27897" lon="5.70862">
        <ele>705.98</ele>
        <time>2024-01-30T03:13:29Z</time>
      </trkpt>
      <trkpt lat="45.27855" lon="5.70849">
        <ele>701.35</ele>
        <time>2024-01-30T03:13:34Z</time>
      </trkpt>
      <trkpt lat="45.27833" lon="5.70836">
        <ele>698.9</ele>
        <time>2024-01-30T03:13:36Z</time>
      </trkpt>
      <trkpt lat="45.27811" lon="5.70802">
        <ele>695.17</ele>
        <time>2024-01-30T03:13:40Z</time>
      </trkpt>
      <trkpt lat="45.27825" lon="5.70801">
        <ele>693.23</ele>
        <time>2024-01-30T03:13:42Z</time>
      </trkpt>
      <trkpt lat="45.27842" lon="5.70793">
        <ele>690.6</ele>
        <time>2024-01-30T03:13:43Z</time>
      </trkpt>
      <trkpt lat="45.27862" lon="5.70773">
        <ele>685.75</ele>
        <time>2024-01-30T03:13:46Z</time>
      </trkpt>
      <trkpt lat="45.27867" lon="5.70758">
        <ele>683.03</ele>
        <time>2024-01-30T03:13:47Z</time>
      </trkpt>
      <trkpt lat="45.27865" lon="5.70738">
        <ele>680.17</ele>
        <time>2024-01-30T03:13:49Z</time>
      </trkpt>
      <trkpt lat="45.27841" lon="5.70727">
        <ele>676.4</ele>
        <time>2024-01-30T03:13:54Z</time>
      </trkpt>
      <trkpt lat="45.27801" lon="5.70718">
        <ele>668.72</ele>
        <time>2024-01-30T03:14:01Z</time>
      </trkpt>
      <trkpt lat="45.27778" lon="5.70697">
        <ele>662.81</ele>
        <time>2024-01-30T03:14:07Z</time>
      </trkpt>
      <trkpt lat="45.27753" lon="5.70683">
        <ele>659.03</ele>
        <time>2024-01-30T03:14:12Z</time>
      </trkpt>
      <trkpt lat="45.27743" lon="5.70672">
        <ele>657.17</ele>
        <time>2024-01-30T03:14:14Z</time>
      </trkpt>
      <trkpt lat="45.27734" lon="5.70661">
        <ele>655.93</ele>
        <time>2024-01-30T03:14:17Z</time>
      </trkpt>
      <trkpt lat="45.27719" lon="5.70628">
        <ele>652.51</ele>
        <time>2024-01-30T03:14:22Z</time>
      </trkpt>
      <trkpt lat="45.27715" lon="5.70608">
        <ele>651.46</ele>
        <time>2024-01-30T03:14:25Z</time>
      </trkpt>
      <trkpt lat="45.27716" lon="5.70584">
        <ele>648.94</ele>
        <time>2024-01-30T03:14:28Z</time>
      </trkpt>
      <trkpt lat="45.27714" lon="5.70577">
        <ele>648.47</ele>
        <time>2024-01-30T03:14:29Z</time>
      </trkpt>
      <trkpt lat="45.27715" lon="5.70572">
        <ele>646.27</ele>
        <time>2024-01-30T03:14:30Z</time>
      </trkpt>
      <trkpt lat="45.27718" lon="5.70535">
        <ele>643.68</ele>
        <time>2024-01-30T03:14:33Z</time>
      </trkpt>
      <trkpt lat="45.2771" lon="5.70518">
        <ele>647.23</ele>
        <time>2024-01-30T03:14:34Z</time>
      </trkpt>
      <trkpt lat="45.277" lon="5.70513">
        <ele>647.02</ele>
        <time>2024-01-30T03:14:35Z</time>
      </trkpt>
      <trkpt lat="45.27673" lon="5.70507">
        <ele>646.6</ele>
        <time>2024-01-30T03:14:39Z</time>
      </trkpt>
      <trkpt lat="45.27645" lon="5.70506">
        <ele>645.89</ele>
        <time>2024-01-30T03:14:42Z</time>
      </trkpt>
      <trkpt lat="45.2761" lon="5.7051">
        <ele>644.8</ele>
        <time>2024-01-30T03:14:46Z</time>
      </trkpt>
      <trkpt lat="45.276" lon="5.70507">
        <ele>644.47</ele>
        <time>2024-01-30T03:14:47Z</time>
      </trkpt>
      <trkpt lat="45.27573" lon="5.7049">
        <ele>643.38</ele>
        <time>2024-01-30T03:14:50Z</time>
      </trkpt>
      <trkpt lat="45.2755" lon="5.70471">
        <ele>647.01</ele>
        <time>2024-01-30T03:14:56Z</time>
      </trkpt>
      <trkpt lat="45.2752" lon="5.70469">
        <ele>651.14</ele>
        <time>2024-01-30T03:15:02Z</time>
      </trkpt>
      <trkpt lat="45.27499" lon="5.70456">
        <ele>653.77</ele>
        <time>2024-01-30T03:15:07Z</time>
      </trkpt>
      <trkpt lat="45.27481" lon="5.70454">
        <ele>653.58</ele>
        <time>2024-01-30T03:15:11Z</time>
      </trkpt>
      <trkpt lat="45.27464" lon="5.70463">
        <ele>653.45</ele>
        <time>2024-01-30T03:15:15Z</time>
      </trkpt>
      <trkpt lat="45.27447" lon="5.70477">
        <ele>654.79</ele>
        <time>2024-01-30T03:15:20Z</time>
      </trkpt>
      <trkpt lat="45.27439" lon="5.70478">
        <ele>654.15</ele>
        <time>2024-01-30T03:15:22Z</time>
      </trkpt>
      <trkpt lat="45.27425" lon="5.70467">
        <ele>657.08</ele>
        <time>2024-01-30T03:15:26Z</time>
      </trkpt>
      <trkpt lat="45.27419" lon="5.70447">
        <ele>655.54</ele>
        <time>2024-01-30T03:15:30Z</time>
      </trkpt>
      <trkpt lat="45.27403" lon="5.70423">
        <ele>656.88</ele>
        <time>2024-01-30T03:15:36Z</time>
      </trkpt>
      <trkpt lat="45.27399" lon="5.70409">
        <ele>657.54</ele>
        <time>2024-01-30T03:15:38Z</time>
      </trkpt>
      <trkpt lat="45.27399" lon="5.70396">
        <ele>659.9</ele>
        <time>2024-01-30T03:15:41Z</time>
      </trkpt>
      <trkpt lat="45.2739" lon="5.70379">
        <ele>660.72</ele>
        <time>2024-01-30T03:15:46Z</time>
      </trkpt>
      <trkpt lat="45.27381" lon="5.70368">
        <ele>660.8</ele>
        <time>2024-01-30T03:15:51Z</time>
      </trkpt>
      <trkpt lat="45.27356" lon="5.70354">
        <ele>659.43</ele>
        <time>2024-01-30T03:16:03Z</time>
      </trkpt>
      <trkpt lat="45.27344" lon="5.7033">
        <ele>659.64</ele>
        <time>2024-01-30T03:16:15Z</time>
      </trkpt>
      <trkpt lat="45.27316" lon="5.70257">
        <ele>662.87</ele>
        <time>2024-01-30T03:16:54Z</time>
      </trkpt>
      <trkpt lat="45.27276" lon="5.70176">
        <ele>660.55</ele>
        <time>2024-01-30T03:17:27Z</time>
      </trkpt>
      <trkpt lat="45.27275" lon="5.70154">
        <ele>662.74</ele>
        <time>2024-01-30T03:17:33Z</time>
      </trkpt>
      <trkpt lat="45.27271" lon="5.70148">
        <ele>661.87</ele>
        <time>2024-01-30T03:17:34Z</time>
      </trkpt>
      <trkpt lat="45.27271" lon="5.7014">
        <ele>661.47</ele>
        <time>2024-01-30T03:17:35Z</time>
      </trkpt>
      <trkpt lat="45.27267" lon="5.70132">
        <ele>658.93</ele>
        <time>2024-01-30T03:17:37Z</time>
      </trkpt>
      <trkpt lat="45.27254" lon="5.70117">
        <ele>655.41</ele>
        <time>2024-01-30T03:17:41Z</time>
      </trkpt>
      <trkpt lat="45.27244" lon="5.70105">
        <ele>654.27</ele>
        <time>2024-01-30T03:17:44Z</time>
      </trkpt>
      <trkpt lat="45.27231" lon="5.70101">
        <ele>654.7</ele>
        <time>2024-01-30T03:17:47Z</time>
      </trkpt>
      <trkpt lat="45.27191" lon="5.70102">
        <ele>655.61</ele>
        <time>2024-01-30T03:17:55Z</time>
      </trkpt>
      <trkpt lat="45.27157" lon="5.70114">
        <ele>652.73</ele>
        <time>2024-01-30T03:18:02Z</time>
      </trkpt>
      <trkpt lat="45.27085" lon="5.70156">
        <ele>638.69</ele>
        <time>2024-01-30T03:18:17Z</time>
      </trkpt>
      <trkpt lat="45.27076" lon="5.70157">
        <ele>637.92</ele>
        <time>2024-01-30T03:18:19Z</time>
      </trkpt>
      <trkpt lat="45.27059" lon="5.70149">
        <ele>639.2</ele>
        <time>2024-01-30T03:18:23Z</time>
      </trkpt>
      <trkpt lat="45.27048" lon="5.70137">
        <ele>640.63</ele>
        <time>2024-01-30T03:18:25Z</time>
      </trkpt>
      <trkpt lat="45.27036" lon="5.70116">
        <ele>640.35</ele>
        <time>2024-01-30T03:18:29Z</time>
      </trkpt>
      <trkpt lat="45.26971" lon="5.70112">
        <ele>619.88</ele>
        <time>2024-01-30T03:18:42Z</time>
      </trkpt>
      <trkpt lat="45.26948" lon="5.70085">
        <ele>625.16</ele>
        <time>2024-01-30T03:18:49Z</time>
      </trkpt>
      <trkpt lat="45.26858" lon="5.70002">
        <ele>617.84</ele>
        <time>2024-01-30T03:19:13Z</time>
      </trkpt>
      <trkpt lat="45.26817" lon="5.70013">
        <ele>609.71</ele>
        <time>2024-01-30T03:19:22Z</time>
      </trkpt>
      <trkpt lat="45.26754" lon="5.69979">
        <ele>602.58</ele>
        <time>2024-01-30T03:19:37Z</time>
      </trkpt>
      <trkpt lat="45.26729" lon="5.69978">
        <ele>600.41</ele>
        <time>2024-01-30T03:19:42Z</time>
      </trkpt>
      <trkpt lat="45.26714" lon="5.69965">
        <ele>600.02</ele>
        <time>2024-01-30T03:19:46Z</time>
      </trkpt>
      <trkpt lat="45.26704" lon="5.69949">
        <ele>599.03</ele>
        <time>2024-01-30T03:19:49Z</time>
      </trkpt>
      <trkpt lat="45.26656" lon="5.69919">
        <ele>592.81</ele>
        <time>2024-01-30T03:20:00Z</time>
      </trkpt>
      <trkpt lat="45.26617" lon="5.69883">
        <ele>589.88</ele>
        <time>2024-01-30T03:20:10Z</time>
      </trkpt>
      <trkpt lat="45.26596" lon="5.69871">
        <ele>588.38</ele>
        <time>2024-01-30T03:20:16Z</time>
      </trkpt>
      <trkpt lat="45.26549" lon="5.69861">
        <ele>586.93</ele>
        <time>2024-01-30T03:20:26Z</time>
      </trkpt>
      <trkpt lat="45.26516" lon="5.69842">
        <ele>585.52</ele>
        <time>2024-01-30T03:20:33Z</time>
      </trkpt>
      <trkpt lat="45.26491" lon="5.69836">
        <ele>583.53</ele>
        <time>2024-01-30T03:20:38Z</time>
      </trkpt>
      <trkpt lat="45.26477" lon="5.69822">
        <ele>578.49</ele>
        <time>2024-01-30T03:20:42Z</time>
      </trkpt>
      <trkpt lat="45.26467" lon="5.69806">
        <ele>579.04</ele>
        <time>2024-01-30T03:20:45Z</time>
      </trkpt>
      <trkpt lat="45.2646" lon="5.698">
        <ele>578.7</ele>
        <time>2024-01-30T03:20:47Z</time>
      </trkpt>
      <trkpt lat="45.26415" lon="5.6983">
        <ele>571.78</ele>
        <time>2024-01-30T03:20:57Z</time>
      </trkpt>
      <trkpt lat="45.26391" lon="5.69824">
        <ele>567.96</ele>
        <time>2024-01-30T03:21:02Z</time>
      </trkpt>
      <trkpt lat="45.26351" lon="5.69801">
        <ele>564.29</ele>
        <time>2024-01-30T03:21:11Z</time>
      </trkpt>
      <trkpt lat="45.26346" lon="5.69795">
        <ele>562.72</ele>
        <time>2024-01-30T03:21:12Z</time>
      </trkpt>
      <trkpt lat="45.26335" lon="5.69784">
        <ele>561.31</ele>
        <time>2024-01-30T03:21:14Z</time>
      </trkpt>
      <trkpt lat="45.26313" lon="5.69783">
        <ele>555.76</ele>
        <time>2024-01-30T03:21:19Z</time>
      </trkpt>
      <trkpt lat="45.26279" lon="5.69764">
        <ele>557.74</ele>
        <time>2024-01-30T03:21:26Z</time>
      </trkpt>
      <trkpt lat="45.26243" lon="5.69762">
        <ele>547.39</ele>
        <time>2024-01-30T03:21:33Z</time>
      </trkpt>
      <trkpt lat="45.26174" lon="5.69739">
        <ele>535.89</ele>
        <time>2024-01-30T03:21:46Z</time>
      </trkpt>
      <trkpt lat="45.2615" lon="5.69741">
        <ele>529.28</ele>
        <time>2024-01-30T03:21:51Z</time>
      </trkpt>
      <trkpt lat="45.26132" lon="5.69748">
        <ele>525.51</ele>
        <time>2024-01-30T03:21:54Z</time>
      </trkpt>
      <trkpt lat="45.26128" lon="5.69751">
        <ele>524.36</ele>
        <time>2024-01-30T03:21:55Z</time>
      </trkpt>
      <trkpt lat="45.26093" lon="5.69781">
        <ele>513.79</ele>
        <time>2024-01-30T03:22:00Z</time>
      </trkpt>
      <trkpt lat="45.26087" lon="5.69792">
        <ele>511.39</ele>
        <time>2024-01-30T03:22:01Z</time>
      </trkpt>
      <trkpt lat="45.26088" lon="5.69798">
        <ele>510.62</ele>
        <time>2024-01-30T03:22:01Z</time>
      </trkpt>
      <trkpt lat="45.26107" lon="5.69821">
        <ele>509.81</ele>
        <time>2024-01-30T03:22:04Z</time>
      </trkpt>
      <trkpt lat="45.26108" lon="5.69827">
        <ele>508.49</ele>
        <time>2024-01-30T03:22:04Z</time>
      </trkpt>
      <trkpt lat="45.26095" lon="5.69817">
        <ele>507.65</ele>
        <time>2024-01-30T03:22:06Z</time>
      </trkpt>
      <trkpt lat="45.26043" lon="5.69767">
        <ele>502.7</ele>
        <time>2024-01-30T03:22:13Z</time>
      </trkpt>
      <trkpt lat="45.26038" lon="5.69753">
        <ele>501.67</ele>
        <time>2024-01-30T03:22:14Z</time>
      </trkpt>
      <trkpt lat="45.26037" lon="5.69739">
        <ele>500.69</ele>
        <time>2024-01-30T03:22:15Z</time>
      </trkpt>
      <trkpt lat="45.26038" lon="5.6973">
        <ele>499.61</ele>
        <time>2024-01-30T03:22:16Z</time>
      </trkpt>
      <trkpt lat="45.26036" lon="5.69715">
        <ele>497.68</ele>
        <time>2024-01-30T03:22:17Z</time>
      </trkpt>
      <trkpt lat="45.26032" lon="5.69705">
        <ele>497.62</ele>
        <time>2024-01-30T03:22:18Z</time>
      </trkpt>
      <trkpt lat="45.26025" lon="5.69698">
        <ele>497.24</ele>
        <time>2024-01-30T03:22:19Z</time>
      </trkpt>
      <trkpt lat="45.25973" lon="5.69685">
        <ele>494.27</ele>
        <time>2024-01-30T03:22:26Z</time>
      </trkpt>
      <trkpt lat="45.25952" lon="5.69674">
        <ele>493.2</ele>
        <time>2024-01-30T03:22:28Z</time>
      </trkpt>
      <trkpt lat="45.25945" lon="5.69663">
        <ele>492.45</ele>
        <time>2024-01-30T03:22:30Z</time>
      </trkpt>
      <trkpt lat="45.25932" lon="5.6962">
        <ele>489.65</ele>
        <time>2024-01-30T03:22:33Z</time>
      </trkpt>
      <trkpt lat="45.25925" lon="5.69612">
        <ele>489.35</ele>
        <time>2024-01-30T03:22:34Z</time>
      </trkpt>
      <trkpt lat="45.25908" lon="5.6961">
        <ele>488.28</ele>
        <time>2024-01-30T03:22:37Z</time>
      </trkpt>
      <trkpt lat="45.25874" lon="5.69616">
        <ele>486.32</ele>
        <time>2024-01-30T03:22:40Z</time>
      </trkpt>
      <trkpt lat="45.25834" lon="5.69604">
        <ele>484.8</ele>
        <time>2024-01-30T03:22:46Z</time>
      </trkpt>
      <trkpt lat="45.25817" lon="5.69592">
        <ele>484.69</ele>
        <time>2024-01-30T03:22:48Z</time>
      </trkpt>
      <trkpt lat="45.25804" lon="5.69582">
        <ele>484.6</ele>
        <time>2024-01-30T03:22:50Z</time>
      </trkpt>
      <trkpt lat="45.25756" lon="5.69571">
        <ele>484.53</ele>
        <time>2024-01-30T03:22:57Z</time>
      </trkpt>
      <trkpt lat="45.25743" lon="5.69561">
        <ele>483.97</ele>
        <time>2024-01-30T03:22:59Z</time>
      </trkpt>
      <trkpt lat="45.25737" lon="5.69548">
        <ele>484.23</ele>
        <time>2024-01-30T03:23:01Z</time>
      </trkpt>
      <trkpt lat="45.2573" lon="5.69522">
        <ele>483.61</ele>
        <time>2024-01-30T03:23:03Z</time>
      </trkpt>
      <trkpt lat="45.25727" lon="5.69493">
        <ele>481.69</ele>
        <time>2024-01-30T03:23:06Z</time>
      </trkpt>
      <trkpt lat="45.25724" lon="5.69481">
        <ele>481.59</ele>
        <time>2024-01-30T03:23:07Z</time>
      </trkpt>
      <trkpt lat="45.25719" lon="5.69475">
        <ele>480.24</ele>
        <time>2024-01-30T03:23:08Z</time>
      </trkpt>
      <trkpt lat="45.25674" lon="5.69453">
        <ele>477.38</ele>
        <time>2024-01-30T03:23:15Z</time>
      </trkpt>
      <trkpt lat="45.25655" lon="5.69458">
        <ele>476</ele>
        <time>2024-01-30T03:23:17Z</time>
      </trkpt>
      <trkpt lat="45.2563" lon="5.69472">
        <ele>474.46</ele>
        <time>2024-01-30T03:23:21Z</time>
      </trkpt>
      <trkpt lat="45.25616" lon="5.69476">
        <ele>472.78</ele>
        <time>2024-01-30T03:23:23Z</time>
      </trkpt>
      <trkpt lat="45.25586" lon="5.69477">
        <ele>470.11</ele>
        <time>2024-01-30T03:23:27Z</time>
      </trkpt>
      <trkpt lat="45.25561" lon="5.69474">
        <ele>467.7</ele>
        <time>2024-01-30T03:23:30Z</time>
      </trkpt>
      <trkpt lat="45.25525" lon="5.69464">
        <ele>464.58</ele>
        <time>2024-01-30T03:23:34Z</time>
      </trkpt>
      <trkpt lat="45.25494" lon="5.69461">
        <ele>461.91</ele>
        <time>2024-01-30T03:23:37Z</time>
      </trkpt>
      <trkpt lat="45.25456" lon="5.69456">
        <ele>458.33</ele>
        <time>2024-01-30T03:23:42Z</time>
      </trkpt>
      <trkpt lat="45.25385" lon="5.69431">
        <ele>452.42</ele>
        <time>2024-01-30T03:23:51Z</time>
      </trkpt>
      <trkpt lat="45.2536" lon="5.69427">
        <ele>450.17</ele>
        <time>2024-01-30T03:23:54Z</time>
      </trkpt>
      <trkpt lat="45.25332" lon="5.69422">
        <ele>447.53</ele>
        <time>2024-01-30T03:23:57Z</time>
      </trkpt>
      <trkpt lat="45.25321" lon="5.69416">
        <ele>446.56</ele>
        <time>2024-01-30T03:23:59Z</time>
      </trkpt>
      <trkpt lat="45.25305" lon="5.69402">
        <ele>444.91</ele>
        <time>2024-01-30T03:24:01Z</time>
      </trkpt>
      <trkpt lat="45.25283" lon="5.6937">
        <ele>441.61</ele>
        <time>2024-01-30T03:24:05Z</time>
      </trkpt>
      <trkpt lat="45.25275" lon="5.69367">
        <ele>440.05</ele>
        <time>2024-01-30T03:24:06Z</time>
      </trkpt>
      <trkpt lat="45.25268" lon="5.69369">
        <ele>439.63</ele>
        <time>2024-01-30T03:24:07Z</time>
      </trkpt>
      <trkpt lat="45.25261" lon="5.69374">
        <ele>438.99</ele>
        <time>2024-01-30T03:24:07Z</time>
      </trkpt>
      <trkpt lat="45.25256" lon="5.69383">
        <ele>438.46</ele>
        <time>2024-01-30T03:24:08Z</time>
      </trkpt>
      <trkpt lat="45.2524" lon="5.69441">
        <ele>433.79</ele>
        <time>2024-01-30T03:24:13Z</time>
      </trkpt>
      <trkpt lat="45.25227" lon="5.69463">
        <ele>431.63</ele>
        <time>2024-01-30T03:24:16Z</time>
      </trkpt>
      <trkpt lat="45.25218" lon="5.6947">
        <ele>430.58</ele>
        <time>2024-01-30T03:24:17Z</time>
      </trkpt>
      <trkpt lat="45.25165" lon="5.69492">
        <ele>424.22</ele>
        <time>2024-01-30T03:24:23Z</time>
      </trkpt>
      <trkpt lat="45.25115" lon="5.69544">
        <ele>417.68</ele>
        <time>2024-01-30T03:24:29Z</time>
      </trkpt>
      <trkpt lat="45.25092" lon="5.69578">
        <ele>412.88</ele>
        <time>2024-01-30T03:24:33Z</time>
      </trkpt>
      <trkpt lat="45.25075" lon="5.69593">
        <ele>410.3</ele>
        <time>2024-01-30T03:24:35Z</time>
      </trkpt>
      <trkpt lat="45.24929" lon="5.69661">
        <ele>391.81</ele>
        <time>2024-01-30T03:24:52Z</time>
      </trkpt>
      <trkpt lat="45.24913" lon="5.6966">
        <ele>390.3</ele>
        <time>2024-01-30T03:24:53Z</time>
      </trkpt>
      <trkpt lat="45.2488" lon="5.69654">
        <ele>386.39</ele>
        <time>2024-01-30T03:24:57Z</time>
      </trkpt>
      <trkpt lat="45.24863" lon="5.69656">
        <ele>384.19</ele>
        <time>2024-01-30T03:24:59Z</time>
      </trkpt>
      <trkpt lat="45.24838" lon="5.69667">
        <ele>381.41</ele>
        <time>2024-01-30T03:25:02Z</time>
      </trkpt>
      <trkpt lat="45.24826" lon="5.69663">
        <ele>380.61</ele>
        <time>2024-01-30T03:25:03Z</time>
      </trkpt>
      <trkpt lat="45.24823" lon="5.6965">
        <ele>379.66</ele>
        <time>2024-01-30T03:25:04Z</time>
      </trkpt>
      <trkpt lat="45.24832" lon="5.69617">
        <ele>376.9</ele>
        <time>2024-01-30T03:25:07Z</time>
      </trkpt>
      <trkpt lat="45.24834" lon="5.69604">
        <ele>375.81</ele>
        <time>2024-01-30T03:25:08Z</time>
      </trkpt>
      <trkpt lat="45.2483" lon="5.69582">
        <ele>373.73</ele>
        <time>2024-01-30T03:25:10Z</time>
      </trkpt>
      <trkpt lat="45.24823" lon="5.69571">
        <ele>372.54</ele>
        <time>2024-01-30T03:25:11Z</time>
      </trkpt>
      <trkpt lat="45.24803" lon="5.69554">
        <ele>369.67</ele>
        <time>2024-01-30T03:25:14Z</time>
      </trkpt>
      <trkpt lat="45.24778" lon="5.69539">
        <ele>366.16</ele>
        <time>2024-01-30T03:25:16Z</time>
      </trkpt>
      <trkpt lat="45.24723" lon="5.69499">
        <ele>358.15</ele>
        <time>2024-01-30T03:25:23Z</time>
      </trkpt>
      <trkpt lat="45.24703" lon="5.6949">
        <ele>355.97</ele>
        <time>2024-01-30T03:25:26Z</time>
      </trkpt>
      <trkpt lat="45.2469" lon="5.6948">
        <ele>354.38</ele>
        <time>2024-01-30T03:25:27Z</time>
      </trkpt>
      <trkpt lat="45.2468" lon="5.69461">
        <ele>352.54</ele>
        <time>2024-01-30T03:25:29Z</time>
      </trkpt>
      <trkpt lat="45.24667" lon="5.69396">
        <ele>347.44</ele>
        <time>2024-01-30T03:25:34Z</time>
      </trkpt>
      <trkpt lat="45.24662" lon="5.69384">
        <ele>346.57</ele>
        <time>2024-01-30T03:25:35Z</time>
      </trkpt>
      <trkpt lat="45.24644" lon="5.69367">
        <ele>344.28</ele>
        <time>2024-01-30T03:25:38Z</time>
      </trkpt>
      <trkpt lat="45.24625" lon="5.69338">
        <ele>341.49</ele>
        <time>2024-01-30T03:25:41Z</time>
      </trkpt>
      <trkpt lat="45.24614" lon="5.69333">
        <ele>339.98</ele>
        <time>2024-01-30T03:25:42Z</time>
      </trkpt>
      <trkpt lat="45.24591" lon="5.69328">
        <ele>337.07</ele>
        <time>2024-01-30T03:25:45Z</time>
      </trkpt>
      <trkpt lat="45.24584" lon="5.69323">
        <ele>335.92</ele>
        <time>2024-01-30T03:25:46Z</time>
      </trkpt>
      <trkpt lat="45.2456" lon="5.69294">
        <ele>331.82</ele>
        <time>2024-01-30T03:25:50Z</time>
      </trkpt>
      <trkpt lat="45.24545" lon="5.69287">
        <ele>330.91</ele>
        <time>2024-01-30T03:25:51Z</time>
      </trkpt>
      <trkpt lat="45.24513" lon="5.69279">
        <ele>326.65</ele>
        <time>2024-01-30T03:25:55Z</time>
      </trkpt>
      <trkpt lat="45.24478" lon="5.69248">
        <ele>322.1</ele>
        <time>2024-01-30T03:26:00Z</time>
      </trkpt>
      <trkpt lat="45.24461" lon="5.69245">
        <ele>320.1</ele>
        <time>2024-01-30T03:26:01Z</time>
      </trkpt>
      <trkpt lat="45.2444" lon="5.6925">
        <ele>317.81</ele>
        <time>2024-01-30T03:26:04Z</time>
      </trkpt>
      <trkpt lat="45.24409" lon="5.69251">
        <ele>314.38</ele>
        <time>2024-01-30T03:26:07Z</time>
      </trkpt>
      <trkpt lat="45.24358" lon="5.6925">
        <ele>308.25</ele>
        <time>2024-01-30T03:26:13Z</time>
      </trkpt>
      <trkpt lat="45.24309" lon="5.69243">
        <ele>303.2</ele>
        <time>2024-01-30T03:26:19Z</time>
      </trkpt>
      <trkpt lat="45.24297" lon="5.6924">
        <ele>301.88</ele>
        <time>2024-01-30T03:26:20Z</time>
      </trkpt>
      <trkpt lat="45.24256" lon="5.6922">
        <ele>297.37</ele>
        <time>2024-01-30T03:26:25Z</time>
      </trkpt>
      <trkpt lat="45.24245" lon="5.69208">
        <ele>295.82</ele>
        <time>2024-01-30T03:26:26Z</time>
      </trkpt>
      <trkpt lat="45.24243" lon="5.69201">
        <ele>295.12</ele>
        <time>2024-01-30T03:26:27Z</time>
      </trkpt>
      <trkpt lat="45.24248" lon="5.69152">
        <ele>292.16</ele>
        <time>2024-01-30T03:26:31Z</time>
      </trkpt>
      <trkpt lat="45.24243" lon="5.69138">
        <ele>290.72</ele>
        <time>2024-01-30T03:26:32Z</time>
      </trkpt>
      <trkpt lat="45.24239" lon="5.69135">
        <ele>290.53</ele>
        <time>2024-01-30T03:26:33Z</time>
      </trkpt>
      <trkpt lat="45.24228" lon="5.69132">
        <ele>289.26</ele>
        <time>2024-01-30T03:26:34Z</time>
      </trkpt>
      <trkpt lat="45.24176" lon="5.69136">
        <ele>283.53</ele>
        <time>2024-01-30T03:26:40Z</time>
      </trkpt>
      <trkpt lat="45.24138" lon="5.69123">
        <ele>279.14</ele>
        <time>2024-01-30T03:26:44Z</time>
      </trkpt>
      <trkpt lat="45.2411" lon="5.69109">
        <ele>275.95</ele>
        <time>2024-01-30T03:26:48Z</time>
      </trkpt>
      <trkpt lat="45.24099" lon="5.69095">
        <ele>274.01</ele>
        <time>2024-01-30T03:26:49Z</time>
      </trkpt>
      <trkpt lat="45.24086" lon="5.6907">
        <ele>272</ele>
        <time>2024-01-30T03:26:52Z</time>
      </trkpt>
      <trkpt lat="45.24081" lon="5.69068">
        <ele>271.53</ele>
        <time>2024-01-30T03:26:52Z</time>
      </trkpt>
      <trkpt lat="45.24072" lon="5.69072">
        <ele>270.07</ele>
        <time>2024-01-30T03:26:53Z</time>
      </trkpt>
      <trkpt lat="45.24069" lon="5.69079">
        <ele>269.02</ele>
        <time>2024-01-30T03:26:54Z</time>
      </trkpt>
      <trkpt lat="45.24072" lon="5.69097">
        <ele>267.34</ele>
        <time>2024-01-30T03:26:55Z</time>
      </trkpt>
      <trkpt lat="45.24071" lon="5.6911">
        <ele>264.23</ele>
        <time>2024-01-30T03:26:57Z</time>
      </trkpt>
      <trkpt lat="45.24066" lon="5.69113">
        <ele>262.03</ele>
        <time>2024-01-30T03:26:58Z</time>
      </trkpt>
      <trkpt lat="45.24019" lon="5.69107">
        <ele>246.82</ele>
        <time>2024-01-30T03:27:08Z</time>
      </trkpt>
      <trkpt lat="45.24006" lon="5.69112">
        <ele>243.47</ele>
        <time>2024-01-30T03:27:11Z</time>
      </trkpt>
      <trkpt lat="45.23991" lon="5.69115">
        <ele>241.62</ele>
        <time>2024-01-30T03:27:13Z</time>
      </trkpt>
      <trkpt lat="45.2398" lon="5.69093">
        <ele>240.51</ele>
        <time>2024-01-30T03:27:15Z</time>
      </trkpt>
      <trkpt lat="45.23966" lon="5.69059">
        <ele>239.43</ele>
        <time>2024-01-30T03:27:19Z</time>
      </trkpt>
      <trkpt lat="45.23964" lon="5.69054">
        <ele>239.34</ele>
        <time>2024-01-30T03:27:19Z</time>
      </trkpt>
      <trkpt lat="45.23949" lon="5.69019">
        <ele>238.27</ele>
        <time>2024-01-30T03:27:23Z</time>
      </trkpt>
      <trkpt lat="45.2394" lon="5.6901">
        <ele>237.98</ele>
        <time>2024-01-30T03:27:24Z</time>
      </trkpt>
      <trkpt lat="45.23879" lon="5.68986">
        <ele>234.29</ele>
        <time>2024-01-30T03:27:33Z</time>
      </trkpt>
      <trkpt lat="45.23849" lon="5.68979">
        <ele>232.73</ele>
        <time>2024-01-30T03:27:37Z</time>
      </trkpt>
      <trkpt lat="45.23817" lon="5.68972">
        <ele>231.25</ele>
        <time>2024-01-30T03:27:42Z</time>
      </trkpt>
      <trkpt lat="45.23815" lon="5.68972">
        <ele>231.25</ele>
        <time>2024-01-30T03:27:43Z</time>
      </trkpt>
      <trkpt lat="45.23797" lon="5.68968">
        <ele>230.68</ele>
        <time>2024-01-30T03:27:45Z</time>
      </trkpt>
      <trkpt lat="45.2378" lon="5.68964">
        <ele>230.29</ele>
        <time>2024-01-30T03:27:48Z</time>
      </trkpt>
      <trkpt lat="45.23773" lon="5.68953">
        <ele>229.98</ele>
        <time>2024-01-30T03:27:49Z</time>
      </trkpt>
      <trkpt lat="45.23713" lon="5.68958">
        <ele>228.22</ele>
        <time>2024-01-30T03:27:59Z</time>
      </trkpt>
      <trkpt lat="45.2368" lon="5.68942">
        <ele>227.51</ele>
        <time>2024-01-30T03:28:04Z</time>
      </trkpt>
      <trkpt lat="45.23661" lon="5.68925">
        <ele>227.2</ele>
        <time>2024-01-30T03:28:08Z</time>
      </trkpt>
      <trkpt lat="45.23631" lon="5.68896">
        <ele>226.55</ele>
        <time>2024-01-30T03:28:13Z</time>
      </trkpt>
      <trkpt lat="45.23622" lon="5.68888">
        <ele>226.4</ele>
        <time>2024-01-30T03:28:15Z</time>
      </trkpt>
      <trkpt lat="45.23592" lon="5.6886">
        <ele>225.75</ele>
        <time>2024-01-30T03:28:20Z</time>
      </trkpt>
      <trkpt lat="45.23569" lon="5.68838">
        <ele>225.23</ele>
        <time>2024-01-30T03:28:24Z</time>
      </trkpt>
      <trkpt lat="45.23496" lon="5.68771">
        <ele>223.72</ele>
        <time>2024-01-30T03:28:36Z</time>
      </trkpt>
      <trkpt lat="45.23484" lon="5.6876">
        <ele>223.49</ele>
        <time>2024-01-30T03:28:38Z</time>
      </trkpt>
      <trkpt lat="45.23476" lon="5.68752">
        <ele>223.4</ele>
        <time>2024-01-30T03:28:39Z</time>
      </trkpt>
      <trkpt lat="45.23468" lon="5.68744">
        <ele>223.2</ele>
        <time>2024-01-30T03:28:40Z</time>
      </trkpt>
      <trkpt lat="45.23464" lon="5.6874">
        <ele>223.04</ele>
        <time>2024-01-30T03:28:41Z</time>
      </trkpt>
      <trkpt lat="45.23459" lon="5.68735">
        <ele>222.99</ele>
        <time>2024-01-30T03:28:42Z</time>
      </trkpt>
      <trkpt lat="45.23433" lon="5.68711">
        <ele>222.49</ele>
        <time>2024-01-30T03:28:46Z</time>
      </trkpt>
      <trkpt lat="45.23333" lon="5.68618">
        <ele>220.76</ele>
        <time>2024-01-30T03:29:03Z</time>
      </trkpt>
      <trkpt lat="45.23322" lon="5.68606">
        <ele>220.69</ele>
        <time>2024-01-30T03:29:05Z</time>
      </trkpt>
      <trkpt lat="45.23315" lon="5.68599">
        <ele>220.48</ele>
        <time>2024-01-30T03:29:06Z</time>
      </trkpt>
      <trkpt lat="45.23311" lon="5.68595">
        <ele>220.36</ele>
        <time>2024-01-30T03:29:07Z</time>
      </trkpt>
      <trkpt lat="45.23303" lon="5.68588">
        <ele>220.12</ele>
        <time>2024-01-30T03:29:08Z</time>
      </trkpt>
      <trkpt lat="45.23291" lon="5.68576">
        <ele>219.91</ele>
        <time>2024-01-30T03:29:10Z</time>
      </trkpt>
      <trkpt lat="45.23271" lon="5.6856">
        <ele>219.4</ele>
        <time>2024-01-30T03:29:13Z</time>
      </trkpt>
      <trkpt lat="45.23271" lon="5.6857">
        <ele>218.26</ele>
        <time>2024-01-30T03:29:14Z</time>
      </trkpt>
      <trkpt lat="45.23267" lon="5.68578">
        <ele>217.43</ele>
        <time>2024-01-30T03:29:19Z</time>
      </trkpt>
      <trkpt lat="45.23263" lon="5.6859">
        <ele>219.07</ele>
        <time>2024-01-30T03:29:20Z</time>
      </trkpt>
      <trkpt lat="45.23202" lon="5.68531">
        <ele>218.13</ele>
        <time>2024-01-30T03:29:32Z</time>
      </trkpt>
      <trkpt lat="45.2317" lon="5.68507">
        <ele>217.55</ele>
        <time>2024-01-30T03:29:37Z</time>
      </trkpt>
      <trkpt lat="45.23149" lon="5.68498">
        <ele>217.73</ele>
        <time>2024-01-30T03:29:41Z</time>
      </trkpt>
      <trkpt lat="45.23126" lon="5.6847">
        <ele>217.09</ele>
        <time>2024-01-30T03:29:45Z</time>
      </trkpt>
      <trkpt lat="45.23112" lon="5.68456">
        <ele>217.23</ele>
        <time>2024-01-30T03:29:48Z</time>
      </trkpt>
      <trkpt lat="45.23109" lon="5.68454">
        <ele>217.12</ele>
        <time>2024-01-30T03:29:48Z</time>
      </trkpt>
      <trkpt lat="45.23102" lon="5.68448">
        <ele>217.06</ele>
        <time>2024-01-30T03:29:50Z</time>
      </trkpt>
      <trkpt lat="45.23053" lon="5.684">
        <ele>215.8</ele>
        <time>2024-01-30T03:29:59Z</time>
      </trkpt>
      <trkpt lat="45.22976" lon="5.68347">
        <ele>215.39</ele>
        <time>2024-01-30T03:30:11Z</time>
      </trkpt>
      <trkpt lat="45.22953" lon="5.68333">
        <ele>215.77</ele>
        <time>2024-01-30T03:30:15Z</time>
      </trkpt>
      <trkpt lat="45.2294" lon="5.68326">
        <ele>215.83</ele>
        <time>2024-01-30T03:30:17Z</time>
      </trkpt>
      <trkpt lat="45.22929" lon="5.68312">
        <ele>215.43</ele>
        <time>2024-01-30T03:30:20Z</time>
      </trkpt>
      <trkpt lat="45.22922" lon="5.68318">
        <ele>215.1</ele>
        <time>2024-01-30T03:30:21Z</time>
      </trkpt>
      <trkpt lat="45.22889" lon="5.68356">
        <ele>212.37</ele>
        <time>2024-01-30T03:30:27Z</time>
      </trkpt>
      <trkpt lat="45.22832" lon="5.68404">
        <ele>212.18</ele>
        <time>2024-01-30T03:30:38Z</time>
      </trkpt>
      <trkpt lat="45.22825" lon="5.68411">
        <ele>211.75</ele>
        <time>2024-01-30T03:30:39Z</time>
      </trkpt>
      <trkpt lat="45.22816" lon="5.68419">
        <ele>211.86</ele>
        <time>2024-01-30T03:30:41Z</time>
      </trkpt>
      <trkpt lat="45.22752" lon="5.68485">
        <ele>210.78</ele>
        <time>2024-01-30T03:30:54Z</time>
      </trkpt>
      <trkpt lat="45.22635" lon="5.68591">
        <ele>209.11</ele>
        <time>2024-01-30T03:31:16Z</time>
      </trkpt>
      <trkpt lat="45.22628" lon="5.68597">
        <ele>209</ele>
        <time>2024-01-30T03:31:17Z</time>
      </trkpt>
      <trkpt lat="45.22587" lon="5.68633">
        <ele>208.5</ele>
        <time>2024-01-30T03:31:24Z</time>
      </trkpt>
      <trkpt lat="45.2254" lon="5.68674">
        <ele>207.86</ele>
        <time>2024-01-30T03:31:33Z</time>
      </trkpt>
      <trkpt lat="45.22534" lon="5.68679">
        <ele>207.83</ele>
        <time>2024-01-30T03:31:34Z</time>
      </trkpt>
      <trkpt lat="45.22524" lon="5.68688">
        <ele>207.78</ele>
        <time>2024-01-30T03:31:36Z</time>
      </trkpt>
      <trkpt lat="45.22521" lon="5.6869">
        <ele>207.67</ele>
        <time>2024-01-30T03:31:37Z</time>
      </trkpt>
      <trkpt lat="45.22437" lon="5.68765">
        <ele>207</ele>
        <time>2024-01-30T03:31:53Z</time>
      </trkpt>
      <trkpt lat="45.2242" lon="5.68777">
        <ele>206.86</ele>
        <time>2024-01-30T03:31:56Z</time>
      </trkpt>
      <trkpt lat="45.22413" lon="5.68783">
        <ele>206.78</ele>
        <time>2024-01-30T03:31:57Z</time>
      </trkpt>
      <trkpt lat="45.22405" lon="5.6879">
        <ele>206.83</ele>
        <time>2024-01-30T03:31:59Z</time>
      </trkpt>
      <trkpt lat="45.22369" lon="5.68824">
        <ele>207.2</ele>
        <time>2024-01-30T03:32:06Z</time>
      </trkpt>
      <trkpt lat="45.22362" lon="5.68831">
        <ele>207.35</ele>
        <time>2024-01-30T03:32:08Z</time>
      </trkpt>
      <trkpt lat="45.22341" lon="5.68848">
        <ele>207.19</ele>
        <time>2024-01-30T03:32:12Z</time>
      </trkpt>
      <trkpt lat="45.22309" lon="5.68876">
        <ele>206.45</ele>
        <time>2024-01-30T03:32:19Z</time>
      </trkpt>
      <trkpt lat="45.2226" lon="5.6892">
        <ele>205.74</ele>
        <time>2024-01-30T03:32:30Z</time>
      </trkpt>
      <trkpt lat="45.22197" lon="5.68975">
        <ele>205.71</ele>
        <time>2024-01-30T03:32:43Z</time>
      </trkpt>
      <trkpt lat="45.22084" lon="5.69076">
        <ele>205.82</ele>
        <time>2024-01-30T03:33:09Z</time>
      </trkpt>
      <trkpt lat="45.22044" lon="5.69111">
        <ele>205.91</ele>
        <time>2024-01-30T03:33:18Z</time>
      </trkpt>
      <trkpt lat="45.22011" lon="5.69134">
        <ele>205.93</ele>
        <time>2024-01-30T03:33:26Z</time>
      </trkpt>
      <trkpt lat="45.22002" lon="5.69142">
        <ele>205.81</ele>
        <time>2024-01-30T03:33:29Z</time>
      </trkpt>
      <trkpt lat="45.21993" lon="5.69151">
        <ele>205.87</ele>
        <time>2024-01-30T03:33:31Z</time>
      </trkpt>
      <trkpt lat="45.21923" lon="5.69217">
        <ele>206.02</ele>
        <time>2024-01-30T03:33:50Z</time>
      </trkpt>
      <trkpt lat="45.2183" lon="5.69298">
        <ele>205.94</ele>
        <time>2024-01-30T03:34:14Z</time>
      </trkpt>
      <trkpt lat="45.21785" lon="5.69332">
        <ele>206.08</ele>
        <time>2024-01-30T03:34:24Z</time>
      </trkpt>
      <trkpt lat="45.21738" lon="5.69376">
        <ele>206.11</ele>
        <time>2024-01-30T03:34:33Z</time>
      </trkpt>
      <trkpt lat="45.21721" lon="5.6939">
        <ele>205.82</ele>
        <time>2024-01-30T03:34:36Z</time>
      </trkpt>
      <trkpt lat="45.21703" lon="5.69406">
        <ele>205.67</ele>
        <time>2024-01-30T03:34:39Z</time>
      </trkpt>
      <trkpt lat="45.21653" lon="5.69449">
        <ele>205.41</ele>
        <time>2024-01-30T03:34:48Z</time>
      </trkpt>
      <trkpt lat="45.21627" lon="5.69471">
        <ele>205.45</ele>
        <time>2024-01-30T03:34:52Z</time>
      </trkpt>
      <trkpt lat="45.21595" lon="5.695">
        <ele>205.55</ele>
        <time>2024-01-30T03:34:58Z</time>
      </trkpt>
      <trkpt lat="45.21562" lon="5.6953">
        <ele>205.83</ele>
        <time>2024-01-30T03:35:04Z</time>
      </trkpt>
      <trkpt lat="45.21524" lon="5.69564">
        <ele>205.97</ele>
        <time>2024-01-30T03:35:11Z</time>
      </trkpt>
      <trkpt lat="45.21483" lon="5.69613">
        <ele>206.19</ele>
        <time>2024-01-30T03:35:21Z</time>
      </trkpt>
      <trkpt lat="45.21477" lon="5.6962">
        <ele>206.06</ele>
        <time>2024-01-30T03:35:22Z</time>
      </trkpt>
      <trkpt lat="45.21471" lon="5.69631">
        <ele>206.03</ele>
        <time>2024-01-30T03:35:25Z</time>
      </trkpt>
      <trkpt lat="45.21448" lon="5.6967">
        <ele>206.44</ele>
        <time>2024-01-30T03:35:33Z</time>
      </trkpt>
      <trkpt lat="45.21435" lon="5.69698">
        <ele>206.46</ele>
        <time>2024-01-30T03:35:41Z</time>
      </trkpt>
      <trkpt lat="45.21419" lon="5.69741">
        <ele>206.62</ele>
        <time>2024-01-30T03:35:51Z</time>
      </trkpt>
      <trkpt lat="45.21396" lon="5.69798">
        <ele>206.84</ele>
        <time>2024-01-30T03:36:06Z</time>
      </trkpt>
      <trkpt lat="45.21368" lon="5.69871">
        <ele>207.33</ele>
        <time>2024-01-30T03:36:26Z</time>
      </trkpt>
      <trkpt lat="45.21363" lon="5.69883">
        <ele>207.5</ele>
        <time>2024-01-30T03:36:29Z</time>
      </trkpt>
      <trkpt lat="45.21358" lon="5.69894">
        <ele>207.6</ele>
        <time>2024-01-30T03:36:32Z</time>
      </trkpt>
      <trkpt lat="45.21333" lon="5.69943">
        <ele>208.63</ele>
        <time>2024-01-30T03:36:43Z</time>
      </trkpt>
      <trkpt lat="45.2131" lon="5.69978">
        <ele>209.07</ele>
        <time>2024-01-30T03:36:52Z</time>
      </trkpt>
      <trkpt lat="45.21283" lon="5.70007">
        <ele>209.75</ele>
        <time>2024-01-30T03:36:59Z</time>
      </trkpt>
      <trkpt lat="45.21266" lon="5.70023">
        <ele>209.96</ele>
        <time>2024-01-30T03:37:03Z</time>
      </trkpt>
      <trkpt lat="45.21257" lon="5.7003">
        <ele>210.37</ele>
        <time>2024-01-30T03:37:05Z</time>
      </trkpt>
      <trkpt lat="45.21226" lon="5.70063">
        <ele>210.37</ele>
        <time>2024-01-30T03:37:11Z</time>
      </trkpt>
      <trkpt lat="45.21121" lon="5.70188">
        <ele>208.69</ele>
        <time>2024-01-30T03:37:30Z</time>
      </trkpt>
      <trkpt lat="45.21069" lon="5.70244">
        <ele>208.5</ele>
        <time>2024-01-30T03:37:41Z</time>
      </trkpt>
      <trkpt lat="45.21062" lon="5.70253">
        <ele>208.42</ele>
        <time>2024-01-30T03:37:42Z</time>
      </trkpt>
      <trkpt lat="45.21051" lon="5.70264">
        <ele>208.31</ele>
        <time>2024-01-30T03:37:44Z</time>
      </trkpt>
      <trkpt lat="45.21026" lon="5.70292">
        <ele>208.14</ele>
        <time>2024-01-30T03:37:50Z</time>
      </trkpt>
      <trkpt lat="45.21006" lon="5.70313">
        <ele>208.39</ele>
        <time>2024-01-30T03:37:55Z</time>
      </trkpt>
      <trkpt lat="45.20985" lon="5.7034">
        <ele>208.53</ele>
        <time>2024-01-30T03:38:02Z</time>
      </trkpt>
      <trkpt lat="45.20956" lon="5.70386">
        <ele>208.93</ele>
        <time>2024-01-30T03:38:12Z</time>
      </trkpt>
      <trkpt lat="45.20909" lon="5.70477">
        <ele>209.11</ele>
        <time>2024-01-30T03:38:33Z</time>
      </trkpt>
      <trkpt lat="45.20858" lon="5.70561">
        <ele>210.25</ele>
        <time>2024-01-30T03:38:52Z</time>
      </trkpt>
      <trkpt lat="45.20841" lon="5.70584">
        <ele>210.74</ele>
        <time>2024-01-30T03:38:57Z</time>
      </trkpt>
      <trkpt lat="45.20813" lon="5.70621">
        <ele>211.12</ele>
        <time>2024-01-30T03:39:04Z</time>
      </trkpt>
      <trkpt lat="45.20806" lon="5.70631">
        <ele>211.16</ele>
        <time>2024-01-30T03:39:06Z</time>
      </trkpt>
      <trkpt lat="45.20719" lon="5.70713">
        <ele>211.38</ele>
        <time>2024-01-30T03:39:23Z</time>
      </trkpt>
      <trkpt lat="45.20717" lon="5.70708">
        <ele>211.46</ele>
        <time>2024-01-30T03:39:24Z</time>
      </trkpt>
      <trkpt lat="45.20691" lon="5.70723">
        <ele>211.88</ele>
        <time>2024-01-30T03:39:28Z</time>
      </trkpt>
      <trkpt lat="45.20636" lon="5.70745">
        <ele>212.95</ele>
        <time>2024-01-30T03:39:37Z</time>
      </trkpt>
      <trkpt lat="45.20616" lon="5.70762">
        <ele>212.56</ele>
        <time>2024-01-30T03:39:40Z</time>
      </trkpt>
      <trkpt lat="45.20616" lon="5.70756">
        <ele>212.87</ele>
        <time>2024-01-30T03:39:41Z</time>
      </trkpt>
      <trkpt lat="45.20608" lon="5.70754">
        <ele>212.65</ele>
        <time>2024-01-30T03:39:42Z</time>
      </trkpt>
      <trkpt lat="45.20501" lon="5.70805">
        <ele>208.48</ele>
        <time>2024-01-30T03:40:13Z</time>
      </trkpt>
      <trkpt lat="45.20492" lon="5.70819">
        <ele>210.39</ele>
        <time>2024-01-30T03:40:15Z</time>
      </trkpt>
      <trkpt lat="45.20474" lon="5.70827">
        <ele>209.88</ele>
        <time>2024-01-30T03:40:18Z</time>
      </trkpt>
      <trkpt lat="45.20219" lon="5.70943">
        <ele>210.22</ele>
        <time>2024-01-30T03:41:03Z</time>
      </trkpt>
      <trkpt lat="45.20093" lon="5.70999">
        <ele>210.56</ele>
        <time>2024-01-30T03:41:30Z</time>
      </trkpt>
      <trkpt lat="45.2008" lon="5.71002">
        <ele>210.71</ele>
        <time>2024-01-30T03:41:33Z</time>
      </trkpt>
      <trkpt lat="45.20021" lon="5.71027">
        <ele>210.79</ele>
        <time>2024-01-30T03:41:47Z</time>
      </trkpt>
      <trkpt lat="45.19951" lon="5.7106">
        <ele>210.8</ele>
        <time>2024-01-30T03:42:03Z</time>
      </trkpt>
      <trkpt lat="45.19899" lon="5.71083">
        <ele>210.8</ele>
        <time>2024-01-30T03:42:13Z</time>
      </trkpt>
      <trkpt lat="45.19866" lon="5.71098">
        <ele>210.83</ele>
        <time>2024-01-30T03:42:19Z</time>
      </trkpt>
      <trkpt lat="45.19851" lon="5.71109">
        <ele>210.79</ele>
        <time>2024-01-30T03:42:22Z</time>
      </trkpt>
      <trkpt lat="45.19762" lon="5.71148">
        <ele>210.91</ele>
        <time>2024-01-30T03:42:38Z</time>
      </trkpt>
      <trkpt lat="45.19746" lon="5.71155">
        <ele>210.84</ele>
        <time>2024-01-30T03:42:41Z</time>
      </trkpt>
      <trkpt lat="45.19666" lon="5.71191">
        <ele>210.93</ele>
        <time>2024-01-30T03:42:55Z</time>
      </trkpt>
      <trkpt lat="45.19629" lon="5.71225">
        <ele>210.83</ele>
        <time>2024-01-30T03:43:03Z</time>
      </trkpt>
      <trkpt lat="45.19605" lon="5.71254">
        <ele>210.73</ele>
        <time>2024-01-30T03:43:09Z</time>
      </trkpt>
      <trkpt lat="45.19601" lon="5.7127">
        <ele>210.62</ele>
        <time>2024-01-30T03:43:11Z</time>
      </trkpt>
      <trkpt lat="45.19596" lon="5.71281">
        <ele>210.52</ele>
        <time>2024-01-30T03:43:13Z</time>
      </trkpt>
      <trkpt lat="45.19571" lon="5.71317">
        <ele>210.37</ele>
        <time>2024-01-30T03:43:19Z</time>
      </trkpt>
      <trkpt lat="45.1955" lon="5.71341">
        <ele>210.32</ele>
        <time>2024-01-30T03:43:24Z</time>
      </trkpt>
      <trkpt lat="45.1954" lon="5.71348">
        <ele>210.33</ele>
        <time>2024-01-30T03:43:27Z</time>
      </trkpt>
      <trkpt lat="45.19529" lon="5.71353">
        <ele>210.32</ele>
        <time>2024-01-30T03:43:29Z</time>
      </trkpt>
      <trkpt lat="45.19524" lon="5.71354">
        <ele>210.34</ele>
        <time>2024-01-30T03:43:30Z</time>
      </trkpt>
      <trkpt lat="45.19516" lon="5.71359">
        <ele>210.17</ele>
        <time>2024-01-30T03:43:32Z</time>
      </trkpt>
      <trkpt lat="45.19445" lon="5.71393">
        <ele>209.93</ele>
        <time>2024-01-30T03:43:47Z</time>
      </trkpt>
      <trkpt lat="45.19398" lon="5.71416">
        <ele>210.03</ele>
        <time>2024-01-30T03:43:58Z</time>
      </trkpt>
      <trkpt lat="45.1921" lon="5.71506">
        <ele>210.55</ele>
        <time>2024-01-30T03:44:44Z</time>
      </trkpt>
      <trkpt lat="45.19203" lon="5.7151">
        <ele>210.64</ele>
        <time>2024-01-30T03:44:45Z</time>
      </trkpt>
      <trkpt lat="45.19166" lon="5.71528">
        <ele>210.97</ele>
        <time>2024-01-30T03:44:52Z</time>
      </trkpt>
      <trkpt lat="45.19137" lon="5.71542">
        <ele>211.13</ele>
        <time>2024-01-30T03:44:58Z</time>
      </trkpt>
      <trkpt lat="45.19127" lon="5.71547">
        <ele>211.29</ele>
        <time>2024-01-30T03:44:59Z</time>
      </trkpt>
      <trkpt lat="45.19123" lon="5.71548">
        <ele>211.23</ele>
        <time>2024-01-30T03:45:00Z</time>
      </trkpt>
      <trkpt lat="45.1912" lon="5.7155">
        <ele>211.19</ele>
        <time>2024-01-30T03:45:01Z</time>
      </trkpt>
      <trkpt lat="45.1906" lon="5.71575">
        <ele>211.27</ele>
        <time>2024-01-30T03:45:11Z</time>
      </trkpt>
      <trkpt lat="45.19044" lon="5.71577">
        <ele>211.26</ele>
        <time>2024-01-30T03:45:14Z</time>
      </trkpt>
      <trkpt lat="45.19021" lon="5.71576">
        <ele>211.37</ele>
        <time>2024-01-30T03:45:18Z</time>
      </trkpt>
      <trkpt lat="45.19011" lon="5.71574">
        <ele>211.39</ele>
        <time>2024-01-30T03:45:19Z</time>
      </trkpt>
      <trkpt lat="45.18981" lon="5.71561">
        <ele>211.51</ele>
        <time>2024-01-30T03:45:24Z</time>
      </trkpt>
      <trkpt lat="45.18966" lon="5.71563">
        <ele>211.44</ele>
        <time>2024-01-30T03:45:27Z</time>
      </trkpt>
      <trkpt lat="45.18921" lon="5.71575">
        <ele>211.71</ele>
        <time>2024-01-30T03:45:35Z</time>
      </trkpt>
      <trkpt lat="45.1891" lon="5.71577">
        <ele>211.41</ele>
        <time>2024-01-30T03:45:37Z</time>
      </trkpt>
      <trkpt lat="45.18896" lon="5.71561">
        <ele>211.1</ele>
        <time>2024-01-30T03:45:40Z</time>
      </trkpt>
      <trkpt lat="45.18886" lon="5.71556">
        <ele>211.46</ele>
        <time>2024-01-30T03:45:43Z</time>
      </trkpt>
      <trkpt lat="45.1884" lon="5.71567">
        <ele>210.89</ele>
        <time>2024-01-30T03:45:52Z</time>
      </trkpt>
      <trkpt lat="45.18815" lon="5.71578">
        <ele>211.11</ele>
        <time>2024-01-30T03:45:57Z</time>
      </trkpt>
      <trkpt lat="45.18761" lon="5.71604">
        <ele>211.81</ele>
        <time>2024-01-30T03:46:09Z</time>
      </trkpt>
      <trkpt lat="45.1875" lon="5.71616">
        <ele>211.86</ele>
        <time>2024-01-30T03:46:11Z</time>
      </trkpt>
      <trkpt lat="45.18714" lon="5.71638">
        <ele>212.09</ele>
        <time>2024-01-30T03:46:20Z</time>
      </trkpt>
      <trkpt lat="45.18706" lon="5.71644">
        <ele>212.05</ele>
        <time>2024-01-30T03:46:21Z</time>
      </trkpt>
      <trkpt lat="45.18642" lon="5.71673">
        <ele>212.3</ele>
        <time>2024-01-30T03:46:35Z</time>
      </trkpt>
      <trkpt lat="45.18636" lon="5.71676">
        <ele>212.34</ele>
        <time>2024-01-30T03:46:36Z</time>
      </trkpt>
      <trkpt lat="45.186" lon="5.71693">
        <ele>212.28</ele>
        <time>2024-01-30T03:46:43Z</time>
      </trkpt>
      <trkpt lat="45.18591" lon="5.71698">
        <ele>212.23</ele>
        <time>2024-01-30T03:46:45Z</time>
      </trkpt>
      <trkpt lat="45.18583" lon="5.71702">
        <ele>212.25</ele>
        <time>2024-01-30T03:46:46Z</time>
      </trkpt>
      <trkpt lat="45.18547" lon="5.71718">
        <ele>212.36</ele>
        <time>2024-01-30T03:46:53Z</time>
      </trkpt>
      <trkpt lat="45.18471" lon="5.71752">
        <ele>212.4</ele>
        <time>2024-01-30T03:47:06Z</time>
      </trkpt>
      <trkpt lat="45.18461" lon="5.71758">
        <ele>212.5</ele>
        <time>2024-01-30T03:47:08Z</time>
      </trkpt>
      <trkpt lat="45.18458" lon="5.71763">
        <ele>212.49</ele>
        <time>2024-01-30T03:47:09Z</time>
      </trkpt>
      <trkpt lat="45.18457" lon="5.71769">
        <ele>212.47</ele>
        <time>2024-01-30T03:47:10Z</time>
      </trkpt>
      <trkpt lat="45.18452" lon="5.71767">
        <ele>212.56</ele>
        <time>2024-01-30T03:47:11Z</time>
      </trkpt>
      <trkpt lat="45.18402" lon="5.71751">
        <ele>213.06</ele>
        <time>2024-01-30T03:47:20Z</time>
      </trkpt>
      <trkpt lat="45.18383" lon="5.71744">
        <ele>213.08</ele>
        <time>2024-01-30T03:47:24Z</time>
      </trkpt>
      <trkpt lat="45.18381" lon="5.71743">
        <ele>213.08</ele>
        <time>2024-01-30T03:47:25Z</time>
      </trkpt>
      <trkpt lat="45.18318" lon="5.71723">
        <ele>213.4</ele>
        <time>2024-01-30T03:47:40Z</time>
      </trkpt>
      <trkpt lat="45.18309" lon="5.71715">
        <ele>213.42</ele>
        <time>2024-01-30T03:47:42Z</time>
      </trkpt>
      <trkpt lat="45.18302" lon="5.71713">
        <ele>213.44</ele>
        <time>2024-01-30T03:47:44Z</time>
      </trkpt>
      <trkpt lat="45.18298" lon="5.71712">
        <ele>213.41</ele>
        <time>2024-01-30T03:47:45Z</time>
      </trkpt>
      <trkpt lat="45.18281" lon="5.71707">
        <ele>213.37</ele>
        <time>2024-01-30T03:47:49Z</time>
      </trkpt>
      <trkpt lat="45.18275" lon="5.71705">
        <ele>213.41</ele>
        <time>2024-01-30T03:47:50Z</time>
      </trkpt>
      <trkpt lat="45.18273" lon="5.71693">
        <ele>213.37</ele>
        <time>2024-01-30T03:47:52Z</time>
      </trkpt>
      <trkpt lat="45.18266" lon="5.71644">
        <ele>213.38</ele>
        <time>2024-01-30T03:48:00Z</time>
      </trkpt>
      <trkpt lat="45.18262" lon="5.71635">
        <ele>213.31</ele>
        <time>2024-01-30T03:48:02Z</time>
      </trkpt>
      <trkpt lat="45.18232" lon="5.7158">
        <ele>213.6</ele>
        <time>2024-01-30T03:48:13Z</time>
      </trkpt>
      <trkpt lat="45.1822" lon="5.71557">
        <ele>213.57</ele>
        <time>2024-01-30T03:48:18Z</time>
      </trkpt>
      <trkpt lat="45.18218" lon="5.71553">
        <ele>213.6</ele>
        <time>2024-01-30T03:48:19Z</time>
      </trkpt>
      <trkpt lat="45.18216" lon="5.7155">
        <ele>213.62</ele>
        <time>2024-01-30T03:48:19Z</time>
      </trkpt>
      <trkpt lat="45.1821" lon="5.7154">
        <ele>213.61</ele>
        <time>2024-01-30T03:48:21Z</time>
      </trkpt>
      <trkpt lat="45.18204" lon="5.71529">
        <ele>213.49</ele>
        <time>2024-01-30T03:48:23Z</time>
      </trkpt>
      <trkpt lat="45.18201" lon="5.71524">
        <ele>213.54</ele>
        <time>2024-01-30T03:48:24Z</time>
      </trkpt>
      <trkpt lat="45.18172" lon="5.71475">
        <ele>213.8</ele>
        <time>2024-01-30T03:48:33Z</time>
      </trkpt>
      <trkpt lat="45.1817" lon="5.71472">
        <ele>213.87</ele>
        <time>2024-01-30T03:48:34Z</time>
      </trkpt>
      <trkpt lat="45.18166" lon="5.71465">
        <ele>213.99</ele>
        <time>2024-01-30T03:48:35Z</time>
      </trkpt>
      <trkpt lat="45.18164" lon="5.71462">
        <ele>213.99</ele>
        <time>2024-01-30T03:48:36Z</time>
      </trkpt>
      <trkpt lat="45.18162" lon="5.71458">
        <ele>213.97</ele>
        <time>2024-01-30T03:48:36Z</time>
      </trkpt>
      <trkpt lat="45.18157" lon="5.71449">
        <ele>214.05</ele>
        <time>2024-01-30T03:48:37Z</time>
      </trkpt>
      <trkpt lat="45.1815" lon="5.7144">
        <ele>214.05</ele>
        <time>2024-01-30T03:48:39Z</time>
      </trkpt>
      <trkpt lat="45.18132" lon="5.71416">
        <ele>214.18</ele>
        <time>2024-01-30T03:48:43Z</time>
      </trkpt>
      <trkpt lat="45.18119" lon="5.71399">
        <ele>214.19</ele>
        <time>2024-01-30T03:48:46Z</time>
      </trkpt>
      <trkpt lat="45.18113" lon="5.71392">
        <ele>214.17</ele>
        <time>2024-01-30T03:48:47Z</time>
      </trkpt>
      <trkpt lat="45.18109" lon="5.71386">
        <ele>214.23</ele>
        <time>2024-01-30T03:48:48Z</time>
      </trkpt>
      <trkpt lat="45.18106" lon="5.71378">
        <ele>214.29</ele>
        <time>2024-01-30T03:48:49Z</time>
      </trkpt>
      <trkpt lat="45.18099" lon="5.71368">
        <ele>214.32</ele>
        <time>2024-01-30T03:48:51Z</time>
      </trkpt>
      <trkpt lat="45.18066" lon="5.71324">
        <ele>214.62</ele>
        <time>2024-01-30T03:48:58Z</time>
      </trkpt>
      <trkpt lat="45.18043" lon="5.71291">
        <ele>215.06</ele>
        <time>2024-01-30T03:49:04Z</time>
      </trkpt>
      <trkpt lat="45.18036" lon="5.71291">
        <ele>215.07</ele>
        <time>2024-01-30T03:49:05Z</time>
      </trkpt>
      <trkpt lat="45.18036" lon="5.71285">
        <ele>215.07</ele>
        <time>2024-01-30T03:49:06Z</time>
      </trkpt>
      <trkpt lat="45.18036" lon="5.7128">
        <ele>215.08</ele>
        <time>2024-01-30T03:49:06Z</time>
      </trkpt>
      <trkpt lat="45.18035" lon="5.71227">
        <ele>215.28</ele>
        <time>2024-01-30T03:49:12Z</time>
      </trkpt>
      <trkpt lat="45.18034" lon="5.7122">
        <ele>215.27</ele>
        <time>2024-01-30T03:49:13Z</time>
      </trkpt>
      <trkpt lat="45.18034" lon="5.71211">
        <ele>215.36</ele>
        <time>2024-01-30T03:49:14Z</time>
      </trkpt>
      <trkpt lat="45.18033" lon="5.7116">
        <ele>215.35</ele>
        <time>2024-01-30T03:49:20Z</time>
      </trkpt>
      <trkpt lat="45.18032" lon="5.71141">
        <ele>215.31</ele>
        <time>2024-01-30T03:49:22Z</time>
      </trkpt>
      <trkpt lat="45.18032" lon="5.71133">
        <ele>215.36</ele>
        <time>2024-01-30T03:49:23Z</time>
      </trkpt>
      <trkpt lat="45.18032" lon="5.71125">
        <ele>215.45</ele>
        <time>2024-01-30T03:49:24Z</time>
      </trkpt>
      <trkpt lat="45.18032" lon="5.71116">
        <ele>215.55</ele>
        <time>2024-01-30T03:49:25Z</time>
      </trkpt>
      <trkpt lat="45.1803" lon="5.71037">
        <ele>215.86</ele>
        <time>2024-01-30T03:49:34Z</time>
      </trkpt>
      <trkpt lat="45.18029" lon="5.71026">
        <ele>215.81</ele>
        <time>2024-01-30T03:49:36Z</time>
      </trkpt>
      <trkpt lat="45.18029" lon="5.71019">
        <ele>215.81</ele>
        <time>2024-01-30T03:49:37Z</time>
      </trkpt>
      <trkpt lat="45.18029" lon="5.71012">
        <ele>215.89</ele>
        <time>2024-01-30T03:49:38Z</time>
      </trkpt>
      <trkpt lat="45.18029" lon="5.70999">
        <ele>215.96</ele>
        <time>2024-01-30T03:49:39Z</time>
      </trkpt>
      <trkpt lat="45.18028" lon="5.70987">
        <ele>216.07</ele>
        <time>2024-01-30T03:49:40Z</time>
      </trkpt>
      <trkpt lat="45.18026" lon="5.7087">
        <ele>216.39</ele>
        <time>2024-01-30T03:49:55Z</time>
      </trkpt>
      <trkpt lat="45.18027" lon="5.70857">
        <ele>216.41</ele>
        <time>2024-01-30T03:49:57Z</time>
      </trkpt>
      <trkpt lat="45.18027" lon="5.70845">
        <ele>216.32</ele>
        <time>2024-01-30T03:49:59Z</time>
      </trkpt>
      <trkpt lat="45.18027" lon="5.70838">
        <ele>216.29</ele>
        <time>2024-01-30T03:50:00Z</time>
      </trkpt>
      <trkpt lat="45.18026" lon="5.70831">
        <ele>216.33</ele>
        <time>2024-01-30T03:50:00Z</time>
      </trkpt>
      <trkpt lat="45.18026" lon="5.70827">
        <ele>216.35</ele>
        <time>2024-01-30T03:50:01Z</time>
      </trkpt>
      <trkpt lat="45.18026" lon="5.70815">
        <ele>216.35</ele>
        <time>2024-01-30T03:50:03Z</time>
      </trkpt>
      <trkpt lat="45.18024" lon="5.70804">
        <ele>216.5</ele>
        <time>2024-01-30T03:50:04Z</time>
      </trkpt>
      <trkpt lat="45.18023" lon="5.70738">
        <ele>216.67</ele>
        <time>2024-01-30T03:50:13Z</time>
      </trkpt>
      <trkpt lat="45.18024" lon="5.7073">
        <ele>216.66</ele>
        <time>2024-01-30T03:50:14Z</time>
      </trkpt>
      <trkpt lat="45.18024" lon="5.70713">
        <ele>216.69</ele>
        <time>2024-01-30T03:50:17Z</time>
      </trkpt>
      <trkpt lat="45.18024" lon="5.70704">
        <ele>216.72</ele>
        <time>2024-01-30T03:50:18Z</time>
      </trkpt>
      <trkpt lat="45.18023" lon="5.70695">
        <ele>216.82</ele>
        <time>2024-01-30T03:50:19Z</time>
      </trkpt>
      <trkpt lat="45.18023" lon="5.70669">
        <ele>216.91</ele>
        <time>2024-01-30T03:50:23Z</time>
      </trkpt>
      <trkpt lat="45.18023" lon="5.70641">
        <ele>217</ele>
        <time>2024-01-30T03:50:28Z</time>
      </trkpt>
      <trkpt lat="45.18022" lon="5.70575">
        <ele>217.11</ele>
        <time>2024-01-30T03:50:38Z</time>
      </trkpt>
      <trkpt lat="45.18029" lon="5.70561">
        <ele>217.24</ele>
        <time>2024-01-30T03:50:41Z</time>
      </trkpt>
      <trkpt lat="45.18029" lon="5.70548">
        <ele>217.49</ele>
        <time>2024-01-30T03:50:43Z</time>
      </trkpt>
      <trkpt lat="45.18028" lon="5.70534">
        <ele>217.83</ele>
        <time>2024-01-30T03:50:44Z</time>
      </trkpt>
      <trkpt lat="45.18028" lon="5.7052">
        <ele>217.96</ele>
        <time>2024-01-30T03:50:46Z</time>
      </trkpt>
      <trkpt lat="45.18022" lon="5.70511">
        <ele>218.09</ele>
        <time>2024-01-30T03:50:48Z</time>
      </trkpt>
      <trkpt lat="45.1802" lon="5.70504">
        <ele>218.07</ele>
        <time>2024-01-30T03:50:49Z</time>
      </trkpt>
      <trkpt lat="45.18013" lon="5.70504">
        <ele>218.37</ele>
        <time>2024-01-30T03:50:50Z</time>
      </trkpt>
      <trkpt lat="45.18011" lon="5.70401">
        <ele>221.39</ele>
        <time>2024-01-30T03:51:03Z</time>
      </trkpt>
      <trkpt lat="45.18011" lon="5.70355">
        <ele>222.65</ele>
        <time>2024-01-30T03:51:09Z</time>
      </trkpt>
      <trkpt lat="45.1801" lon="5.70295">
        <ele>224.2</ele>
        <time>2024-01-30T03:51:16Z</time>
      </trkpt>
      <trkpt lat="45.18012" lon="5.70215">
        <ele>219.66</ele>
        <time>2024-01-30T03:51:25Z</time>
      </trkpt>
      <trkpt lat="45.18012" lon="5.70186">
        <ele>223.72</ele>
        <time>2024-01-30T03:51:28Z</time>
      </trkpt>
      <trkpt lat="45.18016" lon="5.69922">
        <ele>217.51</ele>
        <time>2024-01-30T03:51:58Z</time>
      </trkpt>
      <trkpt lat="45.18024" lon="5.69799">
        <ele>217.06</ele>
        <time>2024-01-30T03:52:13Z</time>
      </trkpt>
      <trkpt lat="45.18026" lon="5.69783">
        <ele>216.81</ele>
        <time>2024-01-30T03:52:15Z</time>
      </trkpt>
      <trkpt lat="45.18034" lon="5.69783">
        <ele>216.68</ele>
        <time>2024-01-30T03:52:16Z</time>
      </trkpt>
      <trkpt lat="45.18034" lon="5.69777">
        <ele>216.63</ele>
        <time>2024-01-30T03:52:17Z</time>
      </trkpt>
      <trkpt lat="45.18034" lon="5.69768">
        <ele>216.71</ele>
        <time>2024-01-30T03:52:18Z</time>
      </trkpt>
      <trkpt lat="45.18035" lon="5.69721">
        <ele>216.57</ele>
        <time>2024-01-30T03:52:24Z</time>
      </trkpt>
      <trkpt lat="45.18038" lon="5.69713">
        <ele>216.56</ele>
        <time>2024-01-30T03:52:25Z</time>
      </trkpt>
      <trkpt lat="45.18038" lon="5.69707">
        <ele>216.54</ele>
        <time>2024-01-30T03:52:26Z</time>
      </trkpt>
      <trkpt lat="45.18038" lon="5.69702">
        <ele>216.52</ele>
        <time>2024-01-30T03:52:27Z</time>
      </trkpt>
      <trkpt lat="45.18038" lon="5.69696">
        <ele>216.47</ele>
        <time>2024-01-30T03:52:28Z</time>
      </trkpt>
      <trkpt lat="45.18033" lon="5.6969">
        <ele>216.6</ele>
        <time>2024-01-30T03:52:29Z</time>
      </trkpt>
      <trkpt lat="45.18035" lon="5.69658">
        <ele>216.86</ele>
        <time>2024-01-30T03:52:33Z</time>
      </trkpt>
      <trkpt lat="45.18035" lon="5.69652">
        <ele>216.89</ele>
        <time>2024-01-30T03:52:34Z</time>
      </trkpt>
      <trkpt lat="45.18038" lon="5.69589">
        <ele>217.05</ele>
        <time>2024-01-30T03:52:42Z</time>
      </trkpt>
      <trkpt lat="45.18039" lon="5.69585">
        <ele>217.14</ele>
        <time>2024-01-30T03:52:42Z</time>
      </trkpt>
      <trkpt lat="45.1804" lon="5.69564">
        <ele>216.95</ele>
        <time>2024-01-30T03:52:45Z</time>
      </trkpt>
      <trkpt lat="45.18041" lon="5.69533">
        <ele>216.74</ele>
        <time>2024-01-30T03:52:49Z</time>
      </trkpt>
      <trkpt lat="45.18042" lon="5.69517">
        <ele>216.63</ele>
        <time>2024-01-30T03:52:51Z</time>
      </trkpt>
      <trkpt lat="45.18043" lon="5.69478">
        <ele>216.56</ele>
        <time>2024-01-30T03:52:56Z</time>
      </trkpt>
      <trkpt lat="45.18045" lon="5.69447">
        <ele>216.38</ele>
        <time>2024-01-30T03:53:00Z</time>
      </trkpt>
      <trkpt lat="45.18047" lon="5.69439">
        <ele>216.29</ele>
        <time>2024-01-30T03:53:01Z</time>
      </trkpt>
      <trkpt lat="45.18047" lon="5.69433">
        <ele>216.22</ele>
        <time>2024-01-30T03:53:02Z</time>
      </trkpt>
      <trkpt lat="45.18047" lon="5.69425">
        <ele>216.26</ele>
        <time>2024-01-30T03:53:03Z</time>
      </trkpt>
      <trkpt lat="45.18048" lon="5.69377">
        <ele>216.11</ele>
        <time>2024-01-30T03:53:09Z</time>
      </trkpt>
      <trkpt lat="45.18047" lon="5.69364">
        <ele>216.11</ele>
        <time>2024-01-30T03:53:11Z</time>
      </trkpt>
      <trkpt lat="45.18052" lon="5.6934">
        <ele>215.84</ele>
        <time>2024-01-30T03:53:14Z</time>
      </trkpt>
      <trkpt lat="45.18082" lon="5.69305">
        <ele>215.54</ele>
        <time>2024-01-30T03:53:21Z</time>
      </trkpt>
      <trkpt lat="45.18119" lon="5.69259">
        <ele>215.44</ele>
        <time>2024-01-30T03:53:30Z</time>
      </trkpt>
      <trkpt lat="45.18117" lon="5.69256">
        <ele>215.44</ele>
        <time>2024-01-30T03:53:31Z</time>
      </trkpt>
      <trkpt lat="45.18115" lon="5.69254">
        <ele>215.47</ele>
        <time>2024-01-30T03:53:31Z</time>
      </trkpt>
      <trkpt lat="45.18113" lon="5.69252">
        <ele>215.43</ele>
        <time>2024-01-30T03:53:32Z</time>
      </trkpt>
      <trkpt lat="45.18112" lon="5.6925">
        <ele>215.39</ele>
        <time>2024-01-30T03:53:32Z</time>
      </trkpt>
      <trkpt lat="45.18115" lon="5.69242">
        <ele>215.4</ele>
        <time>2024-01-30T03:53:33Z</time>
      </trkpt>
      <trkpt lat="45.18112" lon="5.69239">
        <ele>215.3</ele>
        <time>2024-01-30T03:53:34Z</time>
      </trkpt>
      <trkpt lat="45.18118" lon="5.69232">
        <ele>215.23</ele>
        <time>2024-01-30T03:53:35Z</time>
      </trkpt>
      <trkpt lat="45.18143" lon="5.69199">
        <ele>215</ele>
        <time>2024-01-30T03:53:41Z</time>
      </trkpt>
      <trkpt lat="45.18177" lon="5.69162">
        <ele>214.65</ele>
        <time>2024-01-30T03:53:49Z</time>
      </trkpt>
      <trkpt lat="45.18222" lon="5.69124">
        <ele>214.66</ele>
        <time>2024-01-30T03:53:58Z</time>
      </trkpt>
      <trkpt lat="45.18273" lon="5.69085">
        <ele>214.33</ele>
        <time>2024-01-30T03:54:08Z</time>
      </trkpt>
      <trkpt lat="45.18271" lon="5.69079">
        <ele>214.33</ele>
        <time>2024-01-30T03:54:09Z</time>
      </trkpt>
      <trkpt lat="45.18248" lon="5.68992">
        <ele>214.18</ele>
        <time>2024-01-30T03:54:20Z</time>
      </trkpt>
      <trkpt lat="45.18242" lon="5.68971">
        <ele>214.16</ele>
        <time>2024-01-30T03:54:22Z</time>
      </trkpt>
      <trkpt lat="45.18232" lon="5.68938">
        <ele>214.24</ele>
        <time>2024-01-30T03:54:27Z</time>
      </trkpt>
      <trkpt lat="45.18227" lon="5.68915">
        <ele>214.34</ele>
        <time>2024-01-30T03:54:30Z</time>
      </trkpt>
      <trkpt lat="45.18224" lon="5.68904">
        <ele>214.39</ele>
        <time>2024-01-30T03:54:31Z</time>
      </trkpt>
      <trkpt lat="45.1822" lon="5.68887">
        <ele>214.48</ele>
        <time>2024-01-30T03:54:34Z</time>
      </trkpt>
      <trkpt lat="45.18219" lon="5.68883">
        <ele>214.48</ele>
        <time>2024-01-30T03:54:34Z</time>
      </trkpt>
      <trkpt lat="45.18193" lon="5.68779">
        <ele>215.02</ele>
        <time>2024-01-30T03:54:53Z</time>
      </trkpt>
      <trkpt lat="45.18195" lon="5.68767">
        <ele>215.2</ele>
        <time>2024-01-30T03:54:56Z</time>
      </trkpt>
      <trkpt lat="45.18172" lon="5.68754">
        <ele>215.12</ele>
        <time>2024-01-30T03:55:03Z</time>
      </trkpt>
      <trkpt lat="45.18174" lon="5.68745">
        <ele>215.16</ele>
        <time>2024-01-30T03:55:05Z</time>
      </trkpt>
      <trkpt lat="45.1816" lon="5.68705">
        <ele>215.93</ele>
        <time>2024-01-30T03:55:15Z</time>
      </trkpt>
      <trkpt lat="45.18153" lon="5.68694">
        <ele>216.13</ele>
        <time>2024-01-30T03:55:20Z</time>
      </trkpt>
      <trkpt lat="45.18143" lon="5.68687">
        <ele>216.49</ele>
        <time>2024-01-30T03:55:24Z</time>
      </trkpt>
      <trkpt lat="45.18137" lon="5.68684">
        <ele>216.68</ele>
        <time>2024-01-30T03:55:26Z</time>
      </trkpt>
      <trkpt lat="45.18138" lon="5.68672">
        <ele>217.35</ele>
        <time>2024-01-30T03:55:29Z</time>
      </trkpt>
      <trkpt lat="45.18139" lon="5.68665">
        <ele>217.99</ele>
        <time>2024-01-30T03:55:33Z</time>
      </trkpt>
      <trkpt lat="45.18142" lon="5.68663">
        <ele>218.44</ele>
        <time>2024-01-30T03:55:34Z</time>
      </trkpt>
      <trkpt lat="45.18172" lon="5.68666">
        <ele>224.89</ele>
        <time>2024-01-30T03:55:47Z</time>
      </trkpt>
      <trkpt lat="45.18174" lon="5.68663">
        <ele>224.89</ele>
        <time>2024-01-30T03:55:49Z</time>
      </trkpt>
      <trkpt lat="45.18174" lon="5.68658">
        <ele>226.57</ele>
        <time>2024-01-30T03:55:51Z</time>
      </trkpt>
      <trkpt lat="45.18157" lon="5.68645">
        <ele>230.5</ele>
        <time>2024-01-30T03:55:59Z</time>
      </trkpt>
      <trkpt lat="45.18136" lon="5.6862">
        <ele>234.25</ele>
        <time>2024-01-30T03:56:13Z</time>
      </trkpt>
      <trkpt lat="45.1812" lon="5.68611">
        <ele>238.72</ele>
        <time>2024-01-30T03:56:21Z</time>
      </trkpt>
      <trkpt lat="45.18106" lon="5.68595">
        <ele>241.02</ele>
        <time>2024-01-30T03:56:32Z</time>
      </trkpt>
      <trkpt lat="45.1809" lon="5.68585">
        <ele>244.43</ele>
        <time>2024-01-30T03:56:41Z</time>
      </trkpt>
      <trkpt lat="45.1809" lon="5.68578">
        <ele>245.2</ele>
        <time>2024-01-30T03:56:45Z</time>
      </trkpt>
      <trkpt lat="45.18094" lon="5.68576">
        <ele>246.42</ele>
        <time>2024-01-30T03:56:48Z</time>
      </trkpt>
      <trkpt lat="45.18109" lon="5.68582">
        <ele>248.13</ele>
        <time>2024-01-30T03:56:57Z</time>
      </trkpt>
      <trkpt lat="45.18146" lon="5.68588">
        <ele>255.58</ele>
        <time>2024-01-30T03:57:22Z</time>
      </trkpt>
      <trkpt lat="45.18159" lon="5.68595">
        <ele>257.36</ele>
        <time>2024-01-30T03:57:33Z</time>
      </trkpt>
      <trkpt lat="45.18168" lon="5.68606">
        <ele>259.38</ele>
        <time>2024-01-30T03:57:42Z</time>
      </trkpt>
      <trkpt lat="45.18177" lon="5.68613">
        <ele>261.04</ele>
        <time>2024-01-30T03:57:50Z</time>
      </trkpt>
      <trkpt lat="45.18214" lon="5.68603">
        <ele>268.63</ele>
        <time>2024-01-30T03:58:21Z</time>
      </trkpt>
      <trkpt lat="45.18259" lon="5.68599">
        <ele>277.56</ele>
        <time>2024-01-30T03:59:02Z</time>
      </trkpt>
      <trkpt lat="45.18275" lon="5.68594">
        <ele>280.78</ele>
        <time>2024-01-30T03:59:18Z</time>
      </trkpt>
      <trkpt lat="45.18339" lon="5.68558">
        <ele>286.61</ele>
        <time>2024-01-30T04:00:25Z</time>
      </trkpt>
      <trkpt lat="45.18356" lon="5.68534">
        <ele>286.96</ele>
        <time>2024-01-30T04:00:48Z</time>
      </trkpt>
      <trkpt lat="45.18367" lon="5.68512">
        <ele>288.87</ele>
        <time>2024-01-30T04:01:07Z</time>
      </trkpt>
      <trkpt lat="45.18395" lon="5.6849">
        <ele>293.13</ele>
        <time>2024-01-30T04:01:35Z</time>
      </trkpt>
      <trkpt lat="45.18403" lon="5.6848">
        <ele>293.85</ele>
        <time>2024-01-30T04:01:44Z</time>
      </trkpt>
      <trkpt lat="45.1842" lon="5.68438">
        <ele>296.78</ele>
        <time>2024-01-30T04:02:12Z</time>
      </trkpt>
      <trkpt lat="45.18439" lon="5.68392">
        <ele>295.18</ele>
        <time>2024-01-30T04:02:37Z</time>
      </trkpt>
      <trkpt lat="45.18447" lon="5.68372">
        <ele>294.13</ele>
        <time>2024-01-30T04:02:48Z</time>
      </trkpt>
      <trkpt lat="45.18474" lon="5.68323">
        <ele>294.44</ele>
        <time>2024-01-30T04:03:10Z</time>
      </trkpt>
      <trkpt lat="45.18497" lon="5.68293">
        <ele>296.13</ele>
        <time>2024-01-30T04:03:23Z</time>
      </trkpt>
      <trkpt lat="45.18508" lon="5.68271">
        <ele>297.87</ele>
        <time>2024-01-30T04:03:30Z</time>
      </trkpt>
      <trkpt lat="45.18519" lon="5.68248">
        <ele>300.62</ele>
        <time>2024-01-30T04:03:38Z</time>
      </trkpt>
      <trkpt lat="45.18526" lon="5.68231">
        <ele>301.98</ele>
        <time>2024-01-30T04:03:42Z</time>
      </trkpt>
      <trkpt lat="45.18527" lon="5.68222">
        <ele>301.99</ele>
        <time>2024-01-30T04:03:45Z</time>
      </trkpt>
      <trkpt lat="45.18529" lon="5.68206">
        <ele>303.29</ele>
        <time>2024-01-30T04:03:50Z</time>
      </trkpt>
      <trkpt lat="45.18545" lon="5.68151">
        <ele>307.86</ele>
        <time>2024-01-30T04:04:07Z</time>
      </trkpt>
      <trkpt lat="45.18549" lon="5.68128">
        <ele>309.19</ele>
        <time>2024-01-30T04:04:13Z</time>
      </trkpt>
      <trkpt lat="45.18558" lon="5.681">
        <ele>310.77</ele>
        <time>2024-01-30T04:04:23Z</time>
      </trkpt>
      <trkpt lat="45.18566" lon="5.68073">
        <ele>310.96</ele>
        <time>2024-01-30T04:04:31Z</time>
      </trkpt>
      <trkpt lat="45.18572" lon="5.68037">
        <ele>312.73</ele>
        <time>2024-01-30T04:04:41Z</time>
      </trkpt>
      <trkpt lat="45.1857" lon="5.68019">
        <ele>314.02</ele>
        <time>2024-01-30T04:04:46Z</time>
      </trkpt>
      <trkpt lat="45.18568" lon="5.68008">
        <ele>314.43</ele>
        <time>2024-01-30T04:04:50Z</time>
      </trkpt>
      <trkpt lat="45.18563" lon="5.67978">
        <ele>314.99</ele>
        <time>2024-01-30T04:04:58Z</time>
      </trkpt>
      <trkpt lat="45.18562" lon="5.67961">
        <ele>315.76</ele>
        <time>2024-01-30T04:05:03Z</time>
      </trkpt>
      <trkpt lat="45.18567" lon="5.67908">
        <ele>318.5</ele>
        <time>2024-01-30T04:05:19Z</time>
      </trkpt>
      <trkpt lat="45.18573" lon="5.67883">
        <ele>321.02</ele>
        <time>2024-01-30T04:05:28Z</time>
      </trkpt>
      <trkpt lat="45.18609" lon="5.67814">
        <ele>327.33</ele>
        <time>2024-01-30T04:05:55Z</time>
      </trkpt>
      <trkpt lat="45.18637" lon="5.6777">
        <ele>329.66</ele>
        <time>2024-01-30T04:06:12Z</time>
      </trkpt>
      <trkpt lat="45.1865" lon="5.67741">
        <ele>332.53</ele>
        <time>2024-01-30T04:06:21Z</time>
      </trkpt>
      <trkpt lat="45.18664" lon="5.67725">
        <ele>333.62</ele>
        <time>2024-01-30T04:06:28Z</time>
      </trkpt>
      <trkpt lat="45.18727" lon="5.67678">
        <ele>334.7</ele>
        <time>2024-01-30T04:06:57Z</time>
      </trkpt>
      <trkpt lat="45.18733" lon="5.67667">
        <ele>334.76</ele>
        <time>2024-01-30T04:07:01Z</time>
      </trkpt>
      <trkpt lat="45.18742" lon="5.67616">
        <ele>337.52</ele>
        <time>2024-01-30T04:07:19Z</time>
      </trkpt>
      <trkpt lat="45.18751" lon="5.67597">
        <ele>339.06</ele>
        <time>2024-01-30T04:07:26Z</time>
      </trkpt>
      <trkpt lat="45.18771" lon="5.67568">
        <ele>340.53</ele>
        <time>2024-01-30T04:07:41Z</time>
      </trkpt>
      <trkpt lat="45.18774" lon="5.67555">
        <ele>340.49</ele>
        <time>2024-01-30T04:07:46Z</time>
      </trkpt>
      <trkpt lat="45.18771" lon="5.67538">
        <ele>340.76</ele>
        <time>2024-01-30T04:07:53Z</time>
      </trkpt>
      <trkpt lat="45.18749" lon="5.67489">
        <ele>343.95</ele>
        <time>2024-01-30T04:08:15Z</time>
      </trkpt>
      <trkpt lat="45.18731" lon="5.67465">
        <ele>347.61</ele>
        <time>2024-01-30T04:08:28Z</time>
      </trkpt>
      <trkpt lat="45.18727" lon="5.67454">
        <ele>349.58</ele>
        <time>2024-01-30T04:08:34Z</time>
      </trkpt>
      <trkpt lat="45.18728" lon="5.67449">
        <ele>350.24</ele>
        <time>2024-01-30T04:08:36Z</time>
      </trkpt>
      <trkpt lat="45.18762" lon="5.67385">
        <ele>358.51</ele>
        <time>2024-01-30T04:09:09Z</time>
      </trkpt>
      <trkpt lat="45.18778" lon="5.6733">
        <ele>361.75</ele>
        <time>2024-01-30T04:09:36Z</time>
      </trkpt>
      <trkpt lat="45.18785" lon="5.67313">
        <ele>363.46</ele>
        <time>2024-01-30T04:09:44Z</time>
      </trkpt>
      <trkpt lat="45.18804" lon="5.67282">
        <ele>367.12</ele>
        <time>2024-01-30T04:10:02Z</time>
      </trkpt>
      <trkpt lat="45.1882" lon="5.67262">
        <ele>370.79</ele>
        <time>2024-01-30T04:10:15Z</time>
      </trkpt>
      <trkpt lat="45.18827" lon="5.67243">
        <ele>374.42</ele>
        <time>2024-01-30T04:10:25Z</time>
      </trkpt>
      <trkpt lat="45.18823" lon="5.67237">
        <ele>375.36</ele>
        <time>2024-01-30T04:10:29Z</time>
      </trkpt>
      <trkpt lat="45.1878" lon="5.6722">
        <ele>380.56</ele>
        <time>2024-01-30T04:10:59Z</time>
      </trkpt>
      <trkpt lat="45.1875" lon="5.672">
        <ele>382.97</ele>
        <time>2024-01-30T04:11:23Z</time>
      </trkpt>
      <trkpt lat="45.18705" lon="5.6718">
        <ele>390.51</ele>
        <time>2024-01-30T04:11:54Z</time>
      </trkpt>
      <trkpt lat="45.18697" lon="5.67173">
        <ele>391.09</ele>
        <time>2024-01-30T04:12:01Z</time>
      </trkpt>
      <trkpt lat="45.18695" lon="5.67159">
        <ele>392.89</ele>
        <time>2024-01-30T04:12:07Z</time>
      </trkpt>
      <trkpt lat="45.18698" lon="5.67091">
        <ele>399.39</ele>
        <time>2024-01-30T04:12:36Z</time>
      </trkpt>
      <trkpt lat="45.18695" lon="5.67074">
        <ele>400.95</ele>
        <time>2024-01-30T04:12:43Z</time>
      </trkpt>
      <trkpt lat="45.18676" lon="5.6708">
        <ele>403.34</ele>
        <time>2024-01-30T04:12:54Z</time>
      </trkpt>
      <trkpt lat="45.18665" lon="5.67089">
        <ele>403.97</ele>
        <time>2024-01-30T04:13:02Z</time>
      </trkpt>
      <trkpt lat="45.18634" lon="5.67121">
        <ele>407.25</ele>
        <time>2024-01-30T04:13:23Z</time>
      </trkpt>
      <trkpt lat="45.1855" lon="5.6717">
        <ele>409.04</ele>
        <time>2024-01-30T04:14:07Z</time>
      </trkpt>
      <trkpt lat="45.18506" lon="5.67222">
        <ele>413.49</ele>
        <time>2024-01-30T04:14:31Z</time>
      </trkpt>
      <trkpt lat="45.18484" lon="5.67243">
        <ele>416.43</ele>
        <time>2024-01-30T04:14:42Z</time>
      </trkpt>
      <trkpt lat="45.18466" lon="5.67251">
        <ele>417.22</ele>
        <time>2024-01-30T04:14:49Z</time>
      </trkpt>
      <trkpt lat="45.18398" lon="5.67269">
        <ele>420.16</ele>
        <time>2024-01-30T04:15:15Z</time>
      </trkpt>
      <trkpt lat="45.18388" lon="5.67274">
        <ele>420.14</ele>
        <time>2024-01-30T04:15:19Z</time>
      </trkpt>
      <trkpt lat="45.18375" lon="5.67256">
        <ele>421.08</ele>
        <time>2024-01-30T04:15:26Z</time>
      </trkpt>
      <trkpt lat="45.1836" lon="5.67242">
        <ele>421.5</ele>
        <time>2024-01-30T04:15:34Z</time>
      </trkpt>
      <trkpt lat="45.18296" lon="5.67208">
        <ele>421.52</ele>
        <time>2024-01-30T04:16:00Z</time>
      </trkpt>
      <trkpt lat="45.18287" lon="5.67204">
        <ele>421.33</ele>
        <time>2024-01-30T04:16:03Z</time>
      </trkpt>
      <trkpt lat="45.1827" lon="5.67202">
        <ele>421.11</ele>
        <time>2024-01-30T04:16:09Z</time>
      </trkpt>
      <trkpt lat="45.18239" lon="5.67206">
        <ele>420.05</ele>
        <time>2024-01-30T04:16:19Z</time>
      </trkpt>
      <trkpt lat="45.18216" lon="5.67215">
        <ele>419.71</ele>
        <time>2024-01-30T04:16:27Z</time>
      </trkpt>
      <trkpt lat="45.182" lon="5.67228">
        <ele>419.84</ele>
        <time>2024-01-30T04:16:34Z</time>
      </trkpt>
      <trkpt lat="45.18183" lon="5.6723">
        <ele>419.81</ele>
        <time>2024-01-30T04:16:39Z</time>
      </trkpt>
      <trkpt lat="45.18169" lon="5.67227">
        <ele>420.08</ele>
        <time>2024-01-30T04:16:43Z</time>
      </trkpt>
      <trkpt lat="45.18161" lon="5.67208">
        <ele>420.08</ele>
        <time>2024-01-30T04:16:49Z</time>
      </trkpt>
      <trkpt lat="45.18124" lon="5.67161">
        <ele>418.77</ele>
        <time>2024-01-30T04:17:04Z</time>
      </trkpt>
      <trkpt lat="45.18117" lon="5.67154">
        <ele>418.6</ele>
        <time>2024-01-30T04:17:07Z</time>
      </trkpt>
      <trkpt lat="45.18116" lon="5.67153">
        <ele>418.6</ele>
        <time>2024-01-30T04:17:07Z</time>
      </trkpt>
      <trkpt lat="45.18081" lon="5.67127">
        <ele>418.31</ele>
        <time>2024-01-30T04:17:21Z</time>
      </trkpt>
      <trkpt lat="45.18073" lon="5.67119">
        <ele>417.64</ele>
        <time>2024-01-30T04:17:24Z</time>
      </trkpt>
      <trkpt lat="45.18078" lon="5.67076">
        <ele>413.01</ele>
        <time>2024-01-30T04:17:35Z</time>
      </trkpt>
      <trkpt lat="45.18078" lon="5.67065">
        <ele>411.91</ele>
        <time>2024-01-30T04:17:38Z</time>
      </trkpt>
      <trkpt lat="45.18045" lon="5.67006">
        <ele>409.88</ele>
        <time>2024-01-30T04:17:58Z</time>
      </trkpt>
      <trkpt lat="45.18044" lon="5.66999">
        <ele>409.74</ele>
        <time>2024-01-30T04:18:01Z</time>
      </trkpt>
      <trkpt lat="45.18054" lon="5.6698">
        <ele>409.41</ele>
        <time>2024-01-30T04:18:09Z</time>
      </trkpt>
      <trkpt lat="45.18147" lon="5.6687">
        <ele>419.91</ele>
        <time>2024-01-30T04:19:27Z</time>
      </trkpt>
      <trkpt lat="45.18154" lon="5.66845">
        <ele>421.95</ele>
        <time>2024-01-30T04:19:41Z</time>
      </trkpt>
      <trkpt lat="45.1816" lon="5.66795">
        <ele>424.61</ele>
        <time>2024-01-30T04:20:07Z</time>
      </trkpt>
      <trkpt lat="45.18166" lon="5.66757">
        <ele>426.11</ele>
        <time>2024-01-30T04:20:28Z</time>
      </trkpt>
      <trkpt lat="45.18172" lon="5.66737">
        <ele>428.28</ele>
        <time>2024-01-30T04:20:42Z</time>
      </trkpt>
      <trkpt lat="45.18192" lon="5.66704">
        <ele>427.81</ele>
        <time>2024-01-30T04:21:09Z</time>
      </trkpt>
      <trkpt lat="45.18213" lon="5.66681">
        <ele>431.33</ele>
        <time>2024-01-30T04:21:35Z</time>
      </trkpt>
      <trkpt lat="45.18233" lon="5.66659">
        <ele>434.87</ele>
        <time>2024-01-30T04:21:59Z</time>
      </trkpt>
      <trkpt lat="45.18252" lon="5.66628">
        <ele>437.92</ele>
        <time>2024-01-30T04:22:25Z</time>
      </trkpt>
      <trkpt lat="45.18273" lon="5.66579">
        <ele>439.73</ele>
        <time>2024-01-30T04:22:57Z</time>
      </trkpt>
      <trkpt lat="45.18301" lon="5.66505">
        <ele>447.34</ele>
        <time>2024-01-30T04:23:38Z</time>
      </trkpt>
      <trkpt lat="45.18386" lon="5.66359">
        <ele>460.82</ele>
        <time>2024-01-30T04:24:56Z</time>
      </trkpt>
      <trkpt lat="45.18415" lon="5.6633">
        <ele>465.46</ele>
        <time>2024-01-30T04:25:07Z</time>
      </trkpt>
      <trkpt lat="45.18426" lon="5.66314">
        <ele>467.46</ele>
        <time>2024-01-30T04:25:11Z</time>
      </trkpt>
      <trkpt lat="45.18438" lon="5.66287">
        <ele>468.73</ele>
        <time>2024-01-30T04:25:17Z</time>
      </trkpt>
      <trkpt lat="45.1845" lon="5.66275">
        <ele>470.4</ele>
        <time>2024-01-30T04:25:20Z</time>
      </trkpt>
      <trkpt lat="45.18466" lon="5.66271">
        <ele>470.98</ele>
        <time>2024-01-30T04:25:24Z</time>
      </trkpt>
      <trkpt lat="45.18496" lon="5.66251">
        <ele>474.19</ele>
        <time>2024-01-30T04:25:32Z</time>
      </trkpt>
      <trkpt lat="45.18525" lon="5.66242">
        <ele>477.73</ele>
        <time>2024-01-30T04:25:40Z</time>
      </trkpt>
      <trkpt lat="45.18531" lon="5.66241">
        <ele>478.71</ele>
        <time>2024-01-30T04:25:42Z</time>
      </trkpt>
      <trkpt lat="45.18545" lon="5.66238">
        <ele>480</ele>
        <time>2024-01-30T04:25:45Z</time>
      </trkpt>
      <trkpt lat="45.18547" lon="5.66238">
        <ele>480</ele>
        <time>2024-01-30T04:25:46Z</time>
      </trkpt>
      <trkpt lat="45.1856" lon="5.6625">
        <ele>480.13</ele>
        <time>2024-01-30T04:25:51Z</time>
      </trkpt>
      <trkpt lat="45.18575" lon="5.66273">
        <ele>479.58</ele>
        <time>2024-01-30T04:25:59Z</time>
      </trkpt>
      <trkpt lat="45.18588" lon="5.66293">
        <ele>480.28</ele>
        <time>2024-01-30T04:26:08Z</time>
      </trkpt>
      <trkpt lat="45.18593" lon="5.66309">
        <ele>481.58</ele>
        <time>2024-01-30T04:26:15Z</time>
      </trkpt>
      <trkpt lat="45.18602" lon="5.66312">
        <ele>482.52</ele>
        <time>2024-01-30T04:26:20Z</time>
      </trkpt>
      <trkpt lat="45.18596" lon="5.66263">
        <ele>486.94</ele>
        <time>2024-01-30T04:26:41Z</time>
      </trkpt>
      <trkpt lat="45.18592" lon="5.6625">
        <ele>488.35</ele>
        <time>2024-01-30T04:26:49Z</time>
      </trkpt>
      <trkpt lat="45.18576" lon="5.66223">
        <ele>491.63</ele>
        <time>2024-01-30T04:27:08Z</time>
      </trkpt>
      <trkpt lat="45.1857" lon="5.66191">
        <ele>495.34</ele>
        <time>2024-01-30T04:27:32Z</time>
      </trkpt>
      <trkpt lat="45.18561" lon="5.66168">
        <ele>496.83</ele>
        <time>2024-01-30T04:27:52Z</time>
      </trkpt>
      <trkpt lat="45.18544" lon="5.66138">
        <ele>502.5</ele>
        <time>2024-01-30T04:28:20Z</time>
      </trkpt>
      <trkpt lat="45.18533" lon="5.66125">
        <ele>504.27</ele>
        <time>2024-01-30T04:28:36Z</time>
      </trkpt>
      <trkpt lat="45.18516" lon="5.66076">
        <ele>508.65</ele>
        <time>2024-01-30T04:29:19Z</time>
      </trkpt>
      <trkpt lat="45.18493" lon="5.66041">
        <ele>512.94</ele>
        <time>2024-01-30T04:29:56Z</time>
      </trkpt>
      <trkpt lat="45.18484" lon="5.66017">
        <ele>515.57</ele>
        <time>2024-01-30T04:30:17Z</time>
      </trkpt>
      <trkpt lat="45.18477" lon="5.6599">
        <ele>519.38</ele>
        <time>2024-01-30T04:30:41Z</time>
      </trkpt>
      <trkpt lat="45.18464" lon="5.65968">
        <ele>522.51</ele>
        <time>2024-01-30T04:31:05Z</time>
      </trkpt>
      <trkpt lat="45.1846" lon="5.65964">
        <ele>523.47</ele>
        <time>2024-01-30T04:31:10Z</time>
      </trkpt>
      <trkpt lat="45.18449" lon="5.65962">
        <ele>525.71</ele>
        <time>2024-01-30T04:31:22Z</time>
      </trkpt>
      <trkpt lat="45.18433" lon="5.65966">
        <ele>527.13</ele>
        <time>2024-01-30T04:31:40Z</time>
      </trkpt>
      <trkpt lat="45.18426" lon="5.65972">
        <ele>528.99</ele>
        <time>2024-01-30T04:31:48Z</time>
      </trkpt>
      <trkpt lat="45.18421" lon="5.65982">
        <ele>529.99</ele>
        <time>2024-01-30T04:31:56Z</time>
      </trkpt>
      <trkpt lat="45.1842" lon="5.65996">
        <ele>531.09</ele>
        <time>2024-01-30T04:32:05Z</time>
      </trkpt>
      <trkpt lat="45.18427" lon="5.66024">
        <ele>534.01</ele>
        <time>2024-01-30T04:32:24Z</time>
      </trkpt>
      <trkpt lat="45.18421" lon="5.66056">
        <ele>534.82</ele>
        <time>2024-01-30T04:32:44Z</time>
      </trkpt>
      <trkpt lat="45.18417" lon="5.66057">
        <ele>535.54</ele>
        <time>2024-01-30T04:32:47Z</time>
      </trkpt>
      <trkpt lat="45.18414" lon="5.66054">
        <ele>536.54</ele>
        <time>2024-01-30T04:32:50Z</time>
      </trkpt>
      <trkpt lat="45.18411" lon="5.66028">
        <ele>539.93</ele>
        <time>2024-01-30T04:33:04Z</time>
      </trkpt>
      <trkpt lat="45.18391" lon="5.65975">
        <ele>545.64</ele>
        <time>2024-01-30T04:33:36Z</time>
      </trkpt>
      <trkpt lat="45.18388" lon="5.65975">
        <ele>545.8</ele>
        <time>2024-01-30T04:33:38Z</time>
      </trkpt>
      <trkpt lat="45.18385" lon="5.65988">
        <ele>547.02</ele>
        <time>2024-01-30T04:33:45Z</time>
      </trkpt>
      <trkpt lat="45.18388" lon="5.66032">
        <ele>552.13</ele>
        <time>2024-01-30T04:34:06Z</time>
      </trkpt>
      <trkpt lat="45.18385" lon="5.66041">
        <ele>552.85</ele>
        <time>2024-01-30T04:34:11Z</time>
      </trkpt>
      <trkpt lat="45.18372" lon="5.66066">
        <ele>557.08</ele>
        <time>2024-01-30T04:34:26Z</time>
      </trkpt>
      <trkpt lat="45.18356" lon="5.66094">
        <ele>560.71</ele>
        <time>2024-01-30T04:34:45Z</time>
      </trkpt>
      <trkpt lat="45.18341" lon="5.66136">
        <ele>566.79</ele>
        <time>2024-01-30T04:35:09Z</time>
      </trkpt>
      <trkpt lat="45.18331" lon="5.66148">
        <ele>568.75</ele>
        <time>2024-01-30T04:35:17Z</time>
      </trkpt>
      <trkpt lat="45.18326" lon="5.66163">
        <ele>570.37</ele>
        <time>2024-01-30T04:35:26Z</time>
      </trkpt>
      <trkpt lat="45.18324" lon="5.66169">
        <ele>571.26</ele>
        <time>2024-01-30T04:35:29Z</time>
      </trkpt>
      <trkpt lat="45.18319" lon="5.6617">
        <ele>571.89</ele>
        <time>2024-01-30T04:35:33Z</time>
      </trkpt>
      <trkpt lat="45.18314" lon="5.66168">
        <ele>572.61</ele>
        <time>2024-01-30T04:35:36Z</time>
      </trkpt>
      <trkpt lat="45.18311" lon="5.66159">
        <ele>573.63</ele>
        <time>2024-01-30T04:35:41Z</time>
      </trkpt>
      <trkpt lat="45.1831" lon="5.6615">
        <ele>574.3</ele>
        <time>2024-01-30T04:35:45Z</time>
      </trkpt>
      <trkpt lat="45.18316" lon="5.66132">
        <ele>576.21</ele>
        <time>2024-01-30T04:35:56Z</time>
      </trkpt>
      <trkpt lat="45.18316" lon="5.6612">
        <ele>577.99</ele>
        <time>2024-01-30T04:36:02Z</time>
      </trkpt>
      <trkpt lat="45.18307" lon="5.66098">
        <ele>580.58</ele>
        <time>2024-01-30T04:36:15Z</time>
      </trkpt>
      <trkpt lat="45.18296" lon="5.66084">
        <ele>582.58</ele>
        <time>2024-01-30T04:36:27Z</time>
      </trkpt>
      <trkpt lat="45.1827" lon="5.66073">
        <ele>585.75</ele>
        <time>2024-01-30T04:36:46Z</time>
      </trkpt>
      <trkpt lat="45.1826" lon="5.66063">
        <ele>588.29</ele>
        <time>2024-01-30T04:36:55Z</time>
      </trkpt>
      <trkpt lat="45.18254" lon="5.66036">
        <ele>589.73</ele>
        <time>2024-01-30T04:37:08Z</time>
      </trkpt>
      <trkpt lat="45.18245" lon="5.66016">
        <ele>591.75</ele>
        <time>2024-01-30T04:37:20Z</time>
      </trkpt>
      <trkpt lat="45.18211" lon="5.65959">
        <ele>599.56</ele>
        <time>2024-01-30T04:37:54Z</time>
      </trkpt>
      <trkpt lat="45.18187" lon="5.65941">
        <ele>603.28</ele>
        <time>2024-01-30T04:38:10Z</time>
      </trkpt>
      <trkpt lat="45.1817" lon="5.65937">
        <ele>605.4</ele>
        <time>2024-01-30T04:38:19Z</time>
      </trkpt>
      <trkpt lat="45.18155" lon="5.65946">
        <ele>608.41</ele>
        <time>2024-01-30T04:38:28Z</time>
      </trkpt>
      <trkpt lat="45.18132" lon="5.65974">
        <ele>612.4</ele>
        <time>2024-01-30T04:38:43Z</time>
      </trkpt>
      <trkpt lat="45.18107" lon="5.66002">
        <ele>611.42</ele>
        <time>2024-01-30T04:39:02Z</time>
      </trkpt>
      <trkpt lat="45.1808" lon="5.66019">
        <ele>614.32</ele>
        <time>2024-01-30T04:39:16Z</time>
      </trkpt>
      <trkpt lat="45.18068" lon="5.66022">
        <ele>615.14</ele>
        <time>2024-01-30T04:39:22Z</time>
      </trkpt>
      <trkpt lat="45.18052" lon="5.66016">
        <ele>616.12</ele>
        <time>2024-01-30T04:39:32Z</time>
      </trkpt>
      <trkpt lat="45.18044" lon="5.66016">
        <ele>616.1</ele>
        <time>2024-01-30T04:39:36Z</time>
      </trkpt>
      <trkpt lat="45.1803" lon="5.66022">
        <ele>616.7</ele>
        <time>2024-01-30T04:39:44Z</time>
      </trkpt>
      <trkpt lat="45.18025" lon="5.66031">
        <ele>616.84</ele>
        <time>2024-01-30T04:39:49Z</time>
      </trkpt>
      <trkpt lat="45.18007" lon="5.66091">
        <ele>614.22</ele>
        <time>2024-01-30T04:40:12Z</time>
      </trkpt>
      <trkpt lat="45.18005" lon="5.66111">
        <ele>614.05</ele>
        <time>2024-01-30T04:40:18Z</time>
      </trkpt>
      <trkpt lat="45.17979" lon="5.6616">
        <ele>612.58</ele>
        <time>2024-01-30T04:40:39Z</time>
      </trkpt>
      <trkpt lat="45.17977" lon="5.66184">
        <ele>613.4</ele>
        <time>2024-01-30T04:40:49Z</time>
      </trkpt>
      <trkpt lat="45.17984" lon="5.66224">
        <ele>616.51</ele>
        <time>2024-01-30T04:41:04Z</time>
      </trkpt>
      <trkpt lat="45.17984" lon="5.66233">
        <ele>617.07</ele>
        <time>2024-01-30T04:41:07Z</time>
      </trkpt>
      <trkpt lat="45.1798" lon="5.66264">
        <ele>617.67</ele>
        <time>2024-01-30T04:41:19Z</time>
      </trkpt>
      <trkpt lat="45.17982" lon="5.66308">
        <ele>621.06</ele>
        <time>2024-01-30T04:41:36Z</time>
      </trkpt>
      <trkpt lat="45.1798" lon="5.66312">
        <ele>621.9</ele>
        <time>2024-01-30T04:41:37Z</time>
      </trkpt>
      <trkpt lat="45.17959" lon="5.66295">
        <ele>624.58</ele>
        <time>2024-01-30T04:41:51Z</time>
      </trkpt>
      <trkpt lat="45.1794" lon="5.66272">
        <ele>627.61</ele>
        <time>2024-01-30T04:42:04Z</time>
      </trkpt>
      <trkpt lat="45.17939" lon="5.66267">
        <ele>627.27</ele>
        <time>2024-01-30T04:42:06Z</time>
      </trkpt>
      <trkpt lat="45.1793" lon="5.66262">
        <ele>626.96</ele>
        <time>2024-01-30T04:42:10Z</time>
      </trkpt>
      <trkpt lat="45.17927" lon="5.66257">
        <ele>625.7</ele>
        <time>2024-01-30T04:42:13Z</time>
      </trkpt>
      <trkpt lat="45.1789" lon="5.66243">
        <ele>627.02</ele>
        <time>2024-01-30T04:42:32Z</time>
      </trkpt>
      <trkpt lat="45.17873" lon="5.66226">
        <ele>629.61</ele>
        <time>2024-01-30T04:42:45Z</time>
      </trkpt>
      <trkpt lat="45.17866" lon="5.6621">
        <ele>630.43</ele>
        <time>2024-01-30T04:42:52Z</time>
      </trkpt>
      <trkpt lat="45.17837" lon="5.66164">
        <ele>635.09</ele>
        <time>2024-01-30T04:43:24Z</time>
      </trkpt>
      <trkpt lat="45.17823" lon="5.66125">
        <ele>644.03</ele>
        <time>2024-01-30T04:43:45Z</time>
      </trkpt>
      <trkpt lat="45.17805" lon="5.66097">
        <ele>648.44</ele>
        <time>2024-01-30T04:44:03Z</time>
      </trkpt>
      <trkpt lat="45.17786" lon="5.66052">
        <ele>654</ele>
        <time>2024-01-30T04:44:29Z</time>
      </trkpt>
      <trkpt lat="45.17774" lon="5.66037">
        <ele>658.94</ele>
        <time>2024-01-30T04:44:40Z</time>
      </trkpt>
      <trkpt lat="45.17774" lon="5.65999">
        <ele>660.9</ele>
        <time>2024-01-30T04:44:59Z</time>
      </trkpt>
      <trkpt lat="45.17774" lon="5.65991">
        <ele>662.56</ele>
        <time>2024-01-30T04:45:03Z</time>
      </trkpt>
      <trkpt lat="45.1777" lon="5.65986">
        <ele>664.86</ele>
        <time>2024-01-30T04:45:07Z</time>
      </trkpt>
      <trkpt lat="45.17758" lon="5.65979">
        <ele>668.19</ele>
        <time>2024-01-30T04:45:17Z</time>
      </trkpt>
      <trkpt lat="45.17752" lon="5.6598">
        <ele>669.23</ele>
        <time>2024-01-30T04:45:21Z</time>
      </trkpt>
      <trkpt lat="45.17734" lon="5.65969">
        <ele>671.9</ele>
        <time>2024-01-30T04:45:36Z</time>
      </trkpt>
      <trkpt lat="45.17719" lon="5.65965">
        <ele>675.04</ele>
        <time>2024-01-30T04:45:49Z</time>
      </trkpt>
      <trkpt lat="45.17702" lon="5.65957">
        <ele>679.65</ele>
        <time>2024-01-30T04:46:03Z</time>
      </trkpt>
      <trkpt lat="45.17686" lon="5.65944">
        <ele>679.76</ele>
        <time>2024-01-30T04:46:18Z</time>
      </trkpt>
      <trkpt lat="45.17664" lon="5.65936">
        <ele>684.22</ele>
        <time>2024-01-30T04:46:37Z</time>
      </trkpt>
      <trkpt lat="45.17641" lon="5.65927">
        <ele>686.66</ele>
        <time>2024-01-30T04:46:54Z</time>
      </trkpt>
      <trkpt lat="45.17622" lon="5.65927">
        <ele>688.87</ele>
        <time>2024-01-30T04:47:07Z</time>
      </trkpt>
      <trkpt lat="45.17611" lon="5.65923">
        <ele>688.93</ele>
        <time>2024-01-30T04:47:15Z</time>
      </trkpt>
      <trkpt lat="45.17582" lon="5.65898">
        <ele>690.62</ele>
        <time>2024-01-30T04:47:39Z</time>
      </trkpt>
      <trkpt lat="45.17554" lon="5.6586">
        <ele>691.38</ele>
        <time>2024-01-30T04:48:07Z</time>
      </trkpt>
      <trkpt lat="45.17545" lon="5.65832">
        <ele>694.14</ele>
        <time>2024-01-30T04:48:22Z</time>
      </trkpt>
      <trkpt lat="45.17538" lon="5.65817">
        <ele>696.45</ele>
        <time>2024-01-30T04:48:31Z</time>
      </trkpt>
      <trkpt lat="45.17517" lon="5.65816">
        <ele>700.82</ele>
        <time>2024-01-30T04:48:45Z</time>
      </trkpt>
      <trkpt lat="45.17507" lon="5.65814">
        <ele>701.27</ele>
        <time>2024-01-30T04:48:53Z</time>
      </trkpt>
      <trkpt lat="45.17516" lon="5.65791">
        <ele>702.27</ele>
        <time>2024-01-30T04:49:05Z</time>
      </trkpt>
      <trkpt lat="45.17497" lon="5.6579">
        <ele>704.72</ele>
        <time>2024-01-30T04:49:19Z</time>
      </trkpt>
      <trkpt lat="45.17484" lon="5.65772">
        <ele>707.71</ele>
        <time>2024-01-30T04:49:32Z</time>
      </trkpt>
      <trkpt lat="45.17466" lon="5.65755">
        <ele>711.16</ele>
        <time>2024-01-30T04:49:48Z</time>
      </trkpt>
      <trkpt lat="45.17452" lon="5.65752">
        <ele>712.16</ele>
        <time>2024-01-30T04:49:57Z</time>
      </trkpt>
      <trkpt lat="45.17432" lon="5.65766">
        <ele>714.87</ele>
        <time>2024-01-30T04:50:11Z</time>
      </trkpt>
      <trkpt lat="45.17393" lon="5.658">
        <ele>719.08</ele>
        <time>2024-01-30T04:50:35Z</time>
      </trkpt>
      <trkpt lat="45.17362" lon="5.65777">
        <ele>722.36</ele>
        <time>2024-01-30T04:50:55Z</time>
      </trkpt>
      <trkpt lat="45.1735" lon="5.65754">
        <ele>724</ele>
        <time>2024-01-30T04:51:08Z</time>
      </trkpt>
      <trkpt lat="45.17368" lon="5.6574">
        <ele>724.81</ele>
        <time>2024-01-30T04:51:19Z</time>
      </trkpt>
      <trkpt lat="45.17413" lon="5.65705">
        <ele>727.87</ele>
        <time>2024-01-30T04:51:46Z</time>
      </trkpt>
      <trkpt lat="45.17417" lon="5.65699">
        <ele>727.92</ele>
        <time>2024-01-30T04:51:49Z</time>
      </trkpt>
      <trkpt lat="45.17429" lon="5.65683">
        <ele>728.04</ele>
        <time>2024-01-30T04:51:57Z</time>
      </trkpt>
      <trkpt lat="45.17438" lon="5.6566">
        <ele>728.08</ele>
        <time>2024-01-30T04:52:06Z</time>
      </trkpt>
      <trkpt lat="45.17462" lon="5.65567">
        <ele>732.26</ele>
        <time>2024-01-30T04:52:33Z</time>
      </trkpt>
      <trkpt lat="45.17472" lon="5.65543">
        <ele>733.42</ele>
        <time>2024-01-30T04:52:40Z</time>
      </trkpt>
      <trkpt lat="45.17505" lon="5.65488">
        <ele>736.63</ele>
        <time>2024-01-30T04:53:05Z</time>
      </trkpt>
      <trkpt lat="45.17545" lon="5.65433">
        <ele>740.44</ele>
        <time>2024-01-30T04:53:34Z</time>
      </trkpt>
      <trkpt lat="45.17553" lon="5.65393">
        <ele>739.29</ele>
        <time>2024-01-30T04:53:49Z</time>
      </trkpt>
      <trkpt lat="45.17551" lon="5.65378">
        <ele>739.23</ele>
        <time>2024-01-30T04:53:54Z</time>
      </trkpt>
      <trkpt lat="45.17553" lon="5.65357">
        <ele>736.77</ele>
        <time>2024-01-30T04:54:02Z</time>
      </trkpt>
      <trkpt lat="45.17551" lon="5.6535">
        <ele>741.18</ele>
        <time>2024-01-30T04:54:05Z</time>
      </trkpt>
      <trkpt lat="45.17549" lon="5.65346">
        <ele>744.69</ele>
        <time>2024-01-30T04:54:07Z</time>
      </trkpt>
      <trkpt lat="45.17536" lon="5.65327">
        <ele>746.74</ele>
        <time>2024-01-30T04:54:16Z</time>
      </trkpt>
      <trkpt lat="45.17513" lon="5.65318">
        <ele>747.91</ele>
        <time>2024-01-30T04:54:27Z</time>
      </trkpt>
      <trkpt lat="45.17496" lon="5.65318">
        <ele>749.28</ele>
        <time>2024-01-30T04:54:35Z</time>
      </trkpt>
      <trkpt lat="45.17488" lon="5.65321">
        <ele>749.91</ele>
        <time>2024-01-30T04:54:40Z</time>
      </trkpt>
      <trkpt lat="45.17468" lon="5.65343">
        <ele>750.82</ele>
        <time>2024-01-30T04:54:53Z</time>
      </trkpt>
      <trkpt lat="45.17428" lon="5.65405">
        <ele>755.48</ele>
        <time>2024-01-30T04:55:27Z</time>
      </trkpt>
      <trkpt lat="45.17407" lon="5.65432">
        <ele>756.63</ele>
        <time>2024-01-30T04:55:41Z</time>
      </trkpt>
      <trkpt lat="45.17396" lon="5.65439">
        <ele>758.42</ele>
        <time>2024-01-30T04:55:46Z</time>
      </trkpt>
      <trkpt lat="45.17355" lon="5.65452">
        <ele>760.25</ele>
        <time>2024-01-30T04:56:04Z</time>
      </trkpt>
      <trkpt lat="45.17344" lon="5.6546">
        <ele>761.56</ele>
        <time>2024-01-30T04:56:10Z</time>
      </trkpt>
      <trkpt lat="45.17312" lon="5.6549">
        <ele>765.24</ele>
        <time>2024-01-30T04:56:29Z</time>
      </trkpt>
      <trkpt lat="45.17299" lon="5.65507">
        <ele>766.91</ele>
        <time>2024-01-30T04:56:38Z</time>
      </trkpt>
      <trkpt lat="45.17282" lon="5.65544">
        <ele>767.83</ele>
        <time>2024-01-30T04:56:56Z</time>
      </trkpt>
      <trkpt lat="45.17268" lon="5.65562">
        <ele>769.21</ele>
        <time>2024-01-30T04:57:08Z</time>
      </trkpt>
      <trkpt lat="45.17226" lon="5.65598">
        <ele>772.58</ele>
        <time>2024-01-30T04:57:44Z</time>
      </trkpt>
      <trkpt lat="45.17149" lon="5.65636">
        <ele>778.32</ele>
        <time>2024-01-30T04:58:38Z</time>
      </trkpt>
      <trkpt lat="45.17104" lon="5.65658">
        <ele>795.45</ele>
        <time>2024-01-30T04:59:15Z</time>
      </trkpt>
      <trkpt lat="45.17092" lon="5.657">
        <ele>798.74</ele>
        <time>2024-01-30T04:59:37Z</time>
      </trkpt>
      <trkpt lat="45.17085" lon="5.65738">
        <ele>801.5</ele>
        <time>2024-01-30T04:59:57Z</time>
      </trkpt>
      <trkpt lat="45.1708" lon="5.65742">
        <ele>802.46</ele>
        <time>2024-01-30T05:00:02Z</time>
      </trkpt>
      <trkpt lat="45.17075" lon="5.65735">
        <ele>802.86</ele>
        <time>2024-01-30T05:00:07Z</time>
      </trkpt>
      <trkpt lat="45.17073" lon="5.65727">
        <ele>803.49</ele>
        <time>2024-01-30T05:00:11Z</time>
      </trkpt>
      <trkpt lat="45.17071" lon="5.65674">
        <ele>810.11</ele>
        <time>2024-01-30T05:00:39Z</time>
      </trkpt>
      <trkpt lat="45.17069" lon="5.65645">
        <ele>811.42</ele>
        <time>2024-01-30T05:00:55Z</time>
      </trkpt>
      <trkpt lat="45.1706" lon="5.65597">
        <ele>817.29</ele>
        <time>2024-01-30T05:01:23Z</time>
      </trkpt>
      <trkpt lat="45.17057" lon="5.65562">
        <ele>822.65</ele>
        <time>2024-01-30T05:01:45Z</time>
      </trkpt>
      <trkpt lat="45.17059" lon="5.65495">
        <ele>827.18</ele>
        <time>2024-01-30T05:02:32Z</time>
      </trkpt>
      <trkpt lat="45.1704" lon="5.65444">
        <ele>832.18</ele>
        <time>2024-01-30T05:03:12Z</time>
      </trkpt>
      <trkpt lat="45.17034" lon="5.65414">
        <ele>833.59</ele>
        <time>2024-01-30T05:03:33Z</time>
      </trkpt>
      <trkpt lat="45.17001" lon="5.65314">
        <ele>838.45</ele>
        <time>2024-01-30T05:04:37Z</time>
      </trkpt>
      <trkpt lat="45.17002" lon="5.65286">
        <ele>839.9</ele>
        <time>2024-01-30T05:04:52Z</time>
      </trkpt>
      <trkpt lat="45.17008" lon="5.65236">
        <ele>844.93</ele>
        <time>2024-01-30T05:05:16Z</time>
      </trkpt>
      <trkpt lat="45.16997" lon="5.65229">
        <ele>846.48</ele>
        <time>2024-01-30T05:05:22Z</time>
      </trkpt>
      <trkpt lat="45.16979" lon="5.65209">
        <ele>850.44</ele>
        <time>2024-01-30T05:05:37Z</time>
      </trkpt>
      <trkpt lat="45.1698" lon="5.65201">
        <ele>851.88</ele>
        <time>2024-01-30T05:05:41Z</time>
      </trkpt>
      <trkpt lat="45.16986" lon="5.65189">
        <ele>854.19</ele>
        <time>2024-01-30T05:05:45Z</time>
      </trkpt>
      <trkpt lat="45.17012" lon="5.65158">
        <ele>855.28</ele>
        <time>2024-01-30T05:06:07Z</time>
      </trkpt>
      <trkpt lat="45.17009" lon="5.65149">
        <ele>856.1</ele>
        <time>2024-01-30T05:06:12Z</time>
      </trkpt>
      <trkpt lat="45.17002" lon="5.65127">
        <ele>859</ele>
        <time>2024-01-30T05:06:24Z</time>
      </trkpt>
      <trkpt lat="45.17002" lon="5.65098">
        <ele>860.53</ele>
        <time>2024-01-30T05:06:34Z</time>
      </trkpt>
      <trkpt lat="45.16996" lon="5.6509">
        <ele>861.57</ele>
        <time>2024-01-30T05:06:39Z</time>
      </trkpt>
      <trkpt lat="45.16993" lon="5.65079">
        <ele>862.82</ele>
        <time>2024-01-30T05:06:44Z</time>
      </trkpt>
      <trkpt lat="45.16995" lon="5.65051">
        <ele>863.17</ele>
        <time>2024-01-30T05:06:53Z</time>
      </trkpt>
      <trkpt lat="45.16986" lon="5.65013">
        <ele>869.44</ele>
        <time>2024-01-30T05:07:09Z</time>
      </trkpt>
      <trkpt lat="45.16961" lon="5.65007">
        <ele>874.13</ele>
        <time>2024-01-30T05:07:24Z</time>
      </trkpt>
      <trkpt lat="45.16955" lon="5.65002">
        <ele>876.31</ele>
        <time>2024-01-30T05:07:28Z</time>
      </trkpt>
      <trkpt lat="45.16951" lon="5.64995">
        <ele>878</ele>
        <time>2024-01-30T05:07:32Z</time>
      </trkpt>
      <trkpt lat="45.16947" lon="5.64981">
        <ele>879.42</ele>
        <time>2024-01-30T05:07:40Z</time>
      </trkpt>
      <trkpt lat="45.16948" lon="5.64972">
        <ele>881.25</ele>
        <time>2024-01-30T05:07:47Z</time>
      </trkpt>
      <trkpt lat="45.16964" lon="5.64949">
        <ele>884.99</ele>
        <time>2024-01-30T05:08:04Z</time>
      </trkpt>
      <trkpt lat="45.17025" lon="5.64889">
        <ele>902.18</ele>
        <time>2024-01-30T05:09:11Z</time>
      </trkpt>
      <trkpt lat="45.17021" lon="5.64886">
        <ele>903.89</ele>
        <time>2024-01-30T05:09:15Z</time>
      </trkpt>
      <trkpt lat="45.17015" lon="5.64886">
        <ele>904.24</ele>
        <time>2024-01-30T05:09:22Z</time>
      </trkpt>
      <trkpt lat="45.17003" lon="5.64891">
        <ele>902.27</ele>
        <time>2024-01-30T05:09:32Z</time>
      </trkpt>
      <trkpt lat="45.16992" lon="5.6489">
        <ele>904.04</ele>
        <time>2024-01-30T05:09:41Z</time>
      </trkpt>
      <trkpt lat="45.16984" lon="5.64885">
        <ele>905.69</ele>
        <time>2024-01-30T05:09:50Z</time>
      </trkpt>
      <trkpt lat="45.16975" lon="5.64866">
        <ele>910.22</ele>
        <time>2024-01-30T05:10:02Z</time>
      </trkpt>
      <trkpt lat="45.16965" lon="5.64855">
        <ele>913.39</ele>
        <time>2024-01-30T05:10:12Z</time>
      </trkpt>
      <trkpt lat="45.16947" lon="5.64848">
        <ele>915.24</ele>
        <time>2024-01-30T05:10:28Z</time>
      </trkpt>
      <trkpt lat="45.16947" lon="5.64828">
        <ele>919.81</ele>
        <time>2024-01-30T05:10:40Z</time>
      </trkpt>
      <trkpt lat="45.1695" lon="5.6482">
        <ele>921.3</ele>
        <time>2024-01-30T05:10:46Z</time>
      </trkpt>
      <trkpt lat="45.16955" lon="5.64796">
        <ele>925.36</ele>
        <time>2024-01-30T05:11:01Z</time>
      </trkpt>
      <trkpt lat="45.16962" lon="5.64777">
        <ele>930.21</ele>
        <time>2024-01-30T05:11:16Z</time>
      </trkpt>
      <trkpt lat="45.16974" lon="5.64758">
        <ele>935.73</ele>
        <time>2024-01-30T05:11:32Z</time>
      </trkpt>
      <trkpt lat="45.16995" lon="5.64744">
        <ele>943.92</ele>
        <time>2024-01-30T05:11:54Z</time>
      </trkpt>
      <trkpt lat="45.17033" lon="5.64738">
        <ele>947.42</ele>
        <time>2024-01-30T05:12:31Z</time>
      </trkpt>
      <trkpt lat="45.17046" lon="5.64727">
        <ele>950.59</ele>
        <time>2024-01-30T05:12:44Z</time>
      </trkpt>
      <trkpt lat="45.17056" lon="5.64712">
        <ele>952.68</ele>
        <time>2024-01-30T05:12:58Z</time>
      </trkpt>
      <trkpt lat="45.17022" lon="5.64688">
        <ele>960.96</ele>
        <time>2024-01-30T05:13:29Z</time>
      </trkpt>
      <trkpt lat="45.17037" lon="5.64689">
        <ele>959.78</ele>
        <time>2024-01-30T05:13:38Z</time>
      </trkpt>
      <trkpt lat="45.17049" lon="5.64686">
        <ele>959.96</ele>
        <time>2024-01-30T05:13:45Z</time>
      </trkpt>
      <trkpt lat="45.17062" lon="5.64671">
        <ele>962.3</ele>
        <time>2024-01-30T05:13:55Z</time>
      </trkpt>
      <trkpt lat="45.1708" lon="5.64629">
        <ele>963.81</ele>
        <time>2024-01-30T05:14:14Z</time>
      </trkpt>
      <trkpt lat="45.17086" lon="5.64619">
        <ele>962.67</ele>
        <time>2024-01-30T05:14:18Z</time>
      </trkpt>
      <trkpt lat="45.17097" lon="5.64611">
        <ele>962.42</ele>
        <time>2024-01-30T05:14:25Z</time>
      </trkpt>
      <trkpt lat="45.17119" lon="5.64605">
        <ele>963.53</ele>
        <time>2024-01-30T05:14:37Z</time>
      </trkpt>
      <trkpt lat="45.17164" lon="5.64611">
        <ele>967.98</ele>
        <time>2024-01-30T05:14:59Z</time>
      </trkpt>
      <trkpt lat="45.17228" lon="5.646">
        <ele>971.03</ele>
        <time>2024-01-30T05:15:34Z</time>
      </trkpt>
      <trkpt lat="45.17253" lon="5.64602">
        <ele>971.8</ele>
        <time>2024-01-30T05:15:46Z</time>
      </trkpt>
      <trkpt lat="45.17281" lon="5.64597">
        <ele>973.53</ele>
        <time>2024-01-30T05:15:59Z</time>
      </trkpt>
      <trkpt lat="45.17302" lon="5.64583">
        <ele>976.55</ele>
        <time>2024-01-30T05:16:09Z</time>
      </trkpt>
      <trkpt lat="45.17385" lon="5.64538">
        <ele>987.39</ele>
        <time>2024-01-30T05:16:51Z</time>
      </trkpt>
      <trkpt lat="45.17409" lon="5.64534">
        <ele>988.99</ele>
        <time>2024-01-30T05:17:03Z</time>
      </trkpt>
      <trkpt lat="45.17456" lon="5.64546">
        <ele>988.14</ele>
        <time>2024-01-30T05:17:25Z</time>
      </trkpt>
      <trkpt lat="45.17468" lon="5.64545">
        <ele>988.41</ele>
        <time>2024-01-30T05:17:30Z</time>
      </trkpt>
      <trkpt lat="45.17551" lon="5.64512">
        <ele>995.6</ele>
        <time>2024-01-30T05:18:04Z</time>
      </trkpt>
      <trkpt lat="45.17641" lon="5.64497">
        <ele>999.12</ele>
        <time>2024-01-30T05:18:27Z</time>
      </trkpt>
      <trkpt lat="45.17667" lon="5.64503">
        <ele>1002.03</ele>
        <time>2024-01-30T05:18:36Z</time>
      </trkpt>
      <trkpt lat="45.17686" lon="5.64517">
        <ele>1003.75</ele>
        <time>2024-01-30T05:18:45Z</time>
      </trkpt>
      <trkpt lat="45.17722" lon="5.64573">
        <ele>1002.48</ele>
        <time>2024-01-30T05:19:08Z</time>
      </trkpt>
      <trkpt lat="45.17731" lon="5.64582">
        <ele>1002.58</ele>
        <time>2024-01-30T05:19:14Z</time>
      </trkpt>
      <trkpt lat="45.17742" lon="5.64589">
        <ele>1003.75</ele>
        <time>2024-01-30T05:19:20Z</time>
      </trkpt>
      <trkpt lat="45.17751" lon="5.64591">
        <ele>1003.83</ele>
        <time>2024-01-30T05:19:23Z</time>
      </trkpt>
      <trkpt lat="45.17764" lon="5.64589">
        <ele>1005.46</ele>
        <time>2024-01-30T05:19:30Z</time>
      </trkpt>
      <trkpt lat="45.17773" lon="5.64586">
        <ele>1006.54</ele>
        <time>2024-01-30T05:19:34Z</time>
      </trkpt>
      <trkpt lat="45.178" lon="5.64561">
        <ele>1011.54</ele>
        <time>2024-01-30T05:19:49Z</time>
      </trkpt>
      <trkpt lat="45.17775" lon="5.64508">
        <ele>1016.3</ele>
        <time>2024-01-30T05:20:11Z</time>
      </trkpt>
      <trkpt lat="45.17758" lon="5.64473">
        <ele>1022.04</ele>
        <time>2024-01-30T05:20:28Z</time>
      </trkpt>
      <trkpt lat="45.17716" lon="5.64436">
        <ele>1024.34</ele>
        <time>2024-01-30T05:20:59Z</time>
      </trkpt>
      <trkpt lat="45.17615" lon="5.64381">
        <ele>1030.12</ele>
        <time>2024-01-30T05:21:49Z</time>
      </trkpt>
      <trkpt lat="45.17613" lon="5.64379">
        <ele>1031.31</ele>
        <time>2024-01-30T05:21:50Z</time>
      </trkpt>
      <trkpt lat="45.17545" lon="5.64347">
        <ele>1035.59</ele>
        <time>2024-01-30T05:22:22Z</time>
      </trkpt>
      <trkpt lat="45.17532" lon="5.64345">
        <ele>1035.84</ele>
        <time>2024-01-30T05:22:28Z</time>
      </trkpt>
      <trkpt lat="45.17488" lon="5.64351">
        <ele>1032.2</ele>
        <time>2024-01-30T05:22:51Z</time>
      </trkpt>
      <trkpt lat="45.17473" lon="5.64346">
        <ele>1032.69</ele>
        <time>2024-01-30T05:22:59Z</time>
      </trkpt>
      <trkpt lat="45.17456" lon="5.64331">
        <ele>1035.75</ele>
        <time>2024-01-30T05:23:09Z</time>
      </trkpt>
      <trkpt lat="45.17449" lon="5.64319">
        <ele>1037.99</ele>
        <time>2024-01-30T05:23:15Z</time>
      </trkpt>
      <trkpt lat="45.17444" lon="5.64303">
        <ele>1040.03</ele>
        <time>2024-01-30T05:23:21Z</time>
      </trkpt>
      <trkpt lat="45.17442" lon="5.6428">
        <ele>1042.79</ele>
        <time>2024-01-30T05:23:30Z</time>
      </trkpt>
      <trkpt lat="45.17442" lon="5.64273">
        <ele>1043.02</ele>
        <time>2024-01-30T05:23:32Z</time>
      </trkpt>
      <trkpt lat="45.17447" lon="5.64187">
        <ele>1044.7</ele>
        <time>2024-01-30T05:24:02Z</time>
      </trkpt>
      <trkpt lat="45.17453" lon="5.64125">
        <ele>1047.31</ele>
        <time>2024-01-30T05:24:26Z</time>
      </trkpt>
      <trkpt lat="45.17455" lon="5.64104">
        <ele>1047.65</ele>
        <time>2024-01-30T05:24:35Z</time>
      </trkpt>
      <trkpt lat="45.17457" lon="5.64078">
        <ele>1048.72</ele>
        <time>2024-01-30T05:24:45Z</time>
      </trkpt>
      <trkpt lat="45.17456" lon="5.64009">
        <ele>1051.69</ele>
        <time>2024-01-30T05:25:07Z</time>
      </trkpt>
      <trkpt lat="45.1745" lon="5.63987">
        <ele>1052.42</ele>
        <time>2024-01-30T05:25:14Z</time>
      </trkpt>
      <trkpt lat="45.17439" lon="5.63967">
        <ele>1054</ele>
        <time>2024-01-30T05:25:21Z</time>
      </trkpt>
      <trkpt lat="45.17438" lon="5.63966">
        <ele>1054</ele>
        <time>2024-01-30T05:25:21Z</time>
      </trkpt>
      <trkpt lat="45.17421" lon="5.6395">
        <ele>1055.64</ele>
        <time>2024-01-30T05:25:28Z</time>
      </trkpt>
      <trkpt lat="45.17418" lon="5.63948">
        <ele>1055.76</ele>
        <time>2024-01-30T05:25:30Z</time>
      </trkpt>
      <trkpt lat="45.174" lon="5.63942">
        <ele>1057.48</ele>
        <time>2024-01-30T05:25:37Z</time>
      </trkpt>
      <trkpt lat="45.17361" lon="5.63942">
        <ele>1059.42</ele>
        <time>2024-01-30T05:25:53Z</time>
      </trkpt>
      <trkpt lat="45.17345" lon="5.63945">
        <ele>1060.57</ele>
        <time>2024-01-30T05:26:00Z</time>
      </trkpt>
      <trkpt lat="45.17282" lon="5.63956">
        <ele>1064.04</ele>
        <time>2024-01-30T05:26:29Z</time>
      </trkpt>
      <trkpt lat="45.17256" lon="5.63946">
        <ele>1066.38</ele>
        <time>2024-01-30T05:26:41Z</time>
      </trkpt>
      <trkpt lat="45.17225" lon="5.63914">
        <ele>1070.14</ele>
        <time>2024-01-30T05:26:59Z</time>
      </trkpt>
      <trkpt lat="45.172" lon="5.63891">
        <ele>1073.1</ele>
        <time>2024-01-30T05:27:13Z</time>
      </trkpt>
      <trkpt lat="45.17215" lon="5.6387">
        <ele>1073.33</ele>
        <time>2024-01-30T05:27:25Z</time>
      </trkpt>
      <trkpt lat="45.17236" lon="5.63851">
        <ele>1076.03</ele>
        <time>2024-01-30T05:27:38Z</time>
      </trkpt>
      <trkpt lat="45.17274" lon="5.63821">
        <ele>1080.65</ele>
        <time>2024-01-30T05:28:03Z</time>
      </trkpt>
      <trkpt lat="45.173" lon="5.63792">
        <ele>1083.86</ele>
        <time>2024-01-30T05:28:22Z</time>
      </trkpt>
      <trkpt lat="45.17376" lon="5.63726">
        <ele>1087.72</ele>
        <time>2024-01-30T05:29:20Z</time>
      </trkpt>
      <trkpt lat="45.17393" lon="5.63698">
        <ele>1090.13</ele>
        <time>2024-01-30T05:29:39Z</time>
      </trkpt>
      <trkpt lat="45.17399" lon="5.63675">
        <ele>1091.81</ele>
        <time>2024-01-30T05:29:52Z</time>
      </trkpt>
      <trkpt lat="45.17398" lon="5.63667">
        <ele>1092.01</ele>
        <time>2024-01-30T05:29:56Z</time>
      </trkpt>
      <trkpt lat="45.17394" lon="5.63657">
        <ele>1092.41</ele>
        <time>2024-01-30T05:30:03Z</time>
      </trkpt>
      <trkpt lat="45.17387" lon="5.63649">
        <ele>1093.23</ele>
        <time>2024-01-30T05:30:11Z</time>
      </trkpt>
      <trkpt lat="45.17371" lon="5.63642">
        <ele>1095.22</ele>
        <time>2024-01-30T05:30:24Z</time>
      </trkpt>
      <trkpt lat="45.17344" lon="5.63621">
        <ele>1099.38</ele>
        <time>2024-01-30T05:30:49Z</time>
      </trkpt>
      <trkpt lat="45.17329" lon="5.63602">
        <ele>1102.98</ele>
        <time>2024-01-30T05:31:06Z</time>
      </trkpt>
      <trkpt lat="45.17323" lon="5.63584">
        <ele>1104.28</ele>
        <time>2024-01-30T05:31:19Z</time>
      </trkpt>
      <trkpt lat="45.17326" lon="5.6354">
        <ele>1104.38</ele>
        <time>2024-01-30T05:31:45Z</time>
      </trkpt>
      <trkpt lat="45.17321" lon="5.63499">
        <ele>1107.36</ele>
        <time>2024-01-30T05:32:09Z</time>
      </trkpt>
      <trkpt lat="45.17324" lon="5.63423">
        <ele>1109.82</ele>
        <time>2024-01-30T05:32:51Z</time>
      </trkpt>
      <trkpt lat="45.17321" lon="5.63396">
        <ele>1111.36</ele>
        <time>2024-01-30T05:33:04Z</time>
      </trkpt>
      <trkpt lat="45.17313" lon="5.63377">
        <ele>1114.43</ele>
        <time>2024-01-30T05:33:16Z</time>
      </trkpt>
      <trkpt lat="45.17309" lon="5.63379">
        <ele>1115.47</ele>
        <time>2024-01-30T05:33:19Z</time>
      </trkpt>
      <trkpt lat="45.17305" lon="5.63388">
        <ele>1115.97</ele>
        <time>2024-01-30T05:33:24Z</time>
      </trkpt>
      <trkpt lat="45.17297" lon="5.63432">
        <ele>1115.94</ele>
        <time>2024-01-30T05:33:46Z</time>
      </trkpt>
      <trkpt lat="45.17289" lon="5.63447">
        <ele>1117.72</ele>
        <time>2024-01-30T05:33:54Z</time>
      </trkpt>
      <trkpt lat="45.17262" lon="5.63471">
        <ele>1123.78</ele>
        <time>2024-01-30T05:34:13Z</time>
      </trkpt>
      <trkpt lat="45.17257" lon="5.63453">
        <ele>1125.75</ele>
        <time>2024-01-30T05:34:21Z</time>
      </trkpt>
      <trkpt lat="45.17259" lon="5.63397">
        <ele>1128.7</ele>
        <time>2024-01-30T05:34:40Z</time>
      </trkpt>
      <trkpt lat="45.17237" lon="5.63331">
        <ele>1139.88</ele>
        <time>2024-01-30T05:34:59Z</time>
      </trkpt>
      <trkpt lat="45.17245" lon="5.63254">
        <ele>1145.32</ele>
        <time>2024-01-30T05:35:19Z</time>
      </trkpt>
      <trkpt lat="45.17249" lon="5.63203">
        <ele>1147.91</ele>
        <time>2024-01-30T05:35:31Z</time>
      </trkpt>
      <trkpt lat="45.17245" lon="5.63139">
        <ele>1150.98</ele>
        <time>2024-01-30T05:35:45Z</time>
      </trkpt>
      <trkpt lat="45.17243" lon="5.63116">
        <ele>1152.32</ele>
        <time>2024-01-30T05:35:49Z</time>
      </trkpt>
      <trkpt lat="45.17235" lon="5.63081">
        <ele>1153.63</ele>
        <time>2024-01-30T05:35:55Z</time>
      </trkpt>
      <trkpt lat="45.1723" lon="5.63071">
        <ele>1154.87</ele>
        <time>2024-01-30T05:35:57Z</time>
      </trkpt>
      <trkpt lat="45.17221" lon="5.6306">
        <ele>1155.95</ele>
        <time>2024-01-30T05:36:00Z</time>
      </trkpt>
      <trkpt lat="45.17208" lon="5.63051">
        <ele>1157.12</ele>
        <time>2024-01-30T05:36:04Z</time>
      </trkpt>
      <trkpt lat="45.17198" lon="5.63048">
        <ele>1157.53</ele>
        <time>2024-01-30T05:36:06Z</time>
      </trkpt>
      <trkpt lat="45.17191" lon="5.63049">
        <ele>1158.13</ele>
        <time>2024-01-30T05:36:08Z</time>
      </trkpt>
      <trkpt lat="45.17141" lon="5.63063">
        <ele>1161.56</ele>
        <time>2024-01-30T05:36:21Z</time>
      </trkpt>
      <trkpt lat="45.17132" lon="5.63062">
        <ele>1161.97</ele>
        <time>2024-01-30T05:36:24Z</time>
      </trkpt>
      <trkpt lat="45.17126" lon="5.63058">
        <ele>1162.07</ele>
        <time>2024-01-30T05:36:26Z</time>
      </trkpt>
      <trkpt lat="45.17123" lon="5.63054">
        <ele>1161.98</ele>
        <time>2024-01-30T05:36:27Z</time>
      </trkpt>
      <trkpt lat="45.17115" lon="5.6304">
        <ele>1161.8</ele>
        <time>2024-01-30T05:36:31Z</time>
      </trkpt>
      <trkpt lat="45.17091" lon="5.62997">
        <ele>1162.1</ele>
        <time>2024-01-30T05:36:43Z</time>
      </trkpt>
      <trkpt lat="45.17089" lon="5.62992">
        <ele>1162.27</ele>
        <time>2024-01-30T05:36:45Z</time>
      </trkpt>
      <trkpt lat="45.17072" lon="5.62959">
        <ele>1163.68</ele>
        <time>2024-01-30T05:36:53Z</time>
      </trkpt>
      <trkpt lat="45.17062" lon="5.62914">
        <ele>1165.73</ele>
        <time>2024-01-30T05:37:05Z</time>
      </trkpt>
      <trkpt lat="45.17062" lon="5.62907">
        <ele>1166.08</ele>
        <time>2024-01-30T05:37:06Z</time>
      </trkpt>
      <trkpt lat="45.17061" lon="5.62892">
        <ele>1166.56</ele>
        <time>2024-01-30T05:37:11Z</time>
      </trkpt>
      <trkpt lat="45.17061" lon="5.62887">
        <ele>1166.71</ele>
        <time>2024-01-30T05:37:12Z</time>
      </trkpt>
      <trkpt lat="45.17058" lon="5.6282">
        <ele>1168.87</ele>
        <time>2024-01-30T05:37:31Z</time>
      </trkpt>
      <trkpt lat="45.17055" lon="5.6278">
        <ele>1169.26</ele>
        <time>2024-01-30T05:37:45Z</time>
      </trkpt>
      <trkpt lat="45.1705" lon="5.62758">
        <ele>1169.27</ele>
        <time>2024-01-30T05:37:53Z</time>
      </trkpt>
      <trkpt lat="45.1704" lon="5.62742">
        <ele>1169.17</ele>
        <time>2024-01-30T05:38:00Z</time>
      </trkpt>
      <trkpt lat="45.17029" lon="5.62729">
        <ele>1169.14</ele>
        <time>2024-01-30T05:38:06Z</time>
      </trkpt>
      <trkpt lat="45.17028" lon="5.62727">
        <ele>1169.26</ele>
        <time>2024-01-30T05:38:07Z</time>
      </trkpt>
      <trkpt lat="45.17016" lon="5.62718">
        <ele>1169.96</ele>
        <time>2024-01-30T05:38:12Z</time>
      </trkpt>
      <trkpt lat="45.16975" lon="5.62694">
        <ele>1170.9</ele>
        <time>2024-01-30T05:38:28Z</time>
      </trkpt>
      <trkpt lat="45.16969" lon="5.6268">
        <ele>1167.8</ele>
        <time>2024-01-30T05:38:33Z</time>
      </trkpt>
      <trkpt lat="45.16938" lon="5.62655">
        <ele>1168.85</ele>
        <time>2024-01-30T05:38:47Z</time>
      </trkpt>
      <trkpt lat="45.1693" lon="5.62635">
        <ele>1168.28</ele>
        <time>2024-01-30T05:38:52Z</time>
      </trkpt>
      <trkpt lat="45.16928" lon="5.6261">
        <ele>1166.69</ele>
        <time>2024-01-30T05:38:58Z</time>
      </trkpt>
      <trkpt lat="45.16934" lon="5.62518">
        <ele>1166.3</ele>
        <time>2024-01-30T05:39:17Z</time>
      </trkpt>
      <trkpt lat="45.16931" lon="5.62488">
        <ele>1166.42</ele>
        <time>2024-01-30T05:39:23Z</time>
      </trkpt>
      <trkpt lat="45.16917" lon="5.62465">
        <ele>1167.3</ele>
        <time>2024-01-30T05:39:28Z</time>
      </trkpt>
      <trkpt lat="45.169" lon="5.62449">
        <ele>1166.73</ele>
        <time>2024-01-30T05:39:33Z</time>
      </trkpt>
      <trkpt lat="45.16876" lon="5.62436">
        <ele>1164.86</ele>
        <time>2024-01-30T05:39:39Z</time>
      </trkpt>
      <trkpt lat="45.16845" lon="5.62437">
        <ele>1162.39</ele>
        <time>2024-01-30T05:39:46Z</time>
      </trkpt>
      <trkpt lat="45.16799" lon="5.62453">
        <ele>1158.97</ele>
        <time>2024-01-30T05:39:57Z</time>
      </trkpt>
      <trkpt lat="45.16757" lon="5.62453">
        <ele>1155.84</ele>
        <time>2024-01-30T05:40:06Z</time>
      </trkpt>
      <trkpt lat="45.16749" lon="5.6245">
        <ele>1155.29</ele>
        <time>2024-01-30T05:40:08Z</time>
      </trkpt>
      <trkpt lat="45.1672" lon="5.62424">
        <ele>1154.28</ele>
        <time>2024-01-30T05:40:16Z</time>
      </trkpt>
      <trkpt lat="45.16689" lon="5.62404">
        <ele>1157.76</ele>
        <time>2024-01-30T05:40:24Z</time>
      </trkpt>
      <trkpt lat="45.16651" lon="5.62386">
        <ele>1158.98</ele>
        <time>2024-01-30T05:40:34Z</time>
      </trkpt>
      <trkpt lat="45.16638" lon="5.62387">
        <ele>1158.11</ele>
        <time>2024-01-30T05:40:35Z</time>
      </trkpt>
      <trkpt lat="45.16622" lon="5.62394">
        <ele>1156.98</ele>
        <time>2024-01-30T05:40:38Z</time>
      </trkpt>
      <trkpt lat="45.166" lon="5.62423">
        <ele>1154.99</ele>
        <time>2024-01-30T05:40:43Z</time>
      </trkpt>
      <trkpt lat="45.16594" lon="5.62435">
        <ele>1153.7</ele>
        <time>2024-01-30T05:40:44Z</time>
      </trkpt>
      <trkpt lat="45.16569" lon="5.62516">
        <ele>1152.62</ele>
        <time>2024-01-30T05:40:56Z</time>
      </trkpt>
      <trkpt lat="45.16567" lon="5.62532">
        <ele>1154.05</ele>
        <time>2024-01-30T05:40:58Z</time>
      </trkpt>
      <trkpt lat="45.1657" lon="5.62534">
        <ele>1154.05</ele>
        <time>2024-01-30T05:41:00Z</time>
      </trkpt>
      <trkpt lat="45.16565" lon="5.62566">
        <ele>1157.28</ele>
        <time>2024-01-30T05:41:07Z</time>
      </trkpt>
      <trkpt lat="45.16561" lon="5.62577">
        <ele>1157.48</ele>
        <time>2024-01-30T05:41:10Z</time>
      </trkpt>
      <trkpt lat="45.16543" lon="5.62602">
        <ele>1157.59</ele>
        <time>2024-01-30T05:41:19Z</time>
      </trkpt>
      <trkpt lat="45.16531" lon="5.62611">
        <ele>1157.15</ele>
        <time>2024-01-30T05:41:24Z</time>
      </trkpt>
      <trkpt lat="45.16515" lon="5.62634">
        <ele>1158.25</ele>
        <time>2024-01-30T05:41:32Z</time>
      </trkpt>
      <trkpt lat="45.16488" lon="5.6266">
        <ele>1158.32</ele>
        <time>2024-01-30T05:41:42Z</time>
      </trkpt>
      <trkpt lat="45.16477" lon="5.62666">
        <ele>1157.93</ele>
        <time>2024-01-30T05:41:45Z</time>
      </trkpt>
      <trkpt lat="45.16472" lon="5.62668">
        <ele>1158.35</ele>
        <time>2024-01-30T05:41:47Z</time>
      </trkpt>
      <trkpt lat="45.16453" lon="5.62661">
        <ele>1158.08</ele>
        <time>2024-01-30T05:41:51Z</time>
      </trkpt>
      <trkpt lat="45.16422" lon="5.62653">
        <ele>1159.91</ele>
        <time>2024-01-30T05:41:58Z</time>
      </trkpt>
      <trkpt lat="45.16411" lon="5.62643">
        <ele>1160.14</ele>
        <time>2024-01-30T05:42:00Z</time>
      </trkpt>
      <trkpt lat="45.16376" lon="5.62598">
        <ele>1160.02</ele>
        <time>2024-01-30T05:42:08Z</time>
      </trkpt>
      <trkpt lat="45.16358" lon="5.62578">
        <ele>1159.65</ele>
        <time>2024-01-30T05:42:11Z</time>
      </trkpt>
      <trkpt lat="45.16342" lon="5.62567">
        <ele>1159.01</ele>
        <time>2024-01-30T05:42:15Z</time>
      </trkpt>
      <trkpt lat="45.16311" lon="5.62552">
        <ele>1158.78</ele>
        <time>2024-01-30T05:42:23Z</time>
      </trkpt>
      <trkpt lat="45.16308" lon="5.62549">
        <ele>1158.33</ele>
        <time>2024-01-30T05:42:24Z</time>
      </trkpt>
      <trkpt lat="45.16308" lon="5.62545">
        <ele>1157.64</ele>
        <time>2024-01-30T05:42:24Z</time>
      </trkpt>
      <trkpt lat="45.16332" lon="5.62494">
        <ele>1149.01</ele>
        <time>2024-01-30T05:42:35Z</time>
      </trkpt>
      <trkpt lat="45.16331" lon="5.62489">
        <ele>1148.47</ele>
        <time>2024-01-30T05:42:36Z</time>
      </trkpt>
      <trkpt lat="45.16305" lon="5.62468">
        <ele>1147.74</ele>
        <time>2024-01-30T05:42:44Z</time>
      </trkpt>
      <trkpt lat="45.16276" lon="5.6243">
        <ele>1145.6</ele>
        <time>2024-01-30T05:42:52Z</time>
      </trkpt>
      <trkpt lat="45.16248" lon="5.6241">
        <ele>1147.15</ele>
        <time>2024-01-30T05:42:59Z</time>
      </trkpt>
      <trkpt lat="45.16231" lon="5.62389">
        <ele>1148.34</ele>
        <time>2024-01-30T05:43:05Z</time>
      </trkpt>
      <trkpt lat="45.16227" lon="5.6238">
        <ele>1147.97</ele>
        <time>2024-01-30T05:43:06Z</time>
      </trkpt>
      <trkpt lat="45.16216" lon="5.62347">
        <ele>1148.73</ele>
        <time>2024-01-30T05:43:14Z</time>
      </trkpt>
      <trkpt lat="45.16208" lon="5.62311">
        <ele>1149.56</ele>
        <time>2024-01-30T05:43:23Z</time>
      </trkpt>
      <trkpt lat="45.16208" lon="5.62284">
        <ele>1149.81</ele>
        <time>2024-01-30T05:43:29Z</time>
      </trkpt>
      <trkpt lat="45.16214" lon="5.62258">
        <ele>1148.85</ele>
        <time>2024-01-30T05:43:33Z</time>
      </trkpt>
      <trkpt lat="45.16212" lon="5.6224">
        <ele>1149.39</ele>
        <time>2024-01-30T05:43:36Z</time>
      </trkpt>
      <trkpt lat="45.16206" lon="5.62227">
        <ele>1149.27</ele>
        <time>2024-01-30T05:43:38Z</time>
      </trkpt>
      <trkpt lat="45.16192" lon="5.62212">
        <ele>1149.16</ele>
        <time>2024-01-30T05:43:41Z</time>
      </trkpt>
      <trkpt lat="45.16157" lon="5.62182">
        <ele>1149.96</ele>
        <time>2024-01-30T05:43:47Z</time>
      </trkpt>
      <trkpt lat="45.16144" lon="5.62158">
        <ele>1150.04</ele>
        <time>2024-01-30T05:43:50Z</time>
      </trkpt>
      <trkpt lat="45.1614" lon="5.62127">
        <ele>1150.42</ele>
        <time>2024-01-30T05:43:54Z</time>
      </trkpt>
      <trkpt lat="45.16139" lon="5.62041">
        <ele>1149.14</ele>
        <time>2024-01-30T05:44:04Z</time>
      </trkpt>
      <trkpt lat="45.16135" lon="5.62025">
        <ele>1149.12</ele>
        <time>2024-01-30T05:44:05Z</time>
      </trkpt>
      <trkpt lat="45.16124" lon="5.62">
        <ele>1148.75</ele>
        <time>2024-01-30T05:44:09Z</time>
      </trkpt>
      <trkpt lat="45.16104" lon="5.61962">
        <ele>1148.74</ele>
        <time>2024-01-30T05:44:17Z</time>
      </trkpt>
      <trkpt lat="45.16093" lon="5.61929">
        <ele>1149.38</ele>
        <time>2024-01-30T05:44:23Z</time>
      </trkpt>
      <trkpt lat="45.16091" lon="5.61899">
        <ele>1150.98</ele>
        <time>2024-01-30T05:44:27Z</time>
      </trkpt>
      <trkpt lat="45.16091" lon="5.61882">
        <ele>1152.97</ele>
        <time>2024-01-30T05:44:30Z</time>
      </trkpt>
      <trkpt lat="45.161" lon="5.61823">
        <ele>1158.04</ele>
        <time>2024-01-30T05:44:40Z</time>
      </trkpt>
      <trkpt lat="45.16099" lon="5.61817">
        <ele>1158.21</ele>
        <time>2024-01-30T05:44:41Z</time>
      </trkpt>
      <trkpt lat="45.16092" lon="5.61804">
        <ele>1157.61</ele>
        <time>2024-01-30T05:44:44Z</time>
      </trkpt>
      <trkpt lat="45.16088" lon="5.61802">
        <ele>1157.38</ele>
        <time>2024-01-30T05:44:45Z</time>
      </trkpt>
      <trkpt lat="45.16069" lon="5.61782">
        <ele>1156.01</ele>
        <time>2024-01-30T05:44:50Z</time>
      </trkpt>
      <trkpt lat="45.1605" lon="5.61773">
        <ele>1154.3</ele>
        <time>2024-01-30T05:44:55Z</time>
      </trkpt>
      <trkpt lat="45.1603" lon="5.61769">
        <ele>1152.6</ele>
        <time>2024-01-30T05:44:59Z</time>
      </trkpt>
      <trkpt lat="45.15991" lon="5.61771">
        <ele>1149.91</ele>
        <time>2024-01-30T05:45:08Z</time>
      </trkpt>
      <trkpt lat="45.15946" lon="5.61788">
        <ele>1146.63</ele>
        <time>2024-01-30T05:45:19Z</time>
      </trkpt>
      <trkpt lat="45.159" lon="5.61797">
        <ele>1143.1</ele>
        <time>2024-01-30T05:45:33Z</time>
      </trkpt>
      <trkpt lat="45.1588" lon="5.61804">
        <ele>1139.89</ele>
        <time>2024-01-30T05:45:39Z</time>
      </trkpt>
      <trkpt lat="45.1587" lon="5.61812">
        <ele>1139.34</ele>
        <time>2024-01-30T05:45:42Z</time>
      </trkpt>
      <trkpt lat="45.15858" lon="5.61829">
        <ele>1138.82</ele>
        <time>2024-01-30T05:45:48Z</time>
      </trkpt>
      <trkpt lat="45.15844" lon="5.61852">
        <ele>1138.77</ele>
        <time>2024-01-30T05:45:53Z</time>
      </trkpt>
      <trkpt lat="45.15808" lon="5.61939">
        <ele>1139.64</ele>
        <time>2024-01-30T05:46:12Z</time>
      </trkpt>
      <trkpt lat="45.158" lon="5.6195">
        <ele>1139.25</ele>
        <time>2024-01-30T05:46:16Z</time>
      </trkpt>
      <trkpt lat="45.15796" lon="5.6195">
        <ele>1138.46</ele>
        <time>2024-01-30T05:46:17Z</time>
      </trkpt>
      <trkpt lat="45.15774" lon="5.61937">
        <ele>1133.77</ele>
        <time>2024-01-30T05:46:21Z</time>
      </trkpt>
      <trkpt lat="45.15745" lon="5.6193">
        <ele>1132.8</ele>
        <time>2024-01-30T05:46:25Z</time>
      </trkpt>
      <trkpt lat="45.15732" lon="5.61919">
        <ele>1131.55</ele>
        <time>2024-01-30T05:46:29Z</time>
      </trkpt>
      <trkpt lat="45.15718" lon="5.61894">
        <ele>1129.53</ele>
        <time>2024-01-30T05:46:33Z</time>
      </trkpt>
      <trkpt lat="45.15713" lon="5.6189">
        <ele>1129.45</ele>
        <time>2024-01-30T05:46:34Z</time>
      </trkpt>
      <trkpt lat="45.15708" lon="5.61891">
        <ele>1130.2</ele>
        <time>2024-01-30T05:46:34Z</time>
      </trkpt>
      <trkpt lat="45.15694" lon="5.61909">
        <ele>1133.24</ele>
        <time>2024-01-30T05:46:38Z</time>
      </trkpt>
      <trkpt lat="45.15657" lon="5.61922">
        <ele>1136.9</ele>
        <time>2024-01-30T05:46:44Z</time>
      </trkpt>
      <trkpt lat="45.1563" lon="5.61916">
        <ele>1136.74</ele>
        <time>2024-01-30T05:46:47Z</time>
      </trkpt>
      <trkpt lat="45.15627" lon="5.61907">
        <ele>1135.92</ele>
        <time>2024-01-30T05:46:47Z</time>
      </trkpt>
      <trkpt lat="45.15617" lon="5.61902">
        <ele>1135.19</ele>
        <time>2024-01-30T05:46:49Z</time>
      </trkpt>
      <trkpt lat="45.15612" lon="5.619">
        <ele>1134.95</ele>
        <time>2024-01-30T05:46:49Z</time>
      </trkpt>
      <trkpt lat="45.15563" lon="5.61907">
        <ele>1129.65</ele>
        <time>2024-01-30T05:46:55Z</time>
      </trkpt>
      <trkpt lat="45.15539" lon="5.61914">
        <ele>1125.71</ele>
        <time>2024-01-30T05:46:58Z</time>
      </trkpt>
      <trkpt lat="45.15514" lon="5.61928">
        <ele>1122.73</ele>
        <time>2024-01-30T05:47:01Z</time>
      </trkpt>
      <trkpt lat="45.15495" lon="5.61938">
        <ele>1122.46</ele>
        <time>2024-01-30T05:47:04Z</time>
      </trkpt>
      <trkpt lat="45.15466" lon="5.61944">
        <ele>1120.87</ele>
        <time>2024-01-30T05:47:07Z</time>
      </trkpt>
      <trkpt lat="45.15457" lon="5.61942">
        <ele>1119.81</ele>
        <time>2024-01-30T05:47:08Z</time>
      </trkpt>
      <trkpt lat="45.15441" lon="5.61936">
        <ele>1118.4</ele>
        <time>2024-01-30T05:47:10Z</time>
      </trkpt>
      <trkpt lat="45.15403" lon="5.61916">
        <ele>1112.66</ele>
        <time>2024-01-30T05:47:15Z</time>
      </trkpt>
      <trkpt lat="45.15389" lon="5.619">
        <ele>1109.75</ele>
        <time>2024-01-30T05:47:17Z</time>
      </trkpt>
      <trkpt lat="45.15372" lon="5.61883">
        <ele>1106.27</ele>
        <time>2024-01-30T05:47:20Z</time>
      </trkpt>
      <trkpt lat="45.15333" lon="5.61866">
        <ele>1101.69</ele>
        <time>2024-01-30T05:47:24Z</time>
      </trkpt>
      <trkpt lat="45.15305" lon="5.61863">
        <ele>1099.17</ele>
        <time>2024-01-30T05:47:28Z</time>
      </trkpt>
      <trkpt lat="45.15222" lon="5.61879">
        <ele>1091.26</ele>
        <time>2024-01-30T05:47:38Z</time>
      </trkpt>
      <trkpt lat="45.15187" lon="5.61891">
        <ele>1088.15</ele>
        <time>2024-01-30T05:47:42Z</time>
      </trkpt>
      <trkpt lat="45.1515" lon="5.61907">
        <ele>1084.23</ele>
        <time>2024-01-30T05:47:48Z</time>
      </trkpt>
      <trkpt lat="45.1508" lon="5.61942">
        <ele>1076.9</ele>
        <time>2024-01-30T05:47:57Z</time>
      </trkpt>
      <trkpt lat="45.15066" lon="5.61957">
        <ele>1077.09</ele>
        <time>2024-01-30T05:48:01Z</time>
      </trkpt>
      <trkpt lat="45.15044" lon="5.61972">
        <ele>1075.89</ele>
        <time>2024-01-30T05:48:07Z</time>
      </trkpt>
      <trkpt lat="45.15014" lon="5.61974">
        <ele>1072.15</ele>
        <time>2024-01-30T05:48:14Z</time>
      </trkpt>
      <trkpt lat="45.14975" lon="5.61966">
        <ele>1065.97</ele>
        <time>2024-01-30T05:48:23Z</time>
      </trkpt>
      <trkpt lat="45.14929" lon="5.61968">
        <ele>1061.51</ele>
        <time>2024-01-30T05:48:34Z</time>
      </trkpt>
      <trkpt lat="45.14925" lon="5.61971">
        <ele>1061.99</ele>
        <time>2024-01-30T05:48:35Z</time>
      </trkpt>
      <trkpt lat="45.14811" lon="5.61985">
        <ele>1052.16</ele>
        <time>2024-01-30T05:49:03Z</time>
      </trkpt>
      <trkpt lat="45.14759" lon="5.62003">
        <ele>1051.03</ele>
        <time>2024-01-30T05:49:17Z</time>
      </trkpt>
      <trkpt lat="45.14747" lon="5.62001">
        <ele>1049.46</ele>
        <time>2024-01-30T05:49:21Z</time>
      </trkpt>
      <trkpt lat="45.14728" lon="5.61987">
        <ele>1047.23</ele>
        <time>2024-01-30T05:49:27Z</time>
      </trkpt>
      <trkpt lat="45.14717" lon="5.61974">
        <ele>1044.55</ele>
        <time>2024-01-30T05:49:32Z</time>
      </trkpt>
      <trkpt lat="45.14701" lon="5.61963">
        <ele>1043.46</ele>
        <time>2024-01-30T05:49:38Z</time>
      </trkpt>
      <trkpt lat="45.14662" lon="5.6195">
        <ele>1043.25</ele>
        <time>2024-01-30T05:49:51Z</time>
      </trkpt>
      <trkpt lat="45.14608" lon="5.61945">
        <ele>1045.05</ele>
        <time>2024-01-30T05:50:06Z</time>
      </trkpt>
      <trkpt lat="45.14585" lon="5.61937">
        <ele>1045.06</ele>
        <time>2024-01-30T05:50:12Z</time>
      </trkpt>
      <trkpt lat="45.14567" lon="5.61925">
        <ele>1044.66</ele>
        <time>2024-01-30T05:50:17Z</time>
      </trkpt>
      <trkpt lat="45.14551" lon="5.61909">
        <ele>1045.63</ele>
        <time>2024-01-30T05:50:22Z</time>
      </trkpt>
      <trkpt lat="45.14525" lon="5.61854">
        <ele>1044.44</ele>
        <time>2024-01-30T05:50:35Z</time>
      </trkpt>
      <trkpt lat="45.14521" lon="5.61835">
        <ele>1043.95</ele>
        <time>2024-01-30T05:50:39Z</time>
      </trkpt>
      <trkpt lat="45.1452" lon="5.61817">
        <ele>1042.76</ele>
        <time>2024-01-30T05:50:42Z</time>
      </trkpt>
      <trkpt lat="45.14531" lon="5.61767">
        <ele>1036.82</ele>
        <time>2024-01-30T05:50:51Z</time>
      </trkpt>
      <trkpt lat="45.14529" lon="5.61716">
        <ele>1035.23</ele>
        <time>2024-01-30T05:51:00Z</time>
      </trkpt>
      <trkpt lat="45.14525" lon="5.61684">
        <ele>1035.46</ele>
        <time>2024-01-30T05:51:06Z</time>
      </trkpt>
      <trkpt lat="45.14522" lon="5.61671">
        <ele>1036</ele>
        <time>2024-01-30T05:51:08Z</time>
      </trkpt>
      <trkpt lat="45.14512" lon="5.61637">
        <ele>1035.46</ele>
        <time>2024-01-30T05:51:15Z</time>
      </trkpt>
      <trkpt lat="45.14479" lon="5.61571">
        <ele>1036.9</ele>
        <time>2024-01-30T05:51:32Z</time>
      </trkpt>
      <trkpt lat="45.14471" lon="5.61549">
        <ele>1036.52</ele>
        <time>2024-01-30T05:51:37Z</time>
      </trkpt>
      <trkpt lat="45.14456" lon="5.61484">
        <ele>1041.4</ele>
        <time>2024-01-30T05:51:53Z</time>
      </trkpt>
      <trkpt lat="45.14455" lon="5.6146">
        <ele>1043.14</ele>
        <time>2024-01-30T05:51:59Z</time>
      </trkpt>
      <trkpt lat="45.14457" lon="5.61443">
        <ele>1044.92</ele>
        <time>2024-01-30T05:52:03Z</time>
      </trkpt>
      <trkpt lat="45.14463" lon="5.61419">
        <ele>1045.79</ele>
        <time>2024-01-30T05:52:10Z</time>
      </trkpt>
      <trkpt lat="45.14479" lon="5.61396">
        <ele>1046.82</ele>
        <time>2024-01-30T05:52:18Z</time>
      </trkpt>
      <trkpt lat="45.145" lon="5.61359">
        <ele>1047.74</ele>
        <time>2024-01-30T05:52:32Z</time>
      </trkpt>
      <trkpt lat="45.14546" lon="5.6129">
        <ele>1051.43</ele>
        <time>2024-01-30T05:53:03Z</time>
      </trkpt>
      <trkpt lat="45.14559" lon="5.61262">
        <ele>1053.91</ele>
        <time>2024-01-30T05:53:15Z</time>
      </trkpt>
      <trkpt lat="45.14575" lon="5.61216">
        <ele>1059.04</ele>
        <time>2024-01-30T05:53:34Z</time>
      </trkpt>
      <trkpt lat="45.14586" lon="5.61168">
        <ele>1065.86</ele>
        <time>2024-01-30T05:53:56Z</time>
      </trkpt>
      <trkpt lat="45.14594" lon="5.61148">
        <ele>1069.03</ele>
        <time>2024-01-30T05:54:08Z</time>
      </trkpt>
      <trkpt lat="45.14623" lon="5.61103">
        <ele>1071.26</ele>
        <time>2024-01-30T05:54:41Z</time>
      </trkpt>
      <trkpt lat="45.14625" lon="5.61084">
        <ele>1072.68</ele>
        <time>2024-01-30T05:54:52Z</time>
      </trkpt>
      <trkpt lat="45.14619" lon="5.61072">
        <ele>1073.24</ele>
        <time>2024-01-30T05:55:01Z</time>
      </trkpt>
      <trkpt lat="45.14591" lon="5.61056">
        <ele>1074.22</ele>
        <time>2024-01-30T05:55:28Z</time>
      </trkpt>
      <trkpt lat="45.14501" lon="5.61037">
        <ele>1079.57</ele>
        <time>2024-01-30T05:56:50Z</time>
      </trkpt>
      <trkpt lat="45.14486" lon="5.61027">
        <ele>1079.75</ele>
        <time>2024-01-30T05:57:03Z</time>
      </trkpt>
      <trkpt lat="45.14449" lon="5.6101">
        <ele>1084.54</ele>
        <time>2024-01-30T05:57:32Z</time>
      </trkpt>
      <trkpt lat="45.14408" lon="5.61018">
        <ele>1093.36</ele>
        <time>2024-01-30T05:57:52Z</time>
      </trkpt>
      <trkpt lat="45.14399" lon="5.61012">
        <ele>1094.7</ele>
        <time>2024-01-30T05:57:56Z</time>
      </trkpt>
      <trkpt lat="45.14397" lon="5.61">
        <ele>1094.99</ele>
        <time>2024-01-30T05:57:59Z</time>
      </trkpt>
      <trkpt lat="45.14397" lon="5.60988">
        <ele>1095.18</ele>
        <time>2024-01-30T05:58:02Z</time>
      </trkpt>
      <trkpt lat="45.14414" lon="5.60938">
        <ele>1097.73</ele>
        <time>2024-01-30T05:58:13Z</time>
      </trkpt>
      <trkpt lat="45.14426" lon="5.60918">
        <ele>1098.68</ele>
        <time>2024-01-30T05:58:16Z</time>
      </trkpt>
      <trkpt lat="45.14493" lon="5.60851">
        <ele>1100.84</ele>
        <time>2024-01-30T05:58:28Z</time>
      </trkpt>
      <trkpt lat="45.14515" lon="5.60821">
        <ele>1103.69</ele>
        <time>2024-01-30T05:58:33Z</time>
      </trkpt>
      <trkpt lat="45.14521" lon="5.60805">
        <ele>1105.87</ele>
        <time>2024-01-30T05:58:35Z</time>
      </trkpt>
      <trkpt lat="45.14527" lon="5.60801">
        <ele>1106.44</ele>
        <time>2024-01-30T05:58:36Z</time>
      </trkpt>
      <trkpt lat="45.14547" lon="5.60764">
        <ele>1110.33</ele>
        <time>2024-01-30T05:58:44Z</time>
      </trkpt>
      <trkpt lat="45.14542" lon="5.60755">
        <ele>1109.72</ele>
        <time>2024-01-30T05:58:46Z</time>
      </trkpt>
      <trkpt lat="45.1448" lon="5.60722">
        <ele>1096.37</ele>
        <time>2024-01-30T05:59:04Z</time>
      </trkpt>
      <trkpt lat="45.14445" lon="5.60698">
        <ele>1094.47</ele>
        <time>2024-01-30T05:59:16Z</time>
      </trkpt>
      <trkpt lat="45.14424" lon="5.60682">
        <ele>1091.19</ele>
        <time>2024-01-30T05:59:24Z</time>
      </trkpt>
      <trkpt lat="45.14399" lon="5.60668">
        <ele>1088.43</ele>
        <time>2024-01-30T05:59:35Z</time>
      </trkpt>
      <trkpt lat="45.14371" lon="5.6066">
        <ele>1085.98</ele>
        <time>2024-01-30T05:59:48Z</time>
      </trkpt>
      <trkpt lat="45.14349" lon="5.60666">
        <ele>1085.59</ele>
        <time>2024-01-30T05:59:58Z</time>
      </trkpt>
      <trkpt lat="45.14298" lon="5.60696">
        <ele>1088.64</ele>
        <time>2024-01-30T06:00:19Z</time>
      </trkpt>
      <trkpt lat="45.1428" lon="5.60702">
        <ele>1088.54</ele>
        <time>2024-01-30T06:00:24Z</time>
      </trkpt>
      <trkpt lat="45.14208" lon="5.6071">
        <ele>1090.13</ele>
        <time>2024-01-30T06:00:42Z</time>
      </trkpt>
      <trkpt lat="45.14191" lon="5.60709">
        <ele>1091.82</ele>
        <time>2024-01-30T06:00:45Z</time>
      </trkpt>
      <trkpt lat="45.14176" lon="5.60703">
        <ele>1092.64</ele>
        <time>2024-01-30T06:00:49Z</time>
      </trkpt>
      <trkpt lat="45.1417" lon="5.60691">
        <ele>1091.24</ele>
        <time>2024-01-30T06:00:51Z</time>
      </trkpt>
      <trkpt lat="45.14162" lon="5.60657">
        <ele>1086.16</ele>
        <time>2024-01-30T06:00:56Z</time>
      </trkpt>
      <trkpt lat="45.14162" lon="5.6064">
        <ele>1085.56</ele>
        <time>2024-01-30T06:00:58Z</time>
      </trkpt>
      <trkpt lat="45.14166" lon="5.60631">
        <ele>1083.86</ele>
        <time>2024-01-30T06:01:00Z</time>
      </trkpt>
      <trkpt lat="45.1417" lon="5.60584">
        <ele>1081.18</ele>
        <time>2024-01-30T06:01:06Z</time>
      </trkpt>
      <trkpt lat="45.14169" lon="5.60562">
        <ele>1080.07</ele>
        <time>2024-01-30T06:01:09Z</time>
      </trkpt>
      <trkpt lat="45.14163" lon="5.60545">
        <ele>1079.22</ele>
        <time>2024-01-30T06:01:12Z</time>
      </trkpt>
      <trkpt lat="45.14128" lon="5.60463">
        <ele>1079.49</ele>
        <time>2024-01-30T06:01:25Z</time>
      </trkpt>
      <trkpt lat="45.14099" lon="5.60427">
        <ele>1072.55</ele>
        <time>2024-01-30T06:01:29Z</time>
      </trkpt>
      <trkpt lat="45.14076" lon="5.60393">
        <ele>1066.24</ele>
        <time>2024-01-30T06:01:33Z</time>
      </trkpt>
      <trkpt lat="45.14062" lon="5.60379">
        <ele>1063.01</ele>
        <time>2024-01-30T06:01:35Z</time>
      </trkpt>
      <trkpt lat="45.14046" lon="5.60354">
        <ele>1057.58</ele>
        <time>2024-01-30T06:01:38Z</time>
      </trkpt>
      <trkpt lat="45.14026" lon="5.60317">
        <ele>1050.4</ele>
        <time>2024-01-30T06:01:43Z</time>
      </trkpt>
      <trkpt lat="45.1399" lon="5.60224">
        <ele>1032.56</ele>
        <time>2024-01-30T06:01:52Z</time>
      </trkpt>
      <trkpt lat="45.13952" lon="5.60154">
        <ele>1029.39</ele>
        <time>2024-01-30T06:02:00Z</time>
      </trkpt>
      <trkpt lat="45.13934" lon="5.60134">
        <ele>1025.54</ele>
        <time>2024-01-30T06:02:03Z</time>
      </trkpt>
      <trkpt lat="45.13904" lon="5.60112">
        <ele>1021.35</ele>
        <time>2024-01-30T06:02:07Z</time>
      </trkpt>
      <trkpt lat="45.13836" lon="5.60092">
        <ele>1019.76</ele>
        <time>2024-01-30T06:02:16Z</time>
      </trkpt>
      <trkpt lat="45.13761" lon="5.60059">
        <ele>1017.93</ele>
        <time>2024-01-30T06:02:26Z</time>
      </trkpt>
      <trkpt lat="45.13725" lon="5.60056">
        <ele>1017.94</ele>
        <time>2024-01-30T06:02:31Z</time>
      </trkpt>
      <trkpt lat="45.13715" lon="5.60052">
        <ele>1017.11</ele>
        <time>2024-01-30T06:02:33Z</time>
      </trkpt>
      <trkpt lat="45.13675" lon="5.59991">
        <ele>1011.16</ele>
        <time>2024-01-30T06:02:43Z</time>
      </trkpt>
      <trkpt lat="45.13652" lon="5.59933">
        <ele>1014.53</ele>
        <time>2024-01-30T06:02:52Z</time>
      </trkpt>
      <trkpt lat="45.13641" lon="5.59919">
        <ele>1017.47</ele>
        <time>2024-01-30T06:02:55Z</time>
      </trkpt>
      <trkpt lat="45.13618" lon="5.59902">
        <ele>1022.07</ele>
        <time>2024-01-30T06:03:00Z</time>
      </trkpt>
      <trkpt lat="45.1361" lon="5.59885">
        <ele>1024.43</ele>
        <time>2024-01-30T06:03:03Z</time>
      </trkpt>
      <trkpt lat="45.13603" lon="5.59849">
        <ele>1026.5</ele>
        <time>2024-01-30T06:03:08Z</time>
      </trkpt>
      <trkpt lat="45.13556" lon="5.59814">
        <ele>1026.76</ele>
        <time>2024-01-30T06:03:18Z</time>
      </trkpt>
      <trkpt lat="45.13498" lon="5.59766">
        <ele>1021.21</ele>
        <time>2024-01-30T06:03:29Z</time>
      </trkpt>
      <trkpt lat="45.13448" lon="5.59713">
        <ele>1020.84</ele>
        <time>2024-01-30T06:03:39Z</time>
      </trkpt>
      <trkpt lat="45.13428" lon="5.59699">
        <ele>1020.27</ele>
        <time>2024-01-30T06:03:43Z</time>
      </trkpt>
      <trkpt lat="45.13397" lon="5.59687">
        <ele>1017.44</ele>
        <time>2024-01-30T06:03:49Z</time>
      </trkpt>
      <trkpt lat="45.13337" lon="5.5968">
        <ele>1012.89</ele>
        <time>2024-01-30T06:04:00Z</time>
      </trkpt>
      <trkpt lat="45.13319" lon="5.59662">
        <ele>1012.6</ele>
        <time>2024-01-30T06:04:04Z</time>
      </trkpt>
      <trkpt lat="45.13284" lon="5.59618">
        <ele>1016.06</ele>
        <time>2024-01-30T06:04:13Z</time>
      </trkpt>
      <trkpt lat="45.13272" lon="5.59606">
        <ele>1018.03</ele>
        <time>2024-01-30T06:04:16Z</time>
      </trkpt>
      <trkpt lat="45.13255" lon="5.59596">
        <ele>1020.27</ele>
        <time>2024-01-30T06:04:20Z</time>
      </trkpt>
      <trkpt lat="45.13216" lon="5.59574">
        <ele>1022.74</ele>
        <time>2024-01-30T06:04:29Z</time>
      </trkpt>
      <trkpt lat="45.13187" lon="5.59563">
        <ele>1022.94</ele>
        <time>2024-01-30T06:04:36Z</time>
      </trkpt>
      <trkpt lat="45.13146" lon="5.59551">
        <ele>1022.78</ele>
        <time>2024-01-30T06:04:45Z</time>
      </trkpt>
      <trkpt lat="45.13029" lon="5.5954">
        <ele>1021.63</ele>
        <time>2024-01-30T06:05:07Z</time>
      </trkpt>
      <trkpt lat="45.13013" lon="5.59536">
        <ele>1021.71</ele>
        <time>2024-01-30T06:05:10Z</time>
      </trkpt>
      <trkpt lat="45.12984" lon="5.59521">
        <ele>1022.09</ele>
        <time>2024-01-30T06:05:16Z</time>
      </trkpt>
      <trkpt lat="45.12912" lon="5.59477">
        <ele>1019.51</ele>
        <time>2024-01-30T06:05:28Z</time>
      </trkpt>
      <trkpt lat="45.12928" lon="5.59423">
        <ele>1018.9</ele>
        <time>2024-01-30T06:05:34Z</time>
      </trkpt>
      <trkpt lat="45.12947" lon="5.59378">
        <ele>1018.08</ele>
        <time>2024-01-30T06:05:39Z</time>
      </trkpt>
      <trkpt lat="45.12964" lon="5.59323">
        <ele>1015.66</ele>
        <time>2024-01-30T06:05:45Z</time>
      </trkpt>
      <trkpt lat="45.12961" lon="5.59279">
        <ele>1011.76</ele>
        <time>2024-01-30T06:05:50Z</time>
      </trkpt>
      <trkpt lat="45.12959" lon="5.59274">
        <ele>1010.04</ele>
        <time>2024-01-30T06:05:51Z</time>
      </trkpt>
      <trkpt lat="45.12957" lon="5.59273">
        <ele>1010.04</ele>
        <time>2024-01-30T06:05:51Z</time>
      </trkpt>
      <trkpt lat="45.12934" lon="5.59303">
        <ele>1004.08</ele>
        <time>2024-01-30T06:06:00Z</time>
      </trkpt>
      <trkpt lat="45.12929" lon="5.59299">
        <ele>1001.78</ele>
        <time>2024-01-30T06:06:02Z</time>
      </trkpt>
      <trkpt lat="45.12925" lon="5.59288">
        <ele>999.16</ele>
        <time>2024-01-30T06:06:04Z</time>
      </trkpt>
      <trkpt lat="45.12915" lon="5.59276">
        <ele>995.63</ele>
        <time>2024-01-30T06:06:08Z</time>
      </trkpt>
      <trkpt lat="45.12905" lon="5.59267">
        <ele>994.03</ele>
        <time>2024-01-30T06:06:12Z</time>
      </trkpt>
      <trkpt lat="45.12895" lon="5.59251">
        <ele>996.47</ele>
        <time>2024-01-30T06:06:17Z</time>
      </trkpt>
      <trkpt lat="45.12887" lon="5.59221">
        <ele>1003.42</ele>
        <time>2024-01-30T06:06:25Z</time>
      </trkpt>
      <trkpt lat="45.12887" lon="5.59178">
        <ele>1006.68</ele>
        <time>2024-01-30T06:06:36Z</time>
      </trkpt>
      <trkpt lat="45.12884" lon="5.59162">
        <ele>1007.37</ele>
        <time>2024-01-30T06:06:41Z</time>
      </trkpt>
      <trkpt lat="45.12863" lon="5.5912">
        <ele>1015.57</ele>
        <time>2024-01-30T06:06:55Z</time>
      </trkpt>
      <trkpt lat="45.12842" lon="5.59094">
        <ele>1018.5</ele>
        <time>2024-01-30T06:07:05Z</time>
      </trkpt>
      <trkpt lat="45.12795" lon="5.59044">
        <ele>1019.28</ele>
        <time>2024-01-30T06:07:24Z</time>
      </trkpt>
      <trkpt lat="45.12804" lon="5.58998">
        <ele>1017.27</ele>
        <time>2024-01-30T06:07:30Z</time>
      </trkpt>
      <trkpt lat="45.12809" lon="5.58972">
        <ele>1014.93</ele>
        <time>2024-01-30T06:07:33Z</time>
      </trkpt>
      <trkpt lat="45.12816" lon="5.58916">
        <ele>1010.77</ele>
        <time>2024-01-30T06:07:39Z</time>
      </trkpt>
      <trkpt lat="45.12819" lon="5.58897">
        <ele>1010.03</ele>
        <time>2024-01-30T06:07:41Z</time>
      </trkpt>
      <trkpt lat="45.12822" lon="5.58875">
        <ele>1009.92</ele>
        <time>2024-01-30T06:07:44Z</time>
      </trkpt>
      <trkpt lat="45.12824" lon="5.58866">
        <ele>1009.64</ele>
        <time>2024-01-30T06:07:45Z</time>
      </trkpt>
      <trkpt lat="45.12825" lon="5.58861">
        <ele>1009.69</ele>
        <time>2024-01-30T06:07:46Z</time>
      </trkpt>
      <trkpt lat="45.12833" lon="5.58833">
        <ele>1009.63</ele>
        <time>2024-01-30T06:07:49Z</time>
      </trkpt>
      <trkpt lat="45.12845" lon="5.58794">
        <ele>1009.4</ele>
        <time>2024-01-30T06:07:54Z</time>
      </trkpt>
      <trkpt lat="45.12858" lon="5.5875">
        <ele>1009.03</ele>
        <time>2024-01-30T06:07:59Z</time>
      </trkpt>
      <trkpt lat="45.12731" lon="5.58666">
        <ele>1010.1</ele>
        <time>2024-01-30T06:08:21Z</time>
      </trkpt>
      <trkpt lat="45.12685" lon="5.58567">
        <ele>1008.13</ele>
        <time>2024-01-30T06:08:34Z</time>
      </trkpt>
      <trkpt lat="45.12663" lon="5.58506">
        <ele>1006.77</ele>
        <time>2024-01-30T06:08:46Z</time>
      </trkpt>
      <trkpt lat="45.12655" lon="5.58431">
        <ele>1004.95</ele>
        <time>2024-01-30T06:08:59Z</time>
      </trkpt>
      <trkpt lat="45.12581" lon="5.58267">
        <ele>1000.95</ele>
        <time>2024-01-30T06:09:18Z</time>
      </trkpt>
      <trkpt lat="45.12572" lon="5.58251">
        <ele>1000.73</ele>
        <time>2024-01-30T06:09:20Z</time>
      </trkpt>
      <trkpt lat="45.12561" lon="5.58238">
        <ele>1000.47</ele>
        <time>2024-01-30T06:09:22Z</time>
      </trkpt>
      <trkpt lat="45.1254" lon="5.58211">
        <ele>1000.07</ele>
        <time>2024-01-30T06:09:26Z</time>
      </trkpt>
      <trkpt lat="45.12538" lon="5.58203">
        <ele>999.97</ele>
        <time>2024-01-30T06:09:27Z</time>
      </trkpt>
      <trkpt lat="45.1254" lon="5.58196">
        <ele>999.96</ele>
        <time>2024-01-30T06:09:27Z</time>
      </trkpt>
      <trkpt lat="45.12497" lon="5.5818">
        <ele>999.58</ele>
        <time>2024-01-30T06:27:46Z</time>
      </trkpt>
      <trkpt lat="45.12191" lon="5.58079">
        <ele>996.36</ele>
        <time>2024-01-30T06:28:41Z</time>
      </trkpt>
      <trkpt lat="45.1205" lon="5.5803">
        <ele>996.15</ele>
        <time>2024-01-30T06:29:07Z</time>
      </trkpt>
      <trkpt lat="45.12024" lon="5.58018">
        <ele>995.51</ele>
        <time>2024-01-30T06:29:12Z</time>
      </trkpt>
      <trkpt lat="45.12001" lon="5.58005">
        <ele>995</ele>
        <time>2024-01-30T06:29:17Z</time>
      </trkpt>
      <trkpt lat="45.119" lon="5.57936">
        <ele>994.37</ele>
        <time>2024-01-30T06:29:37Z</time>
      </trkpt>
      <trkpt lat="45.11766" lon="5.57844">
        <ele>992.79</ele>
        <time>2024-01-30T06:30:04Z</time>
      </trkpt>
      <trkpt lat="45.11231" lon="5.57474">
        <ele>989.6</ele>
        <time>2024-01-30T06:31:56Z</time>
      </trkpt>
      <trkpt lat="45.11144" lon="5.57413">
        <ele>989.43</ele>
        <time>2024-01-30T06:32:17Z</time>
      </trkpt>
      <trkpt lat="45.11102" lon="5.57373">
        <ele>988.96</ele>
        <time>2024-01-30T06:32:28Z</time>
      </trkpt>
      <trkpt lat="45.11026" lon="5.57285">
        <ele>988.33</ele>
        <time>2024-01-30T06:32:48Z</time>
      </trkpt>
      <trkpt lat="45.10907" lon="5.57145">
        <ele>987.92</ele>
        <time>2024-01-30T06:33:18Z</time>
      </trkpt>
      <trkpt lat="45.10485" lon="5.56654">
        <ele>984.62</ele>
        <time>2024-01-30T06:35:05Z</time>
      </trkpt>
      <trkpt lat="45.10398" lon="5.56579">
        <ele>984.47</ele>
        <time>2024-01-30T06:35:23Z</time>
      </trkpt>
      <trkpt lat="45.10331" lon="5.5652">
        <ele>984.28</ele>
        <time>2024-01-30T06:35:36Z</time>
      </trkpt>
      <trkpt lat="45.10224" lon="5.56424">
        <ele>987.04</ele>
        <time>2024-01-30T06:35:55Z</time>
      </trkpt>
      <trkpt lat="45.10149" lon="5.56357">
        <ele>984.7</ele>
        <time>2024-01-30T06:17:57Z</time>
      </trkpt>
      <trkpt lat="45.10224" lon="5.56424">
        <ele>987.04</ele>
        <time>2024-01-30T06:35:55Z</time>
      </trkpt>
      <trkpt lat="45.10331" lon="5.5652">
        <ele>984.28</ele>
        <time>2024-01-30T06:35:36Z</time>
      </trkpt>
      <trkpt lat="45.10398" lon="5.56579">
        <ele>984.47</ele>
        <time>2024-01-30T06:35:23Z</time>
      </trkpt>
      <trkpt lat="45.10485" lon="5.56654">
        <ele>984.62</ele>
        <time>2024-01-30T06:35:05Z</time>
      </trkpt>
      <trkpt lat="45.10907" lon="5.57145">
        <ele>987.92</ele>
        <time>2024-01-30T06:33:18Z</time>
      </trkpt>
      <trkpt lat="45.11026" lon="5.57285">
        <ele>988.33</ele>
        <time>2024-01-30T06:32:48Z</time>
      </trkpt>
      <trkpt lat="45.11102" lon="5.57373">
        <ele>988.96</ele>
        <time>2024-01-30T06:32:28Z</time>
      </trkpt>
      <trkpt lat="45.11144" lon="5.57413">
        <ele>989.43</ele>
        <time>2024-01-30T06:32:17Z</time>
      </trkpt>
      <trkpt lat="45.11231" lon="5.57474">
        <ele>989.6</ele>
        <time>2024-01-30T06:31:56Z</time>
      </trkpt>
      <trkpt lat="45.11766" lon="5.57844">
        <ele>992.79</ele>
        <time>2024-01-30T06:30:04Z</time>
      </trkpt>
      <trkpt lat="45.119" lon="5.57936">
        <ele>994.37</ele>
        <time>2024-01-30T06:29:37Z</time>
      </trkpt>
      <trkpt lat="45.11984" lon="5.57994">
        <ele>995.09</ele>
        <time>2024-01-30T06:25:34Z</time>
      </trkpt>
      <trkpt lat="45.12001" lon="5.58005">
        <ele>995</ele>
        <time>2024-01-30T06:29:17Z</time>
      </trkpt>
      <trkpt lat="45.12024" lon="5.58018">
        <ele>995.51</ele>
        <time>2024-01-30T06:29:12Z</time>
      </trkpt>
      <trkpt lat="45.1205" lon="5.5803">
        <ele>996.15</ele>
        <time>2024-01-30T06:29:07Z</time>
      </trkpt>
      <trkpt lat="45.12191" lon="5.58079">
        <ele>996.36</ele>
        <time>2024-01-30T06:28:41Z</time>
      </trkpt>
      <trkpt lat="45.12497" lon="5.5818">
        <ele>999.58</ele>
        <time>2024-01-30T06:27:46Z</time>
      </trkpt>
      <trkpt lat="45.12497" lon="5.58198">
        <ele>999.56</ele>
        <time>2024-01-30T06:27:44Z</time>
      </trkpt>
      <trkpt lat="45.12497" lon="5.5818">
        <ele>999.58</ele>
        <time>2024-01-30T06:27:46Z</time>
      </trkpt>
      <trkpt lat="45.12191" lon="5.58079">
        <ele>996.36</ele>
        <time>2024-01-30T06:28:41Z</time>
      </trkpt>
      <trkpt lat="45.1205" lon="5.5803">
        <ele>996.15</ele>
        <time>2024-01-30T06:29:07Z</time>
      </trkpt>
      <trkpt lat="45.12024" lon="5.58018">
        <ele>995.51</ele>
        <time>2024-01-30T06:29:12Z</time>
      </trkpt>
      <trkpt lat="45.12001" lon="5.58005">
        <ele>995</ele>
        <time>2024-01-30T06:29:17Z</time>
      </trkpt>
      <trkpt lat="45.119" lon="5.57936">
        <ele>994.37</ele>
        <time>2024-01-30T06:29:37Z</time>
      </trkpt>
      <trkpt lat="45.11766" lon="5.57844">
        <ele>992.79</ele>
        <time>2024-01-30T06:30:04Z</time>
      </trkpt>
      <trkpt lat="45.11231" lon="5.57474">
        <ele>989.6</ele>
        <time>2024-01-30T06:31:56Z</time>
      </trkpt>
      <trkpt lat="45.11144" lon="5.57413">
        <ele>989.43</ele>
        <time>2024-01-30T06:32:17Z</time>
      </trkpt>
      <trkpt lat="45.11102" lon="5.57373">
        <ele>988.96</ele>
        <time>2024-01-30T06:32:28Z</time>
      </trkpt>
      <trkpt lat="45.11026" lon="5.57285">
        <ele>988.33</ele>
        <time>2024-01-30T06:32:48Z</time>
      </trkpt>
      <trkpt lat="45.10907" lon="5.57145">
        <ele>987.92</ele>
        <time>2024-01-30T06:33:18Z</time>
      </trkpt>
      <trkpt lat="45.10485" lon="5.56654">
        <ele>984.62</ele>
        <time>2024-01-30T06:35:05Z</time>
      </trkpt>
      <trkpt lat="45.10398" lon="5.56579">
        <ele>984.47</ele>
        <time>2024-01-30T06:35:23Z</time>
      </trkpt>
      <trkpt lat="45.10331" lon="5.5652">
        <ele>984.28</ele>
        <time>2024-01-30T06:35:36Z</time>
      </trkpt>
      <trkpt lat="45.10224" lon="5.56424">
        <ele>987.04</ele>
        <time>2024-01-30T06:35:55Z</time>
      </trkpt>
      <trkpt lat="45.10097" lon="5.5631">
        <ele>982.86</ele>
        <time>2024-01-30T06:36:18Z</time>
      </trkpt>
      <trkpt lat="45.09711" lon="5.55968">
        <ele>979.62</ele>
        <time>2024-01-30T06:37:43Z</time>
      </trkpt>
      <trkpt lat="45.09697" lon="5.55956">
        <ele>979.65</ele>
        <time>2024-01-30T06:37:46Z</time>
      </trkpt>
      <trkpt lat="45.0963" lon="5.55898">
        <ele>980.3</ele>
        <time>2024-01-30T06:38:01Z</time>
      </trkpt>
      <trkpt lat="45.0954" lon="5.55818">
        <ele>980.26</ele>
        <time>2024-01-30T06:38:20Z</time>
      </trkpt>
      <trkpt lat="45.09485" lon="5.55769">
        <ele>979.53</ele>
        <time>2024-01-30T06:38:32Z</time>
      </trkpt>
      <trkpt lat="45.09423" lon="5.55669">
        <ele>981.15</ele>
        <time>2024-01-30T06:38:47Z</time>
      </trkpt>
      <trkpt lat="45.09399" lon="5.55657">
        <ele>981.44</ele>
        <time>2024-01-30T06:38:52Z</time>
      </trkpt>
      <trkpt lat="45.09274" lon="5.55628">
        <ele>978.61</ele>
        <time>2024-01-30T06:39:15Z</time>
      </trkpt>
      <trkpt lat="45.09269" lon="5.55621">
        <ele>978.18</ele>
        <time>2024-01-30T06:39:16Z</time>
      </trkpt>
      <trkpt lat="45.09261" lon="5.55626">
        <ele>978.02</ele>
        <time>2024-01-30T06:39:18Z</time>
      </trkpt>
      <trkpt lat="45.09252" lon="5.5564">
        <ele>977.71</ele>
        <time>2024-01-30T06:39:21Z</time>
      </trkpt>
      <trkpt lat="45.09221" lon="5.55673">
        <ele>977.51</ele>
        <time>2024-01-30T06:39:28Z</time>
      </trkpt>
      <trkpt lat="45.09201" lon="5.55692">
        <ele>977.8</ele>
        <time>2024-01-30T06:39:32Z</time>
      </trkpt>
      <trkpt lat="45.09174" lon="5.55711">
        <ele>978.74</ele>
        <time>2024-01-30T06:39:38Z</time>
      </trkpt>
      <trkpt lat="45.09161" lon="5.55723">
        <ele>978.94</ele>
        <time>2024-01-30T06:39:41Z</time>
      </trkpt>
      <trkpt lat="45.09152" lon="5.55736">
        <ele>979.28</ele>
        <time>2024-01-30T06:39:44Z</time>
      </trkpt>
      <trkpt lat="45.09094" lon="5.5571">
        <ele>979.12</ele>
        <time>2024-01-30T06:39:57Z</time>
      </trkpt>
      <trkpt lat="45.09068" lon="5.55705">
        <ele>979.29</ele>
        <time>2024-01-30T06:40:02Z</time>
      </trkpt>
      <trkpt lat="45.09055" lon="5.55709">
        <ele>979.59</ele>
        <time>2024-01-30T06:40:05Z</time>
      </trkpt>
      <trkpt lat="45.0902" lon="5.55734">
        <ele>981.07</ele>
        <time>2024-01-30T06:40:14Z</time>
      </trkpt>
      <trkpt lat="45.0901" lon="5.55735">
        <ele>981.23</ele>
        <time>2024-01-30T06:40:16Z</time>
      </trkpt>
      <trkpt lat="45.08999" lon="5.55732">
        <ele>981.17</ele>
        <time>2024-01-30T06:40:18Z</time>
      </trkpt>
      <trkpt lat="45.08958" lon="5.55699">
        <ele>981.97</ele>
        <time>2024-01-30T06:40:30Z</time>
      </trkpt>
      <trkpt lat="45.0892" lon="5.55669">
        <ele>981.76</ele>
        <time>2024-01-30T06:40:41Z</time>
      </trkpt>
      <trkpt lat="45.08908" lon="5.55711">
        <ele>983.51</ele>
        <time>2024-01-30T06:40:50Z</time>
      </trkpt>
      <trkpt lat="45.08906" lon="5.55747">
        <ele>983.91</ele>
        <time>2024-01-30T06:40:56Z</time>
      </trkpt>
      <trkpt lat="45.089" lon="5.55746">
        <ele>984.07</ele>
        <time>2024-01-30T06:40:58Z</time>
      </trkpt>
      <trkpt lat="45.08863" lon="5.55752">
        <ele>984.01</ele>
        <time>2024-01-30T06:41:06Z</time>
      </trkpt>
      <trkpt lat="45.08847" lon="5.55751">
        <ele>983.26</ele>
        <time>2024-01-30T06:41:10Z</time>
      </trkpt>
      <trkpt lat="45.08825" lon="5.55738">
        <ele>982.14</ele>
        <time>2024-01-30T06:41:15Z</time>
      </trkpt>
      <trkpt lat="45.08807" lon="5.55725">
        <ele>982.27</ele>
        <time>2024-01-30T06:41:19Z</time>
      </trkpt>
      <trkpt lat="45.08786" lon="5.5571">
        <ele>982.39</ele>
        <time>2024-01-30T06:41:23Z</time>
      </trkpt>
      <trkpt lat="45.08773" lon="5.55704">
        <ele>982.83</ele>
        <time>2024-01-30T06:41:26Z</time>
      </trkpt>
      <trkpt lat="45.08754" lon="5.55706">
        <ele>983.34</ele>
        <time>2024-01-30T06:41:29Z</time>
      </trkpt>
      <trkpt lat="45.08731" lon="5.55707">
        <ele>984.32</ele>
        <time>2024-01-30T06:41:33Z</time>
      </trkpt>
      <trkpt lat="45.08712" lon="5.55695">
        <ele>984.14</ele>
        <time>2024-01-30T06:41:36Z</time>
      </trkpt>
      <trkpt lat="45.08646" lon="5.55655">
        <ele>982.41</ele>
        <time>2024-01-30T06:41:47Z</time>
      </trkpt>
      <trkpt lat="45.08611" lon="5.55633">
        <ele>982.02</ele>
        <time>2024-01-30T06:41:53Z</time>
      </trkpt>
      <trkpt lat="45.08627" lon="5.55509">
        <ele>979.62</ele>
        <time>2024-01-30T06:42:06Z</time>
      </trkpt>
      <trkpt lat="45.08631" lon="5.5549">
        <ele>979.57</ele>
        <time>2024-01-30T06:42:08Z</time>
      </trkpt>
      <trkpt lat="45.08628" lon="5.55485">
        <ele>979.47</ele>
        <time>2024-01-30T06:42:09Z</time>
      </trkpt>
      <trkpt lat="45.08579" lon="5.55474">
        <ele>978.95</ele>
        <time>2024-01-30T06:42:16Z</time>
      </trkpt>
      <trkpt lat="45.08546" lon="5.55479">
        <ele>978.8</ele>
        <time>2024-01-30T06:42:21Z</time>
      </trkpt>
      <trkpt lat="45.0852" lon="5.55484">
        <ele>978.42</ele>
        <time>2024-01-30T06:42:25Z</time>
      </trkpt>
      <trkpt lat="45.08516" lon="5.55438">
        <ele>976.65</ele>
        <time>2024-01-30T06:42:30Z</time>
      </trkpt>
      <trkpt lat="45.08515" lon="5.55428">
        <ele>976.4</ele>
        <time>2024-01-30T06:42:31Z</time>
      </trkpt>
      <trkpt lat="45.08518" lon="5.55414">
        <ele>976.21</ele>
        <time>2024-01-30T06:42:32Z</time>
      </trkpt>
      <trkpt lat="45.0852" lon="5.55408">
        <ele>976.18</ele>
        <time>2024-01-30T06:42:33Z</time>
      </trkpt>
      <trkpt lat="45.08524" lon="5.55388">
        <ele>975.81</ele>
        <time>2024-01-30T06:42:35Z</time>
      </trkpt>
      <trkpt lat="45.08528" lon="5.55343">
        <ele>974.87</ele>
        <time>2024-01-30T06:42:40Z</time>
      </trkpt>
      <trkpt lat="45.0853" lon="5.55286">
        <ele>974.18</ele>
        <time>2024-01-30T06:42:46Z</time>
      </trkpt>
      <trkpt lat="45.08514" lon="5.55232">
        <ele>971.69</ele>
        <time>2024-01-30T06:42:52Z</time>
      </trkpt>
      <trkpt lat="45.0851" lon="5.55174">
        <ele>969.47</ele>
        <time>2024-01-30T06:42:58Z</time>
      </trkpt>
      <trkpt lat="45.08504" lon="5.55109">
        <ele>969.11</ele>
        <time>2024-01-30T06:43:05Z</time>
      </trkpt>
      <trkpt lat="45.08503" lon="5.55096">
        <ele>969.65</ele>
        <time>2024-01-30T06:43:06Z</time>
      </trkpt>
      <trkpt lat="45.08503" lon="5.55086">
        <ele>970.22</ele>
        <time>2024-01-30T06:43:07Z</time>
      </trkpt>
      <trkpt lat="45.08487" lon="5.5508">
        <ele>970.84</ele>
        <time>2024-01-30T06:43:10Z</time>
      </trkpt>
      <trkpt lat="45.08468" lon="5.55077">
        <ele>970.64</ele>
        <time>2024-01-30T06:43:13Z</time>
      </trkpt>
      <trkpt lat="45.08427" lon="5.55079">
        <ele>969.96</ele>
        <time>2024-01-30T06:43:21Z</time>
      </trkpt>
      <trkpt lat="45.0838" lon="5.55063">
        <ele>970.55</ele>
        <time>2024-01-30T06:43:30Z</time>
      </trkpt>
      <trkpt lat="45.08344" lon="5.5506">
        <ele>969.86</ele>
        <time>2024-01-30T06:43:36Z</time>
      </trkpt>
      <trkpt lat="45.08322" lon="5.55053">
        <ele>969.77</ele>
        <time>2024-01-30T06:43:41Z</time>
      </trkpt>
      <trkpt lat="45.08283" lon="5.55027">
        <ele>969.26</ele>
        <time>2024-01-30T06:43:49Z</time>
      </trkpt>
      <trkpt lat="45.08212" lon="5.54998">
        <ele>969.1</ele>
        <time>2024-01-30T06:44:06Z</time>
      </trkpt>
      <trkpt lat="45.08147" lon="5.54957">
        <ele>973.45</ele>
        <time>2024-01-30T06:44:24Z</time>
      </trkpt>
      <trkpt lat="45.08083" lon="5.549">
        <ele>971.86</ele>
        <time>2024-01-30T06:44:41Z</time>
      </trkpt>
      <trkpt lat="45.08036" lon="5.54878">
        <ele>971.1</ele>
        <time>2024-01-30T06:44:51Z</time>
      </trkpt>
      <trkpt lat="45.07965" lon="5.54861">
        <ele>971.56</ele>
        <time>2024-01-30T06:45:04Z</time>
      </trkpt>
      <trkpt lat="45.07945" lon="5.54859">
        <ele>971.02</ele>
        <time>2024-01-30T06:45:08Z</time>
      </trkpt>
      <trkpt lat="45.07887" lon="5.54861">
        <ele>972.43</ele>
        <time>2024-01-30T06:45:18Z</time>
      </trkpt>
      <trkpt lat="45.07852" lon="5.54851">
        <ele>973.3</ele>
        <time>2024-01-30T06:45:24Z</time>
      </trkpt>
      <trkpt lat="45.07755" lon="5.54813">
        <ele>972.7</ele>
        <time>2024-01-30T06:45:42Z</time>
      </trkpt>
      <trkpt lat="45.07638" lon="5.54755">
        <ele>970.4</ele>
        <time>2024-01-30T06:46:04Z</time>
      </trkpt>
      <trkpt lat="45.07587" lon="5.54727">
        <ele>971.06</ele>
        <time>2024-01-30T06:46:14Z</time>
      </trkpt>
      <trkpt lat="45.07552" lon="5.54714">
        <ele>968.77</ele>
        <time>2024-01-30T06:46:20Z</time>
      </trkpt>
      <trkpt lat="45.07525" lon="5.54706">
        <ele>966.2</ele>
        <time>2024-01-30T06:46:25Z</time>
      </trkpt>
      <trkpt lat="45.07495" lon="5.54692">
        <ele>964.27</ele>
        <time>2024-01-30T06:46:30Z</time>
      </trkpt>
      <trkpt lat="45.07452" lon="5.54666">
        <ele>962.97</ele>
        <time>2024-01-30T06:46:40Z</time>
      </trkpt>
      <trkpt lat="45.07408" lon="5.54628">
        <ele>961.65</ele>
        <time>2024-01-30T06:46:55Z</time>
      </trkpt>
      <trkpt lat="45.07406" lon="5.54632">
        <ele>959.96</ele>
        <time>2024-01-30T06:46:57Z</time>
      </trkpt>
      <trkpt lat="45.07393" lon="5.54644">
        <ele>957.35</ele>
        <time>2024-01-30T06:47:05Z</time>
      </trkpt>
      <trkpt lat="45.07389" lon="5.54647">
        <ele>957.36</ele>
        <time>2024-01-30T06:47:07Z</time>
      </trkpt>
      <trkpt lat="45.07389" lon="5.54675">
        <ele>957.81</ele>
        <time>2024-01-30T06:47:16Z</time>
      </trkpt>
      <trkpt lat="45.07385" lon="5.54689">
        <ele>958.37</ele>
        <time>2024-01-30T06:47:22Z</time>
      </trkpt>
      <trkpt lat="45.0738" lon="5.54729">
        <ele>960.06</ele>
        <time>2024-01-30T06:47:36Z</time>
      </trkpt>
      <trkpt lat="45.07384" lon="5.54769">
        <ele>961.57</ele>
        <time>2024-01-30T06:47:51Z</time>
      </trkpt>
      <trkpt lat="45.07379" lon="5.54783">
        <ele>962.74</ele>
        <time>2024-01-30T06:47:57Z</time>
      </trkpt>
      <trkpt lat="45.07374" lon="5.54785">
        <ele>963.37</ele>
        <time>2024-01-30T06:48:00Z</time>
      </trkpt>
      <trkpt lat="45.07383" lon="5.54816">
        <ele>965.66</ele>
        <time>2024-01-30T06:48:10Z</time>
      </trkpt>
      <trkpt lat="45.07374" lon="5.54824">
        <ele>967.23</ele>
        <time>2024-01-30T06:48:16Z</time>
      </trkpt>
      <trkpt lat="45.07368" lon="5.54822">
        <ele>967.59</ele>
        <time>2024-01-30T06:48:19Z</time>
      </trkpt>
      <trkpt lat="45.07324" lon="5.54779">
        <ele>966.19</ele>
        <time>2024-01-30T06:48:46Z</time>
      </trkpt>
      <trkpt lat="45.07299" lon="5.54766">
        <ele>967.02</ele>
        <time>2024-01-30T06:48:59Z</time>
      </trkpt>
      <trkpt lat="45.07263" lon="5.54765">
        <ele>970.97</ele>
        <time>2024-01-30T06:49:13Z</time>
      </trkpt>
      <trkpt lat="45.07235" lon="5.54775">
        <ele>976.69</ele>
        <time>2024-01-30T06:49:24Z</time>
      </trkpt>
      <trkpt lat="45.07207" lon="5.5477">
        <ele>978.06</ele>
        <time>2024-01-30T06:49:31Z</time>
      </trkpt>
      <trkpt lat="45.07183" lon="5.54758">
        <ele>978.44</ele>
        <time>2024-01-30T06:49:37Z</time>
      </trkpt>
      <trkpt lat="45.07137" lon="5.54734">
        <ele>978.54</ele>
        <time>2024-01-30T06:49:49Z</time>
      </trkpt>
      <trkpt lat="45.07091" lon="5.54718">
        <ele>978.87</ele>
        <time>2024-01-30T06:49:57Z</time>
      </trkpt>
      <trkpt lat="45.07052" lon="5.54698">
        <ele>977.19</ele>
        <time>2024-01-30T06:50:03Z</time>
      </trkpt>
      <trkpt lat="45.06977" lon="5.54693">
        <ele>978.31</ele>
        <time>2024-01-30T06:50:14Z</time>
      </trkpt>
      <trkpt lat="45.06915" lon="5.54691">
        <ele>976.28</ele>
        <time>2024-01-30T06:50:24Z</time>
      </trkpt>
      <trkpt lat="45.06905" lon="5.54694">
        <ele>975.76</ele>
        <time>2024-01-30T06:50:26Z</time>
      </trkpt>
      <trkpt lat="45.06893" lon="5.547">
        <ele>976.04</ele>
        <time>2024-01-30T06:50:28Z</time>
      </trkpt>
      <trkpt lat="45.06879" lon="5.54721">
        <ele>977.28</ele>
        <time>2024-01-30T06:50:32Z</time>
      </trkpt>
      <trkpt lat="45.06856" lon="5.54761">
        <ele>978.63</ele>
        <time>2024-01-30T06:50:39Z</time>
      </trkpt>
      <trkpt lat="45.06835" lon="5.54798">
        <ele>979.88</ele>
        <time>2024-01-30T06:50:46Z</time>
      </trkpt>
      <trkpt lat="45.06811" lon="5.54842">
        <ele>980.62</ele>
        <time>2024-01-30T06:50:56Z</time>
      </trkpt>
      <trkpt lat="45.06807" lon="5.54846">
        <ele>980.5</ele>
        <time>2024-01-30T06:50:57Z</time>
      </trkpt>
      <trkpt lat="45.06804" lon="5.54845">
        <ele>980.23</ele>
        <time>2024-01-30T06:50:58Z</time>
      </trkpt>
      <trkpt lat="45.06798" lon="5.54841">
        <ele>979.87</ele>
        <time>2024-01-30T06:51:00Z</time>
      </trkpt>
      <trkpt lat="45.06796" lon="5.54838">
        <ele>979.69</ele>
        <time>2024-01-30T06:51:01Z</time>
      </trkpt>
      <trkpt lat="45.06758" lon="5.54773">
        <ele>979.88</ele>
        <time>2024-01-30T06:51:20Z</time>
      </trkpt>
      <trkpt lat="45.06755" lon="5.54773">
        <ele>979.88</ele>
        <time>2024-01-30T06:51:22Z</time>
      </trkpt>
      <trkpt lat="45.0675" lon="5.54774">
        <ele>980.62</ele>
        <time>2024-01-30T06:51:23Z</time>
      </trkpt>
      <trkpt lat="45.06749" lon="5.54769">
        <ele>980.47</ele>
        <time>2024-01-30T06:51:24Z</time>
      </trkpt>
      <trkpt lat="45.06728" lon="5.54772">
        <ele>982.46</ele>
        <time>2024-01-30T06:51:31Z</time>
      </trkpt>
      <trkpt lat="45.06696" lon="5.54782">
        <ele>985.72</ele>
        <time>2024-01-30T06:51:42Z</time>
      </trkpt>
      <trkpt lat="45.06695" lon="5.54779">
        <ele>985.35</ele>
        <time>2024-01-30T06:51:42Z</time>
      </trkpt>
      <trkpt lat="45.06695" lon="5.54775">
        <ele>985.28</ele>
        <time>2024-01-30T06:51:43Z</time>
      </trkpt>
      <trkpt lat="45.06618" lon="5.54803">
        <ele>993.4</ele>
        <time>2024-01-30T06:52:09Z</time>
      </trkpt>
      <trkpt lat="45.06526" lon="5.54834">
        <ele>996.05</ele>
        <time>2024-01-30T06:52:37Z</time>
      </trkpt>
      <trkpt lat="45.06495" lon="5.54838">
        <ele>995.11</ele>
        <time>2024-01-30T06:52:44Z</time>
      </trkpt>
      <trkpt lat="45.06349" lon="5.54815">
        <ele>989.5</ele>
        <time>2024-01-30T06:53:10Z</time>
      </trkpt>
      <trkpt lat="45.06225" lon="5.54794">
        <ele>989.53</ele>
        <time>2024-01-30T06:53:30Z</time>
      </trkpt>
      <trkpt lat="45.06206" lon="5.54783">
        <ele>988.59</ele>
        <time>2024-01-30T06:53:33Z</time>
      </trkpt>
      <trkpt lat="45.06189" lon="5.5477">
        <ele>987.77</ele>
        <time>2024-01-30T06:53:36Z</time>
      </trkpt>
      <trkpt lat="45.06187" lon="5.54762">
        <ele>987.29</ele>
        <time>2024-01-30T06:53:38Z</time>
      </trkpt>
      <trkpt lat="45.06183" lon="5.54761">
        <ele>987.27</ele>
        <time>2024-01-30T06:53:38Z</time>
      </trkpt>
      <trkpt lat="45.06184" lon="5.54758">
        <ele>987.27</ele>
        <time>2024-01-30T06:53:39Z</time>
      </trkpt>
      <trkpt lat="45.06187" lon="5.5475">
        <ele>986.91</ele>
        <time>2024-01-30T06:53:40Z</time>
      </trkpt>
      <trkpt lat="45.06189" lon="5.54746">
        <ele>986.7</ele>
        <time>2024-01-30T06:53:40Z</time>
      </trkpt>
      <trkpt lat="45.06197" lon="5.54737">
        <ele>986.32</ele>
        <time>2024-01-30T06:53:42Z</time>
      </trkpt>
      <trkpt lat="45.06197" lon="5.54694">
        <ele>987.88</ele>
        <time>2024-01-30T06:53:46Z</time>
      </trkpt>
      <trkpt lat="45.06189" lon="5.54695">
        <ele>987.86</ele>
        <time>2024-01-30T06:53:48Z</time>
      </trkpt>
      <trkpt lat="45.0616" lon="5.54689">
        <ele>987.99</ele>
        <time>2024-01-30T06:53:53Z</time>
      </trkpt>
      <trkpt lat="45.06135" lon="5.54677">
        <ele>988.66</ele>
        <time>2024-01-30T06:53:58Z</time>
      </trkpt>
      <trkpt lat="45.06111" lon="5.54665">
        <ele>989.51</ele>
        <time>2024-01-30T06:54:03Z</time>
      </trkpt>
      <trkpt lat="45.06096" lon="5.54658">
        <ele>990.13</ele>
        <time>2024-01-30T06:54:07Z</time>
      </trkpt>
      <trkpt lat="45.06054" lon="5.54632">
        <ele>991.99</ele>
        <time>2024-01-30T06:54:20Z</time>
      </trkpt>
      <trkpt lat="45.0602" lon="5.54606">
        <ele>992.96</ele>
        <time>2024-01-30T06:54:32Z</time>
      </trkpt>
      <trkpt lat="45.05967" lon="5.54562">
        <ele>993.23</ele>
        <time>2024-01-30T06:54:54Z</time>
      </trkpt>
      <trkpt lat="45.05955" lon="5.54556">
        <ele>993.14</ele>
        <time>2024-01-30T06:54:58Z</time>
      </trkpt>
      <trkpt lat="45.05916" lon="5.54535">
        <ele>994.53</ele>
        <time>2024-01-30T06:55:13Z</time>
      </trkpt>
      <trkpt lat="45.05884" lon="5.54527">
        <ele>995.01</ele>
        <time>2024-01-30T06:55:26Z</time>
      </trkpt>
      <trkpt lat="45.05863" lon="5.54514">
        <ele>996.67</ele>
        <time>2024-01-30T06:55:35Z</time>
      </trkpt>
      <trkpt lat="45.05858" lon="5.54509">
        <ele>997.89</ele>
        <time>2024-01-30T06:55:38Z</time>
      </trkpt>
      <trkpt lat="45.05841" lon="5.54487">
        <ele>1001.12</ele>
        <time>2024-01-30T06:55:48Z</time>
      </trkpt>
      <trkpt lat="45.05827" lon="5.5448">
        <ele>1001.64</ele>
        <time>2024-01-30T06:55:54Z</time>
      </trkpt>
      <trkpt lat="45.05817" lon="5.54482">
        <ele>1001.67</ele>
        <time>2024-01-30T06:55:59Z</time>
      </trkpt>
      <trkpt lat="45.05766" lon="5.54514">
        <ele>996.36</ele>
        <time>2024-01-30T06:56:26Z</time>
      </trkpt>
      <trkpt lat="45.05741" lon="5.5452">
        <ele>997.19</ele>
        <time>2024-01-30T06:56:38Z</time>
      </trkpt>
      <trkpt lat="45.05712" lon="5.54516">
        <ele>998.96</ele>
        <time>2024-01-30T06:56:53Z</time>
      </trkpt>
      <trkpt lat="45.05672" lon="5.54506">
        <ele>1000.98</ele>
        <time>2024-01-30T06:57:11Z</time>
      </trkpt>
      <trkpt lat="45.05668" lon="5.54506">
        <ele>1001.13</ele>
        <time>2024-01-30T06:57:13Z</time>
      </trkpt>
      <trkpt lat="45.0565" lon="5.54507">
        <ele>1001.72</ele>
        <time>2024-01-30T06:57:22Z</time>
      </trkpt>
      <trkpt lat="45.05546" lon="5.54529">
        <ele>1010.41</ele>
        <time>2024-01-30T06:57:58Z</time>
      </trkpt>
      <trkpt lat="45.05499" lon="5.5452">
        <ele>1003.66</ele>
        <time>2024-01-30T06:58:08Z</time>
      </trkpt>
      <trkpt lat="45.05463" lon="5.54507">
        <ele>1005.98</ele>
        <time>2024-01-30T06:58:15Z</time>
      </trkpt>
      <trkpt lat="45.05439" lon="5.54505">
        <ele>1007.03</ele>
        <time>2024-01-30T06:58:19Z</time>
      </trkpt>
      <trkpt lat="45.05395" lon="5.54509">
        <ele>1006.37</ele>
        <time>2024-01-30T06:58:27Z</time>
      </trkpt>
      <trkpt lat="45.05356" lon="5.54505">
        <ele>1006.43</ele>
        <time>2024-01-30T06:58:33Z</time>
      </trkpt>
      <trkpt lat="45.05344" lon="5.545">
        <ele>1006.66</ele>
        <time>2024-01-30T06:58:35Z</time>
      </trkpt>
      <trkpt lat="45.05291" lon="5.54462">
        <ele>1007.6</ele>
        <time>2024-01-30T06:58:47Z</time>
      </trkpt>
      <trkpt lat="45.05232" lon="5.54427">
        <ele>1009.86</ele>
        <time>2024-01-30T06:59:00Z</time>
      </trkpt>
      <trkpt lat="45.05194" lon="5.54413">
        <ele>1010.17</ele>
        <time>2024-01-30T06:59:09Z</time>
      </trkpt>
      <trkpt lat="45.05137" lon="5.54403">
        <ele>1011.97</ele>
        <time>2024-01-30T06:59:23Z</time>
      </trkpt>
      <trkpt lat="45.05125" lon="5.54397">
        <ele>1012.94</ele>
        <time>2024-01-30T06:59:26Z</time>
      </trkpt>
      <trkpt lat="45.05099" lon="5.54371">
        <ele>1014.98</ele>
        <time>2024-01-30T06:59:35Z</time>
      </trkpt>
      <trkpt lat="45.05052" lon="5.54335">
        <ele>1016.6</ele>
        <time>2024-01-30T06:59:52Z</time>
      </trkpt>
      <trkpt lat="45.05032" lon="5.54323">
        <ele>1017.4</ele>
        <time>2024-01-30T06:59:59Z</time>
      </trkpt>
      <trkpt lat="45.05014" lon="5.54317">
        <ele>1016.96</ele>
        <time>2024-01-30T07:00:06Z</time>
      </trkpt>
      <trkpt lat="45.04996" lon="5.54313">
        <ele>1016.97</ele>
        <time>2024-01-30T07:00:13Z</time>
      </trkpt>
      <trkpt lat="45.04953" lon="5.54311">
        <ele>1017.75</ele>
        <time>2024-01-30T07:00:32Z</time>
      </trkpt>
      <trkpt lat="45.04925" lon="5.5431">
        <ele>1018.47</ele>
        <time>2024-01-30T07:00:44Z</time>
      </trkpt>
      <trkpt lat="45.04896" lon="5.54307">
        <ele>1020.9</ele>
        <time>2024-01-30T07:00:56Z</time>
      </trkpt>
      <trkpt lat="45.04883" lon="5.54309">
        <ele>1021.36</ele>
        <time>2024-01-30T07:01:02Z</time>
      </trkpt>
      <trkpt lat="45.04842" lon="5.54318">
        <ele>1022.14</ele>
        <time>2024-01-30T07:01:20Z</time>
      </trkpt>
      <trkpt lat="45.04816" lon="5.54318">
        <ele>1023.55</ele>
        <time>2024-01-30T07:01:29Z</time>
      </trkpt>
      <trkpt lat="45.04695" lon="5.54337">
        <ele>1025.09</ele>
        <time>2024-01-30T07:02:01Z</time>
      </trkpt>
      <trkpt lat="45.04644" lon="5.54325">
        <ele>1027.76</ele>
        <time>2024-01-30T07:02:10Z</time>
      </trkpt>
      <trkpt lat="45.04611" lon="5.54313">
        <ele>1029.3</ele>
        <time>2024-01-30T07:02:17Z</time>
      </trkpt>
      <trkpt lat="45.04583" lon="5.54293">
        <ele>1031.85</ele>
        <time>2024-01-30T07:02:23Z</time>
      </trkpt>
      <trkpt lat="45.04559" lon="5.54272">
        <ele>1033.5</ele>
        <time>2024-01-30T07:02:30Z</time>
      </trkpt>
      <trkpt lat="45.04455" lon="5.54164">
        <ele>1037.43</ele>
        <time>2024-01-30T07:03:16Z</time>
      </trkpt>
      <trkpt lat="45.04343" lon="5.54029">
        <ele>1041.3</ele>
        <time>2024-01-30T07:04:36Z</time>
      </trkpt>
      <trkpt lat="45.04329" lon="5.54006">
        <ele>1042.12</ele>
        <time>2024-01-30T07:04:49Z</time>
      </trkpt>
      <trkpt lat="45.04303" lon="5.53959">
        <ele>1045.77</ele>
        <time>2024-01-30T07:05:12Z</time>
      </trkpt>
      <trkpt lat="45.04296" lon="5.5395">
        <ele>1046.9</ele>
        <time>2024-01-30T07:05:17Z</time>
      </trkpt>
      <trkpt lat="45.0424" lon="5.53882">
        <ele>1053.89</ele>
        <time>2024-01-30T07:05:59Z</time>
      </trkpt>
      <trkpt lat="45.04199" lon="5.53825">
        <ele>1057.81</ele>
        <time>2024-01-30T07:06:29Z</time>
      </trkpt>
      <trkpt lat="45.04166" lon="5.53811">
        <ele>1060.5</ele>
        <time>2024-01-30T07:06:45Z</time>
      </trkpt>
      <trkpt lat="45.04131" lon="5.53801">
        <ele>1063.89</ele>
        <time>2024-01-30T07:07:02Z</time>
      </trkpt>
      <trkpt lat="45.0411" lon="5.53792">
        <ele>1065.15</ele>
        <time>2024-01-30T07:07:11Z</time>
      </trkpt>
      <trkpt lat="45.03981" lon="5.53708">
        <ele>1076.63</ele>
        <time>2024-01-30T07:08:02Z</time>
      </trkpt>
      <trkpt lat="45.03918" lon="5.53637">
        <ele>1075.06</ele>
        <time>2024-01-30T07:08:24Z</time>
      </trkpt>
      <trkpt lat="45.03845" lon="5.53563">
        <ele>1077.01</ele>
        <time>2024-01-30T07:08:50Z</time>
      </trkpt>
      <trkpt lat="45.0383" lon="5.53553">
        <ele>1077.24</ele>
        <time>2024-01-30T07:08:55Z</time>
      </trkpt>
      <trkpt lat="45.03794" lon="5.5354">
        <ele>1079.47</ele>
        <time>2024-01-30T07:09:05Z</time>
      </trkpt>
      <trkpt lat="45.03757" lon="5.53517">
        <ele>1082.18</ele>
        <time>2024-01-30T07:09:16Z</time>
      </trkpt>
      <trkpt lat="45.03711" lon="5.53472">
        <ele>1084.3</ele>
        <time>2024-01-30T07:09:29Z</time>
      </trkpt>
      <trkpt lat="45.03675" lon="5.53429">
        <ele>1087.21</ele>
        <time>2024-01-30T07:09:41Z</time>
      </trkpt>
      <trkpt lat="45.03657" lon="5.53409">
        <ele>1087.36</ele>
        <time>2024-01-30T07:09:47Z</time>
      </trkpt>
      <trkpt lat="45.03631" lon="5.53392">
        <ele>1087.27</ele>
        <time>2024-01-30T07:09:55Z</time>
      </trkpt>
      <trkpt lat="45.03581" lon="5.53373">
        <ele>1087.26</ele>
        <time>2024-01-30T07:10:07Z</time>
      </trkpt>
      <trkpt lat="45.03483" lon="5.53349">
        <ele>1089.19</ele>
        <time>2024-01-30T07:10:30Z</time>
      </trkpt>
      <trkpt lat="45.03461" lon="5.53334">
        <ele>1089.64</ele>
        <time>2024-01-30T07:10:35Z</time>
      </trkpt>
      <trkpt lat="45.03415" lon="5.533">
        <ele>1090.51</ele>
        <time>2024-01-30T07:10:43Z</time>
      </trkpt>
      <trkpt lat="45.03399" lon="5.53284">
        <ele>1090.61</ele>
        <time>2024-01-30T07:10:46Z</time>
      </trkpt>
      <trkpt lat="45.03378" lon="5.53253">
        <ele>1090.69</ele>
        <time>2024-01-30T07:10:50Z</time>
      </trkpt>
      <trkpt lat="45.03357" lon="5.53212">
        <ele>1091.64</ele>
        <time>2024-01-30T07:10:55Z</time>
      </trkpt>
      <trkpt lat="45.03344" lon="5.53169">
        <ele>1091.54</ele>
        <time>2024-01-30T07:10:59Z</time>
      </trkpt>
      <trkpt lat="45.03335" lon="5.5312">
        <ele>1091.46</ele>
        <time>2024-01-30T07:11:04Z</time>
      </trkpt>
      <trkpt lat="45.03328" lon="5.53073">
        <ele>1091.5</ele>
        <time>2024-01-30T07:11:09Z</time>
      </trkpt>
      <trkpt lat="45.03328" lon="5.5307">
        <ele>1091.48</ele>
        <time>2024-01-30T07:11:09Z</time>
      </trkpt>
      <trkpt lat="45.03325" lon="5.53023">
        <ele>1092.65</ele>
        <time>2024-01-30T07:11:14Z</time>
      </trkpt>
      <trkpt lat="45.03328" lon="5.5297">
        <ele>1095.08</ele>
        <time>2024-01-30T07:11:19Z</time>
      </trkpt>
      <trkpt lat="45.03328" lon="5.52944">
        <ele>1095.2</ele>
        <time>2024-01-30T07:11:22Z</time>
      </trkpt>
      <trkpt lat="45.03315" lon="5.52826">
        <ele>1097.29</ele>
        <time>2024-01-30T07:11:41Z</time>
      </trkpt>
      <trkpt lat="45.03311" lon="5.528">
        <ele>1098.14</ele>
        <time>2024-01-30T07:11:46Z</time>
      </trkpt>
      <trkpt lat="45.03305" lon="5.5278">
        <ele>1099.04</ele>
        <time>2024-01-30T07:11:50Z</time>
      </trkpt>
      <trkpt lat="45.03288" lon="5.52754">
        <ele>1099.62</ele>
        <time>2024-01-30T07:11:56Z</time>
      </trkpt>
      <trkpt lat="45.03281" lon="5.52748">
        <ele>1099.73</ele>
        <time>2024-01-30T07:11:58Z</time>
      </trkpt>
      <trkpt lat="45.03272" lon="5.52743">
        <ele>1100.21</ele>
        <time>2024-01-30T07:12:01Z</time>
      </trkpt>
      <trkpt lat="45.03261" lon="5.52742">
        <ele>1101.66</ele>
        <time>2024-01-30T07:12:04Z</time>
      </trkpt>
      <trkpt lat="45.03254" lon="5.52741">
        <ele>1102.11</ele>
        <time>2024-01-30T07:12:06Z</time>
      </trkpt>
      <trkpt lat="45.03229" lon="5.5274">
        <ele>1103.65</ele>
        <time>2024-01-30T07:12:13Z</time>
      </trkpt>
      <trkpt lat="45.03213" lon="5.52736">
        <ele>1103.86</ele>
        <time>2024-01-30T07:12:17Z</time>
      </trkpt>
      <trkpt lat="45.03189" lon="5.52727">
        <ele>1103.43</ele>
        <time>2024-01-30T07:12:23Z</time>
      </trkpt>
      <trkpt lat="45.03185" lon="5.52723">
        <ele>1103.13</ele>
        <time>2024-01-30T07:12:25Z</time>
      </trkpt>
      <trkpt lat="45.03183" lon="5.52722">
        <ele>1103.15</ele>
        <time>2024-01-30T07:12:25Z</time>
      </trkpt>
      <trkpt lat="45.03179" lon="5.52718">
        <ele>1102.89</ele>
        <time>2024-01-30T07:12:27Z</time>
      </trkpt>
      <trkpt lat="45.03165" lon="5.52704">
        <ele>1102.45</ele>
        <time>2024-01-30T07:12:31Z</time>
      </trkpt>
      <trkpt lat="45.03164" lon="5.52703">
        <ele>1102.45</ele>
        <time>2024-01-30T07:12:31Z</time>
      </trkpt>
      <trkpt lat="45.03157" lon="5.52692">
        <ele>1102.44</ele>
        <time>2024-01-30T07:12:34Z</time>
      </trkpt>
      <trkpt lat="45.03148" lon="5.52682">
        <ele>1102.78</ele>
        <time>2024-01-30T07:12:37Z</time>
      </trkpt>
      <trkpt lat="45.03131" lon="5.52668">
        <ele>1103.62</ele>
        <time>2024-01-30T07:12:41Z</time>
      </trkpt>
      <trkpt lat="45.03118" lon="5.5266">
        <ele>1104.24</ele>
        <time>2024-01-30T07:12:45Z</time>
      </trkpt>
      <trkpt lat="45.03083" lon="5.52638">
        <ele>1106.06</ele>
        <time>2024-01-30T07:12:55Z</time>
      </trkpt>
      <trkpt lat="45.03064" lon="5.52625">
        <ele>1106.55</ele>
        <time>2024-01-30T07:13:00Z</time>
      </trkpt>
      <trkpt lat="45.03036" lon="5.52602">
        <ele>1106.26</ele>
        <time>2024-01-30T07:13:09Z</time>
      </trkpt>
      <trkpt lat="45.0302" lon="5.52586">
        <ele>1105.87</ele>
        <time>2024-01-30T07:13:15Z</time>
      </trkpt>
      <trkpt lat="45.03011" lon="5.52572">
        <ele>1105.63</ele>
        <time>2024-01-30T07:13:19Z</time>
      </trkpt>
      <trkpt lat="45.02969" lon="5.52506">
        <ele>1106.64</ele>
        <time>2024-01-30T07:13:39Z</time>
      </trkpt>
      <trkpt lat="45.02949" lon="5.52472">
        <ele>1108.22</ele>
        <time>2024-01-30T07:13:49Z</time>
      </trkpt>
      <trkpt lat="45.0292" lon="5.52419">
        <ele>1109.79</ele>
        <time>2024-01-30T07:14:03Z</time>
      </trkpt>
      <trkpt lat="45.02905" lon="5.52388">
        <ele>1110.41</ele>
        <time>2024-01-30T07:14:11Z</time>
      </trkpt>
      <trkpt lat="45.02903" lon="5.52384">
        <ele>1110.34</ele>
        <time>2024-01-30T07:14:12Z</time>
      </trkpt>
      <trkpt lat="45.029" lon="5.52377">
        <ele>1110.49</ele>
        <time>2024-01-30T07:14:14Z</time>
      </trkpt>
      <trkpt lat="45.02858" lon="5.5229">
        <ele>1110.93</ele>
        <time>2024-01-30T07:14:36Z</time>
      </trkpt>
      <trkpt lat="45.02798" lon="5.52188">
        <ele>1111.78</ele>
        <time>2024-01-30T07:15:03Z</time>
      </trkpt>
      <trkpt lat="45.02796" lon="5.52185">
        <ele>1111.87</ele>
        <time>2024-01-30T07:15:04Z</time>
      </trkpt>
      <trkpt lat="45.0279" lon="5.52179">
        <ele>1111.87</ele>
        <time>2024-01-30T07:15:06Z</time>
      </trkpt>
      <trkpt lat="45.02752" lon="5.52134">
        <ele>1112.86</ele>
        <time>2024-01-30T07:15:23Z</time>
      </trkpt>
      <trkpt lat="45.02751" lon="5.52132">
        <ele>1113.07</ele>
        <time>2024-01-30T07:15:24Z</time>
      </trkpt>
      <trkpt lat="45.02748" lon="5.52128">
        <ele>1113.04</ele>
        <time>2024-01-30T07:15:25Z</time>
      </trkpt>
      <trkpt lat="45.02723" lon="5.52094">
        <ele>1113.76</ele>
        <time>2024-01-30T07:15:38Z</time>
      </trkpt>
      <trkpt lat="45.02702" lon="5.5208">
        <ele>1114.94</ele>
        <time>2024-01-30T07:15:47Z</time>
      </trkpt>
      <trkpt lat="45.02667" lon="5.5207">
        <ele>1117.61</ele>
        <time>2024-01-30T07:16:02Z</time>
      </trkpt>
      <trkpt lat="45.02653" lon="5.52064">
        <ele>1118.55</ele>
        <time>2024-01-30T07:16:09Z</time>
      </trkpt>
      <trkpt lat="45.02641" lon="5.5205">
        <ele>1118.98</ele>
        <time>2024-01-30T07:16:16Z</time>
      </trkpt>
      <trkpt lat="45.0261" lon="5.51986">
        <ele>1119.39</ele>
        <time>2024-01-30T07:16:42Z</time>
      </trkpt>
      <trkpt lat="45.0257" lon="5.51906">
        <ele>1125.88</ele>
        <time>2024-01-30T07:17:15Z</time>
      </trkpt>
      <trkpt lat="45.02558" lon="5.51887">
        <ele>1127.3</ele>
        <time>2024-01-30T07:17:23Z</time>
      </trkpt>
      <trkpt lat="45.02525" lon="5.51853">
        <ele>1132.16</ele>
        <time>2024-01-30T07:17:41Z</time>
      </trkpt>
      <trkpt lat="45.02523" lon="5.51814">
        <ele>1134.31</ele>
        <time>2024-01-30T07:17:54Z</time>
      </trkpt>
      <trkpt lat="45.02523" lon="5.51805">
        <ele>1135.06</ele>
        <time>2024-01-30T07:17:57Z</time>
      </trkpt>
      <trkpt lat="45.02519" lon="5.51796">
        <ele>1135.95</ele>
        <time>2024-01-30T07:18:01Z</time>
      </trkpt>
      <trkpt lat="45.02477" lon="5.51764">
        <ele>1138.68</ele>
        <time>2024-01-30T07:18:28Z</time>
      </trkpt>
      <trkpt lat="45.02434" lon="5.51718">
        <ele>1145.42</ele>
        <time>2024-01-30T07:18:56Z</time>
      </trkpt>
      <trkpt lat="45.02393" lon="5.51714">
        <ele>1146.85</ele>
        <time>2024-01-30T07:19:14Z</time>
      </trkpt>
      <trkpt lat="45.02352" lon="5.51704">
        <ele>1148.4</ele>
        <time>2024-01-30T07:19:33Z</time>
      </trkpt>
      <trkpt lat="45.02329" lon="5.51706">
        <ele>1148.92</ele>
        <time>2024-01-30T07:19:52Z</time>
      </trkpt>
      <trkpt lat="45.02323" lon="5.51713">
        <ele>1148.25</ele>
        <time>2024-01-30T07:19:59Z</time>
      </trkpt>
      <trkpt lat="45.02331" lon="5.51728">
        <ele>1146.6</ele>
        <time>2024-01-30T07:20:05Z</time>
      </trkpt>
      <trkpt lat="45.02298" lon="5.5171">
        <ele>1149.25</ele>
        <time>2024-01-30T07:20:23Z</time>
      </trkpt>
      <trkpt lat="45.02236" lon="5.51681">
        <ele>1151.7</ele>
        <time>2024-01-30T07:20:54Z</time>
      </trkpt>
      <trkpt lat="45.02219" lon="5.51672">
        <ele>1152.4</ele>
        <time>2024-01-30T07:21:02Z</time>
      </trkpt>
      <trkpt lat="45.02205" lon="5.51658">
        <ele>1152.96</ele>
        <time>2024-01-30T07:21:10Z</time>
      </trkpt>
      <trkpt lat="45.02203" lon="5.51699">
        <ele>1153.55</ele>
        <time>2024-01-30T07:21:19Z</time>
      </trkpt>
      <trkpt lat="45.02167" lon="5.51679">
        <ele>1155.11</ele>
        <time>2024-01-30T07:21:36Z</time>
      </trkpt>
      <trkpt lat="45.02122" lon="5.51662">
        <ele>1157.08</ele>
        <time>2024-01-30T07:21:57Z</time>
      </trkpt>
      <trkpt lat="45.02111" lon="5.51653">
        <ele>1157.91</ele>
        <time>2024-01-30T07:22:03Z</time>
      </trkpt>
      <trkpt lat="45.02095" lon="5.51635">
        <ele>1158.18</ele>
        <time>2024-01-30T07:22:12Z</time>
      </trkpt>
      <trkpt lat="45.02088" lon="5.51621">
        <ele>1158.38</ele>
        <time>2024-01-30T07:22:17Z</time>
      </trkpt>
      <trkpt lat="45.02084" lon="5.51597">
        <ele>1158.87</ele>
        <time>2024-01-30T07:22:24Z</time>
      </trkpt>
      <trkpt lat="45.02078" lon="5.51584">
        <ele>1159.62</ele>
        <time>2024-01-30T07:22:28Z</time>
      </trkpt>
      <trkpt lat="45.02069" lon="5.51573">
        <ele>1160.92</ele>
        <time>2024-01-30T07:22:33Z</time>
      </trkpt>
      <trkpt lat="45.02033" lon="5.51548">
        <ele>1164.57</ele>
        <time>2024-01-30T07:22:48Z</time>
      </trkpt>
      <trkpt lat="45.02028" lon="5.51536">
        <ele>1164.98</ele>
        <time>2024-01-30T07:22:51Z</time>
      </trkpt>
      <trkpt lat="45.01988" lon="5.51481">
        <ele>1166.62</ele>
        <time>2024-01-30T07:23:11Z</time>
      </trkpt>
      <trkpt lat="45.01972" lon="5.51443">
        <ele>1166.99</ele>
        <time>2024-01-30T07:23:23Z</time>
      </trkpt>
      <trkpt lat="45.01955" lon="5.51368">
        <ele>1167.72</ele>
        <time>2024-01-30T07:23:42Z</time>
      </trkpt>
      <trkpt lat="45.01951" lon="5.51346">
        <ele>1167.75</ele>
        <time>2024-01-30T07:23:47Z</time>
      </trkpt>
      <trkpt lat="45.01951" lon="5.51326">
        <ele>1167.76</ele>
        <time>2024-01-30T07:23:52Z</time>
      </trkpt>
      <trkpt lat="45.01946" lon="5.51306">
        <ele>1167.98</ele>
        <time>2024-01-30T07:23:57Z</time>
      </trkpt>
      <trkpt lat="45.01935" lon="5.51292">
        <ele>1168.4</ele>
        <time>2024-01-30T07:24:03Z</time>
      </trkpt>
      <trkpt lat="45.01854" lon="5.51208">
        <ele>1171.99</ele>
        <time>2024-01-30T07:24:51Z</time>
      </trkpt>
      <trkpt lat="45.01847" lon="5.5119">
        <ele>1172.93</ele>
        <time>2024-01-30T07:24:59Z</time>
      </trkpt>
      <trkpt lat="45.01845" lon="5.51165">
        <ele>1174.52</ele>
        <time>2024-01-30T07:25:09Z</time>
      </trkpt>
      <trkpt lat="45.01843" lon="5.51149">
        <ele>1175.49</ele>
        <time>2024-01-30T07:25:17Z</time>
      </trkpt>
      <trkpt lat="45.01838" lon="5.51131">
        <ele>1177.15</ele>
        <time>2024-01-30T07:25:26Z</time>
      </trkpt>
      <trkpt lat="45.0183" lon="5.51116">
        <ele>1177.98</ele>
        <time>2024-01-30T07:25:35Z</time>
      </trkpt>
      <trkpt lat="45.01782" lon="5.51051">
        <ele>1185.27</ele>
        <time>2024-01-30T07:26:20Z</time>
      </trkpt>
      <trkpt lat="45.01771" lon="5.51028">
        <ele>1188.99</ele>
        <time>2024-01-30T07:26:35Z</time>
      </trkpt>
      <trkpt lat="45.01765" lon="5.50996">
        <ele>1193.29</ele>
        <time>2024-01-30T07:26:51Z</time>
      </trkpt>
      <trkpt lat="45.0175" lon="5.50956">
        <ele>1198.06</ele>
        <time>2024-01-30T07:27:13Z</time>
      </trkpt>
      <trkpt lat="45.01736" lon="5.50931">
        <ele>1200.43</ele>
        <time>2024-01-30T07:27:29Z</time>
      </trkpt>
      <trkpt lat="45.01716" lon="5.509">
        <ele>1202.73</ele>
        <time>2024-01-30T07:27:48Z</time>
      </trkpt>
      <trkpt lat="45.01696" lon="5.50884">
        <ele>1204.07</ele>
        <time>2024-01-30T07:28:03Z</time>
      </trkpt>
      <trkpt lat="45.01673" lon="5.50879">
        <ele>1204.52</ele>
        <time>2024-01-30T07:28:17Z</time>
      </trkpt>
      <trkpt lat="45.01639" lon="5.50857">
        <ele>1205.5</ele>
        <time>2024-01-30T07:28:38Z</time>
      </trkpt>
      <trkpt lat="45.01616" lon="5.5083">
        <ele>1207.29</ele>
        <time>2024-01-30T07:28:55Z</time>
      </trkpt>
      <trkpt lat="45.01558" lon="5.50798">
        <ele>1208.86</ele>
        <time>2024-01-30T07:29:29Z</time>
      </trkpt>
      <trkpt lat="45.01546" lon="5.5079">
        <ele>1209.26</ele>
        <time>2024-01-30T07:29:37Z</time>
      </trkpt>
      <trkpt lat="45.0152" lon="5.50762">
        <ele>1210.6</ele>
        <time>2024-01-30T07:29:56Z</time>
      </trkpt>
      <trkpt lat="45.01508" lon="5.50739">
        <ele>1211.72</ele>
        <time>2024-01-30T07:30:09Z</time>
      </trkpt>
      <trkpt lat="45.01482" lon="5.507">
        <ele>1214.67</ele>
        <time>2024-01-30T07:30:34Z</time>
      </trkpt>
      <trkpt lat="45.0145" lon="5.50664">
        <ele>1219.43</ele>
        <time>2024-01-30T07:31:03Z</time>
      </trkpt>
      <trkpt lat="45.01377" lon="5.50588">
        <ele>1232.06</ele>
        <time>2024-01-30T07:32:12Z</time>
      </trkpt>
      <trkpt lat="45.01348" lon="5.50563">
        <ele>1236.13</ele>
        <time>2024-01-30T07:32:38Z</time>
      </trkpt>
      <trkpt lat="45.01339" lon="5.50558">
        <ele>1236.93</ele>
        <time>2024-01-30T07:32:46Z</time>
      </trkpt>
      <trkpt lat="45.01275" lon="5.50527">
        <ele>1244.06</ele>
        <time>2024-01-30T07:33:40Z</time>
      </trkpt>
      <trkpt lat="45.01146" lon="5.50447">
        <ele>1260.82</ele>
        <time>2024-01-30T07:35:25Z</time>
      </trkpt>
      <trkpt lat="45.01117" lon="5.50432">
        <ele>1264.47</ele>
        <time>2024-01-30T07:35:46Z</time>
      </trkpt>
      <trkpt lat="45.01065" lon="5.50413">
        <ele>1268.61</ele>
        <time>2024-01-30T07:36:23Z</time>
      </trkpt>
      <trkpt lat="45.01006" lon="5.50397">
        <ele>1272.62</ele>
        <time>2024-01-30T07:37:05Z</time>
      </trkpt>
      <trkpt lat="45.0095" lon="5.50345">
        <ele>1280.01</ele>
        <time>2024-01-30T07:37:54Z</time>
      </trkpt>
      <trkpt lat="45.00916" lon="5.50341">
        <ele>1281.51</ele>
        <time>2024-01-30T07:38:20Z</time>
      </trkpt>
      <trkpt lat="45.00902" lon="5.50325">
        <ele>1283.42</ele>
        <time>2024-01-30T07:38:34Z</time>
      </trkpt>
      <trkpt lat="45.0088" lon="5.50299">
        <ele>1287.02</ele>
        <time>2024-01-30T07:38:57Z</time>
      </trkpt>
      <trkpt lat="45.00861" lon="5.50253">
        <ele>1292.8</ele>
        <time>2024-01-30T07:39:24Z</time>
      </trkpt>
      <trkpt lat="45.00855" lon="5.50218">
        <ele>1296.61</ele>
        <time>2024-01-30T07:39:42Z</time>
      </trkpt>
      <trkpt lat="45.00857" lon="5.50186">
        <ele>1299.83</ele>
        <time>2024-01-30T07:39:59Z</time>
      </trkpt>
      <trkpt lat="45.00905" lon="5.50089">
        <ele>1309.67</ele>
        <time>2024-01-30T07:40:59Z</time>
      </trkpt>
      <trkpt lat="45.00915" lon="5.5003">
        <ele>1316.44</ele>
        <time>2024-01-30T07:41:28Z</time>
      </trkpt>
      <trkpt lat="45.00927" lon="5.49993">
        <ele>1320.31</ele>
        <time>2024-01-30T07:41:46Z</time>
      </trkpt>
      <trkpt lat="45.00933" lon="5.49955">
        <ele>1323.75</ele>
        <time>2024-01-30T07:42:02Z</time>
      </trkpt>
      <trkpt lat="45.00931" lon="5.49915">
        <ele>1327.12</ele>
        <time>2024-01-30T07:42:18Z</time>
      </trkpt>
      <trkpt lat="45.00926" lon="5.49881">
        <ele>1329.92</ele>
        <time>2024-01-30T07:42:32Z</time>
      </trkpt>
      <trkpt lat="45.0093" lon="5.49843">
        <ele>1332.55</ele>
        <time>2024-01-30T07:42:47Z</time>
      </trkpt>
      <trkpt lat="45.00923" lon="5.49832">
        <ele>1333.28</ele>
        <time>2024-01-30T07:42:52Z</time>
      </trkpt>
      <trkpt lat="45.00899" lon="5.49824">
        <ele>1334.81</ele>
        <time>2024-01-30T07:43:05Z</time>
      </trkpt>
      <trkpt lat="45.00885" lon="5.49814">
        <ele>1336.27</ele>
        <time>2024-01-30T07:43:13Z</time>
      </trkpt>
      <trkpt lat="45.0088" lon="5.49806">
        <ele>1337.05</ele>
        <time>2024-01-30T07:43:17Z</time>
      </trkpt>
      <trkpt lat="45.00881" lon="5.49793">
        <ele>1338</ele>
        <time>2024-01-30T07:43:21Z</time>
      </trkpt>
      <trkpt lat="45.00914" lon="5.49692">
        <ele>1345.1</ele>
        <time>2024-01-30T07:44:01Z</time>
      </trkpt>
      <trkpt lat="45.00853" lon="5.49664">
        <ele>1350.66</ele>
        <time>2024-01-30T07:44:41Z</time>
      </trkpt>
      <trkpt lat="45.00831" lon="5.49646">
        <ele>1352.84</ele>
        <time>2024-01-30T07:44:57Z</time>
      </trkpt>
      <trkpt lat="45.00816" lon="5.49622">
        <ele>1355.24</ele>
        <time>2024-01-30T07:45:12Z</time>
      </trkpt>
      <trkpt lat="45.00808" lon="5.49595">
        <ele>1358.36</ele>
        <time>2024-01-30T07:45:25Z</time>
      </trkpt>
      <trkpt lat="45.00795" lon="5.49574">
        <ele>1360.42</ele>
        <time>2024-01-30T07:45:38Z</time>
      </trkpt>
      <trkpt lat="45.00774" lon="5.49555">
        <ele>1363.21</ele>
        <time>2024-01-30T07:45:54Z</time>
      </trkpt>
      <trkpt lat="45.00749" lon="5.49542">
        <ele>1365.43</ele>
        <time>2024-01-30T07:46:12Z</time>
      </trkpt>
      <trkpt lat="45.00748" lon="5.4953">
        <ele>1366.95</ele>
        <time>2024-01-30T07:46:18Z</time>
      </trkpt>
      <trkpt lat="45.00778" lon="5.49493">
        <ele>1369.96</ele>
        <time>2024-01-30T07:46:45Z</time>
      </trkpt>
      <trkpt lat="45.00813" lon="5.49441">
        <ele>1374.99</ele>
        <time>2024-01-30T07:47:16Z</time>
      </trkpt>
      <trkpt lat="45.0084" lon="5.49387">
        <ele>1377.5</ele>
        <time>2024-01-30T07:47:44Z</time>
      </trkpt>
      <trkpt lat="45.00875" lon="5.49326">
        <ele>1379.94</ele>
        <time>2024-01-30T07:48:16Z</time>
      </trkpt>
      <trkpt lat="45.0089" lon="5.49308">
        <ele>1381.71</ele>
        <time>2024-01-30T07:48:27Z</time>
      </trkpt>
      <trkpt lat="45.00914" lon="5.49294">
        <ele>1384.3</ele>
        <time>2024-01-30T07:48:42Z</time>
      </trkpt>
      <trkpt lat="45.00935" lon="5.49289">
        <ele>1385.47</ele>
        <time>2024-01-30T07:48:55Z</time>
      </trkpt>
      <trkpt lat="45.00968" lon="5.49288">
        <ele>1385.58</ele>
        <time>2024-01-30T07:49:13Z</time>
      </trkpt>
      <trkpt lat="45.01003" lon="5.49269">
        <ele>1388</ele>
        <time>2024-01-30T07:49:32Z</time>
      </trkpt>
      <trkpt lat="45.01015" lon="5.49254">
        <ele>1389.59</ele>
        <time>2024-01-30T07:49:39Z</time>
      </trkpt>
      <trkpt lat="45.01026" lon="5.49231">
        <ele>1392.06</ele>
        <time>2024-01-30T07:49:47Z</time>
      </trkpt>
      <trkpt lat="45.01044" lon="5.49175">
        <ele>1397.3</ele>
        <time>2024-01-30T07:50:03Z</time>
      </trkpt>
      <trkpt lat="45.0106" lon="5.49152">
        <ele>1398.28</ele>
        <time>2024-01-30T07:50:11Z</time>
      </trkpt>
      <trkpt lat="45.01085" lon="5.49131">
        <ele>1398.7</ele>
        <time>2024-01-30T07:50:20Z</time>
      </trkpt>
      <trkpt lat="45.01094" lon="5.49118">
        <ele>1399.52</ele>
        <time>2024-01-30T07:50:24Z</time>
      </trkpt>
      <trkpt lat="45.01099" lon="5.49095">
        <ele>1400.81</ele>
        <time>2024-01-30T07:50:29Z</time>
      </trkpt>
      <trkpt lat="45.01087" lon="5.49068">
        <ele>1402.07</ele>
        <time>2024-01-30T07:50:35Z</time>
      </trkpt>
      <trkpt lat="45.01079" lon="5.49023">
        <ele>1401.9</ele>
        <time>2024-01-30T07:50:44Z</time>
      </trkpt>
      <trkpt lat="45.01075" lon="5.49014">
        <ele>1401.97</ele>
        <time>2024-01-30T07:50:46Z</time>
      </trkpt>
      <trkpt lat="45.01062" lon="5.49005">
        <ele>1403.35</ele>
        <time>2024-01-30T07:50:50Z</time>
      </trkpt>
      <trkpt lat="45.01031" lon="5.49002">
        <ele>1408</ele>
        <time>2024-01-30T07:51:00Z</time>
      </trkpt>
      <trkpt lat="45.01023" lon="5.48994">
        <ele>1409.14</ele>
        <time>2024-01-30T07:51:03Z</time>
      </trkpt>
      <trkpt lat="45.01019" lon="5.48983">
        <ele>1409.59</ele>
        <time>2024-01-30T07:51:06Z</time>
      </trkpt>
      <trkpt lat="45.01022" lon="5.4893">
        <ele>1406.83</ele>
        <time>2024-01-30T07:51:21Z</time>
      </trkpt>
      <trkpt lat="45.01013" lon="5.48888">
        <ele>1406.94</ele>
        <time>2024-01-30T07:51:37Z</time>
      </trkpt>
      <trkpt lat="45.01011" lon="5.48861">
        <ele>1406.1</ele>
        <time>2024-01-30T07:51:47Z</time>
      </trkpt>
      <trkpt lat="45.01014" lon="5.48843">
        <ele>1405.79</ele>
        <time>2024-01-30T07:51:55Z</time>
      </trkpt>
      <trkpt lat="45.01012" lon="5.48817">
        <ele>1405.1</ele>
        <time>2024-01-30T07:52:06Z</time>
      </trkpt>
      <trkpt lat="45.01004" lon="5.48796">
        <ele>1403.58</ele>
        <time>2024-01-30T07:52:16Z</time>
      </trkpt>
      <trkpt lat="45.00987" lon="5.48778">
        <ele>1400.09</ele>
        <time>2024-01-30T07:52:30Z</time>
      </trkpt>
      <trkpt lat="45.0094" lon="5.48695">
        <ele>1414.23</ele>
        <time>2024-01-30T07:53:17Z</time>
      </trkpt>
      <trkpt lat="45.00946" lon="5.48675">
        <ele>1418.04</ele>
        <time>2024-01-30T07:53:26Z</time>
      </trkpt>
      <trkpt lat="45.00929" lon="5.48658">
        <ele>1421.14</ele>
        <time>2024-01-30T07:53:37Z</time>
      </trkpt>
      <trkpt lat="45.00911" lon="5.48608">
        <ele>1426.24</ele>
        <time>2024-01-30T07:53:54Z</time>
      </trkpt>
      <trkpt lat="45.00913" lon="5.48554">
        <ele>1429.89</ele>
        <time>2024-01-30T07:54:06Z</time>
      </trkpt>
      <trkpt lat="45.00928" lon="5.48461">
        <ele>1434.68</ele>
        <time>2024-01-30T07:54:22Z</time>
      </trkpt>
      <trkpt lat="45.0096" lon="5.48353">
        <ele>1434.87</ele>
        <time>2024-01-30T07:54:39Z</time>
      </trkpt>
      <trkpt lat="45.00957" lon="5.48342">
        <ele>1432.21</ele>
        <time>2024-01-30T07:54:41Z</time>
      </trkpt>
      <trkpt lat="45.00959" lon="5.4833">
        <ele>1432.15</ele>
        <time>2024-01-30T07:54:43Z</time>
      </trkpt>
      <trkpt lat="45.00951" lon="5.48297">
        <ele>1426.23</ele>
        <time>2024-01-30T07:54:48Z</time>
      </trkpt>
      <trkpt lat="45.00935" lon="5.48265">
        <ele>1419.99</ele>
        <time>2024-01-30T07:54:53Z</time>
      </trkpt>
      <trkpt lat="45.00889" lon="5.48276">
        <ele>1412.55</ele>
        <time>2024-01-30T07:55:02Z</time>
      </trkpt>
      <trkpt lat="45.00843" lon="5.48266">
        <ele>1403.22</ele>
        <time>2024-01-30T07:55:11Z</time>
      </trkpt>
      <trkpt lat="45.00811" lon="5.48268">
        <ele>1399.01</ele>
        <time>2024-01-30T07:55:17Z</time>
      </trkpt>
      <trkpt lat="45.00809" lon="5.48239">
        <ele>1390.77</ele>
        <time>2024-01-30T07:55:21Z</time>
      </trkpt>
      <trkpt lat="45.00797" lon="5.48232">
        <ele>1387.11</ele>
        <time>2024-01-30T07:55:23Z</time>
      </trkpt>
      <trkpt lat="45.00784" lon="5.48199">
        <ele>1375.43</ele>
        <time>2024-01-30T07:55:28Z</time>
      </trkpt>
      <trkpt lat="45.00787" lon="5.48186">
        <ele>1374.24</ele>
        <time>2024-01-30T07:55:30Z</time>
      </trkpt>
      <trkpt lat="45.00786" lon="5.48159">
        <ele>1370.44</ele>
        <time>2024-01-30T07:55:33Z</time>
      </trkpt>
      <trkpt lat="45.00782" lon="5.48141">
        <ele>1366.89</ele>
        <time>2024-01-30T07:55:36Z</time>
      </trkpt>
      <trkpt lat="45.00758" lon="5.48081">
        <ele>1351.32</ele>
        <time>2024-01-30T07:55:45Z</time>
      </trkpt>
      <trkpt lat="45.00758" lon="5.48048">
        <ele>1347.02</ele>
        <time>2024-01-30T07:55:49Z</time>
      </trkpt>
      <trkpt lat="45.00775" lon="5.47976">
        <ele>1337.05</ele>
        <time>2024-01-30T07:55:59Z</time>
      </trkpt>
      <trkpt lat="45.0079" lon="5.47943">
        <ele>1332.77</ele>
        <time>2024-01-30T07:56:05Z</time>
      </trkpt>
      <trkpt lat="45.0081" lon="5.47905">
        <ele>1331.19</ele>
        <time>2024-01-30T07:56:11Z</time>
      </trkpt>
      <trkpt lat="45.00828" lon="5.47851">
        <ele>1321.22</ele>
        <time>2024-01-30T07:56:20Z</time>
      </trkpt>
      <trkpt lat="45.00848" lon="5.47799">
        <ele>1313.35</ele>
        <time>2024-01-30T07:56:29Z</time>
      </trkpt>
      <trkpt lat="45.0086" lon="5.47758">
        <ele>1309.22</ele>
        <time>2024-01-30T07:56:36Z</time>
      </trkpt>
      <trkpt lat="45.00874" lon="5.47731">
        <ele>1308.88</ele>
        <time>2024-01-30T07:56:42Z</time>
      </trkpt>
      <trkpt lat="45.00908" lon="5.4772">
        <ele>1310.02</ele>
        <time>2024-01-30T07:56:52Z</time>
      </trkpt>
      <trkpt lat="45.00939" lon="5.47703">
        <ele>1310.16</ele>
        <time>2024-01-30T07:57:00Z</time>
      </trkpt>
      <trkpt lat="45.00955" lon="5.47686">
        <ele>1309.3</ele>
        <time>2024-01-30T07:57:05Z</time>
      </trkpt>
      <trkpt lat="45.00975" lon="5.47657">
        <ele>1307.86</ele>
        <time>2024-01-30T07:57:13Z</time>
      </trkpt>
      <trkpt lat="45.00988" lon="5.47638">
        <ele>1307.15</ele>
        <time>2024-01-30T07:57:18Z</time>
      </trkpt>
      <trkpt lat="45.01013" lon="5.47603">
        <ele>1306.89</ele>
        <time>2024-01-30T07:57:26Z</time>
      </trkpt>
      <trkpt lat="45.0104" lon="5.47586">
        <ele>1306.26</ele>
        <time>2024-01-30T07:57:34Z</time>
      </trkpt>
      <trkpt lat="45.01038" lon="5.47601">
        <ele>1306.42</ele>
        <time>2024-01-30T07:57:37Z</time>
      </trkpt>
      <trkpt lat="45.01039" lon="5.47611">
        <ele>1306.73</ele>
        <time>2024-01-30T07:57:39Z</time>
      </trkpt>
      <trkpt lat="45.01044" lon="5.47621">
        <ele>1307.3</ele>
        <time>2024-01-30T07:57:41Z</time>
      </trkpt>
      <trkpt lat="45.01074" lon="5.47634">
        <ele>1309.91</ele>
        <time>2024-01-30T07:57:51Z</time>
      </trkpt>
      <trkpt lat="45.01092" lon="5.47631">
        <ele>1310.04</ele>
        <time>2024-01-30T07:57:56Z</time>
      </trkpt>
      <trkpt lat="45.01108" lon="5.47622">
        <ele>1309.26</ele>
        <time>2024-01-30T07:58:01Z</time>
      </trkpt>
      <trkpt lat="45.01173" lon="5.47598">
        <ele>1309.65</ele>
        <time>2024-01-30T07:58:21Z</time>
      </trkpt>
      <trkpt lat="45.01221" lon="5.47585">
        <ele>1310.99</ele>
        <time>2024-01-30T07:58:37Z</time>
      </trkpt>
      <trkpt lat="45.01292" lon="5.47548">
        <ele>1311.17</ele>
        <time>2024-01-30T07:59:02Z</time>
      </trkpt>
      <trkpt lat="45.01312" lon="5.47524">
        <ele>1310.06</ele>
        <time>2024-01-30T07:59:09Z</time>
      </trkpt>
      <trkpt lat="45.01325" lon="5.47516">
        <ele>1310</ele>
        <time>2024-01-30T07:59:13Z</time>
      </trkpt>
      <trkpt lat="45.01357" lon="5.4751">
        <ele>1311.08</ele>
        <time>2024-01-30T07:59:22Z</time>
      </trkpt>
      <trkpt lat="45.01416" lon="5.4749">
        <ele>1309.86</ele>
        <time>2024-01-30T07:59:38Z</time>
      </trkpt>
      <trkpt lat="45.01436" lon="5.47478">
        <ele>1308.14</ele>
        <time>2024-01-30T07:59:44Z</time>
      </trkpt>
      <trkpt lat="45.01451" lon="5.47462">
        <ele>1305.98</ele>
        <time>2024-01-30T07:59:49Z</time>
      </trkpt>
      <trkpt lat="45.01466" lon="5.47458">
        <ele>1305.69</ele>
        <time>2024-01-30T07:59:54Z</time>
      </trkpt>
      <trkpt lat="45.01498" lon="5.47461">
        <ele>1305.04</ele>
        <time>2024-01-30T08:00:04Z</time>
      </trkpt>
      <trkpt lat="45.0151" lon="5.47457">
        <ele>1304.55</ele>
        <time>2024-01-30T08:00:09Z</time>
      </trkpt>
      <trkpt lat="45.01534" lon="5.47433">
        <ele>1302.72</ele>
        <time>2024-01-30T08:00:20Z</time>
      </trkpt>
      <trkpt lat="45.01546" lon="5.47424">
        <ele>1302.14</ele>
        <time>2024-01-30T08:00:25Z</time>
      </trkpt>
      <trkpt lat="45.0156" lon="5.47423">
        <ele>1301.87</ele>
        <time>2024-01-30T08:14:04Z</time>
      </trkpt>
      <trkpt lat="45.01566" lon="5.47433">
        <ele>1302.61</ele>
        <time>2024-01-30T08:14:02Z</time>
      </trkpt>
      <trkpt lat="45.01582" lon="5.47448">
        <ele>1303.39</ele>
        <time>2024-01-30T08:13:58Z</time>
      </trkpt>
      <trkpt lat="45.016" lon="5.47483">
        <ele>1305.83</ele>
        <time>2024-01-30T08:13:50Z</time>
      </trkpt>
      <trkpt lat="45.01613" lon="5.47494">
        <ele>1306.89</ele>
        <time>2024-01-30T08:13:46Z</time>
      </trkpt>
      <trkpt lat="45.01631" lon="5.47503">
        <ele>1307.83</ele>
        <time>2024-01-30T08:13:42Z</time>
      </trkpt>
      <trkpt lat="45.01655" lon="5.47539">
        <ele>1312.26</ele>
        <time>2024-01-30T08:13:33Z</time>
      </trkpt>
      <trkpt lat="45.01677" lon="5.47561">
        <ele>1315.24</ele>
        <time>2024-01-30T08:13:27Z</time>
      </trkpt>
      <trkpt lat="45.01696" lon="5.47559">
        <ele>1315.46</ele>
        <time>2024-01-30T08:13:22Z</time>
      </trkpt>
      <trkpt lat="45.01711" lon="5.47555">
        <ele>1314.92</ele>
        <time>2024-01-30T08:13:18Z</time>
      </trkpt>
      <trkpt lat="45.01725" lon="5.47542">
        <ele>1313.43</ele>
        <time>2024-01-30T08:13:15Z</time>
      </trkpt>
      <trkpt lat="45.01728" lon="5.47528">
        <ele>1312.14</ele>
        <time>2024-01-30T08:13:12Z</time>
      </trkpt>
      <trkpt lat="45.0174" lon="5.47517">
        <ele>1311</ele>
        <time>2024-01-30T08:13:08Z</time>
      </trkpt>
      <trkpt lat="45.01764" lon="5.47517">
        <ele>1310.75</ele>
        <time>2024-01-30T08:13:02Z</time>
      </trkpt>
      <trkpt lat="45.01774" lon="5.47534">
        <ele>1312.15</ele>
        <time>2024-01-30T08:12:57Z</time>
      </trkpt>
      <trkpt lat="45.01828" lon="5.47582">
        <ele>1314.55</ele>
        <time>2024-01-30T08:12:33Z</time>
      </trkpt>
      <trkpt lat="45.01857" lon="5.47584">
        <ele>1314.01</ele>
        <time>2024-01-30T08:12:22Z</time>
      </trkpt>
      <trkpt lat="45.0188" lon="5.47557">
        <ele>1310.73</ele>
        <time>2024-01-30T08:12:10Z</time>
      </trkpt>
      <trkpt lat="45.01897" lon="5.47489">
        <ele>1306.26</ele>
        <time>2024-01-30T08:11:50Z</time>
      </trkpt>
      <trkpt lat="45.0191" lon="5.4746">
        <ele>1304.04</ele>
        <time>2024-01-30T08:11:40Z</time>
      </trkpt>
      <trkpt lat="45.0194" lon="5.47411">
        <ele>1298.94</ele>
        <time>2024-01-30T08:11:19Z</time>
      </trkpt>
      <trkpt lat="45.01971" lon="5.47377">
        <ele>1291.55</ele>
        <time>2024-01-30T08:11:02Z</time>
      </trkpt>
      <trkpt lat="45.01989" lon="5.47353">
        <ele>1287.83</ele>
        <time>2024-01-30T08:10:53Z</time>
      </trkpt>
      <trkpt lat="45.01994" lon="5.47371">
        <ele>1286.74</ele>
        <time>2024-01-30T08:10:47Z</time>
      </trkpt>
      <trkpt lat="45.02011" lon="5.4741">
        <ele>1283.96</ele>
        <time>2024-01-30T08:10:35Z</time>
      </trkpt>
      <trkpt lat="45.02021" lon="5.47439">
        <ele>1283.84</ele>
        <time>2024-01-30T08:10:27Z</time>
      </trkpt>
      <trkpt lat="45.02039" lon="5.47486">
        <ele>1282.85</ele>
        <time>2024-01-30T08:10:14Z</time>
      </trkpt>
      <trkpt lat="45.02044" lon="5.47546">
        <ele>1288.64</ele>
        <time>2024-01-30T08:09:56Z</time>
      </trkpt>
      <trkpt lat="45.02051" lon="5.47554">
        <ele>1288.85</ele>
        <time>2024-01-30T08:09:52Z</time>
      </trkpt>
      <trkpt lat="45.02059" lon="5.47559">
        <ele>1288.22</ele>
        <time>2024-01-30T08:09:48Z</time>
      </trkpt>
      <trkpt lat="45.02087" lon="5.47563">
        <ele>1286.43</ele>
        <time>2024-01-30T08:09:35Z</time>
      </trkpt>
      <trkpt lat="45.02093" lon="5.47564">
        <ele>1286.31</ele>
        <time>2024-01-30T08:09:32Z</time>
      </trkpt>
      <trkpt lat="45.02114" lon="5.47569">
        <ele>1286.39</ele>
        <time>2024-01-30T08:09:22Z</time>
      </trkpt>
      <trkpt lat="45.02145" lon="5.47587">
        <ele>1286.63</ele>
        <time>2024-01-30T08:09:06Z</time>
      </trkpt>
      <trkpt lat="45.02169" lon="5.47594">
        <ele>1285.97</ele>
        <time>2024-01-30T08:08:54Z</time>
      </trkpt>
      <trkpt lat="45.0221" lon="5.47608">
        <ele>1284.9</ele>
        <time>2024-01-30T08:08:33Z</time>
      </trkpt>
      <trkpt lat="45.02237" lon="5.47607">
        <ele>1282.89</ele>
        <time>2024-01-30T08:08:19Z</time>
      </trkpt>
      <trkpt lat="45.02298" lon="5.47631">
        <ele>1280.79</ele>
        <time>2024-01-30T08:07:47Z</time>
      </trkpt>
      <trkpt lat="45.02347" lon="5.47643">
        <ele>1278.52</ele>
        <time>2024-01-30T08:07:24Z</time>
      </trkpt>
      <trkpt lat="45.02427" lon="5.47667">
        <ele>1274.69</ele>
        <time>2024-01-30T08:06:50Z</time>
      </trkpt>
      <trkpt lat="45.02508" lon="5.47674">
        <ele>1273.88</ele>
        <time>2024-01-30T08:06:23Z</time>
      </trkpt>
      <trkpt lat="45.02518" lon="5.47677">
        <ele>1273.46</ele>
        <time>2024-01-30T08:06:20Z</time>
      </trkpt>
      <trkpt lat="45.02508" lon="5.47674">
        <ele>1273.88</ele>
        <time>2024-01-30T08:06:23Z</time>
      </trkpt>
      <trkpt lat="45.02427" lon="5.47667">
        <ele>1274.69</ele>
        <time>2024-01-30T08:06:50Z</time>
      </trkpt>
      <trkpt lat="45.02347" lon="5.47643">
        <ele>1278.52</ele>
        <time>2024-01-30T08:07:24Z</time>
      </trkpt>
      <trkpt lat="45.02298" lon="5.47631">
        <ele>1280.79</ele>
        <time>2024-01-30T08:07:47Z</time>
      </trkpt>
      <trkpt lat="45.02237" lon="5.47607">
        <ele>1282.89</ele>
        <time>2024-01-30T08:08:19Z</time>
      </trkpt>
      <trkpt lat="45.0221" lon="5.47608">
        <ele>1284.9</ele>
        <time>2024-01-30T08:08:33Z</time>
      </trkpt>
      <trkpt lat="45.02169" lon="5.47594">
        <ele>1285.97</ele>
        <time>2024-01-30T08:08:54Z</time>
      </trkpt>
      <trkpt lat="45.02145" lon="5.47587">
        <ele>1286.63</ele>
        <time>2024-01-30T08:09:06Z</time>
      </trkpt>
      <trkpt lat="45.02114" lon="5.47569">
        <ele>1286.39</ele>
        <time>2024-01-30T08:09:22Z</time>
      </trkpt>
      <trkpt lat="45.02093" lon="5.47564">
        <ele>1286.31</ele>
        <time>2024-01-30T08:09:32Z</time>
      </trkpt>
      <trkpt lat="45.02087" lon="5.47563">
        <ele>1286.43</ele>
        <time>2024-01-30T08:09:35Z</time>
      </trkpt>
      <trkpt lat="45.02059" lon="5.47559">
        <ele>1288.22</ele>
        <time>2024-01-30T08:09:48Z</time>
      </trkpt>
      <trkpt lat="45.02051" lon="5.47554">
        <ele>1288.85</ele>
        <time>2024-01-30T08:09:52Z</time>
      </trkpt>
      <trkpt lat="45.02044" lon="5.47546">
        <ele>1288.64</ele>
        <time>2024-01-30T08:09:56Z</time>
      </trkpt>
      <trkpt lat="45.02039" lon="5.47486">
        <ele>1282.85</ele>
        <time>2024-01-30T08:10:14Z</time>
      </trkpt>
      <trkpt lat="45.02021" lon="5.47439">
        <ele>1283.84</ele>
        <time>2024-01-30T08:10:27Z</time>
      </trkpt>
      <trkpt lat="45.02011" lon="5.4741">
        <ele>1283.96</ele>
        <time>2024-01-30T08:10:35Z</time>
      </trkpt>
      <trkpt lat="45.01994" lon="5.47371">
        <ele>1286.74</ele>
        <time>2024-01-30T08:10:47Z</time>
      </trkpt>
      <trkpt lat="45.01989" lon="5.47353">
        <ele>1287.83</ele>
        <time>2024-01-30T08:10:53Z</time>
      </trkpt>
      <trkpt lat="45.01971" lon="5.47377">
        <ele>1291.55</ele>
        <time>2024-01-30T08:11:02Z</time>
      </trkpt>
      <trkpt lat="45.0194" lon="5.47411">
        <ele>1298.94</ele>
        <time>2024-01-30T08:11:19Z</time>
      </trkpt>
      <trkpt lat="45.0191" lon="5.4746">
        <ele>1304.04</ele>
        <time>2024-01-30T08:11:40Z</time>
      </trkpt>
      <trkpt lat="45.01897" lon="5.47489">
        <ele>1306.26</ele>
        <time>2024-01-30T08:11:50Z</time>
      </trkpt>
      <trkpt lat="45.0188" lon="5.47557">
        <ele>1310.73</ele>
        <time>2024-01-30T08:12:10Z</time>
      </trkpt>
      <trkpt lat="45.01857" lon="5.47584">
        <ele>1314.01</ele>
        <time>2024-01-30T08:12:22Z</time>
      </trkpt>
      <trkpt lat="45.01828" lon="5.47582">
        <ele>1314.55</ele>
        <time>2024-01-30T08:12:33Z</time>
      </trkpt>
      <trkpt lat="45.01774" lon="5.47534">
        <ele>1312.15</ele>
        <time>2024-01-30T08:12:57Z</time>
      </trkpt>
      <trkpt lat="45.01764" lon="5.47517">
        <ele>1310.75</ele>
        <time>2024-01-30T08:13:02Z</time>
      </trkpt>
      <trkpt lat="45.0174" lon="5.47517">
        <ele>1311</ele>
        <time>2024-01-30T08:13:08Z</time>
      </trkpt>
      <trkpt lat="45.01728" lon="5.47528">
        <ele>1312.14</ele>
        <time>2024-01-30T08:13:12Z</time>
      </trkpt>
      <trkpt lat="45.01725" lon="5.47542">
        <ele>1313.43</ele>
        <time>2024-01-30T08:13:15Z</time>
      </trkpt>
      <trkpt lat="45.01711" lon="5.47555">
        <ele>1314.92</ele>
        <time>2024-01-30T08:13:18Z</time>
      </trkpt>
      <trkpt lat="45.01696" lon="5.47559">
        <ele>1315.46</ele>
        <time>2024-01-30T08:13:22Z</time>
      </trkpt>
      <trkpt lat="45.01677" lon="5.47561">
        <ele>1315.24</ele>
        <time>2024-01-30T08:13:27Z</time>
      </trkpt>
      <trkpt lat="45.01655" lon="5.47539">
        <ele>1312.26</ele>
        <time>2024-01-30T08:13:33Z</time>
      </trkpt>
      <trkpt lat="45.01631" lon="5.47503">
        <ele>1307.83</ele>
        <time>2024-01-30T08:13:42Z</time>
      </trkpt>
      <trkpt lat="45.01613" lon="5.47494">
        <ele>1306.89</ele>
        <time>2024-01-30T08:13:46Z</time>
      </trkpt>
      <trkpt lat="45.016" lon="5.47483">
        <ele>1305.83</ele>
        <time>2024-01-30T08:13:50Z</time>
      </trkpt>
      <trkpt lat="45.01582" lon="5.47448">
        <ele>1303.39</ele>
        <time>2024-01-30T08:13:58Z</time>
      </trkpt>
      <trkpt lat="45.01566" lon="5.47433">
        <ele>1302.61</ele>
        <time>2024-01-30T08:14:02Z</time>
      </trkpt>
      <trkpt lat="45.0156" lon="5.47423">
        <ele>1301.87</ele>
        <time>2024-01-30T08:14:04Z</time>
      </trkpt>
      <trkpt lat="45.01542" lon="5.47396">
        <ele>1300.66</ele>
        <time>2024-01-30T08:14:10Z</time>
      </trkpt>
      <trkpt lat="45.01545" lon="5.47379">
        <ele>1300.06</ele>
        <time>2024-01-30T08:14:13Z</time>
      </trkpt>
      <trkpt lat="45.01547" lon="5.47345">
        <ele>1299.11</ele>
        <time>2024-01-30T08:14:19Z</time>
      </trkpt>
      <trkpt lat="45.01547" lon="5.47328">
        <ele>1298.72</ele>
        <time>2024-01-30T08:14:22Z</time>
      </trkpt>
      <trkpt lat="45.01529" lon="5.47318">
        <ele>1298.13</ele>
        <time>2024-01-30T08:14:24Z</time>
      </trkpt>
      <trkpt lat="45.01518" lon="5.47318">
        <ele>1297.85</ele>
        <time>2024-01-30T08:14:26Z</time>
      </trkpt>
      <trkpt lat="45.01507" lon="5.47325">
        <ele>1297.95</ele>
        <time>2024-01-30T08:14:27Z</time>
      </trkpt>
      <trkpt lat="45.01489" lon="5.47343">
        <ele>1298.32</ele>
        <time>2024-01-30T08:14:30Z</time>
      </trkpt>
      <trkpt lat="45.01476" lon="5.47352">
        <ele>1298.62</ele>
        <time>2024-01-30T08:14:32Z</time>
      </trkpt>
      <trkpt lat="45.01455" lon="5.47356">
        <ele>1298.51</ele>
        <time>2024-01-30T08:14:34Z</time>
      </trkpt>
      <trkpt lat="45.01448" lon="5.47351">
        <ele>1298.1</ele>
        <time>2024-01-30T08:14:35Z</time>
      </trkpt>
      <trkpt lat="45.01445" lon="5.47335">
        <ele>1297.48</ele>
        <time>2024-01-30T08:14:37Z</time>
      </trkpt>
      <trkpt lat="45.01446" lon="5.47315">
        <ele>1296.09</ele>
        <time>2024-01-30T08:14:39Z</time>
      </trkpt>
      <trkpt lat="45.01444" lon="5.47297">
        <ele>1294.85</ele>
        <time>2024-01-30T08:14:40Z</time>
      </trkpt>
      <trkpt lat="45.01428" lon="5.4727">
        <ele>1292.27</ele>
        <time>2024-01-30T08:14:43Z</time>
      </trkpt>
      <trkpt lat="45.01384" lon="5.47205">
        <ele>1286.32</ele>
        <time>2024-01-30T08:14:50Z</time>
      </trkpt>
      <trkpt lat="45.01362" lon="5.47168">
        <ele>1284.46</ele>
        <time>2024-01-30T08:14:53Z</time>
      </trkpt>
      <trkpt lat="45.01352" lon="5.47143">
        <ele>1284.73</ele>
        <time>2024-01-30T08:14:56Z</time>
      </trkpt>
      <trkpt lat="45.01348" lon="5.47124">
        <ele>1283.65</ele>
        <time>2024-01-30T08:14:57Z</time>
      </trkpt>
      <trkpt lat="45.01344" lon="5.47095">
        <ele>1282.47</ele>
        <time>2024-01-30T08:14:59Z</time>
      </trkpt>
      <trkpt lat="45.0134" lon="5.47066">
        <ele>1282.02</ele>
        <time>2024-01-30T08:15:02Z</time>
      </trkpt>
      <trkpt lat="45.01335" lon="5.4705">
        <ele>1280.82</ele>
        <time>2024-01-30T08:15:03Z</time>
      </trkpt>
      <trkpt lat="45.01318" lon="5.47033">
        <ele>1275.94</ele>
        <time>2024-01-30T08:15:05Z</time>
      </trkpt>
      <trkpt lat="45.01278" lon="5.47">
        <ele>1266.8</ele>
        <time>2024-01-30T08:15:10Z</time>
      </trkpt>
      <trkpt lat="45.01221" lon="5.46998">
        <ele>1265.61</ele>
        <time>2024-01-30T08:15:16Z</time>
      </trkpt>
      <trkpt lat="45.01184" lon="5.46991">
        <ele>1263.54</ele>
        <time>2024-01-30T08:15:20Z</time>
      </trkpt>
      <trkpt lat="45.01156" lon="5.46982">
        <ele>1261.38</ele>
        <time>2024-01-30T08:15:24Z</time>
      </trkpt>
      <trkpt lat="45.01137" lon="5.4698">
        <ele>1260.51</ele>
        <time>2024-01-30T08:15:26Z</time>
      </trkpt>
      <trkpt lat="45.01042" lon="5.46993">
        <ele>1256.24</ele>
        <time>2024-01-30T08:15:41Z</time>
      </trkpt>
      <trkpt lat="45.01009" lon="5.47014">
        <ele>1254.86</ele>
        <time>2024-01-30T08:15:49Z</time>
      </trkpt>
      <trkpt lat="45.00942" lon="5.47062">
        <ele>1248.32</ele>
        <time>2024-01-30T08:16:00Z</time>
      </trkpt>
      <trkpt lat="45.0092" lon="5.47088">
        <ele>1246.44</ele>
        <time>2024-01-30T08:16:04Z</time>
      </trkpt>
      <trkpt lat="45.00902" lon="5.47117">
        <ele>1246.59</ele>
        <time>2024-01-30T08:16:07Z</time>
      </trkpt>
      <trkpt lat="45.00887" lon="5.4713">
        <ele>1244.76</ele>
        <time>2024-01-30T08:16:10Z</time>
      </trkpt>
      <trkpt lat="45.00878" lon="5.47132">
        <ele>1242.94</ele>
        <time>2024-01-30T08:16:11Z</time>
      </trkpt>
      <trkpt lat="45.0087" lon="5.4713">
        <ele>1241.29</ele>
        <time>2024-01-30T08:16:12Z</time>
      </trkpt>
      <trkpt lat="45.00842" lon="5.47102">
        <ele>1233.49</ele>
        <time>2024-01-30T08:16:16Z</time>
      </trkpt>
      <trkpt lat="45.00835" lon="5.471">
        <ele>1232.1</ele>
        <time>2024-01-30T08:16:17Z</time>
      </trkpt>
      <trkpt lat="45.00801" lon="5.47108">
        <ele>1230.52</ele>
        <time>2024-01-30T08:16:21Z</time>
      </trkpt>
      <trkpt lat="45.00774" lon="5.47118">
        <ele>1229.38</ele>
        <time>2024-01-30T08:16:24Z</time>
      </trkpt>
      <trkpt lat="45.00769" lon="5.47117">
        <ele>1229.06</ele>
        <time>2024-01-30T08:16:24Z</time>
      </trkpt>
      <trkpt lat="45.00765" lon="5.47108">
        <ele>1227.55</ele>
        <time>2024-01-30T08:16:25Z</time>
      </trkpt>
      <trkpt lat="45.00769" lon="5.47097">
        <ele>1226.23</ele>
        <time>2024-01-30T08:16:26Z</time>
      </trkpt>
      <trkpt lat="45.00789" lon="5.47085">
        <ele>1226.2</ele>
        <time>2024-01-30T08:16:28Z</time>
      </trkpt>
      <trkpt lat="45.00805" lon="5.4707">
        <ele>1226.18</ele>
        <time>2024-01-30T08:16:30Z</time>
      </trkpt>
      <trkpt lat="45.00817" lon="5.47051">
        <ele>1225.21</ele>
        <time>2024-01-30T08:16:32Z</time>
      </trkpt>
      <trkpt lat="45.00824" lon="5.47031">
        <ele>1223.46</ele>
        <time>2024-01-30T08:16:34Z</time>
      </trkpt>
      <trkpt lat="45.00827" lon="5.47009">
        <ele>1221.06</ele>
        <time>2024-01-30T08:16:35Z</time>
      </trkpt>
      <trkpt lat="45.00825" lon="5.46996">
        <ele>1219.42</ele>
        <time>2024-01-30T08:16:36Z</time>
      </trkpt>
      <trkpt lat="45.00815" lon="5.46969">
        <ele>1214.92</ele>
        <time>2024-01-30T08:16:39Z</time>
      </trkpt>
      <trkpt lat="45.00808" lon="5.46959">
        <ele>1212.53</ele>
        <time>2024-01-30T08:16:40Z</time>
      </trkpt>
      <trkpt lat="45.00803" lon="5.46956">
        <ele>1211.64</ele>
        <time>2024-01-30T08:16:40Z</time>
      </trkpt>
      <trkpt lat="45.00793" lon="5.46955">
        <ele>1211.37</ele>
        <time>2024-01-30T08:16:41Z</time>
      </trkpt>
      <trkpt lat="45.00764" lon="5.46973">
        <ele>1213.51</ele>
        <time>2024-01-30T08:16:45Z</time>
      </trkpt>
      <trkpt lat="45.0073" lon="5.46969">
        <ele>1211.59</ele>
        <time>2024-01-30T08:16:48Z</time>
      </trkpt>
      <trkpt lat="45.00714" lon="5.4696">
        <ele>1208.71</ele>
        <time>2024-01-30T08:16:50Z</time>
      </trkpt>
      <trkpt lat="45.00691" lon="5.46934">
        <ele>1202.89</ele>
        <time>2024-01-30T08:16:53Z</time>
      </trkpt>
      <trkpt lat="45.0067" lon="5.46927">
        <ele>1199.05</ele>
        <time>2024-01-30T08:16:56Z</time>
      </trkpt>
      <trkpt lat="45.00647" lon="5.46936">
        <ele>1193.62</ele>
        <time>2024-01-30T08:16:58Z</time>
      </trkpt>
      <trkpt lat="45.00602" lon="5.4698">
        <ele>1190.66</ele>
        <time>2024-01-30T08:17:04Z</time>
      </trkpt>
      <trkpt lat="45.00593" lon="5.46983">
        <ele>1190.39</ele>
        <time>2024-01-30T08:17:05Z</time>
      </trkpt>
      <trkpt lat="45.0058" lon="5.4698">
        <ele>1188.65</ele>
        <time>2024-01-30T08:17:07Z</time>
      </trkpt>
      <trkpt lat="45.00566" lon="5.46968">
        <ele>1185.9</ele>
        <time>2024-01-30T08:17:09Z</time>
      </trkpt>
      <trkpt lat="45.00547" lon="5.46942">
        <ele>1182.94</ele>
        <time>2024-01-30T08:17:12Z</time>
      </trkpt>
      <trkpt lat="45.00511" lon="5.46923">
        <ele>1184.05</ele>
        <time>2024-01-30T08:17:17Z</time>
      </trkpt>
      <trkpt lat="45.00489" lon="5.46906">
        <ele>1185.72</ele>
        <time>2024-01-30T08:17:20Z</time>
      </trkpt>
      <trkpt lat="45.00471" lon="5.46883">
        <ele>1184.36</ele>
        <time>2024-01-30T08:17:23Z</time>
      </trkpt>
      <trkpt lat="45.00455" lon="5.46856">
        <ele>1181.34</ele>
        <time>2024-01-30T08:17:25Z</time>
      </trkpt>
      <trkpt lat="45.00434" lon="5.46829">
        <ele>1178.78</ele>
        <time>2024-01-30T08:17:28Z</time>
      </trkpt>
      <trkpt lat="45.00378" lon="5.46785">
        <ele>1172.04</ele>
        <time>2024-01-30T08:17:36Z</time>
      </trkpt>
      <trkpt lat="45.0035" lon="5.46759">
        <ele>1165.33</ele>
        <time>2024-01-30T08:17:39Z</time>
      </trkpt>
      <trkpt lat="45.00348" lon="5.46749">
        <ele>1160.66</ele>
        <time>2024-01-30T08:17:40Z</time>
      </trkpt>
      <trkpt lat="45.00353" lon="5.46743">
        <ele>1158.55</ele>
        <time>2024-01-30T08:17:41Z</time>
      </trkpt>
      <trkpt lat="45.0036" lon="5.46744">
        <ele>1158.11</ele>
        <time>2024-01-30T08:17:42Z</time>
      </trkpt>
      <trkpt lat="45.00393" lon="5.46767">
        <ele>1164.02</ele>
        <time>2024-01-30T08:17:46Z</time>
      </trkpt>
      <trkpt lat="45.00427" lon="5.46771">
        <ele>1163.12</ele>
        <time>2024-01-30T08:17:50Z</time>
      </trkpt>
      <trkpt lat="45.00478" lon="5.46789">
        <ele>1160.54</ele>
        <time>2024-01-30T08:17:57Z</time>
      </trkpt>
      <trkpt lat="45.00524" lon="5.46781">
        <ele>1149.07</ele>
        <time>2024-01-30T08:18:03Z</time>
      </trkpt>
      <trkpt lat="45.00543" lon="5.46782">
        <ele>1146.66</ele>
        <time>2024-01-30T08:18:06Z</time>
      </trkpt>
      <trkpt lat="45.00585" lon="5.46797">
        <ele>1145.94</ele>
        <time>2024-01-30T08:18:12Z</time>
      </trkpt>
      <trkpt lat="45.0062" lon="5.46793">
        <ele>1145.93</ele>
        <time>2024-01-30T08:18:17Z</time>
      </trkpt>
      <trkpt lat="45.00651" lon="5.46781">
        <ele>1139.91</ele>
        <time>2024-01-30T08:18:22Z</time>
      </trkpt>
      <trkpt lat="45.00757" lon="5.4679">
        <ele>1141.07</ele>
        <time>2024-01-30T08:18:36Z</time>
      </trkpt>
      <trkpt lat="45.00844" lon="5.46774">
        <ele>1129.09</ele>
        <time>2024-01-30T08:18:48Z</time>
      </trkpt>
      <trkpt lat="45.009" lon="5.46774">
        <ele>1128.77</ele>
        <time>2024-01-30T08:18:55Z</time>
      </trkpt>
      <trkpt lat="45.00988" lon="5.46765">
        <ele>1121.56</ele>
        <time>2024-01-30T08:19:05Z</time>
      </trkpt>
      <trkpt lat="45.01015" lon="5.4676">
        <ele>1118.62</ele>
        <time>2024-01-30T08:19:08Z</time>
      </trkpt>
      <trkpt lat="45.0104" lon="5.46746">
        <ele>1110.03</ele>
        <time>2024-01-30T08:19:12Z</time>
      </trkpt>
      <trkpt lat="45.01093" lon="5.46723">
        <ele>1103.26</ele>
        <time>2024-01-30T08:19:18Z</time>
      </trkpt>
      <trkpt lat="45.01142" lon="5.46712">
        <ele>1103.45</ele>
        <time>2024-01-30T08:19:24Z</time>
      </trkpt>
      <trkpt lat="45.01261" lon="5.46675">
        <ele>1099.45</ele>
        <time>2024-01-30T08:19:39Z</time>
      </trkpt>
      <trkpt lat="45.01287" lon="5.4666">
        <ele>1095.79</ele>
        <time>2024-01-30T08:19:42Z</time>
      </trkpt>
      <trkpt lat="45.01347" lon="5.46606">
        <ele>1089.93</ele>
        <time>2024-01-30T08:19:50Z</time>
      </trkpt>
      <trkpt lat="45.01375" lon="5.46574">
        <ele>1088.15</ele>
        <time>2024-01-30T08:19:55Z</time>
      </trkpt>
      <trkpt lat="45.01386" lon="5.46556">
        <ele>1086.44</ele>
        <time>2024-01-30T08:19:56Z</time>
      </trkpt>
      <trkpt lat="45.0115" lon="5.46615">
        <ele>1047.93</ele>
        <time>2024-01-30T08:20:45Z</time>
      </trkpt>
      <trkpt lat="45.01086" lon="5.4662">
        <ele>1042.64</ele>
        <time>2024-01-30T08:20:57Z</time>
      </trkpt>
      <trkpt lat="45.00962" lon="5.46605">
        <ele>1029.92</ele>
        <time>2024-01-30T08:21:22Z</time>
      </trkpt>
      <trkpt lat="45.00801" lon="5.46556">
        <ele>1001.06</ele>
        <time>2024-01-30T08:21:54Z</time>
      </trkpt>
      <trkpt lat="45.00929" lon="5.46536">
        <ele>995.68</ele>
        <time>2024-01-30T08:22:21Z</time>
      </trkpt>
      <trkpt lat="45.01074" lon="5.46489">
        <ele>981.12</ele>
        <time>2024-01-30T08:22:51Z</time>
      </trkpt>
      <trkpt lat="45.01084" lon="5.46465">
        <ele>973.32</ele>
        <time>2024-01-30T08:22:55Z</time>
      </trkpt>
      <trkpt lat="45.01057" lon="5.46475">
        <ele>972.23</ele>
        <time>2024-01-30T08:23:01Z</time>
      </trkpt>
      <trkpt lat="45.01017" lon="5.46458">
        <ele>963.94</ele>
        <time>2024-01-30T08:23:08Z</time>
      </trkpt>
      <trkpt lat="45.00837" lon="5.46402">
        <ele>937.69</ele>
        <time>2024-01-30T08:23:43Z</time>
      </trkpt>
      <trkpt lat="45.00783" lon="5.46382">
        <ele>927.69</ele>
        <time>2024-01-30T08:23:53Z</time>
      </trkpt>
      <trkpt lat="45.00698" lon="5.46375">
        <ele>918.4</ele>
        <time>2024-01-30T08:24:10Z</time>
      </trkpt>
      <trkpt lat="45.00639" lon="5.4635">
        <ele>908.84</ele>
        <time>2024-01-30T08:24:22Z</time>
      </trkpt>
      <trkpt lat="45.00588" lon="5.46336">
        <ele>905.15</ele>
        <time>2024-01-30T08:24:33Z</time>
      </trkpt>
      <trkpt lat="45.00506" lon="5.46283">
        <ele>888.83</ele>
        <time>2024-01-30T08:24:50Z</time>
      </trkpt>
      <trkpt lat="45.00421" lon="5.46199">
        <ele>863.37</ele>
        <time>2024-01-30T08:25:10Z</time>
      </trkpt>
      <trkpt lat="45.00375" lon="5.46164">
        <ele>856.44</ele>
        <time>2024-01-30T08:25:21Z</time>
      </trkpt>
      <trkpt lat="45.00341" lon="5.4616">
        <ele>857.11</ele>
        <time>2024-01-30T08:25:28Z</time>
      </trkpt>
      <trkpt lat="45.00265" lon="5.4609">
        <ele>836.79</ele>
        <time>2024-01-30T08:25:47Z</time>
      </trkpt>
      <trkpt lat="45.00237" lon="5.46082">
        <ele>833.03</ele>
        <time>2024-01-30T08:25:55Z</time>
      </trkpt>
      <trkpt lat="45.00201" lon="5.46086">
        <ele>834.39</ele>
        <time>2024-01-30T08:26:04Z</time>
      </trkpt>
      <trkpt lat="45.00184" lon="5.4607">
        <ele>830.52</ele>
        <time>2024-01-30T08:26:10Z</time>
      </trkpt>
      <trkpt lat="45.00147" lon="5.45991">
        <ele>816.44</ele>
        <time>2024-01-30T08:26:33Z</time>
      </trkpt>
      <trkpt lat="45.00136" lon="5.45925">
        <ele>807.38</ele>
        <time>2024-01-30T08:26:53Z</time>
      </trkpt>
      <trkpt lat="45.00136" lon="5.45851">
        <ele>800.18</ele>
        <time>2024-01-30T08:27:07Z</time>
      </trkpt>
      <trkpt lat="45.00131" lon="5.45775">
        <ele>798.23</ele>
        <time>2024-01-30T08:27:14Z</time>
      </trkpt>
      <trkpt lat="45.00136" lon="5.45749">
        <ele>797.04</ele>
        <time>2024-01-30T08:27:16Z</time>
      </trkpt>
      <trkpt lat="45.00152" lon="5.45728">
        <ele>792.53</ele>
        <time>2024-01-30T08:27:19Z</time>
      </trkpt>
      <trkpt lat="45.00189" lon="5.45688">
        <ele>785.72</ele>
        <time>2024-01-30T08:27:24Z</time>
      </trkpt>
      <trkpt lat="45.00211" lon="5.45654">
        <ele>781.2</ele>
        <time>2024-01-30T08:27:28Z</time>
      </trkpt>
      <trkpt lat="45.00228" lon="5.45638">
        <ele>777.59</ele>
        <time>2024-01-30T08:27:30Z</time>
      </trkpt>
      <trkpt lat="45.00255" lon="5.45604">
        <ele>771.83</ele>
        <time>2024-01-30T08:27:34Z</time>
      </trkpt>
      <trkpt lat="45.00265" lon="5.45584">
        <ele>770.09</ele>
        <time>2024-01-30T08:27:36Z</time>
      </trkpt>
      <trkpt lat="45.00281" lon="5.45507">
        <ele>767.9</ele>
        <time>2024-01-30T08:27:42Z</time>
      </trkpt>
      <trkpt lat="45.00297" lon="5.4546">
        <ele>763.08</ele>
        <time>2024-01-30T08:27:45Z</time>
      </trkpt>
      <trkpt lat="45.00309" lon="5.45394">
        <ele>761.43</ele>
        <time>2024-01-30T08:27:51Z</time>
      </trkpt>
      <trkpt lat="45.00338" lon="5.45204">
        <ele>747.22</ele>
        <time>2024-01-30T08:28:05Z</time>
      </trkpt>
      <trkpt lat="45.00339" lon="5.45184">
        <ele>744.54</ele>
        <time>2024-01-30T08:28:07Z</time>
      </trkpt>
      <trkpt lat="45.00316" lon="5.45122">
        <ele>742.66</ele>
        <time>2024-01-30T08:28:13Z</time>
      </trkpt>
      <trkpt lat="45.00318" lon="5.45114">
        <ele>741.02</ele>
        <time>2024-01-30T08:28:14Z</time>
      </trkpt>
      <trkpt lat="45.0032" lon="5.45114">
        <ele>741.02</ele>
        <time>2024-01-30T08:28:14Z</time>
      </trkpt>
      <trkpt lat="45.00325" lon="5.45114">
        <ele>740.22</ele>
        <time>2024-01-30T08:28:14Z</time>
      </trkpt>
      <trkpt lat="45.00285" lon="5.45032">
        <ele>740.64</ele>
        <time>2024-01-30T08:28:23Z</time>
      </trkpt>
      <trkpt lat="45.00232" lon="5.44978">
        <ele>742.05</ele>
        <time>2024-01-30T08:28:30Z</time>
      </trkpt>
      <trkpt lat="45.00255" lon="5.44954">
        <ele>737.94</ele>
        <time>2024-01-30T08:28:37Z</time>
      </trkpt>
      <trkpt lat="45.00267" lon="5.44883">
        <ele>732.15</ele>
        <time>2024-01-30T08:28:47Z</time>
      </trkpt>
      <trkpt lat="45.00292" lon="5.44815">
        <ele>725.95</ele>
        <time>2024-01-30T08:28:59Z</time>
      </trkpt>
      <trkpt lat="45.00323" lon="5.44762">
        <ele>720.14</ele>
        <time>2024-01-30T08:29:09Z</time>
      </trkpt>
      <trkpt lat="45.00341" lon="5.44754">
        <ele>718.2</ele>
        <time>2024-01-30T08:29:11Z</time>
      </trkpt>
      <trkpt lat="45.0036" lon="5.44742">
        <ele>716.05</ele>
        <time>2024-01-30T08:29:14Z</time>
      </trkpt>
      <trkpt lat="45.00384" lon="5.44747">
        <ele>713.74</ele>
        <time>2024-01-30T08:29:17Z</time>
      </trkpt>
      <trkpt lat="45.00395" lon="5.44743">
        <ele>712.64</ele>
        <time>2024-01-30T08:29:19Z</time>
      </trkpt>
      <trkpt lat="45.00396" lon="5.44742">
        <ele>712.21</ele>
        <time>2024-01-30T08:29:19Z</time>
      </trkpt>
      <trkpt lat="45.00385" lon="5.44713">
        <ele>711.67</ele>
        <time>2024-01-30T08:29:22Z</time>
      </trkpt>
      <trkpt lat="45.00355" lon="5.44592">
        <ele>708.48</ele>
        <time>2024-01-30T08:29:34Z</time>
      </trkpt>
      <trkpt lat="45.00343" lon="5.44543">
        <ele>705.33</ele>
        <time>2024-01-30T08:29:39Z</time>
      </trkpt>
      <trkpt lat="45.00344" lon="5.44519">
        <ele>704.11</ele>
        <time>2024-01-30T08:29:42Z</time>
      </trkpt>
      <trkpt lat="45.00352" lon="5.44476">
        <ele>701.14</ele>
        <time>2024-01-30T08:29:46Z</time>
      </trkpt>
      <trkpt lat="45.00353" lon="5.44462">
        <ele>700.58</ele>
        <time>2024-01-30T08:29:48Z</time>
      </trkpt>
      <trkpt lat="45.00344" lon="5.44395">
        <ele>698.32</ele>
        <time>2024-01-30T08:29:54Z</time>
      </trkpt>
      <trkpt lat="45.00342" lon="5.44355">
        <ele>699.42</ele>
        <time>2024-01-30T08:29:58Z</time>
      </trkpt>
      <trkpt lat="45.00343" lon="5.4427">
        <ele>698.78</ele>
        <time>2024-01-30T08:30:06Z</time>
      </trkpt>
      <trkpt lat="45.00349" lon="5.44234">
        <ele>692.52</ele>
        <time>2024-01-30T08:30:10Z</time>
      </trkpt>
      <trkpt lat="45.00352" lon="5.44225">
        <ele>692.37</ele>
        <time>2024-01-30T08:30:11Z</time>
      </trkpt>
      <trkpt lat="45.00353" lon="5.44219">
        <ele>690.65</ele>
        <time>2024-01-30T08:30:12Z</time>
      </trkpt>
      <trkpt lat="45.00357" lon="5.44202">
        <ele>689.53</ele>
        <time>2024-01-30T08:30:14Z</time>
      </trkpt>
      <trkpt lat="45.0037" lon="5.44156">
        <ele>689.65</ele>
        <time>2024-01-30T08:30:19Z</time>
      </trkpt>
      <trkpt lat="45.00375" lon="5.44141">
        <ele>690.65</ele>
        <time>2024-01-30T08:30:20Z</time>
      </trkpt>
      <trkpt lat="45.00378" lon="5.44131">
        <ele>692.67</ele>
        <time>2024-01-30T08:30:22Z</time>
      </trkpt>
      <trkpt lat="45.0036" lon="5.44119">
        <ele>691.54</ele>
        <time>2024-01-30T08:30:25Z</time>
      </trkpt>
      <trkpt lat="45.0031" lon="5.44047">
        <ele>691.61</ele>
        <time>2024-01-30T08:30:36Z</time>
      </trkpt>
      <trkpt lat="45.00305" lon="5.44037">
        <ele>691.84</ele>
        <time>2024-01-30T08:30:37Z</time>
      </trkpt>
      <trkpt lat="45.00303" lon="5.44024">
        <ele>691.59</ele>
        <time>2024-01-30T08:30:39Z</time>
      </trkpt>
      <trkpt lat="45.00307" lon="5.43976">
        <ele>689.8</ele>
        <time>2024-01-30T08:30:45Z</time>
      </trkpt>
      <trkpt lat="45.00316" lon="5.43882">
        <ele>686.64</ele>
        <time>2024-01-30T08:30:57Z</time>
      </trkpt>
      <trkpt lat="45.00329" lon="5.43767">
        <ele>686.64</ele>
        <time>2024-01-30T08:31:11Z</time>
      </trkpt>
      <trkpt lat="45.00329" lon="5.43747">
        <ele>686.78</ele>
        <time>2024-01-30T08:31:13Z</time>
      </trkpt>
      <trkpt lat="45.00326" lon="5.43719">
        <ele>686.83</ele>
        <time>2024-01-30T08:31:17Z</time>
      </trkpt>
      <trkpt lat="45.0032" lon="5.43705">
        <ele>686.84</ele>
        <time>2024-01-30T08:31:19Z</time>
      </trkpt>
      <trkpt lat="45.00302" lon="5.43685">
        <ele>686.66</ele>
        <time>2024-01-30T08:31:23Z</time>
      </trkpt>
      <trkpt lat="45.00276" lon="5.4367">
        <ele>686.32</ele>
        <time>2024-01-30T08:31:28Z</time>
      </trkpt>
      <trkpt lat="45.0026" lon="5.43664">
        <ele>686.55</ele>
        <time>2024-01-30T08:31:31Z</time>
      </trkpt>
      <trkpt lat="45.00204" lon="5.43638">
        <ele>687.39</ele>
        <time>2024-01-30T08:31:41Z</time>
      </trkpt>
      <trkpt lat="45.00172" lon="5.43616">
        <ele>687.71</ele>
        <time>2024-01-30T08:31:50Z</time>
      </trkpt>
      <trkpt lat="45.00161" lon="5.43601">
        <ele>687.34</ele>
        <time>2024-01-30T08:31:55Z</time>
      </trkpt>
      <trkpt lat="45.0013" lon="5.43589">
        <ele>682.7</ele>
        <time>2024-01-30T08:32:09Z</time>
      </trkpt>
      <trkpt lat="45.0011" lon="5.43585">
        <ele>680</ele>
        <time>2024-01-30T08:32:20Z</time>
      </trkpt>
      <trkpt lat="45.00108" lon="5.43584">
        <ele>680</ele>
        <time>2024-01-30T08:32:21Z</time>
      </trkpt>
      <trkpt lat="45.00088" lon="5.43576">
        <ele>681</ele>
        <time>2024-01-30T08:32:33Z</time>
      </trkpt>
      <trkpt lat="45.00082" lon="5.43571">
        <ele>681.63</ele>
        <time>2024-01-30T08:32:37Z</time>
      </trkpt>
      <trkpt lat="45.00078" lon="5.43557">
        <ele>682.33</ele>
        <time>2024-01-30T08:32:46Z</time>
      </trkpt>
      <trkpt lat="45.0007" lon="5.43558">
        <ele>684.43</ele>
        <time>2024-01-30T08:32:52Z</time>
      </trkpt>
      <trkpt lat="45.00063" lon="5.43579">
        <ele>687.28</ele>
        <time>2024-01-30T08:33:05Z</time>
      </trkpt>
      <trkpt lat="45.00045" lon="5.43609">
        <ele>691.1</ele>
        <time>2024-01-30T08:33:26Z</time>
      </trkpt>
      <trkpt lat="45.00029" lon="5.43615">
        <ele>696.41</ele>
        <time>2024-01-30T08:33:39Z</time>
      </trkpt>
      <trkpt lat="44.99988" lon="5.43599">
        <ele>708.09</ele>
        <time>2024-01-30T08:34:14Z</time>
      </trkpt>
      <trkpt lat="44.99935" lon="5.43564">
        <ele>715.18</ele>
        <time>2024-01-30T08:35:04Z</time>
      </trkpt>
      <trkpt lat="44.99917" lon="5.43536">
        <ele>710.77</ele>
        <time>2024-01-30T08:35:28Z</time>
      </trkpt>
      <trkpt lat="44.99899" lon="5.4352">
        <ele>710.1</ele>
        <time>2024-01-30T08:35:45Z</time>
      </trkpt>
      <trkpt lat="44.99885" lon="5.43518">
        <ele>711.27</ele>
        <time>2024-01-30T08:35:56Z</time>
      </trkpt>
      <trkpt lat="44.99856" lon="5.43521">
        <ele>713.94</ele>
        <time>2024-01-30T08:36:16Z</time>
      </trkpt>
      <trkpt lat="44.99827" lon="5.4352">
        <ele>716.45</ele>
        <time>2024-01-30T08:36:35Z</time>
      </trkpt>
      <trkpt lat="44.99808" lon="5.43516">
        <ele>718.49</ele>
        <time>2024-01-30T08:36:45Z</time>
      </trkpt>
      <trkpt lat="44.99793" lon="5.43541">
        <ele>719.78</ele>
        <time>2024-01-30T08:36:57Z</time>
      </trkpt>
      <trkpt lat="44.99747" lon="5.43575">
        <ele>724.58</ele>
        <time>2024-01-30T08:37:24Z</time>
      </trkpt>
      <trkpt lat="44.99706" lon="5.43592">
        <ele>729.19</ele>
        <time>2024-01-30T08:37:45Z</time>
      </trkpt>
      <trkpt lat="44.99663" lon="5.43595">
        <ele>731.47</ele>
        <time>2024-01-30T08:38:04Z</time>
      </trkpt>
      <trkpt lat="44.99654" lon="5.43604">
        <ele>732.9</ele>
        <time>2024-01-30T08:38:09Z</time>
      </trkpt>
      <trkpt lat="44.99638" lon="5.43606">
        <ele>734.43</ele>
        <time>2024-01-30T08:38:17Z</time>
      </trkpt>
      <trkpt lat="44.99624" lon="5.43596">
        <ele>734</ele>
        <time>2024-01-30T08:38:24Z</time>
      </trkpt>
      <trkpt lat="44.99594" lon="5.43604">
        <ele>736.01</ele>
        <time>2024-01-30T08:38:39Z</time>
      </trkpt>
      <trkpt lat="44.99579" lon="5.43603">
        <ele>736.66</ele>
        <time>2024-01-30T08:38:46Z</time>
      </trkpt>
      <trkpt lat="44.99548" lon="5.43586">
        <ele>737.01</ele>
        <time>2024-01-30T08:39:05Z</time>
      </trkpt>
      <trkpt lat="44.9949" lon="5.43586">
        <ele>740.61</ele>
        <time>2024-01-30T08:39:43Z</time>
      </trkpt>
      <trkpt lat="44.99469" lon="5.43579">
        <ele>742.64</ele>
        <time>2024-01-30T08:39:58Z</time>
      </trkpt>
      <trkpt lat="44.99401" lon="5.43521">
        <ele>755.92</ele>
        <time>2024-01-30T08:41:06Z</time>
      </trkpt>
      <trkpt lat="44.99355" lon="5.43495">
        <ele>763.65</ele>
        <time>2024-01-30T08:41:54Z</time>
      </trkpt>
      <trkpt lat="44.99337" lon="5.43494">
        <ele>765.49</ele>
        <time>2024-01-30T08:42:11Z</time>
      </trkpt>
      <trkpt lat="44.99317" lon="5.43488">
        <ele>771.05</ele>
        <time>2024-01-30T08:42:33Z</time>
      </trkpt>
      <trkpt lat="44.99296" lon="5.43498">
        <ele>771.96</ele>
        <time>2024-01-30T08:42:55Z</time>
      </trkpt>
      <trkpt lat="44.99274" lon="5.43488">
        <ele>776.94</ele>
        <time>2024-01-30T08:43:19Z</time>
      </trkpt>
      <trkpt lat="44.99251" lon="5.43484">
        <ele>780.28</ele>
        <time>2024-01-30T08:43:43Z</time>
      </trkpt>
      <trkpt lat="44.9922" lon="5.43467">
        <ele>785.99</ele>
        <time>2024-01-30T08:44:15Z</time>
      </trkpt>
      <trkpt lat="44.99188" lon="5.43454">
        <ele>791.4</ele>
        <time>2024-01-30T08:44:46Z</time>
      </trkpt>
      <trkpt lat="44.9914" lon="5.43444">
        <ele>797.32</ele>
        <time>2024-01-30T08:45:27Z</time>
      </trkpt>
      <trkpt lat="44.99128" lon="5.43448">
        <ele>798.7</ele>
        <time>2024-01-30T08:45:37Z</time>
      </trkpt>
      <trkpt lat="44.99108" lon="5.43443">
        <ele>800.95</ele>
        <time>2024-01-30T08:45:52Z</time>
      </trkpt>
      <trkpt lat="44.99061" lon="5.43454">
        <ele>806.33</ele>
        <time>2024-01-30T08:46:25Z</time>
      </trkpt>
      <trkpt lat="44.99041" lon="5.43463">
        <ele>809.54</ele>
        <time>2024-01-30T08:46:38Z</time>
      </trkpt>
      <trkpt lat="44.98985" lon="5.4347">
        <ele>814.62</ele>
        <time>2024-01-30T08:47:12Z</time>
      </trkpt>
      <trkpt lat="44.98937" lon="5.43447">
        <ele>815.24</ele>
        <time>2024-01-30T08:47:40Z</time>
      </trkpt>
      <trkpt lat="44.98894" lon="5.43454">
        <ele>819.17</ele>
        <time>2024-01-30T08:48:03Z</time>
      </trkpt>
      <trkpt lat="44.98843" lon="5.43433">
        <ele>822.67</ele>
        <time>2024-01-30T08:48:31Z</time>
      </trkpt>
      <trkpt lat="44.98817" lon="5.43431">
        <ele>824.4</ele>
        <time>2024-01-30T08:48:45Z</time>
      </trkpt>
      <trkpt lat="44.98779" lon="5.43424">
        <ele>827.2</ele>
        <time>2024-01-30T08:49:07Z</time>
      </trkpt>
      <trkpt lat="44.98751" lon="5.43409">
        <ele>829.93</ele>
        <time>2024-01-30T08:49:23Z</time>
      </trkpt>
      <trkpt lat="44.98718" lon="5.43397">
        <ele>832.96</ele>
        <time>2024-01-30T08:49:40Z</time>
      </trkpt>
      <trkpt lat="44.98683" lon="5.43403">
        <ele>834.24</ele>
        <time>2024-01-30T08:49:56Z</time>
      </trkpt>
      <trkpt lat="44.98641" lon="5.43401">
        <ele>836.68</ele>
        <time>2024-01-30T08:50:13Z</time>
      </trkpt>
      <trkpt lat="44.98533" lon="5.43384">
        <ele>851.69</ele>
        <time>2024-01-30T08:50:47Z</time>
      </trkpt>
      <trkpt lat="44.98507" lon="5.43379">
        <ele>853.64</ele>
        <time>2024-01-30T08:50:53Z</time>
      </trkpt>
      <trkpt lat="44.98453" lon="5.43358">
        <ele>855.22</ele>
        <time>2024-01-30T08:51:08Z</time>
      </trkpt>
      <trkpt lat="44.98416" lon="5.43366">
        <ele>853.53</ele>
        <time>2024-01-30T08:51:18Z</time>
      </trkpt>
      <trkpt lat="44.98367" lon="5.4336">
        <ele>853.67</ele>
        <time>2024-01-30T08:51:31Z</time>
      </trkpt>
      <trkpt lat="44.98315" lon="5.43371">
        <ele>850.58</ele>
        <time>2024-01-30T08:51:48Z</time>
      </trkpt>
      <trkpt lat="44.98167" lon="5.4335">
        <ele>846.28</ele>
        <time>2024-01-30T08:52:48Z</time>
      </trkpt>
      <trkpt lat="44.98078" lon="5.43314">
        <ele>853.8</ele>
        <time>2024-01-30T08:53:29Z</time>
      </trkpt>
      <trkpt lat="44.98059" lon="5.433">
        <ele>856.57</ele>
        <time>2024-01-30T08:53:37Z</time>
      </trkpt>
      <trkpt lat="44.97958" lon="5.43277">
        <ele>862.55</ele>
        <time>2024-01-30T08:54:15Z</time>
      </trkpt>
      <trkpt lat="44.97891" lon="5.43254">
        <ele>865.75</ele>
        <time>2024-01-30T08:54:36Z</time>
      </trkpt>
      <trkpt lat="44.97763" lon="5.43221">
        <ele>869.6</ele>
        <time>2024-01-30T08:55:20Z</time>
      </trkpt>
      <trkpt lat="44.9771" lon="5.43192">
        <ele>875.33</ele>
        <time>2024-01-30T08:55:43Z</time>
      </trkpt>
      <trkpt lat="44.97578" lon="5.43139">
        <ele>881.28</ele>
        <time>2024-01-30T08:56:45Z</time>
      </trkpt>
      <trkpt lat="44.97553" lon="5.43138">
        <ele>877.9</ele>
        <time>2024-01-30T08:56:56Z</time>
      </trkpt>
      <trkpt lat="44.97382" lon="5.43021">
        <ele>884.75</ele>
        <time>2024-01-30T08:58:03Z</time>
      </trkpt>
      <trkpt lat="44.97349" lon="5.4302">
        <ele>882.84</ele>
        <time>2024-01-30T08:58:13Z</time>
      </trkpt>
      <trkpt lat="44.973" lon="5.43009">
        <ele>883.67</ele>
        <time>2024-01-30T08:58:27Z</time>
      </trkpt>
      <trkpt lat="44.97261" lon="5.42981">
        <ele>886.27</ele>
        <time>2024-01-30T08:58:40Z</time>
      </trkpt>
      <trkpt lat="44.97236" lon="5.42979">
        <ele>885.13</ele>
        <time>2024-01-30T08:58:47Z</time>
      </trkpt>
      <trkpt lat="44.97175" lon="5.42958">
        <ele>884.59</ele>
        <time>2024-01-30T08:59:05Z</time>
      </trkpt>
      <trkpt lat="44.97116" lon="5.42917">
        <ele>884.11</ele>
        <time>2024-01-30T08:59:24Z</time>
      </trkpt>
      <trkpt lat="44.97055" lon="5.42897">
        <ele>882.77</ele>
        <time>2024-01-30T08:59:42Z</time>
      </trkpt>
      <trkpt lat="44.96926" lon="5.42901">
        <ele>877.63</ele>
        <time>2024-01-30T09:00:20Z</time>
      </trkpt>
      <trkpt lat="44.96903" lon="5.42906">
        <ele>876</ele>
        <time>2024-01-30T09:00:26Z</time>
      </trkpt>
      <trkpt lat="44.9686" lon="5.42879">
        <ele>874.96</ele>
        <time>2024-01-30T09:00:34Z</time>
      </trkpt>
      <trkpt lat="44.96852" lon="5.42885">
        <ele>874.41</ele>
        <time>2024-01-30T09:00:35Z</time>
      </trkpt>
      <trkpt lat="44.96812" lon="5.42896">
        <ele>873.26</ele>
        <time>2024-01-30T09:00:42Z</time>
      </trkpt>
      <trkpt lat="44.96809" lon="5.429">
        <ele>873.09</ele>
        <time>2024-01-30T09:00:42Z</time>
      </trkpt>
      <trkpt lat="44.96802" lon="5.42897">
        <ele>873.01</ele>
        <time>2024-01-30T09:00:44Z</time>
      </trkpt>
      <trkpt lat="44.96767" lon="5.42907">
        <ele>872.6</ele>
        <time>2024-01-30T09:00:50Z</time>
      </trkpt>
      <trkpt lat="44.96732" lon="5.429">
        <ele>872.17</ele>
        <time>2024-01-30T09:00:56Z</time>
      </trkpt>
      <trkpt lat="44.96707" lon="5.42885">
        <ele>871.45</ele>
        <time>2024-01-30T09:01:01Z</time>
      </trkpt>
      <trkpt lat="44.96686" lon="5.42858">
        <ele>870.86</ele>
        <time>2024-01-30T09:01:06Z</time>
      </trkpt>
      <trkpt lat="44.96681" lon="5.4283">
        <ele>870.66</ele>
        <time>2024-01-30T09:01:09Z</time>
      </trkpt>
      <trkpt lat="44.96674" lon="5.42822">
        <ele>870.33</ele>
        <time>2024-01-30T09:01:11Z</time>
      </trkpt>
      <trkpt lat="44.96379" lon="5.42647">
        <ele>867.61</ele>
        <time>2024-01-30T09:02:08Z</time>
      </trkpt>
      <trkpt lat="44.96364" lon="5.42644">
        <ele>867.38</ele>
        <time>2024-01-30T09:02:11Z</time>
      </trkpt>
      <trkpt lat="44.96343" lon="5.42646">
        <ele>867.26</ele>
        <time>2024-01-30T09:02:14Z</time>
      </trkpt>
      <trkpt lat="44.96323" lon="5.42651">
        <ele>867.16</ele>
        <time>2024-01-30T09:02:18Z</time>
      </trkpt>
      <trkpt lat="44.96304" lon="5.42653">
        <ele>866.9</ele>
        <time>2024-01-30T09:02:22Z</time>
      </trkpt>
      <trkpt lat="44.96274" lon="5.42649">
        <ele>866.3</ele>
        <time>2024-01-30T09:02:27Z</time>
      </trkpt>
      <trkpt lat="44.96227" lon="5.42616">
        <ele>865.87</ele>
        <time>2024-01-30T09:02:36Z</time>
      </trkpt>
      <trkpt lat="44.96146" lon="5.42533">
        <ele>865.67</ele>
        <time>2024-01-30T09:02:54Z</time>
      </trkpt>
      <trkpt lat="44.96113" lon="5.42527">
        <ele>865.74</ele>
        <time>2024-01-30T09:03:00Z</time>
      </trkpt>
      <trkpt lat="44.96086" lon="5.42523">
        <ele>865.55</ele>
        <time>2024-01-30T09:03:05Z</time>
      </trkpt>
      <trkpt lat="44.96047" lon="5.42507">
        <ele>865.23</ele>
        <time>2024-01-30T09:03:12Z</time>
      </trkpt>
      <trkpt lat="44.96018" lon="5.4251">
        <ele>864.92</ele>
        <time>2024-01-30T09:03:17Z</time>
      </trkpt>
      <trkpt lat="44.95993" lon="5.42495">
        <ele>864.34</ele>
        <time>2024-01-30T09:03:23Z</time>
      </trkpt>
      <trkpt lat="44.95942" lon="5.42416">
        <ele>864.24</ele>
        <time>2024-01-30T09:03:41Z</time>
      </trkpt>
      <trkpt lat="44.95934" lon="5.42359">
        <ele>864.71</ele>
        <time>2024-01-30T09:03:52Z</time>
      </trkpt>
      <trkpt lat="44.95921" lon="5.42326">
        <ele>865.4</ele>
        <time>2024-01-30T09:03:59Z</time>
      </trkpt>
      <trkpt lat="44.95869" lon="5.4229">
        <ele>867.52</ele>
        <time>2024-01-30T09:04:16Z</time>
      </trkpt>
      <trkpt lat="44.95863" lon="5.42293">
        <ele>867.49</ele>
        <time>2024-01-30T09:04:17Z</time>
      </trkpt>
      <trkpt lat="44.95739" lon="5.42361">
        <ele>869.29</ele>
        <time>2024-01-30T09:04:59Z</time>
      </trkpt>
      <trkpt lat="44.95709" lon="5.42381">
        <ele>869.99</ele>
        <time>2024-01-30T09:05:09Z</time>
      </trkpt>
      <trkpt lat="44.9569" lon="5.42406">
        <ele>870.13</ele>
        <time>2024-01-30T09:05:17Z</time>
      </trkpt>
      <trkpt lat="44.95646" lon="5.42475">
        <ele>871.88</ele>
        <time>2024-01-30T09:05:36Z</time>
      </trkpt>
      <trkpt lat="44.95614" lon="5.42504">
        <ele>873.23</ele>
        <time>2024-01-30T09:05:45Z</time>
      </trkpt>
      <trkpt lat="44.95496" lon="5.42575">
        <ele>875.97</ele>
        <time>2024-01-30T09:06:18Z</time>
      </trkpt>
      <trkpt lat="44.95477" lon="5.42584">
        <ele>875.76</ele>
        <time>2024-01-30T09:06:25Z</time>
      </trkpt>
      <trkpt lat="44.95464" lon="5.42592">
        <ele>875.21</ele>
        <time>2024-01-30T09:06:29Z</time>
      </trkpt>
      <trkpt lat="44.95454" lon="5.42584">
        <ele>876.81</ele>
        <time>2024-01-30T09:06:33Z</time>
      </trkpt>
      <trkpt lat="44.95376" lon="5.42559">
        <ele>884.51</ele>
        <time>2024-01-30T09:07:06Z</time>
      </trkpt>
      <trkpt lat="44.95338" lon="5.42547">
        <ele>888.15</ele>
        <time>2024-01-30T09:07:26Z</time>
      </trkpt>
      <trkpt lat="44.95306" lon="5.42532">
        <ele>891.81</ele>
        <time>2024-01-30T09:07:45Z</time>
      </trkpt>
      <trkpt lat="44.95289" lon="5.4253">
        <ele>893.6</ele>
        <time>2024-01-30T09:07:55Z</time>
      </trkpt>
      <trkpt lat="44.95237" lon="5.42537">
        <ele>896.84</ele>
        <time>2024-01-30T09:08:24Z</time>
      </trkpt>
      <trkpt lat="44.95173" lon="5.42533">
        <ele>903.39</ele>
        <time>2024-01-30T09:08:59Z</time>
      </trkpt>
      <trkpt lat="44.95123" lon="5.42556">
        <ele>904.15</ele>
        <time>2024-01-30T09:09:26Z</time>
      </trkpt>
      <trkpt lat="44.95036" lon="5.42561">
        <ele>913.53</ele>
        <time>2024-01-30T09:10:06Z</time>
      </trkpt>
      <trkpt lat="44.94939" lon="5.42529">
        <ele>924.49</ele>
        <time>2024-01-30T09:10:52Z</time>
      </trkpt>
      <trkpt lat="44.94919" lon="5.42527">
        <ele>926.1</ele>
        <time>2024-01-30T09:11:02Z</time>
      </trkpt>
      <trkpt lat="44.94862" lon="5.42532">
        <ele>928.86</ele>
        <time>2024-01-30T09:11:32Z</time>
      </trkpt>
      <trkpt lat="44.94831" lon="5.42527">
        <ele>930.7</ele>
        <time>2024-01-30T09:11:51Z</time>
      </trkpt>
      <trkpt lat="44.94815" lon="5.4252">
        <ele>932.82</ele>
        <time>2024-01-30T09:12:01Z</time>
      </trkpt>
      <trkpt lat="44.94773" lon="5.42488">
        <ele>938.88</ele>
        <time>2024-01-30T09:12:31Z</time>
      </trkpt>
      <trkpt lat="44.9472" lon="5.42465">
        <ele>944.18</ele>
        <time>2024-01-30T09:13:09Z</time>
      </trkpt>
      <trkpt lat="44.94692" lon="5.42439">
        <ele>949.41</ele>
        <time>2024-01-30T09:13:33Z</time>
      </trkpt>
      <trkpt lat="44.94648" lon="5.42411">
        <ele>954.39</ele>
        <time>2024-01-30T09:14:09Z</time>
      </trkpt>
      <trkpt lat="44.94591" lon="5.42355">
        <ele>967.5</ele>
        <time>2024-01-30T09:14:57Z</time>
      </trkpt>
      <trkpt lat="44.94568" lon="5.42339">
        <ele>971.56</ele>
        <time>2024-01-30T09:15:15Z</time>
      </trkpt>
      <trkpt lat="44.94507" lon="5.42305">
        <ele>981.12</ele>
        <time>2024-01-30T09:15:58Z</time>
      </trkpt>
      <trkpt lat="44.94447" lon="5.42261">
        <ele>987.01</ele>
        <time>2024-01-30T09:16:40Z</time>
      </trkpt>
      <trkpt lat="44.94372" lon="5.42221">
        <ele>990.46</ele>
        <time>2024-01-30T09:17:27Z</time>
      </trkpt>
      <trkpt lat="44.94319" lon="5.42183">
        <ele>997.87</ele>
        <time>2024-01-30T09:18:01Z</time>
      </trkpt>
      <trkpt lat="44.943" lon="5.42173">
        <ele>1000</ele>
        <time>2024-01-30T09:18:13Z</time>
      </trkpt>
      <trkpt lat="44.94236" lon="5.42158">
        <ele>1003.26</ele>
        <time>2024-01-30T09:18:51Z</time>
      </trkpt>
      <trkpt lat="44.94171" lon="5.42121">
        <ele>1010.71</ele>
        <time>2024-01-30T09:19:30Z</time>
      </trkpt>
      <trkpt lat="44.94124" lon="5.42103">
        <ele>1015.57</ele>
        <time>2024-01-30T09:19:58Z</time>
      </trkpt>
      <trkpt lat="44.94087" lon="5.42085">
        <ele>1020.05</ele>
        <time>2024-01-30T09:20:20Z</time>
      </trkpt>
      <trkpt lat="44.94072" lon="5.42078">
        <ele>1020.96</ele>
        <time>2024-01-30T09:20:28Z</time>
      </trkpt>
      <trkpt lat="44.94009" lon="5.42059">
        <ele>1025.1</ele>
        <time>2024-01-30T09:21:01Z</time>
      </trkpt>
      <trkpt lat="44.93963" lon="5.4204">
        <ele>1027.95</ele>
        <time>2024-01-30T09:21:22Z</time>
      </trkpt>
      <trkpt lat="44.9394" lon="5.42035">
        <ele>1028.76</ele>
        <time>2024-01-30T09:21:32Z</time>
      </trkpt>
      <trkpt lat="44.93935" lon="5.42031">
        <ele>1029.52</ele>
        <time>2024-01-30T09:21:35Z</time>
      </trkpt>
      <trkpt lat="44.93934" lon="5.42024">
        <ele>1030.94</ele>
        <time>2024-01-30T09:21:37Z</time>
      </trkpt>
      <trkpt lat="44.93937" lon="5.42019">
        <ele>1031.61</ele>
        <time>2024-01-30T09:21:39Z</time>
      </trkpt>
      <trkpt lat="44.93942" lon="5.42015">
        <ele>1032.32</ele>
        <time>2024-01-30T09:21:41Z</time>
      </trkpt>
      <trkpt lat="44.94052" lon="5.4199">
        <ele>1038.58</ele>
        <time>2024-01-30T09:22:25Z</time>
      </trkpt>
      <trkpt lat="44.94203" lon="5.41928">
        <ele>1055.72</ele>
        <time>2024-01-30T09:23:27Z</time>
      </trkpt>
      <trkpt lat="44.94248" lon="5.41926">
        <ele>1055.78</ele>
        <time>2024-01-30T09:23:46Z</time>
      </trkpt>
      <trkpt lat="44.94252" lon="5.41919">
        <ele>1057.03</ele>
        <time>2024-01-30T09:23:49Z</time>
      </trkpt>
      <trkpt lat="44.9425" lon="5.41914">
        <ele>1058.44</ele>
        <time>2024-01-30T09:23:51Z</time>
      </trkpt>
      <trkpt lat="44.94218" lon="5.41911">
        <ele>1060.91</ele>
        <time>2024-01-30T09:24:05Z</time>
      </trkpt>
      <trkpt lat="44.94193" lon="5.41902">
        <ele>1064.41</ele>
        <time>2024-01-30T09:24:17Z</time>
      </trkpt>
      <trkpt lat="44.9413" lon="5.419">
        <ele>1067.21</ele>
        <time>2024-01-30T09:24:47Z</time>
      </trkpt>
      <trkpt lat="44.94064" lon="5.41885">
        <ele>1071.13</ele>
        <time>2024-01-30T09:25:21Z</time>
      </trkpt>
      <trkpt lat="44.94011" lon="5.41869">
        <ele>1074.01</ele>
        <time>2024-01-30T09:25:49Z</time>
      </trkpt>
      <trkpt lat="44.9391" lon="5.41831">
        <ele>1078.84</ele>
        <time>2024-01-30T09:26:44Z</time>
      </trkpt>
      <trkpt lat="44.93889" lon="5.41815">
        <ele>1080.96</ele>
        <time>2024-01-30T09:26:57Z</time>
      </trkpt>
      <trkpt lat="44.93858" lon="5.41786">
        <ele>1085.23</ele>
        <time>2024-01-30T09:27:18Z</time>
      </trkpt>
      <trkpt lat="44.93853" lon="5.41784">
        <ele>1086.34</ele>
        <time>2024-01-30T09:27:21Z</time>
      </trkpt>
      <trkpt lat="44.93814" lon="5.4179">
        <ele>1086.56</ele>
        <time>2024-01-30T09:27:42Z</time>
      </trkpt>
      <trkpt lat="44.93775" lon="5.41777">
        <ele>1089.02</ele>
        <time>2024-01-30T09:28:03Z</time>
      </trkpt>
      <trkpt lat="44.93757" lon="5.41761">
        <ele>1091.48</ele>
        <time>2024-01-30T09:28:14Z</time>
      </trkpt>
      <trkpt lat="44.93736" lon="5.41726">
        <ele>1099.26</ele>
        <time>2024-01-30T09:28:30Z</time>
      </trkpt>
      <trkpt lat="44.93714" lon="5.4171">
        <ele>1103.91</ele>
        <time>2024-01-30T09:28:41Z</time>
      </trkpt>
      <trkpt lat="44.93695" lon="5.4171">
        <ele>1104.81</ele>
        <time>2024-01-30T09:28:49Z</time>
      </trkpt>
      <trkpt lat="44.93662" lon="5.41729">
        <ele>1103.54</ele>
        <time>2024-01-30T09:29:06Z</time>
      </trkpt>
      <trkpt lat="44.93628" lon="5.41736">
        <ele>1105.62</ele>
        <time>2024-01-30T09:29:23Z</time>
      </trkpt>
      <trkpt lat="44.93609" lon="5.41734">
        <ele>1107.45</ele>
        <time>2024-01-30T09:29:32Z</time>
      </trkpt>
      <trkpt lat="44.93577" lon="5.4172">
        <ele>1113.71</ele>
        <time>2024-01-30T09:29:48Z</time>
      </trkpt>
      <trkpt lat="44.93554" lon="5.41728">
        <ele>1111.8</ele>
        <time>2024-01-30T09:29:58Z</time>
      </trkpt>
      <trkpt lat="44.93531" lon="5.41725">
        <ele>1111.33</ele>
        <time>2024-01-30T09:30:09Z</time>
      </trkpt>
      <trkpt lat="44.93517" lon="5.41721">
        <ele>1112.1</ele>
        <time>2024-01-30T09:30:16Z</time>
      </trkpt>
      <trkpt lat="44.93472" lon="5.41695">
        <ele>1116.19</ele>
        <time>2024-01-30T09:30:42Z</time>
      </trkpt>
      <trkpt lat="44.93449" lon="5.41656">
        <ele>1124.08</ele>
        <time>2024-01-30T09:31:02Z</time>
      </trkpt>
      <trkpt lat="44.93443" lon="5.41653">
        <ele>1123.78</ele>
        <time>2024-01-30T09:31:07Z</time>
      </trkpt>
      <trkpt lat="44.93417" lon="5.4166">
        <ele>1122.18</ele>
        <time>2024-01-30T09:31:23Z</time>
      </trkpt>
      <trkpt lat="44.93404" lon="5.41658">
        <ele>1123.37</ele>
        <time>2024-01-30T09:31:30Z</time>
      </trkpt>
      <trkpt lat="44.93374" lon="5.41643">
        <ele>1126.55</ele>
        <time>2024-01-30T09:31:49Z</time>
      </trkpt>
      <trkpt lat="44.93365" lon="5.41635">
        <ele>1127.57</ele>
        <time>2024-01-30T09:31:55Z</time>
      </trkpt>
      <trkpt lat="44.93348" lon="5.41594">
        <ele>1133.93</ele>
        <time>2024-01-30T09:32:13Z</time>
      </trkpt>
      <trkpt lat="44.93342" lon="5.41587">
        <ele>1135.6</ele>
        <time>2024-01-30T09:32:18Z</time>
      </trkpt>
      <trkpt lat="44.93333" lon="5.41583">
        <ele>1135.36</ele>
        <time>2024-01-30T09:32:22Z</time>
      </trkpt>
      <trkpt lat="44.9331" lon="5.41583">
        <ele>1136.65</ele>
        <time>2024-01-30T09:32:35Z</time>
      </trkpt>
      <trkpt lat="44.93293" lon="5.41586">
        <ele>1136.99</ele>
        <time>2024-01-30T09:32:43Z</time>
      </trkpt>
      <trkpt lat="44.93267" lon="5.41596">
        <ele>1137.98</ele>
        <time>2024-01-30T09:32:56Z</time>
      </trkpt>
      <trkpt lat="44.93212" lon="5.41614">
        <ele>1141.04</ele>
        <time>2024-01-30T09:33:19Z</time>
      </trkpt>
      <trkpt lat="44.93195" lon="5.41612">
        <ele>1142.05</ele>
        <time>2024-01-30T09:33:25Z</time>
      </trkpt>
      <trkpt lat="44.93173" lon="5.41607">
        <ele>1141.93</ele>
        <time>2024-01-30T09:33:31Z</time>
      </trkpt>
      <trkpt lat="44.93141" lon="5.4161">
        <ele>1141.2</ele>
        <time>2024-01-30T09:33:38Z</time>
      </trkpt>
      <trkpt lat="44.93088" lon="5.41606">
        <ele>1140.79</ele>
        <time>2024-01-30T09:33:47Z</time>
      </trkpt>
      <trkpt lat="44.93075" lon="5.41602">
        <ele>1140.55</ele>
        <time>2024-01-30T09:33:49Z</time>
      </trkpt>
      <trkpt lat="44.93035" lon="5.41569">
        <ele>1137.38</ele>
        <time>2024-01-30T09:33:55Z</time>
      </trkpt>
      <trkpt lat="44.93025" lon="5.41564">
        <ele>1136.52</ele>
        <time>2024-01-30T09:33:56Z</time>
      </trkpt>
      <trkpt lat="44.93002" lon="5.41568">
        <ele>1135.87</ele>
        <time>2024-01-30T09:33:59Z</time>
      </trkpt>
      <trkpt lat="44.92994" lon="5.41566">
        <ele>1135.39</ele>
        <time>2024-01-30T09:34:00Z</time>
      </trkpt>
      <trkpt lat="44.92952" lon="5.41514">
        <ele>1127.08</ele>
        <time>2024-01-30T09:34:08Z</time>
      </trkpt>
      <trkpt lat="44.92916" lon="5.41495">
        <ele>1122.41</ele>
        <time>2024-01-30T09:34:12Z</time>
      </trkpt>
      <trkpt lat="44.92895" lon="5.41491">
        <ele>1119.6</ele>
        <time>2024-01-30T09:34:15Z</time>
      </trkpt>
      <trkpt lat="44.92881" lon="5.41484">
        <ele>1117.46</ele>
        <time>2024-01-30T09:34:17Z</time>
      </trkpt>
      <trkpt lat="44.92874" lon="5.41459">
        <ele>1115.28</ele>
        <time>2024-01-30T09:34:19Z</time>
      </trkpt>
      <trkpt lat="44.92867" lon="5.41445">
        <ele>1113.51</ele>
        <time>2024-01-30T09:34:21Z</time>
      </trkpt>
      <trkpt lat="44.9284" lon="5.41417">
        <ele>1110.02</ele>
        <time>2024-01-30T09:34:25Z</time>
      </trkpt>
      <trkpt lat="44.92805" lon="5.41399">
        <ele>1106.59</ele>
        <time>2024-01-30T09:34:30Z</time>
      </trkpt>
      <trkpt lat="44.92789" lon="5.41387">
        <ele>1104.95</ele>
        <time>2024-01-30T09:34:32Z</time>
      </trkpt>
      <trkpt lat="44.92741" lon="5.41359">
        <ele>1102.74</ele>
        <time>2024-01-30T09:34:39Z</time>
      </trkpt>
      <trkpt lat="44.92718" lon="5.4135">
        <ele>1102.48</ele>
        <time>2024-01-30T09:34:43Z</time>
      </trkpt>
      <trkpt lat="44.92696" lon="5.41348">
        <ele>1101.7</ele>
        <time>2024-01-30T09:34:47Z</time>
      </trkpt>
      <trkpt lat="44.92661" lon="5.41319">
        <ele>1099.58</ele>
        <time>2024-01-30T09:34:57Z</time>
      </trkpt>
      <trkpt lat="44.92642" lon="5.41309">
        <ele>1098.15</ele>
        <time>2024-01-30T09:35:03Z</time>
      </trkpt>
      <trkpt lat="44.92634" lon="5.4131">
        <ele>1097.69</ele>
        <time>2024-01-30T09:35:06Z</time>
      </trkpt>
      <trkpt lat="44.92629" lon="5.41311">
        <ele>1097.48</ele>
        <time>2024-01-30T09:35:08Z</time>
      </trkpt>
      <trkpt lat="44.92621" lon="5.41326">
        <ele>1097.67</ele>
        <time>2024-01-30T09:35:15Z</time>
      </trkpt>
      <trkpt lat="44.92621" lon="5.41336">
        <ele>1097.92</ele>
        <time>2024-01-30T09:35:18Z</time>
      </trkpt>
      <trkpt lat="44.92631" lon="5.41372">
        <ele>1098.27</ele>
        <time>2024-01-30T09:35:32Z</time>
      </trkpt>
      <trkpt lat="44.9263" lon="5.41384">
        <ele>1098.13</ele>
        <time>2024-01-30T09:35:37Z</time>
      </trkpt>
      <trkpt lat="44.92625" lon="5.41396">
        <ele>1098.27</ele>
        <time>2024-01-30T09:35:42Z</time>
      </trkpt>
      <trkpt lat="44.92608" lon="5.41381">
        <ele>1098.98</ele>
        <time>2024-01-30T09:35:55Z</time>
      </trkpt>
      <trkpt lat="44.92577" lon="5.41367">
        <ele>1099.9</ele>
        <time>2024-01-30T09:36:14Z</time>
      </trkpt>
      <trkpt lat="44.92554" lon="5.41371">
        <ele>1100.58</ele>
        <time>2024-01-30T09:36:29Z</time>
      </trkpt>
      <trkpt lat="44.92546" lon="5.41382">
        <ele>1101.77</ele>
        <time>2024-01-30T09:36:36Z</time>
      </trkpt>
      <trkpt lat="44.92544" lon="5.41402">
        <ele>1103.27</ele>
        <time>2024-01-30T09:36:45Z</time>
      </trkpt>
      <trkpt lat="44.92531" lon="5.4143">
        <ele>1105.65</ele>
        <time>2024-01-30T09:37:00Z</time>
      </trkpt>
      <trkpt lat="44.92505" lon="5.4145">
        <ele>1107.83</ele>
        <time>2024-01-30T09:37:18Z</time>
      </trkpt>
      <trkpt lat="44.92451" lon="5.41509">
        <ele>1119.43</ele>
        <time>2024-01-30T09:37:57Z</time>
      </trkpt>
      <trkpt lat="44.92425" lon="5.41514">
        <ele>1122.54</ele>
        <time>2024-01-30T09:38:12Z</time>
      </trkpt>
      <trkpt lat="44.92388" lon="5.41515">
        <ele>1124.29</ele>
        <time>2024-01-30T09:38:33Z</time>
      </trkpt>
      <trkpt lat="44.92349" lon="5.41523">
        <ele>1125.07</ele>
        <time>2024-01-30T09:38:54Z</time>
      </trkpt>
      <trkpt lat="44.92222" lon="5.41521">
        <ele>1137.13</ele>
        <time>2024-01-30T09:39:59Z</time>
      </trkpt>
      <trkpt lat="44.92165" lon="5.41534">
        <ele>1142.41</ele>
        <time>2024-01-30T09:40:26Z</time>
      </trkpt>
      <trkpt lat="44.92135" lon="5.41529">
        <ele>1146.31</ele>
        <time>2024-01-30T09:40:40Z</time>
      </trkpt>
      <trkpt lat="44.92117" lon="5.41532">
        <ele>1147.66</ele>
        <time>2024-01-30T09:40:49Z</time>
      </trkpt>
      <trkpt lat="44.92084" lon="5.41543">
        <ele>1150.3</ele>
        <time>2024-01-30T09:41:05Z</time>
      </trkpt>
      <trkpt lat="44.92064" lon="5.41558">
        <ele>1150.31</ele>
        <time>2024-01-30T09:41:15Z</time>
      </trkpt>
      <trkpt lat="44.9205" lon="5.41565">
        <ele>1151.13</ele>
        <time>2024-01-30T09:41:22Z</time>
      </trkpt>
      <trkpt lat="44.92038" lon="5.41566">
        <ele>1151.79</ele>
        <time>2024-01-30T09:41:27Z</time>
      </trkpt>
      <trkpt lat="44.92021" lon="5.41563">
        <ele>1154.42</ele>
        <time>2024-01-30T09:41:34Z</time>
      </trkpt>
      <trkpt lat="44.91979" lon="5.41572">
        <ele>1156.06</ele>
        <time>2024-01-30T09:41:52Z</time>
      </trkpt>
      <trkpt lat="44.91962" lon="5.4157">
        <ele>1157.34</ele>
        <time>2024-01-30T09:41:59Z</time>
      </trkpt>
      <trkpt lat="44.91946" lon="5.4156">
        <ele>1159.47</ele>
        <time>2024-01-30T09:42:06Z</time>
      </trkpt>
      <trkpt lat="44.91934" lon="5.41559">
        <ele>1159.95</ele>
        <time>2024-01-30T09:42:10Z</time>
      </trkpt>
      <trkpt lat="44.91841" lon="5.41586">
        <ele>1158.73</ele>
        <time>2024-01-30T09:42:49Z</time>
      </trkpt>
      <trkpt lat="44.91736" lon="5.41594">
        <ele>1168.35</ele>
        <time>2024-01-30T09:43:34Z</time>
      </trkpt>
      <trkpt lat="44.91661" lon="5.41594">
        <ele>1175.11</ele>
        <time>2024-01-30T09:44:14Z</time>
      </trkpt>
      <trkpt lat="44.91603" lon="5.4158">
        <ele>1181.21</ele>
        <time>2024-01-30T09:44:50Z</time>
      </trkpt>
      <trkpt lat="44.91538" lon="5.41548">
        <ele>1192.39</ele>
        <time>2024-01-30T09:45:39Z</time>
      </trkpt>
      <trkpt lat="44.91515" lon="5.41533">
        <ele>1194.33</ele>
        <time>2024-01-30T09:45:58Z</time>
      </trkpt>
      <trkpt lat="44.9148" lon="5.41503">
        <ele>1197.97</ele>
        <time>2024-01-30T09:46:28Z</time>
      </trkpt>
      <trkpt lat="44.91449" lon="5.41488">
        <ele>1197.57</ele>
        <time>2024-01-30T09:46:50Z</time>
      </trkpt>
      <trkpt lat="44.91428" lon="5.41463">
        <ele>1199.13</ele>
        <time>2024-01-30T09:47:06Z</time>
      </trkpt>
      <trkpt lat="44.91414" lon="5.41447">
        <ele>1201.08</ele>
        <time>2024-01-30T09:47:16Z</time>
      </trkpt>
      <trkpt lat="44.91371" lon="5.41435">
        <ele>1204.9</ele>
        <time>2024-01-30T09:47:37Z</time>
      </trkpt>
      <trkpt lat="44.91325" lon="5.4144">
        <ele>1204.68</ele>
        <time>2024-01-30T09:47:58Z</time>
      </trkpt>
      <trkpt lat="44.91314" lon="5.41444">
        <ele>1204.24</ele>
        <time>2024-01-30T09:48:04Z</time>
      </trkpt>
      <trkpt lat="44.91288" lon="5.41462">
        <ele>1201.77</ele>
        <time>2024-01-30T09:48:18Z</time>
      </trkpt>
      <trkpt lat="44.91263" lon="5.41459">
        <ele>1203.07</ele>
        <time>2024-01-30T09:48:27Z</time>
      </trkpt>
      <trkpt lat="44.91211" lon="5.41446">
        <ele>1202.45</ele>
        <time>2024-01-30T09:48:44Z</time>
      </trkpt>
      <trkpt lat="44.91189" lon="5.41434">
        <ele>1202.19</ele>
        <time>2024-01-30T09:48:51Z</time>
      </trkpt>
      <trkpt lat="44.91162" lon="5.41408">
        <ele>1203.88</ele>
        <time>2024-01-30T09:49:02Z</time>
      </trkpt>
      <trkpt lat="44.91155" lon="5.41405">
        <ele>1204.69</ele>
        <time>2024-01-30T09:49:05Z</time>
      </trkpt>
      <trkpt lat="44.91148" lon="5.41406">
        <ele>1205.73</ele>
        <time>2024-01-30T09:49:07Z</time>
      </trkpt>
      <trkpt lat="44.91108" lon="5.41422">
        <ele>1206.29</ele>
        <time>2024-01-30T09:49:24Z</time>
      </trkpt>
      <trkpt lat="44.91041" lon="5.41424">
        <ele>1209.89</ele>
        <time>2024-01-30T09:49:51Z</time>
      </trkpt>
      <trkpt lat="44.90994" lon="5.41413">
        <ele>1212.39</ele>
        <time>2024-01-30T09:50:07Z</time>
      </trkpt>
      <trkpt lat="44.90928" lon="5.41406">
        <ele>1214.33</ele>
        <time>2024-01-30T09:50:27Z</time>
      </trkpt>
      <trkpt lat="44.90777" lon="5.41366">
        <ele>1214.24</ele>
        <time>2024-01-30T09:51:06Z</time>
      </trkpt>
      <trkpt lat="44.90687" lon="5.41375">
        <ele>1199</ele>
        <time>2024-01-30T09:51:28Z</time>
      </trkpt>
      <trkpt lat="44.90675" lon="5.41373">
        <ele>1197.78</ele>
        <time>2024-01-30T09:51:31Z</time>
      </trkpt>
      <trkpt lat="44.90652" lon="5.41362">
        <ele>1197.08</ele>
        <time>2024-01-30T09:51:37Z</time>
      </trkpt>
      <trkpt lat="44.90625" lon="5.41339">
        <ele>1197.9</ele>
        <time>2024-01-30T09:51:44Z</time>
      </trkpt>
      <trkpt lat="44.90612" lon="5.41332">
        <ele>1197.46</ele>
        <time>2024-01-30T09:51:48Z</time>
      </trkpt>
      <trkpt lat="44.90559" lon="5.41323">
        <ele>1192.92</ele>
        <time>2024-01-30T09:52:01Z</time>
      </trkpt>
      <trkpt lat="44.90538" lon="5.41325">
        <ele>1191.25</ele>
        <time>2024-01-30T09:52:06Z</time>
      </trkpt>
      <trkpt lat="44.90518" lon="5.41332">
        <ele>1188.74</ele>
        <time>2024-01-30T09:52:11Z</time>
      </trkpt>
      <trkpt lat="44.90491" lon="5.41347">
        <ele>1186.8</ele>
        <time>2024-01-30T09:52:19Z</time>
      </trkpt>
      <trkpt lat="44.90437" lon="5.41382">
        <ele>1182.95</ele>
        <time>2024-01-30T09:52:36Z</time>
      </trkpt>
      <trkpt lat="44.90413" lon="5.41396">
        <ele>1182.02</ele>
        <time>2024-01-30T09:52:45Z</time>
      </trkpt>
      <trkpt lat="44.9038" lon="5.41399">
        <ele>1183.12</ele>
        <time>2024-01-30T09:52:55Z</time>
      </trkpt>
      <trkpt lat="44.90345" lon="5.41417">
        <ele>1182.07</ele>
        <time>2024-01-30T09:53:09Z</time>
      </trkpt>
      <trkpt lat="44.90172" lon="5.41449">
        <ele>1191.91</ele>
        <time>2024-01-30T09:54:29Z</time>
      </trkpt>
      <trkpt lat="44.90145" lon="5.41461">
        <ele>1192.26</ele>
        <time>2024-01-30T09:54:44Z</time>
      </trkpt>
      <trkpt lat="44.90127" lon="5.41464">
        <ele>1192.56</ele>
        <time>2024-01-30T09:54:53Z</time>
      </trkpt>
      <trkpt lat="44.90055" lon="5.41411">
        <ele>1201.09</ele>
        <time>2024-01-30T09:55:35Z</time>
      </trkpt>
      <trkpt lat="44.90047" lon="5.41412">
        <ele>1200.92</ele>
        <time>2024-01-30T09:55:39Z</time>
      </trkpt>
      <trkpt lat="44.90028" lon="5.41427">
        <ele>1200.19</ele>
        <time>2024-01-30T09:55:50Z</time>
      </trkpt>
      <trkpt lat="44.90016" lon="5.41428">
        <ele>1200.16</ele>
        <time>2024-01-30T09:55:56Z</time>
      </trkpt>
      <trkpt lat="44.89992" lon="5.41424">
        <ele>1200.36</ele>
        <time>2024-01-30T09:56:09Z</time>
      </trkpt>
      <trkpt lat="44.89953" lon="5.4141">
        <ele>1200.81</ele>
        <time>2024-01-30T09:56:30Z</time>
      </trkpt>
      <trkpt lat="44.89934" lon="5.41414">
        <ele>1200.67</ele>
        <time>2024-01-30T09:56:40Z</time>
      </trkpt>
      <trkpt lat="44.89901" lon="5.4143">
        <ele>1200.39</ele>
        <time>2024-01-30T09:56:58Z</time>
      </trkpt>
      <trkpt lat="44.8986" lon="5.4143">
        <ele>1201.93</ele>
        <time>2024-01-30T09:57:17Z</time>
      </trkpt>
      <trkpt lat="44.89841" lon="5.41447">
        <ele>1202.48</ele>
        <time>2024-01-30T09:57:28Z</time>
      </trkpt>
      <trkpt lat="44.89782" lon="5.41452">
        <ele>1206.42</ele>
        <time>2024-01-30T09:57:53Z</time>
      </trkpt>
      <trkpt lat="44.89766" lon="5.41448">
        <ele>1206.94</ele>
        <time>2024-01-30T09:58:00Z</time>
      </trkpt>
      <trkpt lat="44.89738" lon="5.41434">
        <ele>1206.98</ele>
        <time>2024-01-30T09:58:11Z</time>
      </trkpt>
      <trkpt lat="44.89658" lon="5.41419">
        <ele>1204.48</ele>
        <time>2024-01-30T09:58:39Z</time>
      </trkpt>
      <trkpt lat="44.89629" lon="5.41418">
        <ele>1204.93</ele>
        <time>2024-01-30T09:58:47Z</time>
      </trkpt>
      <trkpt lat="44.89537" lon="5.41368">
        <ele>1202.45</ele>
        <time>2024-01-30T09:59:15Z</time>
      </trkpt>
      <trkpt lat="44.89492" lon="5.41361">
        <ele>1201.67</ele>
        <time>2024-01-30T09:59:30Z</time>
      </trkpt>
      <trkpt lat="44.89453" lon="5.41342">
        <ele>1202.22</ele>
        <time>2024-01-30T09:59:43Z</time>
      </trkpt>
      <trkpt lat="44.89434" lon="5.41338">
        <ele>1203.18</ele>
        <time>2024-01-30T09:59:50Z</time>
      </trkpt>
      <trkpt lat="44.89408" lon="5.41298">
        <ele>1206.48</ele>
        <time>2024-01-30T10:00:04Z</time>
      </trkpt>
      <trkpt lat="44.89389" lon="5.41244">
        <ele>1208.81</ele>
        <time>2024-01-30T10:00:22Z</time>
      </trkpt>
      <trkpt lat="44.89378" lon="5.41239">
        <ele>1209.67</ele>
        <time>2024-01-30T10:00:27Z</time>
      </trkpt>
      <trkpt lat="44.89392" lon="5.41201">
        <ele>1209.63</ele>
        <time>2024-01-30T10:00:40Z</time>
      </trkpt>
      <trkpt lat="44.89393" lon="5.41149">
        <ele>1211.86</ele>
        <time>2024-01-30T10:00:57Z</time>
      </trkpt>
      <trkpt lat="44.89304" lon="5.41151">
        <ele>1213.62</ele>
        <time>2024-01-30T10:01:39Z</time>
      </trkpt>
      <trkpt lat="44.89246" lon="5.41146">
        <ele>1212.64</ele>
        <time>2024-01-30T10:02:05Z</time>
      </trkpt>
      <trkpt lat="44.89208" lon="5.41121">
        <ele>1212.51</ele>
        <time>2024-01-30T10:02:24Z</time>
      </trkpt>
      <trkpt lat="44.89189" lon="5.41121">
        <ele>1212.45</ele>
        <time>2024-01-30T10:02:32Z</time>
      </trkpt>
      <trkpt lat="44.89148" lon="5.411">
        <ele>1211.31</ele>
        <time>2024-01-30T10:02:50Z</time>
      </trkpt>
      <trkpt lat="44.89132" lon="5.411">
        <ele>1211.02</ele>
        <time>2024-01-30T10:02:57Z</time>
      </trkpt>
      <trkpt lat="44.89102" lon="5.41134">
        <ele>1213.73</ele>
        <time>2024-01-30T10:03:12Z</time>
      </trkpt>
      <trkpt lat="44.8908" lon="5.41138">
        <ele>1214.56</ele>
        <time>2024-01-30T10:03:21Z</time>
      </trkpt>
      <trkpt lat="44.89006" lon="5.41084">
        <ele>1215.35</ele>
        <time>2024-01-30T10:03:57Z</time>
      </trkpt>
      <trkpt lat="44.88978" lon="5.41076">
        <ele>1215.82</ele>
        <time>2024-01-30T10:04:11Z</time>
      </trkpt>
      <trkpt lat="44.88938" lon="5.41035">
        <ele>1213.89</ele>
        <time>2024-01-30T10:04:33Z</time>
      </trkpt>
      <trkpt lat="44.88925" lon="5.41032">
        <ele>1214.7</ele>
        <time>2024-01-30T10:04:40Z</time>
      </trkpt>
      <trkpt lat="44.88896" lon="5.41058">
        <ele>1221.26</ele>
        <time>2024-01-30T10:04:58Z</time>
      </trkpt>
      <trkpt lat="44.88879" lon="5.41051">
        <ele>1224.09</ele>
        <time>2024-01-30T10:05:07Z</time>
      </trkpt>
      <trkpt lat="44.88854" lon="5.41009">
        <ele>1226.37</ele>
        <time>2024-01-30T10:05:27Z</time>
      </trkpt>
      <trkpt lat="44.88848" lon="5.40982">
        <ele>1227.15</ele>
        <time>2024-01-30T10:05:38Z</time>
      </trkpt>
      <trkpt lat="44.88829" lon="5.40967">
        <ele>1229.42</ele>
        <time>2024-01-30T10:05:50Z</time>
      </trkpt>
      <trkpt lat="44.88777" lon="5.40968">
        <ele>1234.27</ele>
        <time>2024-01-30T10:06:16Z</time>
      </trkpt>
      <trkpt lat="44.88769" lon="5.40958">
        <ele>1234.51</ele>
        <time>2024-01-30T10:06:22Z</time>
      </trkpt>
      <trkpt lat="44.8877" lon="5.40941">
        <ele>1234.4</ele>
        <time>2024-01-30T10:06:27Z</time>
      </trkpt>
      <trkpt lat="44.88774" lon="5.40922">
        <ele>1234.24</ele>
        <time>2024-01-30T10:06:34Z</time>
      </trkpt>
      <trkpt lat="44.88773" lon="5.40903">
        <ele>1235.09</ele>
        <time>2024-01-30T10:06:40Z</time>
      </trkpt>
      <trkpt lat="44.88759" lon="5.40875">
        <ele>1237.68</ele>
        <time>2024-01-30T10:06:51Z</time>
      </trkpt>
      <trkpt lat="44.88745" lon="5.40861">
        <ele>1240.33</ele>
        <time>2024-01-30T10:06:58Z</time>
      </trkpt>
      <trkpt lat="44.8873" lon="5.40857">
        <ele>1242</ele>
        <time>2024-01-30T10:07:05Z</time>
      </trkpt>
      <trkpt lat="44.88704" lon="5.40859">
        <ele>1243.51</ele>
        <time>2024-01-30T10:07:16Z</time>
      </trkpt>
      <trkpt lat="44.88668" lon="5.40871">
        <ele>1245.06</ele>
        <time>2024-01-30T10:07:29Z</time>
      </trkpt>
      <trkpt lat="44.88656" lon="5.40873">
        <ele>1246.21</ele>
        <time>2024-01-30T10:07:33Z</time>
      </trkpt>
      <trkpt lat="44.88647" lon="5.40869">
        <ele>1247.25</ele>
        <time>2024-01-30T10:07:36Z</time>
      </trkpt>
      <trkpt lat="44.88639" lon="5.40853">
        <ele>1249.2</ele>
        <time>2024-01-30T10:07:40Z</time>
      </trkpt>
      <trkpt lat="44.88636" lon="5.40815">
        <ele>1252.34</ele>
        <time>2024-01-30T10:07:49Z</time>
      </trkpt>
      <trkpt lat="44.88627" lon="5.40797">
        <ele>1254.79</ele>
        <time>2024-01-30T10:07:53Z</time>
      </trkpt>
      <trkpt lat="44.88605" lon="5.40784">
        <ele>1255.96</ele>
        <time>2024-01-30T10:08:00Z</time>
      </trkpt>
      <trkpt lat="44.88586" lon="5.40779">
        <ele>1255.85</ele>
        <time>2024-01-30T10:08:05Z</time>
      </trkpt>
      <trkpt lat="44.88565" lon="5.4078">
        <ele>1254.96</ele>
        <time>2024-01-30T10:08:10Z</time>
      </trkpt>
      <trkpt lat="44.88551" lon="5.40784">
        <ele>1254.11</ele>
        <time>2024-01-30T10:08:13Z</time>
      </trkpt>
      <trkpt lat="44.88533" lon="5.408">
        <ele>1252.49</ele>
        <time>2024-01-30T10:08:18Z</time>
      </trkpt>
      <trkpt lat="44.88521" lon="5.40805">
        <ele>1251.88</ele>
        <time>2024-01-30T10:08:21Z</time>
      </trkpt>
      <trkpt lat="44.885" lon="5.40805">
        <ele>1251.15</ele>
        <time>2024-01-30T10:08:26Z</time>
      </trkpt>
      <trkpt lat="44.88489" lon="5.40809">
        <ele>1250.36</ele>
        <time>2024-01-30T10:08:28Z</time>
      </trkpt>
      <trkpt lat="44.88479" lon="5.40816">
        <ele>1249.46</ele>
        <time>2024-01-30T10:08:31Z</time>
      </trkpt>
      <trkpt lat="44.88451" lon="5.40854">
        <ele>1245.29</ele>
        <time>2024-01-30T10:08:39Z</time>
      </trkpt>
      <trkpt lat="44.88451" lon="5.40869">
        <ele>1244.03</ele>
        <time>2024-01-30T10:08:41Z</time>
      </trkpt>
      <trkpt lat="44.88455" lon="5.40888">
        <ele>1242.78</ele>
        <time>2024-01-30T10:08:44Z</time>
      </trkpt>
      <trkpt lat="44.8849" lon="5.40942">
        <ele>1241.77</ele>
        <time>2024-01-30T10:08:55Z</time>
      </trkpt>
      <trkpt lat="44.88482" lon="5.40965">
        <ele>1238.5</ele>
        <time>2024-01-30T10:08:58Z</time>
      </trkpt>
      <trkpt lat="44.88432" lon="5.40989">
        <ele>1227.08</ele>
        <time>2024-01-30T10:09:09Z</time>
      </trkpt>
      <trkpt lat="44.88401" lon="5.40989">
        <ele>1222.56</ele>
        <time>2024-01-30T10:09:15Z</time>
      </trkpt>
      <trkpt lat="44.88297" lon="5.40957">
        <ele>1215.66</ele>
        <time>2024-01-30T10:09:38Z</time>
      </trkpt>
      <trkpt lat="44.88262" lon="5.40959">
        <ele>1212.34</ele>
        <time>2024-01-30T10:09:47Z</time>
      </trkpt>
      <trkpt lat="44.88234" lon="5.40951">
        <ele>1210.69</ele>
        <time>2024-01-30T10:09:54Z</time>
      </trkpt>
      <trkpt lat="44.88216" lon="5.40954">
        <ele>1207.79</ele>
        <time>2024-01-30T10:09:59Z</time>
      </trkpt>
      <trkpt lat="44.88182" lon="5.40971">
        <ele>1203.62</ele>
        <time>2024-01-30T10:10:10Z</time>
      </trkpt>
      <trkpt lat="44.88137" lon="5.40975">
        <ele>1201.15</ele>
        <time>2024-01-30T10:10:27Z</time>
      </trkpt>
      <trkpt lat="44.88124" lon="5.4097">
        <ele>1200.72</ele>
        <time>2024-01-30T10:10:33Z</time>
      </trkpt>
      <trkpt lat="44.88084" lon="5.40942">
        <ele>1200.01</ele>
        <time>2024-01-30T10:10:53Z</time>
      </trkpt>
      <trkpt lat="44.88068" lon="5.40938">
        <ele>1200.45</ele>
        <time>2024-01-30T10:11:00Z</time>
      </trkpt>
      <trkpt lat="44.8805" lon="5.40934">
        <ele>1200.84</ele>
        <time>2024-01-30T10:11:09Z</time>
      </trkpt>
      <trkpt lat="44.87995" lon="5.40933">
        <ele>1203.85</ele>
        <time>2024-01-30T10:11:36Z</time>
      </trkpt>
      <trkpt lat="44.87971" lon="5.40929">
        <ele>1205.16</ele>
        <time>2024-01-30T10:11:49Z</time>
      </trkpt>
      <trkpt lat="44.87945" lon="5.40922">
        <ele>1207.55</ele>
        <time>2024-01-30T10:12:03Z</time>
      </trkpt>
      <trkpt lat="44.87923" lon="5.40907">
        <ele>1208.51</ele>
        <time>2024-01-30T10:12:17Z</time>
      </trkpt>
      <trkpt lat="44.87896" lon="5.4088">
        <ele>1207.76</ele>
        <time>2024-01-30T10:12:35Z</time>
      </trkpt>
      <trkpt lat="44.87855" lon="5.40857">
        <ele>1208.26</ele>
        <time>2024-01-30T10:12:56Z</time>
      </trkpt>
      <trkpt lat="44.87837" lon="5.40854">
        <ele>1211.98</ele>
        <time>2024-01-30T10:13:05Z</time>
      </trkpt>
      <trkpt lat="44.878" lon="5.4086">
        <ele>1218.4</ele>
        <time>2024-01-30T10:13:20Z</time>
      </trkpt>
      <trkpt lat="44.8779" lon="5.40854">
        <ele>1219.81</ele>
        <time>2024-01-30T10:13:24Z</time>
      </trkpt>
      <trkpt lat="44.87784" lon="5.40846">
        <ele>1219.17</ele>
        <time>2024-01-30T10:13:27Z</time>
      </trkpt>
      <trkpt lat="44.87764" lon="5.40791">
        <ele>1214.43</ele>
        <time>2024-01-30T10:13:40Z</time>
      </trkpt>
      <trkpt lat="44.87724" lon="5.40706">
        <ele>1204.51</ele>
        <time>2024-01-30T10:14:02Z</time>
      </trkpt>
      <trkpt lat="44.87712" lon="5.40697">
        <ele>1204.98</ele>
        <time>2024-01-30T10:14:05Z</time>
      </trkpt>
      <trkpt lat="44.87665" lon="5.40635">
        <ele>1201.07</ele>
        <time>2024-01-30T10:14:19Z</time>
      </trkpt>
      <trkpt lat="44.87658" lon="5.40638">
        <ele>1201.69</ele>
        <time>2024-01-30T10:14:20Z</time>
      </trkpt>
      <trkpt lat="44.87652" lon="5.40635">
        <ele>1202.97</ele>
        <time>2024-01-30T10:14:21Z</time>
      </trkpt>
      <trkpt lat="44.87624" lon="5.40615">
        <ele>1202.51</ele>
        <time>2024-01-30T10:14:27Z</time>
      </trkpt>
      <trkpt lat="44.8761" lon="5.40607">
        <ele>1202.98</ele>
        <time>2024-01-30T10:14:29Z</time>
      </trkpt>
      <trkpt lat="44.8756" lon="5.406">
        <ele>1207.89</ele>
        <time>2024-01-30T10:14:38Z</time>
      </trkpt>
      <trkpt lat="44.87522" lon="5.40586">
        <ele>1209.02</ele>
        <time>2024-01-30T10:14:46Z</time>
      </trkpt>
      <trkpt lat="44.87492" lon="5.40584">
        <ele>1212.72</ele>
        <time>2024-01-30T10:14:53Z</time>
      </trkpt>
      <trkpt lat="44.87438" lon="5.40598">
        <ele>1219.76</ele>
        <time>2024-01-30T10:15:03Z</time>
      </trkpt>
      <trkpt lat="44.87408" lon="5.40596">
        <ele>1218.82</ele>
        <time>2024-01-30T10:15:08Z</time>
      </trkpt>
      <trkpt lat="44.87375" lon="5.40605">
        <ele>1221.39</ele>
        <time>2024-01-30T10:15:14Z</time>
      </trkpt>
      <trkpt lat="44.87322" lon="5.40634">
        <ele>1224.02</ele>
        <time>2024-01-30T10:15:24Z</time>
      </trkpt>
      <trkpt lat="44.87293" lon="5.40655">
        <ele>1223.71</ele>
        <time>2024-01-30T10:15:31Z</time>
      </trkpt>
      <trkpt lat="44.87277" lon="5.40671">
        <ele>1223.54</ele>
        <time>2024-01-30T10:15:35Z</time>
      </trkpt>
      <trkpt lat="44.87256" lon="5.40697">
        <ele>1223.16</ele>
        <time>2024-01-30T10:15:43Z</time>
      </trkpt>
      <trkpt lat="44.87248" lon="5.40667">
        <ele>1224.49</ele>
        <time>2024-01-30T10:15:54Z</time>
      </trkpt>
      <trkpt lat="44.87208" lon="5.40689">
        <ele>1228.41</ele>
        <time>2024-01-30T10:16:15Z</time>
      </trkpt>
      <trkpt lat="44.87192" lon="5.40692">
        <ele>1229.68</ele>
        <time>2024-01-30T10:16:24Z</time>
      </trkpt>
      <trkpt lat="44.87172" lon="5.40689">
        <ele>1233.12</ele>
        <time>2024-01-30T10:16:36Z</time>
      </trkpt>
      <trkpt lat="44.87089" lon="5.4066">
        <ele>1249.48</ele>
        <time>2024-01-30T10:17:38Z</time>
      </trkpt>
      <trkpt lat="44.86984" lon="5.40615">
        <ele>1265.95</ele>
        <time>2024-01-30T10:19:12Z</time>
      </trkpt>
      <trkpt lat="44.8681" lon="5.40509">
        <ele>1290.55</ele>
        <time>2024-01-30T10:22:01Z</time>
      </trkpt>
      <trkpt lat="44.86607" lon="5.4044">
        <ele>1312.26</ele>
        <time>2024-01-30T10:24:27Z</time>
      </trkpt>
      <trkpt lat="44.86525" lon="5.404">
        <ele>1322.48</ele>
        <time>2024-01-30T10:25:10Z</time>
      </trkpt>
      <trkpt lat="44.8636" lon="5.40378">
        <ele>1319.47</ele>
        <time>2024-01-30T10:26:15Z</time>
      </trkpt>
      <trkpt lat="44.86177" lon="5.40299">
        <ele>1331.21</ele>
        <time>2024-01-30T10:27:30Z</time>
      </trkpt>
      <trkpt lat="44.86033" lon="5.40231">
        <ele>1340.6</ele>
        <time>2024-01-30T10:28:25Z</time>
      </trkpt>
      <trkpt lat="44.85928" lon="5.40204">
        <ele>1339.16</ele>
        <time>2024-01-30T10:28:56Z</time>
      </trkpt>
      <trkpt lat="44.85924" lon="5.40203">
        <ele>1338.68</ele>
        <time>2024-01-30T10:28:57Z</time>
      </trkpt>
      <trkpt lat="44.85796" lon="5.40162">
        <ele>1334.6</ele>
        <time>2024-01-30T10:29:31Z</time>
      </trkpt>
      <trkpt lat="44.85664" lon="5.40181">
        <ele>1326.21</ele>
        <time>2024-01-30T10:30:07Z</time>
      </trkpt>
      <trkpt lat="44.85611" lon="5.40172">
        <ele>1328</ele>
        <time>2024-01-30T10:30:21Z</time>
      </trkpt>
      <trkpt lat="44.85538" lon="5.40175">
        <ele>1327.47</ele>
        <time>2024-01-30T10:30:39Z</time>
      </trkpt>
      <trkpt lat="44.85426" lon="5.40238">
        <ele>1323.03</ele>
        <time>2024-01-30T10:31:07Z</time>
      </trkpt>
      <trkpt lat="44.85398" lon="5.4024">
        <ele>1320.38</ele>
        <time>2024-01-30T10:31:14Z</time>
      </trkpt>
      <trkpt lat="44.85371" lon="5.40232">
        <ele>1318.39</ele>
        <time>2024-01-30T10:31:20Z</time>
      </trkpt>
      <trkpt lat="44.85313" lon="5.40241">
        <ele>1308.31</ele>
        <time>2024-01-30T10:31:33Z</time>
      </trkpt>
      <trkpt lat="44.85254" lon="5.40227">
        <ele>1313.15</ele>
        <time>2024-01-30T10:31:47Z</time>
      </trkpt>
      <trkpt lat="44.85183" lon="5.40257">
        <ele>1308.69</ele>
        <time>2024-01-30T10:32:03Z</time>
      </trkpt>
      <trkpt lat="44.85165" lon="5.40287">
        <ele>1296.1</ele>
        <time>2024-01-30T10:32:09Z</time>
      </trkpt>
      <trkpt lat="44.85142" lon="5.40298">
        <ele>1293</ele>
        <time>2024-01-30T10:32:14Z</time>
      </trkpt>
      <trkpt lat="44.85016" lon="5.40311">
        <ele>1283.7</ele>
        <time>2024-01-30T10:32:42Z</time>
      </trkpt>
      <trkpt lat="44.84942" lon="5.40309">
        <ele>1282.49</ele>
        <time>2024-01-30T10:33:00Z</time>
      </trkpt>
      <trkpt lat="44.84908" lon="5.40288">
        <ele>1291.76</ele>
        <time>2024-01-30T10:33:11Z</time>
      </trkpt>
      <trkpt lat="44.84879" lon="5.40285">
        <ele>1293.27</ele>
        <time>2024-01-30T10:33:19Z</time>
      </trkpt>
      <trkpt lat="44.8485" lon="5.40303">
        <ele>1283.88</ele>
        <time>2024-01-30T10:33:28Z</time>
      </trkpt>
      <trkpt lat="44.84804" lon="5.403">
        <ele>1285.07</ele>
        <time>2024-01-30T10:33:41Z</time>
      </trkpt>
      <trkpt lat="44.84761" lon="5.40272">
        <ele>1298.73</ele>
        <time>2024-01-30T10:33:52Z</time>
      </trkpt>
      <trkpt lat="44.84677" lon="5.40337">
        <ele>1274.6</ele>
        <time>2024-01-30T10:34:14Z</time>
      </trkpt>
      <trkpt lat="44.84634" lon="5.40346">
        <ele>1276.46</ele>
        <time>2024-01-30T10:34:23Z</time>
      </trkpt>
      <trkpt lat="44.84616" lon="5.40364">
        <ele>1269.56</ele>
        <time>2024-01-30T10:34:28Z</time>
      </trkpt>
      <trkpt lat="44.84516" lon="5.40405">
        <ele>1258</ele>
        <time>2024-01-30T10:34:49Z</time>
      </trkpt>
      <trkpt lat="44.84474" lon="5.40405">
        <ele>1260.66</ele>
        <time>2024-01-30T10:34:58Z</time>
      </trkpt>
      <trkpt lat="44.84367" lon="5.40464">
        <ele>1239.95</ele>
        <time>2024-01-30T10:35:24Z</time>
      </trkpt>
      <trkpt lat="44.84346" lon="5.40472">
        <ele>1238.03</ele>
        <time>2024-01-30T10:35:29Z</time>
      </trkpt>
      <trkpt lat="44.84291" lon="5.40488">
        <ele>1234.97</ele>
        <time>2024-01-30T10:35:43Z</time>
      </trkpt>
      <trkpt lat="44.84229" lon="5.40501">
        <ele>1237.12</ele>
        <time>2024-01-30T10:36:01Z</time>
      </trkpt>
      <trkpt lat="44.8422" lon="5.40508">
        <ele>1236.26</ele>
        <time>2024-01-30T10:36:04Z</time>
      </trkpt>
      <trkpt lat="44.84213" lon="5.4053">
        <ele>1232.42</ele>
        <time>2024-01-30T10:36:10Z</time>
      </trkpt>
      <trkpt lat="44.84148" lon="5.40558">
        <ele>1241.1</ele>
        <time>2024-01-30T10:36:27Z</time>
      </trkpt>
      <trkpt lat="44.84104" lon="5.40579">
        <ele>1245.62</ele>
        <time>2024-01-30T10:36:38Z</time>
      </trkpt>
      <trkpt lat="44.8409" lon="5.40586">
        <ele>1246.62</ele>
        <time>2024-01-30T10:36:41Z</time>
      </trkpt>
      <trkpt lat="44.84087" lon="5.40588">
        <ele>1246.87</ele>
        <time>2024-01-30T10:36:42Z</time>
      </trkpt>
      <trkpt lat="44.84062" lon="5.40591">
        <ele>1247.15</ele>
        <time>2024-01-30T10:36:47Z</time>
      </trkpt>
      <trkpt lat="44.84059" lon="5.40589">
        <ele>1247.21</ele>
        <time>2024-01-30T10:36:47Z</time>
      </trkpt>
      <trkpt lat="44.8404" lon="5.40557">
        <ele>1249.45</ele>
        <time>2024-01-30T10:36:54Z</time>
      </trkpt>
      <trkpt lat="44.84036" lon="5.40543">
        <ele>1252.3</ele>
        <time>2024-01-30T10:36:56Z</time>
      </trkpt>
      <trkpt lat="44.83816" lon="5.39752">
        <ele>1253.42</ele>
        <time>2024-01-30T10:38:18Z</time>
      </trkpt>
      <trkpt lat="44.83813" lon="5.39729">
        <ele>1250.15</ele>
        <time>2024-01-30T10:38:21Z</time>
      </trkpt>
      <trkpt lat="44.83811" lon="5.3971">
        <ele>1246</ele>
        <time>2024-01-30T10:38:22Z</time>
      </trkpt>
      <trkpt lat="44.8381" lon="5.39695">
        <ele>1244.29</ele>
        <time>2024-01-30T10:38:24Z</time>
      </trkpt>
      <trkpt lat="44.8381" lon="5.39674">
        <ele>1242.69</ele>
        <time>2024-01-30T10:38:26Z</time>
      </trkpt>
      <trkpt lat="44.83811" lon="5.39653">
        <ele>1240.61</ele>
        <time>2024-01-30T10:38:28Z</time>
      </trkpt>
      <trkpt lat="44.83811" lon="5.39646">
        <ele>1239.58</ele>
        <time>2024-01-30T10:38:29Z</time>
      </trkpt>
      <trkpt lat="44.83813" lon="5.39634">
        <ele>1239.99</ele>
        <time>2024-01-30T10:38:30Z</time>
      </trkpt>
      <trkpt lat="44.83815" lon="5.39623">
        <ele>1238.66</ele>
        <time>2024-01-30T10:38:32Z</time>
      </trkpt>
      <trkpt lat="44.83818" lon="5.39615">
        <ele>1239.48</ele>
        <time>2024-01-30T10:38:33Z</time>
      </trkpt>
      <trkpt lat="44.8383" lon="5.39588">
        <ele>1241.39</ele>
        <time>2024-01-30T10:38:36Z</time>
      </trkpt>
      <trkpt lat="44.83857" lon="5.39514">
        <ele>1235.63</ele>
        <time>2024-01-30T10:38:43Z</time>
      </trkpt>
      <trkpt lat="44.83869" lon="5.39491">
        <ele>1235.74</ele>
        <time>2024-01-30T10:38:46Z</time>
      </trkpt>
      <trkpt lat="44.83897" lon="5.39449">
        <ele>1235.4</ele>
        <time>2024-01-30T10:38:51Z</time>
      </trkpt>
      <trkpt lat="44.83904" lon="5.39434">
        <ele>1235.82</ele>
        <time>2024-01-30T10:38:52Z</time>
      </trkpt>
      <trkpt lat="44.83917" lon="5.39392">
        <ele>1233.63</ele>
        <time>2024-01-30T10:38:56Z</time>
      </trkpt>
      <trkpt lat="44.83917" lon="5.39372">
        <ele>1233.15</ele>
        <time>2024-01-30T10:38:58Z</time>
      </trkpt>
      <trkpt lat="44.83911" lon="5.39352">
        <ele>1230.49</ele>
        <time>2024-01-30T10:38:59Z</time>
      </trkpt>
      <trkpt lat="44.83887" lon="5.39308">
        <ele>1230.04</ele>
        <time>2024-01-30T10:39:04Z</time>
      </trkpt>
      <trkpt lat="44.83874" lon="5.39288">
        <ele>1228.57</ele>
        <time>2024-01-30T10:39:06Z</time>
      </trkpt>
      <trkpt lat="44.83836" lon="5.39248">
        <ele>1225.78</ele>
        <time>2024-01-30T10:39:11Z</time>
      </trkpt>
      <trkpt lat="44.83728" lon="5.39153">
        <ele>1215.41</ele>
        <time>2024-01-30T10:39:25Z</time>
      </trkpt>
      <trkpt lat="44.83711" lon="5.39132">
        <ele>1220.78</ele>
        <time>2024-01-30T10:39:28Z</time>
      </trkpt>
      <trkpt lat="44.837" lon="5.39112">
        <ele>1227.64</ele>
        <time>2024-01-30T10:39:30Z</time>
      </trkpt>
      <trkpt lat="44.83692" lon="5.3911">
        <ele>1229.03</ele>
        <time>2024-01-30T10:39:31Z</time>
      </trkpt>
      <trkpt lat="44.83688" lon="5.39112">
        <ele>1222.05</ele>
        <time>2024-01-30T10:39:32Z</time>
      </trkpt>
      <trkpt lat="44.83686" lon="5.39116">
        <ele>1215.45</ele>
        <time>2024-01-30T10:39:32Z</time>
      </trkpt>
      <trkpt lat="44.83686" lon="5.39129">
        <ele>1205.78</ele>
        <time>2024-01-30T10:39:33Z</time>
      </trkpt>
      <trkpt lat="44.83709" lon="5.39149">
        <ele>1207.42</ele>
        <time>2024-01-30T10:39:37Z</time>
      </trkpt>
      <trkpt lat="44.83758" lon="5.39211">
        <ele>1203.12</ele>
        <time>2024-01-30T10:39:49Z</time>
      </trkpt>
      <trkpt lat="44.83797" lon="5.39255">
        <ele>1204.08</ele>
        <time>2024-01-30T10:40:03Z</time>
      </trkpt>
      <trkpt lat="44.83838" lon="5.39309">
        <ele>1204.11</ele>
        <time>2024-01-30T10:40:19Z</time>
      </trkpt>
      <trkpt lat="44.83853" lon="5.39339">
        <ele>1203.91</ele>
        <time>2024-01-30T10:40:25Z</time>
      </trkpt>
      <trkpt lat="44.83858" lon="5.39355">
        <ele>1204.58</ele>
        <time>2024-01-30T10:40:27Z</time>
      </trkpt>
      <trkpt lat="44.83858" lon="5.39367">
        <ele>1204.15</ele>
        <time>2024-01-30T10:40:29Z</time>
      </trkpt>
      <trkpt lat="44.83856" lon="5.39379">
        <ele>1204.78</ele>
        <time>2024-01-30T10:40:30Z</time>
      </trkpt>
      <trkpt lat="44.83841" lon="5.39414">
        <ele>1202.62</ele>
        <time>2024-01-30T10:40:35Z</time>
      </trkpt>
      <trkpt lat="44.83803" lon="5.39467">
        <ele>1195.96</ele>
        <time>2024-01-30T10:40:43Z</time>
      </trkpt>
      <trkpt lat="44.83774" lon="5.39519">
        <ele>1194.21</ele>
        <time>2024-01-30T10:40:49Z</time>
      </trkpt>
      <trkpt lat="44.83743" lon="5.39557">
        <ele>1187.44</ele>
        <time>2024-01-30T10:40:54Z</time>
      </trkpt>
      <trkpt lat="44.8373" lon="5.39587">
        <ele>1188.77</ele>
        <time>2024-01-30T10:40:57Z</time>
      </trkpt>
      <trkpt lat="44.83721" lon="5.39618">
        <ele>1190.98</ele>
        <time>2024-01-30T10:41:00Z</time>
      </trkpt>
      <trkpt lat="44.8371" lon="5.39694">
        <ele>1191.46</ele>
        <time>2024-01-30T10:41:07Z</time>
      </trkpt>
      <trkpt lat="44.83685" lon="5.3973">
        <ele>1184.9</ele>
        <time>2024-01-30T10:41:11Z</time>
      </trkpt>
      <trkpt lat="44.83674" lon="5.39765">
        <ele>1184.69</ele>
        <time>2024-01-30T10:41:15Z</time>
      </trkpt>
      <trkpt lat="44.83668" lon="5.39769">
        <ele>1183.26</ele>
        <time>2024-01-30T10:41:16Z</time>
      </trkpt>
      <trkpt lat="44.83663" lon="5.39769">
        <ele>1181</ele>
        <time>2024-01-30T10:41:16Z</time>
      </trkpt>
      <trkpt lat="44.8366" lon="5.39766">
        <ele>1177.92</ele>
        <time>2024-01-30T10:41:17Z</time>
      </trkpt>
      <trkpt lat="44.83659" lon="5.39754">
        <ele>1175.6</ele>
        <time>2024-01-30T10:41:18Z</time>
      </trkpt>
      <trkpt lat="44.83692" lon="5.39693">
        <ele>1180.78</ele>
        <time>2024-01-30T10:41:25Z</time>
      </trkpt>
      <trkpt lat="44.83695" lon="5.39683">
        <ele>1182.15</ele>
        <time>2024-01-30T10:41:26Z</time>
      </trkpt>
      <trkpt lat="44.83698" lon="5.39606">
        <ele>1177.38</ele>
        <time>2024-01-30T10:41:33Z</time>
      </trkpt>
      <trkpt lat="44.83715" lon="5.39541">
        <ele>1171.34</ele>
        <time>2024-01-30T10:41:39Z</time>
      </trkpt>
      <trkpt lat="44.83751" lon="5.39468">
        <ele>1170.58</ele>
        <time>2024-01-30T10:41:47Z</time>
      </trkpt>
      <trkpt lat="44.83774" lon="5.3941">
        <ele>1170.16</ele>
        <time>2024-01-30T10:41:52Z</time>
      </trkpt>
      <trkpt lat="44.83784" lon="5.39376">
        <ele>1170.31</ele>
        <time>2024-01-30T10:41:55Z</time>
      </trkpt>
      <trkpt lat="44.83782" lon="5.39355">
        <ele>1168.19</ele>
        <time>2024-01-30T10:41:57Z</time>
      </trkpt>
      <trkpt lat="44.83775" lon="5.3934">
        <ele>1167.43</ele>
        <time>2024-01-30T10:41:59Z</time>
      </trkpt>
      <trkpt lat="44.83764" lon="5.39324">
        <ele>1164.48</ele>
        <time>2024-01-30T10:42:00Z</time>
      </trkpt>
      <trkpt lat="44.83655" lon="5.39216">
        <ele>1153.68</ele>
        <time>2024-01-30T10:42:16Z</time>
      </trkpt>
      <trkpt lat="44.83448" lon="5.39002">
        <ele>1145.46</ele>
        <time>2024-01-30T10:42:50Z</time>
      </trkpt>
      <trkpt lat="44.83437" lon="5.38995">
        <ele>1143.83</ele>
        <time>2024-01-30T10:42:52Z</time>
      </trkpt>
      <trkpt lat="44.83423" lon="5.38992">
        <ele>1143.51</ele>
        <time>2024-01-30T10:42:54Z</time>
      </trkpt>
      <trkpt lat="44.83408" lon="5.38994">
        <ele>1143.65</ele>
        <time>2024-01-30T10:42:56Z</time>
      </trkpt>
      <trkpt lat="44.83393" lon="5.39001">
        <ele>1143.67</ele>
        <time>2024-01-30T10:42:58Z</time>
      </trkpt>
      <trkpt lat="44.8336" lon="5.3904">
        <ele>1129.42</ele>
        <time>2024-01-30T10:43:03Z</time>
      </trkpt>
      <trkpt lat="44.83349" lon="5.39047">
        <ele>1123.52</ele>
        <time>2024-01-30T10:43:05Z</time>
      </trkpt>
      <trkpt lat="44.83334" lon="5.39046">
        <ele>1124.66</ele>
        <time>2024-01-30T10:43:07Z</time>
      </trkpt>
      <trkpt lat="44.83308" lon="5.39017">
        <ele>1131.08</ele>
        <time>2024-01-30T10:43:11Z</time>
      </trkpt>
      <trkpt lat="44.83295" lon="5.3901">
        <ele>1134.88</ele>
        <time>2024-01-30T10:43:12Z</time>
      </trkpt>
      <trkpt lat="44.83278" lon="5.39012">
        <ele>1135.51</ele>
        <time>2024-01-30T10:43:14Z</time>
      </trkpt>
      <trkpt lat="44.83257" lon="5.3902">
        <ele>1132.92</ele>
        <time>2024-01-30T10:43:17Z</time>
      </trkpt>
      <trkpt lat="44.83217" lon="5.39044">
        <ele>1129.65</ele>
        <time>2024-01-30T10:43:22Z</time>
      </trkpt>
      <trkpt lat="44.83197" lon="5.39052">
        <ele>1130.44</ele>
        <time>2024-01-30T10:43:25Z</time>
      </trkpt>
      <trkpt lat="44.83132" lon="5.39066">
        <ele>1127.43</ele>
        <time>2024-01-30T10:43:33Z</time>
      </trkpt>
      <trkpt lat="44.83092" lon="5.39058">
        <ele>1126.83</ele>
        <time>2024-01-30T10:43:37Z</time>
      </trkpt>
      <trkpt lat="44.83034" lon="5.39054">
        <ele>1117.96</ele>
        <time>2024-01-30T10:43:44Z</time>
      </trkpt>
      <trkpt lat="44.82911" lon="5.39015">
        <ele>1114.16</ele>
        <time>2024-01-30T10:43:59Z</time>
      </trkpt>
      <trkpt lat="44.82837" lon="5.39016">
        <ele>1105.36</ele>
        <time>2024-01-30T10:44:07Z</time>
      </trkpt>
      <trkpt lat="44.82817" lon="5.39013">
        <ele>1103.01</ele>
        <time>2024-01-30T10:44:09Z</time>
      </trkpt>
      <trkpt lat="44.8275" lon="5.38995">
        <ele>1099.28</ele>
        <time>2024-01-30T10:44:17Z</time>
      </trkpt>
      <trkpt lat="44.82701" lon="5.38967">
        <ele>1094.46</ele>
        <time>2024-01-30T10:44:24Z</time>
      </trkpt>
      <trkpt lat="44.82689" lon="5.38954">
        <ele>1095.5</ele>
        <time>2024-01-30T10:44:25Z</time>
      </trkpt>
      <trkpt lat="44.82678" lon="5.38939">
        <ele>1094.66</ele>
        <time>2024-01-30T10:44:27Z</time>
      </trkpt>
      <trkpt lat="44.82604" lon="5.388">
        <ele>1086.07</ele>
        <time>2024-01-30T10:44:44Z</time>
      </trkpt>
      <trkpt lat="44.82601" lon="5.3878">
        <ele>1084.45</ele>
        <time>2024-01-30T10:44:47Z</time>
      </trkpt>
      <trkpt lat="44.826" lon="5.38705">
        <ele>1088.59</ele>
        <time>2024-01-30T10:44:56Z</time>
      </trkpt>
      <trkpt lat="44.82595" lon="5.3867">
        <ele>1088.81</ele>
        <time>2024-01-30T10:45:01Z</time>
      </trkpt>
      <trkpt lat="44.82581" lon="5.38612">
        <ele>1082.25</ele>
        <time>2024-01-30T10:45:08Z</time>
      </trkpt>
      <trkpt lat="44.82571" lon="5.3856">
        <ele>1080.8</ele>
        <time>2024-01-30T10:45:14Z</time>
      </trkpt>
      <trkpt lat="44.82566" lon="5.38538">
        <ele>1080.19</ele>
        <time>2024-01-30T10:45:17Z</time>
      </trkpt>
      <trkpt lat="44.82558" lon="5.38519">
        <ele>1078</ele>
        <time>2024-01-30T10:45:19Z</time>
      </trkpt>
      <trkpt lat="44.82535" lon="5.38482">
        <ele>1077.7</ele>
        <time>2024-01-30T10:45:24Z</time>
      </trkpt>
      <trkpt lat="44.82527" lon="5.38473">
        <ele>1076.85</ele>
        <time>2024-01-30T10:45:26Z</time>
      </trkpt>
      <trkpt lat="44.82517" lon="5.38466">
        <ele>1076.61</ele>
        <time>2024-01-30T10:45:27Z</time>
      </trkpt>
      <trkpt lat="44.82487" lon="5.38454">
        <ele>1072.07</ele>
        <time>2024-01-30T10:45:31Z</time>
      </trkpt>
      <trkpt lat="44.82471" lon="5.38427">
        <ele>1075</ele>
        <time>2024-01-30T10:45:35Z</time>
      </trkpt>
      <trkpt lat="44.82461" lon="5.38427">
        <ele>1072.43</ele>
        <time>2024-01-30T10:45:36Z</time>
      </trkpt>
      <trkpt lat="44.82458" lon="5.38439">
        <ele>1067.72</ele>
        <time>2024-01-30T10:45:37Z</time>
      </trkpt>
      <trkpt lat="44.82466" lon="5.38454">
        <ele>1066.43</ele>
        <time>2024-01-30T10:45:39Z</time>
      </trkpt>
      <trkpt lat="44.82479" lon="5.38466">
        <ele>1065.83</ele>
        <time>2024-01-30T10:45:41Z</time>
      </trkpt>
      <trkpt lat="44.82511" lon="5.38484">
        <ele>1068.37</ele>
        <time>2024-01-30T10:45:45Z</time>
      </trkpt>
      <trkpt lat="44.82524" lon="5.38497">
        <ele>1068.98</ele>
        <time>2024-01-30T10:45:47Z</time>
      </trkpt>
      <trkpt lat="44.8254" lon="5.38529">
        <ele>1067.18</ele>
        <time>2024-01-30T10:45:50Z</time>
      </trkpt>
      <trkpt lat="44.82547" lon="5.38553">
        <ele>1067.77</ele>
        <time>2024-01-30T10:45:52Z</time>
      </trkpt>
      <trkpt lat="44.82557" lon="5.38608">
        <ele>1066.3</ele>
        <time>2024-01-30T10:45:57Z</time>
      </trkpt>
      <trkpt lat="44.82567" lon="5.38715">
        <ele>1062.24</ele>
        <time>2024-01-30T10:46:06Z</time>
      </trkpt>
      <trkpt lat="44.82566" lon="5.38738">
        <ele>1062.41</ele>
        <time>2024-01-30T10:46:08Z</time>
      </trkpt>
      <trkpt lat="44.82553" lon="5.38797">
        <ele>1056.85</ele>
        <time>2024-01-30T10:46:13Z</time>
      </trkpt>
      <trkpt lat="44.82553" lon="5.38814">
        <ele>1055.83</ele>
        <time>2024-01-30T10:46:14Z</time>
      </trkpt>
      <trkpt lat="44.82564" lon="5.38849">
        <ele>1056.5</ele>
        <time>2024-01-30T10:46:17Z</time>
      </trkpt>
      <trkpt lat="44.82603" lon="5.3893">
        <ele>1056.36</ele>
        <time>2024-01-30T10:46:25Z</time>
      </trkpt>
      <trkpt lat="44.82626" lon="5.38988">
        <ele>1050.52</ele>
        <time>2024-01-30T10:46:31Z</time>
      </trkpt>
      <trkpt lat="44.82645" lon="5.39027">
        <ele>1046.24</ele>
        <time>2024-01-30T10:46:36Z</time>
      </trkpt>
      <trkpt lat="44.82656" lon="5.39042">
        <ele>1046.9</ele>
        <time>2024-01-30T10:46:38Z</time>
      </trkpt>
      <trkpt lat="44.82668" lon="5.39052">
        <ele>1046.11</ele>
        <time>2024-01-30T10:46:40Z</time>
      </trkpt>
      <trkpt lat="44.82787" lon="5.39118">
        <ele>1042.56</ele>
        <time>2024-01-30T10:46:57Z</time>
      </trkpt>
      <trkpt lat="44.82831" lon="5.39154">
        <ele>1034.03</ele>
        <time>2024-01-30T10:47:05Z</time>
      </trkpt>
      <trkpt lat="44.82851" lon="5.39159">
        <ele>1033.86</ele>
        <time>2024-01-30T10:47:08Z</time>
      </trkpt>
      <trkpt lat="44.82879" lon="5.39159">
        <ele>1036.1</ele>
        <time>2024-01-30T10:47:11Z</time>
      </trkpt>
      <trkpt lat="44.82901" lon="5.39166">
        <ele>1036.7</ele>
        <time>2024-01-30T10:47:15Z</time>
      </trkpt>
      <trkpt lat="44.82982" lon="5.39214">
        <ele>1033.54</ele>
        <time>2024-01-30T10:47:26Z</time>
      </trkpt>
      <trkpt lat="44.83027" lon="5.39246">
        <ele>1027.86</ele>
        <time>2024-01-30T10:47:33Z</time>
      </trkpt>
      <trkpt lat="44.83048" lon="5.3925">
        <ele>1026.48</ele>
        <time>2024-01-30T10:47:36Z</time>
      </trkpt>
      <trkpt lat="44.83068" lon="5.3925">
        <ele>1026.17</ele>
        <time>2024-01-30T10:47:39Z</time>
      </trkpt>
      <trkpt lat="44.83102" lon="5.39273">
        <ele>1022.22</ele>
        <time>2024-01-30T10:47:44Z</time>
      </trkpt>
      <trkpt lat="44.83117" lon="5.39279">
        <ele>1020.51</ele>
        <time>2024-01-30T10:47:46Z</time>
      </trkpt>
      <trkpt lat="44.83172" lon="5.39289">
        <ele>1021.11</ele>
        <time>2024-01-30T10:47:54Z</time>
      </trkpt>
      <trkpt lat="44.8321" lon="5.39307">
        <ele>1016.8</ele>
        <time>2024-01-30T10:48:00Z</time>
      </trkpt>
      <trkpt lat="44.83231" lon="5.39304">
        <ele>1016.11</ele>
        <time>2024-01-30T10:48:03Z</time>
      </trkpt>
      <trkpt lat="44.83261" lon="5.39286">
        <ele>1017.93</ele>
        <time>2024-01-30T10:48:08Z</time>
      </trkpt>
      <trkpt lat="44.8327" lon="5.39284">
        <ele>1017.05</ele>
        <time>2024-01-30T10:48:09Z</time>
      </trkpt>
      <trkpt lat="44.83287" lon="5.3929">
        <ele>1014.59</ele>
        <time>2024-01-30T10:48:12Z</time>
      </trkpt>
      <trkpt lat="44.83299" lon="5.39299">
        <ele>1011.23</ele>
        <time>2024-01-30T10:48:14Z</time>
      </trkpt>
      <trkpt lat="44.83311" lon="5.39303">
        <ele>1009.57</ele>
        <time>2024-01-30T10:48:15Z</time>
      </trkpt>
      <trkpt lat="44.83365" lon="5.3931">
        <ele>1009.37</ele>
        <time>2024-01-30T10:48:23Z</time>
      </trkpt>
      <trkpt lat="44.83376" lon="5.39314">
        <ele>1010.19</ele>
        <time>2024-01-30T10:48:25Z</time>
      </trkpt>
      <trkpt lat="44.83383" lon="5.3932">
        <ele>1009.95</ele>
        <time>2024-01-30T10:48:26Z</time>
      </trkpt>
      <trkpt lat="44.83389" lon="5.39332">
        <ele>1009.17</ele>
        <time>2024-01-30T10:48:27Z</time>
      </trkpt>
      <trkpt lat="44.83393" lon="5.39347">
        <ele>1008.12</ele>
        <time>2024-01-30T10:48:29Z</time>
      </trkpt>
      <trkpt lat="44.83395" lon="5.39367">
        <ele>1005.14</ele>
        <time>2024-01-30T10:48:31Z</time>
      </trkpt>
      <trkpt lat="44.83393" lon="5.3939">
        <ele>1002.85</ele>
        <time>2024-01-30T10:48:33Z</time>
      </trkpt>
      <trkpt lat="44.83385" lon="5.39441">
        <ele>1000.21</ele>
        <time>2024-01-30T10:48:38Z</time>
      </trkpt>
      <trkpt lat="44.83371" lon="5.39473">
        <ele>998.08</ele>
        <time>2024-01-30T10:48:41Z</time>
      </trkpt>
      <trkpt lat="44.83338" lon="5.39528">
        <ele>992.47</ele>
        <time>2024-01-30T10:48:49Z</time>
      </trkpt>
      <trkpt lat="44.833" lon="5.39572">
        <ele>986.39</ele>
        <time>2024-01-30T10:48:58Z</time>
      </trkpt>
      <trkpt lat="44.83272" lon="5.3963">
        <ele>989.32</ele>
        <time>2024-01-30T10:49:06Z</time>
      </trkpt>
      <trkpt lat="44.83258" lon="5.39648">
        <ele>989.13</ele>
        <time>2024-01-30T10:49:09Z</time>
      </trkpt>
      <trkpt lat="44.83235" lon="5.39656">
        <ele>983.45</ele>
        <time>2024-01-30T10:49:12Z</time>
      </trkpt>
      <trkpt lat="44.83217" lon="5.3967">
        <ele>983.5</ele>
        <time>2024-01-30T10:49:16Z</time>
      </trkpt>
      <trkpt lat="44.83199" lon="5.39702">
        <ele>989.62</ele>
        <time>2024-01-30T10:49:20Z</time>
      </trkpt>
      <trkpt lat="44.83187" lon="5.39712">
        <ele>992.14</ele>
        <time>2024-01-30T10:49:22Z</time>
      </trkpt>
      <trkpt lat="44.83165" lon="5.39709">
        <ele>986.74</ele>
        <time>2024-01-30T10:49:25Z</time>
      </trkpt>
      <trkpt lat="44.83135" lon="5.39711">
        <ele>981.46</ele>
        <time>2024-01-30T10:49:29Z</time>
      </trkpt>
      <trkpt lat="44.8311" lon="5.39727">
        <ele>983.1</ele>
        <time>2024-01-30T10:49:32Z</time>
      </trkpt>
      <trkpt lat="44.83063" lon="5.39773">
        <ele>987.23</ele>
        <time>2024-01-30T10:49:39Z</time>
      </trkpt>
      <trkpt lat="44.83049" lon="5.39782">
        <ele>986.01</ele>
        <time>2024-01-30T10:49:40Z</time>
      </trkpt>
      <trkpt lat="44.83004" lon="5.39802">
        <ele>978.8</ele>
        <time>2024-01-30T10:49:45Z</time>
      </trkpt>
      <trkpt lat="44.82958" lon="5.39817">
        <ele>971.27</ele>
        <time>2024-01-30T10:49:51Z</time>
      </trkpt>
      <trkpt lat="44.82931" lon="5.39838">
        <ele>967.88</ele>
        <time>2024-01-30T10:49:55Z</time>
      </trkpt>
      <trkpt lat="44.82923" lon="5.39839">
        <ele>964.86</ele>
        <time>2024-01-30T10:49:56Z</time>
      </trkpt>
      <trkpt lat="44.8292" lon="5.39836">
        <ele>964.81</ele>
        <time>2024-01-30T10:49:56Z</time>
      </trkpt>
      <trkpt lat="44.82918" lon="5.39825">
        <ele>962.78</ele>
        <time>2024-01-30T10:49:57Z</time>
      </trkpt>
      <trkpt lat="44.82919" lon="5.39821">
        <ele>962.35</ele>
        <time>2024-01-30T10:49:58Z</time>
      </trkpt>
      <trkpt lat="44.82926" lon="5.39813">
        <ele>963.49</ele>
        <time>2024-01-30T10:49:59Z</time>
      </trkpt>
      <trkpt lat="44.82965" lon="5.398">
        <ele>968.54</ele>
        <time>2024-01-30T10:50:04Z</time>
      </trkpt>
      <trkpt lat="44.83026" lon="5.39757">
        <ele>968.26</ele>
        <time>2024-01-30T10:50:15Z</time>
      </trkpt>
      <trkpt lat="44.83056" lon="5.39734">
        <ele>968.76</ele>
        <time>2024-01-30T10:50:23Z</time>
      </trkpt>
      <trkpt lat="44.83085" lon="5.397">
        <ele>963.57</ele>
        <time>2024-01-30T10:50:31Z</time>
      </trkpt>
      <trkpt lat="44.83122" lon="5.39667">
        <ele>959.36</ele>
        <time>2024-01-30T10:50:38Z</time>
      </trkpt>
      <trkpt lat="44.83166" lon="5.39637">
        <ele>956.87</ele>
        <time>2024-01-30T10:50:44Z</time>
      </trkpt>
      <trkpt lat="44.8318" lon="5.3962">
        <ele>954.71</ele>
        <time>2024-01-30T10:50:46Z</time>
      </trkpt>
      <trkpt lat="44.83228" lon="5.39549">
        <ele>953.55</ele>
        <time>2024-01-30T10:50:54Z</time>
      </trkpt>
      <trkpt lat="44.83233" lon="5.39537">
        <ele>955.07</ele>
        <time>2024-01-30T10:50:55Z</time>
      </trkpt>
      <trkpt lat="44.83235" lon="5.39512">
        <ele>950.91</ele>
        <time>2024-01-30T10:50:57Z</time>
      </trkpt>
      <trkpt lat="44.83226" lon="5.39487">
        <ele>946.76</ele>
        <time>2024-01-30T10:50:59Z</time>
      </trkpt>
      <trkpt lat="44.83212" lon="5.39472">
        <ele>945.83</ele>
        <time>2024-01-30T10:51:01Z</time>
      </trkpt>
      <trkpt lat="44.83105" lon="5.39446">
        <ele>938.97</ele>
        <time>2024-01-30T10:51:13Z</time>
      </trkpt>
      <trkpt lat="44.83086" lon="5.39439">
        <ele>937.68</ele>
        <time>2024-01-30T10:51:15Z</time>
      </trkpt>
      <trkpt lat="44.83055" lon="5.39419">
        <ele>939.92</ele>
        <time>2024-01-30T10:51:19Z</time>
      </trkpt>
      <trkpt lat="44.83033" lon="5.39409">
        <ele>939</ele>
        <time>2024-01-30T10:51:21Z</time>
      </trkpt>
      <trkpt lat="44.82947" lon="5.39388">
        <ele>932.56</ele>
        <time>2024-01-30T10:51:32Z</time>
      </trkpt>
      <trkpt lat="44.82906" lon="5.39389">
        <ele>929.87</ele>
        <time>2024-01-30T10:51:37Z</time>
      </trkpt>
      <trkpt lat="44.82872" lon="5.39369">
        <ele>931.71</ele>
        <time>2024-01-30T10:51:42Z</time>
      </trkpt>
      <trkpt lat="44.82813" lon="5.39371">
        <ele>925.3</ele>
        <time>2024-01-30T10:51:50Z</time>
      </trkpt>
      <trkpt lat="44.8279" lon="5.39357">
        <ele>927.09</ele>
        <time>2024-01-30T10:51:53Z</time>
      </trkpt>
      <trkpt lat="44.82755" lon="5.39346">
        <ele>923.81</ele>
        <time>2024-01-30T10:51:57Z</time>
      </trkpt>
      <trkpt lat="44.82713" lon="5.3931">
        <ele>926.86</ele>
        <time>2024-01-30T10:52:03Z</time>
      </trkpt>
      <trkpt lat="44.82695" lon="5.39305">
        <ele>925.9</ele>
        <time>2024-01-30T10:52:06Z</time>
      </trkpt>
      <trkpt lat="44.82679" lon="5.39309">
        <ele>922.82</ele>
        <time>2024-01-30T10:52:07Z</time>
      </trkpt>
      <trkpt lat="44.82656" lon="5.39332">
        <ele>910.98</ele>
        <time>2024-01-30T10:52:11Z</time>
      </trkpt>
      <trkpt lat="44.82644" lon="5.39337">
        <ele>908.46</ele>
        <time>2024-01-30T10:52:12Z</time>
      </trkpt>
      <trkpt lat="44.82633" lon="5.39336">
        <ele>908.18</ele>
        <time>2024-01-30T10:52:14Z</time>
      </trkpt>
      <trkpt lat="44.82556" lon="5.39282">
        <ele>912.89</ele>
        <time>2024-01-30T10:52:24Z</time>
      </trkpt>
      <trkpt lat="44.82542" lon="5.39268">
        <ele>910.17</ele>
        <time>2024-01-30T10:52:26Z</time>
      </trkpt>
      <trkpt lat="44.82508" lon="5.39223">
        <ele>908.58</ele>
        <time>2024-01-30T10:52:31Z</time>
      </trkpt>
      <trkpt lat="44.82464" lon="5.39204">
        <ele>904.41</ele>
        <time>2024-01-30T10:52:37Z</time>
      </trkpt>
      <trkpt lat="44.82444" lon="5.39187">
        <ele>903.68</ele>
        <time>2024-01-30T10:52:40Z</time>
      </trkpt>
      <trkpt lat="44.8243" lon="5.39168">
        <ele>902.38</ele>
        <time>2024-01-30T10:52:42Z</time>
      </trkpt>
      <trkpt lat="44.82413" lon="5.39135">
        <ele>903.24</ele>
        <time>2024-01-30T10:52:46Z</time>
      </trkpt>
      <trkpt lat="44.82361" lon="5.39077">
        <ele>897</ele>
        <time>2024-01-30T10:52:55Z</time>
      </trkpt>
      <trkpt lat="44.8234" lon="5.39048">
        <ele>894.26</ele>
        <time>2024-01-30T10:52:58Z</time>
      </trkpt>
      <trkpt lat="44.82329" lon="5.39023">
        <ele>893.35</ele>
        <time>2024-01-30T10:53:01Z</time>
      </trkpt>
      <trkpt lat="44.82325" lon="5.38997">
        <ele>893.45</ele>
        <time>2024-01-30T10:53:03Z</time>
      </trkpt>
      <trkpt lat="44.82327" lon="5.38971">
        <ele>890.73</ele>
        <time>2024-01-30T10:53:06Z</time>
      </trkpt>
      <trkpt lat="44.82338" lon="5.38921">
        <ele>888.77</ele>
        <time>2024-01-30T10:53:11Z</time>
      </trkpt>
      <trkpt lat="44.82338" lon="5.38903">
        <ele>888.47</ele>
        <time>2024-01-30T10:53:12Z</time>
      </trkpt>
      <trkpt lat="44.82336" lon="5.38884">
        <ele>889.67</ele>
        <time>2024-01-30T10:53:14Z</time>
      </trkpt>
      <trkpt lat="44.82325" lon="5.38832">
        <ele>888.36</ele>
        <time>2024-01-30T10:53:19Z</time>
      </trkpt>
      <trkpt lat="44.82323" lon="5.38799">
        <ele>889.79</ele>
        <time>2024-01-30T10:53:22Z</time>
      </trkpt>
      <trkpt lat="44.82316" lon="5.38792">
        <ele>889.78</ele>
        <time>2024-01-30T10:53:24Z</time>
      </trkpt>
      <trkpt lat="44.82308" lon="5.38797">
        <ele>884.28</ele>
        <time>2024-01-30T10:53:25Z</time>
      </trkpt>
      <trkpt lat="44.82306" lon="5.38804">
        <ele>882.24</ele>
        <time>2024-01-30T10:53:25Z</time>
      </trkpt>
      <trkpt lat="44.82325" lon="5.38872">
        <ele>885.48</ele>
        <time>2024-01-30T10:53:32Z</time>
      </trkpt>
      <trkpt lat="44.82327" lon="5.38893">
        <ele>885.54</ele>
        <time>2024-01-30T10:53:34Z</time>
      </trkpt>
      <trkpt lat="44.82326" lon="5.38912">
        <ele>887</ele>
        <time>2024-01-30T10:53:35Z</time>
      </trkpt>
      <trkpt lat="44.82318" lon="5.38945">
        <ele>882.86</ele>
        <time>2024-01-30T10:53:39Z</time>
      </trkpt>
      <trkpt lat="44.82298" lon="5.38995">
        <ele>879.65</ele>
        <time>2024-01-30T10:53:44Z</time>
      </trkpt>
      <trkpt lat="44.82295" lon="5.39013">
        <ele>877.64</ele>
        <time>2024-01-30T10:53:45Z</time>
      </trkpt>
      <trkpt lat="44.82296" lon="5.39032">
        <ele>876.96</ele>
        <time>2024-01-30T10:53:47Z</time>
      </trkpt>
      <trkpt lat="44.82299" lon="5.3905">
        <ele>877.53</ele>
        <time>2024-01-30T10:53:49Z</time>
      </trkpt>
      <trkpt lat="44.82307" lon="5.39075">
        <ele>877.58</ele>
        <time>2024-01-30T10:53:51Z</time>
      </trkpt>
      <trkpt lat="44.82318" lon="5.39099">
        <ele>875.6</ele>
        <time>2024-01-30T10:53:54Z</time>
      </trkpt>
      <trkpt lat="44.82366" lon="5.39181">
        <ele>872.28</ele>
        <time>2024-01-30T10:54:03Z</time>
      </trkpt>
      <trkpt lat="44.82387" lon="5.39235">
        <ele>868.54</ele>
        <time>2024-01-30T10:54:09Z</time>
      </trkpt>
      <trkpt lat="44.82398" lon="5.39254">
        <ele>869.04</ele>
        <time>2024-01-30T10:54:11Z</time>
      </trkpt>
      <trkpt lat="44.82424" lon="5.39281">
        <ele>866.6</ele>
        <time>2024-01-30T10:54:14Z</time>
      </trkpt>
      <trkpt lat="44.82455" lon="5.39301">
        <ele>862.09</ele>
        <time>2024-01-30T10:54:19Z</time>
      </trkpt>
      <trkpt lat="44.82465" lon="5.39311">
        <ele>864.2</ele>
        <time>2024-01-30T10:54:20Z</time>
      </trkpt>
      <trkpt lat="44.82517" lon="5.3938">
        <ele>860.39</ele>
        <time>2024-01-30T10:54:28Z</time>
      </trkpt>
      <trkpt lat="44.82595" lon="5.39443">
        <ele>844.49</ele>
        <time>2024-01-30T10:54:39Z</time>
      </trkpt>
      <trkpt lat="44.82611" lon="5.39449">
        <ele>844.42</ele>
        <time>2024-01-30T10:54:42Z</time>
      </trkpt>
      <trkpt lat="44.82649" lon="5.39449">
        <ele>849.79</ele>
        <time>2024-01-30T10:54:48Z</time>
      </trkpt>
      <trkpt lat="44.82671" lon="5.39453">
        <ele>850.7</ele>
        <time>2024-01-30T10:54:52Z</time>
      </trkpt>
      <trkpt lat="44.8269" lon="5.3947">
        <ele>844.41</ele>
        <time>2024-01-30T10:54:58Z</time>
      </trkpt>
      <trkpt lat="44.82699" lon="5.39474">
        <ele>843.31</ele>
        <time>2024-01-30T10:55:01Z</time>
      </trkpt>
      <trkpt lat="44.82741" lon="5.39482">
        <ele>845.6</ele>
        <time>2024-01-30T10:55:15Z</time>
      </trkpt>
      <trkpt lat="44.8276" lon="5.39489">
        <ele>843.61</ele>
        <time>2024-01-30T10:55:21Z</time>
      </trkpt>
      <trkpt lat="44.82803" lon="5.39524">
        <ele>836.18</ele>
        <time>2024-01-30T10:55:37Z</time>
      </trkpt>
      <trkpt lat="44.82808" lon="5.39533">
        <ele>835.26</ele>
        <time>2024-01-30T10:55:38Z</time>
      </trkpt>
      <trkpt lat="44.8281" lon="5.39554">
        <ele>834.38</ele>
        <time>2024-01-30T10:55:42Z</time>
      </trkpt>
      <trkpt lat="44.82807" lon="5.39563">
        <ele>833.95</ele>
        <time>2024-01-30T10:55:44Z</time>
      </trkpt>
      <trkpt lat="44.82801" lon="5.39571">
        <ele>833.83</ele>
        <time>2024-01-30T10:55:46Z</time>
      </trkpt>
      <trkpt lat="44.82726" lon="5.39641">
        <ele>829.51</ele>
        <time>2024-01-30T10:55:58Z</time>
      </trkpt>
      <trkpt lat="44.82653" lon="5.39695">
        <ele>823.66</ele>
        <time>2024-01-30T10:56:07Z</time>
      </trkpt>
      <trkpt lat="44.82616" lon="5.39744">
        <ele>826.09</ele>
        <time>2024-01-30T10:56:13Z</time>
      </trkpt>
      <trkpt lat="44.82593" lon="5.39761">
        <ele>822.71</ele>
        <time>2024-01-30T10:56:16Z</time>
      </trkpt>
      <trkpt lat="44.82569" lon="5.39789">
        <ele>816.46</ele>
        <time>2024-01-30T10:56:20Z</time>
      </trkpt>
      <trkpt lat="44.82562" lon="5.39789">
        <ele>812.56</ele>
        <time>2024-01-30T10:56:21Z</time>
      </trkpt>
      <trkpt lat="44.82557" lon="5.39777">
        <ele>811.17</ele>
        <time>2024-01-30T10:56:22Z</time>
      </trkpt>
      <trkpt lat="44.82558" lon="5.39767">
        <ele>810.25</ele>
        <time>2024-01-30T10:56:23Z</time>
      </trkpt>
      <trkpt lat="44.82564" lon="5.3976">
        <ele>813.26</ele>
        <time>2024-01-30T10:56:24Z</time>
      </trkpt>
      <trkpt lat="44.82602" lon="5.39737">
        <ele>818.42</ele>
        <time>2024-01-30T10:56:30Z</time>
      </trkpt>
      <trkpt lat="44.8261" lon="5.39728">
        <ele>818.93</ele>
        <time>2024-01-30T10:56:32Z</time>
      </trkpt>
      <trkpt lat="44.82634" lon="5.39684">
        <ele>814.79</ele>
        <time>2024-01-30T10:56:38Z</time>
      </trkpt>
      <trkpt lat="44.8265" lon="5.39663">
        <ele>813.5</ele>
        <time>2024-01-30T10:56:42Z</time>
      </trkpt>
      <trkpt lat="44.82664" lon="5.39645">
        <ele>811.61</ele>
        <time>2024-01-30T10:56:45Z</time>
      </trkpt>
      <trkpt lat="44.82708" lon="5.39606">
        <ele>812.21</ele>
        <time>2024-01-30T10:56:52Z</time>
      </trkpt>
      <trkpt lat="44.82718" lon="5.39593">
        <ele>811.56</ele>
        <time>2024-01-30T10:56:54Z</time>
      </trkpt>
      <trkpt lat="44.82723" lon="5.39582">
        <ele>811.58</ele>
        <time>2024-01-30T10:56:55Z</time>
      </trkpt>
      <trkpt lat="44.82725" lon="5.39572">
        <ele>810.32</ele>
        <time>2024-01-30T10:56:56Z</time>
      </trkpt>
      <trkpt lat="44.82721" lon="5.39549">
        <ele>808.96</ele>
        <time>2024-01-30T10:56:58Z</time>
      </trkpt>
      <trkpt lat="44.82701" lon="5.39531">
        <ele>809.85</ele>
        <time>2024-01-30T10:57:01Z</time>
      </trkpt>
      <trkpt lat="44.82677" lon="5.39517">
        <ele>811.78</ele>
        <time>2024-01-30T10:57:04Z</time>
      </trkpt>
      <trkpt lat="44.82588" lon="5.39506">
        <ele>802.27</ele>
        <time>2024-01-30T10:57:13Z</time>
      </trkpt>
      <trkpt lat="44.82561" lon="5.39497">
        <ele>804.71</ele>
        <time>2024-01-30T10:57:16Z</time>
      </trkpt>
      <trkpt lat="44.82524" lon="5.39502">
        <ele>792.55</ele>
        <time>2024-01-30T10:57:20Z</time>
      </trkpt>
      <trkpt lat="44.82507" lon="5.39501">
        <ele>792.28</ele>
        <time>2024-01-30T10:57:22Z</time>
      </trkpt>
      <trkpt lat="44.82489" lon="5.39497">
        <ele>791.16</ele>
        <time>2024-01-30T10:57:24Z</time>
      </trkpt>
      <trkpt lat="44.82452" lon="5.39481">
        <ele>790.17</ele>
        <time>2024-01-30T10:57:29Z</time>
      </trkpt>
      <trkpt lat="44.8242" lon="5.39455">
        <ele>792.79</ele>
        <time>2024-01-30T10:57:33Z</time>
      </trkpt>
      <trkpt lat="44.82408" lon="5.39448">
        <ele>792.78</ele>
        <time>2024-01-30T10:57:35Z</time>
      </trkpt>
      <trkpt lat="44.82344" lon="5.39436">
        <ele>787.13</ele>
        <time>2024-01-30T10:57:43Z</time>
      </trkpt>
      <trkpt lat="44.82306" lon="5.39421">
        <ele>784.98</ele>
        <time>2024-01-30T10:57:49Z</time>
      </trkpt>
      <trkpt lat="44.8229" lon="5.39409">
        <ele>783.85</ele>
        <time>2024-01-30T10:57:51Z</time>
      </trkpt>
      <trkpt lat="44.82262" lon="5.39377">
        <ele>783.7</ele>
        <time>2024-01-30T10:57:56Z</time>
      </trkpt>
      <trkpt lat="44.82228" lon="5.3935">
        <ele>780.04</ele>
        <time>2024-01-30T10:58:01Z</time>
      </trkpt>
      <trkpt lat="44.82217" lon="5.39338">
        <ele>780.1</ele>
        <time>2024-01-30T10:58:02Z</time>
      </trkpt>
      <trkpt lat="44.82207" lon="5.3932">
        <ele>776.05</ele>
        <time>2024-01-30T10:58:04Z</time>
      </trkpt>
      <trkpt lat="44.8218" lon="5.3926">
        <ele>773.16</ele>
        <time>2024-01-30T10:58:11Z</time>
      </trkpt>
      <trkpt lat="44.82172" lon="5.39237">
        <ele>773.1</ele>
        <time>2024-01-30T10:58:13Z</time>
      </trkpt>
      <trkpt lat="44.82158" lon="5.39189">
        <ele>774.75</ele>
        <time>2024-01-30T10:58:18Z</time>
      </trkpt>
      <trkpt lat="44.82154" lon="5.39181">
        <ele>777.28</ele>
        <time>2024-01-30T10:58:18Z</time>
      </trkpt>
      <trkpt lat="44.82149" lon="5.39178">
        <ele>777.44</ele>
        <time>2024-01-30T10:58:19Z</time>
      </trkpt>
      <trkpt lat="44.82143" lon="5.39182">
        <ele>774.37</ele>
        <time>2024-01-30T10:58:20Z</time>
      </trkpt>
      <trkpt lat="44.82141" lon="5.39191">
        <ele>769.75</ele>
        <time>2024-01-30T10:58:21Z</time>
      </trkpt>
      <trkpt lat="44.82165" lon="5.39254">
        <ele>768.12</ele>
        <time>2024-01-30T10:58:28Z</time>
      </trkpt>
      <trkpt lat="44.8219" lon="5.39365">
        <ele>763.37</ele>
        <time>2024-01-30T10:58:39Z</time>
      </trkpt>
      <trkpt lat="44.822" lon="5.39386">
        <ele>762.31</ele>
        <time>2024-01-30T10:58:41Z</time>
      </trkpt>
      <trkpt lat="44.82247" lon="5.39443">
        <ele>759.51</ele>
        <time>2024-01-30T10:58:49Z</time>
      </trkpt>
      <trkpt lat="44.8228" lon="5.3947">
        <ele>757.12</ele>
        <time>2024-01-30T10:58:54Z</time>
      </trkpt>
      <trkpt lat="44.82309" lon="5.3949">
        <ele>755.17</ele>
        <time>2024-01-30T10:58:58Z</time>
      </trkpt>
      <trkpt lat="44.82345" lon="5.3951">
        <ele>753.18</ele>
        <time>2024-01-30T10:59:03Z</time>
      </trkpt>
      <trkpt lat="44.82376" lon="5.3952">
        <ele>750.9</ele>
        <time>2024-01-30T10:59:07Z</time>
      </trkpt>
      <trkpt lat="44.82399" lon="5.39522">
        <ele>755.42</ele>
        <time>2024-01-30T10:59:10Z</time>
      </trkpt>
      <trkpt lat="44.82406" lon="5.39532">
        <ele>749.26</ele>
        <time>2024-01-30T10:59:11Z</time>
      </trkpt>
      <trkpt lat="44.82405" lon="5.39539">
        <ele>746.42</ele>
        <time>2024-01-30T10:59:12Z</time>
      </trkpt>
      <trkpt lat="44.82399" lon="5.39544">
        <ele>741.85</ele>
        <time>2024-01-30T10:59:13Z</time>
      </trkpt>
      <trkpt lat="44.82262" lon="5.395">
        <ele>741.76</ele>
        <time>2024-01-30T10:59:30Z</time>
      </trkpt>
      <trkpt lat="44.82207" lon="5.39496">
        <ele>739.02</ele>
        <time>2024-01-30T10:59:37Z</time>
      </trkpt>
      <trkpt lat="44.82187" lon="5.39506">
        <ele>735.54</ele>
        <time>2024-01-30T10:59:39Z</time>
      </trkpt>
      <trkpt lat="44.82153" lon="5.39524">
        <ele>730.31</ele>
        <time>2024-01-30T10:59:44Z</time>
      </trkpt>
      <trkpt lat="44.82113" lon="5.39552">
        <ele>723.27</ele>
        <time>2024-01-30T10:59:49Z</time>
      </trkpt>
      <trkpt lat="44.82086" lon="5.39562">
        <ele>717.16</ele>
        <time>2024-01-30T10:59:53Z</time>
      </trkpt>
      <trkpt lat="44.82065" lon="5.3956">
        <ele>719.01</ele>
        <time>2024-01-30T10:59:56Z</time>
      </trkpt>
      <trkpt lat="44.82053" lon="5.39555">
        <ele>720.51</ele>
        <time>2024-01-30T10:59:58Z</time>
      </trkpt>
      <trkpt lat="44.82026" lon="5.39534">
        <ele>722.49</ele>
        <time>2024-01-30T11:00:02Z</time>
      </trkpt>
      <trkpt lat="44.82018" lon="5.39512">
        <ele>723.02</ele>
        <time>2024-01-30T11:00:04Z</time>
      </trkpt>
      <trkpt lat="44.82018" lon="5.39502">
        <ele>723.37</ele>
        <time>2024-01-30T11:00:05Z</time>
      </trkpt>
      <trkpt lat="44.82024" lon="5.3948">
        <ele>725.2</ele>
        <time>2024-01-30T11:00:07Z</time>
      </trkpt>
      <trkpt lat="44.82039" lon="5.39456">
        <ele>725.47</ele>
        <time>2024-01-30T11:00:10Z</time>
      </trkpt>
      <trkpt lat="44.82066" lon="5.39432">
        <ele>723.08</ele>
        <time>2024-01-30T11:00:14Z</time>
      </trkpt>
      <trkpt lat="44.82078" lon="5.39413">
        <ele>720</ele>
        <time>2024-01-30T11:00:17Z</time>
      </trkpt>
      <trkpt lat="44.82084" lon="5.39377">
        <ele>716.85</ele>
        <time>2024-01-30T11:00:21Z</time>
      </trkpt>
      <trkpt lat="44.82082" lon="5.39357">
        <ele>715.49</ele>
        <time>2024-01-30T11:00:23Z</time>
      </trkpt>
      <trkpt lat="44.82074" lon="5.39327">
        <ele>714.48</ele>
        <time>2024-01-30T11:00:26Z</time>
      </trkpt>
      <trkpt lat="44.82066" lon="5.39307">
        <ele>714.74</ele>
        <time>2024-01-30T11:00:28Z</time>
      </trkpt>
      <trkpt lat="44.8206" lon="5.39295">
        <ele>712.61</ele>
        <time>2024-01-30T11:00:30Z</time>
      </trkpt>
      <trkpt lat="44.82049" lon="5.39283">
        <ele>710.95</ele>
        <time>2024-01-30T11:00:32Z</time>
      </trkpt>
      <trkpt lat="44.8201" lon="5.39254">
        <ele>704.38</ele>
        <time>2024-01-30T11:00:37Z</time>
      </trkpt>
      <trkpt lat="44.82" lon="5.3924">
        <ele>704.94</ele>
        <time>2024-01-30T11:00:38Z</time>
      </trkpt>
      <trkpt lat="44.81981" lon="5.392">
        <ele>703.26</ele>
        <time>2024-01-30T11:00:42Z</time>
      </trkpt>
      <trkpt lat="44.81975" lon="5.39193">
        <ele>702.71</ele>
        <time>2024-01-30T11:00:43Z</time>
      </trkpt>
      <trkpt lat="44.81966" lon="5.39192">
        <ele>704.81</ele>
        <time>2024-01-30T11:00:44Z</time>
      </trkpt>
      <trkpt lat="44.81957" lon="5.39196">
        <ele>703.94</ele>
        <time>2024-01-30T11:00:45Z</time>
      </trkpt>
      <trkpt lat="44.81892" lon="5.39259">
        <ele>697.74</ele>
        <time>2024-01-30T11:00:55Z</time>
      </trkpt>
      <trkpt lat="44.81876" lon="5.39269">
        <ele>695.99</ele>
        <time>2024-01-30T11:00:57Z</time>
      </trkpt>
      <trkpt lat="44.81859" lon="5.39275">
        <ele>693.7</ele>
        <time>2024-01-30T11:00:59Z</time>
      </trkpt>
      <trkpt lat="44.81824" lon="5.39276">
        <ele>692.01</ele>
        <time>2024-01-30T11:01:03Z</time>
      </trkpt>
      <trkpt lat="44.81728" lon="5.39259">
        <ele>688.44</ele>
        <time>2024-01-30T11:01:14Z</time>
      </trkpt>
      <trkpt lat="44.81628" lon="5.39238">
        <ele>685.01</ele>
        <time>2024-01-30T11:01:27Z</time>
      </trkpt>
      <trkpt lat="44.81584" lon="5.39235">
        <ele>681.53</ele>
        <time>2024-01-30T11:01:32Z</time>
      </trkpt>
      <trkpt lat="44.81389" lon="5.39274">
        <ele>667.86</ele>
        <time>2024-01-30T11:01:59Z</time>
      </trkpt>
      <trkpt lat="44.8138" lon="5.39273">
        <ele>667.04</ele>
        <time>2024-01-30T11:02:01Z</time>
      </trkpt>
      <trkpt lat="44.81372" lon="5.39267">
        <ele>666.28</ele>
        <time>2024-01-30T11:02:02Z</time>
      </trkpt>
      <trkpt lat="44.81351" lon="5.39229">
        <ele>662.56</ele>
        <time>2024-01-30T11:02:07Z</time>
      </trkpt>
      <trkpt lat="44.81342" lon="5.39222">
        <ele>662.23</ele>
        <time>2024-01-30T11:02:09Z</time>
      </trkpt>
      <trkpt lat="44.81332" lon="5.39223">
        <ele>663.81</ele>
        <time>2024-01-30T11:02:10Z</time>
      </trkpt>
      <trkpt lat="44.81318" lon="5.39231">
        <ele>663.06</ele>
        <time>2024-01-30T11:02:12Z</time>
      </trkpt>
      <trkpt lat="44.81249" lon="5.39328">
        <ele>657.18</ele>
        <time>2024-01-30T11:02:24Z</time>
      </trkpt>
      <trkpt lat="44.81238" lon="5.39357">
        <ele>653.59</ele>
        <time>2024-01-30T11:02:27Z</time>
      </trkpt>
      <trkpt lat="44.81226" lon="5.39406">
        <ele>653.33</ele>
        <time>2024-01-30T11:02:31Z</time>
      </trkpt>
      <trkpt lat="44.81217" lon="5.39426">
        <ele>650.76</ele>
        <time>2024-01-30T11:02:33Z</time>
      </trkpt>
      <trkpt lat="44.81201" lon="5.39439">
        <ele>650.31</ele>
        <time>2024-01-30T11:02:35Z</time>
      </trkpt>
      <trkpt lat="44.81182" lon="5.39444">
        <ele>649.15</ele>
        <time>2024-01-30T11:02:37Z</time>
      </trkpt>
      <trkpt lat="44.8116" lon="5.39439">
        <ele>647.81</ele>
        <time>2024-01-30T11:02:40Z</time>
      </trkpt>
      <trkpt lat="44.81062" lon="5.39386">
        <ele>645.4</ele>
        <time>2024-01-30T11:02:51Z</time>
      </trkpt>
      <trkpt lat="44.80959" lon="5.39382">
        <ele>638.01</ele>
        <time>2024-01-30T11:03:03Z</time>
      </trkpt>
      <trkpt lat="44.80882" lon="5.39359">
        <ele>636.96</ele>
        <time>2024-01-30T11:03:12Z</time>
      </trkpt>
      <trkpt lat="44.80824" lon="5.39357">
        <ele>630.08</ele>
        <time>2024-01-30T11:03:19Z</time>
      </trkpt>
      <trkpt lat="44.80759" lon="5.39314">
        <ele>628.14</ele>
        <time>2024-01-30T11:03:28Z</time>
      </trkpt>
      <trkpt lat="44.80739" lon="5.39309">
        <ele>626.55</ele>
        <time>2024-01-30T11:03:31Z</time>
      </trkpt>
      <trkpt lat="44.807" lon="5.39307">
        <ele>622.07</ele>
        <time>2024-01-30T11:03:37Z</time>
      </trkpt>
      <trkpt lat="44.80688" lon="5.39296">
        <ele>619.61</ele>
        <time>2024-01-30T11:03:40Z</time>
      </trkpt>
      <trkpt lat="44.80683" lon="5.39287">
        <ele>619.33</ele>
        <time>2024-01-30T11:03:42Z</time>
      </trkpt>
      <trkpt lat="44.80656" lon="5.39222">
        <ele>618.37</ele>
        <time>2024-01-30T11:03:58Z</time>
      </trkpt>
      <trkpt lat="44.8065" lon="5.39201">
        <ele>617.54</ele>
        <time>2024-01-30T11:04:03Z</time>
      </trkpt>
      <trkpt lat="44.80641" lon="5.3913">
        <ele>612.48</ele>
        <time>2024-01-30T11:04:16Z</time>
      </trkpt>
      <trkpt lat="44.80643" lon="5.39116">
        <ele>612.38</ele>
        <time>2024-01-30T11:04:19Z</time>
      </trkpt>
      <trkpt lat="44.80658" lon="5.39071">
        <ele>611.16</ele>
        <time>2024-01-30T11:04:25Z</time>
      </trkpt>
      <trkpt lat="44.80656" lon="5.39056">
        <ele>611.47</ele>
        <time>2024-01-30T11:04:26Z</time>
      </trkpt>
      <trkpt lat="44.80652" lon="5.39046">
        <ele>611.5</ele>
        <time>2024-01-30T11:04:28Z</time>
      </trkpt>
      <trkpt lat="44.80646" lon="5.39042">
        <ele>612.17</ele>
        <time>2024-01-30T11:04:28Z</time>
      </trkpt>
      <trkpt lat="44.80628" lon="5.39046">
        <ele>611.12</ele>
        <time>2024-01-30T11:04:31Z</time>
      </trkpt>
      <trkpt lat="44.80593" lon="5.39064">
        <ele>609.15</ele>
        <time>2024-01-30T11:04:36Z</time>
      </trkpt>
      <trkpt lat="44.80534" lon="5.391">
        <ele>604.61</ele>
        <time>2024-01-30T11:04:43Z</time>
      </trkpt>
      <trkpt lat="44.80512" lon="5.39111">
        <ele>604.35</ele>
        <time>2024-01-30T11:04:46Z</time>
      </trkpt>
      <trkpt lat="44.80497" lon="5.39115">
        <ele>603.96</ele>
        <time>2024-01-30T11:04:47Z</time>
      </trkpt>
      <trkpt lat="44.80445" lon="5.39115">
        <ele>600.32</ele>
        <time>2024-01-30T11:04:53Z</time>
      </trkpt>
      <trkpt lat="44.80405" lon="5.39112">
        <ele>589.3</ele>
        <time>2024-01-30T11:04:58Z</time>
      </trkpt>
      <trkpt lat="44.80384" lon="5.39099">
        <ele>586.01</ele>
        <time>2024-01-30T11:05:00Z</time>
      </trkpt>
      <trkpt lat="44.80361" lon="5.39069">
        <ele>582.02</ele>
        <time>2024-01-30T11:05:04Z</time>
      </trkpt>
      <trkpt lat="44.80333" lon="5.39026">
        <ele>583</ele>
        <time>2024-01-30T11:05:09Z</time>
      </trkpt>
      <trkpt lat="44.8032" lon="5.38983">
        <ele>584.46</ele>
        <time>2024-01-30T11:05:13Z</time>
      </trkpt>
      <trkpt lat="44.80313" lon="5.38972">
        <ele>584.09</ele>
        <time>2024-01-30T11:05:15Z</time>
      </trkpt>
      <trkpt lat="44.80285" lon="5.38945">
        <ele>581.42</ele>
        <time>2024-01-30T11:05:20Z</time>
      </trkpt>
      <trkpt lat="44.80276" lon="5.38928">
        <ele>579.42</ele>
        <time>2024-01-30T11:05:22Z</time>
      </trkpt>
      <trkpt lat="44.80261" lon="5.38887">
        <ele>580.1</ele>
        <time>2024-01-30T11:05:27Z</time>
      </trkpt>
      <trkpt lat="44.80225" lon="5.38822">
        <ele>576.11</ele>
        <time>2024-01-30T11:05:36Z</time>
      </trkpt>
      <trkpt lat="44.80218" lon="5.38787">
        <ele>574.01</ele>
        <time>2024-01-30T11:05:40Z</time>
      </trkpt>
      <trkpt lat="44.80218" lon="5.3877">
        <ele>572.97</ele>
        <time>2024-01-30T11:05:41Z</time>
      </trkpt>
      <trkpt lat="44.80221" lon="5.38755">
        <ele>573.24</ele>
        <time>2024-01-30T11:05:43Z</time>
      </trkpt>
      <trkpt lat="44.80236" lon="5.38713">
        <ele>572.6</ele>
        <time>2024-01-30T11:05:47Z</time>
      </trkpt>
      <trkpt lat="44.80236" lon="5.38694">
        <ele>572.99</ele>
        <time>2024-01-30T11:05:49Z</time>
      </trkpt>
      <trkpt lat="44.8023" lon="5.38688">
        <ele>572.92</ele>
        <time>2024-01-30T11:05:50Z</time>
      </trkpt>
      <trkpt lat="44.80216" lon="5.38685">
        <ele>572.16</ele>
        <time>2024-01-30T11:05:52Z</time>
      </trkpt>
      <trkpt lat="44.80194" lon="5.38689">
        <ele>568.95</ele>
        <time>2024-01-30T11:05:55Z</time>
      </trkpt>
      <trkpt lat="44.80166" lon="5.38691">
        <ele>566.13</ele>
        <time>2024-01-30T11:05:58Z</time>
      </trkpt>
      <trkpt lat="44.80139" lon="5.38685">
        <ele>564.98</ele>
        <time>2024-01-30T11:06:02Z</time>
      </trkpt>
      <trkpt lat="44.8011" lon="5.38665">
        <ele>562.8</ele>
        <time>2024-01-30T11:06:06Z</time>
      </trkpt>
      <trkpt lat="44.80068" lon="5.38627">
        <ele>559.41</ele>
        <time>2024-01-30T11:06:12Z</time>
      </trkpt>
      <trkpt lat="44.79932" lon="5.38475">
        <ele>549.63</ele>
        <time>2024-01-30T11:06:34Z</time>
      </trkpt>
      <trkpt lat="44.79922" lon="5.38456">
        <ele>549.23</ele>
        <time>2024-01-30T11:06:36Z</time>
      </trkpt>
      <trkpt lat="44.79934" lon="5.38507">
        <ele>547.82</ele>
        <time>2024-01-30T11:06:42Z</time>
      </trkpt>
      <trkpt lat="44.79937" lon="5.38537">
        <ele>545.76</ele>
        <time>2024-01-30T11:06:45Z</time>
      </trkpt>
      <trkpt lat="44.79945" lon="5.38618">
        <ele>541.55</ele>
        <time>2024-01-30T11:06:56Z</time>
      </trkpt>
      <trkpt lat="44.79982" lon="5.38705">
        <ele>541.17</ele>
        <time>2024-01-30T11:07:20Z</time>
      </trkpt>
      <trkpt lat="44.79934" lon="5.38836">
        <ele>535.37</ele>
        <time>2024-01-30T11:08:06Z</time>
      </trkpt>
      <trkpt lat="44.7993" lon="5.38842">
        <ele>535.05</ele>
        <time>2024-01-30T11:08:09Z</time>
      </trkpt>
      <trkpt lat="44.79925" lon="5.38847">
        <ele>535.14</ele>
        <time>2024-01-30T11:08:12Z</time>
      </trkpt>
      <trkpt lat="44.79901" lon="5.38839">
        <ele>539.47</ele>
        <time>2024-01-30T11:08:23Z</time>
      </trkpt>
      <trkpt lat="44.79882" lon="5.3881">
        <ele>536.93</ele>
        <time>2024-01-30T11:08:37Z</time>
      </trkpt>
      <trkpt lat="44.79857" lon="5.38792">
        <ele>541.96</ele>
        <time>2024-01-30T11:08:49Z</time>
      </trkpt>
      <trkpt lat="44.79805" lon="5.38761">
        <ele>547.3</ele>
        <time>2024-01-30T11:09:09Z</time>
      </trkpt>
      <trkpt lat="44.79751" lon="5.38718">
        <ele>551.17</ele>
        <time>2024-01-30T11:09:23Z</time>
      </trkpt>
      <trkpt lat="44.79679" lon="5.38645">
        <ele>553.87</ele>
        <time>2024-01-30T11:09:38Z</time>
      </trkpt>
      <trkpt lat="44.79674" lon="5.38647">
        <ele>555.01</ele>
        <time>2024-01-30T11:09:39Z</time>
      </trkpt>
      <trkpt lat="44.79642" lon="5.38622">
        <ele>555.21</ele>
        <time>2024-01-30T11:09:45Z</time>
      </trkpt>
      <trkpt lat="44.79622" lon="5.38616">
        <ele>557.14</ele>
        <time>2024-01-30T11:09:49Z</time>
      </trkpt>
      <trkpt lat="44.79611" lon="5.3862">
        <ele>558.79</ele>
        <time>2024-01-30T11:09:51Z</time>
      </trkpt>
      <trkpt lat="44.79604" lon="5.38626">
        <ele>560.27</ele>
        <time>2024-01-30T11:09:53Z</time>
      </trkpt>
      <trkpt lat="44.79595" lon="5.38642">
        <ele>561.07</ele>
        <time>2024-01-30T11:09:57Z</time>
      </trkpt>
      <trkpt lat="44.79579" lon="5.38696">
        <ele>563.17</ele>
        <time>2024-01-30T11:10:08Z</time>
      </trkpt>
      <trkpt lat="44.79565" lon="5.38765">
        <ele>565.55</ele>
        <time>2024-01-30T11:10:26Z</time>
      </trkpt>
      <trkpt lat="44.79562" lon="5.38785">
        <ele>565.91</ele>
        <time>2024-01-30T11:10:32Z</time>
      </trkpt>
      <trkpt lat="44.79567" lon="5.38846">
        <ele>568.69</ele>
        <time>2024-01-30T11:10:51Z</time>
      </trkpt>
      <trkpt lat="44.79567" lon="5.38889">
        <ele>570.24</ele>
        <time>2024-01-30T11:11:05Z</time>
      </trkpt>
      <trkpt lat="44.79565" lon="5.38906">
        <ele>571.41</ele>
        <time>2024-01-30T11:11:10Z</time>
      </trkpt>
      <trkpt lat="44.79544" lon="5.38966">
        <ele>578.67</ele>
        <time>2024-01-30T11:11:29Z</time>
      </trkpt>
      <trkpt lat="44.79508" lon="5.38978">
        <ele>572.8</ele>
        <time>2024-01-30T11:11:44Z</time>
      </trkpt>
      <trkpt lat="44.79478" lon="5.39006">
        <ele>572.38</ele>
        <time>2024-01-30T11:11:57Z</time>
      </trkpt>
      <trkpt lat="44.79453" lon="5.39014">
        <ele>570.68</ele>
        <time>2024-01-30T11:12:05Z</time>
      </trkpt>
      <trkpt lat="44.79432" lon="5.39025">
        <ele>570.23</ele>
        <time>2024-01-30T11:12:12Z</time>
      </trkpt>
      <trkpt lat="44.79411" lon="5.3904">
        <ele>571.68</ele>
        <time>2024-01-30T11:12:20Z</time>
      </trkpt>
      <trkpt lat="44.79335" lon="5.39117">
        <ele>574.42</ele>
        <time>2024-01-30T11:12:49Z</time>
      </trkpt>
      <trkpt lat="44.79321" lon="5.39148">
        <ele>576.99</ele>
        <time>2024-01-30T11:12:58Z</time>
      </trkpt>
      <trkpt lat="44.79309" lon="5.39162">
        <ele>575.39</ele>
        <time>2024-01-30T11:13:04Z</time>
      </trkpt>
      <trkpt lat="44.79285" lon="5.39204">
        <ele>575.5</ele>
        <time>2024-01-30T11:13:19Z</time>
      </trkpt>
      <trkpt lat="44.79277" lon="5.39245">
        <ele>578.55</ele>
        <time>2024-01-30T11:13:31Z</time>
      </trkpt>
      <trkpt lat="44.79262" lon="5.39259">
        <ele>577.26</ele>
        <time>2024-01-30T11:13:39Z</time>
      </trkpt>
      <trkpt lat="44.79252" lon="5.39273">
        <ele>578.02</ele>
        <time>2024-01-30T11:13:45Z</time>
      </trkpt>
      <trkpt lat="44.79238" lon="5.39284">
        <ele>579.13</ele>
        <time>2024-01-30T11:13:53Z</time>
      </trkpt>
      <trkpt lat="44.79209" lon="5.39343">
        <ele>583.93</ele>
        <time>2024-01-30T11:14:18Z</time>
      </trkpt>
      <trkpt lat="44.79182" lon="5.39407">
        <ele>585.8</ele>
        <time>2024-01-30T11:14:46Z</time>
      </trkpt>
      <trkpt lat="44.79179" lon="5.39434">
        <ele>586.63</ele>
        <time>2024-01-30T11:14:56Z</time>
      </trkpt>
      <trkpt lat="44.79176" lon="5.39439">
        <ele>586.29</ele>
        <time>2024-01-30T11:14:59Z</time>
      </trkpt>
      <trkpt lat="44.79172" lon="5.39444">
        <ele>586.35</ele>
        <time>2024-01-30T11:15:01Z</time>
      </trkpt>
      <trkpt lat="44.79154" lon="5.39447">
        <ele>587.13</ele>
        <time>2024-01-30T11:15:10Z</time>
      </trkpt>
      <trkpt lat="44.79133" lon="5.39467">
        <ele>589.89</ele>
        <time>2024-01-30T11:15:23Z</time>
      </trkpt>
      <trkpt lat="44.79124" lon="5.39481">
        <ele>591.4</ele>
        <time>2024-01-30T11:15:30Z</time>
      </trkpt>
      <trkpt lat="44.79114" lon="5.39485">
        <ele>591.81</ele>
        <time>2024-01-30T11:15:35Z</time>
      </trkpt>
      <trkpt lat="44.79105" lon="5.39478">
        <ele>591.62</ele>
        <time>2024-01-30T11:15:41Z</time>
      </trkpt>
      <trkpt lat="44.79098" lon="5.39465">
        <ele>591.44</ele>
        <time>2024-01-30T11:15:47Z</time>
      </trkpt>
      <trkpt lat="44.79083" lon="5.3945">
        <ele>592.26</ele>
        <time>2024-01-30T11:15:57Z</time>
      </trkpt>
      <trkpt lat="44.79045" lon="5.39435">
        <ele>596.37</ele>
        <time>2024-01-30T11:16:19Z</time>
      </trkpt>
      <trkpt lat="44.7904" lon="5.39439">
        <ele>597.42</ele>
        <time>2024-01-30T11:16:22Z</time>
      </trkpt>
      <trkpt lat="44.7904" lon="5.39448">
        <ele>597.34</ele>
        <time>2024-01-30T11:16:26Z</time>
      </trkpt>
      <trkpt lat="44.79048" lon="5.39456">
        <ele>596.29</ele>
        <time>2024-01-30T11:16:32Z</time>
      </trkpt>
      <trkpt lat="44.79067" lon="5.3946">
        <ele>593.84</ele>
        <time>2024-01-30T11:16:43Z</time>
      </trkpt>
      <trkpt lat="44.79076" lon="5.39471">
        <ele>593.25</ele>
        <time>2024-01-30T11:16:49Z</time>
      </trkpt>
      <trkpt lat="44.7908" lon="5.39486">
        <ele>593.55</ele>
        <time>2024-01-30T11:16:56Z</time>
      </trkpt>
      <trkpt lat="44.79074" lon="5.395">
        <ele>594.89</ele>
        <time>2024-01-30T11:17:02Z</time>
      </trkpt>
      <trkpt lat="44.79003" lon="5.39568">
        <ele>610.03</ele>
        <time>2024-01-30T11:17:44Z</time>
      </trkpt>
      <trkpt lat="44.78986" lon="5.39581">
        <ele>614</ele>
        <time>2024-01-30T11:17:53Z</time>
      </trkpt>
      <trkpt lat="44.78983" lon="5.39589">
        <ele>615.4</ele>
        <time>2024-01-30T11:17:56Z</time>
      </trkpt>
      <trkpt lat="44.78998" lon="5.39612">
        <ele>614.13</ele>
        <time>2024-01-30T11:18:04Z</time>
      </trkpt>
      <trkpt lat="44.7902" lon="5.39621">
        <ele>611.8</ele>
        <time>2024-01-30T11:18:10Z</time>
      </trkpt>
      <trkpt lat="44.79026" lon="5.3963">
        <ele>612.16</ele>
        <time>2024-01-30T11:18:12Z</time>
      </trkpt>
      <trkpt lat="44.79026" lon="5.39643">
        <ele>613.58</ele>
        <time>2024-01-30T11:18:14Z</time>
      </trkpt>
      <trkpt lat="44.79022" lon="5.39666">
        <ele>617.52</ele>
        <time>2024-01-30T11:18:16Z</time>
      </trkpt>
      <trkpt lat="44.79025" lon="5.39709">
        <ele>622.78</ele>
        <time>2024-01-30T11:18:21Z</time>
      </trkpt>
      <trkpt lat="44.79013" lon="5.39738">
        <ele>628.4</ele>
        <time>2024-01-30T11:18:24Z</time>
      </trkpt>
      <trkpt lat="44.79011" lon="5.39757">
        <ele>630.56</ele>
        <time>2024-01-30T11:18:26Z</time>
      </trkpt>
      <trkpt lat="44.7902" lon="5.39797">
        <ele>631.53</ele>
        <time>2024-01-30T11:18:30Z</time>
      </trkpt>
      <trkpt lat="44.79021" lon="5.3981">
        <ele>632.29</ele>
        <time>2024-01-30T11:18:31Z</time>
      </trkpt>
      <trkpt lat="44.79022" lon="5.39826">
        <ele>631.45</ele>
        <time>2024-01-30T11:18:32Z</time>
      </trkpt>
      <trkpt lat="44.79028" lon="5.3984">
        <ele>631.85</ele>
        <time>2024-01-30T11:18:34Z</time>
      </trkpt>
      <trkpt lat="44.79035" lon="5.39846">
        <ele>630.93</ele>
        <time>2024-01-30T11:18:35Z</time>
      </trkpt>
      <trkpt lat="44.79042" lon="5.39853">
        <ele>631.42</ele>
        <time>2024-01-30T11:18:36Z</time>
      </trkpt>
      <trkpt lat="44.79091" lon="5.3988">
        <ele>626.41</ele>
        <time>2024-01-30T11:18:42Z</time>
      </trkpt>
      <trkpt lat="44.79141" lon="5.39913">
        <ele>624.74</ele>
        <time>2024-01-30T11:18:48Z</time>
      </trkpt>
      <trkpt lat="44.79213" lon="5.39972">
        <ele>618.88</ele>
        <time>2024-01-30T11:18:59Z</time>
      </trkpt>
      <trkpt lat="44.79242" lon="5.39999">
        <ele>615.98</ele>
        <time>2024-01-30T11:19:03Z</time>
      </trkpt>
      <trkpt lat="44.79296" lon="5.40073">
        <ele>610.07</ele>
        <time>2024-01-30T11:19:13Z</time>
      </trkpt>
      <trkpt lat="44.79423" lon="5.40312">
        <ele>596.38</ele>
        <time>2024-01-30T11:19:39Z</time>
      </trkpt>
      <trkpt lat="44.79411" lon="5.40308">
        <ele>594.78</ele>
        <time>2024-01-30T11:19:42Z</time>
      </trkpt>
      <trkpt lat="44.79417" lon="5.40327">
        <ele>592.74</ele>
        <time>2024-01-30T11:19:45Z</time>
      </trkpt>
      <trkpt lat="44.79418" lon="5.40332">
        <ele>593.03</ele>
        <time>2024-01-30T11:19:46Z</time>
      </trkpt>
      <trkpt lat="44.79406" lon="5.40351">
        <ele>588.68</ele>
        <time>2024-01-30T11:19:49Z</time>
      </trkpt>
      <trkpt lat="44.79388" lon="5.40377">
        <ele>582.36</ele>
        <time>2024-01-30T11:19:55Z</time>
      </trkpt>
      <trkpt lat="44.79356" lon="5.40411">
        <ele>575.18</ele>
        <time>2024-01-30T11:20:03Z</time>
      </trkpt>
      <trkpt lat="44.79351" lon="5.4042">
        <ele>573.69</ele>
        <time>2024-01-30T11:20:05Z</time>
      </trkpt>
      <trkpt lat="44.79349" lon="5.4047">
        <ele>567.68</ele>
        <time>2024-01-30T11:20:12Z</time>
      </trkpt>
      <trkpt lat="44.79342" lon="5.405">
        <ele>564.47</ele>
        <time>2024-01-30T11:20:17Z</time>
      </trkpt>
      <trkpt lat="44.79338" lon="5.40502">
        <ele>563.6</ele>
        <time>2024-01-30T11:20:17Z</time>
      </trkpt>
      <trkpt lat="44.79331" lon="5.40535">
        <ele>560.08</ele>
        <time>2024-01-30T11:20:21Z</time>
      </trkpt>
      <trkpt lat="44.79332" lon="5.40557">
        <ele>558.9</ele>
        <time>2024-01-30T11:20:23Z</time>
      </trkpt>
      <trkpt lat="44.79327" lon="5.40636">
        <ele>554.49</ele>
        <time>2024-01-30T11:20:32Z</time>
      </trkpt>
      <trkpt lat="44.79311" lon="5.40645">
        <ele>554.06</ele>
        <time>2024-01-30T11:20:35Z</time>
      </trkpt>
      <trkpt lat="44.79302" lon="5.40651">
        <ele>553.95</ele>
        <time>2024-01-30T11:20:36Z</time>
      </trkpt>
      <trkpt lat="44.79279" lon="5.40684">
        <ele>554.25</ele>
        <time>2024-01-30T11:20:42Z</time>
      </trkpt>
      <trkpt lat="44.79266" lon="5.40689">
        <ele>554.22</ele>
        <time>2024-01-30T11:20:44Z</time>
      </trkpt>
      <trkpt lat="44.79255" lon="5.4068">
        <ele>553.98</ele>
        <time>2024-01-30T11:20:46Z</time>
      </trkpt>
      <trkpt lat="44.79207" lon="5.40622">
        <ele>552.07</ele>
        <time>2024-01-30T11:20:56Z</time>
      </trkpt>
      <trkpt lat="44.79118" lon="5.4056">
        <ele>549.55</ele>
        <time>2024-01-30T11:21:10Z</time>
      </trkpt>
      <trkpt lat="44.7908" lon="5.40543">
        <ele>547.3</ele>
        <time>2024-01-30T11:21:16Z</time>
      </trkpt>
      <trkpt lat="44.79053" lon="5.40536">
        <ele>546.3</ele>
        <time>2024-01-30T11:21:20Z</time>
      </trkpt>
      <trkpt lat="44.79021" lon="5.40547">
        <ele>543.87</ele>
        <time>2024-01-30T11:21:25Z</time>
      </trkpt>
      <trkpt lat="44.78992" lon="5.40567">
        <ele>542.72</ele>
        <time>2024-01-30T11:21:30Z</time>
      </trkpt>
      <trkpt lat="44.78938" lon="5.40679">
        <ele>542.32</ele>
        <time>2024-01-30T11:21:46Z</time>
      </trkpt>
      <trkpt lat="44.78919" lon="5.40702">
        <ele>544.99</ele>
        <time>2024-01-30T11:21:50Z</time>
      </trkpt>
      <trkpt lat="44.78897" lon="5.40708">
        <ele>543.18</ele>
        <time>2024-01-30T11:21:53Z</time>
      </trkpt>
      <trkpt lat="44.78835" lon="5.40704">
        <ele>548.02</ele>
        <time>2024-01-30T11:22:02Z</time>
      </trkpt>
      <trkpt lat="44.78745" lon="5.40711">
        <ele>537.9</ele>
        <time>2024-01-30T11:22:14Z</time>
      </trkpt>
      <trkpt lat="44.78686" lon="5.4073">
        <ele>532.17</ele>
        <time>2024-01-30T11:22:23Z</time>
      </trkpt>
      <trkpt lat="44.7864" lon="5.40751">
        <ele>533.22</ele>
        <time>2024-01-30T11:22:29Z</time>
      </trkpt>
      <trkpt lat="44.78609" lon="5.40784">
        <ele>532.62</ele>
        <time>2024-01-30T11:22:35Z</time>
      </trkpt>
      <trkpt lat="44.78557" lon="5.40807">
        <ele>532.5</ele>
        <time>2024-01-30T11:22:43Z</time>
      </trkpt>
      <trkpt lat="44.78488" lon="5.40888">
        <ele>526.48</ele>
        <time>2024-01-30T11:22:54Z</time>
      </trkpt>
      <trkpt lat="44.78406" lon="5.40947">
        <ele>525.23</ele>
        <time>2024-01-30T11:23:06Z</time>
      </trkpt>
      <trkpt lat="44.78374" lon="5.40991">
        <ele>517.92</ele>
        <time>2024-01-30T11:23:11Z</time>
      </trkpt>
      <trkpt lat="44.78355" lon="5.41002">
        <ele>515.94</ele>
        <time>2024-01-30T11:23:14Z</time>
      </trkpt>
      <trkpt lat="44.78291" lon="5.41009">
        <ele>513.68</ele>
        <time>2024-01-30T11:23:22Z</time>
      </trkpt>
      <trkpt lat="44.78235" lon="5.41008">
        <ele>512.76</ele>
        <time>2024-01-30T11:23:30Z</time>
      </trkpt>
      <trkpt lat="44.78179" lon="5.41001">
        <ele>511.27</ele>
        <time>2024-01-30T11:23:38Z</time>
      </trkpt>
      <trkpt lat="44.78089" lon="5.40993">
        <ele>507.74</ele>
        <time>2024-01-30T11:23:51Z</time>
      </trkpt>
      <trkpt lat="44.78061" lon="5.40981">
        <ele>506.95</ele>
        <time>2024-01-30T11:23:56Z</time>
      </trkpt>
      <trkpt lat="44.78024" lon="5.40932">
        <ele>505.7</ele>
        <time>2024-01-30T11:24:03Z</time>
      </trkpt>
      <trkpt lat="44.77976" lon="5.40901">
        <ele>502.08</ele>
        <time>2024-01-30T11:24:10Z</time>
      </trkpt>
      <trkpt lat="44.77919" lon="5.40869">
        <ele>500.46</ele>
        <time>2024-01-30T11:24:18Z</time>
      </trkpt>
      <trkpt lat="44.77913" lon="5.40863">
        <ele>500.47</ele>
        <time>2024-01-30T11:24:19Z</time>
      </trkpt>
      <trkpt lat="44.7791" lon="5.40861">
        <ele>500.47</ele>
        <time>2024-01-30T11:24:20Z</time>
      </trkpt>
      <trkpt lat="44.7786" lon="5.40824">
        <ele>501.14</ele>
        <time>2024-01-30T11:24:28Z</time>
      </trkpt>
      <trkpt lat="44.77842" lon="5.4081">
        <ele>502.38</ele>
        <time>2024-01-30T11:24:31Z</time>
      </trkpt>
      <trkpt lat="44.7782" lon="5.40783">
        <ele>504.9</ele>
        <time>2024-01-30T11:24:35Z</time>
      </trkpt>
      <trkpt lat="44.77748" lon="5.40743">
        <ele>503.53</ele>
        <time>2024-01-30T11:24:47Z</time>
      </trkpt>
      <trkpt lat="44.77722" lon="5.40734">
        <ele>501.19</ele>
        <time>2024-01-30T11:24:51Z</time>
      </trkpt>
      <trkpt lat="44.7768" lon="5.40706">
        <ele>500.34</ele>
        <time>2024-01-30T11:24:57Z</time>
      </trkpt>
      <trkpt lat="44.77676" lon="5.40703">
        <ele>500.4</ele>
        <time>2024-01-30T11:24:58Z</time>
      </trkpt>
      <trkpt lat="44.77585" lon="5.40629">
        <ele>497.6</ele>
        <time>2024-01-30T11:25:12Z</time>
      </trkpt>
      <trkpt lat="44.77565" lon="5.40608">
        <ele>496.35</ele>
        <time>2024-01-30T11:25:16Z</time>
      </trkpt>
      <trkpt lat="44.77541" lon="5.40568">
        <ele>493.94</ele>
        <time>2024-01-30T11:25:21Z</time>
      </trkpt>
      <trkpt lat="44.77531" lon="5.40543">
        <ele>493.79</ele>
        <time>2024-01-30T11:25:24Z</time>
      </trkpt>
      <trkpt lat="44.77526" lon="5.40532">
        <ele>493.7</ele>
        <time>2024-01-30T11:25:25Z</time>
      </trkpt>
      <trkpt lat="44.77508" lon="5.4049">
        <ele>491.21</ele>
        <time>2024-01-30T11:25:30Z</time>
      </trkpt>
      <trkpt lat="44.77486" lon="5.40452">
        <ele>488.61</ele>
        <time>2024-01-30T11:25:35Z</time>
      </trkpt>
      <trkpt lat="44.77437" lon="5.4038">
        <ele>484.94</ele>
        <time>2024-01-30T11:25:45Z</time>
      </trkpt>
      <trkpt lat="44.77416" lon="5.40337">
        <ele>484.67</ele>
        <time>2024-01-30T11:25:50Z</time>
      </trkpt>
      <trkpt lat="44.77402" lon="5.40299">
        <ele>483.85</ele>
        <time>2024-01-30T11:25:55Z</time>
      </trkpt>
      <trkpt lat="44.77398" lon="5.40288">
        <ele>483.26</ele>
        <time>2024-01-30T11:25:56Z</time>
      </trkpt>
      <trkpt lat="44.77379" lon="5.40238">
        <ele>483.06</ele>
        <time>2024-01-30T11:26:06Z</time>
      </trkpt>
      <trkpt lat="44.77328" lon="5.4016">
        <ele>482.93</ele>
        <time>2024-01-30T11:26:32Z</time>
      </trkpt>
      <trkpt lat="44.77296" lon="5.40126">
        <ele>482.18</ele>
        <time>2024-01-30T11:26:44Z</time>
      </trkpt>
      <trkpt lat="44.77277" lon="5.40119">
        <ele>478.35</ele>
        <time>2024-01-30T11:26:47Z</time>
      </trkpt>
      <trkpt lat="44.77264" lon="5.40117">
        <ele>474.68</ele>
        <time>2024-01-30T11:26:52Z</time>
      </trkpt>
      <trkpt lat="44.77262" lon="5.40116">
        <ele>474.92</ele>
        <time>2024-01-30T11:26:53Z</time>
      </trkpt>
      <trkpt lat="44.77235" lon="5.40069">
        <ele>476.82</ele>
        <time>2024-01-30T11:27:02Z</time>
      </trkpt>
      <trkpt lat="44.77224" lon="5.40057">
        <ele>482.44</ele>
        <time>2024-01-30T11:27:04Z</time>
      </trkpt>
      <trkpt lat="44.77211" lon="5.40048">
        <ele>487.25</ele>
        <time>2024-01-30T11:27:08Z</time>
      </trkpt>
      <trkpt lat="44.77208" lon="5.40042">
        <ele>482.84</ele>
        <time>2024-01-30T11:27:08Z</time>
      </trkpt>
      <trkpt lat="44.77212" lon="5.40037">
        <ele>477.94</ele>
        <time>2024-01-30T11:27:09Z</time>
      </trkpt>
      <trkpt lat="44.77218" lon="5.40036">
        <ele>475.65</ele>
        <time>2024-01-30T11:27:11Z</time>
      </trkpt>
      <trkpt lat="44.7722" lon="5.40031">
        <ele>474.83</ele>
        <time>2024-01-30T11:27:12Z</time>
      </trkpt>
      <trkpt lat="44.77226" lon="5.40019">
        <ele>477.97</ele>
        <time>2024-01-30T11:27:15Z</time>
      </trkpt>
      <trkpt lat="44.77227" lon="5.40017">
        <ele>477.97</ele>
        <time>2024-01-30T11:27:16Z</time>
      </trkpt>
      <trkpt lat="44.77222" lon="5.40006">
        <ele>482.08</ele>
        <time>2024-01-30T11:27:18Z</time>
      </trkpt>
      <trkpt lat="44.77216" lon="5.40001">
        <ele>480.22</ele>
        <time>2024-01-30T11:27:20Z</time>
      </trkpt>
      <trkpt lat="44.77213" lon="5.39988">
        <ele>485.37</ele>
        <time>2024-01-30T11:27:22Z</time>
      </trkpt>
      <trkpt lat="44.772" lon="5.39978">
        <ele>483.74</ele>
        <time>2024-01-30T11:27:26Z</time>
      </trkpt>
      <trkpt lat="44.77181" lon="5.39971">
        <ele>476.34</ele>
        <time>2024-01-30T11:27:31Z</time>
      </trkpt>
      <trkpt lat="44.77168" lon="5.39962">
        <ele>477.18</ele>
        <time>2024-01-30T11:27:34Z</time>
      </trkpt>
      <trkpt lat="44.77111" lon="5.39889">
        <ele>476.23</ele>
        <time>2024-01-30T11:27:50Z</time>
      </trkpt>
      <trkpt lat="44.7709" lon="5.39878">
        <ele>476.23</ele>
        <time>2024-01-30T11:27:55Z</time>
      </trkpt>
      <trkpt lat="44.77057" lon="5.39867">
        <ele>473.58</ele>
        <time>2024-01-30T11:28:02Z</time>
      </trkpt>
      <trkpt lat="44.7703" lon="5.39851">
        <ele>472.52</ele>
        <time>2024-01-30T11:28:09Z</time>
      </trkpt>
      <trkpt lat="44.77015" lon="5.39838">
        <ele>469.88</ele>
        <time>2024-01-30T11:28:13Z</time>
      </trkpt>
      <trkpt lat="44.76985" lon="5.39794">
        <ele>468.38</ele>
        <time>2024-01-30T11:28:22Z</time>
      </trkpt>
      <trkpt lat="44.7697" lon="5.39762">
        <ele>467.2</ele>
        <time>2024-01-30T11:28:29Z</time>
      </trkpt>
      <trkpt lat="44.76965" lon="5.39746">
        <ele>467.7</ele>
        <time>2024-01-30T11:28:32Z</time>
      </trkpt>
      <trkpt lat="44.76964" lon="5.3973">
        <ele>469.25</ele>
        <time>2024-01-30T11:28:34Z</time>
      </trkpt>
      <trkpt lat="44.7696" lon="5.39711">
        <ele>470.15</ele>
        <time>2024-01-30T11:28:38Z</time>
      </trkpt>
      <trkpt lat="44.76952" lon="5.39684">
        <ele>469.66</ele>
        <time>2024-01-30T11:28:43Z</time>
      </trkpt>
      <trkpt lat="44.76941" lon="5.39632">
        <ele>470.4</ele>
        <time>2024-01-30T11:28:52Z</time>
      </trkpt>
      <trkpt lat="44.76926" lon="5.39584">
        <ele>470.45</ele>
        <time>2024-01-30T11:29:01Z</time>
      </trkpt>
      <trkpt lat="44.76914" lon="5.39559">
        <ele>469.55</ele>
        <time>2024-01-30T11:29:06Z</time>
      </trkpt>
      <trkpt lat="44.76884" lon="5.39524">
        <ele>469.47</ele>
        <time>2024-01-30T11:29:15Z</time>
      </trkpt>
      <trkpt lat="44.76861" lon="5.39514">
        <ele>468.23</ele>
        <time>2024-01-30T11:29:21Z</time>
      </trkpt>
      <trkpt lat="44.76833" lon="5.39493">
        <ele>464.82</ele>
        <time>2024-01-30T11:29:26Z</time>
      </trkpt>
      <trkpt lat="44.76822" lon="5.3948">
        <ele>464.38</ele>
        <time>2024-01-30T11:29:28Z</time>
      </trkpt>
      <trkpt lat="44.76814" lon="5.39465">
        <ele>463.65</ele>
        <time>2024-01-30T11:29:30Z</time>
      </trkpt>
      <trkpt lat="44.76789" lon="5.39385">
        <ele>468.85</ele>
        <time>2024-01-30T11:29:39Z</time>
      </trkpt>
      <trkpt lat="44.7678" lon="5.39365">
        <ele>468.82</ele>
        <time>2024-01-30T11:29:41Z</time>
      </trkpt>
      <trkpt lat="44.76745" lon="5.39314">
        <ele>467.56</ele>
        <time>2024-01-30T11:29:49Z</time>
      </trkpt>
      <trkpt lat="44.76734" lon="5.39289">
        <ele>467.39</ele>
        <time>2024-01-30T11:29:52Z</time>
      </trkpt>
      <trkpt lat="44.76706" lon="5.39206">
        <ele>464.45</ele>
        <time>2024-01-30T11:30:02Z</time>
      </trkpt>
      <trkpt lat="44.76702" lon="5.39183">
        <ele>463.47</ele>
        <time>2024-01-30T11:30:05Z</time>
      </trkpt>
      <trkpt lat="44.76701" lon="5.39146">
        <ele>462.28</ele>
        <time>2024-01-30T11:30:09Z</time>
      </trkpt>
      <trkpt lat="44.76705" lon="5.39129">
        <ele>461.26</ele>
        <time>2024-01-30T11:30:10Z</time>
      </trkpt>
      <trkpt lat="44.76714" lon="5.39115">
        <ele>461.64</ele>
        <time>2024-01-30T11:30:12Z</time>
      </trkpt>
      <trkpt lat="44.76717" lon="5.39106">
        <ele>462.36</ele>
        <time>2024-01-30T11:30:13Z</time>
      </trkpt>
      <trkpt lat="44.76716" lon="5.39101">
        <ele>462.32</ele>
        <time>2024-01-30T11:30:14Z</time>
      </trkpt>
      <trkpt lat="44.7671" lon="5.39094">
        <ele>461.59</ele>
        <time>2024-01-30T11:30:15Z</time>
      </trkpt>
      <trkpt lat="44.76688" lon="5.39092">
        <ele>458.48</ele>
        <time>2024-01-30T11:30:18Z</time>
      </trkpt>
      <trkpt lat="44.7667" lon="5.39095">
        <ele>454.33</ele>
        <time>2024-01-30T11:30:21Z</time>
      </trkpt>
      <trkpt lat="44.76661" lon="5.39087">
        <ele>452.61</ele>
        <time>2024-01-30T11:30:22Z</time>
      </trkpt>
      <trkpt lat="44.7665" lon="5.39058">
        <ele>452.05</ele>
        <time>2024-01-30T11:30:26Z</time>
      </trkpt>
      <trkpt lat="44.76631" lon="5.39015">
        <ele>448.88</ele>
        <time>2024-01-30T11:30:31Z</time>
      </trkpt>
      <trkpt lat="44.76602" lon="5.38928">
        <ele>443.89</ele>
        <time>2024-01-30T11:30:41Z</time>
      </trkpt>
      <trkpt lat="44.76588" lon="5.38849">
        <ele>446.07</ele>
        <time>2024-01-30T11:30:49Z</time>
      </trkpt>
      <trkpt lat="44.76583" lon="5.38834">
        <ele>446.2</ele>
        <time>2024-01-30T11:30:50Z</time>
      </trkpt>
      <trkpt lat="44.76574" lon="5.38819">
        <ele>445.88</ele>
        <time>2024-01-30T11:30:52Z</time>
      </trkpt>
      <trkpt lat="44.76529" lon="5.38768">
        <ele>441.85</ele>
        <time>2024-01-30T11:31:01Z</time>
      </trkpt>
      <trkpt lat="44.76518" lon="5.38749">
        <ele>441.62</ele>
        <time>2024-01-30T11:31:03Z</time>
      </trkpt>
      <trkpt lat="44.76484" lon="5.38624">
        <ele>441.41</ele>
        <time>2024-01-30T11:31:17Z</time>
      </trkpt>
      <trkpt lat="44.76478" lon="5.38612">
        <ele>441.69</ele>
        <time>2024-01-30T11:31:19Z</time>
      </trkpt>
      <trkpt lat="44.76469" lon="5.38599">
        <ele>440.55</ele>
        <time>2024-01-30T11:31:21Z</time>
      </trkpt>
      <trkpt lat="44.7646" lon="5.38591">
        <ele>439.88</ele>
        <time>2024-01-30T11:31:22Z</time>
      </trkpt>
      <trkpt lat="44.76434" lon="5.38575">
        <ele>438.81</ele>
        <time>2024-01-30T11:31:26Z</time>
      </trkpt>
      <trkpt lat="44.76406" lon="5.38562">
        <ele>438.35</ele>
        <time>2024-01-30T11:31:31Z</time>
      </trkpt>
      <trkpt lat="44.76348" lon="5.38543">
        <ele>433.8</ele>
        <time>2024-01-30T11:31:40Z</time>
      </trkpt>
      <trkpt lat="44.76316" lon="5.38528">
        <ele>432.06</ele>
        <time>2024-01-30T11:31:45Z</time>
      </trkpt>
      <trkpt lat="44.76306" lon="5.38514">
        <ele>431.61</ele>
        <time>2024-01-30T11:31:47Z</time>
      </trkpt>
      <trkpt lat="44.76292" lon="5.3848">
        <ele>432.04</ele>
        <time>2024-01-30T11:31:51Z</time>
      </trkpt>
      <trkpt lat="44.76267" lon="5.38434">
        <ele>430.49</ele>
        <time>2024-01-30T11:31:57Z</time>
      </trkpt>
      <trkpt lat="44.76236" lon="5.38391">
        <ele>429.86</ele>
        <time>2024-01-30T11:32:03Z</time>
      </trkpt>
      <trkpt lat="44.76224" lon="5.3835">
        <ele>430.89</ele>
        <time>2024-01-30T11:32:07Z</time>
      </trkpt>
      <trkpt lat="44.76217" lon="5.38342">
        <ele>431.35</ele>
        <time>2024-01-30T11:32:08Z</time>
      </trkpt>
      <trkpt lat="44.76179" lon="5.38324">
        <ele>429.47</ele>
        <time>2024-01-30T11:32:14Z</time>
      </trkpt>
      <trkpt lat="44.76112" lon="5.38309">
        <ele>426.77</ele>
        <time>2024-01-30T11:32:23Z</time>
      </trkpt>
      <trkpt lat="44.76093" lon="5.383">
        <ele>426.24</ele>
        <time>2024-01-30T11:32:26Z</time>
      </trkpt>
      <trkpt lat="44.76058" lon="5.38266">
        <ele>427.49</ele>
        <time>2024-01-30T11:32:32Z</time>
      </trkpt>
      <trkpt lat="44.76017" lon="5.38194">
        <ele>428.79</ele>
        <time>2024-01-30T11:32:42Z</time>
      </trkpt>
      <trkpt lat="44.75986" lon="5.38155">
        <ele>428.32</ele>
        <time>2024-01-30T11:32:49Z</time>
      </trkpt>
      <trkpt lat="44.75918" lon="5.38074">
        <ele>427.2</ele>
        <time>2024-01-30T11:33:03Z</time>
      </trkpt>
      <trkpt lat="44.7587" lon="5.38001">
        <ele>427.74</ele>
        <time>2024-01-30T11:33:14Z</time>
      </trkpt>
      <trkpt lat="44.75805" lon="5.37931">
        <ele>427.54</ele>
        <time>2024-01-30T11:33:27Z</time>
      </trkpt>
      <trkpt lat="44.75778" lon="5.37895">
        <ele>426.53</ele>
        <time>2024-01-30T11:33:32Z</time>
      </trkpt>
      <trkpt lat="44.75708" lon="5.37783">
        <ele>427.68</ele>
        <time>2024-01-30T11:33:49Z</time>
      </trkpt>
      <trkpt lat="44.75683" lon="5.37743">
        <ele>428.46</ele>
        <time>2024-01-30T11:33:55Z</time>
      </trkpt>
      <trkpt lat="44.75651" lon="5.37696">
        <ele>429.33</ele>
        <time>2024-01-30T11:34:03Z</time>
      </trkpt>
      <trkpt lat="44.75618" lon="5.37641">
        <ele>432.16</ele>
        <time>2024-01-30T11:34:12Z</time>
      </trkpt>
      <trkpt lat="44.75611" lon="5.37633">
        <ele>431.91</ele>
        <time>2024-01-30T11:34:13Z</time>
      </trkpt>
      <trkpt lat="44.75576" lon="5.37605">
        <ele>428.5</ele>
        <time>2024-01-30T11:34:20Z</time>
      </trkpt>
      <trkpt lat="44.7555" lon="5.3756">
        <ele>431.65</ele>
        <time>2024-01-30T11:34:27Z</time>
      </trkpt>
      <trkpt lat="44.75514" lon="5.37518">
        <ele>430.44</ele>
        <time>2024-01-30T11:34:33Z</time>
      </trkpt>
      <trkpt lat="44.75495" lon="5.37482">
        <ele>429.82</ele>
        <time>2024-01-30T11:34:38Z</time>
      </trkpt>
      <trkpt lat="44.75492" lon="5.37472">
        <ele>430.99</ele>
        <time>2024-01-30T11:34:39Z</time>
      </trkpt>
      <trkpt lat="44.75477" lon="5.37461">
        <ele>427.84</ele>
        <time>2024-01-30T11:34:42Z</time>
      </trkpt>
      <trkpt lat="44.75429" lon="5.37432">
        <ele>420.11</ele>
        <time>2024-01-30T11:34:49Z</time>
      </trkpt>
      <trkpt lat="44.75425" lon="5.3743">
        <ele>419.33</ele>
        <time>2024-01-30T11:34:50Z</time>
      </trkpt>
      <trkpt lat="44.75373" lon="5.37405">
        <ele>414.04</ele>
        <time>2024-01-30T11:34:58Z</time>
      </trkpt>
      <trkpt lat="44.75356" lon="5.37389">
        <ele>413.3</ele>
        <time>2024-01-30T11:35:01Z</time>
      </trkpt>
      <trkpt lat="44.75331" lon="5.37366">
        <ele>411.99</ele>
        <time>2024-01-30T11:35:05Z</time>
      </trkpt>
      <trkpt lat="44.75322" lon="5.37384">
        <ele>410.44</ele>
        <time>2024-01-30T11:35:08Z</time>
      </trkpt>
      <trkpt lat="44.75285" lon="5.37423">
        <ele>407.29</ele>
        <time>2024-01-30T11:35:16Z</time>
      </trkpt>
      <trkpt lat="44.75275" lon="5.37434">
        <ele>407.06</ele>
        <time>2024-01-30T11:35:18Z</time>
      </trkpt>
      <trkpt lat="44.75259" lon="5.37453">
        <ele>407.72</ele>
        <time>2024-01-30T11:35:22Z</time>
      </trkpt>
      <trkpt lat="44.75228" lon="5.37502">
        <ele>415.03</ele>
        <time>2024-01-30T11:35:32Z</time>
      </trkpt>
      <trkpt lat="44.75212" lon="5.3749">
        <ele>413.48</ele>
        <time>2024-01-30T11:35:36Z</time>
      </trkpt>
      <trkpt lat="44.75212" lon="5.37486">
        <ele>412.82</ele>
        <time>2024-01-30T11:35:36Z</time>
      </trkpt>
      <trkpt lat="44.75208" lon="5.37481">
        <ele>411.96</ele>
        <time>2024-01-30T11:35:37Z</time>
      </trkpt>
      <trkpt lat="44.75201" lon="5.37485">
        <ele>412.51</ele>
        <time>2024-01-30T11:35:39Z</time>
      </trkpt>
      <trkpt lat="44.75202" lon="5.37493">
        <ele>413.14</ele>
        <time>2024-01-30T11:35:40Z</time>
      </trkpt>
      <trkpt lat="44.75191" lon="5.37502">
        <ele>413.49</ele>
        <time>2024-01-30T11:35:42Z</time>
      </trkpt>
      <trkpt lat="44.75168" lon="5.37531">
        <ele>411.52</ele>
        <time>2024-01-30T11:35:48Z</time>
      </trkpt>
      <trkpt lat="44.75161" lon="5.37541">
        <ele>411.2</ele>
        <time>2024-01-30T11:35:50Z</time>
      </trkpt>
      <trkpt lat="44.75113" lon="5.37601">
        <ele>408.87</ele>
        <time>2024-01-30T11:36:00Z</time>
      </trkpt>
      <trkpt lat="44.75071" lon="5.37655">
        <ele>408.64</ele>
        <time>2024-01-30T11:36:08Z</time>
      </trkpt>
      <trkpt lat="44.75016" lon="5.37745">
        <ele>411.83</ele>
        <time>2024-01-30T11:36:19Z</time>
      </trkpt>
      <trkpt lat="44.75012" lon="5.37752">
        <ele>412.09</ele>
        <time>2024-01-30T11:36:20Z</time>
      </trkpt>
      <trkpt lat="44.75007" lon="5.37759">
        <ele>411.98</ele>
        <time>2024-01-30T11:36:21Z</time>
      </trkpt>
      <trkpt lat="44.74981" lon="5.37741">
        <ele>409.07</ele>
        <time>2024-01-30T11:36:25Z</time>
      </trkpt>
      <trkpt lat="44.74904" lon="5.37663">
        <ele>402.3</ele>
        <time>2024-01-30T11:36:38Z</time>
      </trkpt>
      <trkpt lat="44.74897" lon="5.37656">
        <ele>401.49</ele>
        <time>2024-01-30T11:36:40Z</time>
      </trkpt>
      <trkpt lat="44.74886" lon="5.37638">
        <ele>400.36</ele>
        <time>2024-01-30T11:36:42Z</time>
      </trkpt>
      <trkpt lat="44.7486" lon="5.37616">
        <ele>398.45</ele>
        <time>2024-01-30T11:36:47Z</time>
      </trkpt>
      <trkpt lat="44.74857" lon="5.37613">
        <ele>398.07</ele>
        <time>2024-01-30T11:36:48Z</time>
      </trkpt>
      <trkpt lat="44.74813" lon="5.37592">
        <ele>396.73</ele>
        <time>2024-01-30T11:36:58Z</time>
      </trkpt>
      <trkpt lat="44.74809" lon="5.3759">
        <ele>396.7</ele>
        <time>2024-01-30T11:36:59Z</time>
      </trkpt>
      <trkpt lat="44.74789" lon="5.37583">
        <ele>397.13</ele>
        <time>2024-01-30T11:37:04Z</time>
      </trkpt>
      <trkpt lat="44.74772" lon="5.37586">
        <ele>397.73</ele>
        <time>2024-01-30T11:37:09Z</time>
      </trkpt>
      <trkpt lat="44.74752" lon="5.37594">
        <ele>398.67</ele>
        <time>2024-01-30T11:37:15Z</time>
      </trkpt>
      <trkpt lat="44.74735" lon="5.37602">
        <ele>399.67</ele>
        <time>2024-01-30T11:37:20Z</time>
      </trkpt>
      <trkpt lat="44.74722" lon="5.37618">
        <ele>400.71</ele>
        <time>2024-01-30T11:37:25Z</time>
      </trkpt>
      <trkpt lat="44.74712" lon="5.37653">
        <ele>401.4</ele>
        <time>2024-01-30T11:37:33Z</time>
      </trkpt>
      <trkpt lat="44.74707" lon="5.37702">
        <ele>400.98</ele>
        <time>2024-01-30T11:37:43Z</time>
      </trkpt>
      <trkpt lat="44.747" lon="5.3774">
        <ele>401.14</ele>
        <time>2024-01-30T11:37:51Z</time>
      </trkpt>
      <trkpt lat="44.74691" lon="5.37767">
        <ele>401.74</ele>
        <time>2024-01-30T11:37:56Z</time>
      </trkpt>
      <trkpt lat="44.74687" lon="5.37792">
        <ele>401.81</ele>
        <time>2024-01-30T11:38:01Z</time>
      </trkpt>
      <trkpt lat="44.74683" lon="5.37885">
        <ele>401.12</ele>
        <time>2024-01-30T11:38:15Z</time>
      </trkpt>
      <trkpt lat="44.74668" lon="5.37966">
        <ele>400.61</ele>
        <time>2024-01-30T11:38:25Z</time>
      </trkpt>
      <trkpt lat="44.74658" lon="5.37999">
        <ele>400.95</ele>
        <time>2024-01-30T11:38:30Z</time>
      </trkpt>
      <trkpt lat="44.74608" lon="5.38057">
        <ele>406.3</ele>
        <time>2024-01-30T11:38:42Z</time>
      </trkpt>
      <trkpt lat="44.74573" lon="5.38085">
        <ele>408.93</ele>
        <time>2024-01-30T11:38:50Z</time>
      </trkpt>
      <trkpt lat="44.74554" lon="5.38091">
        <ele>409.25</ele>
        <time>2024-01-30T11:38:53Z</time>
      </trkpt>
      <trkpt lat="44.74484" lon="5.38093">
        <ele>410.31</ele>
        <time>2024-01-30T11:39:06Z</time>
      </trkpt>
      <trkpt lat="44.7444" lon="5.38097">
        <ele>410.8</ele>
        <time>2024-01-30T11:39:14Z</time>
      </trkpt>
      <trkpt lat="44.74366" lon="5.38145">
        <ele>410.68</ele>
        <time>2024-01-30T11:39:29Z</time>
      </trkpt>
      <trkpt lat="44.74348" lon="5.38148">
        <ele>410.63</ele>
        <time>2024-01-30T11:39:33Z</time>
      </trkpt>
      <trkpt lat="44.74264" lon="5.38145">
        <ele>412.72</ele>
        <time>2024-01-30T11:39:47Z</time>
      </trkpt>
      <trkpt lat="44.74207" lon="5.3816">
        <ele>412.36</ele>
        <time>2024-01-30T11:39:57Z</time>
      </trkpt>
      <trkpt lat="44.7418" lon="5.38174">
        <ele>411.55</ele>
        <time>2024-01-30T11:40:02Z</time>
      </trkpt>
      <trkpt lat="44.74146" lon="5.38188">
        <ele>410.62</ele>
        <time>2024-01-30T11:40:09Z</time>
      </trkpt>
      <trkpt lat="44.74119" lon="5.38192">
        <ele>410.19</ele>
        <time>2024-01-30T11:40:15Z</time>
      </trkpt>
      <trkpt lat="44.74054" lon="5.38168">
        <ele>410.57</ele>
        <time>2024-01-30T11:40:30Z</time>
      </trkpt>
      <trkpt lat="44.73957" lon="5.38114">
        <ele>416.93</ele>
        <time>2024-01-30T11:41:04Z</time>
      </trkpt>
      <trkpt lat="44.73912" lon="5.3811">
        <ele>416.35</ele>
        <time>2024-01-30T11:41:23Z</time>
      </trkpt>
      <trkpt lat="44.73862" lon="5.38115">
        <ele>415.32</ele>
        <time>2024-01-30T11:41:46Z</time>
      </trkpt>
      <trkpt lat="44.73828" lon="5.38113">
        <ele>416.95</ele>
        <time>2024-01-30T11:42:00Z</time>
      </trkpt>
      <trkpt lat="44.73799" lon="5.38122">
        <ele>417.78</ele>
        <time>2024-01-30T11:42:13Z</time>
      </trkpt>
      <trkpt lat="44.73773" lon="5.38135">
        <ele>419.11</ele>
        <time>2024-01-30T11:42:25Z</time>
      </trkpt>
      <trkpt lat="44.73728" lon="5.38173">
        <ele>419.2</ele>
        <time>2024-01-30T11:42:45Z</time>
      </trkpt>
      <trkpt lat="44.73703" lon="5.38204">
        <ele>417.5</ele>
        <time>2024-01-30T11:42:57Z</time>
      </trkpt>
      <trkpt lat="44.7367" lon="5.38218">
        <ele>423.44</ele>
        <time>2024-01-30T11:43:08Z</time>
      </trkpt>
      <trkpt lat="44.73643" lon="5.38245">
        <ele>420.92</ele>
        <time>2024-01-30T11:43:17Z</time>
      </trkpt>
      <trkpt lat="44.73603" lon="5.38293">
        <ele>419.17</ele>
        <time>2024-01-30T11:43:30Z</time>
      </trkpt>
      <trkpt lat="44.73577" lon="5.38316">
        <ele>419.25</ele>
        <time>2024-01-30T11:43:36Z</time>
      </trkpt>
      <trkpt lat="44.73541" lon="5.38333">
        <ele>425.88</ele>
        <time>2024-01-30T11:43:42Z</time>
      </trkpt>
      <trkpt lat="44.73516" lon="5.3836">
        <ele>426.43</ele>
        <time>2024-01-30T11:43:47Z</time>
      </trkpt>
      <trkpt lat="44.73465" lon="5.38393">
        <ele>432.68</ele>
        <time>2024-01-30T11:43:55Z</time>
      </trkpt>
      <trkpt lat="44.73431" lon="5.38435">
        <ele>426.88</ele>
        <time>2024-01-30T11:44:01Z</time>
      </trkpt>
      <trkpt lat="44.73384" lon="5.38479">
        <ele>422.72</ele>
        <time>2024-01-30T11:44:08Z</time>
      </trkpt>
      <trkpt lat="44.73333" lon="5.38506">
        <ele>423.32</ele>
        <time>2024-01-30T11:44:14Z</time>
      </trkpt>
      <trkpt lat="44.73324" lon="5.38521">
        <ele>421.18</ele>
        <time>2024-01-30T11:44:16Z</time>
      </trkpt>
      <trkpt lat="44.73322" lon="5.38543">
        <ele>417.32</ele>
        <time>2024-01-30T11:44:18Z</time>
      </trkpt>
      <trkpt lat="44.73314" lon="5.38564">
        <ele>414.63</ele>
        <time>2024-01-30T11:44:20Z</time>
      </trkpt>
      <trkpt lat="44.73309" lon="5.38566">
        <ele>414.21</ele>
        <time>2024-01-30T11:44:21Z</time>
      </trkpt>
      <trkpt lat="44.73298" lon="5.38572">
        <ele>413.89</ele>
        <time>2024-01-30T11:44:22Z</time>
      </trkpt>
      <trkpt lat="44.732" lon="5.38592">
        <ele>414.5</ele>
        <time>2024-01-30T11:44:38Z</time>
      </trkpt>
      <trkpt lat="44.73181" lon="5.38591">
        <ele>415.8</ele>
        <time>2024-01-30T11:44:42Z</time>
      </trkpt>
      <trkpt lat="44.73153" lon="5.38574">
        <ele>418.64</ele>
        <time>2024-01-30T11:44:50Z</time>
      </trkpt>
      <trkpt lat="44.73133" lon="5.38571">
        <ele>418.77</ele>
        <time>2024-01-30T11:44:55Z</time>
      </trkpt>
      <trkpt lat="44.73099" lon="5.38571">
        <ele>419.42</ele>
        <time>2024-01-30T11:45:04Z</time>
      </trkpt>
      <trkpt lat="44.73072" lon="5.38564">
        <ele>421.44</ele>
        <time>2024-01-30T11:45:10Z</time>
      </trkpt>
      <trkpt lat="44.73054" lon="5.38581">
        <ele>420.38</ele>
        <time>2024-01-30T11:45:15Z</time>
      </trkpt>
      <trkpt lat="44.72999" lon="5.38603">
        <ele>422.05</ele>
        <time>2024-01-30T11:45:27Z</time>
      </trkpt>
      <trkpt lat="44.72978" lon="5.38629">
        <ele>420.91</ele>
        <time>2024-01-30T11:45:32Z</time>
      </trkpt>
      <trkpt lat="44.7296" lon="5.38686">
        <ele>418.49</ele>
        <time>2024-01-30T11:45:41Z</time>
      </trkpt>
      <trkpt lat="44.72946" lon="5.38711">
        <ele>417.8</ele>
        <time>2024-01-30T11:45:46Z</time>
      </trkpt>
      <trkpt lat="44.72932" lon="5.38721">
        <ele>417.88</ele>
        <time>2024-01-30T11:45:49Z</time>
      </trkpt>
      <trkpt lat="44.72919" lon="5.38725">
        <ele>418.82</ele>
        <time>2024-01-30T11:45:52Z</time>
      </trkpt>
      <trkpt lat="44.72856" lon="5.38724">
        <ele>422</ele>
        <time>2024-01-30T11:46:07Z</time>
      </trkpt>
      <trkpt lat="44.72825" lon="5.38729">
        <ele>422.89</ele>
        <time>2024-01-30T11:46:16Z</time>
      </trkpt>
      <trkpt lat="44.72655" lon="5.38815">
        <ele>432.63</ele>
        <time>2024-01-30T11:47:22Z</time>
      </trkpt>
      <trkpt lat="44.72576" lon="5.38838">
        <ele>435.44</ele>
        <time>2024-01-30T11:47:53Z</time>
      </trkpt>
      <trkpt lat="44.72533" lon="5.38825">
        <ele>438.88</ele>
        <time>2024-01-30T11:48:10Z</time>
      </trkpt>
      <trkpt lat="44.72497" lon="5.38781">
        <ele>442.29</ele>
        <time>2024-01-30T11:48:25Z</time>
      </trkpt>
      <trkpt lat="44.72464" lon="5.38699">
        <ele>446.71</ele>
        <time>2024-01-30T11:48:45Z</time>
      </trkpt>
      <trkpt lat="44.72454" lon="5.38704">
        <ele>446.55</ele>
        <time>2024-01-30T11:48:48Z</time>
      </trkpt>
      <trkpt lat="44.72331" lon="5.38796">
        <ele>446.47</ele>
        <time>2024-01-30T11:49:27Z</time>
      </trkpt>
      <trkpt lat="44.72318" lon="5.38801">
        <ele>446.3</ele>
        <time>2024-01-30T11:49:31Z</time>
      </trkpt>
      <trkpt lat="44.72293" lon="5.3879">
        <ele>446.02</ele>
        <time>2024-01-30T11:49:38Z</time>
      </trkpt>
      <trkpt lat="44.72268" lon="5.38774">
        <ele>445.97</ele>
        <time>2024-01-30T11:49:47Z</time>
      </trkpt>
      <trkpt lat="44.72241" lon="5.38746">
        <ele>446.42</ele>
        <time>2024-01-30T11:49:59Z</time>
      </trkpt>
      <trkpt lat="44.72212" lon="5.38743">
        <ele>445.78</ele>
        <time>2024-01-30T11:50:10Z</time>
      </trkpt>
      <trkpt lat="44.72204" lon="5.38738">
        <ele>446.14</ele>
        <time>2024-01-30T11:50:13Z</time>
      </trkpt>
      <trkpt lat="44.72197" lon="5.38729">
        <ele>446.27</ele>
        <time>2024-01-30T11:50:16Z</time>
      </trkpt>
      <trkpt lat="44.72191" lon="5.387">
        <ele>447.44</ele>
        <time>2024-01-30T11:50:26Z</time>
      </trkpt>
      <trkpt lat="44.72191" lon="5.38688">
        <ele>448.33</ele>
        <time>2024-01-30T11:50:29Z</time>
      </trkpt>
      <trkpt lat="44.72187" lon="5.38676">
        <ele>449.35</ele>
        <time>2024-01-30T11:50:34Z</time>
      </trkpt>
      <trkpt lat="44.72181" lon="5.38675">
        <ele>448.91</ele>
        <time>2024-01-30T11:50:36Z</time>
      </trkpt>
      <trkpt lat="44.72172" lon="5.3868">
        <ele>448.62</ele>
        <time>2024-01-30T11:50:41Z</time>
      </trkpt>
      <trkpt lat="44.72166" lon="5.38691">
        <ele>448.43</ele>
        <time>2024-01-30T11:50:45Z</time>
      </trkpt>
      <trkpt lat="44.72167" lon="5.38719">
        <ele>448.24</ele>
        <time>2024-01-30T11:50:54Z</time>
      </trkpt>
      <trkpt lat="44.72161" lon="5.38728">
        <ele>448.63</ele>
        <time>2024-01-30T11:50:59Z</time>
      </trkpt>
      <trkpt lat="44.72128" lon="5.38739">
        <ele>451.76</ele>
        <time>2024-01-30T11:51:15Z</time>
      </trkpt>
      <trkpt lat="44.72122" lon="5.3875">
        <ele>452.61</ele>
        <time>2024-01-30T11:51:19Z</time>
      </trkpt>
      <trkpt lat="44.72125" lon="5.38804">
        <ele>458.08</ele>
        <time>2024-01-30T11:51:39Z</time>
      </trkpt>
      <trkpt lat="44.72113" lon="5.38834">
        <ele>460.65</ele>
        <time>2024-01-30T11:51:52Z</time>
      </trkpt>
      <trkpt lat="44.72094" lon="5.38861">
        <ele>463.47</ele>
        <time>2024-01-30T11:52:07Z</time>
      </trkpt>
      <trkpt lat="44.72071" lon="5.38876">
        <ele>466.42</ele>
        <time>2024-01-30T11:52:22Z</time>
      </trkpt>
      <trkpt lat="44.72051" lon="5.38876">
        <ele>468.75</ele>
        <time>2024-01-30T11:52:34Z</time>
      </trkpt>
      <trkpt lat="44.72029" lon="5.38869">
        <ele>471.06</ele>
        <time>2024-01-30T11:52:47Z</time>
      </trkpt>
      <trkpt lat="44.72005" lon="5.38849">
        <ele>472.71</ele>
        <time>2024-01-30T11:53:02Z</time>
      </trkpt>
      <trkpt lat="44.71934" lon="5.38842">
        <ele>477.09</ele>
        <time>2024-01-30T11:53:37Z</time>
      </trkpt>
      <trkpt lat="44.7193" lon="5.38838">
        <ele>477.73</ele>
        <time>2024-01-30T11:53:40Z</time>
      </trkpt>
      <trkpt lat="44.71885" lon="5.38821">
        <ele>484.9</ele>
        <time>2024-01-30T11:53:57Z</time>
      </trkpt>
      <trkpt lat="44.71826" lon="5.38813">
        <ele>488.14</ele>
        <time>2024-01-30T11:54:11Z</time>
      </trkpt>
      <trkpt lat="44.71786" lon="5.38803">
        <ele>485.35</ele>
        <time>2024-01-30T11:54:17Z</time>
      </trkpt>
      <trkpt lat="44.71731" lon="5.38774">
        <ele>480.81</ele>
        <time>2024-01-30T11:54:25Z</time>
      </trkpt>
      <trkpt lat="44.71706" lon="5.38772">
        <ele>479.03</ele>
        <time>2024-01-30T11:54:28Z</time>
      </trkpt>
      <trkpt lat="44.71649" lon="5.38802">
        <ele>475.42</ele>
        <time>2024-01-30T11:54:36Z</time>
      </trkpt>
      <trkpt lat="44.71521" lon="5.3891">
        <ele>471.82</ele>
        <time>2024-01-30T11:54:55Z</time>
      </trkpt>
      <trkpt lat="44.71508" lon="5.38944">
        <ele>472.02</ele>
        <time>2024-01-30T11:54:59Z</time>
      </trkpt>
      <trkpt lat="44.71345" lon="5.39139">
        <ele>463.53</ele>
        <time>2024-01-30T11:55:28Z</time>
      </trkpt>
      <trkpt lat="44.71313" lon="5.39194">
        <ele>464.99</ele>
        <time>2024-01-30T11:55:34Z</time>
      </trkpt>
      <trkpt lat="44.71144" lon="5.39402">
        <ele>452.08</ele>
        <time>2024-01-30T11:56:01Z</time>
      </trkpt>
      <trkpt lat="44.71054" lon="5.39509">
        <ele>441</ele>
        <time>2024-01-30T11:56:16Z</time>
      </trkpt>
      <trkpt lat="44.71045" lon="5.39515">
        <ele>441.1</ele>
        <time>2024-01-30T11:56:17Z</time>
      </trkpt>
      <trkpt lat="44.70931" lon="5.39535">
        <ele>437.62</ele>
        <time>2024-01-30T11:56:34Z</time>
      </trkpt>
      <trkpt lat="44.70694" lon="5.3959">
        <ele>441.89</ele>
        <time>2024-01-30T11:57:26Z</time>
      </trkpt>
      <trkpt lat="44.70759" lon="5.39955">
        <ele>436.49</ele>
        <time>2024-01-30T11:58:13Z</time>
      </trkpt>
      <trkpt lat="44.70767" lon="5.40013">
        <ele>435.57</ele>
        <time>2024-01-30T11:58:22Z</time>
      </trkpt>
      <trkpt lat="44.70782" lon="5.40024">
        <ele>434.76</ele>
        <time>2024-01-30T11:58:27Z</time>
      </trkpt>
      <trkpt lat="44.70796" lon="5.40045">
        <ele>433.93</ele>
        <time>2024-01-30T11:58:32Z</time>
      </trkpt>
      <trkpt lat="44.70811" lon="5.40087">
        <ele>438.25</ele>
        <time>2024-01-30T11:58:42Z</time>
      </trkpt>
      <trkpt lat="44.70815" lon="5.40096">
        <ele>440.53</ele>
        <time>2024-01-30T11:58:45Z</time>
      </trkpt>
      <trkpt lat="44.70798" lon="5.4012">
        <ele>438.66</ele>
        <time>2024-01-30T11:58:52Z</time>
      </trkpt>
      <trkpt lat="44.70725" lon="5.40231">
        <ele>445.38</ele>
        <time>2024-01-30T11:59:28Z</time>
      </trkpt>
      <trkpt lat="44.70684" lon="5.40266">
        <ele>446.31</ele>
        <time>2024-01-30T11:59:42Z</time>
      </trkpt>
      <trkpt lat="44.70664" lon="5.40278">
        <ele>444.79</ele>
        <time>2024-01-30T11:59:49Z</time>
      </trkpt>
      <trkpt lat="44.70651" lon="5.40282">
        <ele>443.7</ele>
        <time>2024-01-30T11:59:52Z</time>
      </trkpt>
      <trkpt lat="44.70635" lon="5.40284">
        <ele>442.83</ele>
        <time>2024-01-30T11:59:55Z</time>
      </trkpt>
      <trkpt lat="44.70554" lon="5.40292">
        <ele>448.02</ele>
        <time>2024-01-30T12:00:10Z</time>
      </trkpt>
      <trkpt lat="44.70535" lon="5.40287">
        <ele>447.72</ele>
        <time>2024-01-30T12:00:13Z</time>
      </trkpt>
      <trkpt lat="44.70476" lon="5.40264">
        <ele>442.97</ele>
        <time>2024-01-30T12:00:26Z</time>
      </trkpt>
      <trkpt lat="44.70462" lon="5.40261">
        <ele>442.12</ele>
        <time>2024-01-30T12:00:30Z</time>
      </trkpt>
      <trkpt lat="44.7045" lon="5.40262">
        <ele>442.76</ele>
        <time>2024-01-30T12:00:33Z</time>
      </trkpt>
      <trkpt lat="44.70439" lon="5.40267">
        <ele>443.16</ele>
        <time>2024-01-30T12:00:37Z</time>
      </trkpt>
      <trkpt lat="44.70429" lon="5.40275">
        <ele>443.97</ele>
        <time>2024-01-30T12:00:40Z</time>
      </trkpt>
      <trkpt lat="44.70421" lon="5.40285">
        <ele>444.1</ele>
        <time>2024-01-30T12:00:44Z</time>
      </trkpt>
      <trkpt lat="44.70416" lon="5.40295">
        <ele>444.26</ele>
        <time>2024-01-30T12:00:47Z</time>
      </trkpt>
      <trkpt lat="44.70406" lon="5.40333">
        <ele>446.3</ele>
        <time>2024-01-30T12:00:58Z</time>
      </trkpt>
      <trkpt lat="44.70385" lon="5.40423">
        <ele>448.34</ele>
        <time>2024-01-30T12:01:29Z</time>
      </trkpt>
      <trkpt lat="44.70381" lon="5.4046">
        <ele>449.13</ele>
        <time>2024-01-30T12:01:42Z</time>
      </trkpt>
      <trkpt lat="44.70383" lon="5.40536">
        <ele>450.67</ele>
        <time>2024-01-30T12:02:07Z</time>
      </trkpt>
      <trkpt lat="44.70381" lon="5.40559">
        <ele>450.88</ele>
        <time>2024-01-30T12:02:14Z</time>
      </trkpt>
      <trkpt lat="44.70367" lon="5.40552">
        <ele>448.47</ele>
        <time>2024-01-30T12:02:20Z</time>
      </trkpt>
      <trkpt lat="44.70359" lon="5.40548">
        <ele>448.34</ele>
        <time>2024-01-30T12:02:24Z</time>
      </trkpt>
      <trkpt lat="44.70353" lon="5.40542">
        <ele>450.26</ele>
        <time>2024-01-30T12:02:27Z</time>
      </trkpt>
      <trkpt lat="44.70346" lon="5.40527">
        <ele>450.85</ele>
        <time>2024-01-30T12:02:32Z</time>
      </trkpt>
      <trkpt lat="44.70291" lon="5.40386">
        <ele>456.27</ele>
        <time>2024-01-30T12:03:27Z</time>
      </trkpt>
      <trkpt lat="44.70287" lon="5.40422">
        <ele>458.48</ele>
        <time>2024-01-30T12:03:43Z</time>
      </trkpt>
      <trkpt lat="44.70296" lon="5.40509">
        <ele>463.83</ele>
        <time>2024-01-30T12:04:17Z</time>
      </trkpt>
      <trkpt lat="44.70301" lon="5.40539">
        <ele>467.5</ele>
        <time>2024-01-30T12:04:30Z</time>
      </trkpt>
      <trkpt lat="44.70307" lon="5.40559">
        <ele>467.99</ele>
        <time>2024-01-30T12:04:41Z</time>
      </trkpt>
      <trkpt lat="44.70306" lon="5.40564">
        <ele>470.63</ele>
        <time>2024-01-30T12:04:43Z</time>
      </trkpt>
      <trkpt lat="44.70292" lon="5.40563">
        <ele>476.35</ele>
        <time>2024-01-30T12:04:52Z</time>
      </trkpt>
      <trkpt lat="44.7025" lon="5.40525">
        <ele>482.6</ele>
        <time>2024-01-30T12:05:27Z</time>
      </trkpt>
      <trkpt lat="44.70244" lon="5.40524">
        <ele>483.52</ele>
        <time>2024-01-30T12:05:32Z</time>
      </trkpt>
      <trkpt lat="44.7024" lon="5.40528">
        <ele>485.15</ele>
        <time>2024-01-30T12:05:35Z</time>
      </trkpt>
      <trkpt lat="44.70243" lon="5.40542">
        <ele>486.7</ele>
        <time>2024-01-30T12:05:41Z</time>
      </trkpt>
      <trkpt lat="44.7025" lon="5.40556">
        <ele>488.18</ele>
        <time>2024-01-30T12:05:48Z</time>
      </trkpt>
      <trkpt lat="44.70277" lon="5.40669">
        <ele>491.87</ele>
        <time>2024-01-30T12:06:36Z</time>
      </trkpt>
      <trkpt lat="44.7028" lon="5.40689">
        <ele>492.1</ele>
        <time>2024-01-30T12:06:43Z</time>
      </trkpt>
      <trkpt lat="44.70278" lon="5.40706">
        <ele>491.75</ele>
        <time>2024-01-30T12:06:50Z</time>
      </trkpt>
      <trkpt lat="44.70253" lon="5.4078">
        <ele>497.59</ele>
        <time>2024-01-30T12:07:21Z</time>
      </trkpt>
      <trkpt lat="44.7022" lon="5.40836">
        <ele>505.53</ele>
        <time>2024-01-30T12:07:47Z</time>
      </trkpt>
      <trkpt lat="44.70192" lon="5.40901">
        <ele>507.04</ele>
        <time>2024-01-30T12:08:13Z</time>
      </trkpt>
      <trkpt lat="44.70094" lon="5.41048">
        <ele>515.38</ele>
        <time>2024-01-30T12:09:18Z</time>
      </trkpt>
      <trkpt lat="44.70071" lon="5.41071">
        <ele>517.89</ele>
        <time>2024-01-30T12:09:30Z</time>
      </trkpt>
      <trkpt lat="44.70045" lon="5.41111">
        <ele>518.8</ele>
        <time>2024-01-30T12:09:45Z</time>
      </trkpt>
      <trkpt lat="44.69959" lon="5.41266">
        <ele>517.28</ele>
        <time>2024-01-30T12:10:46Z</time>
      </trkpt>
      <trkpt lat="44.6991" lon="5.4133">
        <ele>521.18</ele>
        <time>2024-01-30T12:11:20Z</time>
      </trkpt>
      <trkpt lat="44.69875" lon="5.41368">
        <ele>524.71</ele>
        <time>2024-01-30T12:11:45Z</time>
      </trkpt>
      <trkpt lat="44.69861" lon="5.41389">
        <ele>525.54</ele>
        <time>2024-01-30T12:11:57Z</time>
      </trkpt>
      <trkpt lat="44.69773" lon="5.41494">
        <ele>536.75</ele>
        <time>2024-01-30T12:13:12Z</time>
      </trkpt>
      <trkpt lat="44.69769" lon="5.41502">
        <ele>537.64</ele>
        <time>2024-01-30T12:13:17Z</time>
      </trkpt>
      <trkpt lat="44.69766" lon="5.41533">
        <ele>539.3</ele>
        <time>2024-01-30T12:13:31Z</time>
      </trkpt>
      <trkpt lat="44.69727" lon="5.41594">
        <ele>546.18</ele>
        <time>2024-01-30T12:14:06Z</time>
      </trkpt>
      <trkpt lat="44.69717" lon="5.41629">
        <ele>546.62</ele>
        <time>2024-01-30T12:14:21Z</time>
      </trkpt>
      <trkpt lat="44.69693" lon="5.41672">
        <ele>549.58</ele>
        <time>2024-01-30T12:14:42Z</time>
      </trkpt>
      <trkpt lat="44.69685" lon="5.41675">
        <ele>551.25</ele>
        <time>2024-01-30T12:14:46Z</time>
      </trkpt>
      <trkpt lat="44.69671" lon="5.41673">
        <ele>553.75</ele>
        <time>2024-01-30T12:14:52Z</time>
      </trkpt>
      <trkpt lat="44.69656" lon="5.41691">
        <ele>555.36</ele>
        <time>2024-01-30T12:15:02Z</time>
      </trkpt>
      <trkpt lat="44.69646" lon="5.41697">
        <ele>556.83</ele>
        <time>2024-01-30T12:15:06Z</time>
      </trkpt>
      <trkpt lat="44.69636" lon="5.41697">
        <ele>557.66</ele>
        <time>2024-01-30T12:15:11Z</time>
      </trkpt>
      <trkpt lat="44.69626" lon="5.41694">
        <ele>558.34</ele>
        <time>2024-01-30T12:15:15Z</time>
      </trkpt>
      <trkpt lat="44.69612" lon="5.41689">
        <ele>558.56</ele>
        <time>2024-01-30T12:15:21Z</time>
      </trkpt>
      <trkpt lat="44.69599" lon="5.41691">
        <ele>557.99</ele>
        <time>2024-01-30T12:15:25Z</time>
      </trkpt>
      <trkpt lat="44.69592" lon="5.41696">
        <ele>557.29</ele>
        <time>2024-01-30T12:15:28Z</time>
      </trkpt>
      <trkpt lat="44.69592" lon="5.41708">
        <ele>557.12</ele>
        <time>2024-01-30T12:15:31Z</time>
      </trkpt>
      <trkpt lat="44.69608" lon="5.41737">
        <ele>556.64</ele>
        <time>2024-01-30T12:15:38Z</time>
      </trkpt>
      <trkpt lat="44.69608" lon="5.41743">
        <ele>556.19</ele>
        <time>2024-01-30T12:15:39Z</time>
      </trkpt>
      <trkpt lat="44.69603" lon="5.41756">
        <ele>555.94</ele>
        <time>2024-01-30T12:15:42Z</time>
      </trkpt>
      <trkpt lat="44.69596" lon="5.41809">
        <ele>556.48</ele>
        <time>2024-01-30T12:15:51Z</time>
      </trkpt>
      <trkpt lat="44.69592" lon="5.41819">
        <ele>557.2</ele>
        <time>2024-01-30T12:15:53Z</time>
      </trkpt>
      <trkpt lat="44.69566" lon="5.4184">
        <ele>561.36</ele>
        <time>2024-01-30T12:16:00Z</time>
      </trkpt>
      <trkpt lat="44.69539" lon="5.41846">
        <ele>563.6</ele>
        <time>2024-01-30T12:16:06Z</time>
      </trkpt>
      <trkpt lat="44.69531" lon="5.4185">
        <ele>563.41</ele>
        <time>2024-01-30T12:16:08Z</time>
      </trkpt>
      <trkpt lat="44.69526" lon="5.41856">
        <ele>563.11</ele>
        <time>2024-01-30T12:16:10Z</time>
      </trkpt>
      <trkpt lat="44.69491" lon="5.41942">
        <ele>549.56</ele>
        <time>2024-01-30T12:16:25Z</time>
      </trkpt>
      <trkpt lat="44.69469" lon="5.41982">
        <ele>542.21</ele>
        <time>2024-01-30T12:16:32Z</time>
      </trkpt>
      <trkpt lat="44.6944" lon="5.42007">
        <ele>537.34</ele>
        <time>2024-01-30T12:16:39Z</time>
      </trkpt>
      <trkpt lat="44.6942" lon="5.42049">
        <ele>533.52</ele>
        <time>2024-01-30T12:16:47Z</time>
      </trkpt>
      <trkpt lat="44.69398" lon="5.42084">
        <ele>532.08</ele>
        <time>2024-01-30T12:16:55Z</time>
      </trkpt>
      <trkpt lat="44.69386" lon="5.42111">
        <ele>530.76</ele>
        <time>2024-01-30T12:17:00Z</time>
      </trkpt>
      <trkpt lat="44.69381" lon="5.42127">
        <ele>529.28</ele>
        <time>2024-01-30T12:17:03Z</time>
      </trkpt>
      <trkpt lat="44.69381" lon="5.42145">
        <ele>527.21</ele>
        <time>2024-01-30T12:17:06Z</time>
      </trkpt>
      <trkpt lat="44.69378" lon="5.42154">
        <ele>525.94</ele>
        <time>2024-01-30T12:17:08Z</time>
      </trkpt>
      <trkpt lat="44.6935" lon="5.42205">
        <ele>523.69</ele>
        <time>2024-01-30T12:17:21Z</time>
      </trkpt>
      <trkpt lat="44.69337" lon="5.42224">
        <ele>524.48</ele>
        <time>2024-01-30T12:17:27Z</time>
      </trkpt>
      <trkpt lat="44.69329" lon="5.42228">
        <ele>524.87</ele>
        <time>2024-01-30T12:17:30Z</time>
      </trkpt>
      <trkpt lat="44.69319" lon="5.42286">
        <ele>524.69</ele>
        <time>2024-01-30T12:17:44Z</time>
      </trkpt>
      <trkpt lat="44.69285" lon="5.42354">
        <ele>527.49</ele>
        <time>2024-01-30T12:18:08Z</time>
      </trkpt>
      <trkpt lat="44.6925" lon="5.42399">
        <ele>529.21</ele>
        <time>2024-01-30T12:18:28Z</time>
      </trkpt>
      <trkpt lat="44.6917" lon="5.42476">
        <ele>538.1</ele>
        <time>2024-01-30T12:19:04Z</time>
      </trkpt>
      <trkpt lat="44.69159" lon="5.42495">
        <ele>538.52</ele>
        <time>2024-01-30T12:19:10Z</time>
      </trkpt>
      <trkpt lat="44.69151" lon="5.4251">
        <ele>538.86</ele>
        <time>2024-01-30T12:19:15Z</time>
      </trkpt>
      <trkpt lat="44.69137" lon="5.42517">
        <ele>539.83</ele>
        <time>2024-01-30T12:19:18Z</time>
      </trkpt>
      <trkpt lat="44.69098" lon="5.42549">
        <ele>544.69</ele>
        <time>2024-01-30T12:19:26Z</time>
      </trkpt>
      <trkpt lat="44.69054" lon="5.42593">
        <ele>544.56</ele>
        <time>2024-01-30T12:19:35Z</time>
      </trkpt>
      <trkpt lat="44.68999" lon="5.42732">
        <ele>538.62</ele>
        <time>2024-01-30T12:19:51Z</time>
      </trkpt>
      <trkpt lat="44.68991" lon="5.42753">
        <ele>536.82</ele>
        <time>2024-01-30T12:19:53Z</time>
      </trkpt>
      <trkpt lat="44.68984" lon="5.42772">
        <ele>537.23</ele>
        <time>2024-01-30T12:19:55Z</time>
      </trkpt>
      <trkpt lat="44.68961" lon="5.42802">
        <ele>536.48</ele>
        <time>2024-01-30T12:20:00Z</time>
      </trkpt>
      <trkpt lat="44.68947" lon="5.42939">
        <ele>536.76</ele>
        <time>2024-01-30T12:20:15Z</time>
      </trkpt>
      <trkpt lat="44.68925" lon="5.42981">
        <ele>533.83</ele>
        <time>2024-01-30T12:20:22Z</time>
      </trkpt>
      <trkpt lat="44.68911" lon="5.42996">
        <ele>534.38</ele>
        <time>2024-01-30T12:20:25Z</time>
      </trkpt>
      <trkpt lat="44.68905" lon="5.43009">
        <ele>533.74</ele>
        <time>2024-01-30T12:20:27Z</time>
      </trkpt>
      <trkpt lat="44.68904" lon="5.43027">
        <ele>531.21</ele>
        <time>2024-01-30T12:20:29Z</time>
      </trkpt>
      <trkpt lat="44.68894" lon="5.43042">
        <ele>532.1</ele>
        <time>2024-01-30T12:20:32Z</time>
      </trkpt>
      <trkpt lat="44.6885" lon="5.43125">
        <ele>530.21</ele>
        <time>2024-01-30T12:20:48Z</time>
      </trkpt>
      <trkpt lat="44.68813" lon="5.43166">
        <ele>532.36</ele>
        <time>2024-01-30T12:21:00Z</time>
      </trkpt>
      <trkpt lat="44.68796" lon="5.43181">
        <ele>533.49</ele>
        <time>2024-01-30T12:21:05Z</time>
      </trkpt>
      <trkpt lat="44.68761" lon="5.43228">
        <ele>533.78</ele>
        <time>2024-01-30T12:21:17Z</time>
      </trkpt>
      <trkpt lat="44.68736" lon="5.43293">
        <ele>531</ele>
        <time>2024-01-30T12:21:30Z</time>
      </trkpt>
      <trkpt lat="44.68714" lon="5.43344">
        <ele>531.75</ele>
        <time>2024-01-30T12:21:41Z</time>
      </trkpt>
      <trkpt lat="44.68715" lon="5.43355">
        <ele>531.68</ele>
        <time>2024-01-30T12:21:42Z</time>
      </trkpt>
      <trkpt lat="44.68733" lon="5.43384">
        <ele>530.28</ele>
        <time>2024-01-30T12:21:49Z</time>
      </trkpt>
      <trkpt lat="44.68736" lon="5.43396">
        <ele>530.58</ele>
        <time>2024-01-30T12:21:51Z</time>
      </trkpt>
      <trkpt lat="44.68769" lon="5.43436">
        <ele>530.92</ele>
        <time>2024-01-30T12:22:01Z</time>
      </trkpt>
      <trkpt lat="44.68788" lon="5.43459">
        <ele>531.15</ele>
        <time>2024-01-30T12:22:06Z</time>
      </trkpt>
      <trkpt lat="44.68801" lon="5.43468">
        <ele>532.06</ele>
        <time>2024-01-30T12:22:09Z</time>
      </trkpt>
      <trkpt lat="44.68812" lon="5.43467">
        <ele>532.36</ele>
        <time>2024-01-30T12:22:12Z</time>
      </trkpt>
      <trkpt lat="44.68833" lon="5.43453">
        <ele>531.77</ele>
        <time>2024-01-30T12:22:17Z</time>
      </trkpt>
      <trkpt lat="44.68842" lon="5.43452">
        <ele>532.2</ele>
        <time>2024-01-30T12:22:19Z</time>
      </trkpt>
      <trkpt lat="44.68848" lon="5.43463">
        <ele>533.1</ele>
        <time>2024-01-30T12:22:21Z</time>
      </trkpt>
      <trkpt lat="44.68772" lon="5.43535">
        <ele>535</ele>
        <time>2024-01-30T12:22:40Z</time>
      </trkpt>
      <trkpt lat="44.68686" lon="5.4362">
        <ele>537.81</ele>
        <time>2024-01-30T12:22:58Z</time>
      </trkpt>
      <trkpt lat="44.68651" lon="5.43658">
        <ele>536.76</ele>
        <time>2024-01-30T12:23:05Z</time>
      </trkpt>
      <trkpt lat="44.68626" lon="5.43685">
        <ele>535.73</ele>
        <time>2024-01-30T12:23:09Z</time>
      </trkpt>
      <trkpt lat="44.68585" lon="5.43746">
        <ele>533.44</ele>
        <time>2024-01-30T12:23:17Z</time>
      </trkpt>
      <trkpt lat="44.68556" lon="5.43797">
        <ele>533.11</ele>
        <time>2024-01-30T12:23:23Z</time>
      </trkpt>
      <trkpt lat="44.68531" lon="5.43851">
        <ele>532.06</ele>
        <time>2024-01-30T12:23:29Z</time>
      </trkpt>
      <trkpt lat="44.68507" lon="5.43917">
        <ele>530.73</ele>
        <time>2024-01-30T12:23:36Z</time>
      </trkpt>
      <trkpt lat="44.6848" lon="5.44011">
        <ele>528.96</ele>
        <time>2024-01-30T12:23:46Z</time>
      </trkpt>
      <trkpt lat="44.68395" lon="5.44299">
        <ele>519.71</ele>
        <time>2024-01-30T12:24:18Z</time>
      </trkpt>
      <trkpt lat="44.68387" lon="5.4434">
        <ele>520.78</ele>
        <time>2024-01-30T12:24:23Z</time>
      </trkpt>
      <trkpt lat="44.68381" lon="5.44382">
        <ele>520.65</ele>
        <time>2024-01-30T12:24:28Z</time>
      </trkpt>
      <trkpt lat="44.68359" lon="5.44422">
        <ele>519.96</ele>
        <time>2024-01-30T12:24:34Z</time>
      </trkpt>
      <trkpt lat="44.6825" lon="5.44639">
        <ele>515.41</ele>
        <time>2024-01-30T12:25:05Z</time>
      </trkpt>
      <trkpt lat="44.68244" lon="5.44646">
        <ele>514.3</ele>
        <time>2024-01-30T12:25:07Z</time>
      </trkpt>
      <trkpt lat="44.68236" lon="5.44649">
        <ele>512.14</ele>
        <time>2024-01-30T12:25:08Z</time>
      </trkpt>
      <trkpt lat="44.68207" lon="5.44655">
        <ele>509.32</ele>
        <time>2024-01-30T12:25:13Z</time>
      </trkpt>
      <trkpt lat="44.68183" lon="5.44668">
        <ele>509.12</ele>
        <time>2024-01-30T12:25:18Z</time>
      </trkpt>
      <trkpt lat="44.68171" lon="5.44679">
        <ele>509.27</ele>
        <time>2024-01-30T12:25:21Z</time>
      </trkpt>
      <trkpt lat="44.68155" lon="5.44706">
        <ele>509.76</ele>
        <time>2024-01-30T12:25:26Z</time>
      </trkpt>
      <trkpt lat="44.68137" lon="5.44754">
        <ele>510.91</ele>
        <time>2024-01-30T12:25:34Z</time>
      </trkpt>
      <trkpt lat="44.68134" lon="5.4476">
        <ele>511.07</ele>
        <time>2024-01-30T12:25:35Z</time>
      </trkpt>
      <trkpt lat="44.68073" lon="5.44912">
        <ele>515.46</ele>
        <time>2024-01-30T12:26:06Z</time>
      </trkpt>
      <trkpt lat="44.68057" lon="5.44932">
        <ele>517.89</ele>
        <time>2024-01-30T12:26:12Z</time>
      </trkpt>
      <trkpt lat="44.68034" lon="5.44949">
        <ele>520.87</ele>
        <time>2024-01-30T12:26:20Z</time>
      </trkpt>
      <trkpt lat="44.67998" lon="5.44962">
        <ele>521.22</ele>
        <time>2024-01-30T12:26:30Z</time>
      </trkpt>
      <trkpt lat="44.6798" lon="5.44961">
        <ele>521.34</ele>
        <time>2024-01-30T12:26:35Z</time>
      </trkpt>
      <trkpt lat="44.67968" lon="5.44951">
        <ele>521.57</ele>
        <time>2024-01-30T12:26:39Z</time>
      </trkpt>
      <trkpt lat="44.6794" lon="5.44883">
        <ele>522.53</ele>
        <time>2024-01-30T12:26:55Z</time>
      </trkpt>
      <trkpt lat="44.67665" lon="5.44961">
        <ele>531.71</ele>
        <time>2024-01-30T12:28:13Z</time>
      </trkpt>
      <trkpt lat="44.67644" lon="5.44971">
        <ele>531.85</ele>
        <time>2024-01-30T12:28:19Z</time>
      </trkpt>
      <trkpt lat="44.6756" lon="5.45039">
        <ele>532.63</ele>
        <time>2024-01-30T12:28:46Z</time>
      </trkpt>
      <trkpt lat="44.67519" lon="5.45086">
        <ele>533.65</ele>
        <time>2024-01-30T12:29:03Z</time>
      </trkpt>
      <trkpt lat="44.674" lon="5.45272">
        <ele>539.04</ele>
        <time>2024-01-30T12:30:10Z</time>
      </trkpt>
      <trkpt lat="44.67392" lon="5.45272">
        <ele>539.48</ele>
        <time>2024-01-30T12:30:15Z</time>
      </trkpt>
      <trkpt lat="44.67366" lon="5.45285">
        <ele>541.89</ele>
        <time>2024-01-30T12:30:30Z</time>
      </trkpt>
      <trkpt lat="44.67338" lon="5.45283">
        <ele>543.23</ele>
        <time>2024-01-30T12:30:45Z</time>
      </trkpt>
      <trkpt lat="44.6732" lon="5.45287">
        <ele>544.43</ele>
        <time>2024-01-30T12:30:56Z</time>
      </trkpt>
      <trkpt lat="44.67282" lon="5.45311">
        <ele>546.77</ele>
        <time>2024-01-30T12:31:19Z</time>
      </trkpt>
      <trkpt lat="44.67262" lon="5.45332">
        <ele>548.02</ele>
        <time>2024-01-30T12:31:33Z</time>
      </trkpt>
      <trkpt lat="44.67239" lon="5.45353">
        <ele>548.15</ele>
        <time>2024-01-30T12:31:50Z</time>
      </trkpt>
      <trkpt lat="44.67207" lon="5.45408">
        <ele>550.03</ele>
        <time>2024-01-30T12:32:20Z</time>
      </trkpt>
      <trkpt lat="44.67198" lon="5.45443">
        <ele>553.65</ele>
        <time>2024-01-30T12:32:36Z</time>
      </trkpt>
      <trkpt lat="44.67181" lon="5.45477">
        <ele>556.4</ele>
        <time>2024-01-30T12:32:54Z</time>
      </trkpt>
      <trkpt lat="44.67159" lon="5.45515">
        <ele>558.63</ele>
        <time>2024-01-30T12:33:17Z</time>
      </trkpt>
      <trkpt lat="44.67135" lon="5.45548">
        <ele>560.66</ele>
        <time>2024-01-30T12:33:38Z</time>
      </trkpt>
      <trkpt lat="44.67107" lon="5.45563">
        <ele>561.96</ele>
        <time>2024-01-30T12:33:56Z</time>
      </trkpt>
      <trkpt lat="44.67083" lon="5.4558">
        <ele>563.23</ele>
        <time>2024-01-30T12:34:13Z</time>
      </trkpt>
      <trkpt lat="44.67064" lon="5.45586">
        <ele>562.86</ele>
        <time>2024-01-30T12:34:25Z</time>
      </trkpt>
      <trkpt lat="44.67034" lon="5.45607">
        <ele>566.88</ele>
        <time>2024-01-30T12:34:46Z</time>
      </trkpt>
      <trkpt lat="44.66987" lon="5.45607">
        <ele>566.41</ele>
        <time>2024-01-30T12:35:14Z</time>
      </trkpt>
      <trkpt lat="44.66935" lon="5.45628">
        <ele>569.31</ele>
        <time>2024-01-30T12:35:45Z</time>
      </trkpt>
      <trkpt lat="44.66905" lon="5.45662">
        <ele>576.79</ele>
        <time>2024-01-30T12:36:05Z</time>
      </trkpt>
      <trkpt lat="44.66895" lon="5.45669">
        <ele>578.51</ele>
        <time>2024-01-30T12:36:11Z</time>
      </trkpt>
      <trkpt lat="44.66878" lon="5.45659">
        <ele>575.19</ele>
        <time>2024-01-30T12:36:21Z</time>
      </trkpt>
      <trkpt lat="44.66851" lon="5.45677">
        <ele>577.96</ele>
        <time>2024-01-30T12:36:36Z</time>
      </trkpt>
      <trkpt lat="44.66834" lon="5.45699">
        <ele>583.16</ele>
        <time>2024-01-30T12:36:47Z</time>
      </trkpt>
      <trkpt lat="44.66811" lon="5.45702">
        <ele>583.25</ele>
        <time>2024-01-30T12:36:59Z</time>
      </trkpt>
      <trkpt lat="44.66798" lon="5.45709">
        <ele>584.83</ele>
        <time>2024-01-30T12:37:06Z</time>
      </trkpt>
      <trkpt lat="44.66754" lon="5.45705">
        <ele>585.85</ele>
        <time>2024-01-30T12:37:26Z</time>
      </trkpt>
      <trkpt lat="44.66741" lon="5.45712">
        <ele>587.23</ele>
        <time>2024-01-30T12:37:32Z</time>
      </trkpt>
      <trkpt lat="44.66721" lon="5.45733">
        <ele>591.2</ele>
        <time>2024-01-30T12:37:44Z</time>
      </trkpt>
      <trkpt lat="44.66694" lon="5.45742">
        <ele>593.54</ele>
        <time>2024-01-30T12:37:55Z</time>
      </trkpt>
      <trkpt lat="44.66682" lon="5.45749">
        <ele>594.77</ele>
        <time>2024-01-30T12:37:59Z</time>
      </trkpt>
      <trkpt lat="44.66651" lon="5.45786">
        <ele>597.94</ele>
        <time>2024-01-30T12:38:12Z</time>
      </trkpt>
      <trkpt lat="44.66649" lon="5.45796">
        <ele>598.78</ele>
        <time>2024-01-30T12:38:14Z</time>
      </trkpt>
      <trkpt lat="44.66614" lon="5.45854">
        <ele>603.69</ele>
        <time>2024-01-30T12:38:23Z</time>
      </trkpt>
      <trkpt lat="44.66602" lon="5.45867">
        <ele>603.75</ele>
        <time>2024-01-30T12:38:25Z</time>
      </trkpt>
      <trkpt lat="44.66584" lon="5.4587">
        <ele>600.46</ele>
        <time>2024-01-30T12:38:28Z</time>
      </trkpt>
      <trkpt lat="44.66565" lon="5.45877">
        <ele>599.26</ele>
        <time>2024-01-30T12:38:31Z</time>
      </trkpt>
      <trkpt lat="44.66513" lon="5.45922">
        <ele>596.06</ele>
        <time>2024-01-30T12:38:39Z</time>
      </trkpt>
      <trkpt lat="44.6644" lon="5.46025">
        <ele>589.86</ele>
        <time>2024-01-30T12:38:52Z</time>
      </trkpt>
      <trkpt lat="44.66433" lon="5.46029">
        <ele>589.53</ele>
        <time>2024-01-30T12:38:53Z</time>
      </trkpt>
      <trkpt lat="44.66406" lon="5.46087">
        <ele>587.16</ele>
        <time>2024-01-30T12:38:59Z</time>
      </trkpt>
      <trkpt lat="44.66394" lon="5.46153">
        <ele>585.9</ele>
        <time>2024-01-30T12:39:06Z</time>
      </trkpt>
      <trkpt lat="44.66387" lon="5.46208">
        <ele>583.75</ele>
        <time>2024-01-30T12:39:12Z</time>
      </trkpt>
      <trkpt lat="44.6638" lon="5.4622">
        <ele>581.87</ele>
        <time>2024-01-30T12:39:13Z</time>
      </trkpt>
      <trkpt lat="44.66379" lon="5.46237">
        <ele>581.77</ele>
        <time>2024-01-30T12:39:15Z</time>
      </trkpt>
      <trkpt lat="44.66377" lon="5.46278">
        <ele>581.33</ele>
        <time>2024-01-30T12:39:20Z</time>
      </trkpt>
      <trkpt lat="44.66381" lon="5.46308">
        <ele>581.11</ele>
        <time>2024-01-30T12:39:24Z</time>
      </trkpt>
      <trkpt lat="44.66383" lon="5.46322">
        <ele>580.36</ele>
        <time>2024-01-30T12:39:26Z</time>
      </trkpt>
      <trkpt lat="44.66308" lon="5.46377">
        <ele>579.26</ele>
        <time>2024-01-30T12:39:47Z</time>
      </trkpt>
      <trkpt lat="44.66211" lon="5.46503">
        <ele>584.04</ele>
        <time>2024-01-30T12:40:32Z</time>
      </trkpt>
      <trkpt lat="44.66168" lon="5.46541">
        <ele>586.45</ele>
        <time>2024-01-30T12:40:51Z</time>
      </trkpt>
      <trkpt lat="44.66143" lon="5.46553">
        <ele>587.71</ele>
        <time>2024-01-30T12:41:01Z</time>
      </trkpt>
      <trkpt lat="44.66113" lon="5.46557">
        <ele>589.03</ele>
        <time>2024-01-30T12:41:13Z</time>
      </trkpt>
      <trkpt lat="44.66063" lon="5.46549">
        <ele>591.33</ele>
        <time>2024-01-30T12:41:33Z</time>
      </trkpt>
      <trkpt lat="44.66018" lon="5.46577">
        <ele>593.69</ele>
        <time>2024-01-30T12:41:51Z</time>
      </trkpt>
      <trkpt lat="44.65973" lon="5.46615">
        <ele>595.83</ele>
        <time>2024-01-30T12:42:12Z</time>
      </trkpt>
      <trkpt lat="44.65956" lon="5.46636">
        <ele>596.82</ele>
        <time>2024-01-30T12:42:21Z</time>
      </trkpt>
      <trkpt lat="44.65943" lon="5.4666">
        <ele>597.69</ele>
        <time>2024-01-30T12:42:29Z</time>
      </trkpt>
      <trkpt lat="44.65916" lon="5.46744">
        <ele>600.48</ele>
        <time>2024-01-30T12:42:52Z</time>
      </trkpt>
      <trkpt lat="44.65908" lon="5.46778">
        <ele>601.87</ele>
        <time>2024-01-30T12:43:01Z</time>
      </trkpt>
      <trkpt lat="44.65903" lon="5.46818">
        <ele>603.3</ele>
        <time>2024-01-30T12:43:10Z</time>
      </trkpt>
      <trkpt lat="44.65811" lon="5.46765">
        <ele>607.6</ele>
        <time>2024-01-30T12:43:41Z</time>
      </trkpt>
      <trkpt lat="44.65787" lon="5.46761">
        <ele>608.65</ele>
        <time>2024-01-30T12:43:49Z</time>
      </trkpt>
      <trkpt lat="44.65716" lon="5.46763">
        <ele>610.04</ele>
        <time>2024-01-30T12:44:13Z</time>
      </trkpt>
      <trkpt lat="44.65714" lon="5.46763">
        <ele>610.12</ele>
        <time>2024-01-30T12:44:14Z</time>
      </trkpt>
      <trkpt lat="44.65702" lon="5.46764">
        <ele>610.35</ele>
        <time>2024-01-30T12:44:18Z</time>
      </trkpt>
      <trkpt lat="44.65364" lon="5.46782">
        <ele>627.16</ele>
        <time>2024-01-30T12:46:20Z</time>
      </trkpt>
      <trkpt lat="44.65339" lon="5.46774">
        <ele>628.32</ele>
        <time>2024-01-30T12:46:24Z</time>
      </trkpt>
      <trkpt lat="44.65329" lon="5.46756">
        <ele>627.02</ele>
        <time>2024-01-30T12:46:26Z</time>
      </trkpt>
      <trkpt lat="44.6528" lon="5.46541">
        <ele>616.72</ele>
        <time>2024-01-30T12:46:46Z</time>
      </trkpt>
      <trkpt lat="44.65262" lon="5.46498">
        <ele>615.04</ele>
        <time>2024-01-30T12:46:50Z</time>
      </trkpt>
      <trkpt lat="44.65191" lon="5.46398">
        <ele>607.78</ele>
        <time>2024-01-30T12:47:02Z</time>
      </trkpt>
      <trkpt lat="44.65166" lon="5.46337">
        <ele>606.3</ele>
        <time>2024-01-30T12:47:08Z</time>
      </trkpt>
      <trkpt lat="44.65148" lon="5.46288">
        <ele>603.16</ele>
        <time>2024-01-30T12:47:13Z</time>
      </trkpt>
      <trkpt lat="44.65144" lon="5.46264">
        <ele>602.67</ele>
        <time>2024-01-30T12:47:15Z</time>
      </trkpt>
      <trkpt lat="44.65147" lon="5.46238">
        <ele>601.11</ele>
        <time>2024-01-30T12:47:18Z</time>
      </trkpt>
      <trkpt lat="44.65167" lon="5.46153">
        <ele>596.56</ele>
        <time>2024-01-30T12:47:26Z</time>
      </trkpt>
      <trkpt lat="44.65189" lon="5.46088">
        <ele>593.27</ele>
        <time>2024-01-30T12:47:32Z</time>
      </trkpt>
      <trkpt lat="44.65192" lon="5.46066">
        <ele>592.21</ele>
        <time>2024-01-30T12:47:34Z</time>
      </trkpt>
      <trkpt lat="44.65189" lon="5.46045">
        <ele>590.89</ele>
        <time>2024-01-30T12:47:36Z</time>
      </trkpt>
      <trkpt lat="44.65162" lon="5.45967">
        <ele>587.89</ele>
        <time>2024-01-30T12:47:45Z</time>
      </trkpt>
      <trkpt lat="44.65155" lon="5.45946">
        <ele>587.12</ele>
        <time>2024-01-30T12:47:47Z</time>
      </trkpt>
      <trkpt lat="44.6515" lon="5.45934">
        <ele>586.72</ele>
        <time>2024-01-30T12:47:48Z</time>
      </trkpt>
      <trkpt lat="44.65124" lon="5.45863">
        <ele>584.49</ele>
        <time>2024-01-30T12:47:56Z</time>
      </trkpt>
      <trkpt lat="44.65117" lon="5.45842">
        <ele>584.04</ele>
        <time>2024-01-30T12:47:59Z</time>
      </trkpt>
      <trkpt lat="44.65106" lon="5.45814">
        <ele>583.44</ele>
        <time>2024-01-30T12:48:02Z</time>
      </trkpt>
      <trkpt lat="44.65095" lon="5.45785">
        <ele>583.36</ele>
        <time>2024-01-30T12:48:06Z</time>
      </trkpt>
      <trkpt lat="44.65089" lon="5.45769">
        <ele>583.4</ele>
        <time>2024-01-30T12:48:08Z</time>
      </trkpt>
      <trkpt lat="44.6507" lon="5.45719">
        <ele>584.61</ele>
        <time>2024-01-30T12:48:14Z</time>
      </trkpt>
      <trkpt lat="44.65057" lon="5.45683">
        <ele>585.61</ele>
        <time>2024-01-30T12:48:19Z</time>
      </trkpt>
      <trkpt lat="44.65056" lon="5.45681">
        <ele>585.63</ele>
        <time>2024-01-30T12:48:19Z</time>
      </trkpt>
      <trkpt lat="44.65064" lon="5.45659">
        <ele>584.82</ele>
        <time>2024-01-30T12:48:22Z</time>
      </trkpt>
      <trkpt lat="44.65071" lon="5.45621">
        <ele>583.77</ele>
        <time>2024-01-30T12:48:26Z</time>
      </trkpt>
      <trkpt lat="44.65079" lon="5.45495">
        <ele>579.63</ele>
        <time>2024-01-30T12:48:38Z</time>
      </trkpt>
      <trkpt lat="44.65086" lon="5.4538">
        <ele>576.45</ele>
        <time>2024-01-30T12:48:49Z</time>
      </trkpt>
      <trkpt lat="44.65085" lon="5.45358">
        <ele>575.54</ele>
        <time>2024-01-30T12:48:51Z</time>
      </trkpt>
      <trkpt lat="44.65082" lon="5.45339">
        <ele>574.86</ele>
        <time>2024-01-30T12:48:53Z</time>
      </trkpt>
      <trkpt lat="44.65075" lon="5.45321">
        <ele>574.43</ele>
        <time>2024-01-30T12:48:55Z</time>
      </trkpt>
      <trkpt lat="44.65038" lon="5.45284">
        <ele>574.21</ele>
        <time>2024-01-30T12:49:01Z</time>
      </trkpt>
      <trkpt lat="44.64941" lon="5.452">
        <ele>568.51</ele>
        <time>2024-01-30T12:49:16Z</time>
      </trkpt>
      <trkpt lat="44.6492" lon="5.45178">
        <ele>566.63</ele>
        <time>2024-01-30T12:49:20Z</time>
      </trkpt>
      <trkpt lat="44.64906" lon="5.45153">
        <ele>564.7</ele>
        <time>2024-01-30T12:49:23Z</time>
      </trkpt>
      <trkpt lat="44.64867" lon="5.45016">
        <ele>567.15</ele>
        <time>2024-01-30T12:49:39Z</time>
      </trkpt>
      <trkpt lat="44.64831" lon="5.44889">
        <ele>564.43</ele>
        <time>2024-01-30T12:50:03Z</time>
      </trkpt>
      <trkpt lat="44.64818" lon="5.44843">
        <ele>564.77</ele>
        <time>2024-01-30T12:50:14Z</time>
      </trkpt>
      <trkpt lat="44.64811" lon="5.44804">
        <ele>564.21</ele>
        <time>2024-01-30T12:50:22Z</time>
      </trkpt>
      <trkpt lat="44.64817" lon="5.44717">
        <ele>560.88</ele>
        <time>2024-01-30T12:50:41Z</time>
      </trkpt>
      <trkpt lat="44.64814" lon="5.44671">
        <ele>561.78</ele>
        <time>2024-01-30T12:50:50Z</time>
      </trkpt>
      <trkpt lat="44.64824" lon="5.44552">
        <ele>557.9</ele>
        <time>2024-01-30T12:51:09Z</time>
      </trkpt>
      <trkpt lat="44.64833" lon="5.44498">
        <ele>556.38</ele>
        <time>2024-01-30T12:51:15Z</time>
      </trkpt>
      <trkpt lat="44.64833" lon="5.44462">
        <ele>556.34</ele>
        <time>2024-01-30T12:51:19Z</time>
      </trkpt>
      <trkpt lat="44.64823" lon="5.44429">
        <ele>557.58</ele>
        <time>2024-01-30T12:51:22Z</time>
      </trkpt>
      <trkpt lat="44.64807" lon="5.44404">
        <ele>559.07</ele>
        <time>2024-01-30T12:51:26Z</time>
      </trkpt>
      <trkpt lat="44.64789" lon="5.44385">
        <ele>559.06</ele>
        <time>2024-01-30T12:51:29Z</time>
      </trkpt>
      <trkpt lat="44.64758" lon="5.44362">
        <ele>558.47</ele>
        <time>2024-01-30T12:51:34Z</time>
      </trkpt>
      <trkpt lat="44.64738" lon="5.44353">
        <ele>558.53</ele>
        <time>2024-01-30T12:51:37Z</time>
      </trkpt>
      <trkpt lat="44.6471" lon="5.44332">
        <ele>558.17</ele>
        <time>2024-01-30T12:51:41Z</time>
      </trkpt>
      <trkpt lat="44.64696" lon="5.44316">
        <ele>557.98</ele>
        <time>2024-01-30T12:51:44Z</time>
      </trkpt>
      <trkpt lat="44.64622" lon="5.44205">
        <ele>560.74</ele>
        <time>2024-01-30T12:52:05Z</time>
      </trkpt>
      <trkpt lat="44.64599" lon="5.44162">
        <ele>557.69</ele>
        <time>2024-01-30T12:52:17Z</time>
      </trkpt>
      <trkpt lat="44.64587" lon="5.44113">
        <ele>556.49</ele>
        <time>2024-01-30T12:52:29Z</time>
      </trkpt>
      <trkpt lat="44.64587" lon="5.4403">
        <ele>556.78</ele>
        <time>2024-01-30T12:52:48Z</time>
      </trkpt>
      <trkpt lat="44.6458" lon="5.4394">
        <ele>559.04</ele>
        <time>2024-01-30T12:53:07Z</time>
      </trkpt>
      <trkpt lat="44.64572" lon="5.43784">
        <ele>556.59</ele>
        <time>2024-01-30T12:53:24Z</time>
      </trkpt>
      <trkpt lat="44.64566" lon="5.43755">
        <ele>556.19</ele>
        <time>2024-01-30T12:53:26Z</time>
      </trkpt>
      <trkpt lat="44.6453" lon="5.43658">
        <ele>553.75</ele>
        <time>2024-01-30T12:53:36Z</time>
      </trkpt>
      <trkpt lat="44.6452" lon="5.4364">
        <ele>553.04</ele>
        <time>2024-01-30T12:53:38Z</time>
      </trkpt>
      <trkpt lat="44.64408" lon="5.43532">
        <ele>550.44</ele>
        <time>2024-01-30T12:53:54Z</time>
      </trkpt>
      <trkpt lat="44.64385" lon="5.43519">
        <ele>549.15</ele>
        <time>2024-01-30T12:53:57Z</time>
      </trkpt>
      <trkpt lat="44.64368" lon="5.43515">
        <ele>548.82</ele>
        <time>2024-01-30T12:53:59Z</time>
      </trkpt>
      <trkpt lat="44.64351" lon="5.43519">
        <ele>549.41</ele>
        <time>2024-01-30T12:54:01Z</time>
      </trkpt>
      <trkpt lat="44.64314" lon="5.4355">
        <ele>550.56</ele>
        <time>2024-01-30T12:54:06Z</time>
      </trkpt>
      <trkpt lat="44.64279" lon="5.43588">
        <ele>550.01</ele>
        <time>2024-01-30T12:54:12Z</time>
      </trkpt>
      <trkpt lat="44.64211" lon="5.43654">
        <ele>545.59</ele>
        <time>2024-01-30T12:54:24Z</time>
      </trkpt>
      <trkpt lat="44.64051" lon="5.4375">
        <ele>547.59</ele>
        <time>2024-01-30T12:54:53Z</time>
      </trkpt>
      <trkpt lat="44.6402" lon="5.43759">
        <ele>546.56</ele>
        <time>2024-01-30T12:54:58Z</time>
      </trkpt>
      <trkpt lat="44.64003" lon="5.43759">
        <ele>545.95</ele>
        <time>2024-01-30T12:55:01Z</time>
      </trkpt>
      <trkpt lat="44.63981" lon="5.43748">
        <ele>543.26</ele>
        <time>2024-01-30T12:55:04Z</time>
      </trkpt>
      <trkpt lat="44.63966" lon="5.43752">
        <ele>542.65</ele>
        <time>2024-01-30T12:55:06Z</time>
      </trkpt>
      <trkpt lat="44.63951" lon="5.43763">
        <ele>542.74</ele>
        <time>2024-01-30T12:55:09Z</time>
      </trkpt>
      <trkpt lat="44.63919" lon="5.43773">
        <ele>540.97</ele>
        <time>2024-01-30T12:55:14Z</time>
      </trkpt>
      <trkpt lat="44.6353" lon="5.43818">
        <ele>529.82</ele>
        <time>2024-01-30T12:56:09Z</time>
      </trkpt>
      <trkpt lat="44.6338" lon="5.43832">
        <ele>532.07</ele>
        <time>2024-01-30T12:56:33Z</time>
      </trkpt>
      <trkpt lat="44.63358" lon="5.43836">
        <ele>531.43</ele>
        <time>2024-01-30T12:56:38Z</time>
      </trkpt>
      <trkpt lat="44.63342" lon="5.43842">
        <ele>532.32</ele>
        <time>2024-01-30T12:56:41Z</time>
      </trkpt>
      <trkpt lat="44.63205" lon="5.43907">
        <ele>535.15</ele>
        <time>2024-01-30T12:57:13Z</time>
      </trkpt>
      <trkpt lat="44.62983" lon="5.44013">
        <ele>543.22</ele>
        <time>2024-01-30T12:58:05Z</time>
      </trkpt>
      <trkpt lat="44.62965" lon="5.44027">
        <ele>543.97</ele>
        <time>2024-01-30T12:58:09Z</time>
      </trkpt>
      <trkpt lat="44.62908" lon="5.44092">
        <ele>543.22</ele>
        <time>2024-01-30T12:58:23Z</time>
      </trkpt>
      <trkpt lat="44.62888" lon="5.44104">
        <ele>543.79</ele>
        <time>2024-01-30T12:58:28Z</time>
      </trkpt>
      <trkpt lat="44.62873" lon="5.4411">
        <ele>543.45</ele>
        <time>2024-01-30T12:58:31Z</time>
      </trkpt>
      <trkpt lat="44.62833" lon="5.44114">
        <ele>543.19</ele>
        <time>2024-01-30T12:58:40Z</time>
      </trkpt>
      <trkpt lat="44.62819" lon="5.44119">
        <ele>542.84</ele>
        <time>2024-01-30T12:58:43Z</time>
      </trkpt>
      <trkpt lat="44.62796" lon="5.44138">
        <ele>540.98</ele>
        <time>2024-01-30T12:58:49Z</time>
      </trkpt>
      <trkpt lat="44.62782" lon="5.44158">
        <ele>539.8</ele>
        <time>2024-01-30T12:58:54Z</time>
      </trkpt>
      <trkpt lat="44.62758" lon="5.44191">
        <ele>539.93</ele>
        <time>2024-01-30T12:59:01Z</time>
      </trkpt>
      <trkpt lat="44.62739" lon="5.44205">
        <ele>540.06</ele>
        <time>2024-01-30T12:59:05Z</time>
      </trkpt>
      <trkpt lat="44.62671" lon="5.44236">
        <ele>539.13</ele>
        <time>2024-01-30T12:59:22Z</time>
      </trkpt>
      <trkpt lat="44.62584" lon="5.44268">
        <ele>539.83</ele>
        <time>2024-01-30T12:59:44Z</time>
      </trkpt>
      <trkpt lat="44.62515" lon="5.44297">
        <ele>537.56</ele>
        <time>2024-01-30T13:00:02Z</time>
      </trkpt>
      <trkpt lat="44.62468" lon="5.44357">
        <ele>539.91</ele>
        <time>2024-01-30T13:00:15Z</time>
      </trkpt>
      <trkpt lat="44.62435" lon="5.44388">
        <ele>542.49</ele>
        <time>2024-01-30T13:00:22Z</time>
      </trkpt>
      <trkpt lat="44.62287" lon="5.44449">
        <ele>542.36</ele>
        <time>2024-01-30T13:00:49Z</time>
      </trkpt>
      <trkpt lat="44.62213" lon="5.44535">
        <ele>545.97</ele>
        <time>2024-01-30T13:01:06Z</time>
      </trkpt>
      <trkpt lat="44.62146" lon="5.44647">
        <ele>545.77</ele>
        <time>2024-01-30T13:01:31Z</time>
      </trkpt>
      <trkpt lat="44.62144" lon="5.44649">
        <ele>545.7</ele>
        <time>2024-01-30T13:01:31Z</time>
      </trkpt>
      <trkpt lat="44.6207" lon="5.44743">
        <ele>547.46</ele>
        <time>2024-01-30T13:01:58Z</time>
      </trkpt>
      <trkpt lat="44.62055" lon="5.44761">
        <ele>547.62</ele>
        <time>2024-01-30T13:02:04Z</time>
      </trkpt>
      <trkpt lat="44.62007" lon="5.4482">
        <ele>548.26</ele>
        <time>2024-01-30T13:02:22Z</time>
      </trkpt>
      <trkpt lat="44.61945" lon="5.44888">
        <ele>549.33</ele>
        <time>2024-01-30T13:02:46Z</time>
      </trkpt>
      <trkpt lat="44.61865" lon="5.44969">
        <ele>551.69</ele>
        <time>2024-01-30T13:03:17Z</time>
      </trkpt>
      <trkpt lat="44.61862" lon="5.44972">
        <ele>551.69</ele>
        <time>2024-01-30T13:03:18Z</time>
      </trkpt>
      <trkpt lat="44.61786" lon="5.45021">
        <ele>556.95</ele>
        <time>2024-01-30T13:03:43Z</time>
      </trkpt>
      <trkpt lat="44.61709" lon="5.45066">
        <ele>560.93</ele>
        <time>2024-01-30T13:04:05Z</time>
      </trkpt>
      <trkpt lat="44.61686" lon="5.45077">
        <ele>561.26</ele>
        <time>2024-01-30T13:04:11Z</time>
      </trkpt>
      <trkpt lat="44.61669" lon="5.45086">
        <ele>561.58</ele>
        <time>2024-01-30T13:04:16Z</time>
      </trkpt>
      <trkpt lat="44.6163" lon="5.45104">
        <ele>561.82</ele>
        <time>2024-01-30T13:04:26Z</time>
      </trkpt>
      <trkpt lat="44.61624" lon="5.45104">
        <ele>561.55</ele>
        <time>2024-01-30T13:04:28Z</time>
      </trkpt>
      <trkpt lat="44.61617" lon="5.45101">
        <ele>561.26</ele>
        <time>2024-01-30T13:04:30Z</time>
      </trkpt>
      <trkpt lat="44.61609" lon="5.45117">
        <ele>561.45</ele>
        <time>2024-01-30T13:04:33Z</time>
      </trkpt>
      <trkpt lat="44.61597" lon="5.45137">
        <ele>561.58</ele>
        <time>2024-01-30T13:04:38Z</time>
      </trkpt>
      <trkpt lat="44.61585" lon="5.4515">
        <ele>561.51</ele>
        <time>2024-01-30T13:04:42Z</time>
      </trkpt>
      <trkpt lat="44.61573" lon="5.45164">
        <ele>561.46</ele>
        <time>2024-01-30T13:04:46Z</time>
      </trkpt>
      <trkpt lat="44.61563" lon="5.45178">
        <ele>561.61</ele>
        <time>2024-01-30T13:04:49Z</time>
      </trkpt>
      <trkpt lat="44.61547" lon="5.45198">
        <ele>561.97</ele>
        <time>2024-01-30T13:04:54Z</time>
      </trkpt>
      <trkpt lat="44.61525" lon="5.45225">
        <ele>562.73</ele>
        <time>2024-01-30T13:05:01Z</time>
      </trkpt>
      <trkpt lat="44.6152" lon="5.45232">
        <ele>563.07</ele>
        <time>2024-01-30T13:05:03Z</time>
      </trkpt>
      <trkpt lat="44.61516" lon="5.45238">
        <ele>563.21</ele>
        <time>2024-01-30T13:05:04Z</time>
      </trkpt>
      <trkpt lat="44.61506" lon="5.45252">
        <ele>563.7</ele>
        <time>2024-01-30T13:05:07Z</time>
      </trkpt>
      <trkpt lat="44.61499" lon="5.45257">
        <ele>563.96</ele>
        <time>2024-01-30T13:05:10Z</time>
      </trkpt>
      <trkpt lat="44.61467" lon="5.45271">
        <ele>564.03</ele>
        <time>2024-01-30T13:05:18Z</time>
      </trkpt>
      <trkpt lat="44.61444" lon="5.45281">
        <ele>563.96</ele>
        <time>2024-01-30T13:05:23Z</time>
      </trkpt>
      <trkpt lat="44.61419" lon="5.45288">
        <ele>563.82</ele>
        <time>2024-01-30T13:05:29Z</time>
      </trkpt>
      <trkpt lat="44.61393" lon="5.45292">
        <ele>563.2</ele>
        <time>2024-01-30T13:05:35Z</time>
      </trkpt>
      <trkpt lat="44.61385" lon="5.45294">
        <ele>563.06</ele>
        <time>2024-01-30T13:05:37Z</time>
      </trkpt>
      <trkpt lat="44.6138" lon="5.45295">
        <ele>562.81</ele>
        <time>2024-01-30T13:05:38Z</time>
      </trkpt>
      <trkpt lat="44.61367" lon="5.45297">
        <ele>562.8</ele>
        <time>2024-01-30T13:05:41Z</time>
      </trkpt>
      <trkpt lat="44.61362" lon="5.45297">
        <ele>562.67</ele>
        <time>2024-01-30T13:05:42Z</time>
      </trkpt>
      <trkpt lat="44.61361" lon="5.45298">
        <ele>562.67</ele>
        <time>2024-01-30T13:05:43Z</time>
      </trkpt>
      <trkpt lat="44.61356" lon="5.45298">
        <ele>562.54</ele>
        <time>2024-01-30T13:05:44Z</time>
      </trkpt>
      <trkpt lat="44.61314" lon="5.45304">
        <ele>561.55</ele>
        <time>2024-01-30T13:05:53Z</time>
      </trkpt>
      <trkpt lat="44.61303" lon="5.45303">
        <ele>561.24</ele>
        <time>2024-01-30T13:05:55Z</time>
      </trkpt>
      <trkpt lat="44.61293" lon="5.45303">
        <ele>561.06</ele>
        <time>2024-01-30T13:05:57Z</time>
      </trkpt>
      <trkpt lat="44.61272" lon="5.45301">
        <ele>560.78</ele>
        <time>2024-01-30T13:06:01Z</time>
      </trkpt>
      <trkpt lat="44.61242" lon="5.45296">
        <ele>560.38</ele>
        <time>2024-01-30T13:06:06Z</time>
      </trkpt>
      <trkpt lat="44.61155" lon="5.45268">
        <ele>559.83</ele>
        <time>2024-01-30T13:06:19Z</time>
      </trkpt>
      <trkpt lat="44.61093" lon="5.45229">
        <ele>557.62</ele>
        <time>2024-01-30T13:06:30Z</time>
      </trkpt>
      <trkpt lat="44.61069" lon="5.45222">
        <ele>556.68</ele>
        <time>2024-01-30T13:06:35Z</time>
      </trkpt>
      <trkpt lat="44.61033" lon="5.45223">
        <ele>556.9</ele>
        <time>2024-01-30T13:06:46Z</time>
      </trkpt>
      <trkpt lat="44.61014" lon="5.4523">
        <ele>556.64</ele>
        <time>2024-01-30T13:06:52Z</time>
      </trkpt>
      <trkpt lat="44.60996" lon="5.45245">
        <ele>556.83</ele>
        <time>2024-01-30T13:06:59Z</time>
      </trkpt>
      <trkpt lat="44.60986" lon="5.45265">
        <ele>557.35</ele>
        <time>2024-01-30T13:07:04Z</time>
      </trkpt>
      <trkpt lat="44.60965" lon="5.45319">
        <ele>559.9</ele>
        <time>2024-01-30T13:07:19Z</time>
      </trkpt>
      <trkpt lat="44.60952" lon="5.45338">
        <ele>560.69</ele>
        <time>2024-01-30T13:07:26Z</time>
      </trkpt>
      <trkpt lat="44.6093" lon="5.45357">
        <ele>562.53</ele>
        <time>2024-01-30T13:07:35Z</time>
      </trkpt>
      <trkpt lat="44.60893" lon="5.45375">
        <ele>564.27</ele>
        <time>2024-01-30T13:07:48Z</time>
      </trkpt>
      <trkpt lat="44.60857" lon="5.4538">
        <ele>563.25</ele>
        <time>2024-01-30T13:08:00Z</time>
      </trkpt>
      <trkpt lat="44.60823" lon="5.45365">
        <ele>559.4</ele>
        <time>2024-01-30T13:08:11Z</time>
      </trkpt>
      <trkpt lat="44.6081" lon="5.45363">
        <ele>558.42</ele>
        <time>2024-01-30T13:08:15Z</time>
      </trkpt>
      <trkpt lat="44.60794" lon="5.45364">
        <ele>559.07</ele>
        <time>2024-01-30T13:08:19Z</time>
      </trkpt>
      <trkpt lat="44.6075" lon="5.45382">
        <ele>560.92</ele>
        <time>2024-01-30T13:08:30Z</time>
      </trkpt>
      <trkpt lat="44.60728" lon="5.45393">
        <ele>560.82</ele>
        <time>2024-01-30T13:08:35Z</time>
      </trkpt>
      <trkpt lat="44.60704" lon="5.45411">
        <ele>561.59</ele>
        <time>2024-01-30T13:08:41Z</time>
      </trkpt>
      <trkpt lat="44.60662" lon="5.45459">
        <ele>568.97</ele>
        <time>2024-01-30T13:08:54Z</time>
      </trkpt>
      <trkpt lat="44.60624" lon="5.45494">
        <ele>573.22</ele>
        <time>2024-01-30T13:09:08Z</time>
      </trkpt>
      <trkpt lat="44.60514" lon="5.45549">
        <ele>572.71</ele>
        <time>2024-01-30T13:09:45Z</time>
      </trkpt>
      <trkpt lat="44.60484" lon="5.45574">
        <ele>575.22</ele>
        <time>2024-01-30T13:09:56Z</time>
      </trkpt>
      <trkpt lat="44.60434" lon="5.45632">
        <ele>580.86</ele>
        <time>2024-01-30T13:10:17Z</time>
      </trkpt>
      <trkpt lat="44.60323" lon="5.4577">
        <ele>583.44</ele>
        <time>2024-01-30T13:11:14Z</time>
      </trkpt>
      <trkpt lat="44.60295" lon="5.45795">
        <ele>585.51</ele>
        <time>2024-01-30T13:11:25Z</time>
      </trkpt>
      <trkpt lat="44.60267" lon="5.45812">
        <ele>584.67</ele>
        <time>2024-01-30T13:11:34Z</time>
      </trkpt>
      <trkpt lat="44.60258" lon="5.45823">
        <ele>585.68</ele>
        <time>2024-01-30T13:11:38Z</time>
      </trkpt>
      <trkpt lat="44.60245" lon="5.4585">
        <ele>592.92</ele>
        <time>2024-01-30T13:11:44Z</time>
      </trkpt>
      <trkpt lat="44.60231" lon="5.45868">
        <ele>595.48</ele>
        <time>2024-01-30T13:11:50Z</time>
      </trkpt>
      <trkpt lat="44.60192" lon="5.45893">
        <ele>594.3</ele>
        <time>2024-01-30T13:12:03Z</time>
      </trkpt>
      <trkpt lat="44.60181" lon="5.45898">
        <ele>593.95</ele>
        <time>2024-01-30T13:12:07Z</time>
      </trkpt>
      <trkpt lat="44.60172" lon="5.45897">
        <ele>592.83</ele>
        <time>2024-01-30T13:12:10Z</time>
      </trkpt>
      <trkpt lat="44.60156" lon="5.45892">
        <ele>590.08</ele>
        <time>2024-01-30T13:12:14Z</time>
      </trkpt>
      <trkpt lat="44.60126" lon="5.45855">
        <ele>589.95</ele>
        <time>2024-01-30T13:12:22Z</time>
      </trkpt>
      <trkpt lat="44.60124" lon="5.45853">
        <ele>591.52</ele>
        <time>2024-01-30T13:12:23Z</time>
      </trkpt>
      <trkpt lat="44.60113" lon="5.45843">
        <ele>595.33</ele>
        <time>2024-01-30T13:12:26Z</time>
      </trkpt>
      <trkpt lat="44.60092" lon="5.45839">
        <ele>595.92</ele>
        <time>2024-01-30T13:12:29Z</time>
      </trkpt>
      <trkpt lat="44.60066" lon="5.45842">
        <ele>593.29</ele>
        <time>2024-01-30T13:12:34Z</time>
      </trkpt>
      <trkpt lat="44.60026" lon="5.45863">
        <ele>592.23</ele>
        <time>2024-01-30T13:12:42Z</time>
      </trkpt>
      <trkpt lat="44.59988" lon="5.45892">
        <ele>591.5</ele>
        <time>2024-01-30T13:12:56Z</time>
      </trkpt>
      <trkpt lat="44.59966" lon="5.459">
        <ele>591.63</ele>
        <time>2024-01-30T13:13:08Z</time>
      </trkpt>
      <trkpt lat="44.5993" lon="5.45901">
        <ele>592.44</ele>
        <time>2024-01-30T13:13:26Z</time>
      </trkpt>
      <trkpt lat="44.59904" lon="5.45897">
        <ele>594.86</ele>
        <time>2024-01-30T13:13:39Z</time>
      </trkpt>
      <trkpt lat="44.59878" lon="5.45894">
        <ele>595.5</ele>
        <time>2024-01-30T13:13:52Z</time>
      </trkpt>
      <trkpt lat="44.59836" lon="5.45906">
        <ele>597.48</ele>
        <time>2024-01-30T13:14:20Z</time>
      </trkpt>
      <trkpt lat="44.59824" lon="5.45917">
        <ele>599.06</ele>
        <time>2024-01-30T13:14:30Z</time>
      </trkpt>
      <trkpt lat="44.59811" lon="5.45934">
        <ele>601.89</ele>
        <time>2024-01-30T13:14:41Z</time>
      </trkpt>
      <trkpt lat="44.59803" lon="5.45951">
        <ele>604.4</ele>
        <time>2024-01-30T13:14:53Z</time>
      </trkpt>
      <trkpt lat="44.59797" lon="5.45972">
        <ele>607.21</ele>
        <time>2024-01-30T13:15:04Z</time>
      </trkpt>
      <trkpt lat="44.59795" lon="5.45992">
        <ele>607.45</ele>
        <time>2024-01-30T13:15:16Z</time>
      </trkpt>
      <trkpt lat="44.59789" lon="5.46097">
        <ele>608.26</ele>
        <time>2024-01-30T13:16:12Z</time>
      </trkpt>
      <trkpt lat="44.5979" lon="5.46136">
        <ele>608.57</ele>
        <time>2024-01-30T13:16:27Z</time>
      </trkpt>
      <trkpt lat="44.59796" lon="5.46188">
        <ele>610.53</ele>
        <time>2024-01-30T13:16:45Z</time>
      </trkpt>
      <trkpt lat="44.59813" lon="5.46235">
        <ele>611.55</ele>
        <time>2024-01-30T13:16:57Z</time>
      </trkpt>
      <trkpt lat="44.59838" lon="5.46287">
        <ele>616.38</ele>
        <time>2024-01-30T13:17:08Z</time>
      </trkpt>
      <trkpt lat="44.59878" lon="5.46328">
        <ele>617.82</ele>
        <time>2024-01-30T13:17:15Z</time>
      </trkpt>
      <trkpt lat="44.59903" lon="5.46347">
        <ele>620.65</ele>
        <time>2024-01-30T13:17:19Z</time>
      </trkpt>
      <trkpt lat="44.59926" lon="5.46356">
        <ele>622.28</ele>
        <time>2024-01-30T13:17:22Z</time>
      </trkpt>
      <trkpt lat="44.59963" lon="5.46352">
        <ele>622.87</ele>
        <time>2024-01-30T13:17:27Z</time>
      </trkpt>
      <trkpt lat="44.59997" lon="5.46339">
        <ele>623.99</ele>
        <time>2024-01-30T13:17:31Z</time>
      </trkpt>
      <trkpt lat="44.60043" lon="5.46302">
        <ele>624.67</ele>
        <time>2024-01-30T13:17:38Z</time>
      </trkpt>
      <trkpt lat="44.60062" lon="5.46274">
        <ele>621.68</ele>
        <time>2024-01-30T13:17:42Z</time>
      </trkpt>
      <trkpt lat="44.6013" lon="5.46221">
        <ele>621.18</ele>
        <time>2024-01-30T13:17:55Z</time>
      </trkpt>
      <trkpt lat="44.60154" lon="5.4622">
        <ele>618.62</ele>
        <time>2024-01-30T13:17:59Z</time>
      </trkpt>
      <trkpt lat="44.60188" lon="5.4623">
        <ele>626.29</ele>
        <time>2024-01-30T13:18:07Z</time>
      </trkpt>
      <trkpt lat="44.6023" lon="5.46248">
        <ele>629.7</ele>
        <time>2024-01-30T13:18:20Z</time>
      </trkpt>
      <trkpt lat="44.60246" lon="5.46262">
        <ele>629.9</ele>
        <time>2024-01-30T13:18:25Z</time>
      </trkpt>
      <trkpt lat="44.60256" lon="5.46246">
        <ele>633.37</ele>
        <time>2024-01-30T13:18:31Z</time>
      </trkpt>
      <trkpt lat="44.6028" lon="5.46272">
        <ele>635.79</ele>
        <time>2024-01-30T13:18:43Z</time>
      </trkpt>
      <trkpt lat="44.60299" lon="5.46331">
        <ele>638.34</ele>
        <time>2024-01-30T13:18:58Z</time>
      </trkpt>
      <trkpt lat="44.60303" lon="5.46341">
        <ele>637.73</ele>
        <time>2024-01-30T13:19:00Z</time>
      </trkpt>
      <trkpt lat="44.60305" lon="5.46358">
        <ele>637.92</ele>
        <time>2024-01-30T13:19:02Z</time>
      </trkpt>
      <trkpt lat="44.60301" lon="5.46375">
        <ele>636.37</ele>
        <time>2024-01-30T13:19:05Z</time>
      </trkpt>
      <trkpt lat="44.60289" lon="5.46392">
        <ele>638.77</ele>
        <time>2024-01-30T13:19:08Z</time>
      </trkpt>
      <trkpt lat="44.60282" lon="5.46397">
        <ele>637.21</ele>
        <time>2024-01-30T13:19:09Z</time>
      </trkpt>
      <trkpt lat="44.60269" lon="5.46447">
        <ele>638.38</ele>
        <time>2024-01-30T13:19:15Z</time>
      </trkpt>
      <trkpt lat="44.60247" lon="5.46485">
        <ele>635.72</ele>
        <time>2024-01-30T13:19:20Z</time>
      </trkpt>
      <trkpt lat="44.60237" lon="5.46499">
        <ele>633.57</ele>
        <time>2024-01-30T13:19:23Z</time>
      </trkpt>
      <trkpt lat="44.60233" lon="5.46503">
        <ele>633.48</ele>
        <time>2024-01-30T13:19:23Z</time>
      </trkpt>
      <trkpt lat="44.60225" lon="5.46513">
        <ele>634.27</ele>
        <time>2024-01-30T13:19:25Z</time>
      </trkpt>
      <trkpt lat="44.60191" lon="5.46546">
        <ele>637.49</ele>
        <time>2024-01-30T13:19:32Z</time>
      </trkpt>
      <trkpt lat="44.60163" lon="5.46569">
        <ele>637.56</ele>
        <time>2024-01-30T13:19:39Z</time>
      </trkpt>
      <trkpt lat="44.60141" lon="5.46589">
        <ele>637.09</ele>
        <time>2024-01-30T13:19:45Z</time>
      </trkpt>
      <trkpt lat="44.6011" lon="5.46616">
        <ele>637.14</ele>
        <time>2024-01-30T13:19:52Z</time>
      </trkpt>
      <trkpt lat="44.60129" lon="5.46654">
        <ele>636.94</ele>
        <time>2024-01-30T13:19:59Z</time>
      </trkpt>
      <trkpt lat="44.60137" lon="5.46679">
        <ele>638.82</ele>
        <time>2024-01-30T13:20:04Z</time>
      </trkpt>
      <trkpt lat="44.60132" lon="5.46716">
        <ele>644.13</ele>
        <time>2024-01-30T13:20:09Z</time>
      </trkpt>
      <trkpt lat="44.60098" lon="5.46762">
        <ele>640.78</ele>
        <time>2024-01-30T13:20:19Z</time>
      </trkpt>
      <trkpt lat="44.60042" lon="5.46847">
        <ele>637.41</ele>
        <time>2024-01-30T13:20:38Z</time>
      </trkpt>
      <trkpt lat="44.60034" lon="5.46873">
        <ele>635.86</ele>
        <time>2024-01-30T13:20:43Z</time>
      </trkpt>
      <trkpt lat="44.60037" lon="5.46949">
        <ele>637.51</ele>
        <time>2024-01-30T13:20:54Z</time>
      </trkpt>
      <trkpt lat="44.60023" lon="5.46968">
        <ele>635.65</ele>
        <time>2024-01-30T13:20:59Z</time>
      </trkpt>
      <trkpt lat="44.59999" lon="5.46979">
        <ele>634.27</ele>
        <time>2024-01-30T13:21:04Z</time>
      </trkpt>
      <trkpt lat="44.59975" lon="5.47029">
        <ele>636.4</ele>
        <time>2024-01-30T13:21:16Z</time>
      </trkpt>
      <trkpt lat="44.5995" lon="5.47056">
        <ele>636.89</ele>
        <time>2024-01-30T13:21:25Z</time>
      </trkpt>
      <trkpt lat="44.59932" lon="5.47085">
        <ele>638.62</ele>
        <time>2024-01-30T13:21:32Z</time>
      </trkpt>
      <trkpt lat="44.59898" lon="5.47106">
        <ele>634.56</ele>
        <time>2024-01-30T13:21:40Z</time>
      </trkpt>
      <trkpt lat="44.5989" lon="5.47125">
        <ele>636.11</ele>
        <time>2024-01-30T13:21:43Z</time>
      </trkpt>
      <trkpt lat="44.59859" lon="5.47158">
        <ele>635.39</ele>
        <time>2024-01-30T13:21:50Z</time>
      </trkpt>
      <trkpt lat="44.5976" lon="5.47228">
        <ele>634.61</ele>
        <time>2024-01-30T13:22:06Z</time>
      </trkpt>
      <trkpt lat="44.59705" lon="5.47255">
        <ele>633.51</ele>
        <time>2024-01-30T13:22:14Z</time>
      </trkpt>
      <trkpt lat="44.5968" lon="5.47153">
        <ele>634.01</ele>
        <time>2024-01-30T13:22:24Z</time>
      </trkpt>
      <trkpt lat="44.5968" lon="5.47027">
        <ele>634.48</ele>
        <time>2024-01-30T13:22:37Z</time>
      </trkpt>
      <trkpt lat="44.59673" lon="5.47005">
        <ele>634.65</ele>
        <time>2024-01-30T13:22:40Z</time>
      </trkpt>
      <trkpt lat="44.5959" lon="5.47077">
        <ele>634.51</ele>
        <time>2024-01-30T13:22:57Z</time>
      </trkpt>
      <trkpt lat="44.59531" lon="5.47128">
        <ele>635.69</ele>
        <time>2024-01-30T13:23:09Z</time>
      </trkpt>
      <trkpt lat="44.59525" lon="5.47146">
        <ele>635.65</ele>
        <time>2024-01-30T13:23:13Z</time>
      </trkpt>
      <trkpt lat="44.59503" lon="5.4719">
        <ele>635.18</ele>
        <time>2024-01-30T13:23:24Z</time>
      </trkpt>
      <trkpt lat="44.59446" lon="5.4726">
        <ele>634.77</ele>
        <time>2024-01-30T13:23:46Z</time>
      </trkpt>
      <trkpt lat="44.58899" lon="5.47741">
        <ele>636.45</ele>
        <time>2024-01-30T13:27:06Z</time>
      </trkpt>
      <trkpt lat="44.58318" lon="5.48201">
        <ele>638.92</ele>
        <time>2024-01-30T13:30:49Z</time>
      </trkpt>
      <trkpt lat="44.58199" lon="5.48308">
        <ele>639.85</ele>
        <time>2024-01-30T13:31:35Z</time>
      </trkpt>
      <trkpt lat="44.58182" lon="5.4832">
        <ele>641.37</ele>
        <time>2024-01-30T13:31:42Z</time>
      </trkpt>
      <trkpt lat="44.58171" lon="5.48311">
        <ele>641.57</ele>
        <time>2024-01-30T13:31:45Z</time>
      </trkpt>
      <trkpt lat="44.58143" lon="5.48288">
        <ele>640.47</ele>
        <time>2024-01-30T13:31:56Z</time>
      </trkpt>
      <trkpt lat="44.58132" lon="5.48282">
        <ele>639.98</ele>
        <time>2024-01-30T13:31:59Z</time>
      </trkpt>
      <trkpt lat="44.58125" lon="5.48269">
        <ele>638.99</ele>
        <time>2024-01-30T13:32:03Z</time>
      </trkpt>
      <trkpt lat="44.58086" lon="5.48304">
        <ele>639.8</ele>
        <time>2024-01-30T13:32:10Z</time>
      </trkpt>
      <trkpt lat="44.58017" lon="5.48383">
        <ele>639.41</ele>
        <time>2024-01-30T13:32:23Z</time>
      </trkpt>
      <trkpt lat="44.58003" lon="5.4837">
        <ele>637.33</ele>
        <time>2024-01-30T13:32:26Z</time>
      </trkpt>
      <trkpt lat="44.5798" lon="5.48357">
        <ele>637.06</ele>
        <time>2024-01-30T13:32:30Z</time>
      </trkpt>
      <trkpt lat="44.57829" lon="5.48271">
        <ele>638.67</ele>
        <time>2024-01-30T13:32:58Z</time>
      </trkpt>
      <trkpt lat="44.57745" lon="5.48219">
        <ele>639.54</ele>
        <time>2024-01-30T13:33:15Z</time>
      </trkpt>
      <trkpt lat="44.57737" lon="5.48214">
        <ele>639.59</ele>
        <time>2024-01-30T13:33:17Z</time>
      </trkpt>
      <trkpt lat="44.57703" lon="5.48194">
        <ele>639.98</ele>
        <time>2024-01-30T13:33:25Z</time>
      </trkpt>
      <trkpt lat="44.57668" lon="5.48173">
        <ele>639.92</ele>
        <time>2024-01-30T13:33:34Z</time>
      </trkpt>
      <trkpt lat="44.5761" lon="5.48138">
        <ele>639.94</ele>
        <time>2024-01-30T13:33:50Z</time>
      </trkpt>
      <trkpt lat="44.57122" lon="5.47795">
        <ele>647.07</ele>
        <time>2024-01-30T13:36:28Z</time>
      </trkpt>
      <trkpt lat="44.57041" lon="5.47739">
        <ele>648.43</ele>
        <time>2024-01-30T13:36:48Z</time>
      </trkpt>
      <trkpt lat="44.5702" lon="5.47713">
        <ele>648.52</ele>
        <time>2024-01-30T13:36:53Z</time>
      </trkpt>
      <trkpt lat="44.56917" lon="5.47713">
        <ele>649.59</ele>
        <time>2024-01-30T13:37:11Z</time>
      </trkpt>
      <trkpt lat="44.56856" lon="5.47712">
        <ele>650.4</ele>
        <time>2024-01-30T13:37:23Z</time>
      </trkpt>
      <trkpt lat="44.56766" lon="5.47713">
        <ele>653.5</ele>
        <time>2024-01-30T13:37:49Z</time>
      </trkpt>
      <trkpt lat="44.5671" lon="5.47716">
        <ele>655.17</ele>
        <time>2024-01-30T13:38:07Z</time>
      </trkpt>
      <trkpt lat="44.56656" lon="5.47712">
        <ele>657.11</ele>
        <time>2024-01-30T13:38:25Z</time>
      </trkpt>
      <trkpt lat="44.56607" lon="5.47703">
        <ele>658.72</ele>
        <time>2024-01-30T13:38:42Z</time>
      </trkpt>
      <trkpt lat="44.56571" lon="5.47687">
        <ele>659.82</ele>
        <time>2024-01-30T13:38:54Z</time>
      </trkpt>
      <trkpt lat="44.56558" lon="5.47681">
        <ele>660.33</ele>
        <time>2024-01-30T13:38:58Z</time>
      </trkpt>
      <trkpt lat="44.56505" lon="5.47675">
        <ele>661.25</ele>
        <time>2024-01-30T13:39:20Z</time>
      </trkpt>
      <trkpt lat="44.56447" lon="5.47685">
        <ele>661.97</ele>
        <time>2024-01-30T13:39:51Z</time>
      </trkpt>
      <trkpt lat="44.56441" lon="5.47692">
        <ele>661.67</ele>
        <time>2024-01-30T13:39:56Z</time>
      </trkpt>
      <trkpt lat="44.56438" lon="5.47699">
        <ele>661.73</ele>
        <time>2024-01-30T13:40:00Z</time>
      </trkpt>
      <trkpt lat="44.56438" lon="5.4772">
        <ele>662.35</ele>
        <time>2024-01-30T13:40:10Z</time>
      </trkpt>
      <trkpt lat="44.56431" lon="5.4775">
        <ele>665.02</ele>
        <time>2024-01-30T13:40:25Z</time>
      </trkpt>
      <trkpt lat="44.56414" lon="5.47795">
        <ele>669.51</ele>
        <time>2024-01-30T13:40:50Z</time>
      </trkpt>
      <trkpt lat="44.56408" lon="5.47829">
        <ele>673.23</ele>
        <time>2024-01-30T13:41:07Z</time>
      </trkpt>
      <trkpt lat="44.5637" lon="5.47872">
        <ele>677.99</ele>
        <time>2024-01-30T13:41:39Z</time>
      </trkpt>
      <trkpt lat="44.56371" lon="5.47899">
        <ele>684.08</ele>
        <time>2024-01-30T13:41:52Z</time>
      </trkpt>
      <trkpt lat="44.5638" lon="5.47909">
        <ele>689.4</ele>
        <time>2024-01-30T13:42:00Z</time>
      </trkpt>
      <trkpt lat="44.56401" lon="5.47903">
        <ele>689.47</ele>
        <time>2024-01-30T13:42:15Z</time>
      </trkpt>
      <trkpt lat="44.56429" lon="5.47903">
        <ele>693.53</ele>
        <time>2024-01-30T13:42:34Z</time>
      </trkpt>
      <trkpt lat="44.56511" lon="5.4787">
        <ele>691.9</ele>
        <time>2024-01-30T13:43:32Z</time>
      </trkpt>
      <trkpt lat="44.56531" lon="5.47879">
        <ele>694.95</ele>
        <time>2024-01-30T13:43:46Z</time>
      </trkpt>
      <trkpt lat="44.56572" lon="5.47915">
        <ele>699.81</ele>
        <time>2024-01-30T13:44:15Z</time>
      </trkpt>
      <trkpt lat="44.56587" lon="5.47948">
        <ele>704.25</ele>
        <time>2024-01-30T13:44:32Z</time>
      </trkpt>
      <trkpt lat="44.56604" lon="5.4801">
        <ele>716.3</ele>
        <time>2024-01-30T13:45:02Z</time>
      </trkpt>
      <trkpt lat="44.56634" lon="5.48023">
        <ele>714.09</ele>
        <time>2024-01-30T13:45:24Z</time>
      </trkpt>
      <trkpt lat="44.56687" lon="5.48057">
        <ele>719.99</ele>
        <time>2024-01-30T13:46:04Z</time>
      </trkpt>
      <trkpt lat="44.56706" lon="5.48063">
        <ele>720.05</ele>
        <time>2024-01-30T13:46:16Z</time>
      </trkpt>
      <trkpt lat="44.56717" lon="5.48079">
        <ele>721.83</ele>
        <time>2024-01-30T13:46:25Z</time>
      </trkpt>
      <trkpt lat="44.56713" lon="5.4813">
        <ele>728.01</ele>
        <time>2024-01-30T13:46:45Z</time>
      </trkpt>
      <trkpt lat="44.56722" lon="5.48152">
        <ele>729.2</ele>
        <time>2024-01-30T13:46:53Z</time>
      </trkpt>
      <trkpt lat="44.56759" lon="5.48215">
        <ele>734.91</ele>
        <time>2024-01-30T13:47:20Z</time>
      </trkpt>
      <trkpt lat="44.56773" lon="5.48252">
        <ele>739.98</ele>
        <time>2024-01-30T13:47:36Z</time>
      </trkpt>
      <trkpt lat="44.56797" lon="5.48286">
        <ele>740.89</ele>
        <time>2024-01-30T13:47:55Z</time>
      </trkpt>
      <trkpt lat="44.56834" lon="5.48284">
        <ele>731.67</ele>
        <time>2024-01-30T13:48:13Z</time>
      </trkpt>
      <trkpt lat="44.56847" lon="5.48303">
        <ele>732.57</ele>
        <time>2024-01-30T13:48:23Z</time>
      </trkpt>
      <trkpt lat="44.56874" lon="5.48401">
        <ele>746.39</ele>
        <time>2024-01-30T13:49:03Z</time>
      </trkpt>
      <trkpt lat="44.56889" lon="5.48421">
        <ele>745.45</ele>
        <time>2024-01-30T13:49:15Z</time>
      </trkpt>
      <trkpt lat="44.56908" lon="5.48435">
        <ele>744.48</ele>
        <time>2024-01-30T13:49:27Z</time>
      </trkpt>
      <trkpt lat="44.56914" lon="5.48446">
        <ele>745.59</ele>
        <time>2024-01-30T13:49:34Z</time>
      </trkpt>
      <trkpt lat="44.56912" lon="5.48452">
        <ele>746.91</ele>
        <time>2024-01-30T13:49:37Z</time>
      </trkpt>
      <trkpt lat="44.56908" lon="5.48454">
        <ele>747.57</ele>
        <time>2024-01-30T13:49:40Z</time>
      </trkpt>
      <trkpt lat="44.56892" lon="5.48438">
        <ele>747.57</ele>
        <time>2024-01-30T13:49:53Z</time>
      </trkpt>
      <trkpt lat="44.56871" lon="5.4843">
        <ele>751.01</ele>
        <time>2024-01-30T13:50:09Z</time>
      </trkpt>
      <trkpt lat="44.5684" lon="5.48411">
        <ele>756.74</ele>
        <time>2024-01-30T13:50:32Z</time>
      </trkpt>
      <trkpt lat="44.56796" lon="5.48399">
        <ele>766.39</ele>
        <time>2024-01-30T13:51:01Z</time>
      </trkpt>
      <trkpt lat="44.56749" lon="5.48374">
        <ele>771.56</ele>
        <time>2024-01-30T13:51:34Z</time>
      </trkpt>
      <trkpt lat="44.56696" lon="5.48362">
        <ele>783.74</ele>
        <time>2024-01-30T13:52:08Z</time>
      </trkpt>
      <trkpt lat="44.56657" lon="5.4834">
        <ele>789.53</ele>
        <time>2024-01-30T13:52:32Z</time>
      </trkpt>
      <trkpt lat="44.56643" lon="5.48308">
        <ele>785.38</ele>
        <time>2024-01-30T13:52:45Z</time>
      </trkpt>
      <trkpt lat="44.56634" lon="5.48307">
        <ele>788.08</ele>
        <time>2024-01-30T13:52:50Z</time>
      </trkpt>
      <trkpt lat="44.56634" lon="5.48319">
        <ele>790.04</ele>
        <time>2024-01-30T13:52:54Z</time>
      </trkpt>
      <trkpt lat="44.56728" lon="5.48449">
        <ele>796.7</ele>
        <time>2024-01-30T13:53:41Z</time>
      </trkpt>
      <trkpt lat="44.56763" lon="5.48478">
        <ele>791.01</ele>
        <time>2024-01-30T13:53:55Z</time>
      </trkpt>
      <trkpt lat="44.56775" lon="5.48545">
        <ele>799.79</ele>
        <time>2024-01-30T13:54:15Z</time>
      </trkpt>
      <trkpt lat="44.56792" lon="5.48611">
        <ele>802.36</ele>
        <time>2024-01-30T13:54:35Z</time>
      </trkpt>
      <trkpt lat="44.56791" lon="5.48625">
        <ele>803.08</ele>
        <time>2024-01-30T13:54:39Z</time>
      </trkpt>
      <trkpt lat="44.56779" lon="5.48662">
        <ele>805.55</ele>
        <time>2024-01-30T13:54:50Z</time>
      </trkpt>
      <trkpt lat="44.5676" lon="5.4867">
        <ele>809.62</ele>
        <time>2024-01-30T13:54:58Z</time>
      </trkpt>
      <trkpt lat="44.56755" lon="5.4868">
        <ele>810.77</ele>
        <time>2024-01-30T13:55:01Z</time>
      </trkpt>
      <trkpt lat="44.56769" lon="5.48781">
        <ele>816.72</ele>
        <time>2024-01-30T13:55:28Z</time>
      </trkpt>
      <trkpt lat="44.56813" lon="5.48863">
        <ele>813.96</ele>
        <time>2024-01-30T13:55:49Z</time>
      </trkpt>
      <trkpt lat="44.56818" lon="5.48918">
        <ele>819</ele>
        <time>2024-01-30T13:55:58Z</time>
      </trkpt>
      <trkpt lat="44.5683" lon="5.48962">
        <ele>819.01</ele>
        <time>2024-01-30T13:56:07Z</time>
      </trkpt>
      <trkpt lat="44.56834" lon="5.49019">
        <ele>819.77</ele>
        <time>2024-01-30T13:56:16Z</time>
      </trkpt>
      <trkpt lat="44.5683" lon="5.49042">
        <ele>821.19</ele>
        <time>2024-01-30T13:56:21Z</time>
      </trkpt>
      <trkpt lat="44.56798" lon="5.49073">
        <ele>824.1</ele>
        <time>2024-01-30T13:56:32Z</time>
      </trkpt>
      <trkpt lat="44.56765" lon="5.49121">
        <ele>829.01</ele>
        <time>2024-01-30T13:56:51Z</time>
      </trkpt>
      <trkpt lat="44.56759" lon="5.49139">
        <ele>827.81</ele>
        <time>2024-01-30T13:56:58Z</time>
      </trkpt>
      <trkpt lat="44.56729" lon="5.49192">
        <ele>829.91</ele>
        <time>2024-01-30T13:57:24Z</time>
      </trkpt>
      <trkpt lat="44.56697" lon="5.49224">
        <ele>837.61</ele>
        <time>2024-01-30T13:57:44Z</time>
      </trkpt>
      <trkpt lat="44.56668" lon="5.49264">
        <ele>837.19</ele>
        <time>2024-01-30T13:58:03Z</time>
      </trkpt>
      <trkpt lat="44.56634" lon="5.49278">
        <ele>841.75</ele>
        <time>2024-01-30T13:58:17Z</time>
      </trkpt>
      <trkpt lat="44.56618" lon="5.49291">
        <ele>844.12</ele>
        <time>2024-01-30T13:58:24Z</time>
      </trkpt>
      <trkpt lat="44.56538" lon="5.49425">
        <ele>846.9</ele>
        <time>2024-01-30T13:59:13Z</time>
      </trkpt>
      <trkpt lat="44.56509" lon="5.49456">
        <ele>850.28</ele>
        <time>2024-01-30T13:59:25Z</time>
      </trkpt>
      <trkpt lat="44.56477" lon="5.49476">
        <ele>851.99</ele>
        <time>2024-01-30T13:59:35Z</time>
      </trkpt>
      <trkpt lat="44.56411" lon="5.49493">
        <ele>857.62</ele>
        <time>2024-01-30T14:00:00Z</time>
      </trkpt>
      <trkpt lat="44.56398" lon="5.4949">
        <ele>861.56</ele>
        <time>2024-01-30T14:00:06Z</time>
      </trkpt>
      <trkpt lat="44.56358" lon="5.49497">
        <ele>862.7</ele>
        <time>2024-01-30T14:00:26Z</time>
      </trkpt>
      <trkpt lat="44.56337" lon="5.49492">
        <ele>867.67</ele>
        <time>2024-01-30T14:00:37Z</time>
      </trkpt>
      <trkpt lat="44.56302" lon="5.49502">
        <ele>865.43</ele>
        <time>2024-01-30T14:00:57Z</time>
      </trkpt>
      <trkpt lat="44.56291" lon="5.49499">
        <ele>867.59</ele>
        <time>2024-01-30T14:01:04Z</time>
      </trkpt>
      <trkpt lat="44.56259" lon="5.49477">
        <ele>875.7</ele>
        <time>2024-01-30T14:01:22Z</time>
      </trkpt>
      <trkpt lat="44.5617" lon="5.49461">
        <ele>879.72</ele>
        <time>2024-01-30T14:02:03Z</time>
      </trkpt>
      <trkpt lat="44.56085" lon="5.49503">
        <ele>877.97</ele>
        <time>2024-01-30T14:02:47Z</time>
      </trkpt>
      <trkpt lat="44.56061" lon="5.49511">
        <ele>877.45</ele>
        <time>2024-01-30T14:03:02Z</time>
      </trkpt>
      <trkpt lat="44.56038" lon="5.49512">
        <ele>879.54</ele>
        <time>2024-01-30T14:03:15Z</time>
      </trkpt>
      <trkpt lat="44.56016" lon="5.49502">
        <ele>884.1</ele>
        <time>2024-01-30T14:03:30Z</time>
      </trkpt>
      <trkpt lat="44.56001" lon="5.49503">
        <ele>883.35</ele>
        <time>2024-01-30T14:03:40Z</time>
      </trkpt>
      <trkpt lat="44.55969" lon="5.49483">
        <ele>887.04</ele>
        <time>2024-01-30T14:04:05Z</time>
      </trkpt>
      <trkpt lat="44.5595" lon="5.49454">
        <ele>894.3</ele>
        <time>2024-01-30T14:04:28Z</time>
      </trkpt>
      <trkpt lat="44.55927" lon="5.49445">
        <ele>897.77</ele>
        <time>2024-01-30T14:04:50Z</time>
      </trkpt>
      <trkpt lat="44.55885" lon="5.49442">
        <ele>899.75</ele>
        <time>2024-01-30T14:05:34Z</time>
      </trkpt>
      <trkpt lat="44.55837" lon="5.49455">
        <ele>903.08</ele>
        <time>2024-01-30T14:06:31Z</time>
      </trkpt>
      <trkpt lat="44.55791" lon="5.49472">
        <ele>907.12</ele>
        <time>2024-01-30T14:07:28Z</time>
      </trkpt>
      <trkpt lat="44.55771" lon="5.49472">
        <ele>912.22</ele>
        <time>2024-01-30T14:07:52Z</time>
      </trkpt>
      <trkpt lat="44.55747" lon="5.49475">
        <ele>916.58</ele>
        <time>2024-01-30T14:08:18Z</time>
      </trkpt>
      <trkpt lat="44.55707" lon="5.49499">
        <ele>922.95</ele>
        <time>2024-01-30T14:09:02Z</time>
      </trkpt>
      <trkpt lat="44.55659" lon="5.49555">
        <ele>929.86</ele>
        <time>2024-01-30T14:09:55Z</time>
      </trkpt>
      <trkpt lat="44.55657" lon="5.49599">
        <ele>930.17</ele>
        <time>2024-01-30T14:10:18Z</time>
      </trkpt>
      <trkpt lat="44.55667" lon="5.49619">
        <ele>932.26</ele>
        <time>2024-01-30T14:10:29Z</time>
      </trkpt>
      <trkpt lat="44.55689" lon="5.49647">
        <ele>931.27</ele>
        <time>2024-01-30T14:10:48Z</time>
      </trkpt>
      <trkpt lat="44.55708" lon="5.49698">
        <ele>928.28</ele>
        <time>2024-01-30T14:11:10Z</time>
      </trkpt>
      <trkpt lat="44.55698" lon="5.49721">
        <ele>932.23</ele>
        <time>2024-01-30T14:11:20Z</time>
      </trkpt>
      <trkpt lat="44.55655" lon="5.49776">
        <ele>940.66</ele>
        <time>2024-01-30T14:11:50Z</time>
      </trkpt>
      <trkpt lat="44.55611" lon="5.49812">
        <ele>952.54</ele>
        <time>2024-01-30T14:12:19Z</time>
      </trkpt>
      <trkpt lat="44.55573" lon="5.49839">
        <ele>961.43</ele>
        <time>2024-01-30T14:12:49Z</time>
      </trkpt>
      <trkpt lat="44.55538" lon="5.49845">
        <ele>970.45</ele>
        <time>2024-01-30T14:13:18Z</time>
      </trkpt>
      <trkpt lat="44.55531" lon="5.49853">
        <ele>970.44</ele>
        <time>2024-01-30T14:13:25Z</time>
      </trkpt>
      <trkpt lat="44.55527" lon="5.49872">
        <ele>969.27</ele>
        <time>2024-01-30T14:13:37Z</time>
      </trkpt>
      <trkpt lat="44.55515" lon="5.49885">
        <ele>971</ele>
        <time>2024-01-30T14:13:50Z</time>
      </trkpt>
      <trkpt lat="44.55491" lon="5.499">
        <ele>975.27</ele>
        <time>2024-01-30T14:14:12Z</time>
      </trkpt>
      <trkpt lat="44.5545" lon="5.49949">
        <ele>978.9</ele>
        <time>2024-01-30T14:14:55Z</time>
      </trkpt>
      <trkpt lat="44.55418" lon="5.5">
        <ele>984.28</ele>
        <time>2024-01-30T14:15:28Z</time>
      </trkpt>
      <trkpt lat="44.55408" lon="5.50049">
        <ele>987.21</ele>
        <time>2024-01-30T14:15:51Z</time>
      </trkpt>
      <trkpt lat="44.55405" lon="5.50095">
        <ele>992.99</ele>
        <time>2024-01-30T14:16:11Z</time>
      </trkpt>
      <trkpt lat="44.55416" lon="5.50132">
        <ele>996.78</ele>
        <time>2024-01-30T14:16:28Z</time>
      </trkpt>
      <trkpt lat="44.55436" lon="5.50167">
        <ele>997.28</ele>
        <time>2024-01-30T14:16:46Z</time>
      </trkpt>
      <trkpt lat="44.55436" lon="5.50189">
        <ele>998.27</ele>
        <time>2024-01-30T14:16:55Z</time>
      </trkpt>
      <trkpt lat="44.55427" lon="5.50203">
        <ele>999.7</ele>
        <time>2024-01-30T14:17:02Z</time>
      </trkpt>
      <trkpt lat="44.55396" lon="5.50224">
        <ele>1002.66</ele>
        <time>2024-01-30T14:17:20Z</time>
      </trkpt>
      <trkpt lat="44.55389" lon="5.50229">
        <ele>1003.39</ele>
        <time>2024-01-30T14:17:24Z</time>
      </trkpt>
      <trkpt lat="44.55334" lon="5.50235">
        <ele>1010.05</ele>
        <time>2024-01-30T14:17:50Z</time>
      </trkpt>
      <trkpt lat="44.55296" lon="5.50247">
        <ele>1014.73</ele>
        <time>2024-01-30T14:18:07Z</time>
      </trkpt>
      <trkpt lat="44.55256" lon="5.50225">
        <ele>1019.9</ele>
        <time>2024-01-30T14:18:25Z</time>
      </trkpt>
      <trkpt lat="44.55242" lon="5.50234">
        <ele>1019.49</ele>
        <time>2024-01-30T14:18:32Z</time>
      </trkpt>
      <trkpt lat="44.55208" lon="5.50269">
        <ele>1018.18</ele>
        <time>2024-01-30T14:18:48Z</time>
      </trkpt>
      <trkpt lat="44.55197" lon="5.50294">
        <ele>1017.37</ele>
        <time>2024-01-30T14:18:54Z</time>
      </trkpt>
      <trkpt lat="44.55181" lon="5.50311">
        <ele>1015.85</ele>
        <time>2024-01-30T14:19:00Z</time>
      </trkpt>
      <trkpt lat="44.55073" lon="5.50373">
        <ele>1012.06</ele>
        <time>2024-01-30T14:19:30Z</time>
      </trkpt>
      <trkpt lat="44.55004" lon="5.50453">
        <ele>1008.69</ele>
        <time>2024-01-30T14:19:51Z</time>
      </trkpt>
      <trkpt lat="44.54957" lon="5.50519">
        <ele>1007.42</ele>
        <time>2024-01-30T14:20:05Z</time>
      </trkpt>
      <trkpt lat="44.54948" lon="5.50528">
        <ele>1006.9</ele>
        <time>2024-01-30T14:20:08Z</time>
      </trkpt>
      <trkpt lat="44.5493" lon="5.5055">
        <ele>1006.07</ele>
        <time>2024-01-30T14:20:13Z</time>
      </trkpt>
      <trkpt lat="44.54926" lon="5.50574">
        <ele>1005.09</ele>
        <time>2024-01-30T14:20:16Z</time>
      </trkpt>
      <trkpt lat="44.54913" lon="5.50573">
        <ele>1005.14</ele>
        <time>2024-01-30T14:20:18Z</time>
      </trkpt>
      <trkpt lat="44.54879" lon="5.50575">
        <ele>1003.49</ele>
        <time>2024-01-30T14:20:22Z</time>
      </trkpt>
      <trkpt lat="44.54878" lon="5.50581">
        <ele>1002.79</ele>
        <time>2024-01-30T14:20:23Z</time>
      </trkpt>
      <trkpt lat="44.54847" lon="5.50602">
        <ele>997.1</ele>
        <time>2024-01-30T14:20:30Z</time>
      </trkpt>
      <trkpt lat="44.54841" lon="5.5061">
        <ele>994.94</ele>
        <time>2024-01-30T14:20:31Z</time>
      </trkpt>
      <trkpt lat="44.54856" lon="5.50614">
        <ele>995.82</ele>
        <time>2024-01-30T14:20:33Z</time>
      </trkpt>
      <trkpt lat="44.54872" lon="5.50622">
        <ele>996.77</ele>
        <time>2024-01-30T14:20:35Z</time>
      </trkpt>
      <trkpt lat="44.54884" lon="5.50653">
        <ele>994.26</ele>
        <time>2024-01-30T14:20:38Z</time>
      </trkpt>
      <trkpt lat="44.54899" lon="5.50716">
        <ele>988.91</ele>
        <time>2024-01-30T14:20:44Z</time>
      </trkpt>
      <trkpt lat="44.54902" lon="5.50736">
        <ele>987.51</ele>
        <time>2024-01-30T14:20:46Z</time>
      </trkpt>
      <trkpt lat="44.54934" lon="5.50795">
        <ele>981.91</ele>
        <time>2024-01-30T14:20:52Z</time>
      </trkpt>
      <trkpt lat="44.5494" lon="5.508">
        <ele>981.31</ele>
        <time>2024-01-30T14:20:53Z</time>
      </trkpt>
      <trkpt lat="44.5495" lon="5.508">
        <ele>981.17</ele>
        <time>2024-01-30T14:20:54Z</time>
      </trkpt>
      <trkpt lat="44.54972" lon="5.50792">
        <ele>980.91</ele>
        <time>2024-01-30T14:20:57Z</time>
      </trkpt>
      <trkpt lat="44.54974" lon="5.50795">
        <ele>979.26</ele>
        <time>2024-01-30T14:20:57Z</time>
      </trkpt>
      <trkpt lat="44.54975" lon="5.50799">
        <ele>978.36</ele>
        <time>2024-01-30T14:20:58Z</time>
      </trkpt>
      <trkpt lat="44.54971" lon="5.50809">
        <ele>977.34</ele>
        <time>2024-01-30T14:20:59Z</time>
      </trkpt>
      <trkpt lat="44.54961" lon="5.50817">
        <ele>976.85</ele>
        <time>2024-01-30T14:21:00Z</time>
      </trkpt>
      <trkpt lat="44.54927" lon="5.50833">
        <ele>974.65</ele>
        <time>2024-01-30T14:21:05Z</time>
      </trkpt>
      <trkpt lat="44.54914" lon="5.5083">
        <ele>974.2</ele>
        <time>2024-01-30T14:21:06Z</time>
      </trkpt>
      <trkpt lat="44.54869" lon="5.50802">
        <ele>969.45</ele>
        <time>2024-01-30T14:21:13Z</time>
      </trkpt>
      <trkpt lat="44.54856" lon="5.50788">
        <ele>968.85</ele>
        <time>2024-01-30T14:21:15Z</time>
      </trkpt>
      <trkpt lat="44.54846" lon="5.50771">
        <ele>969.12</ele>
        <time>2024-01-30T14:21:17Z</time>
      </trkpt>
      <trkpt lat="44.54836" lon="5.50761">
        <ele>968.31</ele>
        <time>2024-01-30T14:21:18Z</time>
      </trkpt>
      <trkpt lat="44.54826" lon="5.50759">
        <ele>965.83</ele>
        <time>2024-01-30T14:21:19Z</time>
      </trkpt>
      <trkpt lat="44.54807" lon="5.50762">
        <ele>963.15</ele>
        <time>2024-01-30T14:21:22Z</time>
      </trkpt>
      <trkpt lat="44.54792" lon="5.50758">
        <ele>960.26</ele>
        <time>2024-01-30T14:21:24Z</time>
      </trkpt>
      <trkpt lat="44.54757" lon="5.50735">
        <ele>959.76</ele>
        <time>2024-01-30T14:21:29Z</time>
      </trkpt>
      <trkpt lat="44.5471" lon="5.50711">
        <ele>954.79</ele>
        <time>2024-01-30T14:21:35Z</time>
      </trkpt>
      <trkpt lat="44.54679" lon="5.5068">
        <ele>952.94</ele>
        <time>2024-01-30T14:21:41Z</time>
      </trkpt>
      <trkpt lat="44.54645" lon="5.50668">
        <ele>949.32</ele>
        <time>2024-01-30T14:21:45Z</time>
      </trkpt>
      <trkpt lat="44.54625" lon="5.50652">
        <ele>947.9</ele>
        <time>2024-01-30T14:21:48Z</time>
      </trkpt>
      <trkpt lat="44.5461" lon="5.50648">
        <ele>946.93</ele>
        <time>2024-01-30T14:21:50Z</time>
      </trkpt>
      <trkpt lat="44.54568" lon="5.50655">
        <ele>943.63</ele>
        <time>2024-01-30T14:21:55Z</time>
      </trkpt>
      <trkpt lat="44.54556" lon="5.50655">
        <ele>942.87</ele>
        <time>2024-01-30T14:21:57Z</time>
      </trkpt>
      <trkpt lat="44.54549" lon="5.50658">
        <ele>942.9</ele>
        <time>2024-01-30T14:21:58Z</time>
      </trkpt>
      <trkpt lat="44.54542" lon="5.50665">
        <ele>941.99</ele>
        <time>2024-01-30T14:21:59Z</time>
      </trkpt>
      <trkpt lat="44.54525" lon="5.50705">
        <ele>937.41</ele>
        <time>2024-01-30T14:22:03Z</time>
      </trkpt>
      <trkpt lat="44.54513" lon="5.50723">
        <ele>935.39</ele>
        <time>2024-01-30T14:22:05Z</time>
      </trkpt>
      <trkpt lat="44.54498" lon="5.50737">
        <ele>933.74</ele>
        <time>2024-01-30T14:22:08Z</time>
      </trkpt>
      <trkpt lat="44.54481" lon="5.50745">
        <ele>932.64</ele>
        <time>2024-01-30T14:22:10Z</time>
      </trkpt>
      <trkpt lat="44.54452" lon="5.50747">
        <ele>932.44</ele>
        <time>2024-01-30T14:22:13Z</time>
      </trkpt>
      <trkpt lat="44.54432" lon="5.50759">
        <ele>929.92</ele>
        <time>2024-01-30T14:22:15Z</time>
      </trkpt>
      <trkpt lat="44.54404" lon="5.50782">
        <ele>926.84</ele>
        <time>2024-01-30T14:22:19Z</time>
      </trkpt>
      <trkpt lat="44.54372" lon="5.50822">
        <ele>923.61</ele>
        <time>2024-01-30T14:22:24Z</time>
      </trkpt>
      <trkpt lat="44.5433" lon="5.50849">
        <ele>918.55</ele>
        <time>2024-01-30T14:22:29Z</time>
      </trkpt>
      <trkpt lat="44.54315" lon="5.5085">
        <ele>918.03</ele>
        <time>2024-01-30T14:22:31Z</time>
      </trkpt>
      <trkpt lat="44.54287" lon="5.50842">
        <ele>917.83</ele>
        <time>2024-01-30T14:22:34Z</time>
      </trkpt>
      <trkpt lat="44.5423" lon="5.50855">
        <ele>909.65</ele>
        <time>2024-01-30T14:22:41Z</time>
      </trkpt>
      <trkpt lat="44.5428" lon="5.5089">
        <ele>907.43</ele>
        <time>2024-01-30T14:22:52Z</time>
      </trkpt>
      <trkpt lat="44.54288" lon="5.50906">
        <ele>905.3</ele>
        <time>2024-01-30T14:22:55Z</time>
      </trkpt>
      <trkpt lat="44.54284" lon="5.50914">
        <ele>903.29</ele>
        <time>2024-01-30T14:22:56Z</time>
      </trkpt>
      <trkpt lat="44.54269" lon="5.50923">
        <ele>899.49</ele>
        <time>2024-01-30T14:22:59Z</time>
      </trkpt>
      <trkpt lat="44.54261" lon="5.50938">
        <ele>896.84</ele>
        <time>2024-01-30T14:23:02Z</time>
      </trkpt>
      <trkpt lat="44.54262" lon="5.50956">
        <ele>892.01</ele>
        <time>2024-01-30T14:23:04Z</time>
      </trkpt>
      <trkpt lat="44.54285" lon="5.50991">
        <ele>887.98</ele>
        <time>2024-01-30T14:23:11Z</time>
      </trkpt>
      <trkpt lat="44.54271" lon="5.50999">
        <ele>885.41</ele>
        <time>2024-01-30T14:23:14Z</time>
      </trkpt>
      <trkpt lat="44.54227" lon="5.50991">
        <ele>877.82</ele>
        <time>2024-01-30T14:23:22Z</time>
      </trkpt>
      <trkpt lat="44.54236" lon="5.51045">
        <ele>871.96</ele>
        <time>2024-01-30T14:23:30Z</time>
      </trkpt>
      <trkpt lat="44.54153" lon="5.50976">
        <ele>862.7</ele>
        <time>2024-01-30T14:23:49Z</time>
      </trkpt>
      <trkpt lat="44.54082" lon="5.50938">
        <ele>852.57</ele>
        <time>2024-01-30T14:24:07Z</time>
      </trkpt>
      <trkpt lat="44.54062" lon="5.50904">
        <ele>852.3</ele>
        <time>2024-01-30T14:24:15Z</time>
      </trkpt>
      <trkpt lat="44.54016" lon="5.50911">
        <ele>844.72</ele>
        <time>2024-01-30T14:24:31Z</time>
      </trkpt>
      <trkpt lat="44.53984" lon="5.50896">
        <ele>846.03</ele>
        <time>2024-01-30T14:24:45Z</time>
      </trkpt>
      <trkpt lat="44.53933" lon="5.50842">
        <ele>849.27</ele>
        <time>2024-01-30T14:25:18Z</time>
      </trkpt>
      <trkpt lat="44.53916" lon="5.50839">
        <ele>846.03</ele>
        <time>2024-01-30T14:25:28Z</time>
      </trkpt>
      <trkpt lat="44.53887" lon="5.50823">
        <ele>841.42</ele>
        <time>2024-01-30T14:25:43Z</time>
      </trkpt>
      <trkpt lat="44.5387" lon="5.50832">
        <ele>838.45</ele>
        <time>2024-01-30T14:25:53Z</time>
      </trkpt>
      <trkpt lat="44.53853" lon="5.50833">
        <ele>838.35</ele>
        <time>2024-01-30T14:26:02Z</time>
      </trkpt>
      <trkpt lat="44.53797" lon="5.50856">
        <ele>844.37</ele>
        <time>2024-01-30T14:26:33Z</time>
      </trkpt>
      <trkpt lat="44.5382" lon="5.50865">
        <ele>841.81</ele>
        <time>2024-01-30T14:26:45Z</time>
      </trkpt>
      <trkpt lat="44.53829" lon="5.50873">
        <ele>841.63</ele>
        <time>2024-01-30T14:26:50Z</time>
      </trkpt>
      <trkpt lat="44.53841" lon="5.50878">
        <ele>840.92</ele>
        <time>2024-01-30T14:26:54Z</time>
      </trkpt>
      <trkpt lat="44.53851" lon="5.50887">
        <ele>840.96</ele>
        <time>2024-01-30T14:26:59Z</time>
      </trkpt>
      <trkpt lat="44.53855" lon="5.50902">
        <ele>841.94</ele>
        <time>2024-01-30T14:27:03Z</time>
      </trkpt>
      <trkpt lat="44.53856" lon="5.50938">
        <ele>844.88</ele>
        <time>2024-01-30T14:27:11Z</time>
      </trkpt>
      <trkpt lat="44.53868" lon="5.50962">
        <ele>844.21</ele>
        <time>2024-01-30T14:27:17Z</time>
      </trkpt>
      <trkpt lat="44.53866" lon="5.50971">
        <ele>846.04</ele>
        <time>2024-01-30T14:27:19Z</time>
      </trkpt>
      <trkpt lat="44.53875" lon="5.50997">
        <ele>844.99</ele>
        <time>2024-01-30T14:27:25Z</time>
      </trkpt>
      <trkpt lat="44.5388" lon="5.5102">
        <ele>845.84</ele>
        <time>2024-01-30T14:27:30Z</time>
      </trkpt>
      <trkpt lat="44.53907" lon="5.51198">
        <ele>851.06</ele>
        <time>2024-01-30T14:28:23Z</time>
      </trkpt>
      <trkpt lat="44.53906" lon="5.51301">
        <ele>855.45</ele>
        <time>2024-01-30T14:29:01Z</time>
      </trkpt>
      <trkpt lat="44.53903" lon="5.51307">
        <ele>856.08</ele>
        <time>2024-01-30T14:29:04Z</time>
      </trkpt>
      <trkpt lat="44.53895" lon="5.51305">
        <ele>857.71</ele>
        <time>2024-01-30T14:29:09Z</time>
      </trkpt>
      <trkpt lat="44.53878" lon="5.51284">
        <ele>861.26</ele>
        <time>2024-01-30T14:29:21Z</time>
      </trkpt>
      <trkpt lat="44.53867" lon="5.51283">
        <ele>863.01</ele>
        <time>2024-01-30T14:29:27Z</time>
      </trkpt>
      <trkpt lat="44.53849" lon="5.51271">
        <ele>866.47</ele>
        <time>2024-01-30T14:29:39Z</time>
      </trkpt>
      <trkpt lat="44.53836" lon="5.51213">
        <ele>868.14</ele>
        <time>2024-01-30T14:30:05Z</time>
      </trkpt>
      <trkpt lat="44.53832" lon="5.51227">
        <ele>869.09</ele>
        <time>2024-01-30T14:30:13Z</time>
      </trkpt>
      <trkpt lat="44.53827" lon="5.51291">
        <ele>873.3</ele>
        <time>2024-01-30T14:30:47Z</time>
      </trkpt>
      <trkpt lat="44.53789" lon="5.51419">
        <ele>883.24</ele>
        <time>2024-01-30T14:31:58Z</time>
      </trkpt>
      <trkpt lat="44.53792" lon="5.51456">
        <ele>881.47</ele>
        <time>2024-01-30T14:32:16Z</time>
      </trkpt>
      <trkpt lat="44.53773" lon="5.51503">
        <ele>890.58</ele>
        <time>2024-01-30T14:32:43Z</time>
      </trkpt>
      <trkpt lat="44.53771" lon="5.51492">
        <ele>890.94</ele>
        <time>2024-01-30T14:32:48Z</time>
      </trkpt>
      <trkpt lat="44.53773" lon="5.5148">
        <ele>888.46</ele>
        <time>2024-01-30T14:32:54Z</time>
      </trkpt>
      <trkpt lat="44.53769" lon="5.5147">
        <ele>889.11</ele>
        <time>2024-01-30T14:33:00Z</time>
      </trkpt>
      <trkpt lat="44.53753" lon="5.51467">
        <ele>894.84</ele>
        <time>2024-01-30T14:33:11Z</time>
      </trkpt>
      <trkpt lat="44.53743" lon="5.51461">
        <ele>897.9</ele>
        <time>2024-01-30T14:33:18Z</time>
      </trkpt>
      <trkpt lat="44.53735" lon="5.5144">
        <ele>902.23</ele>
        <time>2024-01-30T14:33:31Z</time>
      </trkpt>
      <trkpt lat="44.53734" lon="5.51419">
        <ele>903.48</ele>
        <time>2024-01-30T14:33:41Z</time>
      </trkpt>
      <trkpt lat="44.53736" lon="5.51399">
        <ele>904.32</ele>
        <time>2024-01-30T14:33:51Z</time>
      </trkpt>
      <trkpt lat="44.5373" lon="5.51389">
        <ele>906.52</ele>
        <time>2024-01-30T14:33:58Z</time>
      </trkpt>
      <trkpt lat="44.53689" lon="5.51538">
        <ele>918.04</ele>
        <time>2024-01-30T14:35:17Z</time>
      </trkpt>
      <trkpt lat="44.53679" lon="5.51552">
        <ele>919.73</ele>
        <time>2024-01-30T14:35:27Z</time>
      </trkpt>
      <trkpt lat="44.5368" lon="5.51579">
        <ele>917.89</ele>
        <time>2024-01-30T14:35:40Z</time>
      </trkpt>
      <trkpt lat="44.53672" lon="5.51597">
        <ele>919.82</ele>
        <time>2024-01-30T14:35:51Z</time>
      </trkpt>
      <trkpt lat="44.53671" lon="5.51612">
        <ele>920.86</ele>
        <time>2024-01-30T14:35:58Z</time>
      </trkpt>
      <trkpt lat="44.53678" lon="5.51626">
        <ele>922.27</ele>
        <time>2024-01-30T14:36:07Z</time>
      </trkpt>
      <trkpt lat="44.53683" lon="5.51665">
        <ele>928.05</ele>
        <time>2024-01-30T14:36:28Z</time>
      </trkpt>
      <trkpt lat="44.53696" lon="5.51667">
        <ele>927.22</ele>
        <time>2024-01-30T14:36:37Z</time>
      </trkpt>
      <trkpt lat="44.53704" lon="5.5168">
        <ele>928.8</ele>
        <time>2024-01-30T14:36:46Z</time>
      </trkpt>
      <trkpt lat="44.53702" lon="5.51692">
        <ele>931.27</ele>
        <time>2024-01-30T14:36:53Z</time>
      </trkpt>
      <trkpt lat="44.53668" lon="5.51705">
        <ele>935.22</ele>
        <time>2024-01-30T14:37:20Z</time>
      </trkpt>
      <trkpt lat="44.53643" lon="5.51708">
        <ele>936.96</ele>
        <time>2024-01-30T14:37:39Z</time>
      </trkpt>
      <trkpt lat="44.53638" lon="5.51718">
        <ele>938.75</ele>
        <time>2024-01-30T14:37:45Z</time>
      </trkpt>
      <trkpt lat="44.53644" lon="5.5173">
        <ele>940.76</ele>
        <time>2024-01-30T14:37:54Z</time>
      </trkpt>
      <trkpt lat="44.53657" lon="5.51747">
        <ele>944.4</ele>
        <time>2024-01-30T14:38:07Z</time>
      </trkpt>
      <trkpt lat="44.53677" lon="5.51764">
        <ele>948.45</ele>
        <time>2024-01-30T14:38:25Z</time>
      </trkpt>
      <trkpt lat="44.53693" lon="5.51773">
        <ele>949.37</ele>
        <time>2024-01-30T14:38:39Z</time>
      </trkpt>
      <trkpt lat="44.53711" lon="5.51795">
        <ele>951.66</ele>
        <time>2024-01-30T14:38:56Z</time>
      </trkpt>
      <trkpt lat="44.53735" lon="5.51833">
        <ele>955.48</ele>
        <time>2024-01-30T14:39:21Z</time>
      </trkpt>
      <trkpt lat="44.53754" lon="5.51854">
        <ele>957.45</ele>
        <time>2024-01-30T14:39:37Z</time>
      </trkpt>
      <trkpt lat="44.53763" lon="5.5187">
        <ele>959.72</ele>
        <time>2024-01-30T14:39:46Z</time>
      </trkpt>
      <trkpt lat="44.53764" lon="5.51891">
        <ele>962.46</ele>
        <time>2024-01-30T14:39:55Z</time>
      </trkpt>
      <trkpt lat="44.53756" lon="5.51902">
        <ele>965.83</ele>
        <time>2024-01-30T14:40:02Z</time>
      </trkpt>
      <trkpt lat="44.53742" lon="5.51902">
        <ele>967.52</ele>
        <time>2024-01-30T14:40:10Z</time>
      </trkpt>
      <trkpt lat="44.53721" lon="5.51897">
        <ele>970.46</ele>
        <time>2024-01-30T14:40:23Z</time>
      </trkpt>
      <trkpt lat="44.53687" lon="5.51851">
        <ele>965.67</ele>
        <time>2024-01-30T14:40:52Z</time>
      </trkpt>
      <trkpt lat="44.53663" lon="5.51847">
        <ele>966.82</ele>
        <time>2024-01-30T14:41:07Z</time>
      </trkpt>
      <trkpt lat="44.53649" lon="5.51855">
        <ele>968.48</ele>
        <time>2024-01-30T14:41:16Z</time>
      </trkpt>
      <trkpt lat="44.53647" lon="5.51878">
        <ele>972.1</ele>
        <time>2024-01-30T14:41:26Z</time>
      </trkpt>
      <trkpt lat="44.53649" lon="5.51918">
        <ele>980.53</ele>
        <time>2024-01-30T14:41:43Z</time>
      </trkpt>
      <trkpt lat="44.53657" lon="5.51955">
        <ele>984.66</ele>
        <time>2024-01-30T14:42:01Z</time>
      </trkpt>
      <trkpt lat="44.53683" lon="5.51998">
        <ele>989.6</ele>
        <time>2024-01-30T14:42:29Z</time>
      </trkpt>
      <trkpt lat="44.53678" lon="5.52016">
        <ele>992.71</ele>
        <time>2024-01-30T14:42:39Z</time>
      </trkpt>
      <trkpt lat="44.53659" lon="5.52038">
        <ele>994.35</ele>
        <time>2024-01-30T14:42:58Z</time>
      </trkpt>
      <trkpt lat="44.53657" lon="5.52047">
        <ele>995.46</ele>
        <time>2024-01-30T14:43:03Z</time>
      </trkpt>
      <trkpt lat="44.53673" lon="5.52069">
        <ele>999.59</ele>
        <time>2024-01-30T14:43:22Z</time>
      </trkpt>
      <trkpt lat="44.53691" lon="5.52084">
        <ele>1002.21</ele>
        <time>2024-01-30T14:43:39Z</time>
      </trkpt>
      <trkpt lat="44.53698" lon="5.52104">
        <ele>1004.96</ele>
        <time>2024-01-30T14:43:52Z</time>
      </trkpt>
      <trkpt lat="44.537" lon="5.52125">
        <ele>1006.45</ele>
        <time>2024-01-30T14:44:05Z</time>
      </trkpt>
      <trkpt lat="44.53706" lon="5.52151">
        <ele>1007.49</ele>
        <time>2024-01-30T14:44:20Z</time>
      </trkpt>
      <trkpt lat="44.53751" lon="5.52208">
        <ele>1009.76</ele>
        <time>2024-01-30T14:45:07Z</time>
      </trkpt>
      <trkpt lat="44.53757" lon="5.5226">
        <ele>1013.46</ele>
        <time>2024-01-30T14:45:36Z</time>
      </trkpt>
      <trkpt lat="44.53755" lon="5.52296">
        <ele>1016.66</ele>
        <time>2024-01-30T14:45:55Z</time>
      </trkpt>
      <trkpt lat="44.53757" lon="5.52325">
        <ele>1019.09</ele>
        <time>2024-01-30T14:46:10Z</time>
      </trkpt>
      <trkpt lat="44.53777" lon="5.52375">
        <ele>1021.18</ele>
        <time>2024-01-30T14:46:39Z</time>
      </trkpt>
      <trkpt lat="44.53776" lon="5.52395">
        <ele>1022.76</ele>
        <time>2024-01-30T14:46:49Z</time>
      </trkpt>
      <trkpt lat="44.53748" lon="5.52455">
        <ele>1028.01</ele>
        <time>2024-01-30T14:47:26Z</time>
      </trkpt>
      <trkpt lat="44.53737" lon="5.52469">
        <ele>1029.65</ele>
        <time>2024-01-30T14:47:36Z</time>
      </trkpt>
      <trkpt lat="44.53731" lon="5.52465">
        <ele>1031.55</ele>
        <time>2024-01-30T14:47:41Z</time>
      </trkpt>
      <trkpt lat="44.53732" lon="5.52423">
        <ele>1031.55</ele>
        <time>2024-01-30T14:48:03Z</time>
      </trkpt>
      <trkpt lat="44.53726" lon="5.524">
        <ele>1031.28</ele>
        <time>2024-01-30T14:48:16Z</time>
      </trkpt>
      <trkpt lat="44.53715" lon="5.52399">
        <ele>1033.68</ele>
        <time>2024-01-30T14:48:24Z</time>
      </trkpt>
      <trkpt lat="44.53711" lon="5.52403">
        <ele>1034.8</ele>
        <time>2024-01-30T14:48:27Z</time>
      </trkpt>
      <trkpt lat="44.53657" lon="5.525">
        <ele>1045.86</ele>
        <time>2024-01-30T14:49:32Z</time>
      </trkpt>
      <trkpt lat="44.53626" lon="5.52545">
        <ele>1051.16</ele>
        <time>2024-01-30T14:50:06Z</time>
      </trkpt>
      <trkpt lat="44.53617" lon="5.52596">
        <ele>1055.89</ele>
        <time>2024-01-30T14:50:37Z</time>
      </trkpt>
      <trkpt lat="44.53615" lon="5.52645">
        <ele>1055.79</ele>
        <time>2024-01-30T14:51:05Z</time>
      </trkpt>
      <trkpt lat="44.53602" lon="5.52683">
        <ele>1059.44</ele>
        <time>2024-01-30T14:51:28Z</time>
      </trkpt>
      <trkpt lat="44.53589" lon="5.52696">
        <ele>1062.16</ele>
        <time>2024-01-30T14:51:40Z</time>
      </trkpt>
      <trkpt lat="44.53574" lon="5.52702">
        <ele>1065.44</ele>
        <time>2024-01-30T14:51:51Z</time>
      </trkpt>
      <trkpt lat="44.53561" lon="5.52714">
        <ele>1066.15</ele>
        <time>2024-01-30T14:52:01Z</time>
      </trkpt>
      <trkpt lat="44.53535" lon="5.52752">
        <ele>1070.65</ele>
        <time>2024-01-30T14:52:23Z</time>
      </trkpt>
      <trkpt lat="44.53505" lon="5.52819">
        <ele>1080.66</ele>
        <time>2024-01-30T14:52:54Z</time>
      </trkpt>
      <trkpt lat="44.5351" lon="5.52844">
        <ele>1079.5</ele>
        <time>2024-01-30T14:53:04Z</time>
      </trkpt>
      <trkpt lat="44.5351" lon="5.5286">
        <ele>1081.31</ele>
        <time>2024-01-30T14:53:11Z</time>
      </trkpt>
      <trkpt lat="44.53501" lon="5.52882">
        <ele>1088.07</ele>
        <time>2024-01-30T14:53:21Z</time>
      </trkpt>
      <trkpt lat="44.53471" lon="5.52932">
        <ele>1091.94</ele>
        <time>2024-01-30T14:53:50Z</time>
      </trkpt>
      <trkpt lat="44.53437" lon="5.52954">
        <ele>1094.1</ele>
        <time>2024-01-30T14:54:13Z</time>
      </trkpt>
      <trkpt lat="44.53427" lon="5.52968">
        <ele>1093.93</ele>
        <time>2024-01-30T14:54:22Z</time>
      </trkpt>
      <trkpt lat="44.53402" lon="5.52973">
        <ele>1097.14</ele>
        <time>2024-01-30T14:54:38Z</time>
      </trkpt>
      <trkpt lat="44.53389" lon="5.52969">
        <ele>1098.55</ele>
        <time>2024-01-30T14:54:46Z</time>
      </trkpt>
      <trkpt lat="44.53382" lon="5.52949">
        <ele>1105.2</ele>
        <time>2024-01-30T14:54:57Z</time>
      </trkpt>
      <trkpt lat="44.53381" lon="5.52906">
        <ele>1107.78</ele>
        <time>2024-01-30T14:55:18Z</time>
      </trkpt>
      <trkpt lat="44.53376" lon="5.52878">
        <ele>1109.88</ele>
        <time>2024-01-30T14:55:33Z</time>
      </trkpt>
      <trkpt lat="44.53347" lon="5.52818">
        <ele>1115.57</ele>
        <time>2024-01-30T14:56:09Z</time>
      </trkpt>
      <trkpt lat="44.53327" lon="5.52818">
        <ele>1115.31</ele>
        <time>2024-01-30T14:56:22Z</time>
      </trkpt>
      <trkpt lat="44.53323" lon="5.52825">
        <ele>1114.87</ele>
        <time>2024-01-30T14:56:26Z</time>
      </trkpt>
      <trkpt lat="44.53315" lon="5.52872">
        <ele>1114.28</ele>
        <time>2024-01-30T14:56:47Z</time>
      </trkpt>
      <trkpt lat="44.53293" lon="5.52883">
        <ele>1116.15</ele>
        <time>2024-01-30T14:56:59Z</time>
      </trkpt>
      <trkpt lat="44.53281" lon="5.52884">
        <ele>1117.76</ele>
        <time>2024-01-30T14:57:06Z</time>
      </trkpt>
      <trkpt lat="44.53284" lon="5.52894">
        <ele>1117.09</ele>
        <time>2024-01-30T14:57:09Z</time>
      </trkpt>
      <trkpt lat="44.53287" lon="5.52916">
        <ele>1116.46</ele>
        <time>2024-01-30T14:57:15Z</time>
      </trkpt>
      <trkpt lat="44.5326" lon="5.52962">
        <ele>1116.95</ele>
        <time>2024-01-30T14:57:33Z</time>
      </trkpt>
      <trkpt lat="44.53192" lon="5.53064">
        <ele>1104.42</ele>
        <time>2024-01-30T14:58:11Z</time>
      </trkpt>
      <trkpt lat="44.53164" lon="5.53083">
        <ele>1107.83</ele>
        <time>2024-01-30T14:58:24Z</time>
      </trkpt>
      <trkpt lat="44.5315" lon="5.53118">
        <ele>1104.45</ele>
        <time>2024-01-30T14:58:35Z</time>
      </trkpt>
      <trkpt lat="44.53108" lon="5.53251">
        <ele>1093.81</ele>
        <time>2024-01-30T14:59:04Z</time>
      </trkpt>
      <trkpt lat="44.53096" lon="5.5328">
        <ele>1096.19</ele>
        <time>2024-01-30T14:59:10Z</time>
      </trkpt>
      <trkpt lat="44.53104" lon="5.53336">
        <ele>1084.28</ele>
        <time>2024-01-30T14:59:19Z</time>
      </trkpt>
      <trkpt lat="44.53105" lon="5.53396">
        <ele>1079.44</ele>
        <time>2024-01-30T14:59:28Z</time>
      </trkpt>
      <trkpt lat="44.53091" lon="5.53432">
        <ele>1081.74</ele>
        <time>2024-01-30T14:59:34Z</time>
      </trkpt>
      <trkpt lat="44.53088" lon="5.53446">
        <ele>1082.1</ele>
        <time>2024-01-30T14:59:37Z</time>
      </trkpt>
      <trkpt lat="44.53098" lon="5.53491">
        <ele>1076.11</ele>
        <time>2024-01-30T14:59:44Z</time>
      </trkpt>
      <trkpt lat="44.5311" lon="5.53511">
        <ele>1071.42</ele>
        <time>2024-01-30T14:59:48Z</time>
      </trkpt>
      <trkpt lat="44.53087" lon="5.53594">
        <ele>1071.56</ele>
        <time>2024-01-30T15:00:02Z</time>
      </trkpt>
      <trkpt lat="44.53092" lon="5.53746">
        <ele>1065.16</ele>
        <time>2024-01-30T15:00:28Z</time>
      </trkpt>
      <trkpt lat="44.53089" lon="5.53964">
        <ele>1071.23</ele>
        <time>2024-01-30T15:01:11Z</time>
      </trkpt>
      <trkpt lat="44.53085" lon="5.54026">
        <ele>1068.69</ele>
        <time>2024-01-30T15:01:23Z</time>
      </trkpt>
      <trkpt lat="44.53075" lon="5.54088">
        <ele>1067.53</ele>
        <time>2024-01-30T15:01:34Z</time>
      </trkpt>
      <trkpt lat="44.53079" lon="5.54307">
        <ele>1064.6</ele>
        <time>2024-01-30T15:02:09Z</time>
      </trkpt>
      <trkpt lat="44.53083" lon="5.54344">
        <ele>1062.51</ele>
        <time>2024-01-30T15:02:15Z</time>
      </trkpt>
      <trkpt lat="44.53074" lon="5.54417">
        <ele>1061.45</ele>
        <time>2024-01-30T15:02:28Z</time>
      </trkpt>
      <trkpt lat="44.53039" lon="5.54509">
        <ele>1054.62</ele>
        <time>2024-01-30T15:02:48Z</time>
      </trkpt>
      <trkpt lat="44.52997" lon="5.54584">
        <ele>1063.05</ele>
        <time>2024-01-30T15:03:13Z</time>
      </trkpt>
      <trkpt lat="44.52983" lon="5.54593">
        <ele>1065.14</ele>
        <time>2024-01-30T15:03:19Z</time>
      </trkpt>
      <trkpt lat="44.52978" lon="5.54637">
        <ele>1065.72</ele>
        <time>2024-01-30T15:03:33Z</time>
      </trkpt>
      <trkpt lat="44.52933" lon="5.54705">
        <ele>1072.01</ele>
        <time>2024-01-30T15:04:01Z</time>
      </trkpt>
      <trkpt lat="44.52925" lon="5.54805">
        <ele>1077.38</ele>
        <time>2024-01-30T15:04:20Z</time>
      </trkpt>
      <trkpt lat="44.52886" lon="5.5492">
        <ele>1089.79</ele>
        <time>2024-01-30T15:04:39Z</time>
      </trkpt>
      <trkpt lat="44.52878" lon="5.54939">
        <ele>1093.3</ele>
        <time>2024-01-30T15:04:42Z</time>
      </trkpt>
      <trkpt lat="44.5285" lon="5.54959">
        <ele>1095.72</ele>
        <time>2024-01-30T15:04:49Z</time>
      </trkpt>
      <trkpt lat="44.52826" lon="5.54951">
        <ele>1085.09</ele>
        <time>2024-01-30T15:04:53Z</time>
      </trkpt>
      <trkpt lat="44.52808" lon="5.54922">
        <ele>1083.59</ele>
        <time>2024-01-30T15:04:59Z</time>
      </trkpt>
      <trkpt lat="44.52776" lon="5.54904">
        <ele>1076.52</ele>
        <time>2024-01-30T15:05:06Z</time>
      </trkpt>
      <trkpt lat="44.52743" lon="5.54896">
        <ele>1070.24</ele>
        <time>2024-01-30T15:05:12Z</time>
      </trkpt>
      <trkpt lat="44.52716" lon="5.54876">
        <ele>1071.54</ele>
        <time>2024-01-30T15:05:19Z</time>
      </trkpt>
      <trkpt lat="44.5266" lon="5.54865">
        <ele>1064.54</ele>
        <time>2024-01-30T15:05:32Z</time>
      </trkpt>
      <trkpt lat="44.526" lon="5.5482">
        <ele>1063.43</ele>
        <time>2024-01-30T15:05:57Z</time>
      </trkpt>
      <trkpt lat="44.52572" lon="5.5477">
        <ele>1070.31</ele>
        <time>2024-01-30T15:06:16Z</time>
      </trkpt>
      <trkpt lat="44.52525" lon="5.54712">
        <ele>1073.6</ele>
        <time>2024-01-30T15:06:44Z</time>
      </trkpt>
      <trkpt lat="44.52493" lon="5.5472">
        <ele>1066.5</ele>
        <time>2024-01-30T15:06:58Z</time>
      </trkpt>
      <trkpt lat="44.5243" lon="5.54767">
        <ele>1056.46</ele>
        <time>2024-01-30T15:07:25Z</time>
      </trkpt>
      <trkpt lat="44.52407" lon="5.54789">
        <ele>1056.15</ele>
        <time>2024-01-30T15:07:33Z</time>
      </trkpt>
      <trkpt lat="44.52388" lon="5.54827">
        <ele>1051.36</ele>
        <time>2024-01-30T15:07:42Z</time>
      </trkpt>
      <trkpt lat="44.52333" lon="5.54911">
        <ele>1046.23</ele>
        <time>2024-01-30T15:08:03Z</time>
      </trkpt>
      <trkpt lat="44.5232" lon="5.54949">
        <ele>1043.84</ele>
        <time>2024-01-30T15:08:11Z</time>
      </trkpt>
      <trkpt lat="44.52314" lon="5.54998">
        <ele>1040.53</ele>
        <time>2024-01-30T15:08:20Z</time>
      </trkpt>
      <trkpt lat="44.52321" lon="5.55059">
        <ele>1030.64</ele>
        <time>2024-01-30T15:08:32Z</time>
      </trkpt>
      <trkpt lat="44.52276" lon="5.552">
        <ele>1033.86</ele>
        <time>2024-01-30T15:09:00Z</time>
      </trkpt>
      <trkpt lat="44.52268" lon="5.55295">
        <ele>1024.53</ele>
        <time>2024-01-30T15:09:20Z</time>
      </trkpt>
      <trkpt lat="44.52265" lon="5.55354">
        <ele>1017.46</ele>
        <time>2024-01-30T15:09:32Z</time>
      </trkpt>
      <trkpt lat="44.52231" lon="5.55455">
        <ele>1023.07</ele>
        <time>2024-01-30T15:09:52Z</time>
      </trkpt>
      <trkpt lat="44.5222" lon="5.55533">
        <ele>1023.39</ele>
        <time>2024-01-30T15:10:05Z</time>
      </trkpt>
      <trkpt lat="44.52252" lon="5.55584">
        <ele>1014.99</ele>
        <time>2024-01-30T15:10:16Z</time>
      </trkpt>
      <trkpt lat="44.52298" lon="5.55633">
        <ele>996.48</ele>
        <time>2024-01-30T15:10:27Z</time>
      </trkpt>
      <trkpt lat="44.5235" lon="5.55798">
        <ele>986.33</ele>
        <time>2024-01-30T15:10:53Z</time>
      </trkpt>
      <trkpt lat="44.52356" lon="5.55849">
        <ele>978.43</ele>
        <time>2024-01-30T15:11:00Z</time>
      </trkpt>
      <trkpt lat="44.5233" lon="5.5596">
        <ele>983.87</ele>
        <time>2024-01-30T15:11:16Z</time>
      </trkpt>
      <trkpt lat="44.5234" lon="5.56011">
        <ele>978.38</ele>
        <time>2024-01-30T15:11:23Z</time>
      </trkpt>
      <trkpt lat="44.52379" lon="5.56127">
        <ele>962.27</ele>
        <time>2024-01-30T15:11:40Z</time>
      </trkpt>
      <trkpt lat="44.52375" lon="5.56147">
        <ele>963.56</ele>
        <time>2024-01-30T15:11:43Z</time>
      </trkpt>
      <trkpt lat="44.52353" lon="5.56173">
        <ele>965.62</ele>
        <time>2024-01-30T15:11:48Z</time>
      </trkpt>
      <trkpt lat="44.52314" lon="5.56207">
        <ele>960.91</ele>
        <time>2024-01-30T15:11:58Z</time>
      </trkpt>
      <trkpt lat="44.52275" lon="5.5623">
        <ele>953.17</ele>
        <time>2024-01-30T15:12:06Z</time>
      </trkpt>
      <trkpt lat="44.52236" lon="5.56228">
        <ele>954.1</ele>
        <time>2024-01-30T15:12:14Z</time>
      </trkpt>
      <trkpt lat="44.52204" lon="5.5625">
        <ele>950.52</ele>
        <time>2024-01-30T15:12:22Z</time>
      </trkpt>
      <trkpt lat="44.52178" lon="5.56292">
        <ele>946.96</ele>
        <time>2024-01-30T15:12:30Z</time>
      </trkpt>
      <trkpt lat="44.52165" lon="5.56379">
        <ele>934.16</ele>
        <time>2024-01-30T15:12:43Z</time>
      </trkpt>
      <trkpt lat="44.52139" lon="5.56469">
        <ele>926.7</ele>
        <time>2024-01-30T15:12:57Z</time>
      </trkpt>
      <trkpt lat="44.52064" lon="5.56544">
        <ele>920.23</ele>
        <time>2024-01-30T15:13:15Z</time>
      </trkpt>
      <trkpt lat="44.5204" lon="5.56578">
        <ele>918.28</ele>
        <time>2024-01-30T15:13:22Z</time>
      </trkpt>
      <trkpt lat="44.52027" lon="5.56617">
        <ele>913.8</ele>
        <time>2024-01-30T15:13:28Z</time>
      </trkpt>
      <trkpt lat="44.5196" lon="5.5673">
        <ele>901.59</ele>
        <time>2024-01-30T15:13:48Z</time>
      </trkpt>
      <trkpt lat="44.51894" lon="5.56796">
        <ele>892.84</ele>
        <time>2024-01-30T15:14:04Z</time>
      </trkpt>
      <trkpt lat="44.51746" lon="5.56894">
        <ele>873.05</ele>
        <time>2024-01-30T15:14:36Z</time>
      </trkpt>
      <trkpt lat="44.51653" lon="5.56961">
        <ele>859.03</ele>
        <time>2024-01-30T15:14:57Z</time>
      </trkpt>
      <trkpt lat="44.5164" lon="5.56967">
        <ele>858.78</ele>
        <time>2024-01-30T15:15:00Z</time>
      </trkpt>
      <trkpt lat="44.51617" lon="5.56978">
        <ele>855.51</ele>
        <time>2024-01-30T15:15:05Z</time>
      </trkpt>
      <trkpt lat="44.51592" lon="5.56976">
        <ele>854.13</ele>
        <time>2024-01-30T15:15:10Z</time>
      </trkpt>
      <trkpt lat="44.51572" lon="5.56967">
        <ele>853.07</ele>
        <time>2024-01-30T15:15:14Z</time>
      </trkpt>
      <trkpt lat="44.51537" lon="5.56986">
        <ele>845.01</ele>
        <time>2024-01-30T15:15:22Z</time>
      </trkpt>
      <trkpt lat="44.51425" lon="5.57083">
        <ele>831.39</ele>
        <time>2024-01-30T15:15:50Z</time>
      </trkpt>
      <trkpt lat="44.5127" lon="5.57204">
        <ele>809.53</ele>
        <time>2024-01-30T15:16:24Z</time>
      </trkpt>
      <trkpt lat="44.51197" lon="5.57246">
        <ele>798.31</ele>
        <time>2024-01-30T15:16:40Z</time>
      </trkpt>
      <trkpt lat="44.51127" lon="5.57263">
        <ele>792</ele>
        <time>2024-01-30T15:16:55Z</time>
      </trkpt>
      <trkpt lat="44.51093" lon="5.57287">
        <ele>787.33</ele>
        <time>2024-01-30T15:17:04Z</time>
      </trkpt>
      <trkpt lat="44.5108" lon="5.57322">
        <ele>783.31</ele>
        <time>2024-01-30T15:17:11Z</time>
      </trkpt>
      <trkpt lat="44.51075" lon="5.57347">
        <ele>780.93</ele>
        <time>2024-01-30T15:17:15Z</time>
      </trkpt>
      <trkpt lat="44.51068" lon="5.57364">
        <ele>779.8</ele>
        <time>2024-01-30T15:17:19Z</time>
      </trkpt>
      <trkpt lat="44.51052" lon="5.5738">
        <ele>779.31</ele>
        <time>2024-01-30T15:17:24Z</time>
      </trkpt>
      <trkpt lat="44.5102" lon="5.57381">
        <ele>780.01</ele>
        <time>2024-01-30T15:17:33Z</time>
      </trkpt>
      <trkpt lat="44.51003" lon="5.57379">
        <ele>780.8</ele>
        <time>2024-01-30T15:17:38Z</time>
      </trkpt>
      <trkpt lat="44.50978" lon="5.57362">
        <ele>784.62</ele>
        <time>2024-01-30T15:17:46Z</time>
      </trkpt>
      <trkpt lat="44.50952" lon="5.57361">
        <ele>786.39</ele>
        <time>2024-01-30T15:17:54Z</time>
      </trkpt>
      <trkpt lat="44.50881" lon="5.57392">
        <ele>783.19</ele>
        <time>2024-01-30T15:18:12Z</time>
      </trkpt>
      <trkpt lat="44.5083" lon="5.57388">
        <ele>785.06</ele>
        <time>2024-01-30T15:18:24Z</time>
      </trkpt>
      <trkpt lat="44.5069" lon="5.57381">
        <ele>786.29</ele>
        <time>2024-01-30T15:18:58Z</time>
      </trkpt>
      <trkpt lat="44.50639" lon="5.57389">
        <ele>783.46</ele>
        <time>2024-01-30T15:19:15Z</time>
      </trkpt>
      <trkpt lat="44.50624" lon="5.57375">
        <ele>784.35</ele>
        <time>2024-01-30T15:19:21Z</time>
      </trkpt>
      <trkpt lat="44.50602" lon="5.57366">
        <ele>783.25</ele>
        <time>2024-01-30T15:19:29Z</time>
      </trkpt>
      <trkpt lat="44.50601" lon="5.57346">
        <ele>784.87</ele>
        <time>2024-01-30T15:19:34Z</time>
      </trkpt>
      <trkpt lat="44.50596" lon="5.57325">
        <ele>785.05</ele>
        <time>2024-01-30T15:19:40Z</time>
      </trkpt>
      <trkpt lat="44.50576" lon="5.57272">
        <ele>787.3</ele>
        <time>2024-01-30T15:19:55Z</time>
      </trkpt>
      <trkpt lat="44.50542" lon="5.57216">
        <ele>787.38</ele>
        <time>2024-01-30T15:20:15Z</time>
      </trkpt>
      <trkpt lat="44.50531" lon="5.57191">
        <ele>786.96</ele>
        <time>2024-01-30T15:20:23Z</time>
      </trkpt>
      <trkpt lat="44.50515" lon="5.57131">
        <ele>790.39</ele>
        <time>2024-01-30T15:20:39Z</time>
      </trkpt>
      <trkpt lat="44.50502" lon="5.57064">
        <ele>794.26</ele>
        <time>2024-01-30T15:20:55Z</time>
      </trkpt>
      <trkpt lat="44.50499" lon="5.5704">
        <ele>795.64</ele>
        <time>2024-01-30T15:21:01Z</time>
      </trkpt>
      <trkpt lat="44.505" lon="5.56998">
        <ele>797.98</ele>
        <time>2024-01-30T15:21:11Z</time>
      </trkpt>
      <trkpt lat="44.50512" lon="5.56882">
        <ele>799.23</ele>
        <time>2024-01-30T15:21:42Z</time>
      </trkpt>
      <trkpt lat="44.50522" lon="5.56794">
        <ele>799.28</ele>
        <time>2024-01-30T15:22:06Z</time>
      </trkpt>
      <trkpt lat="44.50531" lon="5.56647">
        <ele>800.3</ele>
        <time>2024-01-30T15:22:40Z</time>
      </trkpt>
      <trkpt lat="44.5053" lon="5.56581">
        <ele>803.06</ele>
        <time>2024-01-30T15:22:51Z</time>
      </trkpt>
      <trkpt lat="44.50525" lon="5.56488">
        <ele>802.32</ele>
        <time>2024-01-30T15:23:06Z</time>
      </trkpt>
      <trkpt lat="44.50531" lon="5.56466">
        <ele>803.27</ele>
        <time>2024-01-30T15:23:10Z</time>
      </trkpt>
      <trkpt lat="44.50549" lon="5.56433">
        <ele>807.12</ele>
        <time>2024-01-30T15:23:16Z</time>
      </trkpt>
      <trkpt lat="44.50592" lon="5.56376">
        <ele>812.27</ele>
        <time>2024-01-30T15:23:28Z</time>
      </trkpt>
      <trkpt lat="44.506" lon="5.56358">
        <ele>810.28</ele>
        <time>2024-01-30T15:23:31Z</time>
      </trkpt>
      <trkpt lat="44.50602" lon="5.56341">
        <ele>809.26</ele>
        <time>2024-01-30T15:23:34Z</time>
      </trkpt>
      <trkpt lat="44.50594" lon="5.56328">
        <ele>811.7</ele>
        <time>2024-01-30T15:23:37Z</time>
      </trkpt>
      <trkpt lat="44.50586" lon="5.56319">
        <ele>814.28</ele>
        <time>2024-01-30T15:23:39Z</time>
      </trkpt>
      <trkpt lat="44.50574" lon="5.56317">
        <ele>815.75</ele>
        <time>2024-01-30T15:23:42Z</time>
      </trkpt>
      <trkpt lat="44.50541" lon="5.5635">
        <ele>812.82</ele>
        <time>2024-01-30T15:23:53Z</time>
      </trkpt>
      <trkpt lat="44.5053" lon="5.56351">
        <ele>813.01</ele>
        <time>2024-01-30T15:23:57Z</time>
      </trkpt>
      <trkpt lat="44.5052" lon="5.56339">
        <ele>814.42</ele>
        <time>2024-01-30T15:24:01Z</time>
      </trkpt>
      <trkpt lat="44.50459" lon="5.56118">
        <ele>828.12</ele>
        <time>2024-01-30T15:25:04Z</time>
      </trkpt>
      <trkpt lat="44.50451" lon="5.56064">
        <ele>831.49</ele>
        <time>2024-01-30T15:25:20Z</time>
      </trkpt>
      <trkpt lat="44.50446" lon="5.56011">
        <ele>836.1</ele>
        <time>2024-01-30T15:25:36Z</time>
      </trkpt>
      <trkpt lat="44.50449" lon="5.55949">
        <ele>836.33</ele>
        <time>2024-01-30T15:25:55Z</time>
      </trkpt>
      <trkpt lat="44.50472" lon="5.55793">
        <ele>846.5</ele>
        <time>2024-01-30T15:26:48Z</time>
      </trkpt>
      <trkpt lat="44.5049" lon="5.55685">
        <ele>852.35</ele>
        <time>2024-01-30T15:27:25Z</time>
      </trkpt>
      <trkpt lat="44.50497" lon="5.55621">
        <ele>857.45</ele>
        <time>2024-01-30T15:27:46Z</time>
      </trkpt>
      <trkpt lat="44.50497" lon="5.55578">
        <ele>858.05</ele>
        <time>2024-01-30T15:28:00Z</time>
      </trkpt>
      <trkpt lat="44.50483" lon="5.55449">
        <ele>866.28</ele>
        <time>2024-01-30T15:28:44Z</time>
      </trkpt>
      <trkpt lat="44.50473" lon="5.55411">
        <ele>870.36</ele>
        <time>2024-01-30T15:28:57Z</time>
      </trkpt>
      <trkpt lat="44.50452" lon="5.55362">
        <ele>871.85</ele>
        <time>2024-01-30T15:29:16Z</time>
      </trkpt>
      <trkpt lat="44.5044" lon="5.55327">
        <ele>874.51</ele>
        <time>2024-01-30T15:29:29Z</time>
      </trkpt>
      <trkpt lat="44.50432" lon="5.5529">
        <ele>878.02</ele>
        <time>2024-01-30T15:29:42Z</time>
      </trkpt>
      <trkpt lat="44.50428" lon="5.55258">
        <ele>880.26</ele>
        <time>2024-01-30T15:29:54Z</time>
      </trkpt>
      <trkpt lat="44.50421" lon="5.55235">
        <ele>881.05</ele>
        <time>2024-01-30T15:30:02Z</time>
      </trkpt>
      <trkpt lat="44.50392" lon="5.55202">
        <ele>876.65</ele>
        <time>2024-01-30T15:30:22Z</time>
      </trkpt>
      <trkpt lat="44.50364" lon="5.55149">
        <ele>880.34</ele>
        <time>2024-01-30T15:30:46Z</time>
      </trkpt>
      <trkpt lat="44.50327" lon="5.55096">
        <ele>884.93</ele>
        <time>2024-01-30T15:31:14Z</time>
      </trkpt>
      <trkpt lat="44.5031" lon="5.55065">
        <ele>886.16</ele>
        <time>2024-01-30T15:31:29Z</time>
      </trkpt>
      <trkpt lat="44.50297" lon="5.55031">
        <ele>887.93</ele>
        <time>2024-01-30T15:31:44Z</time>
      </trkpt>
      <trkpt lat="44.5029" lon="5.54993">
        <ele>890.79</ele>
        <time>2024-01-30T15:32:00Z</time>
      </trkpt>
      <trkpt lat="44.50287" lon="5.54934">
        <ele>900.21</ele>
        <time>2024-01-30T15:32:25Z</time>
      </trkpt>
      <trkpt lat="44.50284" lon="5.54915">
        <ele>901.73</ele>
        <time>2024-01-30T15:32:33Z</time>
      </trkpt>
      <trkpt lat="44.50268" lon="5.54858">
        <ele>906.14</ele>
        <time>2024-01-30T15:33:01Z</time>
      </trkpt>
      <trkpt lat="44.50251" lon="5.5475">
        <ele>912.76</ele>
        <time>2024-01-30T15:33:47Z</time>
      </trkpt>
      <trkpt lat="44.50248" lon="5.54657">
        <ele>920.12</ele>
        <time>2024-01-30T15:34:17Z</time>
      </trkpt>
      <trkpt lat="44.5025" lon="5.54623">
        <ele>922.18</ele>
        <time>2024-01-30T15:34:26Z</time>
      </trkpt>
      <trkpt lat="44.50253" lon="5.5461">
        <ele>922.27</ele>
        <time>2024-01-30T15:34:29Z</time>
      </trkpt>
      <trkpt lat="44.50258" lon="5.54601">
        <ele>921.95</ele>
        <time>2024-01-30T15:34:32Z</time>
      </trkpt>
      <trkpt lat="44.50263" lon="5.54597">
        <ele>921.98</ele>
        <time>2024-01-30T15:34:34Z</time>
      </trkpt>
      <trkpt lat="44.50269" lon="5.54597">
        <ele>922.62</ele>
        <time>2024-01-30T15:34:36Z</time>
      </trkpt>
      <trkpt lat="44.50273" lon="5.54602">
        <ele>923.9</ele>
        <time>2024-01-30T15:34:38Z</time>
      </trkpt>
      <trkpt lat="44.50276" lon="5.54611">
        <ele>925.9</ele>
        <time>2024-01-30T15:34:40Z</time>
      </trkpt>
      <trkpt lat="44.50277" lon="5.54623">
        <ele>927.19</ele>
        <time>2024-01-30T15:34:43Z</time>
      </trkpt>
      <trkpt lat="44.50273" lon="5.54708">
        <ele>923.78</ele>
        <time>2024-01-30T15:34:59Z</time>
      </trkpt>
      <trkpt lat="44.50277" lon="5.54726">
        <ele>923.55</ele>
        <time>2024-01-30T15:35:03Z</time>
      </trkpt>
      <trkpt lat="44.50283" lon="5.54732">
        <ele>925.82</ele>
        <time>2024-01-30T15:35:04Z</time>
      </trkpt>
      <trkpt lat="44.50316" lon="5.54743">
        <ele>932.72</ele>
        <time>2024-01-30T15:35:11Z</time>
      </trkpt>
      <trkpt lat="44.50341" lon="5.5477">
        <ele>937.56</ele>
        <time>2024-01-30T15:35:18Z</time>
      </trkpt>
      <trkpt lat="44.50362" lon="5.54808">
        <ele>940.64</ele>
        <time>2024-01-30T15:35:27Z</time>
      </trkpt>
      <trkpt lat="44.50376" lon="5.54848">
        <ele>941.05</ele>
        <time>2024-01-30T15:35:37Z</time>
      </trkpt>
      <trkpt lat="44.50383" lon="5.54859">
        <ele>942.65</ele>
        <time>2024-01-30T15:35:40Z</time>
      </trkpt>
      <trkpt lat="44.50409" lon="5.54887">
        <ele>944.4</ele>
        <time>2024-01-30T15:35:53Z</time>
      </trkpt>
      <trkpt lat="44.50422" lon="5.5491">
        <ele>945.13</ele>
        <time>2024-01-30T15:36:02Z</time>
      </trkpt>
      <trkpt lat="44.50442" lon="5.54972">
        <ele>940.63</ele>
        <time>2024-01-30T15:36:25Z</time>
      </trkpt>
      <trkpt lat="44.50446" lon="5.54974">
        <ele>939.54</ele>
        <time>2024-01-30T15:36:27Z</time>
      </trkpt>
      <trkpt lat="44.5045" lon="5.54971">
        <ele>941.33</ele>
        <time>2024-01-30T15:36:29Z</time>
      </trkpt>
      <trkpt lat="44.50452" lon="5.54965">
        <ele>943.14</ele>
        <time>2024-01-30T15:36:32Z</time>
      </trkpt>
      <trkpt lat="44.50434" lon="5.54893">
        <ele>951.94</ele>
        <time>2024-01-30T15:37:00Z</time>
      </trkpt>
      <trkpt lat="44.50424" lon="5.54838">
        <ele>956.32</ele>
        <time>2024-01-30T15:37:22Z</time>
      </trkpt>
      <trkpt lat="44.50422" lon="5.54772">
        <ele>960.08</ele>
        <time>2024-01-30T15:37:48Z</time>
      </trkpt>
      <trkpt lat="44.50424" lon="5.54742">
        <ele>962.71</ele>
        <time>2024-01-30T15:38:01Z</time>
      </trkpt>
      <trkpt lat="44.50428" lon="5.54692">
        <ele>965.72</ele>
        <time>2024-01-30T15:38:21Z</time>
      </trkpt>
      <trkpt lat="44.50425" lon="5.54658">
        <ele>969.13</ele>
        <time>2024-01-30T15:38:33Z</time>
      </trkpt>
      <trkpt lat="44.50426" lon="5.54618">
        <ele>971.47</ele>
        <time>2024-01-30T15:38:48Z</time>
      </trkpt>
      <trkpt lat="44.50443" lon="5.54553">
        <ele>975.42</ele>
        <time>2024-01-30T15:39:14Z</time>
      </trkpt>
      <trkpt lat="44.50448" lon="5.54483">
        <ele>977.38</ele>
        <time>2024-01-30T15:39:39Z</time>
      </trkpt>
      <trkpt lat="44.50459" lon="5.54433">
        <ele>980.49</ele>
        <time>2024-01-30T15:39:57Z</time>
      </trkpt>
      <trkpt lat="44.50475" lon="5.54381">
        <ele>978.48</ele>
        <time>2024-01-30T15:40:19Z</time>
      </trkpt>
      <trkpt lat="44.50507" lon="5.54318">
        <ele>984.12</ele>
        <time>2024-01-30T15:40:48Z</time>
      </trkpt>
      <trkpt lat="44.50521" lon="5.54284">
        <ele>985.92</ele>
        <time>2024-01-30T15:41:03Z</time>
      </trkpt>
      <trkpt lat="44.50552" lon="5.54173">
        <ele>992.85</ele>
        <time>2024-01-30T15:41:47Z</time>
      </trkpt>
      <trkpt lat="44.5056" lon="5.54132">
        <ele>993.95</ele>
        <time>2024-01-30T15:42:01Z</time>
      </trkpt>
      <trkpt lat="44.50565" lon="5.54067">
        <ele>998.71</ele>
        <time>2024-01-30T15:42:22Z</time>
      </trkpt>
      <trkpt lat="44.50565" lon="5.54027">
        <ele>1000.68</ele>
        <time>2024-01-30T15:42:35Z</time>
      </trkpt>
      <trkpt lat="44.50557" lon="5.53953">
        <ele>1002.77</ele>
        <time>2024-01-30T15:42:57Z</time>
      </trkpt>
      <trkpt lat="44.50556" lon="5.53916">
        <ele>1005.07</ele>
        <time>2024-01-30T15:43:08Z</time>
      </trkpt>
      <trkpt lat="44.5056" lon="5.53879">
        <ele>1006.98</ele>
        <time>2024-01-30T15:43:18Z</time>
      </trkpt>
      <trkpt lat="44.50576" lon="5.5381">
        <ele>1010.73</ele>
        <time>2024-01-30T15:43:38Z</time>
      </trkpt>
      <trkpt lat="44.50577" lon="5.53792">
        <ele>1011.87</ele>
        <time>2024-01-30T15:43:43Z</time>
      </trkpt>
      <trkpt lat="44.50575" lon="5.53775">
        <ele>1013.11</ele>
        <time>2024-01-30T15:43:49Z</time>
      </trkpt>
      <trkpt lat="44.50562" lon="5.53727">
        <ele>1013.38</ele>
        <time>2024-01-30T15:44:06Z</time>
      </trkpt>
      <trkpt lat="44.50555" lon="5.53695">
        <ele>1013.69</ele>
        <time>2024-01-30T15:44:18Z</time>
      </trkpt>
      <trkpt lat="44.50553" lon="5.53643">
        <ele>1013.65</ele>
        <time>2024-01-30T15:44:36Z</time>
      </trkpt>
      <trkpt lat="44.50554" lon="5.53626">
        <ele>1015.49</ele>
        <time>2024-01-30T15:44:42Z</time>
      </trkpt>
      <trkpt lat="44.5056" lon="5.53595">
        <ele>1017.17</ele>
        <time>2024-01-30T15:44:53Z</time>
      </trkpt>
      <trkpt lat="44.50585" lon="5.53544">
        <ele>1024.05</ele>
        <time>2024-01-30T15:45:12Z</time>
      </trkpt>
      <trkpt lat="44.5059" lon="5.53535">
        <ele>1024.96</ele>
        <time>2024-01-30T15:45:16Z</time>
      </trkpt>
      <trkpt lat="44.50597" lon="5.53509">
        <ele>1027.12</ele>
        <time>2024-01-30T15:45:25Z</time>
      </trkpt>
      <trkpt lat="44.50598" lon="5.53495">
        <ele>1027.61</ele>
        <time>2024-01-30T15:45:29Z</time>
      </trkpt>
      <trkpt lat="44.50596" lon="5.53467">
        <ele>1028.64</ele>
        <time>2024-01-30T15:45:39Z</time>
      </trkpt>
      <trkpt lat="44.50584" lon="5.53424">
        <ele>1032.47</ele>
        <time>2024-01-30T15:45:54Z</time>
      </trkpt>
      <trkpt lat="44.50573" lon="5.53398">
        <ele>1034.78</ele>
        <time>2024-01-30T15:46:05Z</time>
      </trkpt>
      <trkpt lat="44.50565" lon="5.53387">
        <ele>1036.52</ele>
        <time>2024-01-30T15:46:11Z</time>
      </trkpt>
      <trkpt lat="44.50536" lon="5.53363">
        <ele>1036.95</ele>
        <time>2024-01-30T15:46:28Z</time>
      </trkpt>
      <trkpt lat="44.50522" lon="5.53342">
        <ele>1035.86</ele>
        <time>2024-01-30T15:46:38Z</time>
      </trkpt>
      <trkpt lat="44.50511" lon="5.53304">
        <ele>1041.95</ele>
        <time>2024-01-30T15:46:51Z</time>
      </trkpt>
      <trkpt lat="44.50495" lon="5.53271">
        <ele>1041.78</ele>
        <time>2024-01-30T15:47:05Z</time>
      </trkpt>
      <trkpt lat="44.50492" lon="5.53259">
        <ele>1041.35</ele>
        <time>2024-01-30T15:47:09Z</time>
      </trkpt>
      <trkpt lat="44.50491" lon="5.53245">
        <ele>1042.46</ele>
        <time>2024-01-30T15:47:14Z</time>
      </trkpt>
      <trkpt lat="44.50505" lon="5.53188">
        <ele>1047.64</ele>
        <time>2024-01-30T15:47:36Z</time>
      </trkpt>
      <trkpt lat="44.50506" lon="5.53172">
        <ele>1048.46</ele>
        <time>2024-01-30T15:47:42Z</time>
      </trkpt>
      <trkpt lat="44.50502" lon="5.53141">
        <ele>1048.56</ele>
        <time>2024-01-30T15:47:54Z</time>
      </trkpt>
      <trkpt lat="44.50487" lon="5.53101">
        <ele>1049.59</ele>
        <time>2024-01-30T15:48:11Z</time>
      </trkpt>
      <trkpt lat="44.50484" lon="5.53073">
        <ele>1051.31</ele>
        <time>2024-01-30T15:48:20Z</time>
      </trkpt>
      <trkpt lat="44.50507" lon="5.52983">
        <ele>1057.06</ele>
        <time>2024-01-30T15:48:52Z</time>
      </trkpt>
      <trkpt lat="44.5051" lon="5.52949">
        <ele>1057.3</ele>
        <time>2024-01-30T15:49:02Z</time>
      </trkpt>
      <trkpt lat="44.50505" lon="5.52916">
        <ele>1058.08</ele>
        <time>2024-01-30T15:49:12Z</time>
      </trkpt>
      <trkpt lat="44.50484" lon="5.52836">
        <ele>1057</ele>
        <time>2024-01-30T15:49:35Z</time>
      </trkpt>
      <trkpt lat="44.50484" lon="5.52803">
        <ele>1057.89</ele>
        <time>2024-01-30T15:49:44Z</time>
      </trkpt>
      <trkpt lat="44.50494" lon="5.52756">
        <ele>1060.59</ele>
        <time>2024-01-30T15:49:57Z</time>
      </trkpt>
      <trkpt lat="44.50499" lon="5.52729">
        <ele>1061.4</ele>
        <time>2024-01-30T15:50:04Z</time>
      </trkpt>
      <trkpt lat="44.50499" lon="5.52696">
        <ele>1062.92</ele>
        <time>2024-01-30T15:50:12Z</time>
      </trkpt>
      <trkpt lat="44.50485" lon="5.52605">
        <ele>1066.88</ele>
        <time>2024-01-30T15:50:35Z</time>
      </trkpt>
      <trkpt lat="44.50477" lon="5.52511">
        <ele>1068.6</ele>
        <time>2024-01-30T15:50:58Z</time>
      </trkpt>
      <trkpt lat="44.5047" lon="5.52458">
        <ele>1070.1</ele>
        <time>2024-01-30T15:51:11Z</time>
      </trkpt>
      <trkpt lat="44.50453" lon="5.5238">
        <ele>1073.21</ele>
        <time>2024-01-30T15:51:31Z</time>
      </trkpt>
      <trkpt lat="44.50452" lon="5.52345">
        <ele>1074.19</ele>
        <time>2024-01-30T15:51:39Z</time>
      </trkpt>
      <trkpt lat="44.50458" lon="5.5231">
        <ele>1074.93</ele>
        <time>2024-01-30T15:51:48Z</time>
      </trkpt>
      <trkpt lat="44.50467" lon="5.52257">
        <ele>1076.28</ele>
        <time>2024-01-30T15:52:01Z</time>
      </trkpt>
      <trkpt lat="44.50467" lon="5.52223">
        <ele>1077.46</ele>
        <time>2024-01-30T15:52:10Z</time>
      </trkpt>
      <trkpt lat="44.50458" lon="5.52193">
        <ele>1078.84</ele>
        <time>2024-01-30T15:52:18Z</time>
      </trkpt>
      <trkpt lat="44.50438" lon="5.52151">
        <ele>1081.25</ele>
        <time>2024-01-30T15:52:31Z</time>
      </trkpt>
      <trkpt lat="44.50432" lon="5.52118">
        <ele>1082.3</ele>
        <time>2024-01-30T15:52:40Z</time>
      </trkpt>
      <trkpt lat="44.50434" lon="5.52083">
        <ele>1083.51</ele>
        <time>2024-01-30T15:52:49Z</time>
      </trkpt>
      <trkpt lat="44.50444" lon="5.52033">
        <ele>1084.75</ele>
        <time>2024-01-30T15:53:02Z</time>
      </trkpt>
      <trkpt lat="44.50446" lon="5.51998">
        <ele>1086.39</ele>
        <time>2024-01-30T15:53:10Z</time>
      </trkpt>
      <trkpt lat="44.50444" lon="5.51982">
        <ele>1086.52</ele>
        <time>2024-01-30T15:53:14Z</time>
      </trkpt>
      <trkpt lat="44.50423" lon="5.5192">
        <ele>1088.98</ele>
        <time>2024-01-30T15:53:28Z</time>
      </trkpt>
      <trkpt lat="44.50415" lon="5.51889">
        <ele>1089.6</ele>
        <time>2024-01-30T15:53:35Z</time>
      </trkpt>
      <trkpt lat="44.50409" lon="5.5186">
        <ele>1090.38</ele>
        <time>2024-01-30T15:53:41Z</time>
      </trkpt>
      <trkpt lat="44.50407" lon="5.51839">
        <ele>1091.17</ele>
        <time>2024-01-30T15:53:46Z</time>
      </trkpt>
      <trkpt lat="44.50397" lon="5.51854">
        <ele>1088.95</ele>
        <time>2024-01-30T15:53:51Z</time>
      </trkpt>
      <trkpt lat="44.504" lon="5.51883">
        <ele>1088.18</ele>
        <time>2024-01-30T15:54:00Z</time>
      </trkpt>
      <trkpt lat="44.50397" lon="5.51894">
        <ele>1087.25</ele>
        <time>2024-01-30T15:54:04Z</time>
      </trkpt>
      <trkpt lat="44.50387" lon="5.51902">
        <ele>1085.72</ele>
        <time>2024-01-30T15:54:09Z</time>
      </trkpt>
      <trkpt lat="44.50362" lon="5.51898">
        <ele>1082.89</ele>
        <time>2024-01-30T15:54:20Z</time>
      </trkpt>
      <trkpt lat="44.50324" lon="5.51868">
        <ele>1083.22</ele>
        <time>2024-01-30T15:54:40Z</time>
      </trkpt>
      <trkpt lat="44.50277" lon="5.51821">
        <ele>1087.41</ele>
        <time>2024-01-30T15:55:08Z</time>
      </trkpt>
      <trkpt lat="44.50193" lon="5.51772">
        <ele>1093.01</ele>
        <time>2024-01-30T15:56:02Z</time>
      </trkpt>
      <trkpt lat="44.50102" lon="5.51763">
        <ele>1101.88</ele>
        <time>2024-01-30T15:57:02Z</time>
      </trkpt>
      <trkpt lat="44.50009" lon="5.51759">
        <ele>1107.47</ele>
        <time>2024-01-30T15:58:07Z</time>
      </trkpt>
      <trkpt lat="44.49889" lon="5.51793">
        <ele>1121.53</ele>
        <time>2024-01-30T15:59:40Z</time>
      </trkpt>
      <trkpt lat="44.49831" lon="5.5175">
        <ele>1127.59</ele>
        <time>2024-01-30T16:00:39Z</time>
      </trkpt>
      <trkpt lat="44.4978" lon="5.5173">
        <ele>1133.51</ele>
        <time>2024-01-30T16:01:30Z</time>
      </trkpt>
      <trkpt lat="44.49767" lon="5.51724">
        <ele>1134.52</ele>
        <time>2024-01-30T16:01:42Z</time>
      </trkpt>
      <trkpt lat="44.49727" lon="5.51733">
        <ele>1138.11</ele>
        <time>2024-01-30T16:02:19Z</time>
      </trkpt>
      <trkpt lat="44.49703" lon="5.51774">
        <ele>1140.36</ele>
        <time>2024-01-30T16:02:53Z</time>
      </trkpt>
      <trkpt lat="44.49692" lon="5.51843">
        <ele>1145.17</ele>
        <time>2024-01-30T16:03:34Z</time>
      </trkpt>
      <trkpt lat="44.49681" lon="5.51935">
        <ele>1155.94</ele>
        <time>2024-01-30T16:04:23Z</time>
      </trkpt>
      <trkpt lat="44.49711" lon="5.51991">
        <ele>1159.63</ele>
        <time>2024-01-30T16:04:52Z</time>
      </trkpt>
      <trkpt lat="44.49706" lon="5.52036">
        <ele>1163.02</ele>
        <time>2024-01-30T16:05:09Z</time>
      </trkpt>
      <trkpt lat="44.49678" lon="5.52085">
        <ele>1168.66</ele>
        <time>2024-01-30T16:05:28Z</time>
      </trkpt>
      <trkpt lat="44.49668" lon="5.52139">
        <ele>1171.8</ele>
        <time>2024-01-30T16:05:45Z</time>
      </trkpt>
      <trkpt lat="44.49648" lon="5.52289">
        <ele>1181.4</ele>
        <time>2024-01-30T16:06:42Z</time>
      </trkpt>
      <trkpt lat="44.49631" lon="5.52332">
        <ele>1184.08</ele>
        <time>2024-01-30T16:07:05Z</time>
      </trkpt>
      <trkpt lat="44.49608" lon="5.52338">
        <ele>1184.88</ele>
        <time>2024-01-30T16:07:22Z</time>
      </trkpt>
      <trkpt lat="44.49591" lon="5.52319">
        <ele>1189.34</ele>
        <time>2024-01-30T16:07:37Z</time>
      </trkpt>
      <trkpt lat="44.49602" lon="5.52268">
        <ele>1189.49</ele>
        <time>2024-01-30T16:08:01Z</time>
      </trkpt>
      <trkpt lat="44.49588" lon="5.52197">
        <ele>1193.72</ele>
        <time>2024-01-30T16:08:31Z</time>
      </trkpt>
      <trkpt lat="44.49571" lon="5.52182">
        <ele>1194.16</ele>
        <time>2024-01-30T16:08:42Z</time>
      </trkpt>
      <trkpt lat="44.49559" lon="5.52199">
        <ele>1196.15</ele>
        <time>2024-01-30T16:08:52Z</time>
      </trkpt>
      <trkpt lat="44.49556" lon="5.52231">
        <ele>1198.28</ele>
        <time>2024-01-30T16:09:03Z</time>
      </trkpt>
      <trkpt lat="44.49556" lon="5.52291">
        <ele>1199.59</ele>
        <time>2024-01-30T16:09:24Z</time>
      </trkpt>
      <trkpt lat="44.49519" lon="5.5233">
        <ele>1203.39</ele>
        <time>2024-01-30T16:09:44Z</time>
      </trkpt>
      <trkpt lat="44.49514" lon="5.52392">
        <ele>1203.92</ele>
        <time>2024-01-30T16:10:00Z</time>
      </trkpt>
      <trkpt lat="44.49453" lon="5.52452">
        <ele>1206.31</ele>
        <time>2024-01-30T16:10:30Z</time>
      </trkpt>
      <trkpt lat="44.49438" lon="5.52459">
        <ele>1206.29</ele>
        <time>2024-01-30T16:10:38Z</time>
      </trkpt>
      <trkpt lat="44.49357" lon="5.52495">
        <ele>1210.94</ele>
        <time>2024-01-30T16:11:23Z</time>
      </trkpt>
      <trkpt lat="44.49302" lon="5.52574">
        <ele>1215.25</ele>
        <time>2024-01-30T16:12:07Z</time>
      </trkpt>
      <trkpt lat="44.4925" lon="5.52628">
        <ele>1220.6</ele>
        <time>2024-01-30T16:12:42Z</time>
      </trkpt>
      <trkpt lat="44.49187" lon="5.52667">
        <ele>1224.64</ele>
        <time>2024-01-30T16:13:18Z</time>
      </trkpt>
      <trkpt lat="44.49061" lon="5.52755">
        <ele>1233.01</ele>
        <time>2024-01-30T16:14:28Z</time>
      </trkpt>
      <trkpt lat="44.49034" lon="5.5287">
        <ele>1225.66</ele>
        <time>2024-01-30T16:15:22Z</time>
      </trkpt>
      <trkpt lat="44.48991" lon="5.52898">
        <ele>1229.36</ele>
        <time>2024-01-30T16:15:54Z</time>
      </trkpt>
      <trkpt lat="44.48934" lon="5.52898">
        <ele>1237</ele>
        <time>2024-01-30T16:16:28Z</time>
      </trkpt>
      <trkpt lat="44.4889" lon="5.52995">
        <ele>1239.37</ele>
        <time>2024-01-30T16:17:18Z</time>
      </trkpt>
      <trkpt lat="44.4882" lon="5.53349">
        <ele>1253.09</ele>
        <time>2024-01-30T16:19:17Z</time>
      </trkpt>
      <trkpt lat="44.4879" lon="5.53379">
        <ele>1257.84</ele>
        <time>2024-01-30T16:19:52Z</time>
      </trkpt>
      <trkpt lat="44.48722" lon="5.53381">
        <ele>1265.56</ele>
        <time>2024-01-30T16:21:08Z</time>
      </trkpt>
      <trkpt lat="44.48682" lon="5.53443">
        <ele>1275.72</ele>
        <time>2024-01-30T16:22:17Z</time>
      </trkpt>
      <trkpt lat="44.48662" lon="5.5351">
        <ele>1278.83</ele>
        <time>2024-01-30T16:23:14Z</time>
      </trkpt>
      <trkpt lat="44.48654" lon="5.53669">
        <ele>1290.22</ele>
        <time>2024-01-30T16:24:40Z</time>
      </trkpt>
      <trkpt lat="44.48642" lon="5.5375">
        <ele>1295.36</ele>
        <time>2024-01-30T16:25:04Z</time>
      </trkpt>
      <trkpt lat="44.48617" lon="5.53847">
        <ele>1306.01</ele>
        <time>2024-01-30T16:25:27Z</time>
      </trkpt>
      <trkpt lat="44.48598" lon="5.5398">
        <ele>1302.61</ele>
        <time>2024-01-30T16:26:04Z</time>
      </trkpt>
      <trkpt lat="44.4857" lon="5.54042">
        <ele>1310.51</ele>
        <time>2024-01-30T16:26:31Z</time>
      </trkpt>
      <trkpt lat="44.48544" lon="5.54115">
        <ele>1310.87</ele>
        <time>2024-01-30T16:27:08Z</time>
      </trkpt>
      <trkpt lat="44.48498" lon="5.54177">
        <ele>1314.72</ele>
        <time>2024-01-30T16:27:55Z</time>
      </trkpt>
      <trkpt lat="44.48475" lon="5.54293">
        <ele>1322.81</ele>
        <time>2024-01-30T16:29:06Z</time>
      </trkpt>
      <trkpt lat="44.48469" lon="5.54482">
        <ele>1330.61</ele>
        <time>2024-01-30T16:30:23Z</time>
      </trkpt>
      <trkpt lat="44.485" lon="5.5454">
        <ele>1329.94</ele>
        <time>2024-01-30T16:30:39Z</time>
      </trkpt>
      <trkpt lat="44.48509" lon="5.54609">
        <ele>1340.33</ele>
        <time>2024-01-30T16:30:55Z</time>
      </trkpt>
      <trkpt lat="44.48552" lon="5.54643">
        <ele>1336.7</ele>
        <time>2024-01-30T16:31:11Z</time>
      </trkpt>
      <trkpt lat="44.48555" lon="5.54686">
        <ele>1340.19</ele>
        <time>2024-01-30T16:31:18Z</time>
      </trkpt>
      <trkpt lat="44.48509" lon="5.54724">
        <ele>1350.27</ele>
        <time>2024-01-30T16:31:32Z</time>
      </trkpt>
      <trkpt lat="44.48481" lon="5.54733">
        <ele>1356.44</ele>
        <time>2024-01-30T16:31:41Z</time>
      </trkpt>
      <trkpt lat="44.4848" lon="5.54782">
        <ele>1357.7</ele>
        <time>2024-01-30T16:31:54Z</time>
      </trkpt>
      <trkpt lat="44.4849" lon="5.54818">
        <ele>1354.37</ele>
        <time>2024-01-30T16:32:04Z</time>
      </trkpt>
      <trkpt lat="44.48485" lon="5.54837">
        <ele>1354.85</ele>
        <time>2024-01-30T16:32:12Z</time>
      </trkpt>
      <trkpt lat="44.48473" lon="5.54855">
        <ele>1357.32</ele>
        <time>2024-01-30T16:32:19Z</time>
      </trkpt>
      <trkpt lat="44.48351" lon="5.54917">
        <ele>1368.04</ele>
        <time>2024-01-30T16:33:11Z</time>
      </trkpt>
      <trkpt lat="44.48313" lon="5.54913">
        <ele>1371.38</ele>
        <time>2024-01-30T16:33:30Z</time>
      </trkpt>
      <trkpt lat="44.48266" lon="5.54932">
        <ele>1372.4</ele>
        <time>2024-01-30T16:33:55Z</time>
      </trkpt>
      <trkpt lat="44.4822" lon="5.54999">
        <ele>1362.67</ele>
        <time>2024-01-30T16:34:29Z</time>
      </trkpt>
      <trkpt lat="44.48187" lon="5.55014">
        <ele>1362.2</ele>
        <time>2024-01-30T16:34:45Z</time>
      </trkpt>
      <trkpt lat="44.48158" lon="5.55036">
        <ele>1361.69</ele>
        <time>2024-01-30T16:34:58Z</time>
      </trkpt>
      <trkpt lat="44.48109" lon="5.55155">
        <ele>1354.76</ele>
        <time>2024-01-30T16:35:24Z</time>
      </trkpt>
      <trkpt lat="44.48091" lon="5.55244">
        <ele>1352.81</ele>
        <time>2024-01-30T16:35:39Z</time>
      </trkpt>
      <trkpt lat="44.48089" lon="5.55299">
        <ele>1348.87</ele>
        <time>2024-01-30T16:35:48Z</time>
      </trkpt>
      <trkpt lat="44.48041" lon="5.55412">
        <ele>1348.87</ele>
        <time>2024-01-30T16:36:09Z</time>
      </trkpt>
      <trkpt lat="44.48017" lon="5.55454">
        <ele>1347.9</ele>
        <time>2024-01-30T16:36:17Z</time>
      </trkpt>
      <trkpt lat="44.47982" lon="5.5548">
        <ele>1345.17</ele>
        <time>2024-01-30T16:36:26Z</time>
      </trkpt>
      <trkpt lat="44.47962" lon="5.55507">
        <ele>1342.07</ele>
        <time>2024-01-30T16:36:32Z</time>
      </trkpt>
      <trkpt lat="44.47956" lon="5.55544">
        <ele>1341.49</ele>
        <time>2024-01-30T16:36:37Z</time>
      </trkpt>
      <trkpt lat="44.47942" lon="5.55594">
        <ele>1338.81</ele>
        <time>2024-01-30T16:36:46Z</time>
      </trkpt>
      <trkpt lat="44.47916" lon="5.55638">
        <ele>1336.98</ele>
        <time>2024-01-30T16:36:54Z</time>
      </trkpt>
      <trkpt lat="44.47894" lon="5.5569">
        <ele>1329.69</ele>
        <time>2024-01-30T16:37:02Z</time>
      </trkpt>
      <trkpt lat="44.4787" lon="5.55734">
        <ele>1325.57</ele>
        <time>2024-01-30T16:37:10Z</time>
      </trkpt>
      <trkpt lat="44.47612" lon="5.56024">
        <ele>1294.57</ele>
        <time>2024-01-30T16:38:17Z</time>
      </trkpt>
      <trkpt lat="44.47724" lon="5.55991">
        <ele>1283.43</ele>
        <time>2024-01-30T16:38:40Z</time>
      </trkpt>
      <trkpt lat="44.47746" lon="5.55984">
        <ele>1278.85</ele>
        <time>2024-01-30T16:38:45Z</time>
      </trkpt>
      <trkpt lat="44.47792" lon="5.55952">
        <ele>1276.08</ele>
        <time>2024-01-30T16:38:56Z</time>
      </trkpt>
      <trkpt lat="44.47984" lon="5.55829">
        <ele>1251.5</ele>
        <time>2024-01-30T16:39:40Z</time>
      </trkpt>
      <trkpt lat="44.47824" lon="5.56123">
        <ele>1219.72</ele>
        <time>2024-01-30T16:40:33Z</time>
      </trkpt>
      <trkpt lat="44.47749" lon="5.56248">
        <ele>1206.63</ele>
        <time>2024-01-30T16:40:57Z</time>
      </trkpt>
      <trkpt lat="44.47698" lon="5.56343">
        <ele>1197.77</ele>
        <time>2024-01-30T16:41:18Z</time>
      </trkpt>
      <trkpt lat="44.47694" lon="5.56365">
        <ele>1196.57</ele>
        <time>2024-01-30T16:41:22Z</time>
      </trkpt>
      <trkpt lat="44.47711" lon="5.56385">
        <ele>1197.25</ele>
        <time>2024-01-30T16:41:29Z</time>
      </trkpt>
      <trkpt lat="44.47768" lon="5.56387">
        <ele>1200</ele>
        <time>2024-01-30T16:41:50Z</time>
      </trkpt>
      <trkpt lat="44.47763" lon="5.56394">
        <ele>1202.11</ele>
        <time>2024-01-30T16:41:54Z</time>
      </trkpt>
      <trkpt lat="44.47752" lon="5.56398">
        <ele>1202.77</ele>
        <time>2024-01-30T16:41:58Z</time>
      </trkpt>
      <trkpt lat="44.47713" lon="5.56402">
        <ele>1201.37</ele>
        <time>2024-01-30T16:42:16Z</time>
      </trkpt>
      <trkpt lat="44.4769" lon="5.56418">
        <ele>1203.27</ele>
        <time>2024-01-30T16:42:30Z</time>
      </trkpt>
      <trkpt lat="44.47661" lon="5.56429">
        <ele>1205.42</ele>
        <time>2024-01-30T16:42:46Z</time>
      </trkpt>
      <trkpt lat="44.47609" lon="5.56455">
        <ele>1209.3</ele>
        <time>2024-01-30T16:43:15Z</time>
      </trkpt>
      <trkpt lat="44.47511" lon="5.56517">
        <ele>1213.16</ele>
        <time>2024-01-30T16:44:10Z</time>
      </trkpt>
      <trkpt lat="44.47403" lon="5.56614">
        <ele>1219.99</ele>
        <time>2024-01-30T16:45:12Z</time>
      </trkpt>
      <trkpt lat="44.47303" lon="5.56718">
        <ele>1235.87</ele>
        <time>2024-01-30T16:46:13Z</time>
      </trkpt>
      <trkpt lat="44.47174" lon="5.56835">
        <ele>1239.63</ele>
        <time>2024-01-30T16:47:26Z</time>
      </trkpt>
      <trkpt lat="44.47137" lon="5.56883">
        <ele>1243.11</ele>
        <time>2024-01-30T16:47:45Z</time>
      </trkpt>
      <trkpt lat="44.47096" lon="5.56909">
        <ele>1245.02</ele>
        <time>2024-01-30T16:47:59Z</time>
      </trkpt>
      <trkpt lat="44.46946" lon="5.56978">
        <ele>1251.75</ele>
        <time>2024-01-30T16:48:36Z</time>
      </trkpt>
      <trkpt lat="44.46913" lon="5.56981">
        <ele>1250.42</ele>
        <time>2024-01-30T16:48:44Z</time>
      </trkpt>
      <trkpt lat="44.46855" lon="5.56975">
        <ele>1253.44</ele>
        <time>2024-01-30T16:48:57Z</time>
      </trkpt>
      <trkpt lat="44.46805" lon="5.56981">
        <ele>1254.83</ele>
        <time>2024-01-30T16:49:08Z</time>
      </trkpt>
      <trkpt lat="44.46767" lon="5.56965">
        <ele>1259.69</ele>
        <time>2024-01-30T16:49:18Z</time>
      </trkpt>
      <trkpt lat="44.46712" lon="5.56972">
        <ele>1257.93</ele>
        <time>2024-01-30T16:49:32Z</time>
      </trkpt>
      <trkpt lat="44.46655" lon="5.56971">
        <ele>1258.57</ele>
        <time>2024-01-30T16:49:49Z</time>
      </trkpt>
      <trkpt lat="44.46606" lon="5.56983">
        <ele>1254.86</ele>
        <time>2024-01-30T16:50:08Z</time>
      </trkpt>
      <trkpt lat="44.46574" lon="5.56986">
        <ele>1253.77</ele>
        <time>2024-01-30T16:50:22Z</time>
      </trkpt>
      <trkpt lat="44.46569" lon="5.5698">
        <ele>1255.54</ele>
        <time>2024-01-30T16:50:25Z</time>
      </trkpt>
      <trkpt lat="44.46572" lon="5.5697">
        <ele>1256.88</ele>
        <time>2024-01-30T16:50:29Z</time>
      </trkpt>
      <trkpt lat="44.46604" lon="5.56911">
        <ele>1260.19</ele>
        <time>2024-01-30T16:50:55Z</time>
      </trkpt>
      <trkpt lat="44.46651" lon="5.56836">
        <ele>1261.84</ele>
        <time>2024-01-30T16:51:27Z</time>
      </trkpt>
      <trkpt lat="44.4668" lon="5.56798">
        <ele>1263.15</ele>
        <time>2024-01-30T16:51:42Z</time>
      </trkpt>
      <trkpt lat="44.46698" lon="5.5676">
        <ele>1260.77</ele>
        <time>2024-01-30T16:51:52Z</time>
      </trkpt>
      <trkpt lat="44.46691" lon="5.56761">
        <ele>1259.11</ele>
        <time>2024-01-30T16:51:54Z</time>
      </trkpt>
      <trkpt lat="44.46651" lon="5.56825">
        <ele>1258.63</ele>
        <time>2024-01-30T16:52:10Z</time>
      </trkpt>
      <trkpt lat="44.46616" lon="5.5685">
        <ele>1253.04</ele>
        <time>2024-01-30T16:52:19Z</time>
      </trkpt>
      <trkpt lat="44.46577" lon="5.56895">
        <ele>1251.34</ele>
        <time>2024-01-30T16:52:30Z</time>
      </trkpt>
      <trkpt lat="44.46524" lon="5.56928">
        <ele>1247.82</ele>
        <time>2024-01-30T16:52:42Z</time>
      </trkpt>
      <trkpt lat="44.46458" lon="5.56952">
        <ele>1237.49</ele>
        <time>2024-01-30T16:52:57Z</time>
      </trkpt>
      <trkpt lat="44.4641" lon="5.56996">
        <ele>1236.76</ele>
        <time>2024-01-30T16:53:10Z</time>
      </trkpt>
      <trkpt lat="44.46351" lon="5.5704">
        <ele>1230.82</ele>
        <time>2024-01-30T16:53:24Z</time>
      </trkpt>
      <trkpt lat="44.46295" lon="5.57091">
        <ele>1228.32</ele>
        <time>2024-01-30T16:53:39Z</time>
      </trkpt>
      <trkpt lat="44.46227" lon="5.57105">
        <ele>1220.01</ele>
        <time>2024-01-30T16:53:54Z</time>
      </trkpt>
      <trkpt lat="44.46174" lon="5.5713">
        <ele>1217.3</ele>
        <time>2024-01-30T16:54:07Z</time>
      </trkpt>
      <trkpt lat="44.46088" lon="5.57156">
        <ele>1207.83</ele>
        <time>2024-01-30T16:54:26Z</time>
      </trkpt>
      <trkpt lat="44.46068" lon="5.57166">
        <ele>1207.29</ele>
        <time>2024-01-30T16:54:30Z</time>
      </trkpt>
      <trkpt lat="44.4603" lon="5.57166">
        <ele>1200.17</ele>
        <time>2024-01-30T16:54:38Z</time>
      </trkpt>
      <trkpt lat="44.45988" lon="5.57178">
        <ele>1193.98</ele>
        <time>2024-01-30T16:54:46Z</time>
      </trkpt>
      <trkpt lat="44.45943" lon="5.57183">
        <ele>1189.58</ele>
        <time>2024-01-30T16:54:55Z</time>
      </trkpt>
      <trkpt lat="44.45912" lon="5.57171">
        <ele>1182.91</ele>
        <time>2024-01-30T16:55:02Z</time>
      </trkpt>
      <trkpt lat="44.45878" lon="5.57138">
        <ele>1171.9</ele>
        <time>2024-01-30T16:55:10Z</time>
      </trkpt>
      <trkpt lat="44.4584" lon="5.57141">
        <ele>1170.9</ele>
        <time>2024-01-30T16:55:18Z</time>
      </trkpt>
      <trkpt lat="44.45824" lon="5.57046">
        <ele>1160.6</ele>
        <time>2024-01-30T16:55:33Z</time>
      </trkpt>
      <trkpt lat="44.45864" lon="5.57085">
        <ele>1158.41</ele>
        <time>2024-01-30T16:55:43Z</time>
      </trkpt>
      <trkpt lat="44.45889" lon="5.57085">
        <ele>1156.17</ele>
        <time>2024-01-30T16:55:48Z</time>
      </trkpt>
      <trkpt lat="44.45953" lon="5.57039">
        <ele>1146.9</ele>
        <time>2024-01-30T16:56:03Z</time>
      </trkpt>
      <trkpt lat="44.45991" lon="5.57028">
        <ele>1145.51</ele>
        <time>2024-01-30T16:56:11Z</time>
      </trkpt>
      <trkpt lat="44.46041" lon="5.56931">
        <ele>1127.1</ele>
        <time>2024-01-30T16:56:29Z</time>
      </trkpt>
      <trkpt lat="44.46085" lon="5.56925">
        <ele>1126.67</ele>
        <time>2024-01-30T16:56:37Z</time>
      </trkpt>
      <trkpt lat="44.46126" lon="5.56901">
        <ele>1126</ele>
        <time>2024-01-30T16:56:46Z</time>
      </trkpt>
      <trkpt lat="44.46183" lon="5.56848">
        <ele>1123.13</ele>
        <time>2024-01-30T16:57:01Z</time>
      </trkpt>
      <trkpt lat="44.4619" lon="5.56836">
        <ele>1122.24</ele>
        <time>2024-01-30T16:57:03Z</time>
      </trkpt>
      <trkpt lat="44.46187" lon="5.56825">
        <ele>1117.09</ele>
        <time>2024-01-30T16:57:05Z</time>
      </trkpt>
      <trkpt lat="44.46164" lon="5.56852">
        <ele>1120.51</ele>
        <time>2024-01-30T16:57:11Z</time>
      </trkpt>
      <trkpt lat="44.46141" lon="5.56858">
        <ele>1116.94</ele>
        <time>2024-01-30T16:57:16Z</time>
      </trkpt>
      <trkpt lat="44.46121" lon="5.56838">
        <ele>1108.69</ele>
        <time>2024-01-30T16:57:21Z</time>
      </trkpt>
      <trkpt lat="44.46092" lon="5.56834">
        <ele>1104.56</ele>
        <time>2024-01-30T16:57:27Z</time>
      </trkpt>
      <trkpt lat="44.46061" lon="5.56847">
        <ele>1104.33</ele>
        <time>2024-01-30T16:57:33Z</time>
      </trkpt>
      <trkpt lat="44.46031" lon="5.56845">
        <ele>1100.3</ele>
        <time>2024-01-30T16:57:39Z</time>
      </trkpt>
      <trkpt lat="44.46018" lon="5.56836">
        <ele>1095.31</ele>
        <time>2024-01-30T16:57:42Z</time>
      </trkpt>
      <trkpt lat="44.46031" lon="5.56834">
        <ele>1096.35</ele>
        <time>2024-01-30T16:57:45Z</time>
      </trkpt>
      <trkpt lat="44.46054" lon="5.56806">
        <ele>1093.48</ele>
        <time>2024-01-30T16:57:51Z</time>
      </trkpt>
      <trkpt lat="44.46086" lon="5.56781">
        <ele>1092.5</ele>
        <time>2024-01-30T16:57:59Z</time>
      </trkpt>
      <trkpt lat="44.46108" lon="5.56755">
        <ele>1087.88</ele>
        <time>2024-01-30T16:58:05Z</time>
      </trkpt>
      <trkpt lat="44.46092" lon="5.56755">
        <ele>1087.43</ele>
        <time>2024-01-30T16:58:08Z</time>
      </trkpt>
      <trkpt lat="44.46027" lon="5.56791">
        <ele>1083.86</ele>
        <time>2024-01-30T16:58:23Z</time>
      </trkpt>
      <trkpt lat="44.46019" lon="5.56786">
        <ele>1080.27</ele>
        <time>2024-01-30T16:58:25Z</time>
      </trkpt>
      <trkpt lat="44.46044" lon="5.56753">
        <ele>1077.74</ele>
        <time>2024-01-30T16:58:32Z</time>
      </trkpt>
      <trkpt lat="44.46061" lon="5.56735">
        <ele>1076.52</ele>
        <time>2024-01-30T16:58:37Z</time>
      </trkpt>
      <trkpt lat="44.46088" lon="5.56718">
        <ele>1074.47</ele>
        <time>2024-01-30T16:58:44Z</time>
      </trkpt>
      <trkpt lat="44.46119" lon="5.56707">
        <ele>1072.21</ele>
        <time>2024-01-30T16:58:50Z</time>
      </trkpt>
      <trkpt lat="44.46135" lon="5.56708">
        <ele>1072.09</ele>
        <time>2024-01-30T16:58:54Z</time>
      </trkpt>
      <trkpt lat="44.4614" lon="5.56699">
        <ele>1069.71</ele>
        <time>2024-01-30T16:58:56Z</time>
      </trkpt>
      <trkpt lat="44.46138" lon="5.5669">
        <ele>1067.35</ele>
        <time>2024-01-30T16:58:57Z</time>
      </trkpt>
      <trkpt lat="44.4611" lon="5.56688">
        <ele>1063.73</ele>
        <time>2024-01-30T16:59:03Z</time>
      </trkpt>
      <trkpt lat="44.46057" lon="5.56676">
        <ele>1054.9</ele>
        <time>2024-01-30T16:59:14Z</time>
      </trkpt>
      <trkpt lat="44.46012" lon="5.56682">
        <ele>1045.45</ele>
        <time>2024-01-30T16:59:24Z</time>
      </trkpt>
      <trkpt lat="44.46008" lon="5.56671">
        <ele>1040.12</ele>
        <time>2024-01-30T16:59:25Z</time>
      </trkpt>
      <trkpt lat="44.46032" lon="5.56652">
        <ele>1042.24</ele>
        <time>2024-01-30T16:59:31Z</time>
      </trkpt>
      <trkpt lat="44.46068" lon="5.56637">
        <ele>1043.18</ele>
        <time>2024-01-30T16:59:38Z</time>
      </trkpt>
      <trkpt lat="44.461" lon="5.56628">
        <ele>1043.18</ele>
        <time>2024-01-30T16:59:44Z</time>
      </trkpt>
      <trkpt lat="44.46118" lon="5.56611">
        <ele>1042.43</ele>
        <time>2024-01-30T16:59:49Z</time>
      </trkpt>
      <trkpt lat="44.46095" lon="5.56539">
        <ele>1026.28</ele>
        <time>2024-01-30T16:59:59Z</time>
      </trkpt>
      <trkpt lat="44.46098" lon="5.56522">
        <ele>1024.39</ele>
        <time>2024-01-30T17:00:01Z</time>
      </trkpt>
      <trkpt lat="44.46111" lon="5.56461">
        <ele>1019.56</ele>
        <time>2024-01-30T17:00:10Z</time>
      </trkpt>
      <trkpt lat="44.46126" lon="5.56432">
        <ele>1023.77</ele>
        <time>2024-01-30T17:00:15Z</time>
      </trkpt>
      <trkpt lat="44.46145" lon="5.56343">
        <ele>1010.03</ele>
        <time>2024-01-30T17:00:28Z</time>
      </trkpt>
      <trkpt lat="44.46166" lon="5.56311">
        <ele>1007.03</ele>
        <time>2024-01-30T17:00:35Z</time>
      </trkpt>
      <trkpt lat="44.46164" lon="5.56303">
        <ele>1004.31</ele>
        <time>2024-01-30T17:00:37Z</time>
      </trkpt>
      <trkpt lat="44.46149" lon="5.56307">
        <ele>1001.16</ele>
        <time>2024-01-30T17:00:41Z</time>
      </trkpt>
      <trkpt lat="44.46135" lon="5.56331">
        <ele>1003.12</ele>
        <time>2024-01-30T17:00:46Z</time>
      </trkpt>
      <trkpt lat="44.46121" lon="5.56365">
        <ele>1005.04</ele>
        <time>2024-01-30T17:00:53Z</time>
      </trkpt>
      <trkpt lat="44.46086" lon="5.56412">
        <ele>997.6</ele>
        <time>2024-01-30T17:01:05Z</time>
      </trkpt>
      <trkpt lat="44.46063" lon="5.56466">
        <ele>995.26</ele>
        <time>2024-01-30T17:01:16Z</time>
      </trkpt>
      <trkpt lat="44.46064" lon="5.56439">
        <ele>992.61</ele>
        <time>2024-01-30T17:01:20Z</time>
      </trkpt>
      <trkpt lat="44.46086" lon="5.56334">
        <ele>985.73</ele>
        <time>2024-01-30T17:01:36Z</time>
      </trkpt>
      <trkpt lat="44.46102" lon="5.56283">
        <ele>982.03</ele>
        <time>2024-01-30T17:01:44Z</time>
      </trkpt>
      <trkpt lat="44.46102" lon="5.56255">
        <ele>978.02</ele>
        <time>2024-01-30T17:01:48Z</time>
      </trkpt>
      <trkpt lat="44.46096" lon="5.56222">
        <ele>973.42</ele>
        <time>2024-01-30T17:01:53Z</time>
      </trkpt>
      <trkpt lat="44.46077" lon="5.56186">
        <ele>966.17</ele>
        <time>2024-01-30T17:01:59Z</time>
      </trkpt>
      <trkpt lat="44.4605" lon="5.56158">
        <ele>962.55</ele>
        <time>2024-01-30T17:02:06Z</time>
      </trkpt>
      <trkpt lat="44.46029" lon="5.56155">
        <ele>959.51</ele>
        <time>2024-01-30T17:02:10Z</time>
      </trkpt>
      <trkpt lat="44.46018" lon="5.56145">
        <ele>958.32</ele>
        <time>2024-01-30T17:02:13Z</time>
      </trkpt>
      <trkpt lat="44.4602" lon="5.5613">
        <ele>958.84</ele>
        <time>2024-01-30T17:02:15Z</time>
      </trkpt>
      <trkpt lat="44.46017" lon="5.56113">
        <ele>959.67</ele>
        <time>2024-01-30T17:02:18Z</time>
      </trkpt>
      <trkpt lat="44.46" lon="5.561">
        <ele>958.89</ele>
        <time>2024-01-30T17:02:22Z</time>
      </trkpt>
      <trkpt lat="44.45965" lon="5.56056">
        <ele>953.48</ele>
        <time>2024-01-30T17:02:31Z</time>
      </trkpt>
      <trkpt lat="44.45943" lon="5.56041">
        <ele>947.18</ele>
        <time>2024-01-30T17:02:36Z</time>
      </trkpt>
      <trkpt lat="44.45926" lon="5.56015">
        <ele>939.56</ele>
        <time>2024-01-30T17:02:41Z</time>
      </trkpt>
      <trkpt lat="44.45925" lon="5.55961">
        <ele>933.01</ele>
        <time>2024-01-30T17:02:49Z</time>
      </trkpt>
      <trkpt lat="44.4594" lon="5.55925">
        <ele>941.08</ele>
        <time>2024-01-30T17:02:55Z</time>
      </trkpt>
      <trkpt lat="44.45943" lon="5.55908">
        <ele>942.34</ele>
        <time>2024-01-30T17:02:57Z</time>
      </trkpt>
      <trkpt lat="44.45927" lon="5.5587">
        <ele>939.6</ele>
        <time>2024-01-30T17:03:04Z</time>
      </trkpt>
      <trkpt lat="44.45921" lon="5.55854">
        <ele>938.9</ele>
        <time>2024-01-30T17:03:06Z</time>
      </trkpt>
      <trkpt lat="44.45889" lon="5.55804">
        <ele>936.1</ele>
        <time>2024-01-30T17:03:16Z</time>
      </trkpt>
      <trkpt lat="44.45864" lon="5.55791">
        <ele>931.19</ele>
        <time>2024-01-30T17:03:21Z</time>
      </trkpt>
      <trkpt lat="44.45843" lon="5.55759">
        <ele>930.51</ele>
        <time>2024-01-30T17:03:27Z</time>
      </trkpt>
      <trkpt lat="44.45828" lon="5.55718">
        <ele>921.69</ele>
        <time>2024-01-30T17:03:34Z</time>
      </trkpt>
      <trkpt lat="44.45831" lon="5.55701">
        <ele>916.28</ele>
        <time>2024-01-30T17:03:36Z</time>
      </trkpt>
      <trkpt lat="44.45855" lon="5.55677">
        <ele>923.51</ele>
        <time>2024-01-30T17:03:42Z</time>
      </trkpt>
      <trkpt lat="44.45862" lon="5.55652">
        <ele>917.99</ele>
        <time>2024-01-30T17:03:46Z</time>
      </trkpt>
      <trkpt lat="44.45864" lon="5.55578">
        <ele>908.92</ele>
        <time>2024-01-30T17:03:57Z</time>
      </trkpt>
      <trkpt lat="44.4587" lon="5.55555">
        <ele>908.07</ele>
        <time>2024-01-30T17:04:00Z</time>
      </trkpt>
      <trkpt lat="44.45848" lon="5.55537">
        <ele>902.35</ele>
        <time>2024-01-30T17:04:05Z</time>
      </trkpt>
      <trkpt lat="44.45815" lon="5.5546">
        <ele>895.22</ele>
        <time>2024-01-30T17:04:18Z</time>
      </trkpt>
      <trkpt lat="44.45796" lon="5.55429">
        <ele>891.21</ele>
        <time>2024-01-30T17:04:24Z</time>
      </trkpt>
      <trkpt lat="44.45782" lon="5.554">
        <ele>889.52</ele>
        <time>2024-01-30T17:04:29Z</time>
      </trkpt>
      <trkpt lat="44.45759" lon="5.55341">
        <ele>881.1</ele>
        <time>2024-01-30T17:04:39Z</time>
      </trkpt>
      <trkpt lat="44.45733" lon="5.55311">
        <ele>870.54</ele>
        <time>2024-01-30T17:04:46Z</time>
      </trkpt>
      <trkpt lat="44.45727" lon="5.55286">
        <ele>870.3</ele>
        <time>2024-01-30T17:04:50Z</time>
      </trkpt>
      <trkpt lat="44.45723" lon="5.55257">
        <ele>871.66</ele>
        <time>2024-01-30T17:04:54Z</time>
      </trkpt>
      <trkpt lat="44.45692" lon="5.55207">
        <ele>868.84</ele>
        <time>2024-01-30T17:05:03Z</time>
      </trkpt>
      <trkpt lat="44.45652" lon="5.55126">
        <ele>863.07</ele>
        <time>2024-01-30T17:05:18Z</time>
      </trkpt>
      <trkpt lat="44.45625" lon="5.55087">
        <ele>853.34</ele>
        <time>2024-01-30T17:05:25Z</time>
      </trkpt>
      <trkpt lat="44.45596" lon="5.54995">
        <ele>848.6</ele>
        <time>2024-01-30T17:05:40Z</time>
      </trkpt>
      <trkpt lat="44.45557" lon="5.54923">
        <ele>841.67</ele>
        <time>2024-01-30T17:05:53Z</time>
      </trkpt>
      <trkpt lat="44.45536" lon="5.54864">
        <ele>840.99</ele>
        <time>2024-01-30T17:06:03Z</time>
      </trkpt>
      <trkpt lat="44.45528" lon="5.54856">
        <ele>838.65</ele>
        <time>2024-01-30T17:06:05Z</time>
      </trkpt>
      <trkpt lat="44.45509" lon="5.54848">
        <ele>831.77</ele>
        <time>2024-01-30T17:06:09Z</time>
      </trkpt>
      <trkpt lat="44.45503" lon="5.5484">
        <ele>830.53</ele>
        <time>2024-01-30T17:06:10Z</time>
      </trkpt>
      <trkpt lat="44.455" lon="5.54825">
        <ele>829.32</ele>
        <time>2024-01-30T17:06:13Z</time>
      </trkpt>
      <trkpt lat="44.45497" lon="5.54719">
        <ele>828.8</ele>
        <time>2024-01-30T17:06:28Z</time>
      </trkpt>
      <trkpt lat="44.45492" lon="5.54701">
        <ele>827.29</ele>
        <time>2024-01-30T17:06:31Z</time>
      </trkpt>
      <trkpt lat="44.45461" lon="5.54628">
        <ele>822.8</ele>
        <time>2024-01-30T17:06:43Z</time>
      </trkpt>
      <trkpt lat="44.45432" lon="5.54593">
        <ele>819.45</ele>
        <time>2024-01-30T17:06:51Z</time>
      </trkpt>
      <trkpt lat="44.454" lon="5.54577">
        <ele>814</ele>
        <time>2024-01-30T17:06:58Z</time>
      </trkpt>
      <trkpt lat="44.45389" lon="5.54567">
        <ele>811.79</ele>
        <time>2024-01-30T17:07:00Z</time>
      </trkpt>
      <trkpt lat="44.45382" lon="5.54557">
        <ele>811.67</ele>
        <time>2024-01-30T17:07:02Z</time>
      </trkpt>
      <trkpt lat="44.45368" lon="5.5452">
        <ele>810.87</ele>
        <time>2024-01-30T17:07:09Z</time>
      </trkpt>
      <trkpt lat="44.45343" lon="5.54489">
        <ele>806.55</ele>
        <time>2024-01-30T17:07:16Z</time>
      </trkpt>
      <trkpt lat="44.45339" lon="5.54478">
        <ele>807.12</ele>
        <time>2024-01-30T17:07:18Z</time>
      </trkpt>
      <trkpt lat="44.4534" lon="5.54465">
        <ele>807.79</ele>
        <time>2024-01-30T17:07:20Z</time>
      </trkpt>
      <trkpt lat="44.45343" lon="5.54455">
        <ele>809.17</ele>
        <time>2024-01-30T17:07:21Z</time>
      </trkpt>
      <trkpt lat="44.45355" lon="5.54436">
        <ele>811.9</ele>
        <time>2024-01-30T17:07:25Z</time>
      </trkpt>
      <trkpt lat="44.45357" lon="5.54429">
        <ele>812.81</ele>
        <time>2024-01-30T17:07:27Z</time>
      </trkpt>
      <trkpt lat="44.45355" lon="5.54422">
        <ele>812.27</ele>
        <time>2024-01-30T17:07:28Z</time>
      </trkpt>
      <trkpt lat="44.45349" lon="5.54419">
        <ele>811.73</ele>
        <time>2024-01-30T17:07:29Z</time>
      </trkpt>
      <trkpt lat="44.45339" lon="5.54421">
        <ele>810.37</ele>
        <time>2024-01-30T17:07:31Z</time>
      </trkpt>
      <trkpt lat="44.45339" lon="5.54431">
        <ele>809.89</ele>
        <time>2024-01-30T17:07:32Z</time>
      </trkpt>
      <trkpt lat="44.45307" lon="5.54506">
        <ele>799.5</ele>
        <time>2024-01-30T17:07:40Z</time>
      </trkpt>
      <trkpt lat="44.45298" lon="5.54509">
        <ele>798</ele>
        <time>2024-01-30T17:07:41Z</time>
      </trkpt>
      <trkpt lat="44.4528" lon="5.54494">
        <ele>795.48</ele>
        <time>2024-01-30T17:07:44Z</time>
      </trkpt>
      <trkpt lat="44.45261" lon="5.54477">
        <ele>792.88</ele>
        <time>2024-01-30T17:07:47Z</time>
      </trkpt>
      <trkpt lat="44.45223" lon="5.54429">
        <ele>790.09</ele>
        <time>2024-01-30T17:07:53Z</time>
      </trkpt>
      <trkpt lat="44.45197" lon="5.54402">
        <ele>788.35</ele>
        <time>2024-01-30T17:07:57Z</time>
      </trkpt>
      <trkpt lat="44.45175" lon="5.54385">
        <ele>787.34</ele>
        <time>2024-01-30T17:08:00Z</time>
      </trkpt>
      <trkpt lat="44.45149" lon="5.54371">
        <ele>785.33</ele>
        <time>2024-01-30T17:08:03Z</time>
      </trkpt>
      <trkpt lat="44.45115" lon="5.54358">
        <ele>782.51</ele>
        <time>2024-01-30T17:08:07Z</time>
      </trkpt>
      <trkpt lat="44.45074" lon="5.54348">
        <ele>780.17</ele>
        <time>2024-01-30T17:08:12Z</time>
      </trkpt>
      <trkpt lat="44.4505" lon="5.5434">
        <ele>778.58</ele>
        <time>2024-01-30T17:08:15Z</time>
      </trkpt>
      <trkpt lat="44.45019" lon="5.5431">
        <ele>775.73</ele>
        <time>2024-01-30T17:08:21Z</time>
      </trkpt>
      <trkpt lat="44.45017" lon="5.54314">
        <ele>775.88</ele>
        <time>2024-01-30T17:08:21Z</time>
      </trkpt>
      <trkpt lat="44.45017" lon="5.54315">
        <ele>775.57</ele>
        <time>2024-01-30T17:08:21Z</time>
      </trkpt>
      <trkpt lat="44.45014" lon="5.54322">
        <ele>775.85</ele>
        <time>2024-01-30T17:08:22Z</time>
      </trkpt>
      <trkpt lat="44.45011" lon="5.54331">
        <ele>775.75</ele>
        <time>2024-01-30T17:08:23Z</time>
      </trkpt>
      <trkpt lat="44.44976" lon="5.54414">
        <ele>777.42</ele>
        <time>2024-01-30T17:08:35Z</time>
      </trkpt>
      <trkpt lat="44.44949" lon="5.54468">
        <ele>779.67</ele>
        <time>2024-01-30T17:08:49Z</time>
      </trkpt>
      <trkpt lat="44.4493" lon="5.54501">
        <ele>780.02</ele>
        <time>2024-01-30T17:09:00Z</time>
      </trkpt>
      <trkpt lat="44.44915" lon="5.5453">
        <ele>780.67</ele>
        <time>2024-01-30T17:09:10Z</time>
      </trkpt>
      <trkpt lat="44.44911" lon="5.54545">
        <ele>781.16</ele>
        <time>2024-01-30T17:09:16Z</time>
      </trkpt>
      <trkpt lat="44.449" lon="5.54623">
        <ele>782.09</ele>
        <time>2024-01-30T17:09:43Z</time>
      </trkpt>
      <trkpt lat="44.44894" lon="5.54647">
        <ele>783.26</ele>
        <time>2024-01-30T17:09:53Z</time>
      </trkpt>
      <trkpt lat="44.44859" lon="5.54754">
        <ele>792.63</ele>
        <time>2024-01-30T17:10:41Z</time>
      </trkpt>
      <trkpt lat="44.44851" lon="5.54767">
        <ele>794.04</ele>
        <time>2024-01-30T17:10:49Z</time>
      </trkpt>
      <trkpt lat="44.44828" lon="5.54877">
        <ele>808.94</ele>
        <time>2024-01-30T17:11:50Z</time>
      </trkpt>
      <trkpt lat="44.44821" lon="5.54904">
        <ele>814.46</ele>
        <time>2024-01-30T17:12:05Z</time>
      </trkpt>
      <trkpt lat="44.44817" lon="5.5491">
        <ele>815.82</ele>
        <time>2024-01-30T17:12:10Z</time>
      </trkpt>
      <trkpt lat="44.44798" lon="5.54914">
        <ele>818.01</ele>
        <time>2024-01-30T17:12:23Z</time>
      </trkpt>
      <trkpt lat="44.44781" lon="5.54922">
        <ele>819.93</ele>
        <time>2024-01-30T17:12:36Z</time>
      </trkpt>
      <trkpt lat="44.44767" lon="5.54938">
        <ele>821.54</ele>
        <time>2024-01-30T17:12:48Z</time>
      </trkpt>
      <trkpt lat="44.44748" lon="5.54979">
        <ele>824.02</ele>
        <time>2024-01-30T17:13:09Z</time>
      </trkpt>
      <trkpt lat="44.44738" lon="5.55009">
        <ele>827.78</ele>
        <time>2024-01-30T17:13:24Z</time>
      </trkpt>
      <trkpt lat="44.44698" lon="5.55042">
        <ele>832.5</ele>
        <time>2024-01-30T17:13:42Z</time>
      </trkpt>
      <trkpt lat="44.4469" lon="5.55053">
        <ele>832.89</ele>
        <time>2024-01-30T17:13:46Z</time>
      </trkpt>
      <trkpt lat="44.44686" lon="5.55066">
        <ele>833.54</ele>
        <time>2024-01-30T17:13:50Z</time>
      </trkpt>
      <trkpt lat="44.44658" lon="5.55071">
        <ele>832.15</ele>
        <time>2024-01-30T17:13:58Z</time>
      </trkpt>
      <trkpt lat="44.44635" lon="5.55087">
        <ele>829.88</ele>
        <time>2024-01-30T17:14:05Z</time>
      </trkpt>
      <trkpt lat="44.44636" lon="5.55093">
        <ele>831.8</ele>
        <time>2024-01-30T17:14:07Z</time>
      </trkpt>
      <trkpt lat="44.44632" lon="5.55107">
        <ele>831.96</ele>
        <time>2024-01-30T17:14:11Z</time>
      </trkpt>
      <trkpt lat="44.44609" lon="5.55128">
        <ele>830.54</ele>
        <time>2024-01-30T17:14:20Z</time>
      </trkpt>
      <trkpt lat="44.446" lon="5.5514">
        <ele>829.46</ele>
        <time>2024-01-30T17:14:24Z</time>
      </trkpt>
      <trkpt lat="44.44593" lon="5.55138">
        <ele>829.2</ele>
        <time>2024-01-30T17:14:26Z</time>
      </trkpt>
      <trkpt lat="44.44586" lon="5.55123">
        <ele>825.1</ele>
        <time>2024-01-30T17:14:30Z</time>
      </trkpt>
      <trkpt lat="44.44574" lon="5.55131">
        <ele>823.89</ele>
        <time>2024-01-30T17:14:33Z</time>
      </trkpt>
      <trkpt lat="44.44548" lon="5.55147">
        <ele>823.51</ele>
        <time>2024-01-30T17:14:38Z</time>
      </trkpt>
      <trkpt lat="44.44527" lon="5.5516">
        <ele>823.45</ele>
        <time>2024-01-30T17:14:43Z</time>
      </trkpt>
      <trkpt lat="44.44491" lon="5.55176">
        <ele>821.52</ele>
        <time>2024-01-30T17:14:51Z</time>
      </trkpt>
      <trkpt lat="44.44485" lon="5.55194">
        <ele>821.88</ele>
        <time>2024-01-30T17:14:53Z</time>
      </trkpt>
      <trkpt lat="44.44451" lon="5.55299">
        <ele>823.61</ele>
        <time>2024-01-30T17:15:14Z</time>
      </trkpt>
      <trkpt lat="44.44423" lon="5.55349">
        <ele>823.59</ele>
        <time>2024-01-30T17:15:29Z</time>
      </trkpt>
      <trkpt lat="44.44386" lon="5.55407">
        <ele>824.19</ele>
        <time>2024-01-30T17:15:50Z</time>
      </trkpt>
      <trkpt lat="44.44325" lon="5.55481">
        <ele>829.53</ele>
        <time>2024-01-30T17:16:27Z</time>
      </trkpt>
      <trkpt lat="44.44299" lon="5.55506">
        <ele>831.82</ele>
        <time>2024-01-30T17:16:43Z</time>
      </trkpt>
      <trkpt lat="44.44264" lon="5.55528">
        <ele>838.71</ele>
        <time>2024-01-30T17:17:05Z</time>
      </trkpt>
      <trkpt lat="44.44241" lon="5.55545">
        <ele>840.57</ele>
        <time>2024-01-30T17:17:19Z</time>
      </trkpt>
      <trkpt lat="44.44174" lon="5.55574">
        <ele>846.77</ele>
        <time>2024-01-30T17:17:59Z</time>
      </trkpt>
      <trkpt lat="44.44147" lon="5.55606">
        <ele>847.88</ele>
        <time>2024-01-30T17:18:19Z</time>
      </trkpt>
      <trkpt lat="44.44115" lon="5.55619">
        <ele>851.67</ele>
        <time>2024-01-30T17:18:38Z</time>
      </trkpt>
      <trkpt lat="44.44105" lon="5.55629">
        <ele>852.61</ele>
        <time>2024-01-30T17:18:45Z</time>
      </trkpt>
      <trkpt lat="44.4409" lon="5.55653">
        <ele>854.94</ele>
        <time>2024-01-30T17:18:58Z</time>
      </trkpt>
      <trkpt lat="44.44066" lon="5.55724">
        <ele>859.23</ele>
        <time>2024-01-30T17:19:30Z</time>
      </trkpt>
      <trkpt lat="44.44061" lon="5.55733">
        <ele>859.8</ele>
        <time>2024-01-30T17:19:35Z</time>
      </trkpt>
      <trkpt lat="44.44042" lon="5.55747">
        <ele>862.76</ele>
        <time>2024-01-30T17:19:48Z</time>
      </trkpt>
      <trkpt lat="44.44016" lon="5.55758">
        <ele>864.98</ele>
        <time>2024-01-30T17:20:05Z</time>
      </trkpt>
      <trkpt lat="44.43972" lon="5.55766">
        <ele>868.91</ele>
        <time>2024-01-30T17:20:33Z</time>
      </trkpt>
      <trkpt lat="44.43963" lon="5.5577">
        <ele>869.93</ele>
        <time>2024-01-30T17:20:39Z</time>
      </trkpt>
      <trkpt lat="44.43923" lon="5.55806">
        <ele>874.91</ele>
        <time>2024-01-30T17:21:07Z</time>
      </trkpt>
      <trkpt lat="44.43917" lon="5.55812">
        <ele>876.82</ele>
        <time>2024-01-30T17:21:12Z</time>
      </trkpt>
      <trkpt lat="44.43875" lon="5.55851">
        <ele>881.47</ele>
        <time>2024-01-30T17:21:40Z</time>
      </trkpt>
      <trkpt lat="44.43852" lon="5.55869">
        <ele>881.2</ele>
        <time>2024-01-30T17:21:53Z</time>
      </trkpt>
      <trkpt lat="44.43847" lon="5.5587">
        <ele>880.08</ele>
        <time>2024-01-30T17:21:56Z</time>
      </trkpt>
      <trkpt lat="44.4384" lon="5.55868">
        <ele>881.37</ele>
        <time>2024-01-30T17:21:59Z</time>
      </trkpt>
      <trkpt lat="44.43837" lon="5.55859">
        <ele>883.84</ele>
        <time>2024-01-30T17:22:02Z</time>
      </trkpt>
      <trkpt lat="44.4384" lon="5.55849">
        <ele>886.67</ele>
        <time>2024-01-30T17:22:06Z</time>
      </trkpt>
      <trkpt lat="44.43861" lon="5.55839">
        <ele>888.17</ele>
        <time>2024-01-30T17:22:16Z</time>
      </trkpt>
      <trkpt lat="44.43869" lon="5.55826">
        <ele>889.11</ele>
        <time>2024-01-30T17:22:22Z</time>
      </trkpt>
      <trkpt lat="44.43899" lon="5.55755">
        <ele>891.35</ele>
        <time>2024-01-30T17:22:48Z</time>
      </trkpt>
      <trkpt lat="44.43909" lon="5.55738">
        <ele>891.03</ele>
        <time>2024-01-30T17:22:54Z</time>
      </trkpt>
      <trkpt lat="44.4391" lon="5.55733">
        <ele>890.21</ele>
        <time>2024-01-30T17:22:56Z</time>
      </trkpt>
      <trkpt lat="44.43909" lon="5.55723">
        <ele>894.38</ele>
        <time>2024-01-30T17:22:59Z</time>
      </trkpt>
      <trkpt lat="44.43903" lon="5.55719">
        <ele>896.93</ele>
        <time>2024-01-30T17:23:01Z</time>
      </trkpt>
      <trkpt lat="44.43894" lon="5.55727">
        <ele>898.62</ele>
        <time>2024-01-30T17:23:06Z</time>
      </trkpt>
      <trkpt lat="44.43857" lon="5.55798">
        <ele>899.5</ele>
        <time>2024-01-30T17:23:33Z</time>
      </trkpt>
      <trkpt lat="44.43848" lon="5.5581">
        <ele>898.29</ele>
        <time>2024-01-30T17:23:38Z</time>
      </trkpt>
      <trkpt lat="44.43834" lon="5.55812">
        <ele>900.56</ele>
        <time>2024-01-30T17:23:44Z</time>
      </trkpt>
      <trkpt lat="44.43794" lon="5.55798">
        <ele>909.42</ele>
        <time>2024-01-30T17:24:03Z</time>
      </trkpt>
      <trkpt lat="44.43778" lon="5.55798">
        <ele>911.26</ele>
        <time>2024-01-30T17:24:11Z</time>
      </trkpt>
      <trkpt lat="44.43765" lon="5.55801">
        <ele>912.09</ele>
        <time>2024-01-30T17:24:19Z</time>
      </trkpt>
      <trkpt lat="44.43759" lon="5.55804">
        <ele>914.61</ele>
        <time>2024-01-30T17:24:22Z</time>
      </trkpt>
      <trkpt lat="44.43747" lon="5.55816">
        <ele>913.66</ele>
        <time>2024-01-30T17:24:30Z</time>
      </trkpt>
      <trkpt lat="44.43734" lon="5.55838">
        <ele>913.65</ele>
        <time>2024-01-30T17:24:42Z</time>
      </trkpt>
      <trkpt lat="44.43707" lon="5.55871">
        <ele>915.86</ele>
        <time>2024-01-30T17:25:05Z</time>
      </trkpt>
      <trkpt lat="44.43687" lon="5.55877">
        <ele>919.71</ele>
        <time>2024-01-30T17:25:19Z</time>
      </trkpt>
      <trkpt lat="44.4368" lon="5.55874">
        <ele>920.61</ele>
        <time>2024-01-30T17:25:23Z</time>
      </trkpt>
      <trkpt lat="44.43671" lon="5.55863">
        <ele>923.63</ele>
        <time>2024-01-30T17:25:31Z</time>
      </trkpt>
      <trkpt lat="44.43656" lon="5.55812">
        <ele>928.27</ele>
        <time>2024-01-30T17:25:56Z</time>
      </trkpt>
      <trkpt lat="44.43629" lon="5.55762">
        <ele>934.93</ele>
        <time>2024-01-30T17:26:25Z</time>
      </trkpt>
      <trkpt lat="44.43617" lon="5.55752">
        <ele>936.38</ele>
        <time>2024-01-30T17:26:34Z</time>
      </trkpt>
      <trkpt lat="44.43611" lon="5.55751">
        <ele>936.46</ele>
        <time>2024-01-30T17:26:38Z</time>
      </trkpt>
      <trkpt lat="44.43598" lon="5.55757">
        <ele>936.89</ele>
        <time>2024-01-30T17:26:48Z</time>
      </trkpt>
      <trkpt lat="44.43575" lon="5.55785">
        <ele>938.67</ele>
        <time>2024-01-30T17:27:09Z</time>
      </trkpt>
      <trkpt lat="44.43557" lon="5.55813">
        <ele>941.39</ele>
        <time>2024-01-30T17:27:27Z</time>
      </trkpt>
      <trkpt lat="44.43545" lon="5.55843">
        <ele>941.48</ele>
        <time>2024-01-30T17:27:44Z</time>
      </trkpt>
      <trkpt lat="44.43532" lon="5.55894">
        <ele>941.69</ele>
        <time>2024-01-30T17:28:07Z</time>
      </trkpt>
      <trkpt lat="44.43526" lon="5.55905">
        <ele>942.99</ele>
        <time>2024-01-30T17:28:13Z</time>
      </trkpt>
      <trkpt lat="44.43519" lon="5.55914">
        <ele>944.45</ele>
        <time>2024-01-30T17:28:19Z</time>
      </trkpt>
      <trkpt lat="44.43496" lon="5.55932">
        <ele>948.15</ele>
        <time>2024-01-30T17:28:33Z</time>
      </trkpt>
      <trkpt lat="44.4349" lon="5.55942">
        <ele>948.7</ele>
        <time>2024-01-30T17:28:37Z</time>
      </trkpt>
      <trkpt lat="44.43487" lon="5.55956">
        <ele>949.87</ele>
        <time>2024-01-30T17:28:42Z</time>
      </trkpt>
      <trkpt lat="44.43487" lon="5.55985">
        <ele>951.65</ele>
        <time>2024-01-30T17:28:53Z</time>
      </trkpt>
      <trkpt lat="44.43513" lon="5.56076">
        <ele>957.04</ele>
        <time>2024-01-30T17:29:29Z</time>
      </trkpt>
      <trkpt lat="44.43524" lon="5.5613">
        <ele>959.26</ele>
        <time>2024-01-30T17:29:52Z</time>
      </trkpt>
      <trkpt lat="44.43526" lon="5.5615">
        <ele>960.07</ele>
        <time>2024-01-30T17:30:00Z</time>
      </trkpt>
      <trkpt lat="44.43507" lon="5.5612">
        <ele>963.07</ele>
        <time>2024-01-30T17:30:20Z</time>
      </trkpt>
      <trkpt lat="44.43485" lon="5.56095">
        <ele>965.06</ele>
        <time>2024-01-30T17:30:40Z</time>
      </trkpt>
      <trkpt lat="44.4345" lon="5.56046">
        <ele>969.56</ele>
        <time>2024-01-30T17:31:15Z</time>
      </trkpt>
      <trkpt lat="44.43436" lon="5.56039">
        <ele>972.2</ele>
        <time>2024-01-30T17:31:25Z</time>
      </trkpt>
      <trkpt lat="44.4343" lon="5.56027">
        <ele>971.85</ele>
        <time>2024-01-30T17:31:32Z</time>
      </trkpt>
      <trkpt lat="44.4342" lon="5.55994">
        <ele>972.61</ele>
        <time>2024-01-30T17:31:51Z</time>
      </trkpt>
      <trkpt lat="44.43396" lon="5.55984">
        <ele>978.75</ele>
        <time>2024-01-30T17:32:11Z</time>
      </trkpt>
      <trkpt lat="44.43389" lon="5.55971">
        <ele>980.82</ele>
        <time>2024-01-30T17:32:20Z</time>
      </trkpt>
      <trkpt lat="44.43379" lon="5.55926">
        <ele>981.95</ele>
        <time>2024-01-30T17:32:46Z</time>
      </trkpt>
      <trkpt lat="44.43372" lon="5.55902">
        <ele>984.76</ele>
        <time>2024-01-30T17:33:01Z</time>
      </trkpt>
      <trkpt lat="44.4337" lon="5.55887">
        <ele>984.76</ele>
        <time>2024-01-30T17:33:10Z</time>
      </trkpt>
      <trkpt lat="44.43376" lon="5.5586">
        <ele>983.35</ele>
        <time>2024-01-30T17:33:26Z</time>
      </trkpt>
      <trkpt lat="44.43376" lon="5.55847">
        <ele>983.61</ele>
        <time>2024-01-30T17:33:35Z</time>
      </trkpt>
      <trkpt lat="44.43372" lon="5.55785">
        <ele>991.5</ele>
        <time>2024-01-30T17:34:11Z</time>
      </trkpt>
      <trkpt lat="44.43367" lon="5.55775">
        <ele>994.39</ele>
        <time>2024-01-30T17:34:18Z</time>
      </trkpt>
      <trkpt lat="44.43358" lon="5.55775">
        <ele>998.23</ele>
        <time>2024-01-30T17:34:24Z</time>
      </trkpt>
      <trkpt lat="44.4335" lon="5.5579">
        <ele>998.58</ele>
        <time>2024-01-30T17:34:35Z</time>
      </trkpt>
      <trkpt lat="44.43321" lon="5.55908">
        <ele>1005.22</ele>
        <time>2024-01-30T17:35:45Z</time>
      </trkpt>
      <trkpt lat="44.43317" lon="5.55947">
        <ele>1009.15</ele>
        <time>2024-01-30T17:36:05Z</time>
      </trkpt>
      <trkpt lat="44.43318" lon="5.55979">
        <ele>1010.4</ele>
        <time>2024-01-30T17:36:21Z</time>
      </trkpt>
      <trkpt lat="44.43323" lon="5.56006">
        <ele>1010.15</ele>
        <time>2024-01-30T17:36:34Z</time>
      </trkpt>
      <trkpt lat="44.4332" lon="5.56035">
        <ele>1012.92</ele>
        <time>2024-01-30T17:36:48Z</time>
      </trkpt>
      <trkpt lat="44.43309" lon="5.56065">
        <ele>1017.37</ele>
        <time>2024-01-30T17:37:03Z</time>
      </trkpt>
      <trkpt lat="44.43311" lon="5.56115">
        <ele>1020.59</ele>
        <time>2024-01-30T17:37:26Z</time>
      </trkpt>
      <trkpt lat="44.43322" lon="5.56151">
        <ele>1018.79</ele>
        <time>2024-01-30T17:37:45Z</time>
      </trkpt>
      <trkpt lat="44.43316" lon="5.56193">
        <ele>1023.05</ele>
        <time>2024-01-30T17:38:05Z</time>
      </trkpt>
      <trkpt lat="44.43322" lon="5.56215">
        <ele>1022.13</ele>
        <time>2024-01-30T17:38:16Z</time>
      </trkpt>
      <trkpt lat="44.4332" lon="5.56249">
        <ele>1023.91</ele>
        <time>2024-01-30T17:38:33Z</time>
      </trkpt>
      <trkpt lat="44.43313" lon="5.56267">
        <ele>1027.46</ele>
        <time>2024-01-30T17:38:42Z</time>
      </trkpt>
      <trkpt lat="44.43303" lon="5.56281">
        <ele>1030.03</ele>
        <time>2024-01-30T17:38:52Z</time>
      </trkpt>
      <trkpt lat="44.43293" lon="5.56287">
        <ele>1032.69</ele>
        <time>2024-01-30T17:38:59Z</time>
      </trkpt>
      <trkpt lat="44.43293" lon="5.56315">
        <ele>1031.18</ele>
        <time>2024-01-30T17:39:13Z</time>
      </trkpt>
      <trkpt lat="44.43297" lon="5.56329">
        <ele>1030.05</ele>
        <time>2024-01-30T17:39:20Z</time>
      </trkpt>
      <trkpt lat="44.43292" lon="5.56358">
        <ele>1034.94</ele>
        <time>2024-01-30T17:39:36Z</time>
      </trkpt>
      <trkpt lat="44.43293" lon="5.56375">
        <ele>1035.66</ele>
        <time>2024-01-30T17:39:44Z</time>
      </trkpt>
      <trkpt lat="44.43314" lon="5.56406">
        <ele>1034</ele>
        <time>2024-01-30T17:40:07Z</time>
      </trkpt>
      <trkpt lat="44.43327" lon="5.56435">
        <ele>1036.52</ele>
        <time>2024-01-30T17:40:24Z</time>
      </trkpt>
      <trkpt lat="44.43332" lon="5.56461">
        <ele>1040.98</ele>
        <time>2024-01-30T17:40:36Z</time>
      </trkpt>
      <trkpt lat="44.43351" lon="5.56497">
        <ele>1042.99</ele>
        <time>2024-01-30T17:40:57Z</time>
      </trkpt>
      <trkpt lat="44.43367" lon="5.56578">
        <ele>1047.85</ele>
        <time>2024-01-30T17:41:32Z</time>
      </trkpt>
      <trkpt lat="44.43367" lon="5.56593">
        <ele>1049.67</ele>
        <time>2024-01-30T17:41:38Z</time>
      </trkpt>
      <trkpt lat="44.43375" lon="5.56624">
        <ele>1051.06</ele>
        <time>2024-01-30T17:41:52Z</time>
      </trkpt>
      <trkpt lat="44.4338" lon="5.56645">
        <ele>1052.98</ele>
        <time>2024-01-30T17:42:01Z</time>
      </trkpt>
      <trkpt lat="44.43379" lon="5.56681">
        <ele>1057.91</ele>
        <time>2024-01-30T17:42:18Z</time>
      </trkpt>
      <trkpt lat="44.43363" lon="5.5679">
        <ele>1072.19</ele>
        <time>2024-01-30T17:43:13Z</time>
      </trkpt>
      <trkpt lat="44.43351" lon="5.56826">
        <ele>1077.04</ele>
        <time>2024-01-30T17:43:33Z</time>
      </trkpt>
      <trkpt lat="44.43347" lon="5.56826">
        <ele>1079.26</ele>
        <time>2024-01-30T17:43:37Z</time>
      </trkpt>
      <trkpt lat="44.43346" lon="5.56836">
        <ele>1078.12</ele>
        <time>2024-01-30T17:43:42Z</time>
      </trkpt>
      <trkpt lat="44.43319" lon="5.56928">
        <ele>1084.35</ele>
        <time>2024-01-30T17:44:35Z</time>
      </trkpt>
      <trkpt lat="44.43307" lon="5.56993">
        <ele>1093.08</ele>
        <time>2024-01-30T17:45:10Z</time>
      </trkpt>
      <trkpt lat="44.4331" lon="5.57039">
        <ele>1095.31</ele>
        <time>2024-01-30T17:45:32Z</time>
      </trkpt>
      <trkpt lat="44.43306" lon="5.57058">
        <ele>1100.43</ele>
        <time>2024-01-30T17:45:40Z</time>
      </trkpt>
      <trkpt lat="44.433" lon="5.57054">
        <ele>1105.11</ele>
        <time>2024-01-30T17:45:44Z</time>
      </trkpt>
      <trkpt lat="44.43298" lon="5.57034">
        <ele>1101.78</ele>
        <time>2024-01-30T17:45:52Z</time>
      </trkpt>
      <trkpt lat="44.43288" lon="5.57001">
        <ele>1103.05</ele>
        <time>2024-01-30T17:46:07Z</time>
      </trkpt>
      <trkpt lat="44.43282" lon="5.56981">
        <ele>1105.47</ele>
        <time>2024-01-30T17:46:15Z</time>
      </trkpt>
      <trkpt lat="44.43275" lon="5.56969">
        <ele>1107.41</ele>
        <time>2024-01-30T17:46:20Z</time>
      </trkpt>
      <trkpt lat="44.43272" lon="5.56973">
        <ele>1109.9</ele>
        <time>2024-01-30T17:46:22Z</time>
      </trkpt>
      <trkpt lat="44.43271" lon="5.56987">
        <ele>1110.38</ele>
        <time>2024-01-30T17:46:27Z</time>
      </trkpt>
      <trkpt lat="44.43272" lon="5.5705">
        <ele>1117.06</ele>
        <time>2024-01-30T17:46:43Z</time>
      </trkpt>
      <trkpt lat="44.43255" lon="5.57015">
        <ele>1119.76</ele>
        <time>2024-01-30T17:46:51Z</time>
      </trkpt>
      <trkpt lat="44.43251" lon="5.56994">
        <ele>1120.82</ele>
        <time>2024-01-30T17:46:55Z</time>
      </trkpt>
      <trkpt lat="44.43248" lon="5.5696">
        <ele>1124.54</ele>
        <time>2024-01-30T17:47:00Z</time>
      </trkpt>
      <trkpt lat="44.43241" lon="5.56975">
        <ele>1125.41</ele>
        <time>2024-01-30T17:47:03Z</time>
      </trkpt>
      <trkpt lat="44.43239" lon="5.57006">
        <ele>1125.2</ele>
        <time>2024-01-30T17:47:08Z</time>
      </trkpt>
      <trkpt lat="44.43234" lon="5.57023">
        <ele>1126.29</ele>
        <time>2024-01-30T17:47:11Z</time>
      </trkpt>
      <trkpt lat="44.43228" lon="5.57023">
        <ele>1126.97</ele>
        <time>2024-01-30T17:47:11Z</time>
      </trkpt>
      <trkpt lat="44.43189" lon="5.57048">
        <ele>1128.07</ele>
        <time>2024-01-30T17:47:16Z</time>
      </trkpt>
      <trkpt lat="44.43182" lon="5.57058">
        <ele>1126.36</ele>
        <time>2024-01-30T17:47:17Z</time>
      </trkpt>
      <trkpt lat="44.43168" lon="5.57046">
        <ele>1123.89</ele>
        <time>2024-01-30T17:47:21Z</time>
      </trkpt>
      <trkpt lat="44.43148" lon="5.57036">
        <ele>1121.08</ele>
        <time>2024-01-30T17:47:25Z</time>
      </trkpt>
      <trkpt lat="44.43083" lon="5.57026">
        <ele>1112.01</ele>
        <time>2024-01-30T17:47:38Z</time>
      </trkpt>
      <trkpt lat="44.43074" lon="5.57022">
        <ele>1111.24</ele>
        <time>2024-01-30T17:47:39Z</time>
      </trkpt>
      <trkpt lat="44.43018" lon="5.5698">
        <ele>1106.86</ele>
        <time>2024-01-30T17:47:52Z</time>
      </trkpt>
      <trkpt lat="44.42986" lon="5.56974">
        <ele>1101.37</ele>
        <time>2024-01-30T17:47:58Z</time>
      </trkpt>
      <trkpt lat="44.429" lon="5.56902">
        <ele>1095.06</ele>
        <time>2024-01-30T17:48:18Z</time>
      </trkpt>
      <trkpt lat="44.42835" lon="5.56868">
        <ele>1082.63</ele>
        <time>2024-01-30T17:48:31Z</time>
      </trkpt>
      <trkpt lat="44.42797" lon="5.56877">
        <ele>1072.43</ele>
        <time>2024-01-30T17:48:38Z</time>
      </trkpt>
      <trkpt lat="44.42779" lon="5.56876">
        <ele>1070.96</ele>
        <time>2024-01-30T17:48:42Z</time>
      </trkpt>
      <trkpt lat="44.42744" lon="5.56833">
        <ele>1068.77</ele>
        <time>2024-01-30T17:48:51Z</time>
      </trkpt>
      <trkpt lat="44.4269" lon="5.56714">
        <ele>1051.22</ele>
        <time>2024-01-30T17:49:11Z</time>
      </trkpt>
      <trkpt lat="44.42657" lon="5.56666">
        <ele>1039.57</ele>
        <time>2024-01-30T17:49:20Z</time>
      </trkpt>
      <trkpt lat="44.42633" lon="5.56582">
        <ele>1024.33</ele>
        <time>2024-01-30T17:49:33Z</time>
      </trkpt>
      <trkpt lat="44.42634" lon="5.56562">
        <ele>1023.67</ele>
        <time>2024-01-30T17:49:36Z</time>
      </trkpt>
      <trkpt lat="44.42622" lon="5.56559">
        <ele>1019.81</ele>
        <time>2024-01-30T17:49:38Z</time>
      </trkpt>
      <trkpt lat="44.42603" lon="5.56565">
        <ele>1013.63</ele>
        <time>2024-01-30T17:49:42Z</time>
      </trkpt>
      <trkpt lat="44.42564" lon="5.5652">
        <ele>1007.64</ele>
        <time>2024-01-30T17:49:51Z</time>
      </trkpt>
      <trkpt lat="44.42522" lon="5.56561">
        <ele>996.1</ele>
        <time>2024-01-30T17:50:01Z</time>
      </trkpt>
      <trkpt lat="44.42487" lon="5.56522">
        <ele>988.63</ele>
        <time>2024-01-30T17:50:10Z</time>
      </trkpt>
      <trkpt lat="44.42455" lon="5.56498">
        <ele>981.66</ele>
        <time>2024-01-30T17:50:17Z</time>
      </trkpt>
      <trkpt lat="44.42467" lon="5.56416">
        <ele>970.38</ele>
        <time>2024-01-30T17:50:29Z</time>
      </trkpt>
      <trkpt lat="44.42458" lon="5.56363">
        <ele>968.11</ele>
        <time>2024-01-30T17:50:36Z</time>
      </trkpt>
      <trkpt lat="44.42445" lon="5.56342">
        <ele>966.35</ele>
        <time>2024-01-30T17:50:40Z</time>
      </trkpt>
      <trkpt lat="44.42352" lon="5.5627">
        <ele>949.43</ele>
        <time>2024-01-30T17:51:03Z</time>
      </trkpt>
      <trkpt lat="44.42355" lon="5.56298">
        <ele>949.93</ele>
        <time>2024-01-30T17:51:07Z</time>
      </trkpt>
      <trkpt lat="44.42339" lon="5.56486">
        <ele>953.33</ele>
        <time>2024-01-30T17:51:38Z</time>
      </trkpt>
      <trkpt lat="44.42304" lon="5.56537">
        <ele>948.76</ele>
        <time>2024-01-30T17:51:49Z</time>
      </trkpt>
      <trkpt lat="44.42286" lon="5.56547">
        <ele>945.01</ele>
        <time>2024-01-30T17:51:53Z</time>
      </trkpt>
      <trkpt lat="44.42226" lon="5.56561">
        <ele>936.5</ele>
        <time>2024-01-30T17:52:06Z</time>
      </trkpt>
      <trkpt lat="44.42151" lon="5.56563">
        <ele>927.77</ele>
        <time>2024-01-30T17:52:21Z</time>
      </trkpt>
      <trkpt lat="44.4213" lon="5.56566">
        <ele>924.83</ele>
        <time>2024-01-30T17:52:25Z</time>
      </trkpt>
      <trkpt lat="44.42111" lon="5.56572">
        <ele>922.17</ele>
        <time>2024-01-30T17:52:29Z</time>
      </trkpt>
      <trkpt lat="44.4209" lon="5.56587">
        <ele>920.26</ele>
        <time>2024-01-30T17:52:34Z</time>
      </trkpt>
      <trkpt lat="44.4205" lon="5.56624">
        <ele>917.59</ele>
        <time>2024-01-30T17:52:40Z</time>
      </trkpt>
      <trkpt lat="44.42019" lon="5.56686">
        <ele>913.02</ele>
        <time>2024-01-30T17:52:46Z</time>
      </trkpt>
      <trkpt lat="44.42007" lon="5.56705">
        <ele>910.94</ele>
        <time>2024-01-30T17:52:49Z</time>
      </trkpt>
      <trkpt lat="44.41991" lon="5.56721">
        <ele>908.94</ele>
        <time>2024-01-30T17:52:51Z</time>
      </trkpt>
      <trkpt lat="44.4198" lon="5.56728">
        <ele>907.88</ele>
        <time>2024-01-30T17:52:52Z</time>
      </trkpt>
      <trkpt lat="44.41963" lon="5.56732">
        <ele>907.97</ele>
        <time>2024-01-30T17:52:54Z</time>
      </trkpt>
      <trkpt lat="44.41942" lon="5.56732">
        <ele>908.47</ele>
        <time>2024-01-30T17:52:57Z</time>
      </trkpt>
      <trkpt lat="44.41926" lon="5.56728">
        <ele>908.24</ele>
        <time>2024-01-30T17:52:59Z</time>
      </trkpt>
      <trkpt lat="44.41911" lon="5.5672">
        <ele>907.54</ele>
        <time>2024-01-30T17:53:01Z</time>
      </trkpt>
      <trkpt lat="44.41882" lon="5.56685">
        <ele>903.17</ele>
        <time>2024-01-30T17:53:06Z</time>
      </trkpt>
      <trkpt lat="44.41867" lon="5.56657">
        <ele>900.18</ele>
        <time>2024-01-30T17:53:09Z</time>
      </trkpt>
      <trkpt lat="44.41855" lon="5.56622">
        <ele>895.2</ele>
        <time>2024-01-30T17:53:12Z</time>
      </trkpt>
      <trkpt lat="44.4185" lon="5.56613">
        <ele>893.87</ele>
        <time>2024-01-30T17:53:13Z</time>
      </trkpt>
      <trkpt lat="44.41844" lon="5.56611">
        <ele>892.46</ele>
        <time>2024-01-30T17:53:14Z</time>
      </trkpt>
      <trkpt lat="44.41838" lon="5.56614">
        <ele>892.42</ele>
        <time>2024-01-30T17:53:15Z</time>
      </trkpt>
      <trkpt lat="44.41815" lon="5.5666">
        <ele>890.08</ele>
        <time>2024-01-30T17:53:20Z</time>
      </trkpt>
      <trkpt lat="44.41772" lon="5.56727">
        <ele>886.19</ele>
        <time>2024-01-30T17:53:27Z</time>
      </trkpt>
      <trkpt lat="44.41735" lon="5.56809">
        <ele>883.55</ele>
        <time>2024-01-30T17:53:35Z</time>
      </trkpt>
      <trkpt lat="44.4173" lon="5.56829">
        <ele>881.9</ele>
        <time>2024-01-30T17:53:37Z</time>
      </trkpt>
      <trkpt lat="44.41731" lon="5.56844">
        <ele>880.2</ele>
        <time>2024-01-30T17:53:38Z</time>
      </trkpt>
      <trkpt lat="44.41747" lon="5.56906">
        <ele>875.34</ele>
        <time>2024-01-30T17:53:44Z</time>
      </trkpt>
      <trkpt lat="44.41744" lon="5.56928">
        <ele>874.44</ele>
        <time>2024-01-30T17:53:46Z</time>
      </trkpt>
      <trkpt lat="44.41739" lon="5.56934">
        <ele>873.44</ele>
        <time>2024-01-30T17:53:47Z</time>
      </trkpt>
      <trkpt lat="44.41726" lon="5.56941">
        <ele>871.63</ele>
        <time>2024-01-30T17:53:48Z</time>
      </trkpt>
      <trkpt lat="44.417" lon="5.56942">
        <ele>869.07</ele>
        <time>2024-01-30T17:53:52Z</time>
      </trkpt>
      <trkpt lat="44.41695" lon="5.56945">
        <ele>867.68</ele>
        <time>2024-01-30T17:53:52Z</time>
      </trkpt>
      <trkpt lat="44.41691" lon="5.56951">
        <ele>866.8</ele>
        <time>2024-01-30T17:53:53Z</time>
      </trkpt>
      <trkpt lat="44.41687" lon="5.56989">
        <ele>862</ele>
        <time>2024-01-30T17:53:56Z</time>
      </trkpt>
      <trkpt lat="44.41683" lon="5.56994">
        <ele>860.49</ele>
        <time>2024-01-30T17:53:57Z</time>
      </trkpt>
      <trkpt lat="44.41675" lon="5.56995">
        <ele>859.41</ele>
        <time>2024-01-30T17:53:58Z</time>
      </trkpt>
      <trkpt lat="44.41669" lon="5.5699">
        <ele>858.64</ele>
        <time>2024-01-30T17:53:59Z</time>
      </trkpt>
      <trkpt lat="44.41644" lon="5.56936">
        <ele>857.46</ele>
        <time>2024-01-30T17:54:04Z</time>
      </trkpt>
      <trkpt lat="44.41629" lon="5.56932">
        <ele>852.63</ele>
        <time>2024-01-30T17:54:06Z</time>
      </trkpt>
      <trkpt lat="44.4162" lon="5.56942">
        <ele>850.77</ele>
        <time>2024-01-30T17:54:08Z</time>
      </trkpt>
      <trkpt lat="44.41607" lon="5.56969">
        <ele>848.65</ele>
        <time>2024-01-30T17:54:10Z</time>
      </trkpt>
      <trkpt lat="44.41602" lon="5.56974">
        <ele>848.03</ele>
        <time>2024-01-30T17:54:11Z</time>
      </trkpt>
      <trkpt lat="44.41544" lon="5.56999">
        <ele>844.08</ele>
        <time>2024-01-30T17:54:19Z</time>
      </trkpt>
      <trkpt lat="44.41522" lon="5.57004">
        <ele>842.87</ele>
        <time>2024-01-30T17:54:21Z</time>
      </trkpt>
      <trkpt lat="44.41507" lon="5.57003">
        <ele>841.82</ele>
        <time>2024-01-30T17:54:23Z</time>
      </trkpt>
      <trkpt lat="44.41482" lon="5.56993">
        <ele>837.79</ele>
        <time>2024-01-30T17:54:26Z</time>
      </trkpt>
      <trkpt lat="44.41476" lon="5.56994">
        <ele>837.31</ele>
        <time>2024-01-30T17:54:27Z</time>
      </trkpt>
      <trkpt lat="44.41437" lon="5.5701">
        <ele>832.98</ele>
        <time>2024-01-30T17:54:33Z</time>
      </trkpt>
      <trkpt lat="44.41424" lon="5.57008">
        <ele>831.45</ele>
        <time>2024-01-30T17:54:34Z</time>
      </trkpt>
      <trkpt lat="44.41417" lon="5.57003">
        <ele>831.02</ele>
        <time>2024-01-30T17:54:36Z</time>
      </trkpt>
      <trkpt lat="44.41411" lon="5.56992">
        <ele>829.7</ele>
        <time>2024-01-30T17:54:37Z</time>
      </trkpt>
      <trkpt lat="44.41399" lon="5.56951">
        <ele>826.31</ele>
        <time>2024-01-30T17:54:42Z</time>
      </trkpt>
      <trkpt lat="44.41392" lon="5.56945">
        <ele>825.97</ele>
        <time>2024-01-30T17:54:43Z</time>
      </trkpt>
      <trkpt lat="44.41389" lon="5.56946">
        <ele>825.74</ele>
        <time>2024-01-30T17:54:43Z</time>
      </trkpt>
      <trkpt lat="44.41396" lon="5.57028">
        <ele>826.1</ele>
        <time>2024-01-30T17:54:55Z</time>
      </trkpt>
      <trkpt lat="44.41341" lon="5.57002">
        <ele>821.29</ele>
        <time>2024-01-30T17:55:13Z</time>
      </trkpt>
      <trkpt lat="44.41319" lon="5.57001">
        <ele>819.96</ele>
        <time>2024-01-30T17:55:21Z</time>
      </trkpt>
      <trkpt lat="44.41299" lon="5.57012">
        <ele>818.37</ele>
        <time>2024-01-30T17:55:29Z</time>
      </trkpt>
      <trkpt lat="44.41293" lon="5.57017">
        <ele>818.14</ele>
        <time>2024-01-30T17:55:32Z</time>
      </trkpt>
      <trkpt lat="44.41276" lon="5.57038">
        <ele>819.46</ele>
        <time>2024-01-30T17:55:41Z</time>
      </trkpt>
      <trkpt lat="44.41266" lon="5.57127">
        <ele>826.56</ele>
        <time>2024-01-30T17:56:10Z</time>
      </trkpt>
      <trkpt lat="44.4126" lon="5.57133">
        <ele>827.7</ele>
        <time>2024-01-30T17:56:14Z</time>
      </trkpt>
      <trkpt lat="44.41255" lon="5.57131">
        <ele>829.13</ele>
        <time>2024-01-30T17:56:16Z</time>
      </trkpt>
      <trkpt lat="44.41253" lon="5.57122">
        <ele>830.67</ele>
        <time>2024-01-30T17:56:20Z</time>
      </trkpt>
      <trkpt lat="44.41254" lon="5.57081">
        <ele>828.06</ele>
        <time>2024-01-30T17:56:35Z</time>
      </trkpt>
      <trkpt lat="44.41249" lon="5.57052">
        <ele>826.99</ele>
        <time>2024-01-30T17:56:45Z</time>
      </trkpt>
      <trkpt lat="44.41238" lon="5.57036">
        <ele>828.52</ele>
        <time>2024-01-30T17:56:53Z</time>
      </trkpt>
      <trkpt lat="44.41219" lon="5.57028">
        <ele>832.37</ele>
        <time>2024-01-30T17:57:04Z</time>
      </trkpt>
      <trkpt lat="44.4119" lon="5.57033">
        <ele>838.4</ele>
        <time>2024-01-30T17:57:19Z</time>
      </trkpt>
      <trkpt lat="44.4117" lon="5.57032">
        <ele>841.59</ele>
        <time>2024-01-30T17:57:29Z</time>
      </trkpt>
      <trkpt lat="44.41132" lon="5.56989">
        <ele>843.02</ele>
        <time>2024-01-30T17:57:55Z</time>
      </trkpt>
      <trkpt lat="44.41117" lon="5.56991">
        <ele>844.5</ele>
        <time>2024-01-30T17:58:03Z</time>
      </trkpt>
      <trkpt lat="44.41111" lon="5.57005">
        <ele>846.12</ele>
        <time>2024-01-30T17:58:10Z</time>
      </trkpt>
      <trkpt lat="44.41112" lon="5.57021">
        <ele>846.85</ele>
        <time>2024-01-30T17:58:17Z</time>
      </trkpt>
      <trkpt lat="44.41128" lon="5.5706">
        <ele>850.23</ele>
        <time>2024-01-30T17:58:35Z</time>
      </trkpt>
      <trkpt lat="44.41129" lon="5.57077">
        <ele>852.02</ele>
        <time>2024-01-30T17:58:42Z</time>
      </trkpt>
      <trkpt lat="44.41125" lon="5.57082">
        <ele>852.81</ele>
        <time>2024-01-30T17:58:45Z</time>
      </trkpt>
      <trkpt lat="44.41119" lon="5.57083">
        <ele>853.6</ele>
        <time>2024-01-30T17:58:49Z</time>
      </trkpt>
      <trkpt lat="44.41096" lon="5.57065">
        <ele>853.7</ele>
        <time>2024-01-30T17:59:03Z</time>
      </trkpt>
      <trkpt lat="44.41081" lon="5.57059">
        <ele>855.4</ele>
        <time>2024-01-30T17:59:11Z</time>
      </trkpt>
      <trkpt lat="44.41057" lon="5.57057">
        <ele>857.7</ele>
        <time>2024-01-30T17:59:24Z</time>
      </trkpt>
      <trkpt lat="44.41023" lon="5.5704">
        <ele>860.79</ele>
        <time>2024-01-30T17:59:41Z</time>
      </trkpt>
      <trkpt lat="44.40996" lon="5.57">
        <ele>861.78</ele>
        <time>2024-01-30T17:59:59Z</time>
      </trkpt>
      <trkpt lat="44.40972" lon="5.5693">
        <ele>861.91</ele>
        <time>2024-01-30T18:00:22Z</time>
      </trkpt>
      <trkpt lat="44.40944" lon="5.56892">
        <ele>866.52</ele>
        <time>2024-01-30T18:00:37Z</time>
      </trkpt>
      <trkpt lat="44.40919" lon="5.56777">
        <ele>870.04</ele>
        <time>2024-01-30T18:01:03Z</time>
      </trkpt>
      <trkpt lat="44.40898" lon="5.56758">
        <ele>872.02</ele>
        <time>2024-01-30T18:01:10Z</time>
      </trkpt>
      <trkpt lat="44.40851" lon="5.56735">
        <ele>874.8</ele>
        <time>2024-01-30T18:01:23Z</time>
      </trkpt>
      <trkpt lat="44.40729" lon="5.56694">
        <ele>877.2</ele>
        <time>2024-01-30T18:01:57Z</time>
      </trkpt>
      <trkpt lat="44.40687" lon="5.56685">
        <ele>878.36</ele>
        <time>2024-01-30T18:02:13Z</time>
      </trkpt>
      <trkpt lat="44.40634" lon="5.5672">
        <ele>880.92</ele>
        <time>2024-01-30T18:02:38Z</time>
      </trkpt>
      <trkpt lat="44.40609" lon="5.5673">
        <ele>880.95</ele>
        <time>2024-01-30T18:02:49Z</time>
      </trkpt>
      <trkpt lat="44.40524" lon="5.56692">
        <ele>881.69</ele>
        <time>2024-01-30T18:03:35Z</time>
      </trkpt>
      <trkpt lat="44.40513" lon="5.56692">
        <ele>882.24</ele>
        <time>2024-01-30T18:03:41Z</time>
      </trkpt>
      <trkpt lat="44.40488" lon="5.5671">
        <ele>883.98</ele>
        <time>2024-01-30T18:03:58Z</time>
      </trkpt>
      <trkpt lat="44.4045" lon="5.56745">
        <ele>889.11</ele>
        <time>2024-01-30T18:04:26Z</time>
      </trkpt>
      <trkpt lat="44.40441" lon="5.56731">
        <ele>890.97</ele>
        <time>2024-01-30T18:04:35Z</time>
      </trkpt>
      <trkpt lat="44.40432" lon="5.56697">
        <ele>894.38</ele>
        <time>2024-01-30T18:04:52Z</time>
      </trkpt>
      <trkpt lat="44.4042" lon="5.56669">
        <ele>899.22</ele>
        <time>2024-01-30T18:05:10Z</time>
      </trkpt>
      <trkpt lat="44.404" lon="5.56678">
        <ele>902.53</ele>
        <time>2024-01-30T18:05:26Z</time>
      </trkpt>
      <trkpt lat="44.40384" lon="5.56693">
        <ele>905.56</ele>
        <time>2024-01-30T18:05:42Z</time>
      </trkpt>
      <trkpt lat="44.40333" lon="5.56731">
        <ele>916.67</ele>
        <time>2024-01-30T18:06:32Z</time>
      </trkpt>
      <trkpt lat="44.40318" lon="5.56739">
        <ele>920.35</ele>
        <time>2024-01-30T18:06:47Z</time>
      </trkpt>
      <trkpt lat="44.40296" lon="5.56711">
        <ele>925.85</ele>
        <time>2024-01-30T18:07:14Z</time>
      </trkpt>
      <trkpt lat="44.40272" lon="5.56686">
        <ele>929.72</ele>
        <time>2024-01-30T18:07:42Z</time>
      </trkpt>
      <trkpt lat="44.40216" lon="5.56644">
        <ele>938.14</ele>
        <time>2024-01-30T18:08:41Z</time>
      </trkpt>
      <trkpt lat="44.40183" lon="5.56627">
        <ele>943.07</ele>
        <time>2024-01-30T18:09:14Z</time>
      </trkpt>
      <trkpt lat="44.40168" lon="5.56623">
        <ele>945.64</ele>
        <time>2024-01-30T18:09:28Z</time>
      </trkpt>
      <trkpt lat="44.40132" lon="5.5664">
        <ele>953.83</ele>
        <time>2024-01-30T18:10:02Z</time>
      </trkpt>
      <trkpt lat="44.401" lon="5.56641">
        <ele>958.91</ele>
        <time>2024-01-30T18:10:28Z</time>
      </trkpt>
      <trkpt lat="44.40077" lon="5.56635">
        <ele>962.66</ele>
        <time>2024-01-30T18:10:48Z</time>
      </trkpt>
      <trkpt lat="44.40043" lon="5.56645">
        <ele>965.17</ele>
        <time>2024-01-30T18:11:15Z</time>
      </trkpt>
      <trkpt lat="44.40042" lon="5.5674">
        <ele>970.49</ele>
        <time>2024-01-30T18:12:05Z</time>
      </trkpt>
      <trkpt lat="44.40032" lon="5.56794">
        <ele>974.27</ele>
        <time>2024-01-30T18:12:33Z</time>
      </trkpt>
      <trkpt lat="44.40018" lon="5.56834">
        <ele>977.14</ele>
        <time>2024-01-30T18:12:54Z</time>
      </trkpt>
      <trkpt lat="44.40008" lon="5.56877">
        <ele>980.11</ele>
        <time>2024-01-30T18:13:15Z</time>
      </trkpt>
      <trkpt lat="44.40003" lon="5.56919">
        <ele>982.6</ele>
        <time>2024-01-30T18:13:35Z</time>
      </trkpt>
      <trkpt lat="44.40005" lon="5.56962">
        <ele>983.66</ele>
        <time>2024-01-30T18:13:56Z</time>
      </trkpt>
      <trkpt lat="44.40001" lon="5.56986">
        <ele>984.86</ele>
        <time>2024-01-30T18:14:08Z</time>
      </trkpt>
      <trkpt lat="44.39993" lon="5.5702">
        <ele>986.23</ele>
        <time>2024-01-30T18:14:25Z</time>
      </trkpt>
      <trkpt lat="44.39977" lon="5.57054">
        <ele>988.52</ele>
        <time>2024-01-30T18:14:45Z</time>
      </trkpt>
      <trkpt lat="44.3996" lon="5.57059">
        <ele>991.71</ele>
        <time>2024-01-30T18:14:57Z</time>
      </trkpt>
      <trkpt lat="44.39945" lon="5.57084">
        <ele>993.45</ele>
        <time>2024-01-30T18:15:12Z</time>
      </trkpt>
      <trkpt lat="44.39922" lon="5.57113">
        <ele>997.08</ele>
        <time>2024-01-30T18:15:33Z</time>
      </trkpt>
      <trkpt lat="44.3991" lon="5.57111">
        <ele>998.83</ele>
        <time>2024-01-30T18:15:41Z</time>
      </trkpt>
      <trkpt lat="44.39859" lon="5.57089">
        <ele>1005.26</ele>
        <time>2024-01-30T18:16:16Z</time>
      </trkpt>
      <trkpt lat="44.39832" lon="5.5707">
        <ele>1008.68</ele>
        <time>2024-01-30T18:16:37Z</time>
      </trkpt>
      <trkpt lat="44.39769" lon="5.57012">
        <ele>1013.06</ele>
        <time>2024-01-30T18:17:23Z</time>
      </trkpt>
      <trkpt lat="44.39746" lon="5.57012">
        <ele>1016.04</ele>
        <time>2024-01-30T18:17:37Z</time>
      </trkpt>
      <trkpt lat="44.39728" lon="5.57031">
        <ele>1016.77</ele>
        <time>2024-01-30T18:17:50Z</time>
      </trkpt>
      <trkpt lat="44.39723" lon="5.57045">
        <ele>1017.26</ele>
        <time>2024-01-30T18:17:56Z</time>
      </trkpt>
      <trkpt lat="44.39732" lon="5.57105">
        <ele>1020.98</ele>
        <time>2024-01-30T18:18:21Z</time>
      </trkpt>
      <trkpt lat="44.39728" lon="5.57217">
        <ele>1026.54</ele>
        <time>2024-01-30T18:19:08Z</time>
      </trkpt>
      <trkpt lat="44.39722" lon="5.57256">
        <ele>1028.58</ele>
        <time>2024-01-30T18:19:25Z</time>
      </trkpt>
      <trkpt lat="44.39681" lon="5.57325">
        <ele>1034.75</ele>
        <time>2024-01-30T18:20:06Z</time>
      </trkpt>
      <trkpt lat="44.39667" lon="5.5739">
        <ele>1037.73</ele>
        <time>2024-01-30T18:20:39Z</time>
      </trkpt>
      <trkpt lat="44.39655" lon="5.57412">
        <ele>1039.33</ele>
        <time>2024-01-30T18:20:52Z</time>
      </trkpt>
      <trkpt lat="44.39641" lon="5.57418">
        <ele>1041.2</ele>
        <time>2024-01-30T18:21:03Z</time>
      </trkpt>
      <trkpt lat="44.39515" lon="5.57537">
        <ele>1063.67</ele>
        <time>2024-01-30T18:22:47Z</time>
      </trkpt>
      <trkpt lat="44.39473" lon="5.57553">
        <ele>1067.73</ele>
        <time>2024-01-30T18:23:15Z</time>
      </trkpt>
      <trkpt lat="44.3945" lon="5.57546">
        <ele>1069.74</ele>
        <time>2024-01-30T18:23:29Z</time>
      </trkpt>
      <trkpt lat="44.39412" lon="5.57556">
        <ele>1072.59</ele>
        <time>2024-01-30T18:23:52Z</time>
      </trkpt>
      <trkpt lat="44.3936" lon="5.57554">
        <ele>1075.12</ele>
        <time>2024-01-30T18:24:20Z</time>
      </trkpt>
      <trkpt lat="44.3933" lon="5.57558">
        <ele>1073</ele>
        <time>2024-01-30T18:24:36Z</time>
      </trkpt>
      <trkpt lat="44.39297" lon="5.57573">
        <ele>1071.9</ele>
        <time>2024-01-30T18:24:53Z</time>
      </trkpt>
      <trkpt lat="44.39274" lon="5.576">
        <ele>1072.22</ele>
        <time>2024-01-30T18:25:08Z</time>
      </trkpt>
      <trkpt lat="44.39251" lon="5.57611">
        <ele>1073.98</ele>
        <time>2024-01-30T18:25:20Z</time>
      </trkpt>
      <trkpt lat="44.39202" lon="5.57659">
        <ele>1075.86</ele>
        <time>2024-01-30T18:25:46Z</time>
      </trkpt>
      <trkpt lat="44.39173" lon="5.57683">
        <ele>1079.47</ele>
        <time>2024-01-30T18:26:00Z</time>
      </trkpt>
      <trkpt lat="44.39081" lon="5.57736">
        <ele>1084.72</ele>
        <time>2024-01-30T18:26:32Z</time>
      </trkpt>
      <trkpt lat="44.39065" lon="5.57765">
        <ele>1083.06</ele>
        <time>2024-01-30T18:26:39Z</time>
      </trkpt>
      <trkpt lat="44.39051" lon="5.57776">
        <ele>1082.76</ele>
        <time>2024-01-30T18:26:44Z</time>
      </trkpt>
      <trkpt lat="44.39016" lon="5.57783">
        <ele>1083.17</ele>
        <time>2024-01-30T18:26:52Z</time>
      </trkpt>
      <trkpt lat="44.3897" lon="5.57778">
        <ele>1083.09</ele>
        <time>2024-01-30T18:27:03Z</time>
      </trkpt>
      <trkpt lat="44.38934" lon="5.57753">
        <ele>1083.02</ele>
        <time>2024-01-30T18:27:12Z</time>
      </trkpt>
      <trkpt lat="44.38924" lon="5.57749">
        <ele>1082.88</ele>
        <time>2024-01-30T18:27:15Z</time>
      </trkpt>
      <trkpt lat="44.38885" lon="5.57752">
        <ele>1082</ele>
        <time>2024-01-30T18:27:23Z</time>
      </trkpt>
      <trkpt lat="44.38856" lon="5.57749">
        <ele>1081.79</ele>
        <time>2024-01-30T18:27:29Z</time>
      </trkpt>
      <trkpt lat="44.3883" lon="5.57752">
        <ele>1081.23</ele>
        <time>2024-01-30T18:27:34Z</time>
      </trkpt>
      <trkpt lat="44.38812" lon="5.57743">
        <ele>1081.05</ele>
        <time>2024-01-30T18:27:38Z</time>
      </trkpt>
      <trkpt lat="44.3877" lon="5.57731">
        <ele>1078.37</ele>
        <time>2024-01-30T18:27:47Z</time>
      </trkpt>
      <trkpt lat="44.38732" lon="5.57734">
        <ele>1074.64</ele>
        <time>2024-01-30T18:27:55Z</time>
      </trkpt>
      <trkpt lat="44.38701" lon="5.57744">
        <ele>1070.87</ele>
        <time>2024-01-30T18:28:01Z</time>
      </trkpt>
      <trkpt lat="44.38674" lon="5.57749">
        <ele>1066.38</ele>
        <time>2024-01-30T18:28:07Z</time>
      </trkpt>
      <trkpt lat="44.38651" lon="5.57749">
        <ele>1063.18</ele>
        <time>2024-01-30T18:28:12Z</time>
      </trkpt>
      <trkpt lat="44.38605" lon="5.57719">
        <ele>1062.47</ele>
        <time>2024-01-30T18:28:22Z</time>
      </trkpt>
      <trkpt lat="44.38567" lon="5.57709">
        <ele>1060.64</ele>
        <time>2024-01-30T18:28:30Z</time>
      </trkpt>
      <trkpt lat="44.38543" lon="5.57713">
        <ele>1058.95</ele>
        <time>2024-01-30T18:28:35Z</time>
      </trkpt>
      <trkpt lat="44.38482" lon="5.57715">
        <ele>1052.51</ele>
        <time>2024-01-30T18:28:48Z</time>
      </trkpt>
      <trkpt lat="44.38451" lon="5.5769">
        <ele>1048.25</ele>
        <time>2024-01-30T18:28:56Z</time>
      </trkpt>
      <trkpt lat="44.38411" lon="5.57688">
        <ele>1042.78</ele>
        <time>2024-01-30T18:29:05Z</time>
      </trkpt>
      <trkpt lat="44.38347" lon="5.57695">
        <ele>1034.98</ele>
        <time>2024-01-30T18:29:19Z</time>
      </trkpt>
      <trkpt lat="44.3832" lon="5.57691">
        <ele>1032.63</ele>
        <time>2024-01-30T18:29:24Z</time>
      </trkpt>
      <trkpt lat="44.38239" lon="5.57735">
        <ele>1020.72</ele>
        <time>2024-01-30T18:29:44Z</time>
      </trkpt>
      <trkpt lat="44.38204" lon="5.57742">
        <ele>1019.06</ele>
        <time>2024-01-30T18:29:52Z</time>
      </trkpt>
      <trkpt lat="44.38175" lon="5.57743">
        <ele>1017.59</ele>
        <time>2024-01-30T18:29:58Z</time>
      </trkpt>
      <trkpt lat="44.38133" lon="5.57781">
        <ele>1016.29</ele>
        <time>2024-01-30T18:30:09Z</time>
      </trkpt>
      <trkpt lat="44.38074" lon="5.57814">
        <ele>1012.17</ele>
        <time>2024-01-30T18:30:23Z</time>
      </trkpt>
      <trkpt lat="44.38054" lon="5.57839">
        <ele>1010.64</ele>
        <time>2024-01-30T18:30:29Z</time>
      </trkpt>
      <trkpt lat="44.38025" lon="5.57859">
        <ele>1007.04</ele>
        <time>2024-01-30T18:30:35Z</time>
      </trkpt>
      <trkpt lat="44.37993" lon="5.57865">
        <ele>1002.17</ele>
        <time>2024-01-30T18:30:42Z</time>
      </trkpt>
      <trkpt lat="44.37916" lon="5.57888">
        <ele>995.01</ele>
        <time>2024-01-30T18:30:58Z</time>
      </trkpt>
      <trkpt lat="44.37878" lon="5.57924">
        <ele>990.34</ele>
        <time>2024-01-30T18:31:07Z</time>
      </trkpt>
      <trkpt lat="44.37781" lon="5.57974">
        <ele>977.27</ele>
        <time>2024-01-30T18:31:28Z</time>
      </trkpt>
      <trkpt lat="44.37749" lon="5.58">
        <ele>975.29</ele>
        <time>2024-01-30T18:31:36Z</time>
      </trkpt>
      <trkpt lat="44.37673" lon="5.58051">
        <ele>971.94</ele>
        <time>2024-01-30T18:31:53Z</time>
      </trkpt>
      <trkpt lat="44.37645" lon="5.58054">
        <ele>969.4</ele>
        <time>2024-01-30T18:31:58Z</time>
      </trkpt>
      <trkpt lat="44.37608" lon="5.58073">
        <ele>964.14</ele>
        <time>2024-01-30T18:32:06Z</time>
      </trkpt>
      <trkpt lat="44.37566" lon="5.58117">
        <ele>956.42</ele>
        <time>2024-01-30T18:32:16Z</time>
      </trkpt>
      <trkpt lat="44.37552" lon="5.58124">
        <ele>954.35</ele>
        <time>2024-01-30T18:32:19Z</time>
      </trkpt>
      <trkpt lat="44.37537" lon="5.58137">
        <ele>951.1</ele>
        <time>2024-01-30T18:32:23Z</time>
      </trkpt>
      <trkpt lat="44.37479" lon="5.58154">
        <ele>939.43</ele>
        <time>2024-01-30T18:32:35Z</time>
      </trkpt>
      <trkpt lat="44.37465" lon="5.5815">
        <ele>938.33</ele>
        <time>2024-01-30T18:32:38Z</time>
      </trkpt>
      <trkpt lat="44.37445" lon="5.58155">
        <ele>935.24</ele>
        <time>2024-01-30T18:32:42Z</time>
      </trkpt>
      <trkpt lat="44.37413" lon="5.58158">
        <ele>931.4</ele>
        <time>2024-01-30T18:32:49Z</time>
      </trkpt>
      <trkpt lat="44.37399" lon="5.58148">
        <ele>930.8</ele>
        <time>2024-01-30T18:32:52Z</time>
      </trkpt>
      <trkpt lat="44.37388" lon="5.5812">
        <ele>931.49</ele>
        <time>2024-01-30T18:32:57Z</time>
      </trkpt>
      <trkpt lat="44.37383" lon="5.58085">
        <ele>930.83</ele>
        <time>2024-01-30T18:33:03Z</time>
      </trkpt>
      <trkpt lat="44.37352" lon="5.58032">
        <ele>922.85</ele>
        <time>2024-01-30T18:33:14Z</time>
      </trkpt>
      <trkpt lat="44.37336" lon="5.57975">
        <ele>914.08</ele>
        <time>2024-01-30T18:33:24Z</time>
      </trkpt>
      <trkpt lat="44.37345" lon="5.5796">
        <ele>912.26</ele>
        <time>2024-01-30T18:33:27Z</time>
      </trkpt>
      <trkpt lat="44.37382" lon="5.57945">
        <ele>911.61</ele>
        <time>2024-01-30T18:33:35Z</time>
      </trkpt>
      <trkpt lat="44.3739" lon="5.5793">
        <ele>911.26</ele>
        <time>2024-01-30T18:33:38Z</time>
      </trkpt>
      <trkpt lat="44.37391" lon="5.57904">
        <ele>910.84</ele>
        <time>2024-01-30T18:33:42Z</time>
      </trkpt>
      <trkpt lat="44.37379" lon="5.5786">
        <ele>906.29</ele>
        <time>2024-01-30T18:33:50Z</time>
      </trkpt>
      <trkpt lat="44.3737" lon="5.57813">
        <ele>900.92</ele>
        <time>2024-01-30T18:33:57Z</time>
      </trkpt>
      <trkpt lat="44.37372" lon="5.57758">
        <ele>894.68</ele>
        <time>2024-01-30T18:34:06Z</time>
      </trkpt>
      <trkpt lat="44.37329" lon="5.57822">
        <ele>892.78</ele>
        <time>2024-01-30T18:34:19Z</time>
      </trkpt>
      <trkpt lat="44.373" lon="5.57856">
        <ele>891.12</ele>
        <time>2024-01-30T18:34:28Z</time>
      </trkpt>
      <trkpt lat="44.37277" lon="5.57874">
        <ele>890.8</ele>
        <time>2024-01-30T18:34:34Z</time>
      </trkpt>
      <trkpt lat="44.37258" lon="5.57875">
        <ele>889.2</ele>
        <time>2024-01-30T18:34:39Z</time>
      </trkpt>
      <trkpt lat="44.37248" lon="5.57887">
        <ele>888.48</ele>
        <time>2024-01-30T18:34:42Z</time>
      </trkpt>
      <trkpt lat="44.37248" lon="5.57912">
        <ele>891.12</ele>
        <time>2024-01-30T18:34:46Z</time>
      </trkpt>
      <trkpt lat="44.37241" lon="5.57927">
        <ele>892.69</ele>
        <time>2024-01-30T18:34:49Z</time>
      </trkpt>
      <trkpt lat="44.37214" lon="5.5795">
        <ele>891.79</ele>
        <time>2024-01-30T18:34:56Z</time>
      </trkpt>
      <trkpt lat="44.37202" lon="5.57969">
        <ele>893.89</ele>
        <time>2024-01-30T18:35:00Z</time>
      </trkpt>
      <trkpt lat="44.37185" lon="5.57989">
        <ele>892.93</ele>
        <time>2024-01-30T18:35:05Z</time>
      </trkpt>
      <trkpt lat="44.37174" lon="5.57994">
        <ele>891.17</ele>
        <time>2024-01-30T18:35:07Z</time>
      </trkpt>
      <trkpt lat="44.37106" lon="5.57981">
        <ele>876.06</ele>
        <time>2024-01-30T18:35:22Z</time>
      </trkpt>
      <trkpt lat="44.37086" lon="5.58017">
        <ele>875.97</ele>
        <time>2024-01-30T18:35:29Z</time>
      </trkpt>
      <trkpt lat="44.37072" lon="5.58021">
        <ele>874.62</ele>
        <time>2024-01-30T18:35:32Z</time>
      </trkpt>
      <trkpt lat="44.37038" lon="5.57975">
        <ele>863.57</ele>
        <time>2024-01-30T18:35:42Z</time>
      </trkpt>
      <trkpt lat="44.37043" lon="5.57933">
        <ele>859.56</ele>
        <time>2024-01-30T18:35:49Z</time>
      </trkpt>
      <trkpt lat="44.3704" lon="5.57923">
        <ele>858.49</ele>
        <time>2024-01-30T18:35:50Z</time>
      </trkpt>
      <trkpt lat="44.37026" lon="5.57924">
        <ele>855.5</ele>
        <time>2024-01-30T18:35:54Z</time>
      </trkpt>
      <trkpt lat="44.36982" lon="5.57976">
        <ele>851.68</ele>
        <time>2024-01-30T18:36:06Z</time>
      </trkpt>
      <trkpt lat="44.36951" lon="5.57996">
        <ele>848.9</ele>
        <time>2024-01-30T18:36:14Z</time>
      </trkpt>
      <trkpt lat="44.36914" lon="5.58059">
        <ele>845.71</ele>
        <time>2024-01-30T18:36:28Z</time>
      </trkpt>
      <trkpt lat="44.36904" lon="5.58087">
        <ele>845.29</ele>
        <time>2024-01-30T18:36:33Z</time>
      </trkpt>
      <trkpt lat="44.36838" lon="5.58161">
        <ele>842.65</ele>
        <time>2024-01-30T18:36:52Z</time>
      </trkpt>
      <trkpt lat="44.36788" lon="5.58208">
        <ele>840.3</ele>
        <time>2024-01-30T18:37:06Z</time>
      </trkpt>
      <trkpt lat="44.36719" lon="5.58226">
        <ele>834.86</ele>
        <time>2024-01-30T18:37:21Z</time>
      </trkpt>
      <trkpt lat="44.3671" lon="5.5824">
        <ele>837.33</ele>
        <time>2024-01-30T18:37:23Z</time>
      </trkpt>
      <trkpt lat="44.36695" lon="5.58243">
        <ele>836.05</ele>
        <time>2024-01-30T18:37:25Z</time>
      </trkpt>
      <trkpt lat="44.36582" lon="5.5824">
        <ele>831.9</ele>
        <time>2024-01-30T18:37:39Z</time>
      </trkpt>
      <trkpt lat="44.36483" lon="5.58258">
        <ele>826.1</ele>
        <time>2024-01-30T18:37:52Z</time>
      </trkpt>
      <trkpt lat="44.36466" lon="5.58269">
        <ele>825.97</ele>
        <time>2024-01-30T18:37:54Z</time>
      </trkpt>
      <trkpt lat="44.36447" lon="5.58286">
        <ele>825.28</ele>
        <time>2024-01-30T18:37:57Z</time>
      </trkpt>
      <trkpt lat="44.364" lon="5.58342">
        <ele>824.13</ele>
        <time>2024-01-30T18:38:06Z</time>
      </trkpt>
      <trkpt lat="44.36376" lon="5.58386">
        <ele>822.2</ele>
        <time>2024-01-30T18:38:11Z</time>
      </trkpt>
      <trkpt lat="44.36354" lon="5.58446">
        <ele>819.32</ele>
        <time>2024-01-30T18:38:19Z</time>
      </trkpt>
      <trkpt lat="44.36357" lon="5.58457">
        <ele>820.24</ele>
        <time>2024-01-30T18:38:20Z</time>
      </trkpt>
      <trkpt lat="44.36358" lon="5.58471">
        <ele>820.22</ele>
        <time>2024-01-30T18:38:21Z</time>
      </trkpt>
      <trkpt lat="44.3635" lon="5.58559">
        <ele>814.33</ele>
        <time>2024-01-30T18:38:31Z</time>
      </trkpt>
      <trkpt lat="44.36346" lon="5.58595">
        <ele>815.54</ele>
        <time>2024-01-30T18:38:35Z</time>
      </trkpt>
      <trkpt lat="44.36344" lon="5.58605">
        <ele>815.96</ele>
        <time>2024-01-30T18:38:36Z</time>
      </trkpt>
      <trkpt lat="44.36341" lon="5.58633">
        <ele>815.94</ele>
        <time>2024-01-30T18:38:40Z</time>
      </trkpt>
      <trkpt lat="44.36343" lon="5.5867">
        <ele>815.21</ele>
        <time>2024-01-30T18:38:44Z</time>
      </trkpt>
      <trkpt lat="44.36355" lon="5.58727">
        <ele>815.7</ele>
        <time>2024-01-30T18:38:51Z</time>
      </trkpt>
      <trkpt lat="44.36359" lon="5.58768">
        <ele>816.6</ele>
        <time>2024-01-30T18:38:56Z</time>
      </trkpt>
      <trkpt lat="44.36359" lon="5.58789">
        <ele>817.3</ele>
        <time>2024-01-30T18:38:58Z</time>
      </trkpt>
      <trkpt lat="44.36354" lon="5.58831">
        <ele>818.13</ele>
        <time>2024-01-30T18:39:04Z</time>
      </trkpt>
      <trkpt lat="44.36341" lon="5.5887">
        <ele>819.11</ele>
        <time>2024-01-30T18:39:09Z</time>
      </trkpt>
      <trkpt lat="44.36325" lon="5.58908">
        <ele>819.18</ele>
        <time>2024-01-30T18:39:15Z</time>
      </trkpt>
      <trkpt lat="44.36306" lon="5.58941">
        <ele>819.27</ele>
        <time>2024-01-30T18:39:21Z</time>
      </trkpt>
      <trkpt lat="44.3627" lon="5.58993">
        <ele>811.4</ele>
        <time>2024-01-30T18:39:31Z</time>
      </trkpt>
      <trkpt lat="44.36265" lon="5.59007">
        <ele>811.28</ele>
        <time>2024-01-30T18:39:33Z</time>
      </trkpt>
      <trkpt lat="44.3626" lon="5.59035">
        <ele>811.79</ele>
        <time>2024-01-30T18:39:37Z</time>
      </trkpt>
      <trkpt lat="44.36267" lon="5.59319">
        <ele>808.79</ele>
        <time>2024-01-30T18:40:07Z</time>
      </trkpt>
      <trkpt lat="44.36268" lon="5.5933">
        <ele>807.9</ele>
        <time>2024-01-30T18:40:08Z</time>
      </trkpt>
      <trkpt lat="44.36265" lon="5.59388">
        <ele>806.06</ele>
        <time>2024-01-30T18:40:14Z</time>
      </trkpt>
      <trkpt lat="44.36266" lon="5.59403">
        <ele>806.59</ele>
        <time>2024-01-30T18:40:15Z</time>
      </trkpt>
      <trkpt lat="44.36272" lon="5.59435">
        <ele>808.36</ele>
        <time>2024-01-30T18:40:19Z</time>
      </trkpt>
      <trkpt lat="44.363" lon="5.5951">
        <ele>809.22</ele>
        <time>2024-01-30T18:40:27Z</time>
      </trkpt>
      <trkpt lat="44.36313" lon="5.59559">
        <ele>808.94</ele>
        <time>2024-01-30T18:40:33Z</time>
      </trkpt>
      <trkpt lat="44.36323" lon="5.59617">
        <ele>808.2</ele>
        <time>2024-01-30T18:40:39Z</time>
      </trkpt>
      <trkpt lat="44.36324" lon="5.59638">
        <ele>807.1</ele>
        <time>2024-01-30T18:40:41Z</time>
      </trkpt>
      <trkpt lat="44.36321" lon="5.59682">
        <ele>806.95</ele>
        <time>2024-01-30T18:40:46Z</time>
      </trkpt>
      <trkpt lat="44.36316" lon="5.59704">
        <ele>806.86</ele>
        <time>2024-01-30T18:40:48Z</time>
      </trkpt>
      <trkpt lat="44.36299" lon="5.59745">
        <ele>805.54</ele>
        <time>2024-01-30T18:40:53Z</time>
      </trkpt>
      <trkpt lat="44.36186" lon="5.59933">
        <ele>801.57</ele>
        <time>2024-01-30T18:41:19Z</time>
      </trkpt>
      <trkpt lat="44.36157" lon="5.59992">
        <ele>799.13</ele>
        <time>2024-01-30T18:41:27Z</time>
      </trkpt>
      <trkpt lat="44.36154" lon="5.60014">
        <ele>800.08</ele>
        <time>2024-01-30T18:41:29Z</time>
      </trkpt>
      <trkpt lat="44.36093" lon="5.60101">
        <ele>802.22</ele>
        <time>2024-01-30T18:41:43Z</time>
      </trkpt>
      <trkpt lat="44.36054" lon="5.60166">
        <ele>803.98</ele>
        <time>2024-01-30T18:41:52Z</time>
      </trkpt>
      <trkpt lat="44.36041" lon="5.60207">
        <ele>804.95</ele>
        <time>2024-01-30T18:41:56Z</time>
      </trkpt>
      <trkpt lat="44.36031" lon="5.6023">
        <ele>804.97</ele>
        <time>2024-01-30T18:41:59Z</time>
      </trkpt>
      <trkpt lat="44.36025" lon="5.60242">
        <ele>803.71</ele>
        <time>2024-01-30T18:42:00Z</time>
      </trkpt>
      <trkpt lat="44.36018" lon="5.60263">
        <ele>803.72</ele>
        <time>2024-01-30T18:42:03Z</time>
      </trkpt>
      <trkpt lat="44.35999" lon="5.60346">
        <ele>797.95</ele>
        <time>2024-01-30T18:42:11Z</time>
      </trkpt>
      <trkpt lat="44.35992" lon="5.60379">
        <ele>794.95</ele>
        <time>2024-01-30T18:42:14Z</time>
      </trkpt>
      <trkpt lat="44.35989" lon="5.60434">
        <ele>792.26</ele>
        <time>2024-01-30T18:42:20Z</time>
      </trkpt>
      <trkpt lat="44.35999" lon="5.60478">
        <ele>790.2</ele>
        <time>2024-01-30T18:42:24Z</time>
      </trkpt>
      <trkpt lat="44.35995" lon="5.60521">
        <ele>786.4</ele>
        <time>2024-01-30T18:42:28Z</time>
      </trkpt>
      <trkpt lat="44.35994" lon="5.60525">
        <ele>786.22</ele>
        <time>2024-01-30T18:42:29Z</time>
      </trkpt>
      <trkpt lat="44.3599" lon="5.6054">
        <ele>785.73</ele>
        <time>2024-01-30T18:42:31Z</time>
      </trkpt>
      <trkpt lat="44.35986" lon="5.60557">
        <ele>785.67</ele>
        <time>2024-01-30T18:42:33Z</time>
      </trkpt>
      <trkpt lat="44.35984" lon="5.60565">
        <ele>785.89</ele>
        <time>2024-01-30T18:42:34Z</time>
      </trkpt>
      <trkpt lat="44.35983" lon="5.60568">
        <ele>785.61</ele>
        <time>2024-01-30T18:42:34Z</time>
      </trkpt>
      <trkpt lat="44.35958" lon="5.60651">
        <ele>788.79</ele>
        <time>2024-01-30T18:42:45Z</time>
      </trkpt>
      <trkpt lat="44.35939" lon="5.6069">
        <ele>787.54</ele>
        <time>2024-01-30T18:42:50Z</time>
      </trkpt>
      <trkpt lat="44.35909" lon="5.60731">
        <ele>784.3</ele>
        <time>2024-01-30T18:42:58Z</time>
      </trkpt>
      <trkpt lat="44.35898" lon="5.60751">
        <ele>783.65</ele>
        <time>2024-01-30T18:43:01Z</time>
      </trkpt>
      <trkpt lat="44.35893" lon="5.60764">
        <ele>782.62</ele>
        <time>2024-01-30T18:43:02Z</time>
      </trkpt>
      <trkpt lat="44.35886" lon="5.60794">
        <ele>783.27</ele>
        <time>2024-01-30T18:43:06Z</time>
      </trkpt>
      <trkpt lat="44.35884" lon="5.60812">
        <ele>783.26</ele>
        <time>2024-01-30T18:43:09Z</time>
      </trkpt>
      <trkpt lat="44.35885" lon="5.60884">
        <ele>787.3</ele>
        <time>2024-01-30T18:43:17Z</time>
      </trkpt>
      <trkpt lat="44.3588" lon="5.60969">
        <ele>789.65</ele>
        <time>2024-01-30T18:43:27Z</time>
      </trkpt>
      <trkpt lat="44.35891" lon="5.61084">
        <ele>789.01</ele>
        <time>2024-01-30T18:43:39Z</time>
      </trkpt>
      <trkpt lat="44.3592" lon="5.61217">
        <ele>788.44</ele>
        <time>2024-01-30T18:43:53Z</time>
      </trkpt>
      <trkpt lat="44.35921" lon="5.6124">
        <ele>788.53</ele>
        <time>2024-01-30T18:43:56Z</time>
      </trkpt>
      <trkpt lat="44.35912" lon="5.61282">
        <ele>786.19</ele>
        <time>2024-01-30T18:44:00Z</time>
      </trkpt>
      <trkpt lat="44.35914" lon="5.61307">
        <ele>784.29</ele>
        <time>2024-01-30T18:44:03Z</time>
      </trkpt>
      <trkpt lat="44.35929" lon="5.61333">
        <ele>782.76</ele>
        <time>2024-01-30T18:44:07Z</time>
      </trkpt>
      <trkpt lat="44.35961" lon="5.6137">
        <ele>782.85</ele>
        <time>2024-01-30T18:44:13Z</time>
      </trkpt>
      <trkpt lat="44.35979" lon="5.61397">
        <ele>782.94</ele>
        <time>2024-01-30T18:44:17Z</time>
      </trkpt>
      <trkpt lat="44.35987" lon="5.61415">
        <ele>782.3</ele>
        <time>2024-01-30T18:44:20Z</time>
      </trkpt>
      <trkpt lat="44.36001" lon="5.61473">
        <ele>782.07</ele>
        <time>2024-01-30T18:44:28Z</time>
      </trkpt>
      <trkpt lat="44.36004" lon="5.61513">
        <ele>780.81</ele>
        <time>2024-01-30T18:44:34Z</time>
      </trkpt>
      <trkpt lat="44.35997" lon="5.61554">
        <ele>780.17</ele>
        <time>2024-01-30T18:44:41Z</time>
      </trkpt>
      <trkpt lat="44.35993" lon="5.61617">
        <ele>780.58</ele>
        <time>2024-01-30T18:44:51Z</time>
      </trkpt>
      <trkpt lat="44.35991" lon="5.61638">
        <ele>780.46</ele>
        <time>2024-01-30T18:44:54Z</time>
      </trkpt>
      <trkpt lat="44.35976" lon="5.61717">
        <ele>781.67</ele>
        <time>2024-01-30T18:45:06Z</time>
      </trkpt>
      <trkpt lat="44.35971" lon="5.61755">
        <ele>780.29</ele>
        <time>2024-01-30T18:45:11Z</time>
      </trkpt>
      <trkpt lat="44.3597" lon="5.61774">
        <ele>777.87</ele>
        <time>2024-01-30T18:45:13Z</time>
      </trkpt>
      <trkpt lat="44.35972" lon="5.61815">
        <ele>776.94</ele>
        <time>2024-01-30T18:45:17Z</time>
      </trkpt>
      <trkpt lat="44.35975" lon="5.61836">
        <ele>775.62</ele>
        <time>2024-01-30T18:45:20Z</time>
      </trkpt>
      <trkpt lat="44.35999" lon="5.6194">
        <ele>776.87</ele>
        <time>2024-01-30T18:45:31Z</time>
      </trkpt>
      <trkpt lat="44.3601" lon="5.6198">
        <ele>776.21</ele>
        <time>2024-01-30T18:45:35Z</time>
      </trkpt>
      <trkpt lat="44.36026" lon="5.62021">
        <ele>774.88</ele>
        <time>2024-01-30T18:45:40Z</time>
      </trkpt>
      <trkpt lat="44.36063" lon="5.62096">
        <ele>772.94</ele>
        <time>2024-01-30T18:45:49Z</time>
      </trkpt>
      <trkpt lat="44.3608" lon="5.62138">
        <ele>772.56</ele>
        <time>2024-01-30T18:45:53Z</time>
      </trkpt>
      <trkpt lat="44.36086" lon="5.6216">
        <ele>771.15</ele>
        <time>2024-01-30T18:45:55Z</time>
      </trkpt>
      <trkpt lat="44.361" lon="5.62224">
        <ele>771.49</ele>
        <time>2024-01-30T18:46:01Z</time>
      </trkpt>
      <trkpt lat="44.36102" lon="5.62248">
        <ele>770.52</ele>
        <time>2024-01-30T18:46:04Z</time>
      </trkpt>
      <trkpt lat="44.36105" lon="5.62327">
        <ele>766.6</ele>
        <time>2024-01-30T18:46:11Z</time>
      </trkpt>
      <trkpt lat="44.36105" lon="5.62342">
        <ele>765.6</ele>
        <time>2024-01-30T18:46:13Z</time>
      </trkpt>
      <trkpt lat="44.361" lon="5.6237">
        <ele>765.22</ele>
        <time>2024-01-30T18:46:16Z</time>
      </trkpt>
      <trkpt lat="44.36081" lon="5.62422">
        <ele>765.47</ele>
        <time>2024-01-30T18:46:22Z</time>
      </trkpt>
      <trkpt lat="44.36075" lon="5.62444">
        <ele>764.79</ele>
        <time>2024-01-30T18:46:24Z</time>
      </trkpt>
      <trkpt lat="44.36072" lon="5.62462">
        <ele>763.38</ele>
        <time>2024-01-30T18:46:26Z</time>
      </trkpt>
      <trkpt lat="44.36071" lon="5.62504">
        <ele>762.06</ele>
        <time>2024-01-30T18:46:31Z</time>
      </trkpt>
      <trkpt lat="44.3608" lon="5.62653">
        <ele>763.55</ele>
        <time>2024-01-30T18:46:49Z</time>
      </trkpt>
      <trkpt lat="44.36086" lon="5.6271">
        <ele>762.6</ele>
        <time>2024-01-30T18:46:56Z</time>
      </trkpt>
      <trkpt lat="44.3609" lon="5.62728">
        <ele>762.31</ele>
        <time>2024-01-30T18:46:58Z</time>
      </trkpt>
      <trkpt lat="44.36101" lon="5.62754">
        <ele>763.4</ele>
        <time>2024-01-30T18:47:01Z</time>
      </trkpt>
      <trkpt lat="44.36145" lon="5.62856">
        <ele>763.15</ele>
        <time>2024-01-30T18:47:15Z</time>
      </trkpt>
      <trkpt lat="44.36162" lon="5.62908">
        <ele>761.84</ele>
        <time>2024-01-30T18:47:21Z</time>
      </trkpt>
      <trkpt lat="44.36208" lon="5.63123">
        <ele>757.68</ele>
        <time>2024-01-30T18:47:57Z</time>
      </trkpt>
      <trkpt lat="44.36218" lon="5.6319">
        <ele>758.94</ele>
        <time>2024-01-30T18:48:09Z</time>
      </trkpt>
      <trkpt lat="44.36232" lon="5.63239">
        <ele>756.21</ele>
        <time>2024-01-30T18:48:19Z</time>
      </trkpt>
      <trkpt lat="44.3629" lon="5.63337">
        <ele>756.51</ele>
        <time>2024-01-30T18:48:38Z</time>
      </trkpt>
      <trkpt lat="44.36322" lon="5.63426">
        <ele>755.06</ele>
        <time>2024-01-30T18:48:49Z</time>
      </trkpt>
      <trkpt lat="44.3633" lon="5.63463">
        <ele>755.75</ele>
        <time>2024-01-30T18:48:53Z</time>
      </trkpt>
      <trkpt lat="44.36333" lon="5.63483">
        <ele>756.37</ele>
        <time>2024-01-30T18:48:55Z</time>
      </trkpt>
      <trkpt lat="44.36337" lon="5.63595">
        <ele>754.72</ele>
        <time>2024-01-30T18:49:06Z</time>
      </trkpt>
      <trkpt lat="44.36344" lon="5.63654">
        <ele>754.54</ele>
        <time>2024-01-30T18:49:11Z</time>
      </trkpt>
      <trkpt lat="44.36343" lon="5.63696">
        <ele>756.2</ele>
        <time>2024-01-30T18:49:15Z</time>
      </trkpt>
      <trkpt lat="44.36316" lon="5.63837">
        <ele>749.41</ele>
        <time>2024-01-30T18:49:29Z</time>
      </trkpt>
      <trkpt lat="44.36319" lon="5.63933">
        <ele>746.39</ele>
        <time>2024-01-30T18:49:38Z</time>
      </trkpt>
      <trkpt lat="44.3632" lon="5.64138">
        <ele>745.98</ele>
        <time>2024-01-30T18:49:58Z</time>
      </trkpt>
      <trkpt lat="44.36316" lon="5.64201">
        <ele>747.02</ele>
        <time>2024-01-30T18:50:04Z</time>
      </trkpt>
      <trkpt lat="44.36308" lon="5.64277">
        <ele>747.38</ele>
        <time>2024-01-30T18:50:12Z</time>
      </trkpt>
      <trkpt lat="44.363" lon="5.64319">
        <ele>745.83</ele>
        <time>2024-01-30T18:50:16Z</time>
      </trkpt>
      <trkpt lat="44.36274" lon="5.6441">
        <ele>746.29</ele>
        <time>2024-01-30T18:50:26Z</time>
      </trkpt>
      <trkpt lat="44.36264" lon="5.64457">
        <ele>747.45</ele>
        <time>2024-01-30T18:50:31Z</time>
      </trkpt>
      <trkpt lat="44.36199" lon="5.64892">
        <ele>742.74</ele>
        <time>2024-01-30T18:51:24Z</time>
      </trkpt>
      <trkpt lat="44.36199" lon="5.64898">
        <ele>742.52</ele>
        <time>2024-01-30T18:51:25Z</time>
      </trkpt>
      <trkpt lat="44.36198" lon="5.64904">
        <ele>742.35</ele>
        <time>2024-01-30T18:51:26Z</time>
      </trkpt>
      <trkpt lat="44.36197" lon="5.64914">
        <ele>742.39</ele>
        <time>2024-01-30T18:51:28Z</time>
      </trkpt>
      <trkpt lat="44.36195" lon="5.64922">
        <ele>742.85</ele>
        <time>2024-01-30T18:51:29Z</time>
      </trkpt>
      <trkpt lat="44.36185" lon="5.64987">
        <ele>745.76</ele>
        <time>2024-01-30T18:51:39Z</time>
      </trkpt>
      <trkpt lat="44.36174" lon="5.65021">
        <ele>746.42</ele>
        <time>2024-01-30T18:51:45Z</time>
      </trkpt>
      <trkpt lat="44.36166" lon="5.65037">
        <ele>747.24</ele>
        <time>2024-01-30T18:51:48Z</time>
      </trkpt>
      <trkpt lat="44.36139" lon="5.65073">
        <ele>747.06</ele>
        <time>2024-01-30T18:51:54Z</time>
      </trkpt>
      <trkpt lat="44.36121" lon="5.65088">
        <ele>746.95</ele>
        <time>2024-01-30T18:51:58Z</time>
      </trkpt>
      <trkpt lat="44.36105" lon="5.65094">
        <ele>746.91</ele>
        <time>2024-01-30T18:52:01Z</time>
      </trkpt>
      <trkpt lat="44.36077" lon="5.65104">
        <ele>745.96</ele>
        <time>2024-01-30T18:52:05Z</time>
      </trkpt>
      <trkpt lat="44.36047" lon="5.65128">
        <ele>745.27</ele>
        <time>2024-01-30T18:52:10Z</time>
      </trkpt>
      <trkpt lat="44.36031" lon="5.65153">
        <ele>746.34</ele>
        <time>2024-01-30T18:52:14Z</time>
      </trkpt>
      <trkpt lat="44.3601" lon="5.65194">
        <ele>744.27</ele>
        <time>2024-01-30T18:52:18Z</time>
      </trkpt>
      <trkpt lat="44.35972" lon="5.65234">
        <ele>742.31</ele>
        <time>2024-01-30T18:52:25Z</time>
      </trkpt>
      <trkpt lat="44.35964" lon="5.65246">
        <ele>741.49</ele>
        <time>2024-01-30T18:52:26Z</time>
      </trkpt>
      <trkpt lat="44.3592" lon="5.65353">
        <ele>738.01</ele>
        <time>2024-01-30T18:52:38Z</time>
      </trkpt>
      <trkpt lat="44.35881" lon="5.6543">
        <ele>734.63</ele>
        <time>2024-01-30T18:52:48Z</time>
      </trkpt>
      <trkpt lat="44.35854" lon="5.65517">
        <ele>732.06</ele>
        <time>2024-01-30T18:52:59Z</time>
      </trkpt>
      <trkpt lat="44.35843" lon="5.65569">
        <ele>732.02</ele>
        <time>2024-01-30T18:53:05Z</time>
      </trkpt>
      <trkpt lat="44.3583" lon="5.65697">
        <ele>730.03</ele>
        <time>2024-01-30T18:53:20Z</time>
      </trkpt>
      <trkpt lat="44.35799" lon="5.65887">
        <ele>729.61</ele>
        <time>2024-01-30T18:53:42Z</time>
      </trkpt>
      <trkpt lat="44.35785" lon="5.65928">
        <ele>728.16</ele>
        <time>2024-01-30T18:53:47Z</time>
      </trkpt>
      <trkpt lat="44.35738" lon="5.6603">
        <ele>724.79</ele>
        <time>2024-01-30T18:54:01Z</time>
      </trkpt>
      <trkpt lat="44.35696" lon="5.6617">
        <ele>726.69</ele>
        <time>2024-01-30T18:54:19Z</time>
      </trkpt>
      <trkpt lat="44.35666" lon="5.66239">
        <ele>725.38</ele>
        <time>2024-01-30T18:54:28Z</time>
      </trkpt>
      <trkpt lat="44.35614" lon="5.66357">
        <ele>721.52</ele>
        <time>2024-01-30T18:54:43Z</time>
      </trkpt>
      <trkpt lat="44.35574" lon="5.66486">
        <ele>716.03</ele>
        <time>2024-01-30T18:55:05Z</time>
      </trkpt>
      <trkpt lat="44.35561" lon="5.66526">
        <ele>715.37</ele>
        <time>2024-01-30T18:55:15Z</time>
      </trkpt>
      <trkpt lat="44.35529" lon="5.6658">
        <ele>714.72</ele>
        <time>2024-01-30T18:55:30Z</time>
      </trkpt>
      <trkpt lat="44.35491" lon="5.66652">
        <ele>713.07</ele>
        <time>2024-01-30T18:55:46Z</time>
      </trkpt>
      <trkpt lat="44.35473" lon="5.66694">
        <ele>712.17</ele>
        <time>2024-01-30T18:55:53Z</time>
      </trkpt>
      <trkpt lat="44.35461" lon="5.66734">
        <ele>711.82</ele>
        <time>2024-01-30T18:55:58Z</time>
      </trkpt>
      <trkpt lat="44.35456" lon="5.66776">
        <ele>711.66</ele>
        <time>2024-01-30T18:56:02Z</time>
      </trkpt>
      <trkpt lat="44.35457" lon="5.668">
        <ele>711.24</ele>
        <time>2024-01-30T18:56:05Z</time>
      </trkpt>
      <trkpt lat="44.35463" lon="5.66839">
        <ele>710.33</ele>
        <time>2024-01-30T18:56:09Z</time>
      </trkpt>
      <trkpt lat="44.35476" lon="5.66887">
        <ele>709.96</ele>
        <time>2024-01-30T18:56:13Z</time>
      </trkpt>
      <trkpt lat="44.35492" lon="5.66931">
        <ele>709.12</ele>
        <time>2024-01-30T18:56:17Z</time>
      </trkpt>
      <trkpt lat="44.35513" lon="5.66972">
        <ele>708.32</ele>
        <time>2024-01-30T18:56:22Z</time>
      </trkpt>
      <trkpt lat="44.35526" lon="5.67006">
        <ele>708.59</ele>
        <time>2024-01-30T18:56:26Z</time>
      </trkpt>
      <trkpt lat="44.35531" lon="5.67052">
        <ele>708.12</ele>
        <time>2024-01-30T18:56:31Z</time>
      </trkpt>
      <trkpt lat="44.35531" lon="5.67078">
        <ele>708.47</ele>
        <time>2024-01-30T18:56:33Z</time>
      </trkpt>
      <trkpt lat="44.35526" lon="5.67121">
        <ele>709.05</ele>
        <time>2024-01-30T18:56:39Z</time>
      </trkpt>
      <trkpt lat="44.35517" lon="5.67155">
        <ele>707.49</ele>
        <time>2024-01-30T18:56:44Z</time>
      </trkpt>
      <trkpt lat="44.35504" lon="5.67183">
        <ele>707.71</ele>
        <time>2024-01-30T18:56:49Z</time>
      </trkpt>
      <trkpt lat="44.35461" lon="5.67246">
        <ele>706.85</ele>
        <time>2024-01-30T18:57:05Z</time>
      </trkpt>
      <trkpt lat="44.3544" lon="5.6729">
        <ele>705.67</ele>
        <time>2024-01-30T18:57:14Z</time>
      </trkpt>
      <trkpt lat="44.35434" lon="5.67307">
        <ele>704.91</ele>
        <time>2024-01-30T18:57:17Z</time>
      </trkpt>
      <trkpt lat="44.35431" lon="5.67327">
        <ele>704.76</ele>
        <time>2024-01-30T18:57:20Z</time>
      </trkpt>
      <trkpt lat="44.35428" lon="5.67386">
        <ele>704.58</ele>
        <time>2024-01-30T18:57:27Z</time>
      </trkpt>
      <trkpt lat="44.35401" lon="5.67491">
        <ele>703.78</ele>
        <time>2024-01-30T18:57:40Z</time>
      </trkpt>
      <trkpt lat="44.35378" lon="5.67551">
        <ele>703.86</ele>
        <time>2024-01-30T18:57:47Z</time>
      </trkpt>
      <trkpt lat="44.35325" lon="5.67652">
        <ele>698.71</ele>
        <time>2024-01-30T18:57:59Z</time>
      </trkpt>
      <trkpt lat="44.35315" lon="5.67679">
        <ele>697.59</ele>
        <time>2024-01-30T18:58:02Z</time>
      </trkpt>
      <trkpt lat="44.35312" lon="5.67707">
        <ele>697.38</ele>
        <time>2024-01-30T18:58:05Z</time>
      </trkpt>
      <trkpt lat="44.35325" lon="5.67834">
        <ele>698.51</ele>
        <time>2024-01-30T18:58:16Z</time>
      </trkpt>
      <trkpt lat="44.35325" lon="5.67866">
        <ele>697.79</ele>
        <time>2024-01-30T18:58:19Z</time>
      </trkpt>
      <trkpt lat="44.35313" lon="5.67908">
        <ele>696.08</ele>
        <time>2024-01-30T18:58:23Z</time>
      </trkpt>
      <trkpt lat="44.35288" lon="5.67957">
        <ele>694.6</ele>
        <time>2024-01-30T18:58:28Z</time>
      </trkpt>
      <trkpt lat="44.35255" lon="5.68013">
        <ele>695.79</ele>
        <time>2024-01-30T18:58:35Z</time>
      </trkpt>
      <trkpt lat="44.35245" lon="5.68031">
        <ele>695.7</ele>
        <time>2024-01-30T18:58:37Z</time>
      </trkpt>
      <trkpt lat="44.3524" lon="5.68039">
        <ele>696.04</ele>
        <time>2024-01-30T18:58:38Z</time>
      </trkpt>
      <trkpt lat="44.35204" lon="5.68103">
        <ele>698.17</ele>
        <time>2024-01-30T18:58:47Z</time>
      </trkpt>
      <trkpt lat="44.35189" lon="5.68138">
        <ele>696.81</ele>
        <time>2024-01-30T18:58:51Z</time>
      </trkpt>
      <trkpt lat="44.35177" lon="5.68208">
        <ele>697.81</ele>
        <time>2024-01-30T18:58:59Z</time>
      </trkpt>
      <trkpt lat="44.35136" lon="5.6831">
        <ele>695.49</ele>
        <time>2024-01-30T18:59:12Z</time>
      </trkpt>
      <trkpt lat="44.3513" lon="5.68332">
        <ele>695.69</ele>
        <time>2024-01-30T18:59:15Z</time>
      </trkpt>
      <trkpt lat="44.35125" lon="5.68352">
        <ele>694.8</ele>
        <time>2024-01-30T18:59:18Z</time>
      </trkpt>
      <trkpt lat="44.35118" lon="5.68425">
        <ele>692.66</ele>
        <time>2024-01-30T18:59:30Z</time>
      </trkpt>
      <trkpt lat="44.35107" lon="5.68464">
        <ele>691.67</ele>
        <time>2024-01-30T18:59:37Z</time>
      </trkpt>
      <trkpt lat="44.35097" lon="5.68488">
        <ele>692</ele>
        <time>2024-01-30T18:59:43Z</time>
      </trkpt>
      <trkpt lat="44.35068" lon="5.68535">
        <ele>693.23</ele>
        <time>2024-01-30T18:59:57Z</time>
      </trkpt>
      <trkpt lat="44.35012" lon="5.68591">
        <ele>693.29</ele>
        <time>2024-01-30T19:00:18Z</time>
      </trkpt>
      <trkpt lat="44.35002" lon="5.68614">
        <ele>692.73</ele>
        <time>2024-01-30T19:00:23Z</time>
      </trkpt>
      <trkpt lat="44.34999" lon="5.68654">
        <ele>691.62</ele>
        <time>2024-01-30T19:00:30Z</time>
      </trkpt>
      <trkpt lat="44.34998" lon="5.68754">
        <ele>687.77</ele>
        <time>2024-01-30T19:00:42Z</time>
      </trkpt>
      <trkpt lat="44.34992" lon="5.68798">
        <ele>686.85</ele>
        <time>2024-01-30T19:00:47Z</time>
      </trkpt>
      <trkpt lat="44.34978" lon="5.6884">
        <ele>686.69</ele>
        <time>2024-01-30T19:00:51Z</time>
      </trkpt>
      <trkpt lat="44.34975" lon="5.68861">
        <ele>689.13</ele>
        <time>2024-01-30T19:00:53Z</time>
      </trkpt>
      <trkpt lat="44.34974" lon="5.68942">
        <ele>683.81</ele>
        <time>2024-01-30T19:01:01Z</time>
      </trkpt>
      <trkpt lat="44.34957" lon="5.6902">
        <ele>679.08</ele>
        <time>2024-01-30T19:01:08Z</time>
      </trkpt>
      <trkpt lat="44.34912" lon="5.69183">
        <ele>677.74</ele>
        <time>2024-01-30T19:01:28Z</time>
      </trkpt>
      <trkpt lat="44.34897" lon="5.69224">
        <ele>677.03</ele>
        <time>2024-01-30T19:01:37Z</time>
      </trkpt>
      <trkpt lat="44.34868" lon="5.69284">
        <ele>674.91</ele>
        <time>2024-01-30T19:01:52Z</time>
      </trkpt>
      <trkpt lat="44.34862" lon="5.69301">
        <ele>674.33</ele>
        <time>2024-01-30T19:01:57Z</time>
      </trkpt>
      <trkpt lat="44.34853" lon="5.69351">
        <ele>674.21</ele>
        <time>2024-01-30T19:02:08Z</time>
      </trkpt>
      <trkpt lat="44.34847" lon="5.69506">
        <ele>673.14</ele>
        <time>2024-01-30T19:02:38Z</time>
      </trkpt>
      <trkpt lat="44.34834" lon="5.69594">
        <ele>672.7</ele>
        <time>2024-01-30T19:02:48Z</time>
      </trkpt>
      <trkpt lat="44.34824" lon="5.69717">
        <ele>671.26</ele>
        <time>2024-01-30T19:02:59Z</time>
      </trkpt>
      <trkpt lat="44.34827" lon="5.69783">
        <ele>671.43</ele>
        <time>2024-01-30T19:03:04Z</time>
      </trkpt>
      <trkpt lat="44.3483" lon="5.69813">
        <ele>671.38</ele>
        <time>2024-01-30T19:03:07Z</time>
      </trkpt>
      <trkpt lat="44.34838" lon="5.69842">
        <ele>670.87</ele>
        <time>2024-01-30T19:03:09Z</time>
      </trkpt>
      <trkpt lat="44.3485" lon="5.69865">
        <ele>670.32</ele>
        <time>2024-01-30T19:03:12Z</time>
      </trkpt>
      <trkpt lat="44.34868" lon="5.69884">
        <ele>669.3</ele>
        <time>2024-01-30T19:03:14Z</time>
      </trkpt>
      <trkpt lat="44.34885" lon="5.69894">
        <ele>669.1</ele>
        <time>2024-01-30T19:03:16Z</time>
      </trkpt>
      <trkpt lat="44.34916" lon="5.69909">
        <ele>668.57</ele>
        <time>2024-01-30T19:03:20Z</time>
      </trkpt>
      <trkpt lat="44.3496" lon="5.69947">
        <ele>667.86</ele>
        <time>2024-01-30T19:03:26Z</time>
      </trkpt>
      <trkpt lat="44.35017" lon="5.69982">
        <ele>668.93</ele>
        <time>2024-01-30T19:03:34Z</time>
      </trkpt>
      <trkpt lat="44.35027" lon="5.69992">
        <ele>669.78</ele>
        <time>2024-01-30T19:03:36Z</time>
      </trkpt>
      <trkpt lat="44.35043" lon="5.70017">
        <ele>670.02</ele>
        <time>2024-01-30T19:03:40Z</time>
      </trkpt>
      <trkpt lat="44.3505" lon="5.70033">
        <ele>670.42</ele>
        <time>2024-01-30T19:03:42Z</time>
      </trkpt>
      <trkpt lat="44.35059" lon="5.7007">
        <ele>670.42</ele>
        <time>2024-01-30T19:03:46Z</time>
      </trkpt>
      <trkpt lat="44.35085" lon="5.70271">
        <ele>674.43</ele>
        <time>2024-01-30T19:04:10Z</time>
      </trkpt>
      <trkpt lat="44.35104" lon="5.70432">
        <ele>672.14</ele>
        <time>2024-01-30T19:04:28Z</time>
      </trkpt>
      <trkpt lat="44.35113" lon="5.70473">
        <ele>672.31</ele>
        <time>2024-01-30T19:04:32Z</time>
      </trkpt>
      <trkpt lat="44.35125" lon="5.70507">
        <ele>672.48</ele>
        <time>2024-01-30T19:04:36Z</time>
      </trkpt>
      <trkpt lat="44.35127" lon="5.7051">
        <ele>672.17</ele>
        <time>2024-01-30T19:04:37Z</time>
      </trkpt>
      <trkpt lat="44.35129" lon="5.70516">
        <ele>671.87</ele>
        <time>2024-01-30T19:04:37Z</time>
      </trkpt>
      <trkpt lat="44.35138" lon="5.7054">
        <ele>672.05</ele>
        <time>2024-01-30T19:04:41Z</time>
      </trkpt>
      <trkpt lat="44.35149" lon="5.70567">
        <ele>673.62</ele>
        <time>2024-01-30T19:04:44Z</time>
      </trkpt>
      <trkpt lat="44.35205" lon="5.70708">
        <ele>673.34</ele>
        <time>2024-01-30T19:05:01Z</time>
      </trkpt>
      <trkpt lat="44.35233" lon="5.70771">
        <ele>676.49</ele>
        <time>2024-01-30T19:05:09Z</time>
      </trkpt>
      <trkpt lat="44.35243" lon="5.70782">
        <ele>677.23</ele>
        <time>2024-01-30T19:05:11Z</time>
      </trkpt>
      <trkpt lat="44.35249" lon="5.70787">
        <ele>676.6</ele>
        <time>2024-01-30T19:05:12Z</time>
      </trkpt>
      <trkpt lat="44.35245" lon="5.70797">
        <ele>673.87</ele>
        <time>2024-01-30T19:05:14Z</time>
      </trkpt>
      <trkpt lat="44.35228" lon="5.70791">
        <ele>672.4</ele>
        <time>2024-01-30T19:05:19Z</time>
      </trkpt>
      <trkpt lat="44.35222" lon="5.70793">
        <ele>669.8</ele>
        <time>2024-01-30T19:05:21Z</time>
      </trkpt>
      <trkpt lat="44.35205" lon="5.70819">
        <ele>663.46</ele>
        <time>2024-01-30T19:05:27Z</time>
      </trkpt>
      <trkpt lat="44.35178" lon="5.70849">
        <ele>658.06</ele>
        <time>2024-01-30T19:05:36Z</time>
      </trkpt>
      <trkpt lat="44.35183" lon="5.70854">
        <ele>658.09</ele>
        <time>2024-01-30T19:05:38Z</time>
      </trkpt>
      <trkpt lat="44.35189" lon="5.70876">
        <ele>657.41</ele>
        <time>2024-01-30T19:05:42Z</time>
      </trkpt>
      <trkpt lat="44.3519" lon="5.70902">
        <ele>655.86</ele>
        <time>2024-01-30T19:05:48Z</time>
      </trkpt>
      <trkpt lat="44.35185" lon="5.70927">
        <ele>653.87</ele>
        <time>2024-01-30T19:05:53Z</time>
      </trkpt>
      <trkpt lat="44.35187" lon="5.70954">
        <ele>653.24</ele>
        <time>2024-01-30T19:05:59Z</time>
      </trkpt>
      <trkpt lat="44.35197" lon="5.70997">
        <ele>652.11</ele>
        <time>2024-01-30T19:06:11Z</time>
      </trkpt>
      <trkpt lat="44.35224" lon="5.71044">
        <ele>650.85</ele>
        <time>2024-01-30T19:06:30Z</time>
      </trkpt>
      <trkpt lat="44.35243" lon="5.71061">
        <ele>650.79</ele>
        <time>2024-01-30T19:06:40Z</time>
      </trkpt>
      <trkpt lat="44.35237" lon="5.71069">
        <ele>650.29</ele>
        <time>2024-01-30T19:06:43Z</time>
      </trkpt>
      <trkpt lat="44.35228" lon="5.71082">
        <ele>650.19</ele>
        <time>2024-01-30T19:06:47Z</time>
      </trkpt>
      <trkpt lat="44.35219" lon="5.71096">
        <ele>652.13</ele>
        <time>2024-01-30T19:06:52Z</time>
      </trkpt>
      <trkpt lat="44.35209" lon="5.7114">
        <ele>656.43</ele>
        <time>2024-01-30T19:07:02Z</time>
      </trkpt>
      <trkpt lat="44.35207" lon="5.7118">
        <ele>657.4</ele>
        <time>2024-01-30T19:07:10Z</time>
      </trkpt>
      <trkpt lat="44.35196" lon="5.71257">
        <ele>658.13</ele>
        <time>2024-01-30T19:07:23Z</time>
      </trkpt>
      <trkpt lat="44.35196" lon="5.71275">
        <ele>658.14</ele>
        <time>2024-01-30T19:07:26Z</time>
      </trkpt>
      <trkpt lat="44.35199" lon="5.71304">
        <ele>658.51</ele>
        <time>2024-01-30T19:07:30Z</time>
      </trkpt>
      <trkpt lat="44.35206" lon="5.71327">
        <ele>658.98</ele>
        <time>2024-01-30T19:07:33Z</time>
      </trkpt>
      <trkpt lat="44.35231" lon="5.71385">
        <ele>657.24</ele>
        <time>2024-01-30T19:07:41Z</time>
      </trkpt>
      <trkpt lat="44.35238" lon="5.71406">
        <ele>656.44</ele>
        <time>2024-01-30T19:07:44Z</time>
      </trkpt>
      <trkpt lat="44.35241" lon="5.71432">
        <ele>656.48</ele>
        <time>2024-01-30T19:07:48Z</time>
      </trkpt>
      <trkpt lat="44.3524" lon="5.71464">
        <ele>657.71</ele>
        <time>2024-01-30T19:07:54Z</time>
      </trkpt>
      <trkpt lat="44.35233" lon="5.71495">
        <ele>656.13</ele>
        <time>2024-01-30T19:08:00Z</time>
      </trkpt>
      <trkpt lat="44.35209" lon="5.7156">
        <ele>653.87</ele>
        <time>2024-01-30T19:08:11Z</time>
      </trkpt>
      <trkpt lat="44.35172" lon="5.71657">
        <ele>652.28</ele>
        <time>2024-01-30T19:08:28Z</time>
      </trkpt>
      <trkpt lat="44.3517" lon="5.71691">
        <ele>651.89</ele>
        <time>2024-01-30T19:08:35Z</time>
      </trkpt>
      <trkpt lat="44.35175" lon="5.71712">
        <ele>651.58</ele>
        <time>2024-01-30T19:08:38Z</time>
      </trkpt>
      <trkpt lat="44.35198" lon="5.71749">
        <ele>651.03</ele>
        <time>2024-01-30T19:08:48Z</time>
      </trkpt>
      <trkpt lat="44.35198" lon="5.71763">
        <ele>651.11</ele>
        <time>2024-01-30T19:08:51Z</time>
      </trkpt>
      <trkpt lat="44.35191" lon="5.71794">
        <ele>652.93</ele>
        <time>2024-01-30T19:08:57Z</time>
      </trkpt>
      <trkpt lat="44.352" lon="5.71818">
        <ele>654.15</ele>
        <time>2024-01-30T19:09:01Z</time>
      </trkpt>
      <trkpt lat="44.35215" lon="5.71834">
        <ele>654.03</ele>
        <time>2024-01-30T19:09:05Z</time>
      </trkpt>
      <trkpt lat="44.35233" lon="5.71874">
        <ele>654.5</ele>
        <time>2024-01-30T19:09:11Z</time>
      </trkpt>
      <trkpt lat="44.35242" lon="5.72009">
        <ele>652.69</ele>
        <time>2024-01-30T19:09:33Z</time>
      </trkpt>
      <trkpt lat="44.35235" lon="5.72049">
        <ele>652.65</ele>
        <time>2024-01-30T19:09:41Z</time>
      </trkpt>
      <trkpt lat="44.35227" lon="5.72064">
        <ele>655.62</ele>
        <time>2024-01-30T19:09:45Z</time>
      </trkpt>
      <trkpt lat="44.35225" lon="5.72078">
        <ele>656.18</ele>
        <time>2024-01-30T19:09:48Z</time>
      </trkpt>
      <trkpt lat="44.35238" lon="5.72168">
        <ele>650.75</ele>
        <time>2024-01-30T19:10:07Z</time>
      </trkpt>
      <trkpt lat="44.35236" lon="5.72191">
        <ele>653.04</ele>
        <time>2024-01-30T19:10:11Z</time>
      </trkpt>
      <trkpt lat="44.3522" lon="5.7227">
        <ele>653.76</ele>
        <time>2024-01-30T19:10:27Z</time>
      </trkpt>
      <trkpt lat="44.35209" lon="5.72336">
        <ele>652.06</ele>
        <time>2024-01-30T19:10:36Z</time>
      </trkpt>
      <trkpt lat="44.35186" lon="5.72389">
        <ele>654.49</ele>
        <time>2024-01-30T19:10:43Z</time>
      </trkpt>
      <trkpt lat="44.35174" lon="5.72481">
        <ele>655.76</ele>
        <time>2024-01-30T19:10:52Z</time>
      </trkpt>
      <trkpt lat="44.3519" lon="5.72538">
        <ele>649.89</ele>
        <time>2024-01-30T19:10:57Z</time>
      </trkpt>
      <trkpt lat="44.35195" lon="5.72578">
        <ele>647.9</ele>
        <time>2024-01-30T19:11:01Z</time>
      </trkpt>
      <trkpt lat="44.35215" lon="5.72643">
        <ele>639.28</ele>
        <time>2024-01-30T19:11:07Z</time>
      </trkpt>
      <trkpt lat="44.35218" lon="5.72671">
        <ele>638.53</ele>
        <time>2024-01-30T19:11:10Z</time>
      </trkpt>
      <trkpt lat="44.3519" lon="5.72768">
        <ele>637.18</ele>
        <time>2024-01-30T19:11:19Z</time>
      </trkpt>
      <trkpt lat="44.35182" lon="5.72832">
        <ele>637.58</ele>
        <time>2024-01-30T19:11:26Z</time>
      </trkpt>
      <trkpt lat="44.35167" lon="5.72893">
        <ele>639.24</ele>
        <time>2024-01-30T19:11:32Z</time>
      </trkpt>
      <trkpt lat="44.35163" lon="5.72975">
        <ele>635.84</ele>
        <time>2024-01-30T19:11:47Z</time>
      </trkpt>
      <trkpt lat="44.35136" lon="5.73119">
        <ele>634.25</ele>
        <time>2024-01-30T19:12:14Z</time>
      </trkpt>
      <trkpt lat="44.35118" lon="5.7315">
        <ele>634.28</ele>
        <time>2024-01-30T19:12:21Z</time>
      </trkpt>
      <trkpt lat="44.35116" lon="5.73164">
        <ele>634.1</ele>
        <time>2024-01-30T19:12:24Z</time>
      </trkpt>
      <trkpt lat="44.35103" lon="5.73205">
        <ele>635.04</ele>
        <time>2024-01-30T19:12:32Z</time>
      </trkpt>
      <trkpt lat="44.35087" lon="5.73233">
        <ele>638.15</ele>
        <time>2024-01-30T19:12:39Z</time>
      </trkpt>
      <trkpt lat="44.35076" lon="5.73274">
        <ele>638.97</ele>
        <time>2024-01-30T19:12:48Z</time>
      </trkpt>
      <trkpt lat="44.35067" lon="5.73297">
        <ele>639.91</ele>
        <time>2024-01-30T19:12:54Z</time>
      </trkpt>
      <trkpt lat="44.35052" lon="5.73326">
        <ele>640.91</ele>
        <time>2024-01-30T19:13:02Z</time>
      </trkpt>
      <trkpt lat="44.35028" lon="5.73358">
        <ele>642.9</ele>
        <time>2024-01-30T19:13:14Z</time>
      </trkpt>
      <trkpt lat="44.34948" lon="5.73445">
        <ele>644.95</ele>
        <time>2024-01-30T19:13:45Z</time>
      </trkpt>
      <trkpt lat="44.34927" lon="5.73479">
        <ele>642.83</ele>
        <time>2024-01-30T19:13:53Z</time>
      </trkpt>
      <trkpt lat="44.34907" lon="5.73501">
        <ele>641.72</ele>
        <time>2024-01-30T19:13:59Z</time>
      </trkpt>
      <trkpt lat="44.34882" lon="5.73519">
        <ele>643.92</ele>
        <time>2024-01-30T19:14:06Z</time>
      </trkpt>
      <trkpt lat="44.34886" lon="5.73535">
        <ele>642.05</ele>
        <time>2024-01-30T19:14:09Z</time>
      </trkpt>
      <trkpt lat="44.34894" lon="5.73548">
        <ele>639.95</ele>
        <time>2024-01-30T19:14:12Z</time>
      </trkpt>
      <trkpt lat="44.34911" lon="5.73561">
        <ele>636.72</ele>
        <time>2024-01-30T19:14:17Z</time>
      </trkpt>
      <trkpt lat="44.34918" lon="5.73573">
        <ele>635.97</ele>
        <time>2024-01-30T19:14:19Z</time>
      </trkpt>
      <trkpt lat="44.34919" lon="5.73584">
        <ele>635.34</ele>
        <time>2024-01-30T19:14:21Z</time>
      </trkpt>
      <trkpt lat="44.34899" lon="5.73681">
        <ele>636.67</ele>
        <time>2024-01-30T19:14:37Z</time>
      </trkpt>
      <trkpt lat="44.34892" lon="5.73734">
        <ele>633.46</ele>
        <time>2024-01-30T19:14:46Z</time>
      </trkpt>
      <trkpt lat="44.3488" lon="5.73778">
        <ele>630.58</ele>
        <time>2024-01-30T19:14:53Z</time>
      </trkpt>
      <trkpt lat="44.34883" lon="5.73794">
        <ele>628.82</ele>
        <time>2024-01-30T19:14:56Z</time>
      </trkpt>
      <trkpt lat="44.34891" lon="5.73813">
        <ele>626.73</ele>
        <time>2024-01-30T19:15:00Z</time>
      </trkpt>
      <trkpt lat="44.34879" lon="5.73853">
        <ele>625.56</ele>
        <time>2024-01-30T19:15:07Z</time>
      </trkpt>
      <trkpt lat="44.34863" lon="5.73891">
        <ele>625.54</ele>
        <time>2024-01-30T19:15:14Z</time>
      </trkpt>
      <trkpt lat="44.34843" lon="5.73966">
        <ele>626.16</ele>
        <time>2024-01-30T19:15:28Z</time>
      </trkpt>
      <trkpt lat="44.34817" lon="5.74045">
        <ele>623.05</ele>
        <time>2024-01-30T19:15:44Z</time>
      </trkpt>
      <trkpt lat="44.34807" lon="5.74084">
        <ele>621.12</ele>
        <time>2024-01-30T19:15:51Z</time>
      </trkpt>
      <trkpt lat="44.34796" lon="5.74115">
        <ele>620.18</ele>
        <time>2024-01-30T19:15:58Z</time>
      </trkpt>
      <trkpt lat="44.34781" lon="5.74147">
        <ele>620.19</ele>
        <time>2024-01-30T19:16:05Z</time>
      </trkpt>
      <trkpt lat="44.34763" lon="5.74168">
        <ele>620.26</ele>
        <time>2024-01-30T19:16:12Z</time>
      </trkpt>
      <trkpt lat="44.34738" lon="5.74205">
        <ele>619.89</ele>
        <time>2024-01-30T19:16:22Z</time>
      </trkpt>
      <trkpt lat="44.34719" lon="5.74239">
        <ele>619</ele>
        <time>2024-01-30T19:16:31Z</time>
      </trkpt>
      <trkpt lat="44.34703" lon="5.74256">
        <ele>619.99</ele>
        <time>2024-01-30T19:16:38Z</time>
      </trkpt>
      <trkpt lat="44.34683" lon="5.74252">
        <ele>622.53</ele>
        <time>2024-01-30T19:16:42Z</time>
      </trkpt>
      <trkpt lat="44.34641" lon="5.74252">
        <ele>627.48</ele>
        <time>2024-01-30T19:16:51Z</time>
      </trkpt>
      <trkpt lat="44.34628" lon="5.74255">
        <ele>628.42</ele>
        <time>2024-01-30T19:16:54Z</time>
      </trkpt>
      <trkpt lat="44.34597" lon="5.74296">
        <ele>629.53</ele>
        <time>2024-01-30T19:17:04Z</time>
      </trkpt>
      <trkpt lat="44.34572" lon="5.74327">
        <ele>629.37</ele>
        <time>2024-01-30T19:17:15Z</time>
      </trkpt>
      <trkpt lat="44.34565" lon="5.74331">
        <ele>629.58</ele>
        <time>2024-01-30T19:17:18Z</time>
      </trkpt>
      <trkpt lat="44.3456" lon="5.74354">
        <ele>628</ele>
        <time>2024-01-30T19:17:22Z</time>
      </trkpt>
      <trkpt lat="44.34508" lon="5.74429">
        <ele>626.55</ele>
        <time>2024-01-30T19:17:39Z</time>
      </trkpt>
      <trkpt lat="44.34498" lon="5.7445">
        <ele>626.16</ele>
        <time>2024-01-30T19:17:43Z</time>
      </trkpt>
      <trkpt lat="44.34492" lon="5.74497">
        <ele>624.59</ele>
        <time>2024-01-30T19:17:50Z</time>
      </trkpt>
      <trkpt lat="44.34479" lon="5.74567">
        <ele>622.79</ele>
        <time>2024-01-30T19:18:02Z</time>
      </trkpt>
      <trkpt lat="44.34475" lon="5.74623">
        <ele>621.01</ele>
        <time>2024-01-30T19:18:10Z</time>
      </trkpt>
      <trkpt lat="44.34465" lon="5.74696">
        <ele>619.09</ele>
        <time>2024-01-30T19:18:20Z</time>
      </trkpt>
      <trkpt lat="44.34459" lon="5.74721">
        <ele>619.77</ele>
        <time>2024-01-30T19:18:22Z</time>
      </trkpt>
      <trkpt lat="44.34458" lon="5.74738">
        <ele>619.78</ele>
        <time>2024-01-30T19:18:24Z</time>
      </trkpt>
      <trkpt lat="44.3446" lon="5.74766">
        <ele>617.15</ele>
        <time>2024-01-30T19:18:27Z</time>
      </trkpt>
      <trkpt lat="44.34455" lon="5.74807">
        <ele>615.77</ele>
        <time>2024-01-30T19:18:31Z</time>
      </trkpt>
      <trkpt lat="44.34444" lon="5.7484">
        <ele>615.35</ele>
        <time>2024-01-30T19:18:34Z</time>
      </trkpt>
      <trkpt lat="44.34441" lon="5.74869">
        <ele>614.39</ele>
        <time>2024-01-30T19:18:37Z</time>
      </trkpt>
      <trkpt lat="44.34449" lon="5.74897">
        <ele>611.64</ele>
        <time>2024-01-30T19:18:40Z</time>
      </trkpt>
      <trkpt lat="44.34456" lon="5.74909">
        <ele>610.28</ele>
        <time>2024-01-30T19:18:41Z</time>
      </trkpt>
      <trkpt lat="44.34468" lon="5.7493">
        <ele>609.11</ele>
        <time>2024-01-30T19:18:44Z</time>
      </trkpt>
      <trkpt lat="44.34478" lon="5.74947">
        <ele>608.93</ele>
        <time>2024-01-30T19:18:46Z</time>
      </trkpt>
      <trkpt lat="44.34481" lon="5.74965">
        <ele>608.96</ele>
        <time>2024-01-30T19:18:47Z</time>
      </trkpt>
      <trkpt lat="44.34469" lon="5.74998">
        <ele>609.49</ele>
        <time>2024-01-30T19:18:51Z</time>
      </trkpt>
      <trkpt lat="44.34466" lon="5.75029">
        <ele>610.2</ele>
        <time>2024-01-30T19:18:53Z</time>
      </trkpt>
      <trkpt lat="44.34454" lon="5.75194">
        <ele>608.77</ele>
        <time>2024-01-30T19:19:10Z</time>
      </trkpt>
      <trkpt lat="44.34444" lon="5.75306">
        <ele>608.47</ele>
        <time>2024-01-30T19:19:24Z</time>
      </trkpt>
      <trkpt lat="44.34444" lon="5.75329">
        <ele>608.05</ele>
        <time>2024-01-30T19:19:27Z</time>
      </trkpt>
      <trkpt lat="44.34463" lon="5.75382">
        <ele>611.33</ele>
        <time>2024-01-30T19:19:36Z</time>
      </trkpt>
      <trkpt lat="44.34481" lon="5.75395">
        <ele>613.05</ele>
        <time>2024-01-30T19:19:40Z</time>
      </trkpt>
      <trkpt lat="44.3456" lon="5.75434">
        <ele>614.27</ele>
        <time>2024-01-30T19:19:58Z</time>
      </trkpt>
      <trkpt lat="44.34599" lon="5.75448">
        <ele>615.04</ele>
        <time>2024-01-30T19:20:06Z</time>
      </trkpt>
      <trkpt lat="44.34413" lon="5.7592">
        <ele>609.78</ele>
        <time>2024-01-30T19:21:03Z</time>
      </trkpt>
      <trkpt lat="44.34408" lon="5.75955">
        <ele>609.07</ele>
        <time>2024-01-30T19:21:07Z</time>
      </trkpt>
      <trkpt lat="44.34407" lon="5.76169">
        <ele>603.85</ele>
        <time>2024-01-30T19:21:29Z</time>
      </trkpt>
      <trkpt lat="44.34398" lon="5.76189">
        <ele>602.3</ele>
        <time>2024-01-30T19:21:32Z</time>
      </trkpt>
      <trkpt lat="44.34387" lon="5.76197">
        <ele>601.13</ele>
        <time>2024-01-30T19:21:34Z</time>
      </trkpt>
      <trkpt lat="44.3437" lon="5.76194">
        <ele>600.46</ele>
        <time>2024-01-30T19:21:37Z</time>
      </trkpt>
      <trkpt lat="44.34346" lon="5.76182">
        <ele>597.25</ele>
        <time>2024-01-30T19:21:41Z</time>
      </trkpt>
      <trkpt lat="44.34326" lon="5.76171">
        <ele>595.72</ele>
        <time>2024-01-30T19:21:45Z</time>
      </trkpt>
      <trkpt lat="44.34316" lon="5.76166">
        <ele>595.79</ele>
        <time>2024-01-30T19:21:47Z</time>
      </trkpt>
      <trkpt lat="44.34279" lon="5.76152">
        <ele>598.38</ele>
        <time>2024-01-30T19:21:53Z</time>
      </trkpt>
      <trkpt lat="44.34256" lon="5.76146">
        <ele>601.16</ele>
        <time>2024-01-30T19:21:57Z</time>
      </trkpt>
      <trkpt lat="44.3424" lon="5.76149">
        <ele>602.3</ele>
        <time>2024-01-30T19:22:00Z</time>
      </trkpt>
      <trkpt lat="44.34231" lon="5.76154">
        <ele>602.57</ele>
        <time>2024-01-30T19:22:02Z</time>
      </trkpt>
      <trkpt lat="44.34195" lon="5.76188">
        <ele>601.82</ele>
        <time>2024-01-30T19:22:10Z</time>
      </trkpt>
      <trkpt lat="44.34185" lon="5.76199">
        <ele>601.17</ele>
        <time>2024-01-30T19:22:12Z</time>
      </trkpt>
      <trkpt lat="44.3418" lon="5.76211">
        <ele>600.94</ele>
        <time>2024-01-30T19:22:13Z</time>
      </trkpt>
      <trkpt lat="44.34135" lon="5.76356">
        <ele>596.5</ele>
        <time>2024-01-30T19:22:31Z</time>
      </trkpt>
      <trkpt lat="44.3413" lon="5.76352">
        <ele>596.65</ele>
        <time>2024-01-30T19:22:32Z</time>
      </trkpt>
      <trkpt lat="44.34121" lon="5.76354">
        <ele>596.84</ele>
        <time>2024-01-30T19:22:33Z</time>
      </trkpt>
      <trkpt lat="44.34117" lon="5.76365">
        <ele>596.86</ele>
        <time>2024-01-30T19:22:35Z</time>
      </trkpt>
      <trkpt lat="44.3412" lon="5.76377">
        <ele>596.81</ele>
        <time>2024-01-30T19:22:36Z</time>
      </trkpt>
      <trkpt lat="44.34111" lon="5.7641">
        <ele>597.07</ele>
        <time>2024-01-30T19:22:40Z</time>
      </trkpt>
      <trkpt lat="44.341" lon="5.76434">
        <ele>597.25</ele>
        <time>2024-01-30T19:22:44Z</time>
      </trkpt>
      <trkpt lat="44.34091" lon="5.76451">
        <ele>597.2</ele>
        <time>2024-01-30T19:22:46Z</time>
      </trkpt>
      <trkpt lat="44.34035" lon="5.76559">
        <ele>596.17</ele>
        <time>2024-01-30T19:23:12Z</time>
      </trkpt>
      <trkpt lat="44.34032" lon="5.76575">
        <ele>595.87</ele>
        <time>2024-01-30T19:23:16Z</time>
      </trkpt>
      <trkpt lat="44.34044" lon="5.76618">
        <ele>594.81</ele>
        <time>2024-01-30T19:23:29Z</time>
      </trkpt>
      <trkpt lat="44.34062" lon="5.76655">
        <ele>594.67</ele>
        <time>2024-01-30T19:23:41Z</time>
      </trkpt>
      <trkpt lat="44.34063" lon="5.76664">
        <ele>594.06</ele>
        <time>2024-01-30T19:23:44Z</time>
      </trkpt>
      <trkpt lat="44.34059" lon="5.7667">
        <ele>592.84</ele>
        <time>2024-01-30T19:23:46Z</time>
      </trkpt>
      <trkpt lat="44.34051" lon="5.76676">
        <ele>589.11</ele>
        <time>2024-01-30T19:23:50Z</time>
      </trkpt>
      <trkpt lat="44.34029" lon="5.76689">
        <ele>586.89</ele>
        <time>2024-01-30T19:24:00Z</time>
      </trkpt>
      <trkpt lat="44.34022" lon="5.76695">
        <ele>587.76</ele>
        <time>2024-01-30T19:24:03Z</time>
      </trkpt>
      <trkpt lat="44.34018" lon="5.76698">
        <ele>587.93</ele>
        <time>2024-01-30T19:24:05Z</time>
      </trkpt>
      <trkpt lat="44.34014" lon="5.76713">
        <ele>588.88</ele>
        <time>2024-01-30T19:24:10Z</time>
      </trkpt>
      <trkpt lat="44.34024" lon="5.76795">
        <ele>590.17</ele>
        <time>2024-01-30T19:24:38Z</time>
      </trkpt>
      <trkpt lat="44.34024" lon="5.76817">
        <ele>590.66</ele>
        <time>2024-01-30T19:24:46Z</time>
      </trkpt>
      <trkpt lat="44.34" lon="5.76933">
        <ele>596.8</ele>
        <time>2024-01-30T19:25:28Z</time>
      </trkpt>
      <trkpt lat="44.33981" lon="5.77063">
        <ele>605.89</ele>
        <time>2024-01-30T19:26:11Z</time>
      </trkpt>
      <trkpt lat="44.33977" lon="5.77108">
        <ele>608.55</ele>
        <time>2024-01-30T19:26:26Z</time>
      </trkpt>
      <trkpt lat="44.33976" lon="5.77266">
        <ele>620.71</ele>
        <time>2024-01-30T19:27:10Z</time>
      </trkpt>
      <trkpt lat="44.33986" lon="5.77311">
        <ele>619.19</ele>
        <time>2024-01-30T19:27:18Z</time>
      </trkpt>
      <trkpt lat="44.33988" lon="5.77328">
        <ele>618.34</ele>
        <time>2024-01-30T19:27:20Z</time>
      </trkpt>
      <trkpt lat="44.33988" lon="5.77346">
        <ele>621.38</ele>
        <time>2024-01-30T19:27:22Z</time>
      </trkpt>
      <trkpt lat="44.33977" lon="5.77393">
        <ele>628.34</ele>
        <time>2024-01-30T19:27:28Z</time>
      </trkpt>
      <trkpt lat="44.33977" lon="5.77406">
        <ele>628.16</ele>
        <time>2024-01-30T19:27:29Z</time>
      </trkpt>
      <trkpt lat="44.33986" lon="5.77438">
        <ele>634.36</ele>
        <time>2024-01-30T19:27:33Z</time>
      </trkpt>
      <trkpt lat="44.34007" lon="5.77489">
        <ele>632.32</ele>
        <time>2024-01-30T19:27:40Z</time>
      </trkpt>
      <trkpt lat="44.34002" lon="5.77502">
        <ele>634.5</ele>
        <time>2024-01-30T19:27:41Z</time>
      </trkpt>
      <trkpt lat="44.33999" lon="5.77524">
        <ele>635.72</ele>
        <time>2024-01-30T19:27:44Z</time>
      </trkpt>
      <trkpt lat="44.33969" lon="5.77581">
        <ele>637.87</ele>
        <time>2024-01-30T19:27:51Z</time>
      </trkpt>
      <trkpt lat="44.33966" lon="5.77577">
        <ele>640.16</ele>
        <time>2024-01-30T19:27:52Z</time>
      </trkpt>
      <trkpt lat="44.33966" lon="5.77571">
        <ele>641.74</ele>
        <time>2024-01-30T19:27:53Z</time>
      </trkpt>
      <trkpt lat="44.33982" lon="5.7754">
        <ele>641.27</ele>
        <time>2024-01-30T19:27:56Z</time>
      </trkpt>
      <trkpt lat="44.33991" lon="5.77512">
        <ele>639.98</ele>
        <time>2024-01-30T19:28:00Z</time>
      </trkpt>
      <trkpt lat="44.3399" lon="5.77498">
        <ele>640.8</ele>
        <time>2024-01-30T19:28:01Z</time>
      </trkpt>
      <trkpt lat="44.33987" lon="5.77495">
        <ele>642.49</ele>
        <time>2024-01-30T19:28:02Z</time>
      </trkpt>
      <trkpt lat="44.33981" lon="5.77499">
        <ele>643.98</ele>
        <time>2024-01-30T19:28:04Z</time>
      </trkpt>
      <trkpt lat="44.33976" lon="5.77525">
        <ele>644.14</ele>
        <time>2024-01-30T19:28:07Z</time>
      </trkpt>
      <trkpt lat="44.33964" lon="5.77547">
        <ele>646.21</ele>
        <time>2024-01-30T19:28:12Z</time>
      </trkpt>
      <trkpt lat="44.33941" lon="5.77569">
        <ele>648.3</ele>
        <time>2024-01-30T19:28:17Z</time>
      </trkpt>
      <trkpt lat="44.33923" lon="5.77581">
        <ele>648.75</ele>
        <time>2024-01-30T19:28:22Z</time>
      </trkpt>
      <trkpt lat="44.33914" lon="5.77582">
        <ele>648.83</ele>
        <time>2024-01-30T19:28:23Z</time>
      </trkpt>
      <trkpt lat="44.33908" lon="5.77577">
        <ele>649.31</ele>
        <time>2024-01-30T19:28:24Z</time>
      </trkpt>
      <trkpt lat="44.33866" lon="5.77516">
        <ele>652.93</ele>
        <time>2024-01-30T19:28:33Z</time>
      </trkpt>
      <trkpt lat="44.33851" lon="5.77498">
        <ele>652.92</ele>
        <time>2024-01-30T19:28:36Z</time>
      </trkpt>
      <trkpt lat="44.33821" lon="5.77479">
        <ele>649.84</ele>
        <time>2024-01-30T19:28:41Z</time>
      </trkpt>
      <trkpt lat="44.33785" lon="5.77464">
        <ele>645.93</ele>
        <time>2024-01-30T19:28:47Z</time>
      </trkpt>
      <trkpt lat="44.33775" lon="5.77452">
        <ele>644.09</ele>
        <time>2024-01-30T19:28:49Z</time>
      </trkpt>
      <trkpt lat="44.33764" lon="5.77427">
        <ele>642.79</ele>
        <time>2024-01-30T19:28:52Z</time>
      </trkpt>
      <trkpt lat="44.33744" lon="5.77404">
        <ele>643.69</ele>
        <time>2024-01-30T19:28:56Z</time>
      </trkpt>
      <trkpt lat="44.33733" lon="5.774">
        <ele>643.5</ele>
        <time>2024-01-30T19:28:57Z</time>
      </trkpt>
      <trkpt lat="44.33714" lon="5.77402">
        <ele>638.68</ele>
        <time>2024-01-30T19:29:00Z</time>
      </trkpt>
      <trkpt lat="44.33697" lon="5.77392">
        <ele>635.62</ele>
        <time>2024-01-30T19:29:03Z</time>
      </trkpt>
      <trkpt lat="44.33682" lon="5.77368">
        <ele>634.72</ele>
        <time>2024-01-30T19:29:06Z</time>
      </trkpt>
      <trkpt lat="44.33672" lon="5.77326">
        <ele>635.55</ele>
        <time>2024-01-30T19:29:11Z</time>
      </trkpt>
      <trkpt lat="44.33667" lon="5.77318">
        <ele>635.83</ele>
        <time>2024-01-30T19:29:12Z</time>
      </trkpt>
      <trkpt lat="44.3366" lon="5.77312">
        <ele>635.37</ele>
        <time>2024-01-30T19:29:13Z</time>
      </trkpt>
      <trkpt lat="44.33642" lon="5.77305">
        <ele>635.92</ele>
        <time>2024-01-30T19:29:16Z</time>
      </trkpt>
      <trkpt lat="44.33607" lon="5.77299">
        <ele>633.63</ele>
        <time>2024-01-30T19:29:21Z</time>
      </trkpt>
      <trkpt lat="44.33584" lon="5.77281">
        <ele>633.7</ele>
        <time>2024-01-30T19:29:25Z</time>
      </trkpt>
      <trkpt lat="44.33546" lon="5.77265">
        <ele>630.5</ele>
        <time>2024-01-30T19:29:31Z</time>
      </trkpt>
      <trkpt lat="44.33506" lon="5.77237">
        <ele>628.74</ele>
        <time>2024-01-30T19:29:37Z</time>
      </trkpt>
      <trkpt lat="44.33498" lon="5.77236">
        <ele>628.27</ele>
        <time>2024-01-30T19:29:38Z</time>
      </trkpt>
      <trkpt lat="44.3349" lon="5.7724">
        <ele>627.38</ele>
        <time>2024-01-30T19:29:39Z</time>
      </trkpt>
      <trkpt lat="44.33478" lon="5.77254">
        <ele>623.69</ele>
        <time>2024-01-30T19:29:42Z</time>
      </trkpt>
      <trkpt lat="44.33462" lon="5.77265">
        <ele>621.43</ele>
        <time>2024-01-30T19:29:44Z</time>
      </trkpt>
      <trkpt lat="44.33424" lon="5.77267">
        <ele>619.99</ele>
        <time>2024-01-30T19:29:49Z</time>
      </trkpt>
      <trkpt lat="44.33385" lon="5.77266">
        <ele>618.02</ele>
        <time>2024-01-30T19:29:54Z</time>
      </trkpt>
      <trkpt lat="44.33326" lon="5.77246">
        <ele>616.84</ele>
        <time>2024-01-30T19:30:03Z</time>
      </trkpt>
      <trkpt lat="44.33286" lon="5.77245">
        <ele>613.76</ele>
        <time>2024-01-30T19:30:08Z</time>
      </trkpt>
      <trkpt lat="44.33239" lon="5.77236">
        <ele>612.2</ele>
        <time>2024-01-30T19:30:15Z</time>
      </trkpt>
      <trkpt lat="44.33219" lon="5.77241">
        <ele>610.59</ele>
        <time>2024-01-30T19:30:19Z</time>
      </trkpt>
      <trkpt lat="44.332" lon="5.77252">
        <ele>607.84</ele>
        <time>2024-01-30T19:30:22Z</time>
      </trkpt>
      <trkpt lat="44.33162" lon="5.77268">
        <ele>605.73</ele>
        <time>2024-01-30T19:30:29Z</time>
      </trkpt>
      <trkpt lat="44.33162" lon="5.77242">
        <ele>609.22</ele>
        <time>2024-01-30T19:30:35Z</time>
      </trkpt>
      <trkpt lat="44.33148" lon="5.77231">
        <ele>611.02</ele>
        <time>2024-01-30T19:30:40Z</time>
      </trkpt>
      <trkpt lat="44.33104" lon="5.77223">
        <ele>611.71</ele>
        <time>2024-01-30T19:30:56Z</time>
      </trkpt>
      <trkpt lat="44.33055" lon="5.7722">
        <ele>611.69</ele>
        <time>2024-01-30T19:31:12Z</time>
      </trkpt>
      <trkpt lat="44.33001" lon="5.77199">
        <ele>614.94</ele>
        <time>2024-01-30T19:31:31Z</time>
      </trkpt>
      <trkpt lat="44.32968" lon="5.77204">
        <ele>613.86</ele>
        <time>2024-01-30T19:31:42Z</time>
      </trkpt>
      <trkpt lat="44.32932" lon="5.77231">
        <ele>612.64</ele>
        <time>2024-01-30T19:31:55Z</time>
      </trkpt>
      <trkpt lat="44.32851" lon="5.77222">
        <ele>611.78</ele>
        <time>2024-01-30T19:32:21Z</time>
      </trkpt>
      <trkpt lat="44.32754" lon="5.77179">
        <ele>615.4</ele>
        <time>2024-01-30T19:32:55Z</time>
      </trkpt>
      <trkpt lat="44.32739" lon="5.77162">
        <ele>617.32</ele>
        <time>2024-01-30T19:33:02Z</time>
      </trkpt>
      <trkpt lat="44.32672" lon="5.77126">
        <ele>619.36</ele>
        <time>2024-01-30T19:33:29Z</time>
      </trkpt>
      <trkpt lat="44.32639" lon="5.77121">
        <ele>617.34</ele>
        <time>2024-01-30T19:33:41Z</time>
      </trkpt>
      <trkpt lat="44.3259" lon="5.77142">
        <ele>614.56</ele>
        <time>2024-01-30T19:34:00Z</time>
      </trkpt>
      <trkpt lat="44.32543" lon="5.77142">
        <ele>614.1</ele>
        <time>2024-01-30T19:34:18Z</time>
      </trkpt>
      <trkpt lat="44.32513" lon="5.77139">
        <ele>614.1</ele>
        <time>2024-01-30T19:34:29Z</time>
      </trkpt>
      <trkpt lat="44.32481" lon="5.77127">
        <ele>614.91</ele>
        <time>2024-01-30T19:34:43Z</time>
      </trkpt>
      <trkpt lat="44.32445" lon="5.77118">
        <ele>616.24</ele>
        <time>2024-01-30T19:34:58Z</time>
      </trkpt>
      <trkpt lat="44.32419" lon="5.77102">
        <ele>617.21</ele>
        <time>2024-01-30T19:35:10Z</time>
      </trkpt>
      <trkpt lat="44.32354" lon="5.77078">
        <ele>620.06</ele>
        <time>2024-01-30T19:35:40Z</time>
      </trkpt>
      <trkpt lat="44.32342" lon="5.77084">
        <ele>620.34</ele>
        <time>2024-01-30T19:35:46Z</time>
      </trkpt>
      <trkpt lat="44.32324" lon="5.77109">
        <ele>620.69</ele>
        <time>2024-01-30T19:35:58Z</time>
      </trkpt>
      <trkpt lat="44.32245" lon="5.77164">
        <ele>625.06</ele>
        <time>2024-01-30T19:36:35Z</time>
      </trkpt>
      <trkpt lat="44.3223" lon="5.77178">
        <ele>625.82</ele>
        <time>2024-01-30T19:36:41Z</time>
      </trkpt>
      <trkpt lat="44.32193" lon="5.77184">
        <ele>628.26</ele>
        <time>2024-01-30T19:36:54Z</time>
      </trkpt>
      <trkpt lat="44.32204" lon="5.77244">
        <ele>626.94</ele>
        <time>2024-01-30T19:37:08Z</time>
      </trkpt>
      <trkpt lat="44.32226" lon="5.77389">
        <ele>622.86</ele>
        <time>2024-01-30T19:37:40Z</time>
      </trkpt>
      <trkpt lat="44.32204" lon="5.77452">
        <ele>622.97</ele>
        <time>2024-01-30T19:37:54Z</time>
      </trkpt>
      <trkpt lat="44.32192" lon="5.77474">
        <ele>623.55</ele>
        <time>2024-01-30T19:37:59Z</time>
      </trkpt>
      <trkpt lat="44.32177" lon="5.77503">
        <ele>624.03</ele>
        <time>2024-01-30T19:38:05Z</time>
      </trkpt>
      <trkpt lat="44.32179" lon="5.77512">
        <ele>623.7</ele>
        <time>2024-01-30T19:38:07Z</time>
      </trkpt>
      <trkpt lat="44.32172" lon="5.77517">
        <ele>624.12</ele>
        <time>2024-01-30T19:38:08Z</time>
      </trkpt>
      <trkpt lat="44.32103" lon="5.7756">
        <ele>626.59</ele>
        <time>2024-01-30T19:38:24Z</time>
      </trkpt>
      <trkpt lat="44.32039" lon="5.77601">
        <ele>628.55</ele>
        <time>2024-01-30T19:38:38Z</time>
      </trkpt>
      <trkpt lat="44.3193" lon="5.77661">
        <ele>629.33</ele>
        <time>2024-01-30T19:39:10Z</time>
      </trkpt>
      <trkpt lat="44.32101" lon="5.78164">
        <ele>603.28</ele>
        <time>2024-01-30T19:40:42Z</time>
      </trkpt>
      <trkpt lat="44.3206" lon="5.78204">
        <ele>603.15</ele>
        <time>2024-01-30T19:40:48Z</time>
      </trkpt>
      <trkpt lat="44.31977" lon="5.78285">
        <ele>603.21</ele>
        <time>2024-01-30T19:41:02Z</time>
      </trkpt>
      <trkpt lat="44.31962" lon="5.78298">
        <ele>602.44</ele>
        <time>2024-01-30T19:41:05Z</time>
      </trkpt>
      <trkpt lat="44.31941" lon="5.78309">
        <ele>600.76</ele>
        <time>2024-01-30T19:41:09Z</time>
      </trkpt>
      <trkpt lat="44.31918" lon="5.78309">
        <ele>598</ele>
        <time>2024-01-30T19:41:13Z</time>
      </trkpt>
      <trkpt lat="44.31909" lon="5.78306">
        <ele>596.72</ele>
        <time>2024-01-30T19:41:14Z</time>
      </trkpt>
      <trkpt lat="44.31886" lon="5.78292">
        <ele>595.99</ele>
        <time>2024-01-30T19:41:18Z</time>
      </trkpt>
      <trkpt lat="44.31854" lon="5.78284">
        <ele>593.72</ele>
        <time>2024-01-30T19:41:24Z</time>
      </trkpt>
      <trkpt lat="44.31833" lon="5.78268">
        <ele>594.04</ele>
        <time>2024-01-30T19:41:28Z</time>
      </trkpt>
      <trkpt lat="44.31825" lon="5.78267">
        <ele>594.3</ele>
        <time>2024-01-30T19:41:30Z</time>
      </trkpt>
      <trkpt lat="44.31818" lon="5.78269">
        <ele>593.38</ele>
        <time>2024-01-30T19:41:31Z</time>
      </trkpt>
      <trkpt lat="44.31812" lon="5.78277">
        <ele>593.98</ele>
        <time>2024-01-30T19:41:33Z</time>
      </trkpt>
      <trkpt lat="44.31809" lon="5.78289">
        <ele>594.29</ele>
        <time>2024-01-30T19:41:34Z</time>
      </trkpt>
      <trkpt lat="44.31812" lon="5.78328">
        <ele>595.14</ele>
        <time>2024-01-30T19:41:40Z</time>
      </trkpt>
      <trkpt lat="44.31811" lon="5.78352">
        <ele>597.7</ele>
        <time>2024-01-30T19:41:43Z</time>
      </trkpt>
      <trkpt lat="44.31796" lon="5.78388">
        <ele>599.34</ele>
        <time>2024-01-30T19:41:50Z</time>
      </trkpt>
      <trkpt lat="44.31789" lon="5.784">
        <ele>599.49</ele>
        <time>2024-01-30T19:41:52Z</time>
      </trkpt>
      <trkpt lat="44.31755" lon="5.78468">
        <ele>598.65</ele>
        <time>2024-01-30T19:42:09Z</time>
      </trkpt>
      <trkpt lat="44.31731" lon="5.78499">
        <ele>597.76</ele>
        <time>2024-01-30T19:42:20Z</time>
      </trkpt>
      <trkpt lat="44.31722" lon="5.78507">
        <ele>597.66</ele>
        <time>2024-01-30T19:42:24Z</time>
      </trkpt>
      <trkpt lat="44.31691" lon="5.78521">
        <ele>598.06</ele>
        <time>2024-01-30T19:42:36Z</time>
      </trkpt>
      <trkpt lat="44.31615" lon="5.78554">
        <ele>604.31</ele>
        <time>2024-01-30T19:43:06Z</time>
      </trkpt>
      <trkpt lat="44.31602" lon="5.78568">
        <ele>605.56</ele>
        <time>2024-01-30T19:43:13Z</time>
      </trkpt>
      <trkpt lat="44.31598" lon="5.78578">
        <ele>606.47</ele>
        <time>2024-01-30T19:43:16Z</time>
      </trkpt>
      <trkpt lat="44.31593" lon="5.78604">
        <ele>607.36</ele>
        <time>2024-01-30T19:43:23Z</time>
      </trkpt>
      <trkpt lat="44.31595" lon="5.78715">
        <ele>603.71</ele>
        <time>2024-01-30T19:43:48Z</time>
      </trkpt>
      <trkpt lat="44.3159" lon="5.78804">
        <ele>598.92</ele>
        <time>2024-01-30T19:43:57Z</time>
      </trkpt>
      <trkpt lat="44.31584" lon="5.78847">
        <ele>598.97</ele>
        <time>2024-01-30T19:44:01Z</time>
      </trkpt>
      <trkpt lat="44.31569" lon="5.7897">
        <ele>590.78</ele>
        <time>2024-01-30T19:44:13Z</time>
      </trkpt>
      <trkpt lat="44.31559" lon="5.79009">
        <ele>589.57</ele>
        <time>2024-01-30T19:44:17Z</time>
      </trkpt>
      <trkpt lat="44.31528" lon="5.79093">
        <ele>592.23</ele>
        <time>2024-01-30T19:44:27Z</time>
      </trkpt>
      <trkpt lat="44.31501" lon="5.79176">
        <ele>591.19</ele>
        <time>2024-01-30T19:44:42Z</time>
      </trkpt>
      <trkpt lat="44.31471" lon="5.79241">
        <ele>595.16</ele>
        <time>2024-01-30T19:45:00Z</time>
      </trkpt>
      <trkpt lat="44.31461" lon="5.79279">
        <ele>597.09</ele>
        <time>2024-01-30T19:45:11Z</time>
      </trkpt>
      <trkpt lat="44.31452" lon="5.79334">
        <ele>599.75</ele>
        <time>2024-01-30T19:45:26Z</time>
      </trkpt>
      <trkpt lat="44.31451" lon="5.79353">
        <ele>600.79</ele>
        <time>2024-01-30T19:45:31Z</time>
      </trkpt>
      <trkpt lat="44.31457" lon="5.79428">
        <ele>604.57</ele>
        <time>2024-01-30T19:45:50Z</time>
      </trkpt>
      <trkpt lat="44.31457" lon="5.79447">
        <ele>605.59</ele>
        <time>2024-01-30T19:45:54Z</time>
      </trkpt>
      <trkpt lat="44.31452" lon="5.79485">
        <ele>607.06</ele>
        <time>2024-01-30T19:46:03Z</time>
      </trkpt>
      <trkpt lat="44.31394" lon="5.79706">
        <ele>617.68</ele>
        <time>2024-01-30T19:46:46Z</time>
      </trkpt>
      <trkpt lat="44.31379" lon="5.79742">
        <ele>616.54</ele>
        <time>2024-01-30T19:46:54Z</time>
      </trkpt>
      <trkpt lat="44.31345" lon="5.79798">
        <ele>616.23</ele>
        <time>2024-01-30T19:47:12Z</time>
      </trkpt>
      <trkpt lat="44.31284" lon="5.79886">
        <ele>617.14</ele>
        <time>2024-01-30T19:47:45Z</time>
      </trkpt>
      <trkpt lat="44.31247" lon="5.79933">
        <ele>618.82</ele>
        <time>2024-01-30T19:48:03Z</time>
      </trkpt>
      <trkpt lat="44.31232" lon="5.79956">
        <ele>620.23</ele>
        <time>2024-01-30T19:48:13Z</time>
      </trkpt>
      <trkpt lat="44.31223" lon="5.79986">
        <ele>621.17</ele>
        <time>2024-01-30T19:48:23Z</time>
      </trkpt>
      <trkpt lat="44.31223" lon="5.8002">
        <ele>621.05</ele>
        <time>2024-01-30T19:48:34Z</time>
      </trkpt>
      <trkpt lat="44.31218" lon="5.80055">
        <ele>620.22</ele>
        <time>2024-01-30T19:48:46Z</time>
      </trkpt>
      <trkpt lat="44.31212" lon="5.80072">
        <ele>619.26</ele>
        <time>2024-01-30T19:48:52Z</time>
      </trkpt>
      <trkpt lat="44.31185" lon="5.80114">
        <ele>620.78</ele>
        <time>2024-01-30T19:49:11Z</time>
      </trkpt>
      <trkpt lat="44.31156" lon="5.80204">
        <ele>623.32</ele>
        <time>2024-01-30T19:49:38Z</time>
      </trkpt>
      <trkpt lat="44.31126" lon="5.80266">
        <ele>628.55</ele>
        <time>2024-01-30T19:49:56Z</time>
      </trkpt>
      <trkpt lat="44.3111" lon="5.80313">
        <ele>630.03</ele>
        <time>2024-01-30T19:50:06Z</time>
      </trkpt>
      <trkpt lat="44.31109" lon="5.80331">
        <ele>629.12</ele>
        <time>2024-01-30T19:50:09Z</time>
      </trkpt>
      <trkpt lat="44.31112" lon="5.80404">
        <ele>632.73</ele>
        <time>2024-01-30T19:50:19Z</time>
      </trkpt>
      <trkpt lat="44.31117" lon="5.80455">
        <ele>628.3</ele>
        <time>2024-01-30T19:50:24Z</time>
      </trkpt>
      <trkpt lat="44.31116" lon="5.80472">
        <ele>629.78</ele>
        <time>2024-01-30T19:50:26Z</time>
      </trkpt>
      <trkpt lat="44.31079" lon="5.80616">
        <ele>630.14</ele>
        <time>2024-01-30T19:50:40Z</time>
      </trkpt>
      <trkpt lat="44.31046" lon="5.80736">
        <ele>628.7</ele>
        <time>2024-01-30T19:50:52Z</time>
      </trkpt>
      <trkpt lat="44.31033" lon="5.80772">
        <ele>627.26</ele>
        <time>2024-01-30T19:50:56Z</time>
      </trkpt>
      <trkpt lat="44.31004" lon="5.80839">
        <ele>626.29</ele>
        <time>2024-01-30T19:51:04Z</time>
      </trkpt>
      <trkpt lat="44.30995" lon="5.80896">
        <ele>623.99</ele>
        <time>2024-01-30T19:51:11Z</time>
      </trkpt>
      <trkpt lat="44.30979" lon="5.80948">
        <ele>621.21</ele>
        <time>2024-01-30T19:51:18Z</time>
      </trkpt>
      <trkpt lat="44.30942" lon="5.81014">
        <ele>620.37</ele>
        <time>2024-01-30T19:51:30Z</time>
      </trkpt>
      <trkpt lat="44.30925" lon="5.81052">
        <ele>619</ele>
        <time>2024-01-30T19:51:35Z</time>
      </trkpt>
      <trkpt lat="44.30898" lon="5.81157">
        <ele>616.1</ele>
        <time>2024-01-30T19:51:51Z</time>
      </trkpt>
      <trkpt lat="44.3084" lon="5.8135">
        <ele>615.48</ele>
        <time>2024-01-30T19:52:12Z</time>
      </trkpt>
      <trkpt lat="44.30827" lon="5.81445">
        <ele>606.48</ele>
        <time>2024-01-30T19:52:20Z</time>
      </trkpt>
      <trkpt lat="44.3081" lon="5.81527">
        <ele>601.84</ele>
        <time>2024-01-30T19:52:27Z</time>
      </trkpt>
      <trkpt lat="44.30798" lon="5.81616">
        <ele>595.84</ele>
        <time>2024-01-30T19:52:34Z</time>
      </trkpt>
      <trkpt lat="44.30787" lon="5.81676">
        <ele>592.65</ele>
        <time>2024-01-30T19:52:39Z</time>
      </trkpt>
      <trkpt lat="44.30743" lon="5.81825">
        <ele>583.34</ele>
        <time>2024-01-30T19:52:53Z</time>
      </trkpt>
      <trkpt lat="44.30712" lon="5.81965">
        <ele>578.93</ele>
        <time>2024-01-30T19:53:05Z</time>
      </trkpt>
      <trkpt lat="44.30704" lon="5.8203">
        <ele>575.36</ele>
        <time>2024-01-30T19:53:10Z</time>
      </trkpt>
      <trkpt lat="44.3071" lon="5.82072">
        <ele>571.19</ele>
        <time>2024-01-30T19:53:13Z</time>
      </trkpt>
      <trkpt lat="44.30717" lon="5.82106">
        <ele>566.99</ele>
        <time>2024-01-30T19:53:16Z</time>
      </trkpt>
      <trkpt lat="44.30715" lon="5.82143">
        <ele>563.87</ele>
        <time>2024-01-30T19:53:19Z</time>
      </trkpt>
      <trkpt lat="44.30711" lon="5.82161">
        <ele>563.63</ele>
        <time>2024-01-30T19:53:21Z</time>
      </trkpt>
      <trkpt lat="44.307" lon="5.8219">
        <ele>563.81</ele>
        <time>2024-01-30T19:53:23Z</time>
      </trkpt>
      <trkpt lat="44.30683" lon="5.82219">
        <ele>562.97</ele>
        <time>2024-01-30T19:53:26Z</time>
      </trkpt>
      <trkpt lat="44.30689" lon="5.82233">
        <ele>559.74</ele>
        <time>2024-01-30T19:53:28Z</time>
      </trkpt>
      <trkpt lat="44.30667" lon="5.82261">
        <ele>559.23</ele>
        <time>2024-01-30T19:53:31Z</time>
      </trkpt>
      <trkpt lat="44.30636" lon="5.82286">
        <ele>558.75</ele>
        <time>2024-01-30T19:53:36Z</time>
      </trkpt>
      <trkpt lat="44.30609" lon="5.823">
        <ele>558.83</ele>
        <time>2024-01-30T19:53:39Z</time>
      </trkpt>
      <trkpt lat="44.3058" lon="5.82307">
        <ele>558.69</ele>
        <time>2024-01-30T19:53:43Z</time>
      </trkpt>
      <trkpt lat="44.30494" lon="5.82319">
        <ele>558.91</ele>
        <time>2024-01-30T19:53:57Z</time>
      </trkpt>
      <trkpt lat="44.30391" lon="5.82322">
        <ele>561.34</ele>
        <time>2024-01-30T19:54:16Z</time>
      </trkpt>
      <trkpt lat="44.30247" lon="5.82349">
        <ele>556.29</ele>
        <time>2024-01-30T19:54:40Z</time>
      </trkpt>
      <trkpt lat="44.30207" lon="5.82352">
        <ele>557.39</ele>
        <time>2024-01-30T19:54:47Z</time>
      </trkpt>
      <trkpt lat="44.30079" lon="5.82345">
        <ele>558.86</ele>
        <time>2024-01-30T19:55:06Z</time>
      </trkpt>
      <trkpt lat="44.30023" lon="5.82338">
        <ele>560.18</ele>
        <time>2024-01-30T19:55:15Z</time>
      </trkpt>
      <trkpt lat="44.29954" lon="5.82316">
        <ele>560.25</ele>
        <time>2024-01-30T19:55:27Z</time>
      </trkpt>
      <trkpt lat="44.29853" lon="5.82264">
        <ele>560.53</ele>
        <time>2024-01-30T19:55:45Z</time>
      </trkpt>
      <trkpt lat="44.29811" lon="5.82253">
        <ele>560.96</ele>
        <time>2024-01-30T19:55:52Z</time>
      </trkpt>
      <trkpt lat="44.2975" lon="5.8224">
        <ele>559.76</ele>
        <time>2024-01-30T19:56:03Z</time>
      </trkpt>
      <trkpt lat="44.29708" lon="5.82217">
        <ele>557.65</ele>
        <time>2024-01-30T19:56:12Z</time>
      </trkpt>
      <trkpt lat="44.29673" lon="5.82187">
        <ele>556.98</ele>
        <time>2024-01-30T19:56:22Z</time>
      </trkpt>
      <trkpt lat="44.29638" lon="5.8215">
        <ele>557.23</ele>
        <time>2024-01-30T19:56:34Z</time>
      </trkpt>
      <trkpt lat="44.29605" lon="5.82126">
        <ele>557.93</ele>
        <time>2024-01-30T19:56:45Z</time>
      </trkpt>
      <trkpt lat="44.29585" lon="5.82117">
        <ele>559.37</ele>
        <time>2024-01-30T19:56:52Z</time>
      </trkpt>
      <trkpt lat="44.2957" lon="5.8211">
        <ele>560.49</ele>
        <time>2024-01-30T19:56:58Z</time>
      </trkpt>
      <trkpt lat="44.29534" lon="5.82102">
        <ele>561.57</ele>
        <time>2024-01-30T19:57:10Z</time>
      </trkpt>
      <trkpt lat="44.295" lon="5.82099">
        <ele>563.68</ele>
        <time>2024-01-30T19:57:20Z</time>
      </trkpt>
      <trkpt lat="44.29473" lon="5.82103">
        <ele>563.8</ele>
        <time>2024-01-30T19:57:28Z</time>
      </trkpt>
      <trkpt lat="44.2945" lon="5.82116">
        <ele>562.93</ele>
        <time>2024-01-30T19:57:35Z</time>
      </trkpt>
      <trkpt lat="44.29436" lon="5.82129">
        <ele>561.61</ele>
        <time>2024-01-30T19:57:39Z</time>
      </trkpt>
      <trkpt lat="44.29387" lon="5.82184">
        <ele>560</ele>
        <time>2024-01-30T19:57:50Z</time>
      </trkpt>
      <trkpt lat="44.29364" lon="5.82206">
        <ele>560.77</ele>
        <time>2024-01-30T19:57:55Z</time>
      </trkpt>
      <trkpt lat="44.29321" lon="5.82227">
        <ele>561.57</ele>
        <time>2024-01-30T19:58:01Z</time>
      </trkpt>
      <trkpt lat="44.29295" lon="5.82238">
        <ele>561.04</ele>
        <time>2024-01-30T19:58:05Z</time>
      </trkpt>
      <trkpt lat="44.2926" lon="5.82253">
        <ele>559.75</ele>
        <time>2024-01-30T19:58:11Z</time>
      </trkpt>
      <trkpt lat="44.29218" lon="5.82263">
        <ele>557.62</ele>
        <time>2024-01-30T19:58:17Z</time>
      </trkpt>
      <trkpt lat="44.29098" lon="5.82275">
        <ele>563.84</ele>
        <time>2024-01-30T19:58:36Z</time>
      </trkpt>
      <trkpt lat="44.28939" lon="5.82286">
        <ele>564.61</ele>
        <time>2024-01-30T19:59:15Z</time>
      </trkpt>
      <trkpt lat="44.28902" lon="5.82281">
        <ele>564.73</ele>
        <time>2024-01-30T19:59:23Z</time>
      </trkpt>
      <trkpt lat="44.28892" lon="5.82275">
        <ele>565.15</ele>
        <time>2024-01-30T19:59:25Z</time>
      </trkpt>
      <trkpt lat="44.28876" lon="5.82265">
        <ele>566.52</ele>
        <time>2024-01-30T19:59:29Z</time>
      </trkpt>
      <trkpt lat="44.28809" lon="5.82204">
        <ele>567.7</ele>
        <time>2024-01-30T19:59:42Z</time>
      </trkpt>
      <trkpt lat="44.28741" lon="5.82162">
        <ele>565.47</ele>
        <time>2024-01-30T19:59:53Z</time>
      </trkpt>
      <trkpt lat="44.28594" lon="5.82109">
        <ele>556.82</ele>
        <time>2024-01-30T20:00:13Z</time>
      </trkpt>
      <trkpt lat="44.28466" lon="5.82046">
        <ele>553.14</ele>
        <time>2024-01-30T20:00:32Z</time>
      </trkpt>
      <trkpt lat="44.28436" lon="5.82034">
        <ele>552.33</ele>
        <time>2024-01-30T20:00:37Z</time>
      </trkpt>
      <trkpt lat="44.28428" lon="5.82032">
        <ele>551.85</ele>
        <time>2024-01-30T20:00:38Z</time>
      </trkpt>
      <trkpt lat="44.2838" lon="5.82024">
        <ele>550.46</ele>
        <time>2024-01-30T20:00:46Z</time>
      </trkpt>
      <trkpt lat="44.28272" lon="5.82022">
        <ele>550.79</ele>
        <time>2024-01-30T20:01:04Z</time>
      </trkpt>
      <trkpt lat="44.28248" lon="5.82019">
        <ele>550.51</ele>
        <time>2024-01-30T20:01:08Z</time>
      </trkpt>
      <trkpt lat="44.28226" lon="5.82012">
        <ele>549.98</ele>
        <time>2024-01-30T20:01:12Z</time>
      </trkpt>
      <trkpt lat="44.28199" lon="5.81998">
        <ele>548.67</ele>
        <time>2024-01-30T20:01:16Z</time>
      </trkpt>
      <trkpt lat="44.27908" lon="5.81811">
        <ele>547.24</ele>
        <time>2024-01-30T20:02:08Z</time>
      </trkpt>
      <trkpt lat="44.27757" lon="5.81713">
        <ele>543.37</ele>
        <time>2024-01-30T20:02:33Z</time>
      </trkpt>
      <trkpt lat="44.27715" lon="5.81686">
        <ele>542.68</ele>
        <time>2024-01-30T20:02:40Z</time>
      </trkpt>
      <trkpt lat="44.27691" lon="5.81679">
        <ele>541.92</ele>
        <time>2024-01-30T20:02:44Z</time>
      </trkpt>
      <trkpt lat="44.27675" lon="5.81678">
        <ele>541.37</ele>
        <time>2024-01-30T20:02:46Z</time>
      </trkpt>
      <trkpt lat="44.27645" lon="5.81684">
        <ele>540.59</ele>
        <time>2024-01-30T20:02:51Z</time>
      </trkpt>
      <trkpt lat="44.27363" lon="5.81794">
        <ele>536.17</ele>
        <time>2024-01-30T20:03:35Z</time>
      </trkpt>
      <trkpt lat="44.26876" lon="5.81986">
        <ele>532.62</ele>
        <time>2024-01-30T20:04:53Z</time>
      </trkpt>
      <trkpt lat="44.26863" lon="5.81991">
        <ele>532.58</ele>
        <time>2024-01-30T20:04:55Z</time>
      </trkpt>
      <trkpt lat="44.26508" lon="5.82129">
        <ele>525.57</ele>
        <time>2024-01-30T20:05:53Z</time>
      </trkpt>
      <trkpt lat="44.26406" lon="5.82164">
        <ele>524.82</ele>
        <time>2024-01-30T20:06:11Z</time>
      </trkpt>
      <trkpt lat="44.26333" lon="5.82196">
        <ele>522.08</ele>
        <time>2024-01-30T20:06:27Z</time>
      </trkpt>
      <trkpt lat="44.26299" lon="5.82215">
        <ele>523.98</ele>
        <time>2024-01-30T20:06:35Z</time>
      </trkpt>
      <trkpt lat="44.26244" lon="5.82244">
        <ele>525.56</ele>
        <time>2024-01-30T20:06:48Z</time>
      </trkpt>
      <trkpt lat="44.26094" lon="5.82319">
        <ele>528</ele>
        <time>2024-01-30T20:07:23Z</time>
      </trkpt>
      <trkpt lat="44.26068" lon="5.82329">
        <ele>528.22</ele>
        <time>2024-01-30T20:07:28Z</time>
      </trkpt>
      <trkpt lat="44.259" lon="5.8235">
        <ele>531.27</ele>
        <time>2024-01-30T20:08:03Z</time>
      </trkpt>
      <trkpt lat="44.25874" lon="5.82357">
        <ele>531.62</ele>
        <time>2024-01-30T20:08:08Z</time>
      </trkpt>
      <trkpt lat="44.25844" lon="5.82369">
        <ele>530.6</ele>
        <time>2024-01-30T20:08:15Z</time>
      </trkpt>
      <trkpt lat="44.25798" lon="5.82398">
        <ele>528.92</ele>
        <time>2024-01-30T20:08:25Z</time>
      </trkpt>
      <trkpt lat="44.25728" lon="5.82463">
        <ele>527.32</ele>
        <time>2024-01-30T20:08:43Z</time>
      </trkpt>
      <trkpt lat="44.25678" lon="5.82519">
        <ele>527.44</ele>
        <time>2024-01-30T20:08:58Z</time>
      </trkpt>
      <trkpt lat="44.25648" lon="5.82561">
        <ele>526.21</ele>
        <time>2024-01-30T20:09:07Z</time>
      </trkpt>
      <trkpt lat="44.25604" lon="5.82635">
        <ele>524.6</ele>
        <time>2024-01-30T20:09:20Z</time>
      </trkpt>
      <trkpt lat="44.2558" lon="5.82682">
        <ele>524.92</ele>
        <time>2024-01-30T20:09:27Z</time>
      </trkpt>
      <trkpt lat="44.25536" lon="5.82793">
        <ele>521.48</ele>
        <time>2024-01-30T20:09:41Z</time>
      </trkpt>
      <trkpt lat="44.25475" lon="5.83014">
        <ele>519.37</ele>
        <time>2024-01-30T20:10:04Z</time>
      </trkpt>
      <trkpt lat="44.25463" lon="5.83048">
        <ele>519.47</ele>
        <time>2024-01-30T20:10:09Z</time>
      </trkpt>
      <trkpt lat="44.25446" lon="5.83085">
        <ele>519.77</ele>
        <time>2024-01-30T20:10:14Z</time>
      </trkpt>
      <trkpt lat="44.25424" lon="5.83123">
        <ele>520.46</ele>
        <time>2024-01-30T20:10:21Z</time>
      </trkpt>
      <trkpt lat="44.25405" lon="5.83151">
        <ele>520.52</ele>
        <time>2024-01-30T20:10:27Z</time>
      </trkpt>
      <trkpt lat="44.25381" lon="5.83179">
        <ele>521.33</ele>
        <time>2024-01-30T20:10:35Z</time>
      </trkpt>
      <trkpt lat="44.25299" lon="5.8326">
        <ele>523.84</ele>
        <time>2024-01-30T20:11:01Z</time>
      </trkpt>
      <trkpt lat="44.25258" lon="5.833">
        <ele>526.69</ele>
        <time>2024-01-30T20:11:14Z</time>
      </trkpt>
      <trkpt lat="44.25169" lon="5.83372">
        <ele>530.15</ele>
        <time>2024-01-30T20:11:41Z</time>
      </trkpt>
      <trkpt lat="44.25151" lon="5.8339">
        <ele>529.45</ele>
        <time>2024-01-30T20:11:47Z</time>
      </trkpt>
      <trkpt lat="44.25125" lon="5.83424">
        <ele>530.48</ele>
        <time>2024-01-30T20:11:56Z</time>
      </trkpt>
      <trkpt lat="44.25096" lon="5.83482">
        <ele>531.27</ele>
        <time>2024-01-30T20:12:10Z</time>
      </trkpt>
      <trkpt lat="44.25081" lon="5.83532">
        <ele>531.95</ele>
        <time>2024-01-30T20:12:21Z</time>
      </trkpt>
      <trkpt lat="44.2506" lon="5.83634">
        <ele>533.21</ele>
        <time>2024-01-30T20:12:42Z</time>
      </trkpt>
      <trkpt lat="44.24999" lon="5.83935">
        <ele>539.33</ele>
        <time>2024-01-30T20:13:38Z</time>
      </trkpt>
      <trkpt lat="44.2498" lon="5.83986">
        <ele>540.22</ele>
        <time>2024-01-30T20:13:47Z</time>
      </trkpt>
      <trkpt lat="44.24964" lon="5.84009">
        <ele>540.66</ele>
        <time>2024-01-30T20:13:51Z</time>
      </trkpt>
      <trkpt lat="44.24943" lon="5.8403">
        <ele>541.01</ele>
        <time>2024-01-30T20:13:56Z</time>
      </trkpt>
      <trkpt lat="44.24688" lon="5.84239">
        <ele>541.49</ele>
        <time>2024-01-30T20:14:46Z</time>
      </trkpt>
      <trkpt lat="44.24674" lon="5.8425">
        <ele>539.31</ele>
        <time>2024-01-30T20:14:49Z</time>
      </trkpt>
      <trkpt lat="44.24654" lon="5.84266">
        <ele>537.25</ele>
        <time>2024-01-30T20:14:53Z</time>
      </trkpt>
      <trkpt lat="44.2463" lon="5.84285">
        <ele>541.03</ele>
        <time>2024-01-30T20:14:57Z</time>
      </trkpt>
      <trkpt lat="44.24624" lon="5.8429">
        <ele>541.08</ele>
        <time>2024-01-30T20:14:58Z</time>
      </trkpt>
      <trkpt lat="44.24345" lon="5.84512">
        <ele>533.8</ele>
        <time>2024-01-30T20:15:46Z</time>
      </trkpt>
      <trkpt lat="44.2426" lon="5.8458">
        <ele>530.77</ele>
        <time>2024-01-30T20:16:00Z</time>
      </trkpt>
      <trkpt lat="44.24043" lon="5.84754">
        <ele>525.84</ele>
        <time>2024-01-30T20:16:37Z</time>
      </trkpt>
      <trkpt lat="44.24032" lon="5.84763">
        <ele>525.55</ele>
        <time>2024-01-30T20:16:39Z</time>
      </trkpt>
      <trkpt lat="44.23662" lon="5.85062">
        <ele>522.64</ele>
        <time>2024-01-30T20:17:51Z</time>
      </trkpt>
      <trkpt lat="44.23639" lon="5.8509">
        <ele>522.93</ele>
        <time>2024-01-30T20:17:57Z</time>
      </trkpt>
      <trkpt lat="44.23623" lon="5.85125">
        <ele>522.76</ele>
        <time>2024-01-30T20:18:02Z</time>
      </trkpt>
      <trkpt lat="44.23602" lon="5.85208">
        <ele>523.86</ele>
        <time>2024-01-30T20:18:13Z</time>
      </trkpt>
      <trkpt lat="44.23565" lon="5.85366">
        <ele>523.62</ele>
        <time>2024-01-30T20:18:30Z</time>
      </trkpt>
      <trkpt lat="44.23546" lon="5.85421">
        <ele>523.64</ele>
        <time>2024-01-30T20:18:36Z</time>
      </trkpt>
      <trkpt lat="44.23524" lon="5.85455">
        <ele>523.49</ele>
        <time>2024-01-30T20:18:40Z</time>
      </trkpt>
      <trkpt lat="44.23503" lon="5.85476">
        <ele>523.12</ele>
        <time>2024-01-30T20:18:44Z</time>
      </trkpt>
      <trkpt lat="44.23492" lon="5.85483">
        <ele>522.52</ele>
        <time>2024-01-30T20:18:45Z</time>
      </trkpt>
      <trkpt lat="44.23477" lon="5.85489">
        <ele>522.08</ele>
        <time>2024-01-30T20:18:47Z</time>
      </trkpt>
      <trkpt lat="44.23414" lon="5.85502">
        <ele>518.99</ele>
        <time>2024-01-30T20:18:56Z</time>
      </trkpt>
      <trkpt lat="44.23341" lon="5.85495">
        <ele>517.03</ele>
        <time>2024-01-30T20:19:09Z</time>
      </trkpt>
      <trkpt lat="44.23304" lon="5.85498">
        <ele>512.68</ele>
        <time>2024-01-30T20:19:19Z</time>
      </trkpt>
      <trkpt lat="44.23266" lon="5.85506">
        <ele>508.95</ele>
        <time>2024-01-30T20:19:31Z</time>
      </trkpt>
      <trkpt lat="44.23248" lon="5.85508">
        <ele>508.61</ele>
        <time>2024-01-30T20:19:36Z</time>
      </trkpt>
      <trkpt lat="44.23223" lon="5.85516">
        <ele>511.39</ele>
        <time>2024-01-30T20:19:45Z</time>
      </trkpt>
      <trkpt lat="44.23201" lon="5.85541">
        <ele>515.06</ele>
        <time>2024-01-30T20:19:54Z</time>
      </trkpt>
      <trkpt lat="44.23186" lon="5.85562">
        <ele>518.02</ele>
        <time>2024-01-30T20:20:01Z</time>
      </trkpt>
      <trkpt lat="44.23145" lon="5.8562">
        <ele>522.51</ele>
        <time>2024-01-30T20:20:20Z</time>
      </trkpt>
      <trkpt lat="44.23138" lon="5.85628">
        <ele>523.12</ele>
        <time>2024-01-30T20:20:22Z</time>
      </trkpt>
      <trkpt lat="44.23131" lon="5.85636">
        <ele>523.17</ele>
        <time>2024-01-30T20:20:25Z</time>
      </trkpt>
      <trkpt lat="44.23124" lon="5.85643">
        <ele>523.43</ele>
        <time>2024-01-30T20:20:27Z</time>
      </trkpt>
      <trkpt lat="44.23114" lon="5.85653">
        <ele>523.3</ele>
        <time>2024-01-30T20:20:30Z</time>
      </trkpt>
      <trkpt lat="44.23103" lon="5.85663">
        <ele>523.39</ele>
        <time>2024-01-30T20:20:32Z</time>
      </trkpt>
      <trkpt lat="44.23069" lon="5.85687">
        <ele>522.95</ele>
        <time>2024-01-30T20:20:40Z</time>
      </trkpt>
      <trkpt lat="44.23058" lon="5.85694">
        <ele>522.64</ele>
        <time>2024-01-30T20:20:42Z</time>
      </trkpt>
      <trkpt lat="44.2302" lon="5.85722">
        <ele>521.08</ele>
        <time>2024-01-30T20:20:50Z</time>
      </trkpt>
      <trkpt lat="44.23" lon="5.85737">
        <ele>520.66</ele>
        <time>2024-01-30T20:20:54Z</time>
      </trkpt>
      <trkpt lat="44.22992" lon="5.85742">
        <ele>520.54</ele>
        <time>2024-01-30T20:20:55Z</time>
      </trkpt>
      <trkpt lat="44.22985" lon="5.85747">
        <ele>520.04</ele>
        <time>2024-01-30T20:20:57Z</time>
      </trkpt>
      <trkpt lat="44.2297" lon="5.85757">
        <ele>519.93</ele>
        <time>2024-01-30T20:20:59Z</time>
      </trkpt>
      <trkpt lat="44.22949" lon="5.85711">
        <ele>522.66</ele>
        <time>2024-01-30T20:21:06Z</time>
      </trkpt>
      <trkpt lat="44.22941" lon="5.85705">
        <ele>522.91</ele>
        <time>2024-01-30T20:21:07Z</time>
      </trkpt>
      <trkpt lat="44.22934" lon="5.85705">
        <ele>522.89</ele>
        <time>2024-01-30T20:21:09Z</time>
      </trkpt>
      <trkpt lat="44.22845" lon="5.85722">
        <ele>521.96</ele>
        <time>2024-01-30T20:21:25Z</time>
      </trkpt>
      <trkpt lat="44.22761" lon="5.85763">
        <ele>520.8</ele>
        <time>2024-01-30T20:21:42Z</time>
      </trkpt>
      <trkpt lat="44.2273" lon="5.85775">
        <ele>520.75</ele>
        <time>2024-01-30T20:21:48Z</time>
      </trkpt>
      <trkpt lat="44.22647" lon="5.85788">
        <ele>520.53</ele>
        <time>2024-01-30T20:22:04Z</time>
      </trkpt>
      <trkpt lat="44.22441" lon="5.8582">
        <ele>525.5</ele>
        <time>2024-01-30T20:22:39Z</time>
      </trkpt>
      <trkpt lat="44.22439" lon="5.8583">
        <ele>524.8</ele>
        <time>2024-01-30T20:22:40Z</time>
      </trkpt>
      <trkpt lat="44.22435" lon="5.85835">
        <ele>524.63</ele>
        <time>2024-01-30T20:22:41Z</time>
      </trkpt>
      <trkpt lat="44.22414" lon="5.85841">
        <ele>524.6</ele>
        <time>2024-01-30T20:22:45Z</time>
      </trkpt>
      <trkpt lat="44.22388" lon="5.85838">
        <ele>522.21</ele>
        <time>2024-01-30T20:22:49Z</time>
      </trkpt>
      <trkpt lat="44.22325" lon="5.85846">
        <ele>515.45</ele>
        <time>2024-01-30T20:22:58Z</time>
      </trkpt>
      <trkpt lat="44.22315" lon="5.85848">
        <ele>515.48</ele>
        <time>2024-01-30T20:23:00Z</time>
      </trkpt>
      <trkpt lat="44.22303" lon="5.85855">
        <ele>516.23</ele>
        <time>2024-01-30T20:23:02Z</time>
      </trkpt>
      <trkpt lat="44.22298" lon="5.85868">
        <ele>516.25</ele>
        <time>2024-01-30T20:23:04Z</time>
      </trkpt>
      <trkpt lat="44.22289" lon="5.85913">
        <ele>515.98</ele>
        <time>2024-01-30T20:23:09Z</time>
      </trkpt>
      <trkpt lat="44.22149" lon="5.85953">
        <ele>519.36</ele>
        <time>2024-01-30T20:23:33Z</time>
      </trkpt>
      <trkpt lat="44.22124" lon="5.85966">
        <ele>518.46</ele>
        <time>2024-01-30T20:23:38Z</time>
      </trkpt>
      <trkpt lat="44.22001" lon="5.86085">
        <ele>517.08</ele>
        <time>2024-01-30T20:24:04Z</time>
      </trkpt>
      <trkpt lat="44.21848" lon="5.86205">
        <ele>514.61</ele>
        <time>2024-01-30T20:24:34Z</time>
      </trkpt>
      <trkpt lat="44.21834" lon="5.86204">
        <ele>514.12</ele>
        <time>2024-01-30T20:24:38Z</time>
      </trkpt>
      <trkpt lat="44.21812" lon="5.86196">
        <ele>512.6</ele>
        <time>2024-01-30T20:24:45Z</time>
      </trkpt>
      <trkpt lat="44.21783" lon="5.86199">
        <ele>511.06</ele>
        <time>2024-01-30T20:24:53Z</time>
      </trkpt>
      <trkpt lat="44.2177" lon="5.86205">
        <ele>510.59</ele>
        <time>2024-01-30T20:24:57Z</time>
      </trkpt>
      <trkpt lat="44.21758" lon="5.86207">
        <ele>510.52</ele>
        <time>2024-01-30T20:25:01Z</time>
      </trkpt>
      <trkpt lat="44.21714" lon="5.86232">
        <ele>511.59</ele>
        <time>2024-01-30T20:25:15Z</time>
      </trkpt>
      <trkpt lat="44.21692" lon="5.86237">
        <ele>513.14</ele>
        <time>2024-01-30T20:25:22Z</time>
      </trkpt>
      <trkpt lat="44.21679" lon="5.86246">
        <ele>513.74</ele>
        <time>2024-01-30T20:25:26Z</time>
      </trkpt>
      <trkpt lat="44.21667" lon="5.86258">
        <ele>513.64</ele>
        <time>2024-01-30T20:25:31Z</time>
      </trkpt>
      <trkpt lat="44.21666" lon="5.86263">
        <ele>513.74</ele>
        <time>2024-01-30T20:25:32Z</time>
      </trkpt>
      <trkpt lat="44.21651" lon="5.86274">
        <ele>514.35</ele>
        <time>2024-01-30T20:25:37Z</time>
      </trkpt>
      <trkpt lat="44.21587" lon="5.86317">
        <ele>515.98</ele>
        <time>2024-01-30T20:25:59Z</time>
      </trkpt>
      <trkpt lat="44.21484" lon="5.86352">
        <ele>514.43</ele>
        <time>2024-01-30T20:26:31Z</time>
      </trkpt>
      <trkpt lat="44.21458" lon="5.86356">
        <ele>514.13</ele>
        <time>2024-01-30T20:26:39Z</time>
      </trkpt>
      <trkpt lat="44.21408" lon="5.86378">
        <ele>514.74</ele>
        <time>2024-01-30T20:26:50Z</time>
      </trkpt>
      <trkpt lat="44.21209" lon="5.86441">
        <ele>518.7</ele>
        <time>2024-01-30T20:27:34Z</time>
      </trkpt>
      <trkpt lat="44.21203" lon="5.86443">
        <ele>518.57</ele>
        <time>2024-01-30T20:27:35Z</time>
      </trkpt>
      <trkpt lat="44.21159" lon="5.8647">
        <ele>517.69</ele>
        <time>2024-01-30T20:27:49Z</time>
      </trkpt>
      <trkpt lat="44.21101" lon="5.86498">
        <ele>517.14</ele>
        <time>2024-01-30T20:28:08Z</time>
      </trkpt>
      <trkpt lat="44.21054" lon="5.86526">
        <ele>516.24</ele>
        <time>2024-01-30T20:28:25Z</time>
      </trkpt>
      <trkpt lat="44.20896" lon="5.86601">
        <ele>517.58</ele>
        <time>2024-01-30T20:29:27Z</time>
      </trkpt>
      <trkpt lat="44.20856" lon="5.86641">
        <ele>517.56</ele>
        <time>2024-01-30T20:29:45Z</time>
      </trkpt>
      <trkpt lat="44.20798" lon="5.86739">
        <ele>516.44</ele>
        <time>2024-01-30T20:30:17Z</time>
      </trkpt>
      <trkpt lat="44.2072" lon="5.86776">
        <ele>519.6</ele>
        <time>2024-01-30T20:30:44Z</time>
      </trkpt>
      <trkpt lat="44.20602" lon="5.86816">
        <ele>523.01</ele>
        <time>2024-01-30T20:31:28Z</time>
      </trkpt>
      <trkpt lat="44.20536" lon="5.86838">
        <ele>525.74</ele>
        <time>2024-01-30T20:31:55Z</time>
      </trkpt>
      <trkpt lat="44.20516" lon="5.86862">
        <ele>526.93</ele>
        <time>2024-01-30T20:32:05Z</time>
      </trkpt>
      <trkpt lat="44.20488" lon="5.8687">
        <ele>527.1</ele>
        <time>2024-01-30T20:32:17Z</time>
      </trkpt>
      <trkpt lat="44.20394" lon="5.86913">
        <ele>529.59</ele>
        <time>2024-01-30T20:32:59Z</time>
      </trkpt>
      <trkpt lat="44.20355" lon="5.86934">
        <ele>531.87</ele>
        <time>2024-01-30T20:33:19Z</time>
      </trkpt>
      <trkpt lat="44.20293" lon="5.86962">
        <ele>533.1</ele>
        <time>2024-01-30T20:33:54Z</time>
      </trkpt>
      <trkpt lat="44.20268" lon="5.86923">
        <ele>536.76</ele>
        <time>2024-01-30T20:34:14Z</time>
      </trkpt>
      <trkpt lat="44.20243" lon="5.86914">
        <ele>539.67</ele>
        <time>2024-01-30T20:34:29Z</time>
      </trkpt>
      <trkpt lat="44.20206" lon="5.86914">
        <ele>543.18</ele>
        <time>2024-01-30T20:34:48Z</time>
      </trkpt>
      <trkpt lat="44.20153" lon="5.86923">
        <ele>549.41</ele>
        <time>2024-01-30T20:35:15Z</time>
      </trkpt>
      <trkpt lat="44.20129" lon="5.86924">
        <ele>551.83</ele>
        <time>2024-01-30T20:35:26Z</time>
      </trkpt>
      <trkpt lat="44.20074" lon="5.86947">
        <ele>555.17</ele>
        <time>2024-01-30T20:35:49Z</time>
      </trkpt>
      <trkpt lat="44.20016" lon="5.8696">
        <ele>556.05</ele>
        <time>2024-01-30T20:36:08Z</time>
      </trkpt>
      <trkpt lat="44.20001" lon="5.86966">
        <ele>555.19</ele>
        <time>2024-01-30T20:36:13Z</time>
      </trkpt>
      <trkpt lat="44.19994" lon="5.86969">
        <ele>554.14</ele>
        <time>2024-01-30T20:36:15Z</time>
      </trkpt>
      <trkpt lat="44.19985" lon="5.86983">
        <ele>551.17</ele>
        <time>2024-01-30T20:36:19Z</time>
      </trkpt>
      <trkpt lat="44.19976" lon="5.87023">
        <ele>544.34</ele>
        <time>2024-01-30T20:36:26Z</time>
      </trkpt>
      <trkpt lat="44.19969" lon="5.87153">
        <ele>539.58</ele>
        <time>2024-01-30T20:36:49Z</time>
      </trkpt>
      <trkpt lat="44.19973" lon="5.87171">
        <ele>538.69</ele>
        <time>2024-01-30T20:36:52Z</time>
      </trkpt>
      <trkpt lat="44.20033" lon="5.87215">
        <ele>534.17</ele>
        <time>2024-01-30T20:37:08Z</time>
      </trkpt>
      <trkpt lat="44.20045" lon="5.87228">
        <ele>533.05</ele>
        <time>2024-01-30T20:37:12Z</time>
      </trkpt>
      <trkpt lat="44.20057" lon="5.87251">
        <ele>531.88</ele>
        <time>2024-01-30T20:37:16Z</time>
      </trkpt>
      <trkpt lat="44.20077" lon="5.87315">
        <ele>530.24</ele>
        <time>2024-01-30T20:37:27Z</time>
      </trkpt>
      <trkpt lat="44.20097" lon="5.8735">
        <ele>529.78</ele>
        <time>2024-01-30T20:37:35Z</time>
      </trkpt>
      <trkpt lat="44.20122" lon="5.8738">
        <ele>529.08</ele>
        <time>2024-01-30T20:37:42Z</time>
      </trkpt>
      <trkpt lat="44.20143" lon="5.87385">
        <ele>528.1</ele>
        <time>2024-01-30T20:37:47Z</time>
      </trkpt>
      <trkpt lat="44.20158" lon="5.87396">
        <ele>527.18</ele>
        <time>2024-01-30T20:37:51Z</time>
      </trkpt>
      <trkpt lat="44.20237" lon="5.87473">
        <ele>523.42</ele>
        <time>2024-01-30T20:38:03Z</time>
      </trkpt>
      <trkpt lat="44.20495" lon="5.87607">
        <ele>508.62</ele>
        <time>2024-01-30T20:38:41Z</time>
      </trkpt>
      <trkpt lat="44.20417" lon="5.87796">
        <ele>506.29</ele>
        <time>2024-01-30T20:39:03Z</time>
      </trkpt>
      <trkpt lat="44.20404" lon="5.87836">
        <ele>506.28</ele>
        <time>2024-01-30T20:39:08Z</time>
      </trkpt>
      <trkpt lat="44.20345" lon="5.87982">
        <ele>502.66</ele>
        <time>2024-01-30T20:39:27Z</time>
      </trkpt>
      <trkpt lat="44.20322" lon="5.8807">
        <ele>501.43</ele>
        <time>2024-01-30T20:39:38Z</time>
      </trkpt>
      <trkpt lat="44.20309" lon="5.88097">
        <ele>501.4</ele>
        <time>2024-01-30T20:39:42Z</time>
      </trkpt>
      <trkpt lat="44.20287" lon="5.88107">
        <ele>502.29</ele>
        <time>2024-01-30T20:39:46Z</time>
      </trkpt>
      <trkpt lat="44.20272" lon="5.88106">
        <ele>503.03</ele>
        <time>2024-01-30T20:39:49Z</time>
      </trkpt>
      <trkpt lat="44.20271" lon="5.88112">
        <ele>502.91</ele>
        <time>2024-01-30T20:39:50Z</time>
      </trkpt>
      <trkpt lat="44.20281" lon="5.88143">
        <ele>501.84</ele>
        <time>2024-01-30T20:39:57Z</time>
      </trkpt>
      <trkpt lat="44.2028" lon="5.88155">
        <ele>501.94</ele>
        <time>2024-01-30T20:39:59Z</time>
      </trkpt>
      <trkpt lat="44.20261" lon="5.88208">
        <ele>501.66</ele>
        <time>2024-01-30T20:40:11Z</time>
      </trkpt>
      <trkpt lat="44.2024" lon="5.88292">
        <ele>501.11</ele>
        <time>2024-01-30T20:40:30Z</time>
      </trkpt>
      <trkpt lat="44.20234" lon="5.88322">
        <ele>501.18</ele>
        <time>2024-01-30T20:40:37Z</time>
      </trkpt>
      <trkpt lat="44.20255" lon="5.8839">
        <ele>499.96</ele>
        <time>2024-01-30T20:40:52Z</time>
      </trkpt>
      <trkpt lat="44.20257" lon="5.88408">
        <ele>499.64</ele>
        <time>2024-01-30T20:40:56Z</time>
      </trkpt>
      <trkpt lat="44.20248" lon="5.88459">
        <ele>499.12</ele>
        <time>2024-01-30T20:41:08Z</time>
      </trkpt>
      <trkpt lat="44.20246" lon="5.8853">
        <ele>499.12</ele>
        <time>2024-01-30T20:41:23Z</time>
      </trkpt>
      <trkpt lat="44.20252" lon="5.88595">
        <ele>499.21</ele>
        <time>2024-01-30T20:41:38Z</time>
      </trkpt>
      <trkpt lat="44.2026" lon="5.88646">
        <ele>499.22</ele>
        <time>2024-01-30T20:41:50Z</time>
      </trkpt>
      <trkpt lat="44.2026" lon="5.88675">
        <ele>499.11</ele>
        <time>2024-01-30T20:41:57Z</time>
      </trkpt>
      <trkpt lat="44.20257" lon="5.88685">
        <ele>499.44</ele>
        <time>2024-01-30T20:41:59Z</time>
      </trkpt>
      <trkpt lat="44.20246" lon="5.88793">
        <ele>498.37</ele>
        <time>2024-01-30T20:42:26Z</time>
      </trkpt>
      <trkpt lat="44.20229" lon="5.88843">
        <ele>499.28</ele>
        <time>2024-01-30T20:42:40Z</time>
      </trkpt>
      <trkpt lat="44.20211" lon="5.88876">
        <ele>501.16</ele>
        <time>2024-01-30T20:42:50Z</time>
      </trkpt>
      <trkpt lat="44.20204" lon="5.88906">
        <ele>502.06</ele>
        <time>2024-01-30T20:42:57Z</time>
      </trkpt>
      <trkpt lat="44.20193" lon="5.88991">
        <ele>503.43</ele>
        <time>2024-01-30T20:43:19Z</time>
      </trkpt>
      <trkpt lat="44.2019" lon="5.89064">
        <ele>503.51</ele>
        <time>2024-01-30T20:43:38Z</time>
      </trkpt>
      <trkpt lat="44.20168" lon="5.89157">
        <ele>504.86</ele>
        <time>2024-01-30T20:44:03Z</time>
      </trkpt>
      <trkpt lat="44.20153" lon="5.89189">
        <ele>505.47</ele>
        <time>2024-01-30T20:44:14Z</time>
      </trkpt>
      <trkpt lat="44.20124" lon="5.89278">
        <ele>506.51</ele>
        <time>2024-01-30T20:44:41Z</time>
      </trkpt>
      <trkpt lat="44.20107" lon="5.89314">
        <ele>507.39</ele>
        <time>2024-01-30T20:44:52Z</time>
      </trkpt>
      <trkpt lat="44.20102" lon="5.89337">
        <ele>507.64</ele>
        <time>2024-01-30T20:44:59Z</time>
      </trkpt>
      <trkpt lat="44.20098" lon="5.89387">
        <ele>508.34</ele>
        <time>2024-01-30T20:45:12Z</time>
      </trkpt>
      <trkpt lat="44.201" lon="5.89469">
        <ele>508.72</ele>
        <time>2024-01-30T20:45:31Z</time>
      </trkpt>
      <trkpt lat="44.20103" lon="5.89487">
        <ele>508.48</ele>
        <time>2024-01-30T20:45:36Z</time>
      </trkpt>
      <trkpt lat="44.20116" lon="5.89481">
        <ele>507.83</ele>
        <time>2024-01-30T20:45:39Z</time>
      </trkpt>
      <trkpt lat="44.20094" lon="5.89599">
        <ele>507.05</ele>
        <time>2024-01-30T20:46:04Z</time>
      </trkpt>
      <trkpt lat="44.20092" lon="5.89633">
        <ele>506.12</ele>
        <time>2024-01-30T20:46:11Z</time>
      </trkpt>
      <trkpt lat="44.20093" lon="5.89679">
        <ele>505.18</ele>
        <time>2024-01-30T20:46:20Z</time>
      </trkpt>
      <trkpt lat="44.20103" lon="5.89802">
        <ele>503.76</ele>
        <time>2024-01-30T20:46:45Z</time>
      </trkpt>
      <trkpt lat="44.20118" lon="5.89878">
        <ele>503.72</ele>
        <time>2024-01-30T20:47:01Z</time>
      </trkpt>
      <trkpt lat="44.20115" lon="5.89895">
        <ele>503.5</ele>
        <time>2024-01-30T20:47:04Z</time>
      </trkpt>
      <trkpt lat="44.2011" lon="5.90012">
        <ele>501.02</ele>
        <time>2024-01-30T20:47:30Z</time>
      </trkpt>
      <trkpt lat="44.20105" lon="5.90065">
        <ele>500.78</ele>
        <time>2024-01-30T20:47:42Z</time>
      </trkpt>
      <trkpt lat="44.20106" lon="5.90094">
        <ele>500.67</ele>
        <time>2024-01-30T20:47:50Z</time>
      </trkpt>
      <trkpt lat="44.20098" lon="5.90156">
        <ele>501.24</ele>
        <time>2024-01-30T20:48:07Z</time>
      </trkpt>
      <trkpt lat="44.20094" lon="5.90265">
        <ele>503.62</ele>
        <time>2024-01-30T20:48:46Z</time>
      </trkpt>
      <trkpt lat="44.20074" lon="5.90307">
        <ele>506.42</ele>
        <time>2024-01-30T20:49:03Z</time>
      </trkpt>
      <trkpt lat="44.20039" lon="5.90369">
        <ele>511.4</ele>
        <time>2024-01-30T20:49:32Z</time>
      </trkpt>
      <trkpt lat="44.20035" lon="5.9038">
        <ele>512.28</ele>
        <time>2024-01-30T20:49:37Z</time>
      </trkpt>
      <trkpt lat="44.20026" lon="5.90439">
        <ele>514.07</ele>
        <time>2024-01-30T20:49:59Z</time>
      </trkpt>
      <trkpt lat="44.20009" lon="5.90496">
        <ele>518.9</ele>
        <time>2024-01-30T20:50:22Z</time>
      </trkpt>
      <trkpt lat="44.20002" lon="5.90543">
        <ele>518.99</ele>
        <time>2024-01-30T20:50:40Z</time>
      </trkpt>
      <trkpt lat="44.19994" lon="5.90576">
        <ele>519.89</ele>
        <time>2024-01-30T20:50:52Z</time>
      </trkpt>
      <trkpt lat="44.19955" lon="5.90686">
        <ele>526.33</ele>
        <time>2024-01-30T20:51:39Z</time>
      </trkpt>
      <trkpt lat="44.19943" lon="5.90715">
        <ele>527.74</ele>
        <time>2024-01-30T20:51:52Z</time>
      </trkpt>
      <trkpt lat="44.19928" lon="5.90737">
        <ele>530.19</ele>
        <time>2024-01-30T20:52:04Z</time>
      </trkpt>
      <trkpt lat="44.19918" lon="5.90745">
        <ele>530.9</ele>
        <time>2024-01-30T20:52:10Z</time>
      </trkpt>
      <trkpt lat="44.19907" lon="5.90751">
        <ele>532.03</ele>
        <time>2024-01-30T20:52:16Z</time>
      </trkpt>
      <trkpt lat="44.19875" lon="5.90755">
        <ele>538.93</ele>
        <time>2024-01-30T20:52:33Z</time>
      </trkpt>
      <trkpt lat="44.19855" lon="5.90763">
        <ele>543.15</ele>
        <time>2024-01-30T20:52:44Z</time>
      </trkpt>
      <trkpt lat="44.19832" lon="5.90783">
        <ele>547.05</ele>
        <time>2024-01-30T20:52:59Z</time>
      </trkpt>
      <trkpt lat="44.19823" lon="5.90798">
        <ele>548.83</ele>
        <time>2024-01-30T20:53:07Z</time>
      </trkpt>
      <trkpt lat="44.19822" lon="5.90807">
        <ele>549.13</ele>
        <time>2024-01-30T20:53:11Z</time>
      </trkpt>
      <trkpt lat="44.19823" lon="5.90817">
        <ele>549.7</ele>
        <time>2024-01-30T20:53:15Z</time>
      </trkpt>
      <trkpt lat="44.19837" lon="5.90864">
        <ele>551.66</ele>
        <time>2024-01-30T20:53:34Z</time>
      </trkpt>
      <trkpt lat="44.19839" lon="5.90877">
        <ele>551.28</ele>
        <time>2024-01-30T20:53:39Z</time>
      </trkpt>
      <trkpt lat="44.19837" lon="5.90906">
        <ele>553.82</ele>
        <time>2024-01-30T20:53:50Z</time>
      </trkpt>
      <trkpt lat="44.19817" lon="5.91048">
        <ele>557.15</ele>
        <time>2024-01-30T20:54:30Z</time>
      </trkpt>
      <trkpt lat="44.198" lon="5.91104">
        <ele>562.77</ele>
        <time>2024-01-30T20:54:44Z</time>
      </trkpt>
      <trkpt lat="44.19785" lon="5.9118">
        <ele>566.51</ele>
        <time>2024-01-30T20:55:02Z</time>
      </trkpt>
      <trkpt lat="44.19774" lon="5.91213">
        <ele>567.68</ele>
        <time>2024-01-30T20:55:09Z</time>
      </trkpt>
      <trkpt lat="44.1977" lon="5.91222">
        <ele>567.5</ele>
        <time>2024-01-30T20:55:11Z</time>
      </trkpt>
      <trkpt lat="44.19722" lon="5.91347">
        <ele>574.12</ele>
        <time>2024-01-30T20:55:37Z</time>
      </trkpt>
      <trkpt lat="44.19644" lon="5.91541">
        <ele>573.01</ele>
        <time>2024-01-30T20:56:06Z</time>
      </trkpt>
      <trkpt lat="44.19616" lon="5.91629">
        <ele>572.44</ele>
        <time>2024-01-30T20:56:17Z</time>
      </trkpt>
      <trkpt lat="44.19607" lon="5.91663">
        <ele>572.03</ele>
        <time>2024-01-30T20:56:21Z</time>
      </trkpt>
      <trkpt lat="44.19603" lon="5.91698">
        <ele>571.46</ele>
        <time>2024-01-30T20:56:25Z</time>
      </trkpt>
      <trkpt lat="44.1961" lon="5.91842">
        <ele>567.32</ele>
        <time>2024-01-30T20:56:42Z</time>
      </trkpt>
      <trkpt lat="44.1961" lon="5.91879">
        <ele>567.4</ele>
        <time>2024-01-30T20:56:47Z</time>
      </trkpt>
      <trkpt lat="44.19606" lon="5.91916">
        <ele>567.42</ele>
        <time>2024-01-30T20:56:52Z</time>
      </trkpt>
      <trkpt lat="44.19585" lon="5.92048">
        <ele>563.93</ele>
        <time>2024-01-30T20:57:15Z</time>
      </trkpt>
      <trkpt lat="44.19561" lon="5.92114">
        <ele>563.34</ele>
        <time>2024-01-30T20:57:29Z</time>
      </trkpt>
      <trkpt lat="44.1955" lon="5.92174">
        <ele>565.63</ele>
        <time>2024-01-30T20:57:41Z</time>
      </trkpt>
      <trkpt lat="44.19549" lon="5.92201">
        <ele>565.79</ele>
        <time>2024-01-30T20:57:45Z</time>
      </trkpt>
      <trkpt lat="44.19561" lon="5.92314">
        <ele>564.5</ele>
        <time>2024-01-30T20:58:04Z</time>
      </trkpt>
      <trkpt lat="44.19571" lon="5.92449">
        <ele>564.46</ele>
        <time>2024-01-30T20:58:22Z</time>
      </trkpt>
      <trkpt lat="44.19576" lon="5.92522">
        <ele>564.25</ele>
        <time>2024-01-30T20:58:31Z</time>
      </trkpt>
      <trkpt lat="44.19576" lon="5.92589">
        <ele>563.47</ele>
        <time>2024-01-30T20:58:39Z</time>
      </trkpt>
      <trkpt lat="44.19585" lon="5.9275">
        <ele>559.26</ele>
        <time>2024-01-30T20:58:55Z</time>
      </trkpt>
      <trkpt lat="44.19595" lon="5.92813">
        <ele>556.7</ele>
        <time>2024-01-30T20:59:02Z</time>
      </trkpt>
      <trkpt lat="44.19613" lon="5.92879">
        <ele>555.6</ele>
        <time>2024-01-30T20:59:10Z</time>
      </trkpt>
      <trkpt lat="44.19615" lon="5.92904">
        <ele>555.68</ele>
        <time>2024-01-30T20:59:12Z</time>
      </trkpt>
      <trkpt lat="44.19612" lon="5.92929">
        <ele>554.6</ele>
        <time>2024-01-30T20:59:15Z</time>
      </trkpt>
      <trkpt lat="44.19595" lon="5.92997">
        <ele>554.5</ele>
        <time>2024-01-30T20:59:22Z</time>
      </trkpt>
      <trkpt lat="44.19588" lon="5.9304">
        <ele>554.93</ele>
        <time>2024-01-30T20:59:27Z</time>
      </trkpt>
      <trkpt lat="44.19586" lon="5.93074">
        <ele>553.95</ele>
        <time>2024-01-30T20:59:30Z</time>
      </trkpt>
      <trkpt lat="44.19593" lon="5.93141">
        <ele>553.15</ele>
        <time>2024-01-30T20:59:37Z</time>
      </trkpt>
      <trkpt lat="44.19616" lon="5.93237">
        <ele>549.78</ele>
        <time>2024-01-30T20:59:48Z</time>
      </trkpt>
      <trkpt lat="44.19643" lon="5.93326">
        <ele>542.79</ele>
        <time>2024-01-30T20:59:57Z</time>
      </trkpt>
      <trkpt lat="44.19651" lon="5.93362">
        <ele>540.32</ele>
        <time>2024-01-30T21:00:01Z</time>
      </trkpt>
      <trkpt lat="44.19665" lon="5.93496">
        <ele>533.98</ele>
        <time>2024-01-30T21:00:14Z</time>
      </trkpt>
      <trkpt lat="44.19673" lon="5.93565">
        <ele>530.75</ele>
        <time>2024-01-30T21:00:20Z</time>
      </trkpt>
      <trkpt lat="44.19673" lon="5.93622">
        <ele>529.54</ele>
        <time>2024-01-30T21:00:25Z</time>
      </trkpt>
      <trkpt lat="44.19667" lon="5.9369">
        <ele>528.95</ele>
        <time>2024-01-30T21:00:31Z</time>
      </trkpt>
      <trkpt lat="44.19669" lon="5.93715">
        <ele>528.17</ele>
        <time>2024-01-30T21:00:34Z</time>
      </trkpt>
      <trkpt lat="44.19665" lon="5.93746">
        <ele>528.07</ele>
        <time>2024-01-30T21:00:36Z</time>
      </trkpt>
      <trkpt lat="44.19651" lon="5.93796">
        <ele>527.57</ele>
        <time>2024-01-30T21:00:41Z</time>
      </trkpt>
      <trkpt lat="44.19619" lon="5.93897">
        <ele>519.91</ele>
        <time>2024-01-30T21:00:50Z</time>
      </trkpt>
      <trkpt lat="44.19606" lon="5.93947">
        <ele>514.61</ele>
        <time>2024-01-30T21:00:55Z</time>
      </trkpt>
      <trkpt lat="44.19601" lon="5.93966">
        <ele>512.33</ele>
        <time>2024-01-30T21:00:56Z</time>
      </trkpt>
      <trkpt lat="44.19603" lon="5.93989">
        <ele>510.47</ele>
        <time>2024-01-30T21:00:58Z</time>
      </trkpt>
      <trkpt lat="44.19627" lon="5.94049">
        <ele>505.45</ele>
        <time>2024-01-30T21:01:04Z</time>
      </trkpt>
      <trkpt lat="44.19626" lon="5.94057">
        <ele>504.97</ele>
        <time>2024-01-30T21:01:05Z</time>
      </trkpt>
      <trkpt lat="44.19633" lon="5.94062">
        <ele>504.47</ele>
        <time>2024-01-30T21:01:06Z</time>
      </trkpt>
      <trkpt lat="44.19636" lon="5.94069">
        <ele>503.96</ele>
        <time>2024-01-30T21:01:06Z</time>
      </trkpt>
      <trkpt lat="44.19641" lon="5.94149">
        <ele>500.8</ele>
        <time>2024-01-30T21:01:13Z</time>
      </trkpt>
      <trkpt lat="44.19646" lon="5.94174">
        <ele>500.35</ele>
        <time>2024-01-30T21:01:15Z</time>
      </trkpt>
      <trkpt lat="44.1964" lon="5.94188">
        <ele>499.05</ele>
        <time>2024-01-30T21:01:16Z</time>
      </trkpt>
      <trkpt lat="44.19629" lon="5.94207">
        <ele>497.12</ele>
        <time>2024-01-30T21:01:19Z</time>
      </trkpt>
      <trkpt lat="44.19636" lon="5.9421">
        <ele>496.97</ele>
        <time>2024-01-30T21:01:19Z</time>
      </trkpt>
      <trkpt lat="44.19642" lon="5.94229">
        <ele>496.78</ele>
        <time>2024-01-30T21:01:21Z</time>
      </trkpt>
      <trkpt lat="44.19626" lon="5.94229">
        <ele>494.93</ele>
        <time>2024-01-30T21:01:23Z</time>
      </trkpt>
      <trkpt lat="44.19582" lon="5.94222">
        <ele>492.67</ele>
        <time>2024-01-30T21:01:29Z</time>
      </trkpt>
      <trkpt lat="44.19585" lon="5.94259">
        <ele>490.7</ele>
        <time>2024-01-30T21:01:33Z</time>
      </trkpt>
      <trkpt lat="44.19589" lon="5.94287">
        <ele>487.52</ele>
        <time>2024-01-30T21:01:35Z</time>
      </trkpt>
      <trkpt lat="44.19592" lon="5.94299">
        <ele>486.31</ele>
        <time>2024-01-30T21:01:36Z</time>
      </trkpt>
      <trkpt lat="44.19595" lon="5.94309">
        <ele>485.49</ele>
        <time>2024-01-30T21:01:37Z</time>
      </trkpt>
      <trkpt lat="44.19599" lon="5.94327">
        <ele>484.11</ele>
        <time>2024-01-30T21:01:39Z</time>
      </trkpt>
      <trkpt lat="44.196" lon="5.94331">
        <ele>483.82</ele>
        <time>2024-01-30T21:01:40Z</time>
      </trkpt>
      <trkpt lat="44.1961" lon="5.94382">
        <ele>480.87</ele>
        <time>2024-01-30T21:01:44Z</time>
      </trkpt>
      <trkpt lat="44.19615" lon="5.9439">
        <ele>480.1</ele>
        <time>2024-01-30T21:01:46Z</time>
      </trkpt>
      <trkpt lat="44.19618" lon="5.94395">
        <ele>479.46</ele>
        <time>2024-01-30T21:01:46Z</time>
      </trkpt>
      <trkpt lat="44.19621" lon="5.94409">
        <ele>478.64</ele>
        <time>2024-01-30T21:01:48Z</time>
      </trkpt>
      <trkpt lat="44.19623" lon="5.94417">
        <ele>478.18</ele>
        <time>2024-01-30T21:01:49Z</time>
      </trkpt>
      <trkpt lat="44.1963" lon="5.94438">
        <ele>482.07</ele>
        <time>2024-01-30T21:01:51Z</time>
      </trkpt>
      <trkpt lat="44.19618" lon="5.94467">
        <ele>476.69</ele>
        <time>2024-01-30T21:01:55Z</time>
      </trkpt>
      <trkpt lat="44.19614" lon="5.94481">
        <ele>474.83</ele>
        <time>2024-01-30T21:01:57Z</time>
      </trkpt>
      <trkpt lat="44.19614" lon="5.94503">
        <ele>473.78</ele>
        <time>2024-01-30T21:01:58Z</time>
      </trkpt>
      <trkpt lat="44.19598" lon="5.94504">
        <ele>474.68</ele>
        <time>2024-01-30T21:02:00Z</time>
      </trkpt>
      <trkpt lat="44.1958" lon="5.94504">
        <ele>476.79</ele>
        <time>2024-01-30T21:02:03Z</time>
      </trkpt>
      <trkpt lat="44.1956" lon="5.94498">
        <ele>478.59</ele>
        <time>2024-01-30T21:02:05Z</time>
      </trkpt>
      <trkpt lat="44.19555" lon="5.94497">
        <ele>479.66</ele>
        <time>2024-01-30T21:02:06Z</time>
      </trkpt>
      <trkpt lat="44.19523" lon="5.94492">
        <ele>482.3</ele>
        <time>2024-01-30T21:02:10Z</time>
      </trkpt>
      <trkpt lat="44.19523" lon="5.94508">
        <ele>480.65</ele>
        <time>2024-01-30T21:02:11Z</time>
      </trkpt>
      <trkpt lat="44.19521" lon="5.94514">
        <ele>479.99</ele>
        <time>2024-01-30T21:02:12Z</time>
      </trkpt>
      <trkpt lat="44.19507" lon="5.94519">
        <ele>478.09</ele>
        <time>2024-01-30T21:02:14Z</time>
      </trkpt>
      <trkpt lat="44.19505" lon="5.94523">
        <ele>477.61</ele>
        <time>2024-01-30T21:02:14Z</time>
      </trkpt>
      <trkpt lat="44.19504" lon="5.94534">
        <ele>475.55</ele>
        <time>2024-01-30T21:02:15Z</time>
      </trkpt>
      <trkpt lat="44.19506" lon="5.94539">
        <ele>475</ele>
        <time>2024-01-30T21:02:16Z</time>
      </trkpt>
      <trkpt lat="44.19515" lon="5.94548">
        <ele>473.24</ele>
        <time>2024-01-30T21:02:18Z</time>
      </trkpt>
      <trkpt lat="44.19522" lon="5.94593">
        <ele>467.85</ele>
        <time>2024-01-30T21:02:22Z</time>
      </trkpt>
      <trkpt lat="44.19535" lon="5.9461">
        <ele>466.72</ele>
        <time>2024-01-30T21:02:25Z</time>
      </trkpt>
      <trkpt lat="44.19543" lon="5.94613">
        <ele>466.62</ele>
        <time>2024-01-30T21:02:26Z</time>
      </trkpt>
      <trkpt lat="44.19553" lon="5.94612">
        <ele>466.52</ele>
        <time>2024-01-30T21:02:28Z</time>
      </trkpt>
      <trkpt lat="44.19581" lon="5.94606">
        <ele>466.4</ele>
        <time>2024-01-30T21:02:32Z</time>
      </trkpt>
      <trkpt lat="44.19583" lon="5.94598">
        <ele>466.51</ele>
        <time>2024-01-30T21:02:32Z</time>
      </trkpt>
      <trkpt lat="44.19611" lon="5.94579">
        <ele>466.79</ele>
        <time>2024-01-30T21:02:37Z</time>
      </trkpt>
      <trkpt lat="44.19631" lon="5.9457">
        <ele>467.13</ele>
        <time>2024-01-30T21:02:40Z</time>
      </trkpt>
      <trkpt lat="44.19632" lon="5.94575">
        <ele>466.37</ele>
        <time>2024-01-30T21:02:41Z</time>
      </trkpt>
      <trkpt lat="44.19648" lon="5.94588">
        <ele>464.65</ele>
        <time>2024-01-30T21:02:45Z</time>
      </trkpt>
      <trkpt lat="44.19673" lon="5.94602">
        <ele>462.58</ele>
        <time>2024-01-30T21:02:51Z</time>
      </trkpt>
      <trkpt lat="44.19694" lon="5.94614">
        <ele>461.53</ele>
        <time>2024-01-30T21:02:57Z</time>
      </trkpt>
      <trkpt lat="44.19714" lon="5.94618">
        <ele>461.01</ele>
        <time>2024-01-30T21:03:02Z</time>
      </trkpt>
      <trkpt lat="44.19727" lon="5.94615">
        <ele>460.91</ele>
        <time>2024-01-30T21:03:05Z</time>
      </trkpt>
      <trkpt lat="44.19751" lon="5.94603">
        <ele>461.88</ele>
        <time>2024-01-30T21:03:12Z</time>
      </trkpt>
      <trkpt lat="44.19756" lon="5.94598">
        <ele>461.98</ele>
        <time>2024-01-30T21:03:13Z</time>
      </trkpt>
      <trkpt lat="44.19769" lon="5.94589">
        <ele>462.8</ele>
        <time>2024-01-30T21:03:16Z</time>
      </trkpt>
      <trkpt lat="44.19769" lon="5.94576">
        <ele>464.11</ele>
        <time>2024-01-30T21:03:19Z</time>
      </trkpt>
      <trkpt lat="44.1977" lon="5.94572">
        <ele>464.2</ele>
        <time>2024-01-30T21:03:19Z</time>
      </trkpt>
      <trkpt lat="44.19778" lon="5.94569">
        <ele>464.57</ele>
        <time>2024-01-30T21:03:21Z</time>
      </trkpt>
      <trkpt lat="44.19794" lon="5.94571">
        <ele>464.54</ele>
        <time>2024-01-30T21:03:25Z</time>
      </trkpt>
      <trkpt lat="44.1981" lon="5.94568">
        <ele>465.69</ele>
        <time>2024-01-30T21:03:29Z</time>
      </trkpt>
      <trkpt lat="44.19817" lon="5.94567">
        <ele>465.8</ele>
        <time>2024-01-30T21:03:30Z</time>
      </trkpt>
      <trkpt lat="44.19824" lon="5.94571">
        <ele>465.15</ele>
        <time>2024-01-30T21:03:32Z</time>
      </trkpt>
      <trkpt lat="44.19831" lon="5.94569">
        <ele>466.84</ele>
        <time>2024-01-30T21:03:35Z</time>
      </trkpt>
      <trkpt lat="44.19846" lon="5.94555">
        <ele>468.54</ele>
        <time>2024-01-30T21:03:41Z</time>
      </trkpt>
      <trkpt lat="44.19858" lon="5.94544">
        <ele>469.62</ele>
        <time>2024-01-30T21:03:46Z</time>
      </trkpt>
      <trkpt lat="44.19875" lon="5.94537">
        <ele>470.06</ele>
        <time>2024-01-30T21:03:53Z</time>
      </trkpt>
      <trkpt lat="44.1989" lon="5.94535">
        <ele>470.91</ele>
        <time>2024-01-30T21:03:58Z</time>
      </trkpt>
      <trkpt lat="44.19916" lon="5.9454">
        <ele>467.61</ele>
        <time>2024-01-30T21:04:10Z</time>
      </trkpt>
      <trkpt lat="44.19945" lon="5.94538">
        <ele>472.08</ele>
        <time>2024-01-30T21:04:25Z</time>
      </trkpt>
      <trkpt lat="44.19945" lon="5.94544">
        <ele>468.9</ele>
        <time>2024-01-30T21:04:26Z</time>
      </trkpt>
      <trkpt lat="44.19958" lon="5.94608">
        <ele>471.44</ele>
        <time>2024-01-30T21:04:55Z</time>
      </trkpt>
      <trkpt lat="44.19962" lon="5.94617">
        <ele>473.75</ele>
        <time>2024-01-30T21:05:00Z</time>
      </trkpt>
      <trkpt lat="44.19972" lon="5.94622">
        <ele>474.2</ele>
        <time>2024-01-30T21:05:07Z</time>
      </trkpt>
      <trkpt lat="44.19994" lon="5.94621">
        <ele>475.22</ele>
        <time>2024-01-30T21:05:20Z</time>
      </trkpt>
      <trkpt lat="44.20021" lon="5.94626">
        <ele>477.23</ele>
        <time>2024-01-30T21:05:36Z</time>
      </trkpt>
      <trkpt lat="44.20034" lon="5.94627">
        <ele>478.43</ele>
        <time>2024-01-30T21:05:43Z</time>
      </trkpt>
      <trkpt lat="44.2007" lon="5.94643">
        <ele>478.28</ele>
        <time>2024-01-30T21:06:03Z</time>
      </trkpt>
      <trkpt lat="44.20131" lon="5.94669">
        <ele>478.39</ele>
        <time>2024-01-30T21:06:29Z</time>
      </trkpt>
      <trkpt lat="44.20136" lon="5.9467">
        <ele>479.11</ele>
        <time>2024-01-30T21:06:31Z</time>
      </trkpt>
      <trkpt lat="44.20152" lon="5.94673">
        <ele>479.35</ele>
        <time>2024-01-30T21:06:35Z</time>
      </trkpt>
      <trkpt lat="44.20235" lon="5.94665">
        <ele>483.71</ele>
        <time>2024-01-30T21:06:50Z</time>
      </trkpt>
      <trkpt lat="44.20258" lon="5.94661">
        <ele>484.77</ele>
        <time>2024-01-30T21:06:53Z</time>
      </trkpt>
      <trkpt lat="44.20261" lon="5.94656">
        <ele>484.38</ele>
        <time>2024-01-30T21:06:54Z</time>
      </trkpt>
      <trkpt lat="44.20271" lon="5.94657">
        <ele>484.94</ele>
        <time>2024-01-30T21:06:55Z</time>
      </trkpt>
      <trkpt lat="44.20306" lon="5.9464">
        <ele>485.59</ele>
        <time>2024-01-30T21:07:00Z</time>
      </trkpt>
      <trkpt lat="44.20346" lon="5.94624">
        <ele>486.95</ele>
        <time>2024-01-30T21:07:06Z</time>
      </trkpt>
      <trkpt lat="44.20379" lon="5.94613">
        <ele>487.38</ele>
        <time>2024-01-30T21:07:11Z</time>
      </trkpt>
      <trkpt lat="44.20389" lon="5.94611">
        <ele>488.61</ele>
        <time>2024-01-30T21:07:14Z</time>
      </trkpt>
      <trkpt lat="44.20399" lon="5.94616">
        <ele>488.84</ele>
        <time>2024-01-30T21:07:16Z</time>
      </trkpt>
      <trkpt lat="44.20452" lon="5.94657">
        <ele>490.58</ele>
        <time>2024-01-30T21:07:34Z</time>
      </trkpt>
      <trkpt lat="44.20468" lon="5.9467">
        <ele>491.14</ele>
        <time>2024-01-30T21:07:41Z</time>
      </trkpt>
      <trkpt lat="44.20492" lon="5.94694">
        <ele>491.71</ele>
        <time>2024-01-30T21:07:51Z</time>
      </trkpt>
      <trkpt lat="44.20535" lon="5.94755">
        <ele>492.94</ele>
        <time>2024-01-30T21:08:11Z</time>
      </trkpt>
      <trkpt lat="44.20562" lon="5.94796">
        <ele>492.98</ele>
        <time>2024-01-30T21:08:21Z</time>
      </trkpt>
      <trkpt lat="44.2057" lon="5.94804">
        <ele>492.73</ele>
        <time>2024-01-30T21:08:22Z</time>
      </trkpt>
      <trkpt lat="44.20581" lon="5.94811">
        <ele>492.45</ele>
        <time>2024-01-30T21:08:25Z</time>
      </trkpt>
      <trkpt lat="44.20606" lon="5.9481">
        <ele>492.32</ele>
        <time>2024-01-30T21:08:29Z</time>
      </trkpt>
      <trkpt lat="44.20613" lon="5.94816">
        <ele>492.06</ele>
        <time>2024-01-30T21:08:31Z</time>
      </trkpt>
      <trkpt lat="44.20628" lon="5.94836">
        <ele>491.94</ele>
        <time>2024-01-30T21:08:34Z</time>
      </trkpt>
      <trkpt lat="44.20634" lon="5.94835">
        <ele>491.87</ele>
        <time>2024-01-30T21:08:35Z</time>
      </trkpt>
      <trkpt lat="44.20649" lon="5.94814">
        <ele>487.12</ele>
        <time>2024-01-30T21:08:39Z</time>
      </trkpt>
      <trkpt lat="44.20657" lon="5.94793">
        <ele>492.14</ele>
        <time>2024-01-30T21:08:42Z</time>
      </trkpt>
      <trkpt lat="44.20651" lon="5.94769">
        <ele>492.64</ele>
        <time>2024-01-30T21:08:45Z</time>
      </trkpt>
      <trkpt lat="44.20634" lon="5.94736">
        <ele>493.54</ele>
        <time>2024-01-30T21:08:50Z</time>
      </trkpt>
      <trkpt lat="44.20631" lon="5.94724">
        <ele>493.84</ele>
        <time>2024-01-30T21:08:51Z</time>
      </trkpt>
      <trkpt lat="44.20636" lon="5.94705">
        <ele>494.18</ele>
        <time>2024-01-30T21:08:54Z</time>
      </trkpt>
      <trkpt lat="44.20642" lon="5.94697">
        <ele>494.56</ele>
        <time>2024-01-30T21:08:56Z</time>
      </trkpt>
      <trkpt lat="44.20657" lon="5.94692">
        <ele>494.99</ele>
        <time>2024-01-30T21:08:59Z</time>
      </trkpt>
      <trkpt lat="44.20677" lon="5.94699">
        <ele>495.57</ele>
        <time>2024-01-30T21:09:03Z</time>
      </trkpt>
      <trkpt lat="44.20694" lon="5.94719">
        <ele>496.18</ele>
        <time>2024-01-30T21:09:09Z</time>
      </trkpt>
      <trkpt lat="44.20709" lon="5.94743">
        <ele>496.95</ele>
        <time>2024-01-30T21:09:17Z</time>
      </trkpt>
      <trkpt lat="44.20723" lon="5.94759">
        <ele>497.63</ele>
        <time>2024-01-30T21:09:24Z</time>
      </trkpt>
      <trkpt lat="44.20733" lon="5.94767">
        <ele>498.3</ele>
        <time>2024-01-30T21:09:29Z</time>
      </trkpt>
      <trkpt lat="44.20773" lon="5.94777">
        <ele>501.59</ele>
        <time>2024-01-30T21:09:48Z</time>
      </trkpt>
      <trkpt lat="44.20876" lon="5.94791">
        <ele>509.03</ele>
        <time>2024-01-30T21:10:42Z</time>
      </trkpt>
      <trkpt lat="44.20934" lon="5.9481">
        <ele>513.36</ele>
        <time>2024-01-30T21:11:12Z</time>
      </trkpt>
      <trkpt lat="44.20968" lon="5.94818">
        <ele>516.1</ele>
        <time>2024-01-30T21:11:28Z</time>
      </trkpt>
      <trkpt lat="44.21006" lon="5.94818">
        <ele>518.73</ele>
        <time>2024-01-30T21:11:45Z</time>
      </trkpt>
      <trkpt lat="44.21012" lon="5.94823">
        <ele>519.18</ele>
        <time>2024-01-30T21:11:48Z</time>
      </trkpt>
      <trkpt lat="44.21016" lon="5.9483">
        <ele>519.92</ele>
        <time>2024-01-30T21:11:50Z</time>
      </trkpt>
      <trkpt lat="44.21014" lon="5.94841">
        <ele>520.61</ele>
        <time>2024-01-30T21:11:53Z</time>
      </trkpt>
      <trkpt lat="44.21008" lon="5.94854">
        <ele>521.17</ele>
        <time>2024-01-30T21:11:57Z</time>
      </trkpt>
      <trkpt lat="44.20989" lon="5.94871">
        <ele>522.97</ele>
        <time>2024-01-30T21:12:06Z</time>
      </trkpt>
      <trkpt lat="44.20953" lon="5.94885">
        <ele>525.67</ele>
        <time>2024-01-30T21:12:18Z</time>
      </trkpt>
      <trkpt lat="44.20926" lon="5.94908">
        <ele>527.74</ele>
        <time>2024-01-30T21:12:29Z</time>
      </trkpt>
      <trkpt lat="44.20911" lon="5.9491">
        <ele>529.2</ele>
        <time>2024-01-30T21:12:35Z</time>
      </trkpt>
      <trkpt lat="44.20902" lon="5.94914">
        <ele>529.99</ele>
        <time>2024-01-30T21:12:38Z</time>
      </trkpt>
      <trkpt lat="44.20892" lon="5.94926">
        <ele>530.84</ele>
        <time>2024-01-30T21:12:43Z</time>
      </trkpt>
      <trkpt lat="44.20862" lon="5.9501">
        <ele>535.79</ele>
        <time>2024-01-30T21:13:09Z</time>
      </trkpt>
      <trkpt lat="44.20859" lon="5.95025">
        <ele>536.36</ele>
        <time>2024-01-30T21:13:14Z</time>
      </trkpt>
      <trkpt lat="44.20865" lon="5.95045">
        <ele>538.08</ele>
        <time>2024-01-30T21:13:20Z</time>
      </trkpt>
      <trkpt lat="44.20871" lon="5.9505">
        <ele>538.58</ele>
        <time>2024-01-30T21:13:23Z</time>
      </trkpt>
      <trkpt lat="44.20879" lon="5.95052">
        <ele>539.48</ele>
        <time>2024-01-30T21:13:27Z</time>
      </trkpt>
      <trkpt lat="44.20891" lon="5.95047">
        <ele>540.42</ele>
        <time>2024-01-30T21:13:33Z</time>
      </trkpt>
      <trkpt lat="44.209" lon="5.95035">
        <ele>541.08</ele>
        <time>2024-01-30T21:13:39Z</time>
      </trkpt>
      <trkpt lat="44.20914" lon="5.95002">
        <ele>543.17</ele>
        <time>2024-01-30T21:13:53Z</time>
      </trkpt>
      <trkpt lat="44.20921" lon="5.94999">
        <ele>543.89</ele>
        <time>2024-01-30T21:13:57Z</time>
      </trkpt>
      <trkpt lat="44.20948" lon="5.95008">
        <ele>545.64</ele>
        <time>2024-01-30T21:14:12Z</time>
      </trkpt>
      <trkpt lat="44.20959" lon="5.95007">
        <ele>546.67</ele>
        <time>2024-01-30T21:14:17Z</time>
      </trkpt>
      <trkpt lat="44.20989" lon="5.94995">
        <ele>548.95</ele>
        <time>2024-01-30T21:14:34Z</time>
      </trkpt>
      <trkpt lat="44.21001" lon="5.95002">
        <ele>549.59</ele>
        <time>2024-01-30T21:14:41Z</time>
      </trkpt>
      <trkpt lat="44.21014" lon="5.95021">
        <ele>550.92</ele>
        <time>2024-01-30T21:14:50Z</time>
      </trkpt>
      <trkpt lat="44.21029" lon="5.95035">
        <ele>552.45</ele>
        <time>2024-01-30T21:14:59Z</time>
      </trkpt>
      <trkpt lat="44.21052" lon="5.95048">
        <ele>554.02</ele>
        <time>2024-01-30T21:15:11Z</time>
      </trkpt>
      <trkpt lat="44.21055" lon="5.95051">
        <ele>554.53</ele>
        <time>2024-01-30T21:15:13Z</time>
      </trkpt>
      <trkpt lat="44.21056" lon="5.95059">
        <ele>554.84</ele>
        <time>2024-01-30T21:15:15Z</time>
      </trkpt>
      <trkpt lat="44.21053" lon="5.95071">
        <ele>556.14</ele>
        <time>2024-01-30T21:15:20Z</time>
      </trkpt>
      <trkpt lat="44.2102" lon="5.95075">
        <ele>557.89</ele>
        <time>2024-01-30T21:15:35Z</time>
      </trkpt>
      <trkpt lat="44.21009" lon="5.95082">
        <ele>559.04</ele>
        <time>2024-01-30T21:15:41Z</time>
      </trkpt>
      <trkpt lat="44.20991" lon="5.95112">
        <ele>561</ele>
        <time>2024-01-30T21:15:53Z</time>
      </trkpt>
      <trkpt lat="44.20974" lon="5.95148">
        <ele>563.22</ele>
        <time>2024-01-30T21:16:05Z</time>
      </trkpt>
      <trkpt lat="44.2097" lon="5.95164">
        <ele>564.39</ele>
        <time>2024-01-30T21:16:10Z</time>
      </trkpt>
      <trkpt lat="44.20969" lon="5.95186">
        <ele>565.51</ele>
        <time>2024-01-30T21:16:16Z</time>
      </trkpt>
      <trkpt lat="44.20975" lon="5.95236">
        <ele>567.93</ele>
        <time>2024-01-30T21:16:28Z</time>
      </trkpt>
      <trkpt lat="44.20972" lon="5.95261">
        <ele>569.52</ele>
        <time>2024-01-30T21:16:34Z</time>
      </trkpt>
      <trkpt lat="44.20964" lon="5.9529">
        <ele>570.51</ele>
        <time>2024-01-30T21:16:42Z</time>
      </trkpt>
      <trkpt lat="44.20942" lon="5.95409">
        <ele>576.48</ele>
        <time>2024-01-30T21:17:18Z</time>
      </trkpt>
      <trkpt lat="44.20928" lon="5.95451">
        <ele>578.05</ele>
        <time>2024-01-30T21:17:32Z</time>
      </trkpt>
      <trkpt lat="44.2092" lon="5.95489">
        <ele>579.57</ele>
        <time>2024-01-30T21:17:44Z</time>
      </trkpt>
      <trkpt lat="44.2092" lon="5.95504">
        <ele>580.62</ele>
        <time>2024-01-30T21:17:48Z</time>
      </trkpt>
      <trkpt lat="44.20924" lon="5.95527">
        <ele>582.29</ele>
        <time>2024-01-30T21:17:55Z</time>
      </trkpt>
      <trkpt lat="44.20946" lon="5.9558">
        <ele>586.73</ele>
        <time>2024-01-30T21:18:12Z</time>
      </trkpt>
      <trkpt lat="44.20954" lon="5.95614">
        <ele>588.39</ele>
        <time>2024-01-30T21:18:22Z</time>
      </trkpt>
      <trkpt lat="44.20951" lon="5.95678">
        <ele>591.82</ele>
        <time>2024-01-30T21:18:42Z</time>
      </trkpt>
      <trkpt lat="44.20928" lon="5.95767">
        <ele>595.59</ele>
        <time>2024-01-30T21:19:15Z</time>
      </trkpt>
      <trkpt lat="44.20923" lon="5.95797">
        <ele>597.3</ele>
        <time>2024-01-30T21:19:27Z</time>
      </trkpt>
      <trkpt lat="44.20922" lon="5.95817">
        <ele>598.42</ele>
        <time>2024-01-30T21:19:34Z</time>
      </trkpt>
      <trkpt lat="44.20926" lon="5.95854">
        <ele>601.82</ele>
        <time>2024-01-30T21:19:47Z</time>
      </trkpt>
      <trkpt lat="44.2093" lon="5.95865">
        <ele>603.57</ele>
        <time>2024-01-30T21:19:51Z</time>
      </trkpt>
      <trkpt lat="44.20938" lon="5.95877">
        <ele>605.97</ele>
        <time>2024-01-30T21:19:57Z</time>
      </trkpt>
      <trkpt lat="44.20948" lon="5.95878">
        <ele>607.44</ele>
        <time>2024-01-30T21:20:02Z</time>
      </trkpt>
      <trkpt lat="44.20966" lon="5.95875">
        <ele>608.97</ele>
        <time>2024-01-30T21:20:11Z</time>
      </trkpt>
      <trkpt lat="44.20999" lon="5.95861">
        <ele>610.12</ele>
        <time>2024-01-30T21:20:29Z</time>
      </trkpt>
      <trkpt lat="44.21019" lon="5.95847">
        <ele>610.24</ele>
        <time>2024-01-30T21:20:40Z</time>
      </trkpt>
      <trkpt lat="44.21025" lon="5.95839">
        <ele>610.31</ele>
        <time>2024-01-30T21:20:45Z</time>
      </trkpt>
      <trkpt lat="44.21029" lon="5.95827">
        <ele>610.72</ele>
        <time>2024-01-30T21:20:50Z</time>
      </trkpt>
      <trkpt lat="44.21039" lon="5.95766">
        <ele>612.38</ele>
        <time>2024-01-30T21:21:12Z</time>
      </trkpt>
      <trkpt lat="44.21043" lon="5.95754">
        <ele>612.78</ele>
        <time>2024-01-30T21:21:17Z</time>
      </trkpt>
      <trkpt lat="44.2105" lon="5.95748">
        <ele>613.79</ele>
        <time>2024-01-30T21:21:21Z</time>
      </trkpt>
      <trkpt lat="44.21085" lon="5.95739">
        <ele>617.25</ele>
        <time>2024-01-30T21:21:37Z</time>
      </trkpt>
      <trkpt lat="44.21111" lon="5.95711">
        <ele>620.06</ele>
        <time>2024-01-30T21:21:52Z</time>
      </trkpt>
      <trkpt lat="44.21125" lon="5.95688">
        <ele>620.86</ele>
        <time>2024-01-30T21:22:01Z</time>
      </trkpt>
      <trkpt lat="44.21134" lon="5.95663">
        <ele>621.73</ele>
        <time>2024-01-30T21:22:10Z</time>
      </trkpt>
      <trkpt lat="44.21143" lon="5.95617">
        <ele>623.56</ele>
        <time>2024-01-30T21:22:26Z</time>
      </trkpt>
      <trkpt lat="44.21148" lon="5.95606">
        <ele>625.05</ele>
        <time>2024-01-30T21:22:31Z</time>
      </trkpt>
      <trkpt lat="44.21178" lon="5.95588">
        <ele>628.13</ele>
        <time>2024-01-30T21:22:47Z</time>
      </trkpt>
      <trkpt lat="44.21198" lon="5.95554">
        <ele>628.41</ele>
        <time>2024-01-30T21:23:02Z</time>
      </trkpt>
      <trkpt lat="44.21209" lon="5.95548">
        <ele>629.75</ele>
        <time>2024-01-30T21:23:08Z</time>
      </trkpt>
      <trkpt lat="44.21243" lon="5.95539">
        <ele>632.23</ele>
        <time>2024-01-30T21:23:25Z</time>
      </trkpt>
      <trkpt lat="44.21262" lon="5.95537">
        <ele>633.01</ele>
        <time>2024-01-30T21:23:33Z</time>
      </trkpt>
      <trkpt lat="44.21274" lon="5.9554">
        <ele>632.69</ele>
        <time>2024-01-30T21:23:39Z</time>
      </trkpt>
      <trkpt lat="44.21282" lon="5.95551">
        <ele>634.04</ele>
        <time>2024-01-30T21:23:45Z</time>
      </trkpt>
      <trkpt lat="44.21283" lon="5.95561">
        <ele>635.07</ele>
        <time>2024-01-30T21:23:49Z</time>
      </trkpt>
      <trkpt lat="44.21281" lon="5.95573">
        <ele>636.59</ele>
        <time>2024-01-30T21:23:53Z</time>
      </trkpt>
      <trkpt lat="44.21262" lon="5.95632">
        <ele>640.41</ele>
        <time>2024-01-30T21:24:15Z</time>
      </trkpt>
      <trkpt lat="44.21252" lon="5.95702">
        <ele>644.2</ele>
        <time>2024-01-30T21:24:39Z</time>
      </trkpt>
      <trkpt lat="44.21208" lon="5.95831">
        <ele>649.78</ele>
        <time>2024-01-30T21:25:19Z</time>
      </trkpt>
      <trkpt lat="44.21192" lon="5.95924">
        <ele>655.35</ele>
        <time>2024-01-30T21:25:48Z</time>
      </trkpt>
      <trkpt lat="44.21177" lon="5.96038">
        <ele>659.9</ele>
        <time>2024-01-30T21:26:26Z</time>
      </trkpt>
      <trkpt lat="44.21178" lon="5.961">
        <ele>666.23</ele>
        <time>2024-01-30T21:26:48Z</time>
      </trkpt>
      <trkpt lat="44.21177" lon="5.96118">
        <ele>667.79</ele>
        <time>2024-01-30T21:26:54Z</time>
      </trkpt>
      <trkpt lat="44.21166" lon="5.96165">
        <ele>672.11</ele>
        <time>2024-01-30T21:27:13Z</time>
      </trkpt>
      <trkpt lat="44.21164" lon="5.96228">
        <ele>674.24</ele>
        <time>2024-01-30T21:27:36Z</time>
      </trkpt>
      <trkpt lat="44.21162" lon="5.96255">
        <ele>675.41</ele>
        <time>2024-01-30T21:27:47Z</time>
      </trkpt>
      <trkpt lat="44.21155" lon="5.96288">
        <ele>675.9</ele>
        <time>2024-01-30T21:27:59Z</time>
      </trkpt>
      <trkpt lat="44.21146" lon="5.9638">
        <ele>679.09</ele>
        <time>2024-01-30T21:28:33Z</time>
      </trkpt>
      <trkpt lat="44.2111" lon="5.96467">
        <ele>684.78</ele>
        <time>2024-01-30T21:29:08Z</time>
      </trkpt>
      <trkpt lat="44.21103" lon="5.96493">
        <ele>685.69</ele>
        <time>2024-01-30T21:29:17Z</time>
      </trkpt>
      <trkpt lat="44.211" lon="5.96512">
        <ele>686.61</ele>
        <time>2024-01-30T21:29:23Z</time>
      </trkpt>
      <trkpt lat="44.211" lon="5.96525">
        <ele>687.47</ele>
        <time>2024-01-30T21:29:27Z</time>
      </trkpt>
      <trkpt lat="44.21114" lon="5.96579">
        <ele>692.99</ele>
        <time>2024-01-30T21:29:43Z</time>
      </trkpt>
      <trkpt lat="44.21111" lon="5.96606">
        <ele>694.37</ele>
        <time>2024-01-30T21:29:51Z</time>
      </trkpt>
      <trkpt lat="44.21106" lon="5.96617">
        <ele>694.55</ele>
        <time>2024-01-30T21:29:55Z</time>
      </trkpt>
      <trkpt lat="44.21075" lon="5.96643">
        <ele>694.37</ele>
        <time>2024-01-30T21:30:09Z</time>
      </trkpt>
      <trkpt lat="44.21069" lon="5.96651">
        <ele>694.77</ele>
        <time>2024-01-30T21:30:12Z</time>
      </trkpt>
      <trkpt lat="44.21062" lon="5.96674">
        <ele>696.75</ele>
        <time>2024-01-30T21:30:20Z</time>
      </trkpt>
      <trkpt lat="44.21059" lon="5.96759">
        <ele>701.69</ele>
        <time>2024-01-30T21:30:46Z</time>
      </trkpt>
      <trkpt lat="44.21054" lon="5.96796">
        <ele>704.12</ele>
        <time>2024-01-30T21:30:59Z</time>
      </trkpt>
      <trkpt lat="44.21048" lon="5.9681">
        <ele>703.66</ele>
        <time>2024-01-30T21:31:05Z</time>
      </trkpt>
      <trkpt lat="44.21018" lon="5.96857">
        <ele>699.41</ele>
        <time>2024-01-30T21:31:28Z</time>
      </trkpt>
      <trkpt lat="44.21016" lon="5.96868">
        <ele>700.4</ele>
        <time>2024-01-30T21:31:32Z</time>
      </trkpt>
      <trkpt lat="44.21017" lon="5.96878">
        <ele>700.83</ele>
        <time>2024-01-30T21:31:36Z</time>
      </trkpt>
      <trkpt lat="44.21049" lon="5.96953">
        <ele>711.67</ele>
        <time>2024-01-30T21:32:09Z</time>
      </trkpt>
      <trkpt lat="44.21052" lon="5.96977">
        <ele>710.16</ele>
        <time>2024-01-30T21:32:18Z</time>
      </trkpt>
      <trkpt lat="44.21048" lon="5.96987">
        <ele>708.35</ele>
        <time>2024-01-30T21:32:23Z</time>
      </trkpt>
      <trkpt lat="44.21036" lon="5.96998">
        <ele>707.3</ele>
        <time>2024-01-30T21:32:31Z</time>
      </trkpt>
      <trkpt lat="44.21015" lon="5.97004">
        <ele>711.43</ele>
        <time>2024-01-30T21:32:43Z</time>
      </trkpt>
      <trkpt lat="44.20991" lon="5.97015">
        <ele>713.99</ele>
        <time>2024-01-30T21:32:56Z</time>
      </trkpt>
      <trkpt lat="44.20969" lon="5.97035">
        <ele>716.64</ele>
        <time>2024-01-30T21:33:10Z</time>
      </trkpt>
      <trkpt lat="44.20943" lon="5.97074">
        <ele>720.09</ele>
        <time>2024-01-30T21:33:30Z</time>
      </trkpt>
      <trkpt lat="44.20934" lon="5.97082">
        <ele>721.7</ele>
        <time>2024-01-30T21:33:36Z</time>
      </trkpt>
      <trkpt lat="44.20908" lon="5.97086">
        <ele>721.12</ele>
        <time>2024-01-30T21:33:48Z</time>
      </trkpt>
      <trkpt lat="44.209" lon="5.97092">
        <ele>720.94</ele>
        <time>2024-01-30T21:33:53Z</time>
      </trkpt>
      <trkpt lat="44.20874" lon="5.97152">
        <ele>726.98</ele>
        <time>2024-01-30T21:34:20Z</time>
      </trkpt>
      <trkpt lat="44.20867" lon="5.97159">
        <ele>728.43</ele>
        <time>2024-01-30T21:34:25Z</time>
      </trkpt>
      <trkpt lat="44.20857" lon="5.97161">
        <ele>728.15</ele>
        <time>2024-01-30T21:34:31Z</time>
      </trkpt>
      <trkpt lat="44.20839" lon="5.97157">
        <ele>726.79</ele>
        <time>2024-01-30T21:34:42Z</time>
      </trkpt>
      <trkpt lat="44.20828" lon="5.97159">
        <ele>727.61</ele>
        <time>2024-01-30T21:34:49Z</time>
      </trkpt>
      <trkpt lat="44.20783" lon="5.97195">
        <ele>730.34</ele>
        <time>2024-01-30T21:35:21Z</time>
      </trkpt>
      <trkpt lat="44.20758" lon="5.97246">
        <ele>734.2</ele>
        <time>2024-01-30T21:35:50Z</time>
      </trkpt>
      <trkpt lat="44.20749" lon="5.97254">
        <ele>733.85</ele>
        <time>2024-01-30T21:35:56Z</time>
      </trkpt>
      <trkpt lat="44.20726" lon="5.97259">
        <ele>734.59</ele>
        <time>2024-01-30T21:36:11Z</time>
      </trkpt>
      <trkpt lat="44.20707" lon="5.97258">
        <ele>736.43</ele>
        <time>2024-01-30T21:36:23Z</time>
      </trkpt>
      <trkpt lat="44.20676" lon="5.97235">
        <ele>740.49</ele>
        <time>2024-01-30T21:36:44Z</time>
      </trkpt>
      <trkpt lat="44.20585" lon="5.97213">
        <ele>746.72</ele>
        <time>2024-01-30T21:37:34Z</time>
      </trkpt>
      <trkpt lat="44.20575" lon="5.97208">
        <ele>746.92</ele>
        <time>2024-01-30T21:37:40Z</time>
      </trkpt>
      <trkpt lat="44.20571" lon="5.97204">
        <ele>746.86</ele>
        <time>2024-01-30T21:37:43Z</time>
      </trkpt>
      <trkpt lat="44.20568" lon="5.97192">
        <ele>746.49</ele>
        <time>2024-01-30T21:37:47Z</time>
      </trkpt>
      <trkpt lat="44.20571" lon="5.9715">
        <ele>749.01</ele>
        <time>2024-01-30T21:38:02Z</time>
      </trkpt>
      <trkpt lat="44.20539" lon="5.97082">
        <ele>756.85</ele>
        <time>2024-01-30T21:38:32Z</time>
      </trkpt>
      <trkpt lat="44.2053" lon="5.97042">
        <ele>756.94</ele>
        <time>2024-01-30T21:38:50Z</time>
      </trkpt>
      <trkpt lat="44.20526" lon="5.97033">
        <ele>756.98</ele>
        <time>2024-01-30T21:38:54Z</time>
      </trkpt>
      <trkpt lat="44.2052" lon="5.97031">
        <ele>758.35</ele>
        <time>2024-01-30T21:38:58Z</time>
      </trkpt>
      <trkpt lat="44.20515" lon="5.97035">
        <ele>759.48</ele>
        <time>2024-01-30T21:39:02Z</time>
      </trkpt>
      <trkpt lat="44.20512" lon="5.97043">
        <ele>760.36</ele>
        <time>2024-01-30T21:39:07Z</time>
      </trkpt>
      <trkpt lat="44.20517" lon="5.97076">
        <ele>761.4</ele>
        <time>2024-01-30T21:39:22Z</time>
      </trkpt>
      <trkpt lat="44.20516" lon="5.97126">
        <ele>765.04</ele>
        <time>2024-01-30T21:39:44Z</time>
      </trkpt>
      <trkpt lat="44.2052" lon="5.97171">
        <ele>763.93</ele>
        <time>2024-01-30T21:40:04Z</time>
      </trkpt>
      <trkpt lat="44.20512" lon="5.97205">
        <ele>764.88</ele>
        <time>2024-01-30T21:40:18Z</time>
      </trkpt>
      <trkpt lat="44.20495" lon="5.9725">
        <ele>769.3</ele>
        <time>2024-01-30T21:40:38Z</time>
      </trkpt>
      <trkpt lat="44.20492" lon="5.97277">
        <ele>773.24</ele>
        <time>2024-01-30T21:40:47Z</time>
      </trkpt>
      <trkpt lat="44.20495" lon="5.97307">
        <ele>776.68</ele>
        <time>2024-01-30T21:40:58Z</time>
      </trkpt>
      <trkpt lat="44.205" lon="5.97319">
        <ele>779.07</ele>
        <time>2024-01-30T21:41:02Z</time>
      </trkpt>
      <trkpt lat="44.20507" lon="5.97327">
        <ele>781.74</ele>
        <time>2024-01-30T21:41:07Z</time>
      </trkpt>
      <trkpt lat="44.20515" lon="5.97331">
        <ele>783.45</ele>
        <time>2024-01-30T21:41:10Z</time>
      </trkpt>
      <trkpt lat="44.20543" lon="5.97325">
        <ele>782.5</ele>
        <time>2024-01-30T21:41:23Z</time>
      </trkpt>
      <trkpt lat="44.2055" lon="5.97328">
        <ele>783.81</ele>
        <time>2024-01-30T21:41:26Z</time>
      </trkpt>
      <trkpt lat="44.20577" lon="5.97354">
        <ele>784.93</ele>
        <time>2024-01-30T21:41:37Z</time>
      </trkpt>
      <trkpt lat="44.2059" lon="5.97374">
        <ele>785.91</ele>
        <time>2024-01-30T21:41:43Z</time>
      </trkpt>
      <trkpt lat="44.20599" lon="5.97423">
        <ele>791.9</ele>
        <time>2024-01-30T21:41:52Z</time>
      </trkpt>
      <trkpt lat="44.20608" lon="5.97431">
        <ele>792.04</ele>
        <time>2024-01-30T21:41:54Z</time>
      </trkpt>
      <trkpt lat="44.20615" lon="5.97434">
        <ele>792.35</ele>
        <time>2024-01-30T21:41:57Z</time>
      </trkpt>
      <trkpt lat="44.20674" lon="5.97441">
        <ele>793.09</ele>
        <time>2024-01-30T21:42:13Z</time>
      </trkpt>
      <trkpt lat="44.20686" lon="5.9744">
        <ele>793.58</ele>
        <time>2024-01-30T21:42:17Z</time>
      </trkpt>
      <trkpt lat="44.20709" lon="5.97433">
        <ele>791.28</ele>
        <time>2024-01-30T21:42:25Z</time>
      </trkpt>
      <trkpt lat="44.20715" lon="5.97437">
        <ele>791.35</ele>
        <time>2024-01-30T21:42:27Z</time>
      </trkpt>
      <trkpt lat="44.20716" lon="5.97447">
        <ele>796.58</ele>
        <time>2024-01-30T21:42:30Z</time>
      </trkpt>
      <trkpt lat="44.20714" lon="5.97455">
        <ele>799.16</ele>
        <time>2024-01-30T21:42:32Z</time>
      </trkpt>
      <trkpt lat="44.2071" lon="5.97462">
        <ele>800.92</ele>
        <time>2024-01-30T21:42:34Z</time>
      </trkpt>
      <trkpt lat="44.20701" lon="5.97465">
        <ele>802.59</ele>
        <time>2024-01-30T21:42:37Z</time>
      </trkpt>
      <trkpt lat="44.20676" lon="5.97462">
        <ele>800.93</ele>
        <time>2024-01-30T21:42:44Z</time>
      </trkpt>
      <trkpt lat="44.20564" lon="5.97516">
        <ele>814.19</ele>
        <time>2024-01-30T21:43:03Z</time>
      </trkpt>
      <trkpt lat="44.20562" lon="5.9752">
        <ele>815.12</ele>
        <time>2024-01-30T21:43:03Z</time>
      </trkpt>
      <trkpt lat="44.20558" lon="5.97525">
        <ele>816.08</ele>
        <time>2024-01-30T21:43:04Z</time>
      </trkpt>
      <trkpt lat="44.20557" lon="5.97538">
        <ele>817.19</ele>
        <time>2024-01-30T21:43:05Z</time>
      </trkpt>
      <trkpt lat="44.20561" lon="5.97551">
        <ele>816.93</ele>
        <time>2024-01-30T21:43:06Z</time>
      </trkpt>
      <trkpt lat="44.20565" lon="5.97559">
        <ele>816.56</ele>
        <time>2024-01-30T21:43:07Z</time>
      </trkpt>
      <trkpt lat="44.20587" lon="5.97572">
        <ele>816.88</ele>
        <time>2024-01-30T21:43:10Z</time>
      </trkpt>
      <trkpt lat="44.20588" lon="5.97584">
        <ele>816.13</ele>
        <time>2024-01-30T21:43:11Z</time>
      </trkpt>
      <trkpt lat="44.20605" lon="5.97602">
        <ele>816.11</ele>
        <time>2024-01-30T21:43:14Z</time>
      </trkpt>
      <trkpt lat="44.20621" lon="5.97625">
        <ele>815.46</ele>
        <time>2024-01-30T21:43:17Z</time>
      </trkpt>
      <trkpt lat="44.20639" lon="5.97668">
        <ele>815.15</ele>
        <time>2024-01-30T21:43:21Z</time>
      </trkpt>
      <trkpt lat="44.20643" lon="5.97684">
        <ele>813.78</ele>
        <time>2024-01-30T21:43:23Z</time>
      </trkpt>
      <trkpt lat="44.2065" lon="5.97747">
        <ele>811.41</ele>
        <time>2024-01-30T21:43:28Z</time>
      </trkpt>
      <trkpt lat="44.2066" lon="5.97794">
        <ele>806.97</ele>
        <time>2024-01-30T21:43:32Z</time>
      </trkpt>
      <trkpt lat="44.20684" lon="5.97841">
        <ele>807</ele>
        <time>2024-01-30T21:43:37Z</time>
      </trkpt>
      <trkpt lat="44.20692" lon="5.97884">
        <ele>800.7</ele>
        <time>2024-01-30T21:43:41Z</time>
      </trkpt>
      <trkpt lat="44.20714" lon="5.97935">
        <ele>799.88</ele>
        <time>2024-01-30T21:43:47Z</time>
      </trkpt>
      <trkpt lat="44.20726" lon="5.97977">
        <ele>797.3</ele>
        <time>2024-01-30T21:43:51Z</time>
      </trkpt>
      <trkpt lat="44.20744" lon="5.98064">
        <ele>794.22</ele>
        <time>2024-01-30T21:43:59Z</time>
      </trkpt>
      <trkpt lat="44.20752" lon="5.98132">
        <ele>790.97</ele>
        <time>2024-01-30T21:44:05Z</time>
      </trkpt>
      <trkpt lat="44.20754" lon="5.98152">
        <ele>790.46</ele>
        <time>2024-01-30T21:44:07Z</time>
      </trkpt>
      <trkpt lat="44.20762" lon="5.98175">
        <ele>790.45</ele>
        <time>2024-01-30T21:44:09Z</time>
      </trkpt>
      <trkpt lat="44.20796" lon="5.98218">
        <ele>790.15</ele>
        <time>2024-01-30T21:44:14Z</time>
      </trkpt>
      <trkpt lat="44.20811" lon="5.98245">
        <ele>785.31</ele>
        <time>2024-01-30T21:44:17Z</time>
      </trkpt>
      <trkpt lat="44.20874" lon="5.98303">
        <ele>779.78</ele>
        <time>2024-01-30T21:44:26Z</time>
      </trkpt>
      <trkpt lat="44.20889" lon="5.98328">
        <ele>776.02</ele>
        <time>2024-01-30T21:44:29Z</time>
      </trkpt>
      <trkpt lat="44.20906" lon="5.98366">
        <ele>773.31</ele>
        <time>2024-01-30T21:44:32Z</time>
      </trkpt>
      <trkpt lat="44.20919" lon="5.98426">
        <ele>767.62</ele>
        <time>2024-01-30T21:44:37Z</time>
      </trkpt>
      <trkpt lat="44.20926" lon="5.98443">
        <ele>766.16</ele>
        <time>2024-01-30T21:44:39Z</time>
      </trkpt>
      <trkpt lat="44.20981" lon="5.98514">
        <ele>759.88</ele>
        <time>2024-01-30T21:44:48Z</time>
      </trkpt>
      <trkpt lat="44.21011" lon="5.98567">
        <ele>754.69</ele>
        <time>2024-01-30T21:44:53Z</time>
      </trkpt>
      <trkpt lat="44.21016" lon="5.9859">
        <ele>753.36</ele>
        <time>2024-01-30T21:44:55Z</time>
      </trkpt>
      <trkpt lat="44.21026" lon="5.98702">
        <ele>745.1</ele>
        <time>2024-01-30T21:45:05Z</time>
      </trkpt>
      <trkpt lat="44.2102" lon="5.98729">
        <ele>742.36</ele>
        <time>2024-01-30T21:45:07Z</time>
      </trkpt>
      <trkpt lat="44.21026" lon="5.98787">
        <ele>741.64</ele>
        <time>2024-01-30T21:45:12Z</time>
      </trkpt>
      <trkpt lat="44.21027" lon="5.98834">
        <ele>737.63</ele>
        <time>2024-01-30T21:45:16Z</time>
      </trkpt>
      <trkpt lat="44.2104" lon="5.98854">
        <ele>737.04</ele>
        <time>2024-01-30T21:45:18Z</time>
      </trkpt>
      <trkpt lat="44.21101" lon="5.98926">
        <ele>739.46</ele>
        <time>2024-01-30T21:45:28Z</time>
      </trkpt>
      <trkpt lat="44.21109" lon="5.98944">
        <ele>737.9</ele>
        <time>2024-01-30T21:45:30Z</time>
      </trkpt>
      <trkpt lat="44.21115" lon="5.98976">
        <ele>733.94</ele>
        <time>2024-01-30T21:45:33Z</time>
      </trkpt>
      <trkpt lat="44.21134" lon="5.99016">
        <ele>731.46</ele>
        <time>2024-01-30T21:45:38Z</time>
      </trkpt>
      <trkpt lat="44.21162" lon="5.99095">
        <ele>726.32</ele>
        <time>2024-01-30T21:45:46Z</time>
      </trkpt>
      <trkpt lat="44.21193" lon="5.99152">
        <ele>725.04</ele>
        <time>2024-01-30T21:45:53Z</time>
      </trkpt>
      <trkpt lat="44.21214" lon="5.99196">
        <ele>722.45</ele>
        <time>2024-01-30T21:45:58Z</time>
      </trkpt>
      <trkpt lat="44.21229" lon="5.99215">
        <ele>720.63</ele>
        <time>2024-01-30T21:46:01Z</time>
      </trkpt>
      <trkpt lat="44.21262" lon="5.99232">
        <ele>720.27</ele>
        <time>2024-01-30T21:46:05Z</time>
      </trkpt>
      <trkpt lat="44.21283" lon="5.99237">
        <ele>720.87</ele>
        <time>2024-01-30T21:46:08Z</time>
      </trkpt>
      <trkpt lat="44.21323" lon="5.99267">
        <ele>716.81</ele>
        <time>2024-01-30T21:46:15Z</time>
      </trkpt>
      <trkpt lat="44.21345" lon="5.99295">
        <ele>714.33</ele>
        <time>2024-01-30T21:46:19Z</time>
      </trkpt>
      <trkpt lat="44.21352" lon="5.99308">
        <ele>713.08</ele>
        <time>2024-01-30T21:46:21Z</time>
      </trkpt>
      <trkpt lat="44.21352" lon="5.9932">
        <ele>711.75</ele>
        <time>2024-01-30T21:46:22Z</time>
      </trkpt>
      <trkpt lat="44.2136" lon="5.99337">
        <ele>710.8</ele>
        <time>2024-01-30T21:46:25Z</time>
      </trkpt>
      <trkpt lat="44.21382" lon="5.99355">
        <ele>710.73</ele>
        <time>2024-01-30T21:46:29Z</time>
      </trkpt>
      <trkpt lat="44.21411" lon="5.99388">
        <ele>709.13</ele>
        <time>2024-01-30T21:46:36Z</time>
      </trkpt>
      <trkpt lat="44.21478" lon="5.9942">
        <ele>710.68</ele>
        <time>2024-01-30T21:46:53Z</time>
      </trkpt>
      <trkpt lat="44.21518" lon="5.99442">
        <ele>711.42</ele>
        <time>2024-01-30T21:47:07Z</time>
      </trkpt>
      <trkpt lat="44.21532" lon="5.99454">
        <ele>711.98</ele>
        <time>2024-01-30T21:47:13Z</time>
      </trkpt>
      <trkpt lat="44.21568" lon="5.99472">
        <ele>713.73</ele>
        <time>2024-01-30T21:47:28Z</time>
      </trkpt>
      <trkpt lat="44.21607" lon="5.99478">
        <ele>716.88</ele>
        <time>2024-01-30T21:47:45Z</time>
      </trkpt>
      <trkpt lat="44.21656" lon="5.99462">
        <ele>724.43</ele>
        <time>2024-01-30T21:48:08Z</time>
      </trkpt>
      <trkpt lat="44.21673" lon="5.99465">
        <ele>726.49</ele>
        <time>2024-01-30T21:48:16Z</time>
      </trkpt>
      <trkpt lat="44.21681" lon="5.99473">
        <ele>727.3</ele>
        <time>2024-01-30T21:48:21Z</time>
      </trkpt>
      <trkpt lat="44.21695" lon="5.99495">
        <ele>728.43</ele>
        <time>2024-01-30T21:48:31Z</time>
      </trkpt>
      <trkpt lat="44.21734" lon="5.99537">
        <ele>731.54</ele>
        <time>2024-01-30T21:48:56Z</time>
      </trkpt>
      <trkpt lat="44.21746" lon="5.99553">
        <ele>731.86</ele>
        <time>2024-01-30T21:49:04Z</time>
      </trkpt>
      <trkpt lat="44.21762" lon="5.99583">
        <ele>731.28</ele>
        <time>2024-01-30T21:49:18Z</time>
      </trkpt>
      <trkpt lat="44.21778" lon="5.99616">
        <ele>731.99</ele>
        <time>2024-01-30T21:49:33Z</time>
      </trkpt>
      <trkpt lat="44.21777" lon="5.99646">
        <ele>731.12</ele>
        <time>2024-01-30T21:49:45Z</time>
      </trkpt>
      <trkpt lat="44.21776" lon="5.99661">
        <ele>730.86</ele>
        <time>2024-01-30T21:49:51Z</time>
      </trkpt>
      <trkpt lat="44.21779" lon="5.99677">
        <ele>731.42</ele>
        <time>2024-01-30T21:49:57Z</time>
      </trkpt>
      <trkpt lat="44.21784" lon="5.99686">
        <ele>731.99</ele>
        <time>2024-01-30T21:50:01Z</time>
      </trkpt>
      <trkpt lat="44.21791" lon="5.99696">
        <ele>732.48</ele>
        <time>2024-01-30T21:50:07Z</time>
      </trkpt>
      <trkpt lat="44.21802" lon="5.99703">
        <ele>733.62</ele>
        <time>2024-01-30T21:50:14Z</time>
      </trkpt>
      <trkpt lat="44.21808" lon="5.9971">
        <ele>733.65</ele>
        <time>2024-01-30T21:50:18Z</time>
      </trkpt>
      <trkpt lat="44.21813" lon="5.99721">
        <ele>734.04</ele>
        <time>2024-01-30T21:50:23Z</time>
      </trkpt>
      <trkpt lat="44.21818" lon="5.99726">
        <ele>734.43</ele>
        <time>2024-01-30T21:50:26Z</time>
      </trkpt>
      <trkpt lat="44.21836" lon="5.99718">
        <ele>735.17</ele>
        <time>2024-01-30T21:50:35Z</time>
      </trkpt>
      <trkpt lat="44.21862" lon="5.99744">
        <ele>740.03</ele>
        <time>2024-01-30T21:50:52Z</time>
      </trkpt>
      <trkpt lat="44.21882" lon="5.99752">
        <ele>744.47</ele>
        <time>2024-01-30T21:51:03Z</time>
      </trkpt>
      <trkpt lat="44.21917" lon="5.99747">
        <ele>745.56</ele>
        <time>2024-01-30T21:51:23Z</time>
      </trkpt>
      <trkpt lat="44.21925" lon="5.99749">
        <ele>746.04</ele>
        <time>2024-01-30T21:51:27Z</time>
      </trkpt>
      <trkpt lat="44.21927" lon="5.99755">
        <ele>747.98</ele>
        <time>2024-01-30T21:51:30Z</time>
      </trkpt>
      <trkpt lat="44.21924" lon="5.99761">
        <ele>749.17</ele>
        <time>2024-01-30T21:51:33Z</time>
      </trkpt>
      <trkpt lat="44.21877" lon="5.99782">
        <ele>752.59</ele>
        <time>2024-01-30T21:52:04Z</time>
      </trkpt>
      <trkpt lat="44.21873" lon="5.99787">
        <ele>753.15</ele>
        <time>2024-01-30T21:52:07Z</time>
      </trkpt>
      <trkpt lat="44.21874" lon="5.99789">
        <ele>754.22</ele>
        <time>2024-01-30T21:52:08Z</time>
      </trkpt>
      <trkpt lat="44.21875" lon="5.99794">
        <ele>755.25</ele>
        <time>2024-01-30T21:52:10Z</time>
      </trkpt>
      <trkpt lat="44.21878" lon="5.99796">
        <ele>755.84</ele>
        <time>2024-01-30T21:52:12Z</time>
      </trkpt>
      <trkpt lat="44.21911" lon="5.99798">
        <ele>759.96</ele>
        <time>2024-01-30T21:52:32Z</time>
      </trkpt>
      <trkpt lat="44.21935" lon="5.99808">
        <ele>760.69</ele>
        <time>2024-01-30T21:52:47Z</time>
      </trkpt>
      <trkpt lat="44.21958" lon="5.99827">
        <ele>762.14</ele>
        <time>2024-01-30T21:53:03Z</time>
      </trkpt>
      <trkpt lat="44.21966" lon="5.99851">
        <ele>766.1</ele>
        <time>2024-01-30T21:53:14Z</time>
      </trkpt>
      <trkpt lat="44.21963" lon="5.99868">
        <ele>768.93</ele>
        <time>2024-01-30T21:53:22Z</time>
      </trkpt>
      <trkpt lat="44.21959" lon="5.99877">
        <ele>770.37</ele>
        <time>2024-01-30T21:53:27Z</time>
      </trkpt>
      <trkpt lat="44.21957" lon="5.99881">
        <ele>771.08</ele>
        <time>2024-01-30T21:53:29Z</time>
      </trkpt>
      <trkpt lat="44.21945" lon="5.99887">
        <ele>771.78</ele>
        <time>2024-01-30T21:53:37Z</time>
      </trkpt>
      <trkpt lat="44.21923" lon="5.99894">
        <ele>773.03</ele>
        <time>2024-01-30T21:53:51Z</time>
      </trkpt>
      <trkpt lat="44.21914" lon="5.999">
        <ele>773.54</ele>
        <time>2024-01-30T21:53:56Z</time>
      </trkpt>
      <trkpt lat="44.21909" lon="5.99907">
        <ele>774.89</ele>
        <time>2024-01-30T21:54:00Z</time>
      </trkpt>
      <trkpt lat="44.21908" lon="5.99915">
        <ele>776.58</ele>
        <time>2024-01-30T21:54:04Z</time>
      </trkpt>
      <trkpt lat="44.21913" lon="5.99922">
        <ele>777.64</ele>
        <time>2024-01-30T21:54:08Z</time>
      </trkpt>
      <trkpt lat="44.21941" lon="5.99941">
        <ele>781.11</ele>
        <time>2024-01-30T21:54:25Z</time>
      </trkpt>
      <trkpt lat="44.21978" lon="5.99948">
        <ele>783.07</ele>
        <time>2024-01-30T21:54:44Z</time>
      </trkpt>
      <trkpt lat="44.21981" lon="5.99951">
        <ele>783.37</ele>
        <time>2024-01-30T21:54:45Z</time>
      </trkpt>
      <trkpt lat="44.2198" lon="5.99962">
        <ele>785.65</ele>
        <time>2024-01-30T21:54:49Z</time>
      </trkpt>
      <trkpt lat="44.21966" lon="5.99984">
        <ele>787.42</ele>
        <time>2024-01-30T21:54:57Z</time>
      </trkpt>
      <trkpt lat="44.21959" lon="6.00003">
        <ele>789.56</ele>
        <time>2024-01-30T21:55:02Z</time>
      </trkpt>
      <trkpt lat="44.21957" lon="6.00021">
        <ele>791.78</ele>
        <time>2024-01-30T21:55:07Z</time>
      </trkpt>
      <trkpt lat="44.21958" lon="6.00047">
        <ele>793.62</ele>
        <time>2024-01-30T21:55:14Z</time>
      </trkpt>
      <trkpt lat="44.21949" lon="6.00066">
        <ele>793.93</ele>
        <time>2024-01-30T21:55:20Z</time>
      </trkpt>
      <trkpt lat="44.21895" lon="6.00107">
        <ele>794.12</ele>
        <time>2024-01-30T21:55:44Z</time>
      </trkpt>
      <trkpt lat="44.21832" lon="6.00133">
        <ele>799.55</ele>
        <time>2024-01-30T21:56:11Z</time>
      </trkpt>
      <trkpt lat="44.21828" lon="6.00144">
        <ele>800.46</ele>
        <time>2024-01-30T21:56:16Z</time>
      </trkpt>
      <trkpt lat="44.21839" lon="6.00153">
        <ele>800.67</ele>
        <time>2024-01-30T21:56:21Z</time>
      </trkpt>
      <trkpt lat="44.21841" lon="6.00168">
        <ele>802.45</ele>
        <time>2024-01-30T21:56:26Z</time>
      </trkpt>
      <trkpt lat="44.21842" lon="6.0017">
        <ele>802.45</ele>
        <time>2024-01-30T21:56:26Z</time>
      </trkpt>
      <trkpt lat="44.21848" lon="6.0018">
        <ele>803.27</ele>
        <time>2024-01-30T21:56:30Z</time>
      </trkpt>
      <trkpt lat="44.21862" lon="6.00202">
        <ele>804.96</ele>
        <time>2024-01-30T21:56:39Z</time>
      </trkpt>
      <trkpt lat="44.21898" lon="6.00236">
        <ele>806.37</ele>
        <time>2024-01-30T21:56:57Z</time>
      </trkpt>
      <trkpt lat="44.21929" lon="6.00256">
        <ele>807.23</ele>
        <time>2024-01-30T21:57:11Z</time>
      </trkpt>
      <trkpt lat="44.21957" lon="6.0026">
        <ele>809.45</ele>
        <time>2024-01-30T21:57:22Z</time>
      </trkpt>
      <trkpt lat="44.21974" lon="6.00253">
        <ele>810.55</ele>
        <time>2024-01-30T21:57:29Z</time>
      </trkpt>
      <trkpt lat="44.2204" lon="6.00187">
        <ele>810.4</ele>
        <time>2024-01-30T21:57:53Z</time>
      </trkpt>
      <trkpt lat="44.22089" lon="6.0015">
        <ele>813.08</ele>
        <time>2024-01-30T21:58:10Z</time>
      </trkpt>
      <trkpt lat="44.22098" lon="6.00144">
        <ele>812.99</ele>
        <time>2024-01-30T21:58:14Z</time>
      </trkpt>
      <trkpt lat="44.22141" lon="6.00111">
        <ele>814.45</ele>
        <time>2024-01-30T21:58:35Z</time>
      </trkpt>
      <trkpt lat="44.22156" lon="6.00098">
        <ele>814.9</ele>
        <time>2024-01-30T21:58:44Z</time>
      </trkpt>
      <trkpt lat="44.22181" lon="6.00092">
        <ele>817.4</ele>
        <time>2024-01-30T21:58:57Z</time>
      </trkpt>
      <trkpt lat="44.22188" lon="6.00096">
        <ele>818.68</ele>
        <time>2024-01-30T21:59:02Z</time>
      </trkpt>
      <trkpt lat="44.22214" lon="6.00125">
        <ele>822.14</ele>
        <time>2024-01-30T21:59:22Z</time>
      </trkpt>
      <trkpt lat="44.22218" lon="6.00141">
        <ele>823.54</ele>
        <time>2024-01-30T21:59:31Z</time>
      </trkpt>
      <trkpt lat="44.22213" lon="6.00158">
        <ele>825.67</ele>
        <time>2024-01-30T21:59:41Z</time>
      </trkpt>
      <trkpt lat="44.22201" lon="6.00181">
        <ele>829.68</ele>
        <time>2024-01-30T21:59:56Z</time>
      </trkpt>
      <trkpt lat="44.22187" lon="6.00224">
        <ele>834.82</ele>
        <time>2024-01-30T22:00:23Z</time>
      </trkpt>
      <trkpt lat="44.22178" lon="6.0024">
        <ele>835.4</ele>
        <time>2024-01-30T22:00:35Z</time>
      </trkpt>
      <trkpt lat="44.22175" lon="6.00245">
        <ele>835.94</ele>
        <time>2024-01-30T22:00:39Z</time>
      </trkpt>
      <trkpt lat="44.22163" lon="6.00292">
        <ele>839.62</ele>
        <time>2024-01-30T22:01:09Z</time>
      </trkpt>
      <trkpt lat="44.22161" lon="6.00313">
        <ele>841.09</ele>
        <time>2024-01-30T22:01:21Z</time>
      </trkpt>
      <trkpt lat="44.22161" lon="6.00323">
        <ele>842.03</ele>
        <time>2024-01-30T22:01:27Z</time>
      </trkpt>
      <trkpt lat="44.22154" lon="6.00355">
        <ele>842.8</ele>
        <time>2024-01-30T22:01:44Z</time>
      </trkpt>
      <trkpt lat="44.22151" lon="6.00372">
        <ele>843.51</ele>
        <time>2024-01-30T22:01:52Z</time>
      </trkpt>
      <trkpt lat="44.22148" lon="6.004">
        <ele>846.89</ele>
        <time>2024-01-30T22:02:05Z</time>
      </trkpt>
      <trkpt lat="44.22105" lon="6.00475">
        <ele>852.1</ele>
        <time>2024-01-30T22:02:39Z</time>
      </trkpt>
      <trkpt lat="44.22096" lon="6.00508">
        <ele>857.37</ele>
        <time>2024-01-30T22:02:51Z</time>
      </trkpt>
      <trkpt lat="44.22089" lon="6.00525">
        <ele>859.52</ele>
        <time>2024-01-30T22:02:57Z</time>
      </trkpt>
      <trkpt lat="44.22082" lon="6.00533">
        <ele>860.09</ele>
        <time>2024-01-30T22:03:00Z</time>
      </trkpt>
      <trkpt lat="44.22066" lon="6.0054">
        <ele>859.27</ele>
        <time>2024-01-30T22:03:07Z</time>
      </trkpt>
      <trkpt lat="44.22019" lon="6.00552">
        <ele>855.35</ele>
        <time>2024-01-30T22:03:24Z</time>
      </trkpt>
      <trkpt lat="44.21998" lon="6.0056">
        <ele>853.82</ele>
        <time>2024-01-30T22:03:32Z</time>
      </trkpt>
      <trkpt lat="44.21994" lon="6.00566">
        <ele>854.84</ele>
        <time>2024-01-30T22:03:35Z</time>
      </trkpt>
      <trkpt lat="44.21996" lon="6.00578">
        <ele>856.69</ele>
        <time>2024-01-30T22:03:38Z</time>
      </trkpt>
      <trkpt lat="44.22002" lon="6.00585">
        <ele>860.17</ele>
        <time>2024-01-30T22:03:40Z</time>
      </trkpt>
      <trkpt lat="44.22021" lon="6.00596">
        <ele>865.46</ele>
        <time>2024-01-30T22:03:48Z</time>
      </trkpt>
      <trkpt lat="44.22038" lon="6.00601">
        <ele>867.04</ele>
        <time>2024-01-30T22:03:54Z</time>
      </trkpt>
      <trkpt lat="44.22044" lon="6.00607">
        <ele>867.87</ele>
        <time>2024-01-30T22:03:57Z</time>
      </trkpt>
      <trkpt lat="44.22044" lon="6.00616">
        <ele>869.05</ele>
        <time>2024-01-30T22:04:00Z</time>
      </trkpt>
      <trkpt lat="44.22034" lon="6.00635">
        <ele>870.66</ele>
        <time>2024-01-30T22:04:06Z</time>
      </trkpt>
      <trkpt lat="44.22018" lon="6.00676">
        <ele>872.05</ele>
        <time>2024-01-30T22:04:19Z</time>
      </trkpt>
      <trkpt lat="44.21998" lon="6.00707">
        <ele>873.73</ele>
        <time>2024-01-30T22:04:31Z</time>
      </trkpt>
      <trkpt lat="44.21963" lon="6.0077">
        <ele>877.33</ele>
        <time>2024-01-30T22:04:54Z</time>
      </trkpt>
      <trkpt lat="44.21936" lon="6.00787">
        <ele>877.03</ele>
        <time>2024-01-30T22:05:05Z</time>
      </trkpt>
      <trkpt lat="44.21916" lon="6.0083">
        <ele>882.29</ele>
        <time>2024-01-30T22:05:19Z</time>
      </trkpt>
      <trkpt lat="44.2189" lon="6.0085">
        <ele>883.63</ele>
        <time>2024-01-30T22:05:31Z</time>
      </trkpt>
      <trkpt lat="44.2187" lon="6.0086">
        <ele>884.52</ele>
        <time>2024-01-30T22:05:39Z</time>
      </trkpt>
      <trkpt lat="44.21861" lon="6.00867">
        <ele>885.64</ele>
        <time>2024-01-30T22:05:42Z</time>
      </trkpt>
      <trkpt lat="44.2185" lon="6.00881">
        <ele>886.89</ele>
        <time>2024-01-30T22:05:47Z</time>
      </trkpt>
      <trkpt lat="44.2184" lon="6.009">
        <ele>888.6</ele>
        <time>2024-01-30T22:05:53Z</time>
      </trkpt>
      <trkpt lat="44.21832" lon="6.00922">
        <ele>890.82</ele>
        <time>2024-01-30T22:06:00Z</time>
      </trkpt>
      <trkpt lat="44.21828" lon="6.00949">
        <ele>892.96</ele>
        <time>2024-01-30T22:06:07Z</time>
      </trkpt>
      <trkpt lat="44.21826" lon="6.00965">
        <ele>893.61</ele>
        <time>2024-01-30T22:06:11Z</time>
      </trkpt>
      <trkpt lat="44.21829" lon="6.00994">
        <ele>895.14</ele>
        <time>2024-01-30T22:06:19Z</time>
      </trkpt>
      <trkpt lat="44.21829" lon="6.01005">
        <ele>895.93</ele>
        <time>2024-01-30T22:06:22Z</time>
      </trkpt>
      <trkpt lat="44.21823" lon="6.01012">
        <ele>895.99</ele>
        <time>2024-01-30T22:06:25Z</time>
      </trkpt>
      <trkpt lat="44.21813" lon="6.01017">
        <ele>896.12</ele>
        <time>2024-01-30T22:06:30Z</time>
      </trkpt>
      <trkpt lat="44.21807" lon="6.0102">
        <ele>895.58</ele>
        <time>2024-01-30T22:06:32Z</time>
      </trkpt>
      <trkpt lat="44.21788" lon="6.01033">
        <ele>895.51</ele>
        <time>2024-01-30T22:06:41Z</time>
      </trkpt>
      <trkpt lat="44.21774" lon="6.01055">
        <ele>896.58</ele>
        <time>2024-01-30T22:06:50Z</time>
      </trkpt>
      <trkpt lat="44.2177" lon="6.0107">
        <ele>897.87</ele>
        <time>2024-01-30T22:06:56Z</time>
      </trkpt>
      <trkpt lat="44.21764" lon="6.01145">
        <ele>903.56</ele>
        <time>2024-01-30T22:07:19Z</time>
      </trkpt>
      <trkpt lat="44.21759" lon="6.01176">
        <ele>906.8</ele>
        <time>2024-01-30T22:07:29Z</time>
      </trkpt>
      <trkpt lat="44.2174" lon="6.01228">
        <ele>911.19</ele>
        <time>2024-01-30T22:07:48Z</time>
      </trkpt>
      <trkpt lat="44.21723" lon="6.01291">
        <ele>915.89</ele>
        <time>2024-01-30T22:08:13Z</time>
      </trkpt>
      <trkpt lat="44.21724" lon="6.01297">
        <ele>916.93</ele>
        <time>2024-01-30T22:08:15Z</time>
      </trkpt>
      <trkpt lat="44.2173" lon="6.01301">
        <ele>918.53</ele>
        <time>2024-01-30T22:08:19Z</time>
      </trkpt>
      <trkpt lat="44.21749" lon="6.01282">
        <ele>919.42</ele>
        <time>2024-01-30T22:08:31Z</time>
      </trkpt>
      <trkpt lat="44.21767" lon="6.01274">
        <ele>919.75</ele>
        <time>2024-01-30T22:08:41Z</time>
      </trkpt>
      <trkpt lat="44.21775" lon="6.01273">
        <ele>920.08</ele>
        <time>2024-01-30T22:08:45Z</time>
      </trkpt>
      <trkpt lat="44.21781" lon="6.01277">
        <ele>920.77</ele>
        <time>2024-01-30T22:08:48Z</time>
      </trkpt>
      <trkpt lat="44.21783" lon="6.01285">
        <ele>922.07</ele>
        <time>2024-01-30T22:08:51Z</time>
      </trkpt>
      <trkpt lat="44.21775" lon="6.01304">
        <ele>925.07</ele>
        <time>2024-01-30T22:09:00Z</time>
      </trkpt>
      <trkpt lat="44.21774" lon="6.01316">
        <ele>926.08</ele>
        <time>2024-01-30T22:09:04Z</time>
      </trkpt>
      <trkpt lat="44.21778" lon="6.01335">
        <ele>928.27</ele>
        <time>2024-01-30T22:09:12Z</time>
      </trkpt>
      <trkpt lat="44.21781" lon="6.01349">
        <ele>929.59</ele>
        <time>2024-01-30T22:09:18Z</time>
      </trkpt>
      <trkpt lat="44.21781" lon="6.0137">
        <ele>929.98</ele>
        <time>2024-01-30T22:09:27Z</time>
      </trkpt>
      <trkpt lat="44.21788" lon="6.01404">
        <ele>932.17</ele>
        <time>2024-01-30T22:09:42Z</time>
      </trkpt>
      <trkpt lat="44.21794" lon="6.01407">
        <ele>933.11</ele>
        <time>2024-01-30T22:09:45Z</time>
      </trkpt>
      <trkpt lat="44.21797" lon="6.01399">
        <ele>933.77</ele>
        <time>2024-01-30T22:09:49Z</time>
      </trkpt>
      <trkpt lat="44.21799" lon="6.01374">
        <ele>932.69</ele>
        <time>2024-01-30T22:10:00Z</time>
      </trkpt>
      <trkpt lat="44.21807" lon="6.01355">
        <ele>933.07</ele>
        <time>2024-01-30T22:10:11Z</time>
      </trkpt>
      <trkpt lat="44.21816" lon="6.01349">
        <ele>933.47</ele>
        <time>2024-01-30T22:10:16Z</time>
      </trkpt>
      <trkpt lat="44.21822" lon="6.01349">
        <ele>933.81</ele>
        <time>2024-01-30T22:10:20Z</time>
      </trkpt>
      <trkpt lat="44.21831" lon="6.01356">
        <ele>935.01</ele>
        <time>2024-01-30T22:10:27Z</time>
      </trkpt>
      <trkpt lat="44.21845" lon="6.01449">
        <ele>943.42</ele>
        <time>2024-01-30T22:11:05Z</time>
      </trkpt>
      <trkpt lat="44.21847" lon="6.01477">
        <ele>946.07</ele>
        <time>2024-01-30T22:11:17Z</time>
      </trkpt>
      <trkpt lat="44.21863" lon="6.01527">
        <ele>951.5</ele>
        <time>2024-01-30T22:11:41Z</time>
      </trkpt>
      <trkpt lat="44.21864" lon="6.01541">
        <ele>953.63</ele>
        <time>2024-01-30T22:11:48Z</time>
      </trkpt>
      <trkpt lat="44.21857" lon="6.01557">
        <ele>955.06</ele>
        <time>2024-01-30T22:11:58Z</time>
      </trkpt>
      <trkpt lat="44.21845" lon="6.01569">
        <ele>955.85</ele>
        <time>2024-01-30T22:12:09Z</time>
      </trkpt>
      <trkpt lat="44.21839" lon="6.0158">
        <ele>956.93</ele>
        <time>2024-01-30T22:12:16Z</time>
      </trkpt>
      <trkpt lat="44.21832" lon="6.01605">
        <ele>958.62</ele>
        <time>2024-01-30T22:12:30Z</time>
      </trkpt>
      <trkpt lat="44.21818" lon="6.01693">
        <ele>963.24</ele>
        <time>2024-01-30T22:13:19Z</time>
      </trkpt>
      <trkpt lat="44.21817" lon="6.01736">
        <ele>965.56</ele>
        <time>2024-01-30T22:13:42Z</time>
      </trkpt>
      <trkpt lat="44.21813" lon="6.01755">
        <ele>966.16</ele>
        <time>2024-01-30T22:13:52Z</time>
      </trkpt>
      <trkpt lat="44.21812" lon="6.01775">
        <ele>967</ele>
        <time>2024-01-30T22:14:02Z</time>
      </trkpt>
      <trkpt lat="44.21816" lon="6.01806">
        <ele>968.42</ele>
        <time>2024-01-30T22:14:18Z</time>
      </trkpt>
      <trkpt lat="44.21815" lon="6.01809">
        <ele>968.67</ele>
        <time>2024-01-30T22:14:20Z</time>
      </trkpt>
      <trkpt lat="44.21809" lon="6.01812">
        <ele>969.04</ele>
        <time>2024-01-30T22:14:25Z</time>
      </trkpt>
      <trkpt lat="44.21719" lon="6.01817">
        <ele>979.13</ele>
        <time>2024-01-30T22:15:13Z</time>
      </trkpt>
      <trkpt lat="44.21696" lon="6.01813">
        <ele>982.36</ele>
        <time>2024-01-30T22:15:23Z</time>
      </trkpt>
      <trkpt lat="44.21678" lon="6.01801">
        <ele>982.61</ele>
        <time>2024-01-30T22:15:31Z</time>
      </trkpt>
      <trkpt lat="44.21659" lon="6.01779">
        <ele>980.79</ele>
        <time>2024-01-30T22:15:40Z</time>
      </trkpt>
      <trkpt lat="44.2162" lon="6.01762">
        <ele>984.14</ele>
        <time>2024-01-30T22:15:55Z</time>
      </trkpt>
      <trkpt lat="44.21608" lon="6.01767">
        <ele>985.8</ele>
        <time>2024-01-30T22:15:58Z</time>
      </trkpt>
      <trkpt lat="44.21603" lon="6.01786">
        <ele>988.56</ele>
        <time>2024-01-30T22:16:03Z</time>
      </trkpt>
      <trkpt lat="44.21595" lon="6.01844">
        <ele>992.04</ele>
        <time>2024-01-30T22:16:15Z</time>
      </trkpt>
      <trkpt lat="44.21592" lon="6.01871">
        <ele>993.25</ele>
        <time>2024-01-30T22:16:20Z</time>
      </trkpt>
      <trkpt lat="44.21594" lon="6.01882">
        <ele>995.13</ele>
        <time>2024-01-30T22:16:23Z</time>
      </trkpt>
      <trkpt lat="44.21601" lon="6.01883">
        <ele>996.26</ele>
        <time>2024-01-30T22:16:26Z</time>
      </trkpt>
      <trkpt lat="44.21609" lon="6.01875">
        <ele>997.94</ele>
        <time>2024-01-30T22:16:30Z</time>
      </trkpt>
      <trkpt lat="44.21619" lon="6.01857">
        <ele>997.8</ele>
        <time>2024-01-30T22:16:38Z</time>
      </trkpt>
      <trkpt lat="44.21626" lon="6.01857">
        <ele>999.01</ele>
        <time>2024-01-30T22:16:42Z</time>
      </trkpt>
      <trkpt lat="44.2163" lon="6.01863">
        <ele>1000.22</ele>
        <time>2024-01-30T22:16:45Z</time>
      </trkpt>
      <trkpt lat="44.21601" lon="6.01962">
        <ele>1004.2</ele>
        <time>2024-01-30T22:17:33Z</time>
      </trkpt>
      <trkpt lat="44.21595" lon="6.01985">
        <ele>1004.75</ele>
        <time>2024-01-30T22:17:43Z</time>
      </trkpt>
      <trkpt lat="44.21593" lon="6.02005">
        <ele>1004.92</ele>
        <time>2024-01-30T22:17:51Z</time>
      </trkpt>
      <trkpt lat="44.21595" lon="6.02017">
        <ele>1006.84</ele>
        <time>2024-01-30T22:17:56Z</time>
      </trkpt>
      <trkpt lat="44.21599" lon="6.0202">
        <ele>1007.86</ele>
        <time>2024-01-30T22:17:58Z</time>
      </trkpt>
      <trkpt lat="44.21604" lon="6.02018">
        <ele>1008.82</ele>
        <time>2024-01-30T22:18:01Z</time>
      </trkpt>
      <trkpt lat="44.21608" lon="6.02002">
        <ele>1008.49</ele>
        <time>2024-01-30T22:18:07Z</time>
      </trkpt>
      <trkpt lat="44.21615" lon="6.0199">
        <ele>1008.44</ele>
        <time>2024-01-30T22:18:13Z</time>
      </trkpt>
      <trkpt lat="44.21623" lon="6.01983">
        <ele>1009.41</ele>
        <time>2024-01-30T22:18:18Z</time>
      </trkpt>
      <trkpt lat="44.21632" lon="6.0198">
        <ele>1010.07</ele>
        <time>2024-01-30T22:18:23Z</time>
      </trkpt>
      <trkpt lat="44.21641" lon="6.01982">
        <ele>1011.1</ele>
        <time>2024-01-30T22:18:28Z</time>
      </trkpt>
      <trkpt lat="44.21643" lon="6.0199">
        <ele>1011.73</ele>
        <time>2024-01-30T22:18:31Z</time>
      </trkpt>
      <trkpt lat="44.21643" lon="6.02025">
        <ele>1015.06</ele>
        <time>2024-01-30T22:18:45Z</time>
      </trkpt>
      <trkpt lat="44.21646" lon="6.02064">
        <ele>1019.93</ele>
        <time>2024-01-30T22:19:01Z</time>
      </trkpt>
      <trkpt lat="44.21646" lon="6.02092">
        <ele>1021.99</ele>
        <time>2024-01-30T22:19:13Z</time>
      </trkpt>
      <trkpt lat="44.21643" lon="6.02106">
        <ele>1022.54</ele>
        <time>2024-01-30T22:19:20Z</time>
      </trkpt>
      <trkpt lat="44.21631" lon="6.0217">
        <ele>1026.58</ele>
        <time>2024-01-30T22:19:48Z</time>
      </trkpt>
      <trkpt lat="44.21632" lon="6.02205">
        <ele>1029.23</ele>
        <time>2024-01-30T22:20:03Z</time>
      </trkpt>
      <trkpt lat="44.21645" lon="6.02296">
        <ele>1037.1</ele>
        <time>2024-01-30T22:20:44Z</time>
      </trkpt>
      <trkpt lat="44.21652" lon="6.02377">
        <ele>1044.62</ele>
        <time>2024-01-30T22:21:21Z</time>
      </trkpt>
      <trkpt lat="44.2165" lon="6.02385">
        <ele>1045.21</ele>
        <time>2024-01-30T22:21:25Z</time>
      </trkpt>
      <trkpt lat="44.21662" lon="6.02448">
        <ele>1047.08</ele>
        <time>2024-01-30T22:21:55Z</time>
      </trkpt>
      <trkpt lat="44.21665" lon="6.0249">
        <ele>1048.29</ele>
        <time>2024-01-30T22:22:14Z</time>
      </trkpt>
      <trkpt lat="44.21673" lon="6.02523">
        <ele>1050.61</ele>
        <time>2024-01-30T22:22:30Z</time>
      </trkpt>
      <trkpt lat="44.21692" lon="6.02557">
        <ele>1055.51</ele>
        <time>2024-01-30T22:22:50Z</time>
      </trkpt>
      <trkpt lat="44.21693" lon="6.02566">
        <ele>1057.54</ele>
        <time>2024-01-30T22:22:54Z</time>
      </trkpt>
      <trkpt lat="44.21675" lon="6.02609">
        <ele>1061.52</ele>
        <time>2024-01-30T22:23:16Z</time>
      </trkpt>
      <trkpt lat="44.21672" lon="6.02635">
        <ele>1063.08</ele>
        <time>2024-01-30T22:23:27Z</time>
      </trkpt>
      <trkpt lat="44.2168" lon="6.02671">
        <ele>1065.28</ele>
        <time>2024-01-30T22:23:41Z</time>
      </trkpt>
      <trkpt lat="44.21693" lon="6.02708">
        <ele>1068.91</ele>
        <time>2024-01-30T22:23:56Z</time>
      </trkpt>
      <trkpt lat="44.21697" lon="6.02729">
        <ele>1070.59</ele>
        <time>2024-01-30T22:24:05Z</time>
      </trkpt>
      <trkpt lat="44.21699" lon="6.0277">
        <ele>1071.56</ele>
        <time>2024-01-30T22:24:20Z</time>
      </trkpt>
      <trkpt lat="44.21704" lon="6.02776">
        <ele>1072.61</ele>
        <time>2024-01-30T22:24:23Z</time>
      </trkpt>
      <trkpt lat="44.21709" lon="6.02768">
        <ele>1073.56</ele>
        <time>2024-01-30T22:24:27Z</time>
      </trkpt>
      <trkpt lat="44.21713" lon="6.02748">
        <ele>1074.18</ele>
        <time>2024-01-30T22:24:35Z</time>
      </trkpt>
      <trkpt lat="44.21722" lon="6.02722">
        <ele>1075.44</ele>
        <time>2024-01-30T22:24:47Z</time>
      </trkpt>
      <trkpt lat="44.21731" lon="6.02706">
        <ele>1076.31</ele>
        <time>2024-01-30T22:24:54Z</time>
      </trkpt>
      <trkpt lat="44.21739" lon="6.027">
        <ele>1076.84</ele>
        <time>2024-01-30T22:25:00Z</time>
      </trkpt>
      <trkpt lat="44.21749" lon="6.027">
        <ele>1077.29</ele>
        <time>2024-01-30T22:25:06Z</time>
      </trkpt>
      <trkpt lat="44.21756" lon="6.02704">
        <ele>1077.6</ele>
        <time>2024-01-30T22:25:10Z</time>
      </trkpt>
      <trkpt lat="44.21764" lon="6.02714">
        <ele>1078.31</ele>
        <time>2024-01-30T22:25:16Z</time>
      </trkpt>
      <trkpt lat="44.21782" lon="6.02756">
        <ele>1082.5</ele>
        <time>2024-01-30T22:25:37Z</time>
      </trkpt>
      <trkpt lat="44.21785" lon="6.02786">
        <ele>1085.29</ele>
        <time>2024-01-30T22:25:51Z</time>
      </trkpt>
      <trkpt lat="44.21782" lon="6.02802">
        <ele>1086.05</ele>
        <time>2024-01-30T22:25:57Z</time>
      </trkpt>
      <trkpt lat="44.21788" lon="6.02922">
        <ele>1095.57</ele>
        <time>2024-01-30T22:26:47Z</time>
      </trkpt>
      <trkpt lat="44.21782" lon="6.0294">
        <ele>1096.63</ele>
        <time>2024-01-30T22:26:55Z</time>
      </trkpt>
      <trkpt lat="44.21772" lon="6.02953">
        <ele>1097.26</ele>
        <time>2024-01-30T22:27:03Z</time>
      </trkpt>
      <trkpt lat="44.21759" lon="6.02963">
        <ele>1096.71</ele>
        <time>2024-01-30T22:27:10Z</time>
      </trkpt>
      <trkpt lat="44.2176" lon="6.02972">
        <ele>1097.98</ele>
        <time>2024-01-30T22:27:14Z</time>
      </trkpt>
      <trkpt lat="44.21765" lon="6.02975">
        <ele>1099.71</ele>
        <time>2024-01-30T22:27:17Z</time>
      </trkpt>
      <trkpt lat="44.21812" lon="6.0296">
        <ele>1102.21</ele>
        <time>2024-01-30T22:27:36Z</time>
      </trkpt>
      <trkpt lat="44.21815" lon="6.02965">
        <ele>1103.81</ele>
        <time>2024-01-30T22:27:38Z</time>
      </trkpt>
      <trkpt lat="44.21814" lon="6.02973">
        <ele>1104.37</ele>
        <time>2024-01-30T22:27:40Z</time>
      </trkpt>
      <trkpt lat="44.21799" lon="6.02999">
        <ele>1106.14</ele>
        <time>2024-01-30T22:27:47Z</time>
      </trkpt>
      <trkpt lat="44.21785" lon="6.03014">
        <ele>1106.39</ele>
        <time>2024-01-30T22:27:52Z</time>
      </trkpt>
      <trkpt lat="44.21778" lon="6.03032">
        <ele>1107.57</ele>
        <time>2024-01-30T22:27:54Z</time>
      </trkpt>
      <trkpt lat="44.21776" lon="6.03062">
        <ele>1108.87</ele>
        <time>2024-01-30T22:27:58Z</time>
      </trkpt>
      <trkpt lat="44.21781" lon="6.03073">
        <ele>1108.62</ele>
        <time>2024-01-30T22:27:59Z</time>
      </trkpt>
      <trkpt lat="44.21792" lon="6.03085">
        <ele>1108.14</ele>
        <time>2024-01-30T22:28:01Z</time>
      </trkpt>
      <trkpt lat="44.21811" lon="6.03128">
        <ele>1105.96</ele>
        <time>2024-01-30T22:28:06Z</time>
      </trkpt>
      <trkpt lat="44.2182" lon="6.03137">
        <ele>1105.59</ele>
        <time>2024-01-30T22:28:07Z</time>
      </trkpt>
      <trkpt lat="44.21847" lon="6.03154">
        <ele>1105.77</ele>
        <time>2024-01-30T22:28:11Z</time>
      </trkpt>
      <trkpt lat="44.21852" lon="6.03167">
        <ele>1105.15</ele>
        <time>2024-01-30T22:28:12Z</time>
      </trkpt>
      <trkpt lat="44.21856" lon="6.03196">
        <ele>1104.62</ele>
        <time>2024-01-30T22:28:15Z</time>
      </trkpt>
      <trkpt lat="44.21879" lon="6.0326">
        <ele>1102.96</ele>
        <time>2024-01-30T22:28:21Z</time>
      </trkpt>
      <trkpt lat="44.21889" lon="6.03371">
        <ele>1098.38</ele>
        <time>2024-01-30T22:28:31Z</time>
      </trkpt>
      <trkpt lat="44.21894" lon="6.03504">
        <ele>1095.81</ele>
        <time>2024-01-30T22:28:42Z</time>
      </trkpt>
      <trkpt lat="44.21891" lon="6.03522">
        <ele>1094.86</ele>
        <time>2024-01-30T22:28:44Z</time>
      </trkpt>
      <trkpt lat="44.21864" lon="6.03599">
        <ele>1090.97</ele>
        <time>2024-01-30T22:28:51Z</time>
      </trkpt>
      <trkpt lat="44.21858" lon="6.03614">
        <ele>1089.16</ele>
        <time>2024-01-30T22:28:52Z</time>
      </trkpt>
      <trkpt lat="44.21847" lon="6.03705">
        <ele>1084.42</ele>
        <time>2024-01-30T22:29:00Z</time>
      </trkpt>
      <trkpt lat="44.21841" lon="6.03722">
        <ele>1083.39</ele>
        <time>2024-01-30T22:29:01Z</time>
      </trkpt>
      <trkpt lat="44.21825" lon="6.03752">
        <ele>1079.73</ele>
        <time>2024-01-30T22:29:04Z</time>
      </trkpt>
      <trkpt lat="44.21814" lon="6.03773">
        <ele>1076.99</ele>
        <time>2024-01-30T22:29:07Z</time>
      </trkpt>
      <trkpt lat="44.21813" lon="6.03788">
        <ele>1075.17</ele>
        <time>2024-01-30T22:29:08Z</time>
      </trkpt>
      <trkpt lat="44.21816" lon="6.03803">
        <ele>1074.47</ele>
        <time>2024-01-30T22:29:09Z</time>
      </trkpt>
      <trkpt lat="44.21834" lon="6.03842">
        <ele>1071.24</ele>
        <time>2024-01-30T22:29:13Z</time>
      </trkpt>
      <trkpt lat="44.2186" lon="6.0387">
        <ele>1069.59</ele>
        <time>2024-01-30T22:29:17Z</time>
      </trkpt>
      <trkpt lat="44.21867" lon="6.03885">
        <ele>1066.14</ele>
        <time>2024-01-30T22:29:19Z</time>
      </trkpt>
      <trkpt lat="44.21875" lon="6.03942">
        <ele>1059.87</ele>
        <time>2024-01-30T22:29:24Z</time>
      </trkpt>
      <trkpt lat="44.21881" lon="6.03961">
        <ele>1058.79</ele>
        <time>2024-01-30T22:29:26Z</time>
      </trkpt>
      <trkpt lat="44.21876" lon="6.03991">
        <ele>1056.02</ele>
        <time>2024-01-30T22:29:29Z</time>
      </trkpt>
      <trkpt lat="44.21878" lon="6.04005">
        <ele>1056.24</ele>
        <time>2024-01-30T22:29:30Z</time>
      </trkpt>
      <trkpt lat="44.2189" lon="6.04033">
        <ele>1056.06</ele>
        <time>2024-01-30T22:29:33Z</time>
      </trkpt>
      <trkpt lat="44.21893" lon="6.04074">
        <ele>1054.32</ele>
        <time>2024-01-30T22:29:37Z</time>
      </trkpt>
      <trkpt lat="44.21906" lon="6.04088">
        <ele>1054.83</ele>
        <time>2024-01-30T22:29:40Z</time>
      </trkpt>
      <trkpt lat="44.21952" lon="6.04114">
        <ele>1054.32</ele>
        <time>2024-01-30T22:29:47Z</time>
      </trkpt>
      <trkpt lat="44.21957" lon="6.0412">
        <ele>1053.32</ele>
        <time>2024-01-30T22:29:48Z</time>
      </trkpt>
      <trkpt lat="44.21962" lon="6.04131">
        <ele>1053.76</ele>
        <time>2024-01-30T22:29:49Z</time>
      </trkpt>
      <trkpt lat="44.21962" lon="6.04161">
        <ele>1053.54</ele>
        <time>2024-01-30T22:29:52Z</time>
      </trkpt>
      <trkpt lat="44.21976" lon="6.04213">
        <ele>1052.4</ele>
        <time>2024-01-30T22:30:05Z</time>
      </trkpt>
      <trkpt lat="44.21994" lon="6.04243">
        <ele>1053.75</ele>
        <time>2024-01-30T22:30:14Z</time>
      </trkpt>
      <trkpt lat="44.22001" lon="6.04259">
        <ele>1053.63</ele>
        <time>2024-01-30T22:30:19Z</time>
      </trkpt>
      <trkpt lat="44.22005" lon="6.04301">
        <ele>1054.27</ele>
        <time>2024-01-30T22:30:27Z</time>
      </trkpt>
      <trkpt lat="44.22014" lon="6.04323">
        <ele>1054.7</ele>
        <time>2024-01-30T22:30:33Z</time>
      </trkpt>
      <trkpt lat="44.22003" lon="6.04394">
        <ele>1052.37</ele>
        <time>2024-01-30T22:30:47Z</time>
      </trkpt>
      <trkpt lat="44.22" lon="6.04435">
        <ele>1053.6</ele>
        <time>2024-01-30T22:30:54Z</time>
      </trkpt>
      <trkpt lat="44.21979" lon="6.0449">
        <ele>1054.09</ele>
        <time>2024-01-30T22:31:06Z</time>
      </trkpt>
      <trkpt lat="44.21967" lon="6.0451">
        <ele>1054.72</ele>
        <time>2024-01-30T22:31:12Z</time>
      </trkpt>
      <trkpt lat="44.21957" lon="6.0452">
        <ele>1054.33</ele>
        <time>2024-01-30T22:31:15Z</time>
      </trkpt>
      <trkpt lat="44.21927" lon="6.04587">
        <ele>1055.36</ele>
        <time>2024-01-30T22:31:33Z</time>
      </trkpt>
      <trkpt lat="44.21926" lon="6.04598">
        <ele>1056.13</ele>
        <time>2024-01-30T22:31:35Z</time>
      </trkpt>
      <trkpt lat="44.21926" lon="6.0462">
        <ele>1056.44</ele>
        <time>2024-01-30T22:31:38Z</time>
      </trkpt>
      <trkpt lat="44.21928" lon="6.04633">
        <ele>1055.96</ele>
        <time>2024-01-30T22:31:41Z</time>
      </trkpt>
      <trkpt lat="44.21933" lon="6.04641">
        <ele>1056.6</ele>
        <time>2024-01-30T22:31:42Z</time>
      </trkpt>
      <trkpt lat="44.21946" lon="6.04642">
        <ele>1057.83</ele>
        <time>2024-01-30T22:31:45Z</time>
      </trkpt>
      <trkpt lat="44.21968" lon="6.04633">
        <ele>1059.76</ele>
        <time>2024-01-30T22:31:50Z</time>
      </trkpt>
      <trkpt lat="44.21982" lon="6.04636">
        <ele>1060.07</ele>
        <time>2024-01-30T22:31:53Z</time>
      </trkpt>
      <trkpt lat="44.21998" lon="6.04647">
        <ele>1059.99</ele>
        <time>2024-01-30T22:31:58Z</time>
      </trkpt>
      <trkpt lat="44.2202" lon="6.04689">
        <ele>1060.65</ele>
        <time>2024-01-30T22:32:08Z</time>
      </trkpt>
      <trkpt lat="44.22032" lon="6.04724">
        <ele>1062.12</ele>
        <time>2024-01-30T22:32:16Z</time>
      </trkpt>
      <trkpt lat="44.221" lon="6.04884">
        <ele>1065.11</ele>
        <time>2024-01-30T22:32:45Z</time>
      </trkpt>
      <trkpt lat="44.22111" lon="6.04917">
        <ele>1066.88</ele>
        <time>2024-01-30T22:32:50Z</time>
      </trkpt>
      <trkpt lat="44.22119" lon="6.04966">
        <ele>1067.11</ele>
        <time>2024-01-30T22:32:56Z</time>
      </trkpt>
      <trkpt lat="44.22124" lon="6.04981">
        <ele>1066.77</ele>
        <time>2024-01-30T22:32:59Z</time>
      </trkpt>
      <trkpt lat="44.22132" lon="6.0499">
        <ele>1066.48</ele>
        <time>2024-01-30T22:33:01Z</time>
      </trkpt>
      <trkpt lat="44.22141" lon="6.04993">
        <ele>1065.89</ele>
        <time>2024-01-30T22:33:04Z</time>
      </trkpt>
      <trkpt lat="44.22171" lon="6.04994">
        <ele>1066.18</ele>
        <time>2024-01-30T22:33:12Z</time>
      </trkpt>
      <trkpt lat="44.22181" lon="6.05004">
        <ele>1066.21</ele>
        <time>2024-01-30T22:33:15Z</time>
      </trkpt>
      <trkpt lat="44.22189" lon="6.05042">
        <ele>1067.41</ele>
        <time>2024-01-30T22:33:25Z</time>
      </trkpt>
      <trkpt lat="44.22204" lon="6.0507">
        <ele>1067.6</ele>
        <time>2024-01-30T22:33:34Z</time>
      </trkpt>
      <trkpt lat="44.22219" lon="6.05086">
        <ele>1067.43</ele>
        <time>2024-01-30T22:33:41Z</time>
      </trkpt>
      <trkpt lat="44.22309" lon="6.05125">
        <ele>1072</ele>
        <time>2024-01-30T22:34:22Z</time>
      </trkpt>
      <trkpt lat="44.22321" lon="6.05136">
        <ele>1072.16</ele>
        <time>2024-01-30T22:34:27Z</time>
      </trkpt>
      <trkpt lat="44.22335" lon="6.05156">
        <ele>1072.24</ele>
        <time>2024-01-30T22:34:34Z</time>
      </trkpt>
      <trkpt lat="44.22345" lon="6.0516">
        <ele>1071.63</ele>
        <time>2024-01-30T22:34:37Z</time>
      </trkpt>
      <trkpt lat="44.22355" lon="6.05156">
        <ele>1071.19</ele>
        <time>2024-01-30T22:34:40Z</time>
      </trkpt>
      <trkpt lat="44.22388" lon="6.05117">
        <ele>1069.37</ele>
        <time>2024-01-30T22:34:50Z</time>
      </trkpt>
      <trkpt lat="44.22398" lon="6.05111">
        <ele>1068.85</ele>
        <time>2024-01-30T22:34:52Z</time>
      </trkpt>
      <trkpt lat="44.22411" lon="6.05118">
        <ele>1069.2</ele>
        <time>2024-01-30T22:34:54Z</time>
      </trkpt>
      <trkpt lat="44.22414" lon="6.0517">
        <ele>1065.94</ele>
        <time>2024-01-30T22:35:00Z</time>
      </trkpt>
      <trkpt lat="44.2242" lon="6.05191">
        <ele>1065.74</ele>
        <time>2024-01-30T22:35:02Z</time>
      </trkpt>
      <trkpt lat="44.22469" lon="6.05272">
        <ele>1062.85</ele>
        <time>2024-01-30T22:35:12Z</time>
      </trkpt>
      <trkpt lat="44.22479" lon="6.05277">
        <ele>1062.64</ele>
        <time>2024-01-30T22:35:14Z</time>
      </trkpt>
      <trkpt lat="44.22522" lon="6.05273">
        <ele>1062.53</ele>
        <time>2024-01-30T22:35:19Z</time>
      </trkpt>
      <trkpt lat="44.2253" lon="6.05276">
        <ele>1062.41</ele>
        <time>2024-01-30T22:35:20Z</time>
      </trkpt>
      <trkpt lat="44.22537" lon="6.05288">
        <ele>1061.15</ele>
        <time>2024-01-30T22:35:21Z</time>
      </trkpt>
      <trkpt lat="44.22544" lon="6.05336">
        <ele>1057.72</ele>
        <time>2024-01-30T22:35:26Z</time>
      </trkpt>
      <trkpt lat="44.22555" lon="6.05368">
        <ele>1055.76</ele>
        <time>2024-01-30T22:35:29Z</time>
      </trkpt>
      <trkpt lat="44.2259" lon="6.05393">
        <ele>1053.78</ele>
        <time>2024-01-30T22:35:34Z</time>
      </trkpt>
      <trkpt lat="44.22596" lon="6.05404">
        <ele>1053.18</ele>
        <time>2024-01-30T22:35:35Z</time>
      </trkpt>
      <trkpt lat="44.22588" lon="6.05446">
        <ele>1049.77</ele>
        <time>2024-01-30T22:35:39Z</time>
      </trkpt>
      <trkpt lat="44.22593" lon="6.05463">
        <ele>1048.84</ele>
        <time>2024-01-30T22:35:41Z</time>
      </trkpt>
      <trkpt lat="44.22609" lon="6.05479">
        <ele>1048.97</ele>
        <time>2024-01-30T22:35:43Z</time>
      </trkpt>
      <trkpt lat="44.22617" lon="6.05491">
        <ele>1048.94</ele>
        <time>2024-01-30T22:35:45Z</time>
      </trkpt>
      <trkpt lat="44.22624" lon="6.05515">
        <ele>1048.56</ele>
        <time>2024-01-30T22:35:47Z</time>
      </trkpt>
      <trkpt lat="44.2263" lon="6.05542">
        <ele>1048.41</ele>
        <time>2024-01-30T22:35:50Z</time>
      </trkpt>
      <trkpt lat="44.22654" lon="6.05639">
        <ele>1047.19</ele>
        <time>2024-01-30T22:36:00Z</time>
      </trkpt>
      <trkpt lat="44.22663" lon="6.05664">
        <ele>1046.93</ele>
        <time>2024-01-30T22:36:03Z</time>
      </trkpt>
      <trkpt lat="44.22672" lon="6.0568">
        <ele>1046.19</ele>
        <time>2024-01-30T22:36:05Z</time>
      </trkpt>
      <trkpt lat="44.22698" lon="6.05699">
        <ele>1046.91</ele>
        <time>2024-01-30T22:36:10Z</time>
      </trkpt>
      <trkpt lat="44.2272" lon="6.05722">
        <ele>1048.43</ele>
        <time>2024-01-30T22:36:15Z</time>
      </trkpt>
      <trkpt lat="44.22736" lon="6.05726">
        <ele>1049.1</ele>
        <time>2024-01-30T22:36:19Z</time>
      </trkpt>
      <trkpt lat="44.22764" lon="6.0572">
        <ele>1051.56</ele>
        <time>2024-01-30T22:36:27Z</time>
      </trkpt>
      <trkpt lat="44.22786" lon="6.05695">
        <ele>1053.68</ele>
        <time>2024-01-30T22:36:37Z</time>
      </trkpt>
      <trkpt lat="44.22793" lon="6.05695">
        <ele>1053.4</ele>
        <time>2024-01-30T22:36:40Z</time>
      </trkpt>
      <trkpt lat="44.22802" lon="6.05701">
        <ele>1053.55</ele>
        <time>2024-01-30T22:36:44Z</time>
      </trkpt>
      <trkpt lat="44.22821" lon="6.05736">
        <ele>1054.66</ele>
        <time>2024-01-30T22:36:59Z</time>
      </trkpt>
      <trkpt lat="44.22835" lon="6.05749">
        <ele>1056.17</ele>
        <time>2024-01-30T22:37:08Z</time>
      </trkpt>
      <trkpt lat="44.22863" lon="6.05757">
        <ele>1058.36</ele>
        <time>2024-01-30T22:37:25Z</time>
      </trkpt>
      <trkpt lat="44.22875" lon="6.05765">
        <ele>1059.53</ele>
        <time>2024-01-30T22:37:32Z</time>
      </trkpt>
      <trkpt lat="44.229" lon="6.05804">
        <ele>1062.34</ele>
        <time>2024-01-30T22:37:55Z</time>
      </trkpt>
      <trkpt lat="44.22913" lon="6.05813">
        <ele>1063.25</ele>
        <time>2024-01-30T22:38:03Z</time>
      </trkpt>
      <trkpt lat="44.22941" lon="6.05816">
        <ele>1065.5</ele>
        <time>2024-01-30T22:38:20Z</time>
      </trkpt>
      <trkpt lat="44.22987" lon="6.05828">
        <ele>1067.27</ele>
        <time>2024-01-30T22:38:49Z</time>
      </trkpt>
      <trkpt lat="44.23037" lon="6.05833">
        <ele>1070.39</ele>
        <time>2024-01-30T22:39:22Z</time>
      </trkpt>
      <trkpt lat="44.23059" lon="6.05841">
        <ele>1071.59</ele>
        <time>2024-01-30T22:39:35Z</time>
      </trkpt>
      <trkpt lat="44.23097" lon="6.05874">
        <ele>1075.94</ele>
        <time>2024-01-30T22:40:02Z</time>
      </trkpt>
      <trkpt lat="44.23181" lon="6.0591">
        <ele>1077.82</ele>
        <time>2024-01-30T22:40:44Z</time>
      </trkpt>
      <trkpt lat="44.23192" lon="6.05911">
        <ele>1077.6</ele>
        <time>2024-01-30T22:40:48Z</time>
      </trkpt>
      <trkpt lat="44.23215" lon="6.05904">
        <ele>1077.34</ele>
        <time>2024-01-30T22:40:57Z</time>
      </trkpt>
      <trkpt lat="44.23247" lon="6.05916">
        <ele>1076.82</ele>
        <time>2024-01-30T22:41:09Z</time>
      </trkpt>
      <trkpt lat="44.23255" lon="6.05915">
        <ele>1076.88</ele>
        <time>2024-01-30T22:41:11Z</time>
      </trkpt>
      <trkpt lat="44.23282" lon="6.05898">
        <ele>1077.56</ele>
        <time>2024-01-30T22:41:20Z</time>
      </trkpt>
      <trkpt lat="44.23322" lon="6.05896">
        <ele>1080.56</ele>
        <time>2024-01-30T22:41:30Z</time>
      </trkpt>
      <trkpt lat="44.23428" lon="6.05893">
        <ele>1084.71</ele>
        <time>2024-01-30T22:41:56Z</time>
      </trkpt>
      <trkpt lat="44.23453" lon="6.05886">
        <ele>1085.61</ele>
        <time>2024-01-30T22:42:03Z</time>
      </trkpt>
      <trkpt lat="44.23563" lon="6.05845">
        <ele>1090.29</ele>
        <time>2024-01-30T22:42:44Z</time>
      </trkpt>
      <trkpt lat="44.23611" lon="6.05832">
        <ele>1093.14</ele>
        <time>2024-01-30T22:43:07Z</time>
      </trkpt>
      <trkpt lat="44.23695" lon="6.05783">
        <ele>1099.66</ele>
        <time>2024-01-30T22:43:54Z</time>
      </trkpt>
      <trkpt lat="44.23723" lon="6.0577">
        <ele>1101.97</ele>
        <time>2024-01-30T22:44:09Z</time>
      </trkpt>
      <trkpt lat="44.23732" lon="6.05772">
        <ele>1102.49</ele>
        <time>2024-01-30T22:44:13Z</time>
      </trkpt>
      <trkpt lat="44.23769" lon="6.0578">
        <ele>1102.25</ele>
        <time>2024-01-30T22:44:29Z</time>
      </trkpt>
      <trkpt lat="44.23807" lon="6.05799">
        <ele>1103.35</ele>
        <time>2024-01-30T22:44:43Z</time>
      </trkpt>
      <trkpt lat="44.2382" lon="6.05805">
        <ele>1103.41</ele>
        <time>2024-01-30T22:44:48Z</time>
      </trkpt>
      <trkpt lat="44.23832" lon="6.05807">
        <ele>1103.33</ele>
        <time>2024-01-30T22:44:52Z</time>
      </trkpt>
      <trkpt lat="44.24008" lon="6.05782">
        <ele>1102.55</ele>
        <time>2024-01-30T22:45:21Z</time>
      </trkpt>
      <trkpt lat="44.24024" lon="6.05776">
        <ele>1102.34</ele>
        <time>2024-01-30T22:45:24Z</time>
      </trkpt>
      <trkpt lat="44.24047" lon="6.05764">
        <ele>1102.03</ele>
        <time>2024-01-30T22:45:28Z</time>
      </trkpt>
      <trkpt lat="44.24055" lon="6.05766">
        <ele>1102.1</ele>
        <time>2024-01-30T22:45:29Z</time>
      </trkpt>
      <trkpt lat="44.24086" lon="6.05782">
        <ele>1102.64</ele>
        <time>2024-01-30T22:45:35Z</time>
      </trkpt>
      <trkpt lat="44.24101" lon="6.05786">
        <ele>1102.81</ele>
        <time>2024-01-30T22:45:38Z</time>
      </trkpt>
      <trkpt lat="44.24121" lon="6.05784">
        <ele>1102.87</ele>
        <time>2024-01-30T22:45:42Z</time>
      </trkpt>
      <trkpt lat="44.24238" lon="6.05762">
        <ele>1104.3</ele>
        <time>2024-01-30T22:46:30Z</time>
      </trkpt>
      <trkpt lat="44.24262" lon="6.05733">
        <ele>1104.59</ele>
        <time>2024-01-30T22:46:22Z</time>
      </trkpt>
      <trkpt lat="44.24272" lon="6.05728">
        <ele>1104.91</ele>
        <time>2024-01-30T22:46:20Z</time>
      </trkpt>
      <trkpt lat="44.24262" lon="6.05733">
        <ele>1104.59</ele>
        <time>2024-01-30T22:46:22Z</time>
      </trkpt>
      <trkpt lat="44.24238" lon="6.05762">
        <ele>1104.3</ele>
        <time>2024-01-30T22:46:30Z</time>
      </trkpt>
      <trkpt lat="44.24205" lon="6.05839">
        <ele>1106.25</ele>
        <time>2024-01-30T22:46:53Z</time>
      </trkpt>
      <trkpt lat="44.24164" lon="6.05954">
        <ele>1110.7</ele>
        <time>2024-01-30T22:47:24Z</time>
      </trkpt>
      <trkpt lat="44.24161" lon="6.05988">
        <ele>1112.25</ele>
        <time>2024-01-30T22:47:33Z</time>
      </trkpt>
      <trkpt lat="44.24165" lon="6.06039">
        <ele>1114.68</ele>
        <time>2024-01-30T22:47:46Z</time>
      </trkpt>
      <trkpt lat="44.24163" lon="6.06075">
        <ele>1115.16</ele>
        <time>2024-01-30T22:47:55Z</time>
      </trkpt>
      <trkpt lat="44.24101" lon="6.06399">
        <ele>1115.42</ele>
        <time>2024-01-30T22:49:21Z</time>
      </trkpt>
      <trkpt lat="44.24081" lon="6.06464">
        <ele>1116.33</ele>
        <time>2024-01-30T22:49:38Z</time>
      </trkpt>
      <trkpt lat="44.24051" lon="6.06545">
        <ele>1117.97</ele>
        <time>2024-01-30T22:50:02Z</time>
      </trkpt>
      <trkpt lat="44.24043" lon="6.06591">
        <ele>1119.22</ele>
        <time>2024-01-30T22:50:15Z</time>
      </trkpt>
      <trkpt lat="44.24031" lon="6.06703">
        <ele>1120.82</ele>
        <time>2024-01-30T22:50:47Z</time>
      </trkpt>
      <trkpt lat="44.24029" lon="6.06781">
        <ele>1121.99</ele>
        <time>2024-01-30T22:51:10Z</time>
      </trkpt>
      <trkpt lat="44.24035" lon="6.06944">
        <ele>1125.71</ele>
        <time>2024-01-30T22:52:02Z</time>
      </trkpt>
      <trkpt lat="44.24034" lon="6.0703">
        <ele>1128.57</ele>
        <time>2024-01-30T22:52:31Z</time>
      </trkpt>
      <trkpt lat="44.2403" lon="6.07047">
        <ele>1129.01</ele>
        <time>2024-01-30T22:52:38Z</time>
      </trkpt>
      <trkpt lat="44.23998" lon="6.07127">
        <ele>1131.52</ele>
        <time>2024-01-30T22:53:12Z</time>
      </trkpt>
      <trkpt lat="44.23989" lon="6.07158">
        <ele>1133</ele>
        <time>2024-01-30T22:53:23Z</time>
      </trkpt>
      <trkpt lat="44.23972" lon="6.07249">
        <ele>1135.14</ele>
        <time>2024-01-30T22:53:54Z</time>
      </trkpt>
      <trkpt lat="44.23955" lon="6.07298">
        <ele>1137.92</ele>
        <time>2024-01-30T22:54:10Z</time>
      </trkpt>
      <trkpt lat="44.23967" lon="6.07328">
        <ele>1138.36</ele>
        <time>2024-01-30T22:54:21Z</time>
      </trkpt>
      <trkpt lat="44.2397" lon="6.07323">
        <ele>1138.63</ele>
        <time>2024-01-30T22:54:23Z</time>
      </trkpt>
      <trkpt lat="44.23981" lon="6.07324">
        <ele>1139.38</ele>
        <time>2024-01-30T22:54:26Z</time>
      </trkpt>
      <trkpt lat="44.24056" lon="6.0735">
        <ele>1144.57</ele>
        <time>2024-01-30T22:54:52Z</time>
      </trkpt>
      <trkpt lat="44.24083" lon="6.07364">
        <ele>1146.99</ele>
        <time>2024-01-30T22:55:00Z</time>
      </trkpt>
      <trkpt lat="44.24106" lon="6.07382">
        <ele>1149.07</ele>
        <time>2024-01-30T22:55:08Z</time>
      </trkpt>
      <trkpt lat="44.24124" lon="6.07392">
        <ele>1150.83</ele>
        <time>2024-01-30T22:55:12Z</time>
      </trkpt>
      <trkpt lat="44.24142" lon="6.0739">
        <ele>1152.39</ele>
        <time>2024-01-30T22:55:16Z</time>
      </trkpt>
      <trkpt lat="44.24161" lon="6.07384">
        <ele>1152.95</ele>
        <time>2024-01-30T22:55:21Z</time>
      </trkpt>
      <trkpt lat="44.24172" lon="6.07368">
        <ele>1152.54</ele>
        <time>2024-01-30T22:55:24Z</time>
      </trkpt>
      <trkpt lat="44.2418" lon="6.07316">
        <ele>1150.76</ele>
        <time>2024-01-30T22:55:34Z</time>
      </trkpt>
      <trkpt lat="44.24181" lon="6.07221">
        <ele>1151.33</ele>
        <time>2024-01-30T22:55:53Z</time>
      </trkpt>
      <trkpt lat="44.24173" lon="6.07153">
        <ele>1151.91</ele>
        <time>2024-01-30T22:56:07Z</time>
      </trkpt>
      <trkpt lat="44.24174" lon="6.07143">
        <ele>1151.95</ele>
        <time>2024-01-30T22:56:09Z</time>
      </trkpt>
      <trkpt lat="44.24207" lon="6.0724">
        <ele>1155.21</ele>
        <time>2024-01-30T22:56:33Z</time>
      </trkpt>
      <trkpt lat="44.24211" lon="6.07258">
        <ele>1155.28</ele>
        <time>2024-01-30T22:56:38Z</time>
      </trkpt>
      <trkpt lat="44.24213" lon="6.07296">
        <ele>1157.69</ele>
        <time>2024-01-30T22:56:48Z</time>
      </trkpt>
      <trkpt lat="44.24204" lon="6.07477">
        <ele>1166.42</ele>
        <time>2024-01-30T22:57:47Z</time>
      </trkpt>
      <trkpt lat="44.24204" lon="6.0757">
        <ele>1171.53</ele>
        <time>2024-01-30T22:58:13Z</time>
      </trkpt>
      <trkpt lat="44.24188" lon="6.07691">
        <ele>1177.89</ele>
        <time>2024-01-30T22:58:37Z</time>
      </trkpt>
      <trkpt lat="44.24184" lon="6.07792">
        <ele>1183.15</ele>
        <time>2024-01-30T22:58:55Z</time>
      </trkpt>
      <trkpt lat="44.24172" lon="6.07848">
        <ele>1184.84</ele>
        <time>2024-01-30T22:59:11Z</time>
      </trkpt>
      <trkpt lat="44.24158" lon="6.07882">
        <ele>1188.42</ele>
        <time>2024-01-30T22:59:21Z</time>
      </trkpt>
      <trkpt lat="44.24155" lon="6.07901">
        <ele>1188.91</ele>
        <time>2024-01-30T22:59:25Z</time>
      </trkpt>
      <trkpt lat="44.24158" lon="6.07917">
        <ele>1189.73</ele>
        <time>2024-01-30T22:59:27Z</time>
      </trkpt>
      <trkpt lat="44.24164" lon="6.07925">
        <ele>1189</ele>
        <time>2024-01-30T22:59:29Z</time>
      </trkpt>
      <trkpt lat="44.24213" lon="6.07954">
        <ele>1196.16</ele>
        <time>2024-01-30T22:59:37Z</time>
      </trkpt>
      <trkpt lat="44.24227" lon="6.07969">
        <ele>1198.07</ele>
        <time>2024-01-30T22:59:39Z</time>
      </trkpt>
      <trkpt lat="44.24239" lon="6.07997">
        <ele>1201.66</ele>
        <time>2024-01-30T22:59:42Z</time>
      </trkpt>
      <trkpt lat="44.24239" lon="6.08016">
        <ele>1203</ele>
        <time>2024-01-30T22:59:44Z</time>
      </trkpt>
      <trkpt lat="44.24235" lon="6.08025">
        <ele>1202.56</ele>
        <time>2024-01-30T22:59:45Z</time>
      </trkpt>
      <trkpt lat="44.24189" lon="6.08084">
        <ele>1204.44</ele>
        <time>2024-01-30T23:00:05Z</time>
      </trkpt>
      <trkpt lat="44.24178" lon="6.08123">
        <ele>1205.97</ele>
        <time>2024-01-30T23:00:12Z</time>
      </trkpt>
      <trkpt lat="44.24175" lon="6.08149">
        <ele>1205.07</ele>
        <time>2024-01-30T23:00:14Z</time>
      </trkpt>
      <trkpt lat="44.24176" lon="6.08163">
        <ele>1204.87</ele>
        <time>2024-01-30T23:00:16Z</time>
      </trkpt>
      <trkpt lat="44.24179" lon="6.08168">
        <ele>1205.83</ele>
        <time>2024-01-30T23:00:16Z</time>
      </trkpt>
      <trkpt lat="44.24183" lon="6.0817">
        <ele>1206.54</ele>
        <time>2024-01-30T23:00:17Z</time>
      </trkpt>
      <trkpt lat="44.24194" lon="6.08168">
        <ele>1206.63</ele>
        <time>2024-01-30T23:00:19Z</time>
      </trkpt>
      <trkpt lat="44.24214" lon="6.0815">
        <ele>1208.82</ele>
        <time>2024-01-30T23:00:22Z</time>
      </trkpt>
      <trkpt lat="44.24228" lon="6.08148">
        <ele>1209.25</ele>
        <time>2024-01-30T23:00:24Z</time>
      </trkpt>
      <trkpt lat="44.24235" lon="6.08151">
        <ele>1209.66</ele>
        <time>2024-01-30T23:00:26Z</time>
      </trkpt>
      <trkpt lat="44.2424" lon="6.08159">
        <ele>1209.5</ele>
        <time>2024-01-30T23:00:28Z</time>
      </trkpt>
      <trkpt lat="44.24271" lon="6.08267">
        <ele>1205.79</ele>
        <time>2024-01-30T23:01:09Z</time>
      </trkpt>
      <trkpt lat="44.24283" lon="6.08276">
        <ele>1209.74</ele>
        <time>2024-01-30T23:01:18Z</time>
      </trkpt>
      <trkpt lat="44.24299" lon="6.0828">
        <ele>1210.78</ele>
        <time>2024-01-30T23:01:29Z</time>
      </trkpt>
      <trkpt lat="44.24314" lon="6.0829">
        <ele>1209.43</ele>
        <time>2024-01-30T23:01:39Z</time>
      </trkpt>
      <trkpt lat="44.24347" lon="6.08344">
        <ele>1204.98</ele>
        <time>2024-01-30T23:01:57Z</time>
      </trkpt>
      <trkpt lat="44.24389" lon="6.0837">
        <ele>1204.9</ele>
        <time>2024-01-30T23:02:08Z</time>
      </trkpt>
      <trkpt lat="44.24396" lon="6.08377">
        <ele>1204.07</ele>
        <time>2024-01-30T23:02:10Z</time>
      </trkpt>
      <trkpt lat="44.2442" lon="6.08446">
        <ele>1203.81</ele>
        <time>2024-01-30T23:02:21Z</time>
      </trkpt>
      <trkpt lat="44.24422" lon="6.08459">
        <ele>1205.1</ele>
        <time>2024-01-30T23:02:23Z</time>
      </trkpt>
      <trkpt lat="44.24421" lon="6.08486">
        <ele>1202.64</ele>
        <time>2024-01-30T23:02:28Z</time>
      </trkpt>
      <trkpt lat="44.2441" lon="6.08535">
        <ele>1204.19</ele>
        <time>2024-01-30T23:02:37Z</time>
      </trkpt>
      <trkpt lat="44.24407" lon="6.08563">
        <ele>1203.19</ele>
        <time>2024-01-30T23:02:43Z</time>
      </trkpt>
      <trkpt lat="44.2441" lon="6.08591">
        <ele>1205.09</ele>
        <time>2024-01-30T23:02:49Z</time>
      </trkpt>
      <trkpt lat="44.24418" lon="6.08618">
        <ele>1205.03</ele>
        <time>2024-01-30T23:02:56Z</time>
      </trkpt>
      <trkpt lat="44.24429" lon="6.08643">
        <ele>1205.11</ele>
        <time>2024-01-30T23:03:03Z</time>
      </trkpt>
      <trkpt lat="44.24444" lon="6.08723">
        <ele>1209.1</ele>
        <time>2024-01-30T23:03:27Z</time>
      </trkpt>
      <trkpt lat="44.24465" lon="6.08767">
        <ele>1213.79</ele>
        <time>2024-01-30T23:03:44Z</time>
      </trkpt>
      <trkpt lat="44.24468" lon="6.08791">
        <ele>1215.2</ele>
        <time>2024-01-30T23:03:52Z</time>
      </trkpt>
      <trkpt lat="44.24463" lon="6.08817">
        <ele>1215.89</ele>
        <time>2024-01-30T23:04:01Z</time>
      </trkpt>
      <trkpt lat="44.24453" lon="6.08839">
        <ele>1215.45</ele>
        <time>2024-01-30T23:04:09Z</time>
      </trkpt>
      <trkpt lat="44.24441" lon="6.08857">
        <ele>1216.32</ele>
        <time>2024-01-30T23:04:15Z</time>
      </trkpt>
      <trkpt lat="44.24433" lon="6.08881">
        <ele>1217.37</ele>
        <time>2024-01-30T23:04:21Z</time>
      </trkpt>
      <trkpt lat="44.24424" lon="6.08933">
        <ele>1220.87</ele>
        <time>2024-01-30T23:04:31Z</time>
      </trkpt>
      <trkpt lat="44.24423" lon="6.0899">
        <ele>1228.73</ele>
        <time>2024-01-30T23:04:38Z</time>
      </trkpt>
      <trkpt lat="44.24405" lon="6.0904">
        <ele>1223.77</ele>
        <time>2024-01-30T23:04:44Z</time>
      </trkpt>
      <trkpt lat="44.24399" lon="6.09064">
        <ele>1226.23</ele>
        <time>2024-01-30T23:04:46Z</time>
      </trkpt>
      <trkpt lat="44.24402" lon="6.09085">
        <ele>1226.67</ele>
        <time>2024-01-30T23:04:48Z</time>
      </trkpt>
      <trkpt lat="44.24462" lon="6.09176">
        <ele>1229.16</ele>
        <time>2024-01-30T23:05:02Z</time>
      </trkpt>
      <trkpt lat="44.24518" lon="6.09278">
        <ele>1231.31</ele>
        <time>2024-01-30T23:05:29Z</time>
      </trkpt>
      <trkpt lat="44.24598" lon="6.09396">
        <ele>1234.5</ele>
        <time>2024-01-30T23:06:10Z</time>
      </trkpt>
      <trkpt lat="44.24641" lon="6.09455">
        <ele>1235.29</ele>
        <time>2024-01-30T23:06:24Z</time>
      </trkpt>
      <trkpt lat="44.24675" lon="6.09499">
        <ele>1233.92</ele>
        <time>2024-01-30T23:06:33Z</time>
      </trkpt>
      <trkpt lat="44.24685" lon="6.09519">
        <ele>1234.38</ele>
        <time>2024-01-30T23:06:35Z</time>
      </trkpt>
      <trkpt lat="44.24686" lon="6.09531">
        <ele>1233.88</ele>
        <time>2024-01-30T23:06:37Z</time>
      </trkpt>
      <trkpt lat="44.24684" lon="6.09543">
        <ele>1233.98</ele>
        <time>2024-01-30T23:06:38Z</time>
      </trkpt>
      <trkpt lat="44.24665" lon="6.09608">
        <ele>1231.52</ele>
        <time>2024-01-30T23:06:45Z</time>
      </trkpt>
      <trkpt lat="44.24662" lon="6.09634">
        <ele>1231.03</ele>
        <time>2024-01-30T23:06:48Z</time>
      </trkpt>
      <trkpt lat="44.24676" lon="6.0972">
        <ele>1228.59</ele>
        <time>2024-01-30T23:06:57Z</time>
      </trkpt>
      <trkpt lat="44.24688" lon="6.0987">
        <ele>1222.3</ele>
        <time>2024-01-30T23:07:23Z</time>
      </trkpt>
      <trkpt lat="44.24695" lon="6.09899">
        <ele>1220.99</ele>
        <time>2024-01-30T23:07:33Z</time>
      </trkpt>
      <trkpt lat="44.24709" lon="6.09936">
        <ele>1220.31</ele>
        <time>2024-01-30T23:07:49Z</time>
      </trkpt>
      <trkpt lat="44.24711" lon="6.09948">
        <ele>1220.85</ele>
        <time>2024-01-30T23:07:53Z</time>
      </trkpt>
      <trkpt lat="44.2471" lon="6.09959">
        <ele>1220.72</ele>
        <time>2024-01-30T23:07:58Z</time>
      </trkpt>
      <trkpt lat="44.24706" lon="6.09971">
        <ele>1219.67</ele>
        <time>2024-01-30T23:08:04Z</time>
      </trkpt>
      <trkpt lat="44.24681" lon="6.10016">
        <ele>1219.13</ele>
        <time>2024-01-30T23:08:28Z</time>
      </trkpt>
      <trkpt lat="44.2467" lon="6.10042">
        <ele>1218.51</ele>
        <time>2024-01-30T23:08:42Z</time>
      </trkpt>
      <trkpt lat="44.24667" lon="6.10058">
        <ele>1218.82</ele>
        <time>2024-01-30T23:08:49Z</time>
      </trkpt>
      <trkpt lat="44.24653" lon="6.1017">
        <ele>1220.37</ele>
        <time>2024-01-30T23:09:29Z</time>
      </trkpt>
      <trkpt lat="44.24646" lon="6.1023">
        <ele>1217.63</ele>
        <time>2024-01-30T23:09:42Z</time>
      </trkpt>
      <trkpt lat="44.24637" lon="6.10404">
        <ele>1210.1</ele>
        <time>2024-01-30T23:09:58Z</time>
      </trkpt>
      <trkpt lat="44.24629" lon="6.10473">
        <ele>1206.49</ele>
        <time>2024-01-30T23:10:04Z</time>
      </trkpt>
      <trkpt lat="44.24612" lon="6.10557">
        <ele>1202.17</ele>
        <time>2024-01-30T23:10:11Z</time>
      </trkpt>
      <trkpt lat="44.24583" lon="6.10674">
        <ele>1203.86</ele>
        <time>2024-01-30T23:10:23Z</time>
      </trkpt>
      <trkpt lat="44.24579" lon="6.10703">
        <ele>1202.43</ele>
        <time>2024-01-30T23:10:26Z</time>
      </trkpt>
      <trkpt lat="44.24578" lon="6.10717">
        <ele>1201.05</ele>
        <time>2024-01-30T23:10:28Z</time>
      </trkpt>
      <trkpt lat="44.2458" lon="6.1073">
        <ele>1199.49</ele>
        <time>2024-01-30T23:10:29Z</time>
      </trkpt>
      <trkpt lat="44.24592" lon="6.10766">
        <ele>1197.04</ele>
        <time>2024-01-30T23:10:33Z</time>
      </trkpt>
      <trkpt lat="44.24593" lon="6.10779">
        <ele>1198.57</ele>
        <time>2024-01-30T23:10:35Z</time>
      </trkpt>
      <trkpt lat="44.24589" lon="6.10833">
        <ele>1203.93</ele>
        <time>2024-01-30T23:10:41Z</time>
      </trkpt>
      <trkpt lat="44.2459" lon="6.10879">
        <ele>1204.93</ele>
        <time>2024-01-30T23:10:46Z</time>
      </trkpt>
      <trkpt lat="44.24587" lon="6.10901">
        <ele>1203.02</ele>
        <time>2024-01-30T23:10:48Z</time>
      </trkpt>
      <trkpt lat="44.24565" lon="6.10982">
        <ele>1198.11</ele>
        <time>2024-01-30T23:10:56Z</time>
      </trkpt>
      <trkpt lat="44.24558" lon="6.11045">
        <ele>1195.89</ele>
        <time>2024-01-30T23:11:01Z</time>
      </trkpt>
      <trkpt lat="44.24505" lon="6.11193">
        <ele>1184.64</ele>
        <time>2024-01-30T23:11:14Z</time>
      </trkpt>
      <trkpt lat="44.24474" lon="6.11241">
        <ele>1180.73</ele>
        <time>2024-01-30T23:11:19Z</time>
      </trkpt>
      <trkpt lat="44.24402" lon="6.11324">
        <ele>1173.3</ele>
        <time>2024-01-30T23:11:30Z</time>
      </trkpt>
      <trkpt lat="44.24396" lon="6.11334">
        <ele>1172.48</ele>
        <time>2024-01-30T23:11:31Z</time>
      </trkpt>
      <trkpt lat="44.24391" lon="6.11358">
        <ele>1172.01</ele>
        <time>2024-01-30T23:11:33Z</time>
      </trkpt>
      <trkpt lat="44.24394" lon="6.11425">
        <ele>1166.58</ele>
        <time>2024-01-30T23:11:39Z</time>
      </trkpt>
      <trkpt lat="44.24392" lon="6.11437">
        <ele>1165.28</ele>
        <time>2024-01-30T23:11:40Z</time>
      </trkpt>
      <trkpt lat="44.24383" lon="6.1146">
        <ele>1163.6</ele>
        <time>2024-01-30T23:11:42Z</time>
      </trkpt>
      <trkpt lat="44.2435" lon="6.11501">
        <ele>1159.47</ele>
        <time>2024-01-30T23:11:47Z</time>
      </trkpt>
      <trkpt lat="44.24318" lon="6.11549">
        <ele>1156.61</ele>
        <time>2024-01-30T23:11:53Z</time>
      </trkpt>
      <trkpt lat="44.24307" lon="6.11559">
        <ele>1156.09</ele>
        <time>2024-01-30T23:11:55Z</time>
      </trkpt>
      <trkpt lat="44.24289" lon="6.11565">
        <ele>1155.47</ele>
        <time>2024-01-30T23:11:57Z</time>
      </trkpt>
      <trkpt lat="44.24282" lon="6.11574">
        <ele>1155.29</ele>
        <time>2024-01-30T23:11:58Z</time>
      </trkpt>
      <trkpt lat="44.24285" lon="6.11584">
        <ele>1153.19</ele>
        <time>2024-01-30T23:11:59Z</time>
      </trkpt>
      <trkpt lat="44.24294" lon="6.11586">
        <ele>1152.46</ele>
        <time>2024-01-30T23:12:00Z</time>
      </trkpt>
      <trkpt lat="44.24339" lon="6.11553">
        <ele>1151.43</ele>
        <time>2024-01-30T23:12:07Z</time>
      </trkpt>
      <trkpt lat="44.2437" lon="6.11545">
        <ele>1148.23</ele>
        <time>2024-01-30T23:12:11Z</time>
      </trkpt>
      <trkpt lat="44.2441" lon="6.11541">
        <ele>1145.8</ele>
        <time>2024-01-30T23:12:16Z</time>
      </trkpt>
      <trkpt lat="44.24419" lon="6.11547">
        <ele>1144.48</ele>
        <time>2024-01-30T23:12:17Z</time>
      </trkpt>
      <trkpt lat="44.24421" lon="6.11552">
        <ele>1143.44</ele>
        <time>2024-01-30T23:12:18Z</time>
      </trkpt>
      <trkpt lat="44.24418" lon="6.11562">
        <ele>1142.25</ele>
        <time>2024-01-30T23:12:19Z</time>
      </trkpt>
      <trkpt lat="44.24376" lon="6.11578">
        <ele>1140.15</ele>
        <time>2024-01-30T23:12:24Z</time>
      </trkpt>
      <trkpt lat="44.24268" lon="6.11704">
        <ele>1131.05</ele>
        <time>2024-01-30T23:12:42Z</time>
      </trkpt>
      <trkpt lat="44.24254" lon="6.11727">
        <ele>1129.62</ele>
        <time>2024-01-30T23:12:45Z</time>
      </trkpt>
      <trkpt lat="44.24237" lon="6.11766">
        <ele>1127.49</ele>
        <time>2024-01-30T23:12:49Z</time>
      </trkpt>
      <trkpt lat="44.24225" lon="6.11788">
        <ele>1125.05</ele>
        <time>2024-01-30T23:12:51Z</time>
      </trkpt>
      <trkpt lat="44.24208" lon="6.11801">
        <ele>1123.32</ele>
        <time>2024-01-30T23:12:54Z</time>
      </trkpt>
      <trkpt lat="44.24159" lon="6.1183">
        <ele>1124.34</ele>
        <time>2024-01-30T23:13:01Z</time>
      </trkpt>
      <trkpt lat="44.2413" lon="6.11857">
        <ele>1121.13</ele>
        <time>2024-01-30T23:13:06Z</time>
      </trkpt>
      <trkpt lat="44.24112" lon="6.11879">
        <ele>1115.67</ele>
        <time>2024-01-30T23:13:10Z</time>
      </trkpt>
      <trkpt lat="44.24079" lon="6.11944">
        <ele>1120.56</ele>
        <time>2024-01-30T23:13:19Z</time>
      </trkpt>
      <trkpt lat="44.23954" lon="6.12158">
        <ele>1117.36</ele>
        <time>2024-01-30T23:13:53Z</time>
      </trkpt>
      <trkpt lat="44.23922" lon="6.12198">
        <ele>1119.04</ele>
        <time>2024-01-30T23:14:00Z</time>
      </trkpt>
      <trkpt lat="44.23856" lon="6.12266">
        <ele>1123.72</ele>
        <time>2024-01-30T23:14:14Z</time>
      </trkpt>
      <trkpt lat="44.23843" lon="6.12285">
        <ele>1124.89</ele>
        <time>2024-01-30T23:14:17Z</time>
      </trkpt>
      <trkpt lat="44.23839" lon="6.12296">
        <ele>1125.45</ele>
        <time>2024-01-30T23:14:19Z</time>
      </trkpt>
      <trkpt lat="44.23837" lon="6.1232">
        <ele>1125.31</ele>
        <time>2024-01-30T23:14:22Z</time>
      </trkpt>
      <trkpt lat="44.23845" lon="6.124">
        <ele>1130.65</ele>
        <time>2024-01-30T23:14:34Z</time>
      </trkpt>
      <trkpt lat="44.23852" lon="6.12451">
        <ele>1133.69</ele>
        <time>2024-01-30T23:14:43Z</time>
      </trkpt>
      <trkpt lat="44.2385" lon="6.12548">
        <ele>1136.91</ele>
        <time>2024-01-30T23:15:00Z</time>
      </trkpt>
      <trkpt lat="44.23848" lon="6.12571">
        <ele>1137.7</ele>
        <time>2024-01-30T23:15:04Z</time>
      </trkpt>
      <trkpt lat="44.23836" lon="6.12621">
        <ele>1135.95</ele>
        <time>2024-01-30T23:15:15Z</time>
      </trkpt>
      <trkpt lat="44.23831" lon="6.12642">
        <ele>1135.31</ele>
        <time>2024-01-30T23:15:20Z</time>
      </trkpt>
      <trkpt lat="44.2383" lon="6.12649">
        <ele>1134.33</ele>
        <time>2024-01-30T23:15:21Z</time>
      </trkpt>
      <trkpt lat="44.23826" lon="6.12665">
        <ele>1134.04</ele>
        <time>2024-01-30T23:15:25Z</time>
      </trkpt>
      <trkpt lat="44.23822" lon="6.12686">
        <ele>1132.67</ele>
        <time>2024-01-30T23:15:30Z</time>
      </trkpt>
      <trkpt lat="44.23829" lon="6.1272">
        <ele>1133.23</ele>
        <time>2024-01-30T23:15:38Z</time>
      </trkpt>
      <trkpt lat="44.23829" lon="6.12728">
        <ele>1133.21</ele>
        <time>2024-01-30T23:15:40Z</time>
      </trkpt>
      <trkpt lat="44.23819" lon="6.12836">
        <ele>1132.07</ele>
        <time>2024-01-30T23:16:05Z</time>
      </trkpt>
      <trkpt lat="44.2381" lon="6.12868">
        <ele>1131.34</ele>
        <time>2024-01-30T23:16:13Z</time>
      </trkpt>
      <trkpt lat="44.23796" lon="6.12879">
        <ele>1130.47</ele>
        <time>2024-01-30T23:16:19Z</time>
      </trkpt>
      <trkpt lat="44.23782" lon="6.12883">
        <ele>1129.69</ele>
        <time>2024-01-30T23:16:23Z</time>
      </trkpt>
      <trkpt lat="44.23757" lon="6.12877">
        <ele>1128.8</ele>
        <time>2024-01-30T23:16:31Z</time>
      </trkpt>
      <trkpt lat="44.23749" lon="6.12874">
        <ele>1128.49</ele>
        <time>2024-01-30T23:16:34Z</time>
      </trkpt>
      <trkpt lat="44.23741" lon="6.12869">
        <ele>1128.21</ele>
        <time>2024-01-30T23:16:36Z</time>
      </trkpt>
      <trkpt lat="44.23719" lon="6.12859">
        <ele>1130.05</ele>
        <time>2024-01-30T23:16:43Z</time>
      </trkpt>
      <trkpt lat="44.23692" lon="6.12857">
        <ele>1134.88</ele>
        <time>2024-01-30T23:16:51Z</time>
      </trkpt>
      <trkpt lat="44.23666" lon="6.12868">
        <ele>1133.6</ele>
        <time>2024-01-30T23:16:58Z</time>
      </trkpt>
      <trkpt lat="44.23648" lon="6.12879">
        <ele>1133.36</ele>
        <time>2024-01-30T23:17:04Z</time>
      </trkpt>
      <trkpt lat="44.23614" lon="6.1291">
        <ele>1134.13</ele>
        <time>2024-01-30T23:17:15Z</time>
      </trkpt>
      <trkpt lat="44.23554" lon="6.12951">
        <ele>1135.98</ele>
        <time>2024-01-30T23:17:34Z</time>
      </trkpt>
      <trkpt lat="44.23535" lon="6.12968">
        <ele>1136.47</ele>
        <time>2024-01-30T23:17:41Z</time>
      </trkpt>
      <trkpt lat="44.23514" lon="6.1299">
        <ele>1137.37</ele>
        <time>2024-01-30T23:17:49Z</time>
      </trkpt>
      <trkpt lat="44.23504" lon="6.12995">
        <ele>1138.23</ele>
        <time>2024-01-30T23:17:52Z</time>
      </trkpt>
      <trkpt lat="44.23444" lon="6.13018">
        <ele>1139.34</ele>
        <time>2024-01-30T23:18:16Z</time>
      </trkpt>
      <trkpt lat="44.23405" lon="6.13027">
        <ele>1139.75</ele>
        <time>2024-01-30T23:18:32Z</time>
      </trkpt>
      <trkpt lat="44.23376" lon="6.13026">
        <ele>1139.88</ele>
        <time>2024-01-30T23:18:44Z</time>
      </trkpt>
      <trkpt lat="44.23336" lon="6.13031">
        <ele>1140.6</ele>
        <time>2024-01-30T23:19:00Z</time>
      </trkpt>
      <trkpt lat="44.23306" lon="6.1303">
        <ele>1141.58</ele>
        <time>2024-01-30T23:19:12Z</time>
      </trkpt>
      <trkpt lat="44.2328" lon="6.1303">
        <ele>1142.47</ele>
        <time>2024-01-30T23:19:22Z</time>
      </trkpt>
      <trkpt lat="44.23184" lon="6.13035">
        <ele>1145.97</ele>
        <time>2024-01-30T23:19:59Z</time>
      </trkpt>
      <trkpt lat="44.23156" lon="6.13042">
        <ele>1147.76</ele>
        <time>2024-01-30T23:20:09Z</time>
      </trkpt>
      <trkpt lat="44.23036" lon="6.13104">
        <ele>1152.43</ele>
        <time>2024-01-30T23:20:58Z</time>
      </trkpt>
      <trkpt lat="44.22952" lon="6.13187">
        <ele>1156.43</ele>
        <time>2024-01-30T23:21:46Z</time>
      </trkpt>
      <trkpt lat="44.22941" lon="6.13195">
        <ele>1156.58</ele>
        <time>2024-01-30T23:21:52Z</time>
      </trkpt>
      <trkpt lat="44.22921" lon="6.13208">
        <ele>1156.91</ele>
        <time>2024-01-30T23:22:02Z</time>
      </trkpt>
      <trkpt lat="44.22884" lon="6.13251">
        <ele>1159.16</ele>
        <time>2024-01-30T23:22:24Z</time>
      </trkpt>
      <trkpt lat="44.22842" lon="6.1327">
        <ele>1161.66</ele>
        <time>2024-01-30T23:22:44Z</time>
      </trkpt>
      <trkpt lat="44.22828" lon="6.13279">
        <ele>1162.42</ele>
        <time>2024-01-30T23:22:50Z</time>
      </trkpt>
      <trkpt lat="44.22811" lon="6.133">
        <ele>1163.71</ele>
        <time>2024-01-30T23:23:00Z</time>
      </trkpt>
      <trkpt lat="44.22793" lon="6.13338">
        <ele>1165.82</ele>
        <time>2024-01-30T23:23:15Z</time>
      </trkpt>
      <trkpt lat="44.2277" lon="6.13371">
        <ele>1168.09</ele>
        <time>2024-01-30T23:23:31Z</time>
      </trkpt>
      <trkpt lat="44.2274" lon="6.13403">
        <ele>1171.03</ele>
        <time>2024-01-30T23:23:49Z</time>
      </trkpt>
      <trkpt lat="44.22718" lon="6.1343">
        <ele>1173.39</ele>
        <time>2024-01-30T23:24:03Z</time>
      </trkpt>
      <trkpt lat="44.22709" lon="6.13436">
        <ele>1174.42</ele>
        <time>2024-01-30T23:24:08Z</time>
      </trkpt>
      <trkpt lat="44.22705" lon="6.13434">
        <ele>1174.8</ele>
        <time>2024-01-30T23:24:10Z</time>
      </trkpt>
      <trkpt lat="44.22703" lon="6.13422">
        <ele>1174.79</ele>
        <time>2024-01-30T23:24:16Z</time>
      </trkpt>
      <trkpt lat="44.22706" lon="6.13414">
        <ele>1174.5</ele>
        <time>2024-01-30T23:24:19Z</time>
      </trkpt>
      <trkpt lat="44.22728" lon="6.13386">
        <ele>1172.22</ele>
        <time>2024-01-30T23:24:35Z</time>
      </trkpt>
      <trkpt lat="44.22737" lon="6.13369">
        <ele>1171.56</ele>
        <time>2024-01-30T23:24:42Z</time>
      </trkpt>
      <trkpt lat="44.22748" lon="6.13315">
        <ele>1174.49</ele>
        <time>2024-01-30T23:25:03Z</time>
      </trkpt>
      <trkpt lat="44.22765" lon="6.13266">
        <ele>1178.97</ele>
        <time>2024-01-30T23:25:23Z</time>
      </trkpt>
      <trkpt lat="44.22762" lon="6.13255">
        <ele>1181.65</ele>
        <time>2024-01-30T23:25:28Z</time>
      </trkpt>
      <trkpt lat="44.22758" lon="6.13253">
        <ele>1183.06</ele>
        <time>2024-01-30T23:25:31Z</time>
      </trkpt>
      <trkpt lat="44.22752" lon="6.13254">
        <ele>1184.5</ele>
        <time>2024-01-30T23:25:33Z</time>
      </trkpt>
      <trkpt lat="44.22748" lon="6.13258">
        <ele>1184.99</ele>
        <time>2024-01-30T23:25:36Z</time>
      </trkpt>
      <trkpt lat="44.22736" lon="6.13286">
        <ele>1183.19</ele>
        <time>2024-01-30T23:25:47Z</time>
      </trkpt>
      <trkpt lat="44.22721" lon="6.13311">
        <ele>1184.72</ele>
        <time>2024-01-30T23:25:59Z</time>
      </trkpt>
      <trkpt lat="44.22638" lon="6.13414">
        <ele>1190.23</ele>
        <time>2024-01-30T23:26:58Z</time>
      </trkpt>
      <trkpt lat="44.22619" lon="6.13426">
        <ele>1192.29</ele>
        <time>2024-01-30T23:27:08Z</time>
      </trkpt>
      <trkpt lat="44.2261" lon="6.13427">
        <ele>1193.6</ele>
        <time>2024-01-30T23:27:12Z</time>
      </trkpt>
      <trkpt lat="44.22601" lon="6.13426">
        <ele>1194.97</ele>
        <time>2024-01-30T23:27:15Z</time>
      </trkpt>
      <trkpt lat="44.22572" lon="6.1341">
        <ele>1205.26</ele>
        <time>2024-01-30T23:27:28Z</time>
      </trkpt>
      <trkpt lat="44.22565" lon="6.1341">
        <ele>1206.76</ele>
        <time>2024-01-30T23:27:31Z</time>
      </trkpt>
      <trkpt lat="44.2256" lon="6.13414">
        <ele>1207.56</ele>
        <time>2024-01-30T23:27:34Z</time>
      </trkpt>
      <trkpt lat="44.22556" lon="6.13424">
        <ele>1207.24</ele>
        <time>2024-01-30T23:27:37Z</time>
      </trkpt>
      <trkpt lat="44.22556" lon="6.13436">
        <ele>1206.12</ele>
        <time>2024-01-30T23:27:41Z</time>
      </trkpt>
      <trkpt lat="44.22557" lon="6.13461">
        <ele>1203.85</ele>
        <time>2024-01-30T23:27:48Z</time>
      </trkpt>
      <trkpt lat="44.22555" lon="6.1347">
        <ele>1203.39</ele>
        <time>2024-01-30T23:27:51Z</time>
      </trkpt>
      <trkpt lat="44.22532" lon="6.13511">
        <ele>1211.65</ele>
        <time>2024-01-30T23:28:09Z</time>
      </trkpt>
      <trkpt lat="44.22501" lon="6.13571">
        <ele>1215.79</ele>
        <time>2024-01-30T23:28:34Z</time>
      </trkpt>
      <trkpt lat="44.22477" lon="6.13609">
        <ele>1218.53</ele>
        <time>2024-01-30T23:28:50Z</time>
      </trkpt>
      <trkpt lat="44.22458" lon="6.13628">
        <ele>1219.97</ele>
        <time>2024-01-30T23:29:00Z</time>
      </trkpt>
      <trkpt lat="44.22438" lon="6.13634">
        <ele>1222.38</ele>
        <time>2024-01-30T23:29:11Z</time>
      </trkpt>
      <trkpt lat="44.22428" lon="6.13633">
        <ele>1225.12</ele>
        <time>2024-01-30T23:29:17Z</time>
      </trkpt>
      <trkpt lat="44.224" lon="6.13623">
        <ele>1232.46</ele>
        <time>2024-01-30T23:29:34Z</time>
      </trkpt>
      <trkpt lat="44.22376" lon="6.13625">
        <ele>1235.92</ele>
        <time>2024-01-30T23:29:48Z</time>
      </trkpt>
      <trkpt lat="44.22354" lon="6.13635">
        <ele>1237.04</ele>
        <time>2024-01-30T23:30:03Z</time>
      </trkpt>
      <trkpt lat="44.22319" lon="6.13667">
        <ele>1238.25</ele>
        <time>2024-01-30T23:30:30Z</time>
      </trkpt>
      <trkpt lat="44.22302" lon="6.13677">
        <ele>1239.74</ele>
        <time>2024-01-30T23:30:42Z</time>
      </trkpt>
      <trkpt lat="44.22286" lon="6.13672">
        <ele>1245.33</ele>
        <time>2024-01-30T23:30:52Z</time>
      </trkpt>
      <trkpt lat="44.22258" lon="6.13635">
        <ele>1261.52</ele>
        <time>2024-01-30T23:31:14Z</time>
      </trkpt>
      <trkpt lat="44.22253" lon="6.13633">
        <ele>1263.2</ele>
        <time>2024-01-30T23:31:17Z</time>
      </trkpt>
      <trkpt lat="44.22247" lon="6.13636">
        <ele>1263.13</ele>
        <time>2024-01-30T23:31:20Z</time>
      </trkpt>
      <trkpt lat="44.22244" lon="6.13643">
        <ele>1262.51</ele>
        <time>2024-01-30T23:31:23Z</time>
      </trkpt>
      <trkpt lat="44.22244" lon="6.13653">
        <ele>1261.08</ele>
        <time>2024-01-30T23:31:26Z</time>
      </trkpt>
      <trkpt lat="44.22251" lon="6.13704">
        <ele>1249.3</ele>
        <time>2024-01-30T23:31:46Z</time>
      </trkpt>
      <trkpt lat="44.2225" lon="6.13716">
        <ele>1249.44</ele>
        <time>2024-01-30T23:31:51Z</time>
      </trkpt>
      <trkpt lat="44.22245" lon="6.13727">
        <ele>1250.03</ele>
        <time>2024-01-30T23:31:55Z</time>
      </trkpt>
      <trkpt lat="44.22239" lon="6.13735">
        <ele>1250.43</ele>
        <time>2024-01-30T23:32:00Z</time>
      </trkpt>
      <trkpt lat="44.22203" lon="6.13765">
        <ele>1256.44</ele>
        <time>2024-01-30T23:32:20Z</time>
      </trkpt>
      <trkpt lat="44.22173" lon="6.138">
        <ele>1259.1</ele>
        <time>2024-01-30T23:32:38Z</time>
      </trkpt>
      <trkpt lat="44.22117" lon="6.13851">
        <ele>1265.47</ele>
        <time>2024-01-30T23:33:00Z</time>
      </trkpt>
      <trkpt lat="44.22071" lon="6.13903">
        <ele>1271.45</ele>
        <time>2024-01-30T23:33:17Z</time>
      </trkpt>
      <trkpt lat="44.22055" lon="6.13925">
        <ele>1274.53</ele>
        <time>2024-01-30T23:33:23Z</time>
      </trkpt>
      <trkpt lat="44.21989" lon="6.14045">
        <ele>1274.13</ele>
        <time>2024-01-30T23:34:09Z</time>
      </trkpt>
      <trkpt lat="44.21983" lon="6.14051">
        <ele>1274.02</ele>
        <time>2024-01-30T23:34:13Z</time>
      </trkpt>
      <trkpt lat="44.21977" lon="6.14055">
        <ele>1273.82</ele>
        <time>2024-01-30T23:34:15Z</time>
      </trkpt>
      <trkpt lat="44.2197" lon="6.14053">
        <ele>1276.37</ele>
        <time>2024-01-30T23:34:18Z</time>
      </trkpt>
      <trkpt lat="44.21964" lon="6.14047">
        <ele>1277.74</ele>
        <time>2024-01-30T23:34:20Z</time>
      </trkpt>
      <trkpt lat="44.21953" lon="6.14016">
        <ele>1283.27</ele>
        <time>2024-01-30T23:34:28Z</time>
      </trkpt>
      <trkpt lat="44.21947" lon="6.14006">
        <ele>1285.8</ele>
        <time>2024-01-30T23:34:32Z</time>
      </trkpt>
      <trkpt lat="44.2193" lon="6.1399">
        <ele>1288.61</ele>
        <time>2024-01-30T23:34:38Z</time>
      </trkpt>
      <trkpt lat="44.21918" lon="6.13988">
        <ele>1290.15</ele>
        <time>2024-01-30T23:34:42Z</time>
      </trkpt>
      <trkpt lat="44.21901" lon="6.14">
        <ele>1290.41</ele>
        <time>2024-01-30T23:34:49Z</time>
      </trkpt>
      <trkpt lat="44.21892" lon="6.14019">
        <ele>1290.11</ele>
        <time>2024-01-30T23:34:55Z</time>
      </trkpt>
      <trkpt lat="44.21875" lon="6.14067">
        <ele>1290.34</ele>
        <time>2024-01-30T23:35:11Z</time>
      </trkpt>
      <trkpt lat="44.21832" lon="6.14177">
        <ele>1292.64</ele>
        <time>2024-01-30T23:35:49Z</time>
      </trkpt>
      <trkpt lat="44.2182" lon="6.14199">
        <ele>1293.87</ele>
        <time>2024-01-30T23:35:53Z</time>
      </trkpt>
      <trkpt lat="44.21803" lon="6.14214">
        <ele>1295.12</ele>
        <time>2024-01-30T23:35:58Z</time>
      </trkpt>
      <trkpt lat="44.21782" lon="6.1422">
        <ele>1296.84</ele>
        <time>2024-01-30T23:36:02Z</time>
      </trkpt>
      <trkpt lat="44.21763" lon="6.14219">
        <ele>1297.71</ele>
        <time>2024-01-30T23:36:07Z</time>
      </trkpt>
      <trkpt lat="44.21747" lon="6.14212">
        <ele>1300.7</ele>
        <time>2024-01-30T23:36:12Z</time>
      </trkpt>
      <trkpt lat="44.21739" lon="6.14212">
        <ele>1301.84</ele>
        <time>2024-01-30T23:36:14Z</time>
      </trkpt>
      <trkpt lat="44.21732" lon="6.14217">
        <ele>1301.81</ele>
        <time>2024-01-30T23:36:17Z</time>
      </trkpt>
      <trkpt lat="44.21674" lon="6.14332">
        <ele>1301.92</ele>
        <time>2024-01-30T23:36:54Z</time>
      </trkpt>
      <trkpt lat="44.21658" lon="6.14369">
        <ele>1299.3</ele>
        <time>2024-01-30T23:37:02Z</time>
      </trkpt>
      <trkpt lat="44.21652" lon="6.14378">
        <ele>1299.82</ele>
        <time>2024-01-30T23:37:05Z</time>
      </trkpt>
      <trkpt lat="44.21619" lon="6.14406">
        <ele>1302.69</ele>
        <time>2024-01-30T23:37:13Z</time>
      </trkpt>
      <trkpt lat="44.21598" lon="6.14428">
        <ele>1304.78</ele>
        <time>2024-01-30T23:37:18Z</time>
      </trkpt>
      <trkpt lat="44.21595" lon="6.14438">
        <ele>1305.73</ele>
        <time>2024-01-30T23:37:20Z</time>
      </trkpt>
      <trkpt lat="44.21595" lon="6.14449">
        <ele>1305.76</ele>
        <time>2024-01-30T23:37:21Z</time>
      </trkpt>
      <trkpt lat="44.21608" lon="6.14485">
        <ele>1303.98</ele>
        <time>2024-01-30T23:37:27Z</time>
      </trkpt>
      <trkpt lat="44.21613" lon="6.14512">
        <ele>1303.73</ele>
        <time>2024-01-30T23:37:31Z</time>
      </trkpt>
      <trkpt lat="44.21611" lon="6.14539">
        <ele>1303.57</ele>
        <time>2024-01-30T23:37:35Z</time>
      </trkpt>
      <trkpt lat="44.21593" lon="6.14591">
        <ele>1305.04</ele>
        <time>2024-01-30T23:37:42Z</time>
      </trkpt>
      <trkpt lat="44.2157" lon="6.14642">
        <ele>1303.89</ele>
        <time>2024-01-30T23:37:50Z</time>
      </trkpt>
      <trkpt lat="44.21532" lon="6.14704">
        <ele>1304.08</ele>
        <time>2024-01-30T23:38:02Z</time>
      </trkpt>
      <trkpt lat="44.21528" lon="6.1471">
        <ele>1304.19</ele>
        <time>2024-01-30T23:38:03Z</time>
      </trkpt>
      <trkpt lat="44.21526" lon="6.14713">
        <ele>1303.96</ele>
        <time>2024-01-30T23:38:03Z</time>
      </trkpt>
      <trkpt lat="44.21533" lon="6.14675">
        <ele>1306.7</ele>
        <time>2024-01-30T23:38:13Z</time>
      </trkpt>
      <trkpt lat="44.21542" lon="6.14652">
        <ele>1307.89</ele>
        <time>2024-01-30T23:38:20Z</time>
      </trkpt>
      <trkpt lat="44.21559" lon="6.14618">
        <ele>1309.48</ele>
        <time>2024-01-30T23:38:31Z</time>
      </trkpt>
      <trkpt lat="44.21558" lon="6.14608">
        <ele>1310.74</ele>
        <time>2024-01-30T23:38:35Z</time>
      </trkpt>
      <trkpt lat="44.21554" lon="6.14605">
        <ele>1312.21</ele>
        <time>2024-01-30T23:38:37Z</time>
      </trkpt>
      <trkpt lat="44.2155" lon="6.14607">
        <ele>1313.02</ele>
        <time>2024-01-30T23:38:39Z</time>
      </trkpt>
      <trkpt lat="44.21491" lon="6.14685">
        <ele>1309.52</ele>
        <time>2024-01-30T23:39:16Z</time>
      </trkpt>
      <trkpt lat="44.21479" lon="6.14682">
        <ele>1310.19</ele>
        <time>2024-01-30T23:39:22Z</time>
      </trkpt>
      <trkpt lat="44.2148" lon="6.14659">
        <ele>1313.89</ele>
        <time>2024-01-30T23:39:31Z</time>
      </trkpt>
      <trkpt lat="44.21468" lon="6.14638">
        <ele>1318.87</ele>
        <time>2024-01-30T23:39:41Z</time>
      </trkpt>
      <trkpt lat="44.21457" lon="6.14633">
        <ele>1320.41</ele>
        <time>2024-01-30T23:39:48Z</time>
      </trkpt>
      <trkpt lat="44.21444" lon="6.14634">
        <ele>1320.18</ele>
        <time>2024-01-30T23:39:55Z</time>
      </trkpt>
      <trkpt lat="44.21382" lon="6.14661">
        <ele>1317.6</ele>
        <time>2024-01-30T23:40:29Z</time>
      </trkpt>
      <trkpt lat="44.21305" lon="6.14662">
        <ele>1330.37</ele>
        <time>2024-01-30T23:41:07Z</time>
      </trkpt>
      <trkpt lat="44.21288" lon="6.14668">
        <ele>1333.78</ele>
        <time>2024-01-30T23:41:14Z</time>
      </trkpt>
      <trkpt lat="44.21291" lon="6.14726">
        <ele>1322.27</ele>
        <time>2024-01-30T23:41:31Z</time>
      </trkpt>
      <trkpt lat="44.21274" lon="6.1476">
        <ele>1320.92</ele>
        <time>2024-01-30T23:41:41Z</time>
      </trkpt>
      <trkpt lat="44.21252" lon="6.14773">
        <ele>1323.66</ele>
        <time>2024-01-30T23:41:48Z</time>
      </trkpt>
      <trkpt lat="44.21201" lon="6.14825">
        <ele>1319.18</ele>
        <time>2024-01-30T23:42:05Z</time>
      </trkpt>
      <trkpt lat="44.21179" lon="6.14835">
        <ele>1319.38</ele>
        <time>2024-01-30T23:42:13Z</time>
      </trkpt>
      <trkpt lat="44.21142" lon="6.14813">
        <ele>1333.33</ele>
        <time>2024-01-30T23:42:29Z</time>
      </trkpt>
      <trkpt lat="44.21125" lon="6.14853">
        <ele>1322.8</ele>
        <time>2024-01-30T23:42:46Z</time>
      </trkpt>
      <trkpt lat="44.21111" lon="6.14865">
        <ele>1323.33</ele>
        <time>2024-01-30T23:42:56Z</time>
      </trkpt>
      <trkpt lat="44.21085" lon="6.14863">
        <ele>1325.98</ele>
        <time>2024-01-30T23:43:12Z</time>
      </trkpt>
      <trkpt lat="44.20994" lon="6.14787">
        <ele>1341.56</ele>
        <time>2024-01-30T23:44:13Z</time>
      </trkpt>
      <trkpt lat="44.20962" lon="6.14805">
        <ele>1341.42</ele>
        <time>2024-01-30T23:44:27Z</time>
      </trkpt>
      <trkpt lat="44.20953" lon="6.14838">
        <ele>1335.41</ele>
        <time>2024-01-30T23:44:37Z</time>
      </trkpt>
      <trkpt lat="44.20945" lon="6.14856">
        <ele>1333.61</ele>
        <time>2024-01-30T23:44:42Z</time>
      </trkpt>
      <trkpt lat="44.20911" lon="6.14867">
        <ele>1343.26</ele>
        <time>2024-01-30T23:44:52Z</time>
      </trkpt>
      <trkpt lat="44.20907" lon="6.14873">
        <ele>1344.48</ele>
        <time>2024-01-30T23:44:53Z</time>
      </trkpt>
      <trkpt lat="44.20919" lon="6.14942">
        <ele>1331.36</ele>
        <time>2024-01-30T23:45:07Z</time>
      </trkpt>
      <trkpt lat="44.20911" lon="6.14965">
        <ele>1326.67</ele>
        <time>2024-01-30T23:45:12Z</time>
      </trkpt>
      <trkpt lat="44.20894" lon="6.14965">
        <ele>1328.42</ele>
        <time>2024-01-30T23:45:15Z</time>
      </trkpt>
      <trkpt lat="44.20862" lon="6.14948">
        <ele>1336.82</ele>
        <time>2024-01-30T23:45:23Z</time>
      </trkpt>
      <trkpt lat="44.20783" lon="6.14959">
        <ele>1330.64</ele>
        <time>2024-01-30T23:45:39Z</time>
      </trkpt>
      <trkpt lat="44.2076" lon="6.14952">
        <ele>1338.13</ele>
        <time>2024-01-30T23:45:44Z</time>
      </trkpt>
      <trkpt lat="44.20723" lon="6.15013">
        <ele>1327.44</ele>
        <time>2024-01-30T23:45:55Z</time>
      </trkpt>
      <trkpt lat="44.20704" lon="6.1506">
        <ele>1318.52</ele>
        <time>2024-01-30T23:46:03Z</time>
      </trkpt>
      <trkpt lat="44.20689" lon="6.15089">
        <ele>1307.25</ele>
        <time>2024-01-30T23:46:09Z</time>
      </trkpt>
      <trkpt lat="44.20661" lon="6.15089">
        <ele>1308.02</ele>
        <time>2024-01-30T23:46:14Z</time>
      </trkpt>
      <trkpt lat="44.20637" lon="6.15072">
        <ele>1312.58</ele>
        <time>2024-01-30T23:46:20Z</time>
      </trkpt>
      <trkpt lat="44.20614" lon="6.15024">
        <ele>1323.54</ele>
        <time>2024-01-30T23:46:29Z</time>
      </trkpt>
      <trkpt lat="44.20525" lon="6.14788">
        <ele>1340.65</ele>
        <time>2024-01-30T23:48:15Z</time>
      </trkpt>
      <trkpt lat="44.20459" lon="6.14696">
        <ele>1332.07</ele>
        <time>2024-01-30T23:49:25Z</time>
      </trkpt>
      <trkpt lat="44.20438" lon="6.1463">
        <ele>1338.51</ele>
        <time>2024-01-30T23:50:05Z</time>
      </trkpt>
      <trkpt lat="44.20357" lon="6.14498">
        <ele>1344.6</ele>
        <time>2024-01-30T23:51:47Z</time>
      </trkpt>
      <trkpt lat="44.20333" lon="6.14438">
        <ele>1355.12</ele>
        <time>2024-01-30T23:52:23Z</time>
      </trkpt>
      <trkpt lat="44.20326" lon="6.14371">
        <ele>1367.44</ele>
        <time>2024-01-30T23:52:56Z</time>
      </trkpt>
      <trkpt lat="44.20274" lon="6.14266">
        <ele>1371.67</ele>
        <time>2024-01-30T23:53:48Z</time>
      </trkpt>
      <trkpt lat="44.20278" lon="6.14248">
        <ele>1371.22</ele>
        <time>2024-01-30T23:53:54Z</time>
      </trkpt>
      <trkpt lat="44.20318" lon="6.1418">
        <ele>1376.4</ele>
        <time>2024-01-30T23:54:16Z</time>
      </trkpt>
      <trkpt lat="44.20325" lon="6.14151">
        <ele>1378.32</ele>
        <time>2024-01-30T23:54:22Z</time>
      </trkpt>
      <trkpt lat="44.20344" lon="6.13999">
        <ele>1383.14</ele>
        <time>2024-01-30T23:54:58Z</time>
      </trkpt>
      <trkpt lat="44.20334" lon="6.13902">
        <ele>1381.71</ele>
        <time>2024-01-30T23:55:22Z</time>
      </trkpt>
      <trkpt lat="44.20346" lon="6.13831">
        <ele>1387.15</ele>
        <time>2024-01-30T23:55:42Z</time>
      </trkpt>
      <trkpt lat="44.20349" lon="6.13813">
        <ele>1387.01</ele>
        <time>2024-01-30T23:55:47Z</time>
      </trkpt>
      <trkpt lat="44.20349" lon="6.13773">
        <ele>1386.57</ele>
        <time>2024-01-30T23:55:59Z</time>
      </trkpt>
      <trkpt lat="44.20363" lon="6.13715">
        <ele>1389.3</ele>
        <time>2024-01-30T23:56:18Z</time>
      </trkpt>
      <trkpt lat="44.20397" lon="6.13638">
        <ele>1396.85</ele>
        <time>2024-01-30T23:56:50Z</time>
      </trkpt>
      <trkpt lat="44.20388" lon="6.13601">
        <ele>1392.34</ele>
        <time>2024-01-30T23:57:05Z</time>
      </trkpt>
      <trkpt lat="44.20363" lon="6.13553">
        <ele>1388.43</ele>
        <time>2024-01-30T23:57:27Z</time>
      </trkpt>
      <trkpt lat="44.20356" lon="6.13526">
        <ele>1389.45</ele>
        <time>2024-01-30T23:57:38Z</time>
      </trkpt>
      <trkpt lat="44.20382" lon="6.13473">
        <ele>1393.89</ele>
        <time>2024-01-30T23:58:01Z</time>
      </trkpt>
      <trkpt lat="44.20408" lon="6.13433">
        <ele>1394.42</ele>
        <time>2024-01-30T23:58:20Z</time>
      </trkpt>
      <trkpt lat="44.20425" lon="6.13393">
        <ele>1395.3</ele>
        <time>2024-01-30T23:58:36Z</time>
      </trkpt>
      <trkpt lat="44.20435" lon="6.13325">
        <ele>1398.38</ele>
        <time>2024-01-30T23:59:01Z</time>
      </trkpt>
      <trkpt lat="44.20467" lon="6.13283">
        <ele>1401.01</ele>
        <time>2024-01-30T23:59:20Z</time>
      </trkpt>
      <trkpt lat="44.20486" lon="6.13273">
        <ele>1402.05</ele>
        <time>2024-01-30T23:59:28Z</time>
      </trkpt>
      <trkpt lat="44.20504" lon="6.13239">
        <ele>1400.96</ele>
        <time>2024-01-30T23:59:40Z</time>
      </trkpt>
      <trkpt lat="44.20519" lon="6.13196">
        <ele>1400.67</ele>
        <time>2024-01-30T23:59:53Z</time>
      </trkpt>
      <trkpt lat="44.20527" lon="6.13145">
        <ele>1400.84</ele>
        <time>2024-01-31T00:00:06Z</time>
      </trkpt>
      <trkpt lat="44.20542" lon="6.13081">
        <ele>1402.56</ele>
        <time>2024-01-31T00:00:24Z</time>
      </trkpt>
      <trkpt lat="44.20558" lon="6.12913">
        <ele>1402.74</ele>
        <time>2024-01-31T00:01:00Z</time>
      </trkpt>
      <trkpt lat="44.20573" lon="6.12847">
        <ele>1406.73</ele>
        <time>2024-01-31T00:01:12Z</time>
      </trkpt>
      <trkpt lat="44.20517" lon="6.12902">
        <ele>1398.17</ele>
        <time>2024-01-31T00:01:27Z</time>
      </trkpt>
      <trkpt lat="44.20461" lon="6.12915">
        <ele>1391.23</ele>
        <time>2024-01-31T00:01:39Z</time>
      </trkpt>
      <trkpt lat="44.20445" lon="6.12944">
        <ele>1389.45</ele>
        <time>2024-01-31T00:01:44Z</time>
      </trkpt>
      <trkpt lat="44.20437" lon="6.12946">
        <ele>1388.59</ele>
        <time>2024-01-31T00:01:46Z</time>
      </trkpt>
      <trkpt lat="44.20389" lon="6.12931">
        <ele>1384.49</ele>
        <time>2024-01-31T00:01:56Z</time>
      </trkpt>
      <trkpt lat="44.20368" lon="6.12912">
        <ele>1383.79</ele>
        <time>2024-01-31T00:02:01Z</time>
      </trkpt>
      <trkpt lat="44.20364" lon="6.12889">
        <ele>1382.8</ele>
        <time>2024-01-31T00:02:04Z</time>
      </trkpt>
      <trkpt lat="44.20368" lon="6.12844">
        <ele>1377.4</ele>
        <time>2024-01-31T00:02:10Z</time>
      </trkpt>
      <trkpt lat="44.20386" lon="6.12725">
        <ele>1364.19</ele>
        <time>2024-01-31T00:02:27Z</time>
      </trkpt>
      <trkpt lat="44.20385" lon="6.12716">
        <ele>1363.54</ele>
        <time>2024-01-31T00:02:29Z</time>
      </trkpt>
      <trkpt lat="44.20369" lon="6.12691">
        <ele>1357.2</ele>
        <time>2024-01-31T00:02:33Z</time>
      </trkpt>
      <trkpt lat="44.20358" lon="6.12658">
        <ele>1352.01</ele>
        <time>2024-01-31T00:02:39Z</time>
      </trkpt>
      <trkpt lat="44.20353" lon="6.12653">
        <ele>1349.71</ele>
        <time>2024-01-31T00:02:40Z</time>
      </trkpt>
      <trkpt lat="44.2034" lon="6.12655">
        <ele>1347.44</ele>
        <time>2024-01-31T00:02:42Z</time>
      </trkpt>
      <trkpt lat="44.20339" lon="6.12664">
        <ele>1347.7</ele>
        <time>2024-01-31T00:02:43Z</time>
      </trkpt>
      <trkpt lat="44.2033" lon="6.12674">
        <ele>1346.37</ele>
        <time>2024-01-31T00:02:46Z</time>
      </trkpt>
      <trkpt lat="44.20326" lon="6.12697">
        <ele>1344.76</ele>
        <time>2024-01-31T00:02:49Z</time>
      </trkpt>
      <trkpt lat="44.20322" lon="6.12706">
        <ele>1344.09</ele>
        <time>2024-01-31T00:02:50Z</time>
      </trkpt>
      <trkpt lat="44.20305" lon="6.12692">
        <ele>1340.42</ele>
        <time>2024-01-31T00:02:54Z</time>
      </trkpt>
      <trkpt lat="44.20303" lon="6.12646">
        <ele>1337.83</ele>
        <time>2024-01-31T00:03:00Z</time>
      </trkpt>
      <trkpt lat="44.20279" lon="6.12579">
        <ele>1327.18</ele>
        <time>2024-01-31T00:03:11Z</time>
      </trkpt>
      <trkpt lat="44.20272" lon="6.12555">
        <ele>1323.12</ele>
        <time>2024-01-31T00:03:14Z</time>
      </trkpt>
      <trkpt lat="44.20261" lon="6.12513">
        <ele>1316.94</ele>
        <time>2024-01-31T00:03:21Z</time>
      </trkpt>
      <trkpt lat="44.20251" lon="6.12423">
        <ele>1307.02</ele>
        <time>2024-01-31T00:03:33Z</time>
      </trkpt>
      <trkpt lat="44.20212" lon="6.12409">
        <ele>1303.81</ele>
        <time>2024-01-31T00:03:41Z</time>
      </trkpt>
      <trkpt lat="44.20148" lon="6.12443">
        <ele>1297.71</ele>
        <time>2024-01-31T00:03:55Z</time>
      </trkpt>
      <trkpt lat="44.20145" lon="6.12474">
        <ele>1298.62</ele>
        <time>2024-01-31T00:04:00Z</time>
      </trkpt>
      <trkpt lat="44.20137" lon="6.12501">
        <ele>1296.24</ele>
        <time>2024-01-31T00:04:04Z</time>
      </trkpt>
      <trkpt lat="44.2008" lon="6.12588">
        <ele>1286.46</ele>
        <time>2024-01-31T00:04:22Z</time>
      </trkpt>
      <trkpt lat="44.20073" lon="6.12632">
        <ele>1283.16</ele>
        <time>2024-01-31T00:04:29Z</time>
      </trkpt>
      <trkpt lat="44.2007" lon="6.12643">
        <ele>1283.69</ele>
        <time>2024-01-31T00:04:31Z</time>
      </trkpt>
      <trkpt lat="44.20032" lon="6.12694">
        <ele>1282.37</ele>
        <time>2024-01-31T00:04:42Z</time>
      </trkpt>
      <trkpt lat="44.20013" lon="6.12707">
        <ele>1277.19</ele>
        <time>2024-01-31T00:04:47Z</time>
      </trkpt>
      <trkpt lat="44.19998" lon="6.12784">
        <ele>1278.25</ele>
        <time>2024-01-31T00:04:59Z</time>
      </trkpt>
      <trkpt lat="44.20007" lon="6.12815">
        <ele>1277.66</ele>
        <time>2024-01-31T00:05:04Z</time>
      </trkpt>
      <trkpt lat="44.20011" lon="6.12834">
        <ele>1278.8</ele>
        <time>2024-01-31T00:05:07Z</time>
      </trkpt>
      <trkpt lat="44.19983" lon="6.12868">
        <ele>1275.14</ele>
        <time>2024-01-31T00:05:15Z</time>
      </trkpt>
      <trkpt lat="44.19959" lon="6.12872">
        <ele>1272.99</ele>
        <time>2024-01-31T00:05:20Z</time>
      </trkpt>
      <trkpt lat="44.19939" lon="6.12895">
        <ele>1270.21</ele>
        <time>2024-01-31T00:05:26Z</time>
      </trkpt>
      <trkpt lat="44.19927" lon="6.12958">
        <ele>1266.64</ele>
        <time>2024-01-31T00:05:35Z</time>
      </trkpt>
      <trkpt lat="44.199" lon="6.13011">
        <ele>1262.56</ele>
        <time>2024-01-31T00:05:45Z</time>
      </trkpt>
      <trkpt lat="44.19869" lon="6.13022">
        <ele>1257.52</ele>
        <time>2024-01-31T00:05:51Z</time>
      </trkpt>
      <trkpt lat="44.19829" lon="6.13019">
        <ele>1252.34</ele>
        <time>2024-01-31T00:05:59Z</time>
      </trkpt>
      <trkpt lat="44.19814" lon="6.13048">
        <ele>1248.64</ele>
        <time>2024-01-31T00:06:04Z</time>
      </trkpt>
      <trkpt lat="44.1982" lon="6.13072">
        <ele>1246.47</ele>
        <time>2024-01-31T00:06:08Z</time>
      </trkpt>
      <trkpt lat="44.19848" lon="6.13114">
        <ele>1245.45</ele>
        <time>2024-01-31T00:06:16Z</time>
      </trkpt>
      <trkpt lat="44.19849" lon="6.13174">
        <ele>1239.55</ele>
        <time>2024-01-31T00:06:25Z</time>
      </trkpt>
      <trkpt lat="44.19836" lon="6.13287">
        <ele>1230.73</ele>
        <time>2024-01-31T00:06:42Z</time>
      </trkpt>
      <trkpt lat="44.19802" lon="6.13372">
        <ele>1223.46</ele>
        <time>2024-01-31T00:06:56Z</time>
      </trkpt>
      <trkpt lat="44.19771" lon="6.13409">
        <ele>1216.59</ele>
        <time>2024-01-31T00:07:04Z</time>
      </trkpt>
      <trkpt lat="44.19768" lon="6.13421">
        <ele>1215.17</ele>
        <time>2024-01-31T00:07:06Z</time>
      </trkpt>
      <trkpt lat="44.19771" lon="6.13444">
        <ele>1214.38</ele>
        <time>2024-01-31T00:07:09Z</time>
      </trkpt>
      <trkpt lat="44.1977" lon="6.13457">
        <ele>1212.85</ele>
        <time>2024-01-31T00:07:10Z</time>
      </trkpt>
      <trkpt lat="44.19761" lon="6.13456">
        <ele>1210.26</ele>
        <time>2024-01-31T00:07:11Z</time>
      </trkpt>
      <trkpt lat="44.19741" lon="6.13394">
        <ele>1206.64</ele>
        <time>2024-01-31T00:07:17Z</time>
      </trkpt>
      <trkpt lat="44.19736" lon="6.13393">
        <ele>1205.03</ele>
        <time>2024-01-31T00:07:18Z</time>
      </trkpt>
      <trkpt lat="44.1973" lon="6.13395">
        <ele>1202.44</ele>
        <time>2024-01-31T00:07:19Z</time>
      </trkpt>
      <trkpt lat="44.19726" lon="6.13399">
        <ele>1201.12</ele>
        <time>2024-01-31T00:07:19Z</time>
      </trkpt>
      <trkpt lat="44.19718" lon="6.13424">
        <ele>1197.71</ele>
        <time>2024-01-31T00:07:22Z</time>
      </trkpt>
      <trkpt lat="44.19716" lon="6.13441">
        <ele>1196.67</ele>
        <time>2024-01-31T00:07:23Z</time>
      </trkpt>
      <trkpt lat="44.19719" lon="6.13451">
        <ele>1197.35</ele>
        <time>2024-01-31T00:07:24Z</time>
      </trkpt>
      <trkpt lat="44.19741" lon="6.135">
        <ele>1197.53</ele>
        <time>2024-01-31T00:07:30Z</time>
      </trkpt>
      <trkpt lat="44.19739" lon="6.13506">
        <ele>1195.93</ele>
        <time>2024-01-31T00:07:30Z</time>
      </trkpt>
      <trkpt lat="44.19741" lon="6.13516">
        <ele>1197.7</ele>
        <time>2024-01-31T00:07:31Z</time>
      </trkpt>
      <trkpt lat="44.19733" lon="6.13541">
        <ele>1198.96</ele>
        <time>2024-01-31T00:07:33Z</time>
      </trkpt>
      <trkpt lat="44.19716" lon="6.13578">
        <ele>1194.71</ele>
        <time>2024-01-31T00:07:36Z</time>
      </trkpt>
      <trkpt lat="44.197" lon="6.13637">
        <ele>1187.17</ele>
        <time>2024-01-31T00:07:42Z</time>
      </trkpt>
      <trkpt lat="44.1966" lon="6.13697">
        <ele>1178.36</ele>
        <time>2024-01-31T00:07:48Z</time>
      </trkpt>
      <trkpt lat="44.19634" lon="6.13747">
        <ele>1172.77</ele>
        <time>2024-01-31T00:07:53Z</time>
      </trkpt>
      <trkpt lat="44.19633" lon="6.13763">
        <ele>1170.81</ele>
        <time>2024-01-31T00:07:54Z</time>
      </trkpt>
      <trkpt lat="44.1965" lon="6.13787">
        <ele>1168.74</ele>
        <time>2024-01-31T00:07:57Z</time>
      </trkpt>
      <trkpt lat="44.19651" lon="6.13794">
        <ele>1166.28</ele>
        <time>2024-01-31T00:07:58Z</time>
      </trkpt>
      <trkpt lat="44.19649" lon="6.13798">
        <ele>1164.61</ele>
        <time>2024-01-31T00:07:58Z</time>
      </trkpt>
      <trkpt lat="44.19645" lon="6.13801">
        <ele>1164.18</ele>
        <time>2024-01-31T00:07:59Z</time>
      </trkpt>
      <trkpt lat="44.1964" lon="6.138">
        <ele>1163.7</ele>
        <time>2024-01-31T00:07:59Z</time>
      </trkpt>
      <trkpt lat="44.19631" lon="6.13792">
        <ele>1164.73</ele>
        <time>2024-01-31T00:08:00Z</time>
      </trkpt>
      <trkpt lat="44.19614" lon="6.13768">
        <ele>1164.47</ele>
        <time>2024-01-31T00:08:03Z</time>
      </trkpt>
      <trkpt lat="44.19611" lon="6.13758">
        <ele>1163.78</ele>
        <time>2024-01-31T00:08:04Z</time>
      </trkpt>
      <trkpt lat="44.19612" lon="6.13745">
        <ele>1164.93</ele>
        <time>2024-01-31T00:08:06Z</time>
      </trkpt>
      <trkpt lat="44.19634" lon="6.13693">
        <ele>1167.56</ele>
        <time>2024-01-31T00:08:11Z</time>
      </trkpt>
      <trkpt lat="44.19636" lon="6.13671">
        <ele>1164.97</ele>
        <time>2024-01-31T00:08:13Z</time>
      </trkpt>
      <trkpt lat="44.19633" lon="6.13633">
        <ele>1160.54</ele>
        <time>2024-01-31T00:08:16Z</time>
      </trkpt>
      <trkpt lat="44.19607" lon="6.13538">
        <ele>1151.32</ele>
        <time>2024-01-31T00:08:25Z</time>
      </trkpt>
      <trkpt lat="44.19602" lon="6.13525">
        <ele>1149.55</ele>
        <time>2024-01-31T00:08:27Z</time>
      </trkpt>
      <trkpt lat="44.19591" lon="6.13512">
        <ele>1147.94</ele>
        <time>2024-01-31T00:08:29Z</time>
      </trkpt>
      <trkpt lat="44.19545" lon="6.13495">
        <ele>1141.3</ele>
        <time>2024-01-31T00:08:34Z</time>
      </trkpt>
      <trkpt lat="44.19536" lon="6.13486">
        <ele>1140.16</ele>
        <time>2024-01-31T00:08:36Z</time>
      </trkpt>
      <trkpt lat="44.19534" lon="6.13452">
        <ele>1140.89</ele>
        <time>2024-01-31T00:08:38Z</time>
      </trkpt>
      <trkpt lat="44.19527" lon="6.13418">
        <ele>1140.29</ele>
        <time>2024-01-31T00:08:41Z</time>
      </trkpt>
      <trkpt lat="44.19521" lon="6.13393">
        <ele>1138.96</ele>
        <time>2024-01-31T00:08:44Z</time>
      </trkpt>
      <trkpt lat="44.19511" lon="6.13374">
        <ele>1137.95</ele>
        <time>2024-01-31T00:08:46Z</time>
      </trkpt>
      <trkpt lat="44.19466" lon="6.13339">
        <ele>1131.83</ele>
        <time>2024-01-31T00:08:51Z</time>
      </trkpt>
      <trkpt lat="44.19437" lon="6.13324">
        <ele>1127.43</ele>
        <time>2024-01-31T00:08:55Z</time>
      </trkpt>
      <trkpt lat="44.19426" lon="6.13313">
        <ele>1125.92</ele>
        <time>2024-01-31T00:08:57Z</time>
      </trkpt>
      <trkpt lat="44.19403" lon="6.13287">
        <ele>1124.27</ele>
        <time>2024-01-31T00:09:00Z</time>
      </trkpt>
      <trkpt lat="44.19394" lon="6.13283">
        <ele>1123.05</ele>
        <time>2024-01-31T00:09:01Z</time>
      </trkpt>
      <trkpt lat="44.1936" lon="6.13279">
        <ele>1117.04</ele>
        <time>2024-01-31T00:09:05Z</time>
      </trkpt>
      <trkpt lat="44.1935" lon="6.13272">
        <ele>1115.93</ele>
        <time>2024-01-31T00:09:06Z</time>
      </trkpt>
      <trkpt lat="44.19333" lon="6.1323">
        <ele>1114.74</ele>
        <time>2024-01-31T00:09:10Z</time>
      </trkpt>
      <trkpt lat="44.19291" lon="6.1318">
        <ele>1111.83</ele>
        <time>2024-01-31T00:09:17Z</time>
      </trkpt>
      <trkpt lat="44.19267" lon="6.13109">
        <ele>1109.58</ele>
        <time>2024-01-31T00:09:23Z</time>
      </trkpt>
      <trkpt lat="44.19255" lon="6.13061">
        <ele>1111.86</ele>
        <time>2024-01-31T00:09:27Z</time>
      </trkpt>
      <trkpt lat="44.19252" lon="6.13056">
        <ele>1111.2</ele>
        <time>2024-01-31T00:09:28Z</time>
      </trkpt>
      <trkpt lat="44.19246" lon="6.13057">
        <ele>1108.78</ele>
        <time>2024-01-31T00:09:29Z</time>
      </trkpt>
      <trkpt lat="44.19243" lon="6.13061">
        <ele>1108.27</ele>
        <time>2024-01-31T00:09:29Z</time>
      </trkpt>
      <trkpt lat="44.19244" lon="6.13104">
        <ele>1104.25</ele>
        <time>2024-01-31T00:09:33Z</time>
      </trkpt>
      <trkpt lat="44.19241" lon="6.13125">
        <ele>1102.11</ele>
        <time>2024-01-31T00:09:35Z</time>
      </trkpt>
      <trkpt lat="44.1922" lon="6.13173">
        <ele>1097.78</ele>
        <time>2024-01-31T00:09:40Z</time>
      </trkpt>
      <trkpt lat="44.1921" lon="6.1321">
        <ele>1095.13</ele>
        <time>2024-01-31T00:09:43Z</time>
      </trkpt>
      <trkpt lat="44.19209" lon="6.13236">
        <ele>1092.61</ele>
        <time>2024-01-31T00:09:45Z</time>
      </trkpt>
      <trkpt lat="44.19224" lon="6.13259">
        <ele>1091.69</ele>
        <time>2024-01-31T00:09:48Z</time>
      </trkpt>
      <trkpt lat="44.19251" lon="6.13283">
        <ele>1094</ele>
        <time>2024-01-31T00:09:51Z</time>
      </trkpt>
      <trkpt lat="44.19255" lon="6.13292">
        <ele>1094.05</ele>
        <time>2024-01-31T00:09:52Z</time>
      </trkpt>
      <trkpt lat="44.19255" lon="6.13373">
        <ele>1084.75</ele>
        <time>2024-01-31T00:09:59Z</time>
      </trkpt>
      <trkpt lat="44.19252" lon="6.13383">
        <ele>1084.45</ele>
        <time>2024-01-31T00:10:00Z</time>
      </trkpt>
      <trkpt lat="44.19224" lon="6.13423">
        <ele>1077.71</ele>
        <time>2024-01-31T00:10:04Z</time>
      </trkpt>
      <trkpt lat="44.19176" lon="6.13556">
        <ele>1067.28</ele>
        <time>2024-01-31T00:10:17Z</time>
      </trkpt>
      <trkpt lat="44.19159" lon="6.13638">
        <ele>1062.94</ele>
        <time>2024-01-31T00:10:24Z</time>
      </trkpt>
      <trkpt lat="44.19124" lon="6.13729">
        <ele>1055.65</ele>
        <time>2024-01-31T00:10:32Z</time>
      </trkpt>
      <trkpt lat="44.19111" lon="6.13775">
        <ele>1053.07</ele>
        <time>2024-01-31T00:10:36Z</time>
      </trkpt>
      <trkpt lat="44.19099" lon="6.13838">
        <ele>1049.48</ele>
        <time>2024-01-31T00:10:42Z</time>
      </trkpt>
      <trkpt lat="44.191" lon="6.13848">
        <ele>1048.83</ele>
        <time>2024-01-31T00:10:43Z</time>
      </trkpt>
      <trkpt lat="44.19114" lon="6.13886">
        <ele>1047.58</ele>
        <time>2024-01-31T00:10:46Z</time>
      </trkpt>
      <trkpt lat="44.19116" lon="6.13898">
        <ele>1046.17</ele>
        <time>2024-01-31T00:10:47Z</time>
      </trkpt>
      <trkpt lat="44.19116" lon="6.13968">
        <ele>1041.69</ele>
        <time>2024-01-31T00:10:53Z</time>
      </trkpt>
      <trkpt lat="44.19121" lon="6.13989">
        <ele>1040.29</ele>
        <time>2024-01-31T00:10:55Z</time>
      </trkpt>
      <trkpt lat="44.19131" lon="6.14093">
        <ele>1033.51</ele>
        <time>2024-01-31T00:11:04Z</time>
      </trkpt>
      <trkpt lat="44.19133" lon="6.14129">
        <ele>1032.25</ele>
        <time>2024-01-31T00:11:07Z</time>
      </trkpt>
      <trkpt lat="44.1913" lon="6.14176">
        <ele>1028.45</ele>
        <time>2024-01-31T00:11:10Z</time>
      </trkpt>
      <trkpt lat="44.19132" lon="6.14205">
        <ele>1026.31</ele>
        <time>2024-01-31T00:11:13Z</time>
      </trkpt>
      <trkpt lat="44.19129" lon="6.14243">
        <ele>1023.72</ele>
        <time>2024-01-31T00:11:16Z</time>
      </trkpt>
      <trkpt lat="44.19124" lon="6.14261">
        <ele>1021.64</ele>
        <time>2024-01-31T00:11:18Z</time>
      </trkpt>
      <trkpt lat="44.1912" lon="6.14266">
        <ele>1020.63</ele>
        <time>2024-01-31T00:11:18Z</time>
      </trkpt>
      <trkpt lat="44.1911" lon="6.14261">
        <ele>1019.54</ele>
        <time>2024-01-31T00:11:20Z</time>
      </trkpt>
      <trkpt lat="44.19102" lon="6.14238">
        <ele>1018.88</ele>
        <time>2024-01-31T00:11:22Z</time>
      </trkpt>
      <trkpt lat="44.19088" lon="6.14214">
        <ele>1017.26</ele>
        <time>2024-01-31T00:11:24Z</time>
      </trkpt>
      <trkpt lat="44.19044" lon="6.1417">
        <ele>1011.29</ele>
        <time>2024-01-31T00:11:31Z</time>
      </trkpt>
      <trkpt lat="44.19028" lon="6.14157">
        <ele>1009.89</ele>
        <time>2024-01-31T00:11:33Z</time>
      </trkpt>
      <trkpt lat="44.18958" lon="6.14142">
        <ele>1003.46</ele>
        <time>2024-01-31T00:11:41Z</time>
      </trkpt>
      <trkpt lat="44.18935" lon="6.14146">
        <ele>1001.37</ele>
        <time>2024-01-31T00:11:44Z</time>
      </trkpt>
      <trkpt lat="44.18912" lon="6.14159">
        <ele>1000.13</ele>
        <time>2024-01-31T00:11:47Z</time>
      </trkpt>
      <trkpt lat="44.18853" lon="6.14194">
        <ele>993.59</ele>
        <time>2024-01-31T00:11:54Z</time>
      </trkpt>
      <trkpt lat="44.1881" lon="6.14202">
        <ele>988.51</ele>
        <time>2024-01-31T00:11:59Z</time>
      </trkpt>
      <trkpt lat="44.1878" lon="6.14199">
        <ele>985.44</ele>
        <time>2024-01-31T00:12:02Z</time>
      </trkpt>
      <trkpt lat="44.18764" lon="6.14188">
        <ele>983.28</ele>
        <time>2024-01-31T00:12:04Z</time>
      </trkpt>
      <trkpt lat="44.18759" lon="6.14165">
        <ele>983.52</ele>
        <time>2024-01-31T00:12:06Z</time>
      </trkpt>
      <trkpt lat="44.18752" lon="6.14145">
        <ele>982.24</ele>
        <time>2024-01-31T00:12:08Z</time>
      </trkpt>
      <trkpt lat="44.18739" lon="6.14125">
        <ele>981.01</ele>
        <time>2024-01-31T00:12:10Z</time>
      </trkpt>
      <trkpt lat="44.18724" lon="6.14104">
        <ele>979.95</ele>
        <time>2024-01-31T00:12:13Z</time>
      </trkpt>
      <trkpt lat="44.1872" lon="6.14092">
        <ele>979.07</ele>
        <time>2024-01-31T00:12:14Z</time>
      </trkpt>
      <trkpt lat="44.18718" lon="6.14065">
        <ele>976.78</ele>
        <time>2024-01-31T00:12:16Z</time>
      </trkpt>
      <trkpt lat="44.1872" lon="6.14043">
        <ele>976.54</ele>
        <time>2024-01-31T00:12:18Z</time>
      </trkpt>
      <trkpt lat="44.18722" lon="6.13988">
        <ele>973.01</ele>
        <time>2024-01-31T00:12:23Z</time>
      </trkpt>
      <trkpt lat="44.1871" lon="6.13927">
        <ele>969.94</ele>
        <time>2024-01-31T00:12:29Z</time>
      </trkpt>
      <trkpt lat="44.18705" lon="6.1391">
        <ele>967.27</ele>
        <time>2024-01-31T00:12:30Z</time>
      </trkpt>
      <trkpt lat="44.18693" lon="6.13889">
        <ele>965.89</ele>
        <time>2024-01-31T00:12:32Z</time>
      </trkpt>
      <trkpt lat="44.18666" lon="6.13851">
        <ele>964.17</ele>
        <time>2024-01-31T00:12:37Z</time>
      </trkpt>
      <trkpt lat="44.18639" lon="6.13822">
        <ele>961.12</ele>
        <time>2024-01-31T00:12:41Z</time>
      </trkpt>
      <trkpt lat="44.18624" lon="6.13816">
        <ele>958.83</ele>
        <time>2024-01-31T00:12:43Z</time>
      </trkpt>
      <trkpt lat="44.18617" lon="6.13819">
        <ele>957.98</ele>
        <time>2024-01-31T00:12:43Z</time>
      </trkpt>
      <trkpt lat="44.18606" lon="6.13839">
        <ele>955.72</ele>
        <time>2024-01-31T00:12:45Z</time>
      </trkpt>
      <trkpt lat="44.18602" lon="6.13847">
        <ele>955.19</ele>
        <time>2024-01-31T00:12:46Z</time>
      </trkpt>
      <trkpt lat="44.18591" lon="6.1385">
        <ele>954.12</ele>
        <time>2024-01-31T00:12:47Z</time>
      </trkpt>
      <trkpt lat="44.18565" lon="6.13848">
        <ele>950.53</ele>
        <time>2024-01-31T00:12:50Z</time>
      </trkpt>
      <trkpt lat="44.18552" lon="6.13855">
        <ele>948.82</ele>
        <time>2024-01-31T00:12:52Z</time>
      </trkpt>
      <trkpt lat="44.18514" lon="6.13896">
        <ele>945.33</ele>
        <time>2024-01-31T00:12:57Z</time>
      </trkpt>
      <trkpt lat="44.18501" lon="6.13906">
        <ele>943.84</ele>
        <time>2024-01-31T00:12:59Z</time>
      </trkpt>
      <trkpt lat="44.18487" lon="6.13916">
        <ele>941.76</ele>
        <time>2024-01-31T00:13:01Z</time>
      </trkpt>
      <trkpt lat="44.18421" lon="6.13941">
        <ele>934.69</ele>
        <time>2024-01-31T00:13:09Z</time>
      </trkpt>
      <trkpt lat="44.18402" lon="6.13955">
        <ele>932.86</ele>
        <time>2024-01-31T00:13:11Z</time>
      </trkpt>
      <trkpt lat="44.18393" lon="6.13965">
        <ele>932.15</ele>
        <time>2024-01-31T00:13:13Z</time>
      </trkpt>
      <trkpt lat="44.1837" lon="6.1401">
        <ele>928.68</ele>
        <time>2024-01-31T00:13:17Z</time>
      </trkpt>
      <trkpt lat="44.18357" lon="6.14029">
        <ele>926.92</ele>
        <time>2024-01-31T00:13:20Z</time>
      </trkpt>
      <trkpt lat="44.18305" lon="6.14077">
        <ele>920.29</ele>
        <time>2024-01-31T00:13:27Z</time>
      </trkpt>
      <trkpt lat="44.18296" lon="6.1408">
        <ele>919.28</ele>
        <time>2024-01-31T00:13:28Z</time>
      </trkpt>
      <trkpt lat="44.18284" lon="6.14079">
        <ele>917.9</ele>
        <time>2024-01-31T00:13:30Z</time>
      </trkpt>
      <trkpt lat="44.18273" lon="6.14064">
        <ele>917.01</ele>
        <time>2024-01-31T00:13:32Z</time>
      </trkpt>
      <trkpt lat="44.18273" lon="6.14052">
        <ele>917.07</ele>
        <time>2024-01-31T00:13:33Z</time>
      </trkpt>
      <trkpt lat="44.18286" lon="6.13999">
        <ele>917.71</ele>
        <time>2024-01-31T00:13:38Z</time>
      </trkpt>
      <trkpt lat="44.18284" lon="6.13987">
        <ele>916.71</ele>
        <time>2024-01-31T00:13:39Z</time>
      </trkpt>
      <trkpt lat="44.18282" lon="6.1398">
        <ele>916.38</ele>
        <time>2024-01-31T00:13:39Z</time>
      </trkpt>
      <trkpt lat="44.18267" lon="6.13962">
        <ele>913.82</ele>
        <time>2024-01-31T00:13:42Z</time>
      </trkpt>
      <trkpt lat="44.18209" lon="6.13915">
        <ele>910.02</ele>
        <time>2024-01-31T00:13:51Z</time>
      </trkpt>
      <trkpt lat="44.18149" lon="6.13896">
        <ele>907.59</ele>
        <time>2024-01-31T00:13:59Z</time>
      </trkpt>
      <trkpt lat="44.18109" lon="6.13882">
        <ele>906.63</ele>
        <time>2024-01-31T00:14:04Z</time>
      </trkpt>
      <trkpt lat="44.18099" lon="6.13884">
        <ele>906.07</ele>
        <time>2024-01-31T00:14:06Z</time>
      </trkpt>
      <trkpt lat="44.18091" lon="6.1389">
        <ele>905.8</ele>
        <time>2024-01-31T00:14:07Z</time>
      </trkpt>
      <trkpt lat="44.18063" lon="6.13936">
        <ele>902.42</ele>
        <time>2024-01-31T00:14:12Z</time>
      </trkpt>
      <trkpt lat="44.18051" lon="6.13966">
        <ele>901.39</ele>
        <time>2024-01-31T00:14:16Z</time>
      </trkpt>
      <trkpt lat="44.18039" lon="6.14008">
        <ele>898.76</ele>
        <time>2024-01-31T00:14:20Z</time>
      </trkpt>
      <trkpt lat="44.18022" lon="6.14025">
        <ele>896.97</ele>
        <time>2024-01-31T00:14:22Z</time>
      </trkpt>
      <trkpt lat="44.17992" lon="6.14043">
        <ele>893.3</ele>
        <time>2024-01-31T00:14:26Z</time>
      </trkpt>
      <trkpt lat="44.17969" lon="6.14061">
        <ele>890.95</ele>
        <time>2024-01-31T00:14:30Z</time>
      </trkpt>
      <trkpt lat="44.17857" lon="6.1411">
        <ele>884.09</ele>
        <time>2024-01-31T00:14:46Z</time>
      </trkpt>
      <trkpt lat="44.17819" lon="6.14114">
        <ele>886.35</ele>
        <time>2024-01-31T00:14:52Z</time>
      </trkpt>
      <trkpt lat="44.17798" lon="6.14118">
        <ele>888.34</ele>
        <time>2024-01-31T00:14:56Z</time>
      </trkpt>
      <trkpt lat="44.17788" lon="6.14126">
        <ele>888.32</ele>
        <time>2024-01-31T00:14:57Z</time>
      </trkpt>
      <trkpt lat="44.1778" lon="6.14136">
        <ele>888.39</ele>
        <time>2024-01-31T00:14:59Z</time>
      </trkpt>
      <trkpt lat="44.17758" lon="6.14182">
        <ele>884.11</ele>
        <time>2024-01-31T00:15:06Z</time>
      </trkpt>
      <trkpt lat="44.17701" lon="6.14218">
        <ele>882.35</ele>
        <time>2024-01-31T00:15:15Z</time>
      </trkpt>
      <trkpt lat="44.17658" lon="6.14256">
        <ele>880.52</ele>
        <time>2024-01-31T00:15:22Z</time>
      </trkpt>
      <trkpt lat="44.17644" lon="6.14283">
        <ele>879.68</ele>
        <time>2024-01-31T00:15:25Z</time>
      </trkpt>
      <trkpt lat="44.17639" lon="6.14298">
        <ele>879.33</ele>
        <time>2024-01-31T00:15:26Z</time>
      </trkpt>
      <trkpt lat="44.17637" lon="6.14313">
        <ele>878.39</ele>
        <time>2024-01-31T00:15:28Z</time>
      </trkpt>
      <trkpt lat="44.17638" lon="6.14338">
        <ele>874.6</ele>
        <time>2024-01-31T00:15:30Z</time>
      </trkpt>
      <trkpt lat="44.17635" lon="6.1435">
        <ele>874.36</ele>
        <time>2024-01-31T00:15:31Z</time>
      </trkpt>
      <trkpt lat="44.17624" lon="6.14373">
        <ele>872.37</ele>
        <time>2024-01-31T00:15:34Z</time>
      </trkpt>
      <trkpt lat="44.17601" lon="6.1441">
        <ele>870.6</ele>
        <time>2024-01-31T00:15:38Z</time>
      </trkpt>
      <trkpt lat="44.17571" lon="6.14437">
        <ele>869.01</ele>
        <time>2024-01-31T00:15:43Z</time>
      </trkpt>
      <trkpt lat="44.17498" lon="6.14513">
        <ele>866.43</ele>
        <time>2024-01-31T00:15:54Z</time>
      </trkpt>
      <trkpt lat="44.17471" lon="6.14571">
        <ele>862.88</ele>
        <time>2024-01-31T00:16:00Z</time>
      </trkpt>
      <trkpt lat="44.17438" lon="6.14659">
        <ele>863.45</ele>
        <time>2024-01-31T00:16:09Z</time>
      </trkpt>
      <trkpt lat="44.17437" lon="6.14673">
        <ele>862.5</ele>
        <time>2024-01-31T00:16:10Z</time>
      </trkpt>
      <trkpt lat="44.17441" lon="6.14715">
        <ele>858.88</ele>
        <time>2024-01-31T00:16:13Z</time>
      </trkpt>
      <trkpt lat="44.17433" lon="6.14739">
        <ele>854.82</ele>
        <time>2024-01-31T00:16:15Z</time>
      </trkpt>
      <trkpt lat="44.17419" lon="6.14751">
        <ele>851.43</ele>
        <time>2024-01-31T00:16:17Z</time>
      </trkpt>
      <trkpt lat="44.17387" lon="6.14747">
        <ele>856.3</ele>
        <time>2024-01-31T00:16:21Z</time>
      </trkpt>
      <trkpt lat="44.17353" lon="6.14757">
        <ele>855.4</ele>
        <time>2024-01-31T00:16:25Z</time>
      </trkpt>
      <trkpt lat="44.17333" lon="6.14762">
        <ele>854.83</ele>
        <time>2024-01-31T00:16:27Z</time>
      </trkpt>
      <trkpt lat="44.17322" lon="6.14762">
        <ele>853.56</ele>
        <time>2024-01-31T00:16:29Z</time>
      </trkpt>
      <trkpt lat="44.17279" lon="6.14749">
        <ele>848.67</ele>
        <time>2024-01-31T00:16:34Z</time>
      </trkpt>
      <trkpt lat="44.1726" lon="6.14736">
        <ele>846.89</ele>
        <time>2024-01-31T00:16:36Z</time>
      </trkpt>
      <trkpt lat="44.17249" lon="6.14718">
        <ele>845.6</ele>
        <time>2024-01-31T00:16:38Z</time>
      </trkpt>
      <trkpt lat="44.17243" lon="6.14713">
        <ele>845.12</ele>
        <time>2024-01-31T00:16:39Z</time>
      </trkpt>
      <trkpt lat="44.17235" lon="6.1471">
        <ele>844.31</ele>
        <time>2024-01-31T00:16:40Z</time>
      </trkpt>
      <trkpt lat="44.17197" lon="6.14708">
        <ele>840.5</ele>
        <time>2024-01-31T00:16:45Z</time>
      </trkpt>
      <trkpt lat="44.17188" lon="6.14709">
        <ele>839.48</ele>
        <time>2024-01-31T00:16:46Z</time>
      </trkpt>
      <trkpt lat="44.17179" lon="6.14713">
        <ele>838.38</ele>
        <time>2024-01-31T00:16:47Z</time>
      </trkpt>
      <trkpt lat="44.17152" lon="6.14739">
        <ele>834.35</ele>
        <time>2024-01-31T00:16:51Z</time>
      </trkpt>
      <trkpt lat="44.17131" lon="6.14741">
        <ele>832.47</ele>
        <time>2024-01-31T00:16:53Z</time>
      </trkpt>
      <trkpt lat="44.17108" lon="6.14738">
        <ele>831.08</ele>
        <time>2024-01-31T00:16:56Z</time>
      </trkpt>
      <trkpt lat="44.17087" lon="6.1474">
        <ele>829.93</ele>
        <time>2024-01-31T00:16:58Z</time>
      </trkpt>
      <trkpt lat="44.17073" lon="6.14744">
        <ele>829.17</ele>
        <time>2024-01-31T00:17:00Z</time>
      </trkpt>
      <trkpt lat="44.17039" lon="6.14768">
        <ele>825.04</ele>
        <time>2024-01-31T00:17:04Z</time>
      </trkpt>
      <trkpt lat="44.17018" lon="6.14778">
        <ele>822.16</ele>
        <time>2024-01-31T00:17:07Z</time>
      </trkpt>
      <trkpt lat="44.17008" lon="6.14779">
        <ele>822.02</ele>
        <time>2024-01-31T00:17:08Z</time>
      </trkpt>
      <trkpt lat="44.1698" lon="6.14772">
        <ele>821.77</ele>
        <time>2024-01-31T00:17:11Z</time>
      </trkpt>
      <trkpt lat="44.16971" lon="6.14772">
        <ele>821.36</ele>
        <time>2024-01-31T00:17:12Z</time>
      </trkpt>
      <trkpt lat="44.16929" lon="6.14794">
        <ele>815.23</ele>
        <time>2024-01-31T00:17:17Z</time>
      </trkpt>
      <trkpt lat="44.16907" lon="6.14797">
        <ele>813.3</ele>
        <time>2024-01-31T00:17:20Z</time>
      </trkpt>
      <trkpt lat="44.16874" lon="6.14793">
        <ele>811.83</ele>
        <time>2024-01-31T00:17:23Z</time>
      </trkpt>
      <trkpt lat="44.16863" lon="6.14795">
        <ele>810.91</ele>
        <time>2024-01-31T00:17:25Z</time>
      </trkpt>
      <trkpt lat="44.16831" lon="6.14809">
        <ele>807.62</ele>
        <time>2024-01-31T00:17:28Z</time>
      </trkpt>
      <trkpt lat="44.16801" lon="6.14802">
        <ele>804.67</ele>
        <time>2024-01-31T00:17:32Z</time>
      </trkpt>
      <trkpt lat="44.16739" lon="6.14769">
        <ele>799.9</ele>
        <time>2024-01-31T00:17:40Z</time>
      </trkpt>
      <trkpt lat="44.16732" lon="6.14765">
        <ele>799.68</ele>
        <time>2024-01-31T00:17:40Z</time>
      </trkpt>
      <trkpt lat="44.16717" lon="6.14749">
        <ele>798</ele>
        <time>2024-01-31T00:17:43Z</time>
      </trkpt>
      <trkpt lat="44.16703" lon="6.14725">
        <ele>796.34</ele>
        <time>2024-01-31T00:17:45Z</time>
      </trkpt>
      <trkpt lat="44.16696" lon="6.14704">
        <ele>794.5</ele>
        <time>2024-01-31T00:17:47Z</time>
      </trkpt>
      <trkpt lat="44.16695" lon="6.14691">
        <ele>794.52</ele>
        <time>2024-01-31T00:17:48Z</time>
      </trkpt>
      <trkpt lat="44.16681" lon="6.14681">
        <ele>791.2</ele>
        <time>2024-01-31T00:17:52Z</time>
      </trkpt>
      <trkpt lat="44.16633" lon="6.14674">
        <ele>782.3</ele>
        <time>2024-01-31T00:18:03Z</time>
      </trkpt>
      <trkpt lat="44.16565" lon="6.14649">
        <ele>773.56</ele>
        <time>2024-01-31T00:18:19Z</time>
      </trkpt>
      <trkpt lat="44.16534" lon="6.14622">
        <ele>771.55</ele>
        <time>2024-01-31T00:18:28Z</time>
      </trkpt>
      <trkpt lat="44.16522" lon="6.14615">
        <ele>772.04</ele>
        <time>2024-01-31T00:18:31Z</time>
      </trkpt>
      <trkpt lat="44.16464" lon="6.14613">
        <ele>775.4</ele>
        <time>2024-01-31T00:18:46Z</time>
      </trkpt>
      <trkpt lat="44.16442" lon="6.14614">
        <ele>774.99</ele>
        <time>2024-01-31T00:18:49Z</time>
      </trkpt>
      <trkpt lat="44.16417" lon="6.14609">
        <ele>774.59</ele>
        <time>2024-01-31T00:18:52Z</time>
      </trkpt>
      <trkpt lat="44.16358" lon="6.1459">
        <ele>774.48</ele>
        <time>2024-01-31T00:19:01Z</time>
      </trkpt>
      <trkpt lat="44.16263" lon="6.14567">
        <ele>770.78</ele>
        <time>2024-01-31T00:19:14Z</time>
      </trkpt>
      <trkpt lat="44.16228" lon="6.14562">
        <ele>768.67</ele>
        <time>2024-01-31T00:19:18Z</time>
      </trkpt>
      <trkpt lat="44.16168" lon="6.14565">
        <ele>765.41</ele>
        <time>2024-01-31T00:19:26Z</time>
      </trkpt>
      <trkpt lat="44.16119" lon="6.14558">
        <ele>763.37</ele>
        <time>2024-01-31T00:19:33Z</time>
      </trkpt>
      <trkpt lat="44.15902" lon="6.14473">
        <ele>757.66</ele>
        <time>2024-01-31T00:20:07Z</time>
      </trkpt>
      <trkpt lat="44.15885" lon="6.14464">
        <ele>757.2</ele>
        <time>2024-01-31T00:20:10Z</time>
      </trkpt>
      <trkpt lat="44.15836" lon="6.14429">
        <ele>754.3</ele>
        <time>2024-01-31T00:20:19Z</time>
      </trkpt>
      <trkpt lat="44.15833" lon="6.14427">
        <ele>754.11</ele>
        <time>2024-01-31T00:20:20Z</time>
      </trkpt>
      <trkpt lat="44.15793" lon="6.14409">
        <ele>753.43</ele>
        <time>2024-01-31T00:20:27Z</time>
      </trkpt>
      <trkpt lat="44.15708" lon="6.14389">
        <ele>753.34</ele>
        <time>2024-01-31T00:20:41Z</time>
      </trkpt>
      <trkpt lat="44.15691" lon="6.14382">
        <ele>753.39</ele>
        <time>2024-01-31T00:20:44Z</time>
      </trkpt>
      <trkpt lat="44.15665" lon="6.14367">
        <ele>754.29</ele>
        <time>2024-01-31T00:20:48Z</time>
      </trkpt>
      <trkpt lat="44.15606" lon="6.1431">
        <ele>753.65</ele>
        <time>2024-01-31T00:20:59Z</time>
      </trkpt>
      <trkpt lat="44.15594" lon="6.14305">
        <ele>753.53</ele>
        <time>2024-01-31T00:21:01Z</time>
      </trkpt>
      <trkpt lat="44.15573" lon="6.14302">
        <ele>753.39</ele>
        <time>2024-01-31T00:21:04Z</time>
      </trkpt>
      <trkpt lat="44.15548" lon="6.14304">
        <ele>753.22</ele>
        <time>2024-01-31T00:21:08Z</time>
      </trkpt>
      <trkpt lat="44.15535" lon="6.14305">
        <ele>753.34</ele>
        <time>2024-01-31T00:21:10Z</time>
      </trkpt>
      <trkpt lat="44.15501" lon="6.14315">
        <ele>752.14</ele>
        <time>2024-01-31T00:21:15Z</time>
      </trkpt>
      <trkpt lat="44.15479" lon="6.14318">
        <ele>751.27</ele>
        <time>2024-01-31T00:21:18Z</time>
      </trkpt>
      <trkpt lat="44.15409" lon="6.14307">
        <ele>749.23</ele>
        <time>2024-01-31T00:21:27Z</time>
      </trkpt>
      <trkpt lat="44.15386" lon="6.14299">
        <ele>748.99</ele>
        <time>2024-01-31T00:21:31Z</time>
      </trkpt>
      <trkpt lat="44.15353" lon="6.14281">
        <ele>747.56</ele>
        <time>2024-01-31T00:21:35Z</time>
      </trkpt>
      <trkpt lat="44.15265" lon="6.14221">
        <ele>747.17</ele>
        <time>2024-01-31T00:21:49Z</time>
      </trkpt>
      <trkpt lat="44.15231" lon="6.14204">
        <ele>747.15</ele>
        <time>2024-01-31T00:21:53Z</time>
      </trkpt>
      <trkpt lat="44.15188" lon="6.14192">
        <ele>746.42</ele>
        <time>2024-01-31T00:21:59Z</time>
      </trkpt>
      <trkpt lat="44.1516" lon="6.1418">
        <ele>745.42</ele>
        <time>2024-01-31T00:22:04Z</time>
      </trkpt>
      <trkpt lat="44.1514" lon="6.14167">
        <ele>744.49</ele>
        <time>2024-01-31T00:22:07Z</time>
      </trkpt>
      <trkpt lat="44.15104" lon="6.14135">
        <ele>741.74</ele>
        <time>2024-01-31T00:22:12Z</time>
      </trkpt>
      <trkpt lat="44.15054" lon="6.14083">
        <ele>738.65</ele>
        <time>2024-01-31T00:22:21Z</time>
      </trkpt>
      <trkpt lat="44.15021" lon="6.14057">
        <ele>736.31</ele>
        <time>2024-01-31T00:22:27Z</time>
      </trkpt>
      <trkpt lat="44.14971" lon="6.14029">
        <ele>734.26</ele>
        <time>2024-01-31T00:22:35Z</time>
      </trkpt>
      <trkpt lat="44.14956" lon="6.14015">
        <ele>735.04</ele>
        <time>2024-01-31T00:22:38Z</time>
      </trkpt>
      <trkpt lat="44.14936" lon="6.13986">
        <ele>735.36</ele>
        <time>2024-01-31T00:22:42Z</time>
      </trkpt>
      <trkpt lat="44.14907" lon="6.13936">
        <ele>735.34</ele>
        <time>2024-01-31T00:22:50Z</time>
      </trkpt>
      <trkpt lat="44.14875" lon="6.13902">
        <ele>734.95</ele>
        <time>2024-01-31T00:22:56Z</time>
      </trkpt>
      <trkpt lat="44.14818" lon="6.13841">
        <ele>735.68</ele>
        <time>2024-01-31T00:23:07Z</time>
      </trkpt>
      <trkpt lat="44.14794" lon="6.13827">
        <ele>734.96</ele>
        <time>2024-01-31T00:23:11Z</time>
      </trkpt>
      <trkpt lat="44.14776" lon="6.13826">
        <ele>734.17</ele>
        <time>2024-01-31T00:23:14Z</time>
      </trkpt>
      <trkpt lat="44.14641" lon="6.13839">
        <ele>727.49</ele>
        <time>2024-01-31T00:23:32Z</time>
      </trkpt>
      <trkpt lat="44.14591" lon="6.13838">
        <ele>726.41</ele>
        <time>2024-01-31T00:23:39Z</time>
      </trkpt>
      <trkpt lat="44.1455" lon="6.13833">
        <ele>725.23</ele>
        <time>2024-01-31T00:23:44Z</time>
      </trkpt>
      <trkpt lat="44.14516" lon="6.13822">
        <ele>725.18</ele>
        <time>2024-01-31T00:23:49Z</time>
      </trkpt>
      <trkpt lat="44.14509" lon="6.13819">
        <ele>725</ele>
        <time>2024-01-31T00:23:50Z</time>
      </trkpt>
      <trkpt lat="44.1451" lon="6.13826">
        <ele>724.66</ele>
        <time>2024-01-31T00:23:50Z</time>
      </trkpt>
      <trkpt lat="44.14535" lon="6.13931">
        <ele>721.06</ele>
        <time>2024-01-31T00:24:02Z</time>
      </trkpt>
      <trkpt lat="44.14544" lon="6.13977">
        <ele>718.85</ele>
        <time>2024-01-31T00:24:07Z</time>
      </trkpt>
      <trkpt lat="44.14544" lon="6.14018">
        <ele>717.12</ele>
        <time>2024-01-31T00:24:12Z</time>
      </trkpt>
      <trkpt lat="44.14539" lon="6.14095">
        <ele>717.55</ele>
        <time>2024-01-31T00:24:21Z</time>
      </trkpt>
      <trkpt lat="44.14538" lon="6.14142">
        <ele>722.97</ele>
        <time>2024-01-31T00:24:27Z</time>
      </trkpt>
      <trkpt lat="44.14526" lon="6.14138">
        <ele>723.02</ele>
        <time>2024-01-31T00:24:29Z</time>
      </trkpt>
      <trkpt lat="44.14503" lon="6.14136">
        <ele>724.35</ele>
        <time>2024-01-31T00:24:33Z</time>
      </trkpt>
      <trkpt lat="44.14481" lon="6.14138">
        <ele>724.43</ele>
        <time>2024-01-31T00:24:37Z</time>
      </trkpt>
      <trkpt lat="44.14459" lon="6.14135">
        <ele>722.02</ele>
        <time>2024-01-31T00:24:42Z</time>
      </trkpt>
      <trkpt lat="44.14438" lon="6.14125">
        <ele>719.07</ele>
        <time>2024-01-31T00:24:46Z</time>
      </trkpt>
      <trkpt lat="44.14414" lon="6.14102">
        <ele>719.19</ele>
        <time>2024-01-31T00:24:51Z</time>
      </trkpt>
      <trkpt lat="44.14404" lon="6.14098">
        <ele>720.03</ele>
        <time>2024-01-31T00:24:53Z</time>
      </trkpt>
      <trkpt lat="44.14371" lon="6.14087">
        <ele>718.85</ele>
        <time>2024-01-31T00:24:58Z</time>
      </trkpt>
      <trkpt lat="44.14323" lon="6.14079">
        <ele>716.99</ele>
        <time>2024-01-31T00:25:06Z</time>
      </trkpt>
      <trkpt lat="44.1424" lon="6.14049">
        <ele>714.45</ele>
        <time>2024-01-31T00:25:21Z</time>
      </trkpt>
      <trkpt lat="44.14211" lon="6.14042">
        <ele>714.93</ele>
        <time>2024-01-31T00:25:26Z</time>
      </trkpt>
      <trkpt lat="44.1417" lon="6.14038">
        <ele>715.46</ele>
        <time>2024-01-31T00:25:32Z</time>
      </trkpt>
      <trkpt lat="44.14136" lon="6.1403">
        <ele>714.66</ele>
        <time>2024-01-31T00:25:38Z</time>
      </trkpt>
      <trkpt lat="44.14083" lon="6.14033">
        <ele>715.01</ele>
        <time>2024-01-31T00:25:47Z</time>
      </trkpt>
      <trkpt lat="44.13987" lon="6.14021">
        <ele>714.18</ele>
        <time>2024-01-31T00:26:02Z</time>
      </trkpt>
      <trkpt lat="44.1393" lon="6.14016">
        <ele>714.63</ele>
        <time>2024-01-31T00:26:11Z</time>
      </trkpt>
      <trkpt lat="44.13902" lon="6.14017">
        <ele>714.4</ele>
        <time>2024-01-31T00:26:15Z</time>
      </trkpt>
      <trkpt lat="44.13858" lon="6.14023">
        <ele>713.14</ele>
        <time>2024-01-31T00:26:21Z</time>
      </trkpt>
      <trkpt lat="44.13778" lon="6.14046">
        <ele>712.68</ele>
        <time>2024-01-31T00:26:34Z</time>
      </trkpt>
      <trkpt lat="44.13757" lon="6.14056">
        <ele>712.6</ele>
        <time>2024-01-31T00:26:39Z</time>
      </trkpt>
      <trkpt lat="44.13748" lon="6.14064">
        <ele>712.62</ele>
        <time>2024-01-31T00:26:41Z</time>
      </trkpt>
      <trkpt lat="44.13733" lon="6.14088">
        <ele>713.02</ele>
        <time>2024-01-31T00:26:46Z</time>
      </trkpt>
      <trkpt lat="44.13714" lon="6.14154">
        <ele>715.07</ele>
        <time>2024-01-31T00:26:59Z</time>
      </trkpt>
      <trkpt lat="44.13694" lon="6.14197">
        <ele>716.95</ele>
        <time>2024-01-31T00:27:11Z</time>
      </trkpt>
      <trkpt lat="44.13666" lon="6.14243">
        <ele>719.03</ele>
        <time>2024-01-31T00:27:26Z</time>
      </trkpt>
      <trkpt lat="44.13624" lon="6.14298">
        <ele>721.44</ele>
        <time>2024-01-31T00:27:49Z</time>
      </trkpt>
      <trkpt lat="44.13605" lon="6.14333">
        <ele>723.1</ele>
        <time>2024-01-31T00:28:03Z</time>
      </trkpt>
      <trkpt lat="44.1352" lon="6.14551">
        <ele>732</ele>
        <time>2024-01-31T00:29:15Z</time>
      </trkpt>
      <trkpt lat="44.13457" lon="6.14718">
        <ele>737.59</ele>
        <time>2024-01-31T00:30:09Z</time>
      </trkpt>
      <trkpt lat="44.13452" lon="6.14731">
        <ele>735.73</ele>
        <time>2024-01-31T00:30:13Z</time>
      </trkpt>
      <trkpt lat="44.13433" lon="6.14786">
        <ele>738.16</ele>
        <time>2024-01-31T00:30:31Z</time>
      </trkpt>
      <trkpt lat="44.13422" lon="6.14809">
        <ele>738.67</ele>
        <time>2024-01-31T00:30:39Z</time>
      </trkpt>
      <trkpt lat="44.13411" lon="6.14826">
        <ele>738.85</ele>
        <time>2024-01-31T00:30:46Z</time>
      </trkpt>
      <trkpt lat="44.13395" lon="6.14831">
        <ele>737.83</ele>
        <time>2024-01-31T00:30:53Z</time>
      </trkpt>
      <trkpt lat="44.13387" lon="6.14833">
        <ele>737.47</ele>
        <time>2024-01-31T00:30:56Z</time>
      </trkpt>
      <trkpt lat="44.13374" lon="6.14844">
        <ele>737.7</ele>
        <time>2024-01-31T00:31:03Z</time>
      </trkpt>
      <trkpt lat="44.13367" lon="6.14853">
        <ele>738.15</ele>
        <time>2024-01-31T00:31:08Z</time>
      </trkpt>
      <trkpt lat="44.13361" lon="6.14878">
        <ele>738.82</ele>
        <time>2024-01-31T00:31:16Z</time>
      </trkpt>
      <trkpt lat="44.13357" lon="6.14961">
        <ele>741.59</ele>
        <time>2024-01-31T00:31:43Z</time>
      </trkpt>
      <trkpt lat="44.13352" lon="6.15064">
        <ele>745.69</ele>
        <time>2024-01-31T00:32:11Z</time>
      </trkpt>
      <trkpt lat="44.13335" lon="6.1516">
        <ele>749.69</ele>
        <time>2024-01-31T00:32:33Z</time>
      </trkpt>
      <trkpt lat="44.13325" lon="6.15183">
        <ele>750.64</ele>
        <time>2024-01-31T00:32:39Z</time>
      </trkpt>
      <trkpt lat="44.1331" lon="6.15206">
        <ele>752.65</ele>
        <time>2024-01-31T00:32:45Z</time>
      </trkpt>
      <trkpt lat="44.13306" lon="6.15252">
        <ele>752.36</ele>
        <time>2024-01-31T00:32:56Z</time>
      </trkpt>
      <trkpt lat="44.13294" lon="6.15284">
        <ele>753.07</ele>
        <time>2024-01-31T00:33:03Z</time>
      </trkpt>
      <trkpt lat="44.13275" lon="6.1533">
        <ele>755.33</ele>
        <time>2024-01-31T00:33:16Z</time>
      </trkpt>
      <trkpt lat="44.13268" lon="6.15341">
        <ele>755.96</ele>
        <time>2024-01-31T00:33:19Z</time>
      </trkpt>
      <trkpt lat="44.13261" lon="6.15346">
        <ele>756.24</ele>
        <time>2024-01-31T00:33:21Z</time>
      </trkpt>
      <trkpt lat="44.13251" lon="6.1535">
        <ele>756.76</ele>
        <time>2024-01-31T00:33:25Z</time>
      </trkpt>
      <trkpt lat="44.13187" lon="6.15352">
        <ele>763.2</ele>
        <time>2024-01-31T00:33:46Z</time>
      </trkpt>
      <trkpt lat="44.13178" lon="6.15359">
        <ele>763.73</ele>
        <time>2024-01-31T00:33:50Z</time>
      </trkpt>
      <trkpt lat="44.13172" lon="6.15371">
        <ele>762.82</ele>
        <time>2024-01-31T00:33:54Z</time>
      </trkpt>
      <trkpt lat="44.13154" lon="6.15391">
        <ele>761.89</ele>
        <time>2024-01-31T00:34:03Z</time>
      </trkpt>
      <trkpt lat="44.13143" lon="6.15398">
        <ele>762.58</ele>
        <time>2024-01-31T00:34:08Z</time>
      </trkpt>
      <trkpt lat="44.13054" lon="6.15423">
        <ele>773.21</ele>
        <time>2024-01-31T00:34:42Z</time>
      </trkpt>
      <trkpt lat="44.13027" lon="6.15445">
        <ele>772.89</ele>
        <time>2024-01-31T00:34:53Z</time>
      </trkpt>
      <trkpt lat="44.13017" lon="6.1545">
        <ele>773.43</ele>
        <time>2024-01-31T00:34:57Z</time>
      </trkpt>
      <trkpt lat="44.13008" lon="6.15453">
        <ele>774.22</ele>
        <time>2024-01-31T00:35:00Z</time>
      </trkpt>
      <trkpt lat="44.12992" lon="6.15451">
        <ele>775.64</ele>
        <time>2024-01-31T00:35:04Z</time>
      </trkpt>
      <trkpt lat="44.12985" lon="6.15446">
        <ele>776.4</ele>
        <time>2024-01-31T00:35:07Z</time>
      </trkpt>
      <trkpt lat="44.12981" lon="6.15439">
        <ele>777.75</ele>
        <time>2024-01-31T00:35:09Z</time>
      </trkpt>
      <trkpt lat="44.12983" lon="6.15418">
        <ele>780.6</ele>
        <time>2024-01-31T00:35:14Z</time>
      </trkpt>
      <trkpt lat="44.12988" lon="6.15407">
        <ele>781.35</ele>
        <time>2024-01-31T00:35:17Z</time>
      </trkpt>
      <trkpt lat="44.13002" lon="6.1539">
        <ele>782.57</ele>
        <time>2024-01-31T00:35:22Z</time>
      </trkpt>
      <trkpt lat="44.13028" lon="6.15378">
        <ele>782.74</ele>
        <time>2024-01-31T00:35:32Z</time>
      </trkpt>
      <trkpt lat="44.1306" lon="6.15377">
        <ele>780.58</ele>
        <time>2024-01-31T00:35:43Z</time>
      </trkpt>
      <trkpt lat="44.13073" lon="6.1537">
        <ele>780.91</ele>
        <time>2024-01-31T00:35:49Z</time>
      </trkpt>
      <trkpt lat="44.13111" lon="6.153">
        <ele>786.74</ele>
        <time>2024-01-31T00:36:13Z</time>
      </trkpt>
      <trkpt lat="44.13133" lon="6.15276">
        <ele>785.66</ele>
        <time>2024-01-31T00:36:25Z</time>
      </trkpt>
      <trkpt lat="44.13137" lon="6.15257">
        <ele>786.5</ele>
        <time>2024-01-31T00:36:31Z</time>
      </trkpt>
      <trkpt lat="44.13131" lon="6.15218">
        <ele>791.11</ele>
        <time>2024-01-31T00:36:45Z</time>
      </trkpt>
      <trkpt lat="44.13131" lon="6.15189">
        <ele>793.54</ele>
        <time>2024-01-31T00:36:56Z</time>
      </trkpt>
      <trkpt lat="44.13141" lon="6.15136">
        <ele>794.84</ele>
        <time>2024-01-31T00:37:17Z</time>
      </trkpt>
      <trkpt lat="44.13147" lon="6.15117">
        <ele>795</ele>
        <time>2024-01-31T00:37:24Z</time>
      </trkpt>
      <trkpt lat="44.13145" lon="6.151">
        <ele>795.34</ele>
        <time>2024-01-31T00:37:31Z</time>
      </trkpt>
      <trkpt lat="44.13139" lon="6.15079">
        <ele>796.5</ele>
        <time>2024-01-31T00:37:40Z</time>
      </trkpt>
      <trkpt lat="44.13125" lon="6.1506">
        <ele>797.87</ele>
        <time>2024-01-31T00:37:49Z</time>
      </trkpt>
      <trkpt lat="44.13106" lon="6.15048">
        <ele>799.74</ele>
        <time>2024-01-31T00:38:00Z</time>
      </trkpt>
      <trkpt lat="44.13063" lon="6.1503">
        <ele>805.28</ele>
        <time>2024-01-31T00:38:22Z</time>
      </trkpt>
      <trkpt lat="44.1305" lon="6.15014">
        <ele>806.3</ele>
        <time>2024-01-31T00:38:31Z</time>
      </trkpt>
      <trkpt lat="44.13025" lon="6.14949">
        <ele>807.28</ele>
        <time>2024-01-31T00:38:57Z</time>
      </trkpt>
      <trkpt lat="44.13015" lon="6.14908">
        <ele>807.81</ele>
        <time>2024-01-31T00:39:12Z</time>
      </trkpt>
      <trkpt lat="44.13009" lon="6.1486">
        <ele>809.27</ele>
        <time>2024-01-31T00:39:29Z</time>
      </trkpt>
      <trkpt lat="44.12998" lon="6.14803">
        <ele>814.12</ele>
        <time>2024-01-31T00:39:48Z</time>
      </trkpt>
      <trkpt lat="44.12995" lon="6.14795">
        <ele>814.64</ele>
        <time>2024-01-31T00:39:51Z</time>
      </trkpt>
      <trkpt lat="44.12986" lon="6.14791">
        <ele>816.92</ele>
        <time>2024-01-31T00:39:55Z</time>
      </trkpt>
      <trkpt lat="44.1298" lon="6.14793">
        <ele>818.52</ele>
        <time>2024-01-31T00:39:57Z</time>
      </trkpt>
      <trkpt lat="44.12971" lon="6.1481">
        <ele>819.33</ele>
        <time>2024-01-31T00:40:04Z</time>
      </trkpt>
      <trkpt lat="44.12925" lon="6.14938">
        <ele>824.77</ele>
        <time>2024-01-31T00:40:40Z</time>
      </trkpt>
      <trkpt lat="44.12916" lon="6.1499">
        <ele>827.14</ele>
        <time>2024-01-31T00:40:52Z</time>
      </trkpt>
      <trkpt lat="44.12917" lon="6.15053">
        <ele>827.53</ele>
        <time>2024-01-31T00:41:07Z</time>
      </trkpt>
      <trkpt lat="44.12913" lon="6.15084">
        <ele>828.06</ele>
        <time>2024-01-31T00:41:15Z</time>
      </trkpt>
      <trkpt lat="44.1291" lon="6.15091">
        <ele>828.64</ele>
        <time>2024-01-31T00:41:17Z</time>
      </trkpt>
      <trkpt lat="44.12897" lon="6.15102">
        <ele>830.15</ele>
        <time>2024-01-31T00:41:22Z</time>
      </trkpt>
      <trkpt lat="44.12871" lon="6.15108">
        <ele>832.66</ele>
        <time>2024-01-31T00:41:32Z</time>
      </trkpt>
      <trkpt lat="44.12822" lon="6.15087">
        <ele>838.46</ele>
        <time>2024-01-31T00:41:52Z</time>
      </trkpt>
      <trkpt lat="44.128" lon="6.15081">
        <ele>840.91</ele>
        <time>2024-01-31T00:42:01Z</time>
      </trkpt>
      <trkpt lat="44.12789" lon="6.15081">
        <ele>841.62</ele>
        <time>2024-01-31T00:42:05Z</time>
      </trkpt>
      <trkpt lat="44.12752" lon="6.15082">
        <ele>844.11</ele>
        <time>2024-01-31T00:42:22Z</time>
      </trkpt>
      <trkpt lat="44.12701" lon="6.15097">
        <ele>845.87</ele>
        <time>2024-01-31T00:42:49Z</time>
      </trkpt>
      <trkpt lat="44.12679" lon="6.15109">
        <ele>846.98</ele>
        <time>2024-01-31T00:43:01Z</time>
      </trkpt>
      <trkpt lat="44.12593" lon="6.15136">
        <ele>853</ele>
        <time>2024-01-31T00:43:59Z</time>
      </trkpt>
      <trkpt lat="44.12571" lon="6.15115">
        <ele>855.36</ele>
        <time>2024-01-31T00:44:16Z</time>
      </trkpt>
      <trkpt lat="44.12549" lon="6.15104">
        <ele>857.98</ele>
        <time>2024-01-31T00:44:30Z</time>
      </trkpt>
      <trkpt lat="44.12533" lon="6.15108">
        <ele>859.55</ele>
        <time>2024-01-31T00:44:40Z</time>
      </trkpt>
      <trkpt lat="44.12508" lon="6.15133">
        <ele>861.19</ele>
        <time>2024-01-31T00:44:59Z</time>
      </trkpt>
      <trkpt lat="44.12487" lon="6.15135">
        <ele>863.69</ele>
        <time>2024-01-31T00:45:12Z</time>
      </trkpt>
      <trkpt lat="44.12451" lon="6.15155">
        <ele>868.04</ele>
        <time>2024-01-31T00:45:34Z</time>
      </trkpt>
      <trkpt lat="44.12443" lon="6.15169">
        <ele>868.49</ele>
        <time>2024-01-31T00:45:42Z</time>
      </trkpt>
      <trkpt lat="44.12438" lon="6.15187">
        <ele>867.89</ele>
        <time>2024-01-31T00:45:50Z</time>
      </trkpt>
      <trkpt lat="44.12422" lon="6.15217">
        <ele>868.55</ele>
        <time>2024-01-31T00:46:04Z</time>
      </trkpt>
      <trkpt lat="44.12388" lon="6.15259">
        <ele>869.24</ele>
        <time>2024-01-31T00:46:29Z</time>
      </trkpt>
      <trkpt lat="44.12343" lon="6.15296">
        <ele>870.91</ele>
        <time>2024-01-31T00:46:57Z</time>
      </trkpt>
      <trkpt lat="44.12321" lon="6.1532">
        <ele>871.13</ele>
        <time>2024-01-31T00:47:13Z</time>
      </trkpt>
      <trkpt lat="44.12312" lon="6.15322">
        <ele>871.58</ele>
        <time>2024-01-31T00:47:18Z</time>
      </trkpt>
      <trkpt lat="44.12303" lon="6.15317">
        <ele>873.25</ele>
        <time>2024-01-31T00:47:23Z</time>
      </trkpt>
      <trkpt lat="44.12286" lon="6.15293">
        <ele>879.29</ele>
        <time>2024-01-31T00:47:38Z</time>
      </trkpt>
      <trkpt lat="44.12279" lon="6.15297">
        <ele>879.63</ele>
        <time>2024-01-31T00:47:42Z</time>
      </trkpt>
      <trkpt lat="44.12274" lon="6.15324">
        <ele>876.04</ele>
        <time>2024-01-31T00:47:55Z</time>
      </trkpt>
      <trkpt lat="44.12262" lon="6.15337">
        <ele>875.65</ele>
        <time>2024-01-31T00:48:04Z</time>
      </trkpt>
      <trkpt lat="44.12235" lon="6.15332">
        <ele>880.41</ele>
        <time>2024-01-31T00:48:22Z</time>
      </trkpt>
      <trkpt lat="44.12209" lon="6.15348">
        <ele>883.23</ele>
        <time>2024-01-31T00:48:41Z</time>
      </trkpt>
      <trkpt lat="44.12207" lon="6.15362">
        <ele>882.83</ele>
        <time>2024-01-31T00:48:47Z</time>
      </trkpt>
      <trkpt lat="44.1221" lon="6.1538">
        <ele>880.08</ele>
        <time>2024-01-31T00:48:56Z</time>
      </trkpt>
      <trkpt lat="44.122" lon="6.15407">
        <ele>880.24</ele>
        <time>2024-01-31T00:49:10Z</time>
      </trkpt>
      <trkpt lat="44.12174" lon="6.15426">
        <ele>887.06</ele>
        <time>2024-01-31T00:49:28Z</time>
      </trkpt>
      <trkpt lat="44.12165" lon="6.15439">
        <ele>890.4</ele>
        <time>2024-01-31T00:49:36Z</time>
      </trkpt>
      <trkpt lat="44.12163" lon="6.15462">
        <ele>888.98</ele>
        <time>2024-01-31T00:49:44Z</time>
      </trkpt>
      <trkpt lat="44.12154" lon="6.15487">
        <ele>890.01</ele>
        <time>2024-01-31T00:49:54Z</time>
      </trkpt>
      <trkpt lat="44.12126" lon="6.15512">
        <ele>896.06</ele>
        <time>2024-01-31T00:50:07Z</time>
      </trkpt>
      <trkpt lat="44.12116" lon="6.15546">
        <ele>895.91</ele>
        <time>2024-01-31T00:50:16Z</time>
      </trkpt>
      <trkpt lat="44.12105" lon="6.1557">
        <ele>898.36</ele>
        <time>2024-01-31T00:50:23Z</time>
      </trkpt>
      <trkpt lat="44.12077" lon="6.15608">
        <ele>902.86</ele>
        <time>2024-01-31T00:50:34Z</time>
      </trkpt>
      <trkpt lat="44.12055" lon="6.15633">
        <ele>903.55</ele>
        <time>2024-01-31T00:50:42Z</time>
      </trkpt>
      <trkpt lat="44.12036" lon="6.15647">
        <ele>901.96</ele>
        <time>2024-01-31T00:50:47Z</time>
      </trkpt>
      <trkpt lat="44.12025" lon="6.15644">
        <ele>900.63</ele>
        <time>2024-01-31T00:50:50Z</time>
      </trkpt>
      <trkpt lat="44.12015" lon="6.15624">
        <ele>899.12</ele>
        <time>2024-01-31T00:50:54Z</time>
      </trkpt>
      <trkpt lat="44.11986" lon="6.15602">
        <ele>897.26</ele>
        <time>2024-01-31T00:51:02Z</time>
      </trkpt>
      <trkpt lat="44.11979" lon="6.15568">
        <ele>900.75</ele>
        <time>2024-01-31T00:51:08Z</time>
      </trkpt>
      <trkpt lat="44.11969" lon="6.15567">
        <ele>900.1</ele>
        <time>2024-01-31T00:51:11Z</time>
      </trkpt>
      <trkpt lat="44.11959" lon="6.15581">
        <ele>897.52</ele>
        <time>2024-01-31T00:51:14Z</time>
      </trkpt>
      <trkpt lat="44.11947" lon="6.15589">
        <ele>895.78</ele>
        <time>2024-01-31T00:51:18Z</time>
      </trkpt>
      <trkpt lat="44.11939" lon="6.15581">
        <ele>896.78</ele>
        <time>2024-01-31T00:51:20Z</time>
      </trkpt>
      <trkpt lat="44.11925" lon="6.15555">
        <ele>901.07</ele>
        <time>2024-01-31T00:51:27Z</time>
      </trkpt>
      <trkpt lat="44.11897" lon="6.15527">
        <ele>903.31</ele>
        <time>2024-01-31T00:51:36Z</time>
      </trkpt>
      <trkpt lat="44.11758" lon="6.15428">
        <ele>898.17</ele>
        <time>2024-01-31T00:52:30Z</time>
      </trkpt>
      <trkpt lat="44.1167" lon="6.15386">
        <ele>903.59</ele>
        <time>2024-01-31T00:53:11Z</time>
      </trkpt>
      <trkpt lat="44.11668" lon="6.15378">
        <ele>904.59</ele>
        <time>2024-01-31T00:53:13Z</time>
      </trkpt>
      <trkpt lat="44.11676" lon="6.15369">
        <ele>905.85</ele>
        <time>2024-01-31T00:53:17Z</time>
      </trkpt>
      <trkpt lat="44.11687" lon="6.15363">
        <ele>907.26</ele>
        <time>2024-01-31T00:53:21Z</time>
      </trkpt>
      <trkpt lat="44.11708" lon="6.1536">
        <ele>907.51</ele>
        <time>2024-01-31T00:53:29Z</time>
      </trkpt>
      <trkpt lat="44.11721" lon="6.15351">
        <ele>909.09</ele>
        <time>2024-01-31T00:53:34Z</time>
      </trkpt>
      <trkpt lat="44.11723" lon="6.15346">
        <ele>910.72</ele>
        <time>2024-01-31T00:53:35Z</time>
      </trkpt>
      <trkpt lat="44.11718" lon="6.15338">
        <ele>911.57</ele>
        <time>2024-01-31T00:53:38Z</time>
      </trkpt>
      <trkpt lat="44.11702" lon="6.15334">
        <ele>912.28</ele>
        <time>2024-01-31T00:53:44Z</time>
      </trkpt>
      <trkpt lat="44.11685" lon="6.15316">
        <ele>915.43</ele>
        <time>2024-01-31T00:53:53Z</time>
      </trkpt>
      <trkpt lat="44.11654" lon="6.15253">
        <ele>920.33</ele>
        <time>2024-01-31T00:54:16Z</time>
      </trkpt>
      <trkpt lat="44.11617" lon="6.15224">
        <ele>921.02</ele>
        <time>2024-01-31T00:54:34Z</time>
      </trkpt>
      <trkpt lat="44.11611" lon="6.15213">
        <ele>921.1</ele>
        <time>2024-01-31T00:54:38Z</time>
      </trkpt>
      <trkpt lat="44.11608" lon="6.15199">
        <ele>922.2</ele>
        <time>2024-01-31T00:54:42Z</time>
      </trkpt>
      <trkpt lat="44.11619" lon="6.15097">
        <ele>927.14</ele>
        <time>2024-01-31T00:55:05Z</time>
      </trkpt>
      <trkpt lat="44.11628" lon="6.15081">
        <ele>927.52</ele>
        <time>2024-01-31T00:55:08Z</time>
      </trkpt>
      <trkpt lat="44.11631" lon="6.15072">
        <ele>927.57</ele>
        <time>2024-01-31T00:55:10Z</time>
      </trkpt>
      <trkpt lat="44.11621" lon="6.15064">
        <ele>928.85</ele>
        <time>2024-01-31T00:55:13Z</time>
      </trkpt>
      <trkpt lat="44.11593" lon="6.15066">
        <ele>929.86</ele>
        <time>2024-01-31T00:55:19Z</time>
      </trkpt>
      <trkpt lat="44.11581" lon="6.15057">
        <ele>931.11</ele>
        <time>2024-01-31T00:55:22Z</time>
      </trkpt>
      <trkpt lat="44.11551" lon="6.15027">
        <ele>929.36</ele>
        <time>2024-01-31T00:55:28Z</time>
      </trkpt>
      <trkpt lat="44.11538" lon="6.15023">
        <ele>927.01</ele>
        <time>2024-01-31T00:55:30Z</time>
      </trkpt>
      <trkpt lat="44.11524" lon="6.1503">
        <ele>923.85</ele>
        <time>2024-01-31T00:55:32Z</time>
      </trkpt>
      <trkpt lat="44.11502" lon="6.15051">
        <ele>918.01</ele>
        <time>2024-01-31T00:55:36Z</time>
      </trkpt>
      <trkpt lat="44.1149" lon="6.15047">
        <ele>918.11</ele>
        <time>2024-01-31T00:55:38Z</time>
      </trkpt>
      <trkpt lat="44.11473" lon="6.15036">
        <ele>918.8</ele>
        <time>2024-01-31T00:55:40Z</time>
      </trkpt>
      <trkpt lat="44.1146" lon="6.15033">
        <ele>918.45</ele>
        <time>2024-01-31T00:55:42Z</time>
      </trkpt>
      <trkpt lat="44.11452" lon="6.15042">
        <ele>917.73</ele>
        <time>2024-01-31T00:55:43Z</time>
      </trkpt>
      <trkpt lat="44.11457" lon="6.15064">
        <ele>915.87</ele>
        <time>2024-01-31T00:55:46Z</time>
      </trkpt>
      <trkpt lat="44.1145" lon="6.15085">
        <ele>914.22</ele>
        <time>2024-01-31T00:55:50Z</time>
      </trkpt>
      <trkpt lat="44.11415" lon="6.151">
        <ele>913.58</ele>
        <time>2024-01-31T00:55:57Z</time>
      </trkpt>
      <trkpt lat="44.114" lon="6.15115">
        <ele>910.01</ele>
        <time>2024-01-31T00:56:01Z</time>
      </trkpt>
      <trkpt lat="44.1138" lon="6.15155">
        <ele>906.62</ele>
        <time>2024-01-31T00:56:08Z</time>
      </trkpt>
      <trkpt lat="44.11367" lon="6.15187">
        <ele>903.09</ele>
        <time>2024-01-31T00:56:13Z</time>
      </trkpt>
      <trkpt lat="44.11359" lon="6.15188">
        <ele>903.01</ele>
        <time>2024-01-31T00:56:15Z</time>
      </trkpt>
      <trkpt lat="44.11342" lon="6.15182">
        <ele>903.15</ele>
        <time>2024-01-31T00:56:18Z</time>
      </trkpt>
      <trkpt lat="44.11333" lon="6.15182">
        <ele>902.41</ele>
        <time>2024-01-31T00:56:20Z</time>
      </trkpt>
      <trkpt lat="44.11325" lon="6.15187">
        <ele>900.74</ele>
        <time>2024-01-31T00:56:21Z</time>
      </trkpt>
      <trkpt lat="44.11293" lon="6.15255">
        <ele>887.34</ele>
        <time>2024-01-31T00:56:33Z</time>
      </trkpt>
      <trkpt lat="44.11269" lon="6.15275">
        <ele>880.07</ele>
        <time>2024-01-31T00:56:38Z</time>
      </trkpt>
      <trkpt lat="44.11248" lon="6.15312">
        <ele>873.06</ele>
        <time>2024-01-31T00:56:45Z</time>
      </trkpt>
      <trkpt lat="44.11241" lon="6.15327">
        <ele>871.44</ele>
        <time>2024-01-31T00:56:48Z</time>
      </trkpt>
      <trkpt lat="44.11205" lon="6.15378">
        <ele>867.12</ele>
        <time>2024-01-31T00:56:58Z</time>
      </trkpt>
      <trkpt lat="44.11202" lon="6.15396">
        <ele>865.92</ele>
        <time>2024-01-31T00:57:01Z</time>
      </trkpt>
      <trkpt lat="44.11218" lon="6.15434">
        <ele>862.65</ele>
        <time>2024-01-31T00:57:08Z</time>
      </trkpt>
      <trkpt lat="44.11292" lon="6.15467">
        <ele>855.45</ele>
        <time>2024-01-31T00:57:25Z</time>
      </trkpt>
      <trkpt lat="44.11342" lon="6.1547">
        <ele>854.55</ele>
        <time>2024-01-31T00:57:36Z</time>
      </trkpt>
      <trkpt lat="44.11381" lon="6.1549">
        <ele>850.02</ele>
        <time>2024-01-31T00:57:45Z</time>
      </trkpt>
      <trkpt lat="44.11402" lon="6.15495">
        <ele>850</ele>
        <time>2024-01-31T00:57:50Z</time>
      </trkpt>
      <trkpt lat="44.11406" lon="6.15501">
        <ele>848.99</ele>
        <time>2024-01-31T00:57:51Z</time>
      </trkpt>
      <trkpt lat="44.11403" lon="6.15508">
        <ele>847.9</ele>
        <time>2024-01-31T00:57:53Z</time>
      </trkpt>
      <trkpt lat="44.1138" lon="6.15526">
        <ele>843.8</ele>
        <time>2024-01-31T00:57:58Z</time>
      </trkpt>
      <trkpt lat="44.11377" lon="6.15533">
        <ele>842.46</ele>
        <time>2024-01-31T00:57:59Z</time>
      </trkpt>
      <trkpt lat="44.1138" lon="6.15546">
        <ele>840.64</ele>
        <time>2024-01-31T00:58:01Z</time>
      </trkpt>
      <trkpt lat="44.11396" lon="6.15547">
        <ele>840.98</ele>
        <time>2024-01-31T00:58:04Z</time>
      </trkpt>
      <trkpt lat="44.11405" lon="6.15537">
        <ele>842.82</ele>
        <time>2024-01-31T00:58:07Z</time>
      </trkpt>
      <trkpt lat="44.11409" lon="6.15543">
        <ele>842.44</ele>
        <time>2024-01-31T00:58:08Z</time>
      </trkpt>
      <trkpt lat="44.11402" lon="6.15553">
        <ele>840.14</ele>
        <time>2024-01-31T00:58:09Z</time>
      </trkpt>
      <trkpt lat="44.11389" lon="6.15563">
        <ele>838.45</ele>
        <time>2024-01-31T00:58:12Z</time>
      </trkpt>
      <trkpt lat="44.11379" lon="6.15577">
        <ele>836.75</ele>
        <time>2024-01-31T00:58:14Z</time>
      </trkpt>
      <trkpt lat="44.1135" lon="6.15595">
        <ele>833.86</ele>
        <time>2024-01-31T00:58:18Z</time>
      </trkpt>
      <trkpt lat="44.11325" lon="6.15631">
        <ele>827.51</ele>
        <time>2024-01-31T00:58:24Z</time>
      </trkpt>
      <trkpt lat="44.11305" lon="6.15661">
        <ele>822.27</ele>
        <time>2024-01-31T00:58:28Z</time>
      </trkpt>
      <trkpt lat="44.11297" lon="6.15684">
        <ele>819.11</ele>
        <time>2024-01-31T00:58:31Z</time>
      </trkpt>
      <trkpt lat="44.1129" lon="6.15718">
        <ele>813.7</ele>
        <time>2024-01-31T00:58:34Z</time>
      </trkpt>
      <trkpt lat="44.11279" lon="6.15742">
        <ele>809.48</ele>
        <time>2024-01-31T00:58:37Z</time>
      </trkpt>
      <trkpt lat="44.1127" lon="6.15757">
        <ele>807.5</ele>
        <time>2024-01-31T00:58:40Z</time>
      </trkpt>
      <trkpt lat="44.11256" lon="6.15766">
        <ele>806.01</ele>
        <time>2024-01-31T00:58:42Z</time>
      </trkpt>
      <trkpt lat="44.11244" lon="6.15764">
        <ele>805.31</ele>
        <time>2024-01-31T00:58:44Z</time>
      </trkpt>
      <trkpt lat="44.11227" lon="6.1575">
        <ele>804.68</ele>
        <time>2024-01-31T00:58:47Z</time>
      </trkpt>
      <trkpt lat="44.11199" lon="6.15741">
        <ele>802.09</ele>
        <time>2024-01-31T00:58:51Z</time>
      </trkpt>
      <trkpt lat="44.11122" lon="6.15683">
        <ele>798.74</ele>
        <time>2024-01-31T00:59:05Z</time>
      </trkpt>
      <trkpt lat="44.11101" lon="6.15671">
        <ele>798.87</ele>
        <time>2024-01-31T00:59:09Z</time>
      </trkpt>
      <trkpt lat="44.11089" lon="6.1567">
        <ele>797.99</ele>
        <time>2024-01-31T00:59:11Z</time>
      </trkpt>
      <trkpt lat="44.11067" lon="6.15683">
        <ele>793.64</ele>
        <time>2024-01-31T00:59:15Z</time>
      </trkpt>
      <trkpt lat="44.11017" lon="6.15687">
        <ele>787.96</ele>
        <time>2024-01-31T00:59:23Z</time>
      </trkpt>
      <trkpt lat="44.11" lon="6.15697">
        <ele>784.67</ele>
        <time>2024-01-31T00:59:25Z</time>
      </trkpt>
      <trkpt lat="44.10984" lon="6.157">
        <ele>782.16</ele>
        <time>2024-01-31T00:59:28Z</time>
      </trkpt>
      <trkpt lat="44.10961" lon="6.15696">
        <ele>780.7</ele>
        <time>2024-01-31T00:59:32Z</time>
      </trkpt>
      <trkpt lat="44.10927" lon="6.15694">
        <ele>777.26</ele>
        <time>2024-01-31T00:59:37Z</time>
      </trkpt>
      <trkpt lat="44.10883" lon="6.15705">
        <ele>771.67</ele>
        <time>2024-01-31T00:59:44Z</time>
      </trkpt>
      <trkpt lat="44.10856" lon="6.15709">
        <ele>767.99</ele>
        <time>2024-01-31T00:59:48Z</time>
      </trkpt>
      <trkpt lat="44.10846" lon="6.15714">
        <ele>766.4</ele>
        <time>2024-01-31T00:59:50Z</time>
      </trkpt>
      <trkpt lat="44.10833" lon="6.15729">
        <ele>762</ele>
        <time>2024-01-31T00:59:52Z</time>
      </trkpt>
      <trkpt lat="44.1082" lon="6.15731">
        <ele>760.97</ele>
        <time>2024-01-31T00:59:54Z</time>
      </trkpt>
      <trkpt lat="44.10803" lon="6.15721">
        <ele>761.7</ele>
        <time>2024-01-31T00:59:57Z</time>
      </trkpt>
      <trkpt lat="44.10793" lon="6.15723">
        <ele>761.41</ele>
        <time>2024-01-31T00:59:59Z</time>
      </trkpt>
      <trkpt lat="44.10776" lon="6.15766">
        <ele>752.6</ele>
        <time>2024-01-31T01:00:04Z</time>
      </trkpt>
      <trkpt lat="44.10763" lon="6.15777">
        <ele>750.26</ele>
        <time>2024-01-31T01:00:07Z</time>
      </trkpt>
      <trkpt lat="44.10708" lon="6.15787">
        <ele>749.53</ele>
        <time>2024-01-31T01:00:15Z</time>
      </trkpt>
      <trkpt lat="44.10679" lon="6.15804">
        <ele>746.23</ele>
        <time>2024-01-31T01:00:20Z</time>
      </trkpt>
      <trkpt lat="44.10607" lon="6.15809">
        <ele>744.31</ele>
        <time>2024-01-31T01:00:31Z</time>
      </trkpt>
      <trkpt lat="44.10582" lon="6.15822">
        <ele>741.55</ele>
        <time>2024-01-31T01:00:35Z</time>
      </trkpt>
      <trkpt lat="44.10558" lon="6.15852">
        <ele>737.1</ele>
        <time>2024-01-31T01:00:40Z</time>
      </trkpt>
      <trkpt lat="44.10528" lon="6.15882">
        <ele>732.24</ele>
        <time>2024-01-31T01:00:45Z</time>
      </trkpt>
      <trkpt lat="44.10517" lon="6.15908">
        <ele>729.33</ele>
        <time>2024-01-31T01:00:48Z</time>
      </trkpt>
      <trkpt lat="44.10511" lon="6.15945">
        <ele>726.13</ele>
        <time>2024-01-31T01:00:53Z</time>
      </trkpt>
      <trkpt lat="44.10502" lon="6.15958">
        <ele>725.19</ele>
        <time>2024-01-31T01:00:54Z</time>
      </trkpt>
      <trkpt lat="44.10471" lon="6.16043">
        <ele>717.47</ele>
        <time>2024-01-31T01:01:05Z</time>
      </trkpt>
      <trkpt lat="44.10462" lon="6.16053">
        <ele>716.67</ele>
        <time>2024-01-31T01:01:07Z</time>
      </trkpt>
      <trkpt lat="44.1045" lon="6.16054">
        <ele>716.41</ele>
        <time>2024-01-31T01:01:09Z</time>
      </trkpt>
      <trkpt lat="44.10439" lon="6.16047">
        <ele>715.63</ele>
        <time>2024-01-31T01:01:11Z</time>
      </trkpt>
      <trkpt lat="44.10426" lon="6.16001">
        <ele>714.46</ele>
        <time>2024-01-31T01:01:17Z</time>
      </trkpt>
      <trkpt lat="44.10419" lon="6.15959">
        <ele>713.62</ele>
        <time>2024-01-31T01:01:23Z</time>
      </trkpt>
      <trkpt lat="44.10434" lon="6.15795">
        <ele>705.69</ele>
        <time>2024-01-31T01:01:48Z</time>
      </trkpt>
      <trkpt lat="44.10424" lon="6.15758">
        <ele>699.36</ele>
        <time>2024-01-31T01:01:57Z</time>
      </trkpt>
      <trkpt lat="44.10424" lon="6.15746">
        <ele>698.75</ele>
        <time>2024-01-31T01:02:01Z</time>
      </trkpt>
      <trkpt lat="44.10434" lon="6.15727">
        <ele>699.8</ele>
        <time>2024-01-31T01:02:07Z</time>
      </trkpt>
      <trkpt lat="44.10438" lon="6.15694">
        <ele>699.2</ele>
        <time>2024-01-31T01:02:17Z</time>
      </trkpt>
      <trkpt lat="44.10449" lon="6.15655">
        <ele>701.06</ele>
        <time>2024-01-31T01:02:31Z</time>
      </trkpt>
      <trkpt lat="44.10452" lon="6.15605">
        <ele>701.98</ele>
        <time>2024-01-31T01:02:46Z</time>
      </trkpt>
      <trkpt lat="44.10434" lon="6.15553">
        <ele>702.84</ele>
        <time>2024-01-31T01:03:03Z</time>
      </trkpt>
      <trkpt lat="44.1043" lon="6.15501">
        <ele>705.31</ele>
        <time>2024-01-31T01:03:16Z</time>
      </trkpt>
      <trkpt lat="44.10427" lon="6.15496">
        <ele>705.88</ele>
        <time>2024-01-31T01:03:18Z</time>
      </trkpt>
      <trkpt lat="44.10421" lon="6.15493">
        <ele>704.8</ele>
        <time>2024-01-31T01:03:20Z</time>
      </trkpt>
      <trkpt lat="44.1041" lon="6.15495">
        <ele>704.37</ele>
        <time>2024-01-31T01:03:24Z</time>
      </trkpt>
      <trkpt lat="44.10398" lon="6.1551">
        <ele>703.98</ele>
        <time>2024-01-31T01:03:30Z</time>
      </trkpt>
      <trkpt lat="44.1039" lon="6.1554">
        <ele>703.25</ele>
        <time>2024-01-31T01:03:38Z</time>
      </trkpt>
      <trkpt lat="44.10384" lon="6.15626">
        <ele>696.47</ele>
        <time>2024-01-31T01:03:59Z</time>
      </trkpt>
      <trkpt lat="44.10365" lon="6.1566">
        <ele>697.99</ele>
        <time>2024-01-31T01:04:08Z</time>
      </trkpt>
      <trkpt lat="44.10343" lon="6.15672">
        <ele>701.9</ele>
        <time>2024-01-31T01:04:15Z</time>
      </trkpt>
      <trkpt lat="44.10306" lon="6.1572">
        <ele>705.67</ele>
        <time>2024-01-31T01:04:27Z</time>
      </trkpt>
      <trkpt lat="44.10282" lon="6.1577">
        <ele>705.38</ele>
        <time>2024-01-31T01:04:39Z</time>
      </trkpt>
      <trkpt lat="44.10182" lon="6.1585">
        <ele>717.34</ele>
        <time>2024-01-31T01:05:11Z</time>
      </trkpt>
      <trkpt lat="44.10158" lon="6.15906">
        <ele>715.98</ele>
        <time>2024-01-31T01:05:22Z</time>
      </trkpt>
      <trkpt lat="44.10143" lon="6.15933">
        <ele>717.22</ele>
        <time>2024-01-31T01:05:28Z</time>
      </trkpt>
      <trkpt lat="44.1011" lon="6.15961">
        <ele>718.62</ele>
        <time>2024-01-31T01:05:37Z</time>
      </trkpt>
      <trkpt lat="44.10065" lon="6.15982">
        <ele>717.38</ele>
        <time>2024-01-31T01:05:47Z</time>
      </trkpt>
      <trkpt lat="44.10004" lon="6.15992">
        <ele>718.32</ele>
        <time>2024-01-31T01:06:02Z</time>
      </trkpt>
      <trkpt lat="44.09974" lon="6.16004">
        <ele>717.24</ele>
        <time>2024-01-31T01:06:10Z</time>
      </trkpt>
      <trkpt lat="44.09911" lon="6.15997">
        <ele>719.36</ele>
        <time>2024-01-31T01:06:28Z</time>
      </trkpt>
      <trkpt lat="44.09897" lon="6.16">
        <ele>718.67</ele>
        <time>2024-01-31T01:06:32Z</time>
      </trkpt>
      <trkpt lat="44.0987" lon="6.16007">
        <ele>718.87</ele>
        <time>2024-01-31T01:06:39Z</time>
      </trkpt>
      <trkpt lat="44.09816" lon="6.16038">
        <ele>714.83</ele>
        <time>2024-01-31T01:06:52Z</time>
      </trkpt>
      <trkpt lat="44.09777" lon="6.16051">
        <ele>714.82</ele>
        <time>2024-01-31T01:06:59Z</time>
      </trkpt>
      <trkpt lat="44.09729" lon="6.16086">
        <ele>713.15</ele>
        <time>2024-01-31T01:07:09Z</time>
      </trkpt>
      <trkpt lat="44.09716" lon="6.16108">
        <ele>711.85</ele>
        <time>2024-01-31T01:07:12Z</time>
      </trkpt>
      <trkpt lat="44.09694" lon="6.16157">
        <ele>710.01</ele>
        <time>2024-01-31T01:07:20Z</time>
      </trkpt>
      <trkpt lat="44.0969" lon="6.1616">
        <ele>710.25</ele>
        <time>2024-01-31T01:07:20Z</time>
      </trkpt>
      <trkpt lat="44.09602" lon="6.16228">
        <ele>713.36</ele>
        <time>2024-01-31T01:07:37Z</time>
      </trkpt>
      <trkpt lat="44.09595" lon="6.16226">
        <ele>713.31</ele>
        <time>2024-01-31T01:07:38Z</time>
      </trkpt>
      <trkpt lat="44.0959" lon="6.16229">
        <ele>713.17</ele>
        <time>2024-01-31T01:07:38Z</time>
      </trkpt>
      <trkpt lat="44.09588" lon="6.16231">
        <ele>712.89</ele>
        <time>2024-01-31T01:07:39Z</time>
      </trkpt>
      <trkpt lat="44.09587" lon="6.16231">
        <ele>712.89</ele>
        <time>2024-01-31T01:07:39Z</time>
      </trkpt>
      <trkpt lat="44.09575" lon="6.16232">
        <ele>712.62</ele>
        <time>2024-01-31T01:07:40Z</time>
      </trkpt>
      <trkpt lat="44.09569" lon="6.1623">
        <ele>712.81</ele>
        <time>2024-01-31T01:07:41Z</time>
      </trkpt>
      <trkpt lat="44.09557" lon="6.16217">
        <ele>713.07</ele>
        <time>2024-01-31T01:07:43Z</time>
      </trkpt>
      <trkpt lat="44.09546" lon="6.1624">
        <ele>711.21</ele>
        <time>2024-01-31T01:07:46Z</time>
      </trkpt>
      <trkpt lat="44.09533" lon="6.16264">
        <ele>709.22</ele>
        <time>2024-01-31T01:07:49Z</time>
      </trkpt>
      <trkpt lat="44.09524" lon="6.16281">
        <ele>707.48</ele>
        <time>2024-01-31T01:07:51Z</time>
      </trkpt>
      <trkpt lat="44.09517" lon="6.16278">
        <ele>707.37</ele>
        <time>2024-01-31T01:07:52Z</time>
      </trkpt>
      <trkpt lat="44.09513" lon="6.16281">
        <ele>707.26</ele>
        <time>2024-01-31T01:07:53Z</time>
      </trkpt>
      <trkpt lat="44.09504" lon="6.16306">
        <ele>704.09</ele>
        <time>2024-01-31T01:07:55Z</time>
      </trkpt>
      <trkpt lat="44.09496" lon="6.16326">
        <ele>701.12</ele>
        <time>2024-01-31T01:07:57Z</time>
      </trkpt>
      <trkpt lat="44.09493" lon="6.16341">
        <ele>699.08</ele>
        <time>2024-01-31T01:07:58Z</time>
      </trkpt>
      <trkpt lat="44.09498" lon="6.16385">
        <ele>692.51</ele>
        <time>2024-01-31T01:08:02Z</time>
      </trkpt>
      <trkpt lat="44.09495" lon="6.16422">
        <ele>688.27</ele>
        <time>2024-01-31T01:08:05Z</time>
      </trkpt>
      <trkpt lat="44.0946" lon="6.16437">
        <ele>684.28</ele>
        <time>2024-01-31T01:08:09Z</time>
      </trkpt>
      <trkpt lat="44.09421" lon="6.16444">
        <ele>680.63</ele>
        <time>2024-01-31T01:08:13Z</time>
      </trkpt>
      <trkpt lat="44.09396" lon="6.16455">
        <ele>676.63</ele>
        <time>2024-01-31T01:08:16Z</time>
      </trkpt>
      <trkpt lat="44.09378" lon="6.1647">
        <ele>673.26</ele>
        <time>2024-01-31T01:08:18Z</time>
      </trkpt>
      <trkpt lat="44.09356" lon="6.1649">
        <ele>667.94</ele>
        <time>2024-01-31T01:08:21Z</time>
      </trkpt>
      <trkpt lat="44.09262" lon="6.16627">
        <ele>646.36</ele>
        <time>2024-01-31T01:08:37Z</time>
      </trkpt>
      <trkpt lat="44.09117" lon="6.16836">
        <ele>632.59</ele>
        <time>2024-01-31T01:09:02Z</time>
      </trkpt>
      <trkpt lat="44.09111" lon="6.1684">
        <ele>632.4</ele>
        <time>2024-01-31T01:09:03Z</time>
      </trkpt>
      <trkpt lat="44.09078" lon="6.16841">
        <ele>630.76</ele>
        <time>2024-01-31T01:09:07Z</time>
      </trkpt>
      <trkpt lat="44.09019" lon="6.16856">
        <ele>628.3</ele>
        <time>2024-01-31T01:09:14Z</time>
      </trkpt>
      <trkpt lat="44.08937" lon="6.16888">
        <ele>622.49</ele>
        <time>2024-01-31T01:09:25Z</time>
      </trkpt>
      <trkpt lat="44.08904" lon="6.16911">
        <ele>620.8</ele>
        <time>2024-01-31T01:09:29Z</time>
      </trkpt>
      <trkpt lat="44.08827" lon="6.16945">
        <ele>616.13</ele>
        <time>2024-01-31T01:09:40Z</time>
      </trkpt>
      <trkpt lat="44.08798" lon="6.16952">
        <ele>615.27</ele>
        <time>2024-01-31T01:09:43Z</time>
      </trkpt>
      <trkpt lat="44.08761" lon="6.16973">
        <ele>613.7</ele>
        <time>2024-01-31T01:09:49Z</time>
      </trkpt>
      <trkpt lat="44.08675" lon="6.17005">
        <ele>610.16</ele>
        <time>2024-01-31T01:10:01Z</time>
      </trkpt>
      <trkpt lat="44.08651" lon="6.17022">
        <ele>609.06</ele>
        <time>2024-01-31T01:10:04Z</time>
      </trkpt>
      <trkpt lat="44.08613" lon="6.1709">
        <ele>605.42</ele>
        <time>2024-01-31T01:10:13Z</time>
      </trkpt>
      <trkpt lat="44.08555" lon="6.17149">
        <ele>602.69</ele>
        <time>2024-01-31T01:10:23Z</time>
      </trkpt>
      <trkpt lat="44.08518" lon="6.17208">
        <ele>600.37</ele>
        <time>2024-01-31T01:10:32Z</time>
      </trkpt>
      <trkpt lat="44.08498" lon="6.17235">
        <ele>599.21</ele>
        <time>2024-01-31T01:10:36Z</time>
      </trkpt>
      <trkpt lat="44.08477" lon="6.17251">
        <ele>599.08</ele>
        <time>2024-01-31T01:10:39Z</time>
      </trkpt>
      <trkpt lat="44.08366" lon="6.17332">
        <ele>599.95</ele>
        <time>2024-01-31T01:10:58Z</time>
      </trkpt>
      <trkpt lat="44.08345" lon="6.17354">
        <ele>599.66</ele>
        <time>2024-01-31T01:11:02Z</time>
      </trkpt>
      <trkpt lat="44.08338" lon="6.1736">
        <ele>599.24</ele>
        <time>2024-01-31T01:11:03Z</time>
      </trkpt>
      <trkpt lat="44.0833" lon="6.17355">
        <ele>599.85</ele>
        <time>2024-01-31T01:11:04Z</time>
      </trkpt>
      <trkpt lat="44.0831" lon="6.17396">
        <ele>597.73</ele>
        <time>2024-01-31T01:11:09Z</time>
      </trkpt>
      <trkpt lat="44.08297" lon="6.17414">
        <ele>596.65</ele>
        <time>2024-01-31T01:11:11Z</time>
      </trkpt>
      <trkpt lat="44.08282" lon="6.17433">
        <ele>595.03</ele>
        <time>2024-01-31T01:11:14Z</time>
      </trkpt>
      <trkpt lat="44.08271" lon="6.17441">
        <ele>594.18</ele>
        <time>2024-01-31T01:11:15Z</time>
      </trkpt>
      <trkpt lat="44.08241" lon="6.17454">
        <ele>592.19</ele>
        <time>2024-01-31T01:11:19Z</time>
      </trkpt>
      <trkpt lat="44.08161" lon="6.17459">
        <ele>587.44</ele>
        <time>2024-01-31T01:11:29Z</time>
      </trkpt>
      <trkpt lat="44.08123" lon="6.17459">
        <ele>585.68</ele>
        <time>2024-01-31T01:11:34Z</time>
      </trkpt>
      <trkpt lat="44.08098" lon="6.1746">
        <ele>584.67</ele>
        <time>2024-01-31T01:11:37Z</time>
      </trkpt>
      <trkpt lat="44.08088" lon="6.1746">
        <ele>584.3</ele>
        <time>2024-01-31T01:11:38Z</time>
      </trkpt>
      <trkpt lat="44.08065" lon="6.17461">
        <ele>583.94</ele>
        <time>2024-01-31T01:11:42Z</time>
      </trkpt>
      <trkpt lat="44.08028" lon="6.17466">
        <ele>583.45</ele>
        <time>2024-01-31T01:11:47Z</time>
      </trkpt>
      <trkpt lat="44.07956" lon="6.17489">
        <ele>581.44</ele>
        <time>2024-01-31T01:11:58Z</time>
      </trkpt>
      <trkpt lat="44.07936" lon="6.17496">
        <ele>581.17</ele>
        <time>2024-01-31T01:12:02Z</time>
      </trkpt>
      <trkpt lat="44.07928" lon="6.17499">
        <ele>580.94</ele>
        <time>2024-01-31T01:12:03Z</time>
      </trkpt>
      <trkpt lat="44.07839" lon="6.1753">
        <ele>577.9</ele>
        <time>2024-01-31T01:12:19Z</time>
      </trkpt>
      <trkpt lat="44.07832" lon="6.17533">
        <ele>577.26</ele>
        <time>2024-01-31T01:12:21Z</time>
      </trkpt>
      <trkpt lat="44.07794" lon="6.17544">
        <ele>574.95</ele>
        <time>2024-01-31T01:12:27Z</time>
      </trkpt>
      <trkpt lat="44.07778" lon="6.17547">
        <ele>574.46</ele>
        <time>2024-01-31T01:12:30Z</time>
      </trkpt>
      <trkpt lat="44.07763" lon="6.1755">
        <ele>573.73</ele>
        <time>2024-01-31T01:12:32Z</time>
      </trkpt>
      <trkpt lat="44.07747" lon="6.17554">
        <ele>572.88</ele>
        <time>2024-01-31T01:12:35Z</time>
      </trkpt>
      <trkpt lat="44.07741" lon="6.17555">
        <ele>572.75</ele>
        <time>2024-01-31T01:12:36Z</time>
      </trkpt>
      <trkpt lat="44.07727" lon="6.17558">
        <ele>571.85</ele>
        <time>2024-01-31T01:12:38Z</time>
      </trkpt>
      <trkpt lat="44.077" lon="6.17563">
        <ele>570.56</ele>
        <time>2024-01-31T01:12:42Z</time>
      </trkpt>
      <trkpt lat="44.07612" lon="6.17577">
        <ele>568.04</ele>
        <time>2024-01-31T01:12:53Z</time>
      </trkpt>
      <trkpt lat="44.07589" lon="6.17582">
        <ele>567.27</ele>
        <time>2024-01-31T01:12:56Z</time>
      </trkpt>
      <trkpt lat="44.07568" lon="6.17595">
        <ele>566.37</ele>
        <time>2024-01-31T01:12:59Z</time>
      </trkpt>
      <trkpt lat="44.07559" lon="6.17606">
        <ele>565.93</ele>
        <time>2024-01-31T01:13:00Z</time>
      </trkpt>
      <trkpt lat="44.07543" lon="6.17628">
        <ele>565.24</ele>
        <time>2024-01-31T01:13:03Z</time>
      </trkpt>
      <trkpt lat="44.07531" lon="6.17644">
        <ele>564.85</ele>
        <time>2024-01-31T01:13:05Z</time>
      </trkpt>
      <trkpt lat="44.0752" lon="6.17659">
        <ele>564.65</ele>
        <time>2024-01-31T01:13:07Z</time>
      </trkpt>
      <trkpt lat="44.07488" lon="6.17686">
        <ele>564.28</ele>
        <time>2024-01-31T01:13:12Z</time>
      </trkpt>
      <trkpt lat="44.07433" lon="6.17721">
        <ele>562.86</ele>
        <time>2024-01-31T01:13:19Z</time>
      </trkpt>
      <trkpt lat="44.07428" lon="6.17723">
        <ele>562.67</ele>
        <time>2024-01-31T01:13:20Z</time>
      </trkpt>
      <trkpt lat="44.07376" lon="6.17754">
        <ele>560.61</ele>
        <time>2024-01-31T01:13:28Z</time>
      </trkpt>
      <trkpt lat="44.07355" lon="6.17772">
        <ele>560.1</ele>
        <time>2024-01-31T01:13:31Z</time>
      </trkpt>
      <trkpt lat="44.07306" lon="6.17837">
        <ele>557.94</ele>
        <time>2024-01-31T01:13:41Z</time>
      </trkpt>
      <trkpt lat="44.07269" lon="6.17905">
        <ele>555.78</ele>
        <time>2024-01-31T01:13:51Z</time>
      </trkpt>
      <trkpt lat="44.07246" lon="6.17947">
        <ele>554.71</ele>
        <time>2024-01-31T01:13:57Z</time>
      </trkpt>
      <trkpt lat="44.07238" lon="6.17963">
        <ele>554.38</ele>
        <time>2024-01-31T01:13:59Z</time>
      </trkpt>
      <trkpt lat="44.07228" lon="6.17976">
        <ele>554.02</ele>
        <time>2024-01-31T01:14:01Z</time>
      </trkpt>
      <trkpt lat="44.07217" lon="6.17989">
        <ele>553.53</ele>
        <time>2024-01-31T01:14:04Z</time>
      </trkpt>
      <trkpt lat="44.07212" lon="6.17992">
        <ele>553.36</ele>
        <time>2024-01-31T01:14:05Z</time>
      </trkpt>
      <trkpt lat="44.07205" lon="6.18004">
        <ele>553.06</ele>
        <time>2024-01-31T01:14:06Z</time>
      </trkpt>
      <trkpt lat="44.07204" lon="6.18012">
        <ele>552.94</ele>
        <time>2024-01-31T01:14:07Z</time>
      </trkpt>
      <trkpt lat="44.07209" lon="6.18026">
        <ele>552.9</ele>
        <time>2024-01-31T01:14:09Z</time>
      </trkpt>
      <trkpt lat="44.07219" lon="6.18032">
        <ele>553.06</ele>
        <time>2024-01-31T01:14:11Z</time>
      </trkpt>
      <trkpt lat="44.0723" lon="6.1804">
        <ele>553.26</ele>
        <time>2024-01-31T01:14:13Z</time>
      </trkpt>
      <trkpt lat="44.07243" lon="6.18054">
        <ele>553.42</ele>
        <time>2024-01-31T01:14:16Z</time>
      </trkpt>
      <trkpt lat="44.07292" lon="6.18122">
        <ele>554</ele>
        <time>2024-01-31T01:14:29Z</time>
      </trkpt>
      <trkpt lat="44.07336" lon="6.18176">
        <ele>554.42</ele>
        <time>2024-01-31T01:14:40Z</time>
      </trkpt>
      <trkpt lat="44.07374" lon="6.18224">
        <ele>553.99</ele>
        <time>2024-01-31T01:14:51Z</time>
      </trkpt>
      <trkpt lat="44.07473" lon="6.18346">
        <ele>553.39</ele>
        <time>2024-01-31T01:15:18Z</time>
      </trkpt>
      <trkpt lat="44.07599" lon="6.18502">
        <ele>554.49</ele>
        <time>2024-01-31T01:15:50Z</time>
      </trkpt>
      <trkpt lat="44.07619" lon="6.18529">
        <ele>554.24</ele>
        <time>2024-01-31T01:15:56Z</time>
      </trkpt>
      <trkpt lat="44.07624" lon="6.18535">
        <ele>554.15</ele>
        <time>2024-01-31T01:15:57Z</time>
      </trkpt>
      <trkpt lat="44.07631" lon="6.18545">
        <ele>554.16</ele>
        <time>2024-01-31T01:15:59Z</time>
      </trkpt>
      <trkpt lat="44.07635" lon="6.18552">
        <ele>554.17</ele>
        <time>2024-01-31T01:16:00Z</time>
      </trkpt>
      <trkpt lat="44.07647" lon="6.1857">
        <ele>554.09</ele>
        <time>2024-01-31T01:16:03Z</time>
      </trkpt>
      <trkpt lat="44.07677" lon="6.18625">
        <ele>554.56</ele>
        <time>2024-01-31T01:16:12Z</time>
      </trkpt>
      <trkpt lat="44.0769" lon="6.18663">
        <ele>554.95</ele>
        <time>2024-01-31T01:16:18Z</time>
      </trkpt>
      <trkpt lat="44.07691" lon="6.18675">
        <ele>554.98</ele>
        <time>2024-01-31T01:16:20Z</time>
      </trkpt>
      <trkpt lat="44.07689" lon="6.18694">
        <ele>555.24</ele>
        <time>2024-01-31T01:16:23Z</time>
      </trkpt>
      <trkpt lat="44.07682" lon="6.18711">
        <ele>555.73</ele>
        <time>2024-01-31T01:16:26Z</time>
      </trkpt>
      <trkpt lat="44.07683" lon="6.18725">
        <ele>556.35</ele>
        <time>2024-01-31T01:16:28Z</time>
      </trkpt>
      <trkpt lat="44.07689" lon="6.18736">
        <ele>556.99</ele>
        <time>2024-01-31T01:16:30Z</time>
      </trkpt>
      <trkpt lat="44.07698" lon="6.18741">
        <ele>557.69</ele>
        <time>2024-01-31T01:16:32Z</time>
      </trkpt>
      <trkpt lat="44.07707" lon="6.1874">
        <ele>557.38</ele>
        <time>2024-01-31T01:16:35Z</time>
      </trkpt>
      <trkpt lat="44.07725" lon="6.18745">
        <ele>557.1</ele>
        <time>2024-01-31T01:16:39Z</time>
      </trkpt>
      <trkpt lat="44.07747" lon="6.18762">
        <ele>556.84</ele>
        <time>2024-01-31T01:16:45Z</time>
      </trkpt>
      <trkpt lat="44.07827" lon="6.1892">
        <ele>561.65</ele>
        <time>2024-01-31T01:17:27Z</time>
      </trkpt>
      <trkpt lat="44.07872" lon="6.19018">
        <ele>561.32</ele>
        <time>2024-01-31T01:17:57Z</time>
      </trkpt>
      <trkpt lat="44.07917" lon="6.19132">
        <ele>559.2</ele>
        <time>2024-01-31T01:18:29Z</time>
      </trkpt>
      <trkpt lat="44.07976" lon="6.19288">
        <ele>561.7</ele>
        <time>2024-01-31T01:19:05Z</time>
      </trkpt>
      <trkpt lat="44.07979" lon="6.19316">
        <ele>561.74</ele>
        <time>2024-01-31T01:19:10Z</time>
      </trkpt>
      <trkpt lat="44.07974" lon="6.19325">
        <ele>561.47</ele>
        <time>2024-01-31T01:19:11Z</time>
      </trkpt>
      <trkpt lat="44.07975" lon="6.19342">
        <ele>561.53</ele>
        <time>2024-01-31T01:19:14Z</time>
      </trkpt>
      <trkpt lat="44.07981" lon="6.19349">
        <ele>561.74</ele>
        <time>2024-01-31T01:19:16Z</time>
      </trkpt>
      <trkpt lat="44.07988" lon="6.19351">
        <ele>562.19</ele>
        <time>2024-01-31T01:19:17Z</time>
      </trkpt>
      <trkpt lat="44.0799" lon="6.1935">
        <ele>562.19</ele>
        <time>2024-01-31T01:19:17Z</time>
      </trkpt>
      <trkpt lat="44.08001" lon="6.19358">
        <ele>563.03</ele>
        <time>2024-01-31T01:19:20Z</time>
      </trkpt>
      <trkpt lat="44.08015" lon="6.1938">
        <ele>563.93</ele>
        <time>2024-01-31T01:19:24Z</time>
      </trkpt>
      <trkpt lat="44.08022" lon="6.194">
        <ele>564.6</ele>
        <time>2024-01-31T01:19:27Z</time>
      </trkpt>
      <trkpt lat="44.0806" lon="6.19486">
        <ele>567.96</ele>
        <time>2024-01-31T01:19:40Z</time>
      </trkpt>
      <trkpt lat="44.08077" lon="6.19526">
        <ele>569.18</ele>
        <time>2024-01-31T01:19:46Z</time>
      </trkpt>
      <trkpt lat="44.08102" lon="6.19586">
        <ele>571.1</ele>
        <time>2024-01-31T01:19:54Z</time>
      </trkpt>
      <trkpt lat="44.0812" lon="6.19638">
        <ele>572.35</ele>
        <time>2024-01-31T01:20:01Z</time>
      </trkpt>
      <trkpt lat="44.08138" lon="6.19701">
        <ele>573.34</ele>
        <time>2024-01-31T01:20:10Z</time>
      </trkpt>
      <trkpt lat="44.08139" lon="6.19706">
        <ele>573.33</ele>
        <time>2024-01-31T01:20:11Z</time>
      </trkpt>
      <trkpt lat="44.08149" lon="6.19741">
        <ele>573.93</ele>
        <time>2024-01-31T01:20:15Z</time>
      </trkpt>
      <trkpt lat="44.08197" lon="6.1992">
        <ele>575.39</ele>
        <time>2024-01-31T01:20:39Z</time>
      </trkpt>
      <trkpt lat="44.0824" lon="6.2006">
        <ele>576.62</ele>
        <time>2024-01-31T01:21:01Z</time>
      </trkpt>
      <trkpt lat="44.08243" lon="6.20071">
        <ele>576.79</ele>
        <time>2024-01-31T01:21:02Z</time>
      </trkpt>
      <trkpt lat="44.08246" lon="6.20081">
        <ele>576.83</ele>
        <time>2024-01-31T01:21:04Z</time>
      </trkpt>
      <trkpt lat="44.08253" lon="6.20103">
        <ele>577.15</ele>
        <time>2024-01-31T01:21:08Z</time>
      </trkpt>
      <trkpt lat="44.08255" lon="6.20109">
        <ele>577.16</ele>
        <time>2024-01-31T01:21:09Z</time>
      </trkpt>
      <trkpt lat="44.08258" lon="6.20121">
        <ele>577.31</ele>
        <time>2024-01-31T01:21:11Z</time>
      </trkpt>
      <trkpt lat="44.08269" lon="6.20159">
        <ele>577.78</ele>
        <time>2024-01-31T01:21:17Z</time>
      </trkpt>
      <trkpt lat="44.08273" lon="6.20168">
        <ele>577.81</ele>
        <time>2024-01-31T01:21:19Z</time>
      </trkpt>
      <trkpt lat="44.08276" lon="6.20179">
        <ele>577.98</ele>
        <time>2024-01-31T01:21:21Z</time>
      </trkpt>
      <trkpt lat="44.08282" lon="6.20197">
        <ele>578.29</ele>
        <time>2024-01-31T01:21:24Z</time>
      </trkpt>
      <trkpt lat="44.08285" lon="6.20204">
        <ele>578.33</ele>
        <time>2024-01-31T01:21:26Z</time>
      </trkpt>
      <trkpt lat="44.08297" lon="6.20245">
        <ele>578.85</ele>
        <time>2024-01-31T01:21:33Z</time>
      </trkpt>
      <trkpt lat="44.08309" lon="6.20282">
        <ele>579.38</ele>
        <time>2024-01-31T01:21:40Z</time>
      </trkpt>
      <trkpt lat="44.08335" lon="6.20362">
        <ele>580.43</ele>
        <time>2024-01-31T01:21:54Z</time>
      </trkpt>
      <trkpt lat="44.08337" lon="6.20368">
        <ele>580.42</ele>
        <time>2024-01-31T01:21:55Z</time>
      </trkpt>
      <trkpt lat="44.08349" lon="6.20405">
        <ele>580.8</ele>
        <time>2024-01-31T01:22:01Z</time>
      </trkpt>
      <trkpt lat="44.08354" lon="6.2042">
        <ele>580.8</ele>
        <time>2024-01-31T01:22:03Z</time>
      </trkpt>
      <trkpt lat="44.08369" lon="6.20468">
        <ele>580.4</ele>
        <time>2024-01-31T01:22:10Z</time>
      </trkpt>
      <trkpt lat="44.0837" lon="6.20472">
        <ele>580.31</ele>
        <time>2024-01-31T01:22:11Z</time>
      </trkpt>
      <trkpt lat="44.08385" lon="6.20518">
        <ele>579.75</ele>
        <time>2024-01-31T01:22:18Z</time>
      </trkpt>
      <trkpt lat="44.0839" lon="6.20534">
        <ele>579.6</ele>
        <time>2024-01-31T01:22:20Z</time>
      </trkpt>
      <trkpt lat="44.08397" lon="6.20557">
        <ele>579.35</ele>
        <time>2024-01-31T01:22:23Z</time>
      </trkpt>
      <trkpt lat="44.0841" lon="6.20597">
        <ele>578.96</ele>
        <time>2024-01-31T01:22:29Z</time>
      </trkpt>
      <trkpt lat="44.08425" lon="6.20646">
        <ele>578.87</ele>
        <time>2024-01-31T01:22:36Z</time>
      </trkpt>
      <trkpt lat="44.08432" lon="6.20667">
        <ele>578.98</ele>
        <time>2024-01-31T01:22:39Z</time>
      </trkpt>
      <trkpt lat="44.08436" lon="6.20679">
        <ele>578.95</ele>
        <time>2024-01-31T01:22:41Z</time>
      </trkpt>
      <trkpt lat="44.08439" lon="6.20688">
        <ele>579.09</ele>
        <time>2024-01-31T01:22:42Z</time>
      </trkpt>
      <trkpt lat="44.08444" lon="6.20704">
        <ele>579.29</ele>
        <time>2024-01-31T01:22:45Z</time>
      </trkpt>
      <trkpt lat="44.0845" lon="6.20726">
        <ele>579.7</ele>
        <time>2024-01-31T01:22:49Z</time>
      </trkpt>
      <trkpt lat="44.08453" lon="6.20735">
        <ele>579.91</ele>
        <time>2024-01-31T01:22:50Z</time>
      </trkpt>
      <trkpt lat="44.08456" lon="6.20743">
        <ele>579.96</ele>
        <time>2024-01-31T01:22:51Z</time>
      </trkpt>
      <trkpt lat="44.08463" lon="6.20765">
        <ele>580.47</ele>
        <time>2024-01-31T01:22:55Z</time>
      </trkpt>
      <trkpt lat="44.08465" lon="6.20771">
        <ele>580.57</ele>
        <time>2024-01-31T01:22:56Z</time>
      </trkpt>
      <trkpt lat="44.08471" lon="6.2079">
        <ele>581.23</ele>
        <time>2024-01-31T01:23:00Z</time>
      </trkpt>
      <trkpt lat="44.08481" lon="6.20823">
        <ele>582.36</ele>
        <time>2024-01-31T01:23:06Z</time>
      </trkpt>
      <trkpt lat="44.08493" lon="6.20859">
        <ele>583.01</ele>
        <time>2024-01-31T01:23:13Z</time>
      </trkpt>
      <trkpt lat="44.08506" lon="6.20887">
        <ele>583.16</ele>
        <time>2024-01-31T01:23:18Z</time>
      </trkpt>
      <trkpt lat="44.08508" lon="6.2089">
        <ele>583.16</ele>
        <time>2024-01-31T01:23:19Z</time>
      </trkpt>
      <trkpt lat="44.08517" lon="6.20907">
        <ele>583.41</ele>
        <time>2024-01-31T01:23:23Z</time>
      </trkpt>
      <trkpt lat="44.08523" lon="6.20925">
        <ele>583.8</ele>
        <time>2024-01-31T01:23:27Z</time>
      </trkpt>
      <trkpt lat="44.08526" lon="6.20941">
        <ele>583.81</ele>
        <time>2024-01-31T01:23:30Z</time>
      </trkpt>
      <trkpt lat="44.08528" lon="6.20963">
        <ele>584.02</ele>
        <time>2024-01-31T01:23:34Z</time>
      </trkpt>
      <trkpt lat="44.08536" lon="6.20993">
        <ele>584.47</ele>
        <time>2024-01-31T01:23:40Z</time>
      </trkpt>
      <trkpt lat="44.08551" lon="6.21046">
        <ele>585.13</ele>
        <time>2024-01-31T01:23:51Z</time>
      </trkpt>
      <trkpt lat="44.08572" lon="6.21115">
        <ele>586.29</ele>
        <time>2024-01-31T01:24:04Z</time>
      </trkpt>
      <trkpt lat="44.08588" lon="6.21163">
        <ele>587.32</ele>
        <time>2024-01-31T01:24:14Z</time>
      </trkpt>
      <trkpt lat="44.08593" lon="6.21182">
        <ele>587.59</ele>
        <time>2024-01-31T01:24:17Z</time>
      </trkpt>
      <trkpt lat="44.08602" lon="6.21211">
        <ele>588.06</ele>
        <time>2024-01-31T01:24:23Z</time>
      </trkpt>
      <trkpt lat="44.08612" lon="6.21243">
        <ele>588.41</ele>
        <time>2024-01-31T01:24:29Z</time>
      </trkpt>
      <trkpt lat="44.08615" lon="6.21254">
        <ele>588.35</ele>
        <time>2024-01-31T01:24:32Z</time>
      </trkpt>
      <trkpt lat="44.08619" lon="6.21264">
        <ele>588.49</ele>
        <time>2024-01-31T01:24:34Z</time>
      </trkpt>
      <trkpt lat="44.08622" lon="6.21275">
        <ele>588.69</ele>
        <time>2024-01-31T01:24:36Z</time>
      </trkpt>
      <trkpt lat="44.08632" lon="6.21306">
        <ele>589.37</ele>
        <time>2024-01-31T01:24:42Z</time>
      </trkpt>
      <trkpt lat="44.08636" lon="6.2132">
        <ele>589.79</ele>
        <time>2024-01-31T01:24:44Z</time>
      </trkpt>
      <trkpt lat="44.08644" lon="6.21346">
        <ele>590.42</ele>
        <time>2024-01-31T01:24:49Z</time>
      </trkpt>
      <trkpt lat="44.08652" lon="6.21379">
        <ele>590.92</ele>
        <time>2024-01-31T01:24:55Z</time>
      </trkpt>
      <trkpt lat="44.08653" lon="6.21382">
        <ele>590.92</ele>
        <time>2024-01-31T01:24:56Z</time>
      </trkpt>
      <trkpt lat="44.08659" lon="6.21402">
        <ele>591.38</ele>
        <time>2024-01-31T01:25:00Z</time>
      </trkpt>
      <trkpt lat="44.08666" lon="6.21417">
        <ele>591.6</ele>
        <time>2024-01-31T01:25:03Z</time>
      </trkpt>
      <trkpt lat="44.08681" lon="6.21466">
        <ele>592.26</ele>
        <time>2024-01-31T01:25:12Z</time>
      </trkpt>
      <trkpt lat="44.08685" lon="6.21479">
        <ele>592.35</ele>
        <time>2024-01-31T01:25:15Z</time>
      </trkpt>
      <trkpt lat="44.0869" lon="6.21509">
        <ele>592.18</ele>
        <time>2024-01-31T01:25:20Z</time>
      </trkpt>
      <trkpt lat="44.08691" lon="6.21525">
        <ele>592.01</ele>
        <time>2024-01-31T01:25:23Z</time>
      </trkpt>
      <trkpt lat="44.08689" lon="6.21531">
        <ele>591.75</ele>
        <time>2024-01-31T01:25:24Z</time>
      </trkpt>
      <trkpt lat="44.08689" lon="6.21538">
        <ele>591.78</ele>
        <time>2024-01-31T01:25:25Z</time>
      </trkpt>
      <trkpt lat="44.08692" lon="6.21543">
        <ele>591.59</ele>
        <time>2024-01-31T01:25:26Z</time>
      </trkpt>
      <trkpt lat="44.08697" lon="6.21546">
        <ele>591.71</ele>
        <time>2024-01-31T01:25:27Z</time>
      </trkpt>
      <trkpt lat="44.08706" lon="6.21561">
        <ele>591.51</ele>
        <time>2024-01-31T01:25:31Z</time>
      </trkpt>
      <trkpt lat="44.08703" lon="6.21563">
        <ele>591.51</ele>
        <time>2024-01-31T01:25:31Z</time>
      </trkpt>
      <trkpt lat="44.08705" lon="6.21568">
        <ele>591.38</ele>
        <time>2024-01-31T01:25:32Z</time>
      </trkpt>
      <trkpt lat="44.08722" lon="6.21616">
        <ele>591.2</ele>
        <time>2024-01-31T01:25:40Z</time>
      </trkpt>
      <trkpt lat="44.08746" lon="6.21683">
        <ele>591.59</ele>
        <time>2024-01-31T01:25:51Z</time>
      </trkpt>
      <trkpt lat="44.08756" lon="6.21752">
        <ele>591.26</ele>
        <time>2024-01-31T01:26:01Z</time>
      </trkpt>
      <trkpt lat="44.08759" lon="6.21778">
        <ele>591.29</ele>
        <time>2024-01-31T01:26:04Z</time>
      </trkpt>
      <trkpt lat="44.08763" lon="6.21799">
        <ele>591.43</ele>
        <time>2024-01-31T01:26:07Z</time>
      </trkpt>
      <trkpt lat="44.0881" lon="6.22153">
        <ele>590.86</ele>
        <time>2024-01-31T01:26:52Z</time>
      </trkpt>
      <trkpt lat="44.08826" lon="6.22274">
        <ele>589.84</ele>
        <time>2024-01-31T01:27:06Z</time>
      </trkpt>
      <trkpt lat="44.0883" lon="6.22301">
        <ele>589.34</ele>
        <time>2024-01-31T01:27:10Z</time>
      </trkpt>
      <trkpt lat="44.08843" lon="6.22411">
        <ele>588.67</ele>
        <time>2024-01-31T01:27:22Z</time>
      </trkpt>
      <trkpt lat="44.08846" lon="6.22449">
        <ele>588.84</ele>
        <time>2024-01-31T01:27:26Z</time>
      </trkpt>
      <trkpt lat="44.08852" lon="6.22484">
        <ele>589.27</ele>
        <time>2024-01-31T01:27:30Z</time>
      </trkpt>
      <trkpt lat="44.08856" lon="6.22504">
        <ele>589.65</ele>
        <time>2024-01-31T01:27:33Z</time>
      </trkpt>
      <trkpt lat="44.08862" lon="6.22522">
        <ele>590.34</ele>
        <time>2024-01-31T01:27:35Z</time>
      </trkpt>
      <trkpt lat="44.08866" lon="6.22531">
        <ele>590.66</ele>
        <time>2024-01-31T01:27:36Z</time>
      </trkpt>
      <trkpt lat="44.08867" lon="6.2254">
        <ele>590.68</ele>
        <time>2024-01-31T01:27:37Z</time>
      </trkpt>
      <trkpt lat="44.08873" lon="6.22554">
        <ele>590.89</ele>
        <time>2024-01-31T01:27:39Z</time>
      </trkpt>
      <trkpt lat="44.08879" lon="6.22558">
        <ele>591.52</ele>
        <time>2024-01-31T01:27:40Z</time>
      </trkpt>
      <trkpt lat="44.08889" lon="6.22575">
        <ele>591.96</ele>
        <time>2024-01-31T01:27:42Z</time>
      </trkpt>
      <trkpt lat="44.08891" lon="6.22579">
        <ele>592.3</ele>
        <time>2024-01-31T01:27:43Z</time>
      </trkpt>
      <trkpt lat="44.08902" lon="6.22596">
        <ele>592.81</ele>
        <time>2024-01-31T01:27:45Z</time>
      </trkpt>
      <trkpt lat="44.08927" lon="6.22662">
        <ele>594.49</ele>
        <time>2024-01-31T01:27:54Z</time>
      </trkpt>
      <trkpt lat="44.08928" lon="6.22667">
        <ele>594.4</ele>
        <time>2024-01-31T01:27:55Z</time>
      </trkpt>
      <trkpt lat="44.08936" lon="6.22696">
        <ele>594.78</ele>
        <time>2024-01-31T01:27:59Z</time>
      </trkpt>
      <trkpt lat="44.08948" lon="6.22744">
        <ele>594.61</ele>
        <time>2024-01-31T01:28:06Z</time>
      </trkpt>
      <trkpt lat="44.08945" lon="6.22747">
        <ele>593.73</ele>
        <time>2024-01-31T01:28:07Z</time>
      </trkpt>
      <trkpt lat="44.08947" lon="6.22753">
        <ele>593.84</ele>
        <time>2024-01-31T01:28:09Z</time>
      </trkpt>
      <trkpt lat="44.08946" lon="6.22765">
        <ele>592.75</ele>
        <time>2024-01-31T01:28:11Z</time>
      </trkpt>
      <trkpt lat="44.0894" lon="6.22772">
        <ele>591.71</ele>
        <time>2024-01-31T01:28:13Z</time>
      </trkpt>
      <trkpt lat="44.08938" lon="6.22775">
        <ele>591.39</ele>
        <time>2024-01-31T01:28:14Z</time>
      </trkpt>
      <trkpt lat="44.08935" lon="6.22783">
        <ele>590.69</ele>
        <time>2024-01-31T01:28:15Z</time>
      </trkpt>
      <trkpt lat="44.08934" lon="6.22786">
        <ele>590.34</ele>
        <time>2024-01-31T01:28:16Z</time>
      </trkpt>
      <trkpt lat="44.08933" lon="6.22789">
        <ele>589.6</ele>
        <time>2024-01-31T01:28:16Z</time>
      </trkpt>
      <trkpt lat="44.08938" lon="6.22796">
        <ele>589.27</ele>
        <time>2024-01-31T01:28:18Z</time>
      </trkpt>
      <trkpt lat="44.08942" lon="6.2281">
        <ele>588.66</ele>
        <time>2024-01-31T01:28:20Z</time>
      </trkpt>
      <trkpt lat="44.08943" lon="6.22817">
        <ele>588.71</ele>
        <time>2024-01-31T01:28:21Z</time>
      </trkpt>
      <trkpt lat="44.08942" lon="6.22828">
        <ele>587.88</ele>
        <time>2024-01-31T01:28:23Z</time>
      </trkpt>
      <trkpt lat="44.0893" lon="6.22957">
        <ele>590.53</ele>
        <time>2024-01-31T01:28:43Z</time>
      </trkpt>
      <trkpt lat="44.08929" lon="6.22963">
        <ele>590.63</ele>
        <time>2024-01-31T01:28:44Z</time>
      </trkpt>
      <trkpt lat="44.08921" lon="6.22973">
        <ele>590.9</ele>
        <time>2024-01-31T01:28:47Z</time>
      </trkpt>
      <trkpt lat="44.08915" lon="6.22974">
        <ele>590.89</ele>
        <time>2024-01-31T01:28:48Z</time>
      </trkpt>
      <trkpt lat="44.08907" lon="6.22972">
        <ele>590.84</ele>
        <time>2024-01-31T01:28:50Z</time>
      </trkpt>
      <trkpt lat="44.08902" lon="6.22963">
        <ele>590.7</ele>
        <time>2024-01-31T01:28:52Z</time>
      </trkpt>
      <trkpt lat="44.089" lon="6.22953">
        <ele>590.48</ele>
        <time>2024-01-31T01:28:53Z</time>
      </trkpt>
      <trkpt lat="44.08902" lon="6.22942">
        <ele>590.09</ele>
        <time>2024-01-31T01:28:55Z</time>
      </trkpt>
      <trkpt lat="44.08907" lon="6.22932">
        <ele>589.65</ele>
        <time>2024-01-31T01:28:57Z</time>
      </trkpt>
      <trkpt lat="44.08915" lon="6.22928">
        <ele>589.28</ele>
        <time>2024-01-31T01:28:59Z</time>
      </trkpt>
      <trkpt lat="44.08923" lon="6.2293">
        <ele>589.51</ele>
        <time>2024-01-31T01:29:01Z</time>
      </trkpt>
      <trkpt lat="44.08928" lon="6.22934">
        <ele>589.75</ele>
        <time>2024-01-31T01:29:02Z</time>
      </trkpt>
      <trkpt lat="44.08942" lon="6.22946">
        <ele>589.97</ele>
        <time>2024-01-31T01:29:05Z</time>
      </trkpt>
      <trkpt lat="44.08964" lon="6.22964">
        <ele>589.98</ele>
        <time>2024-01-31T01:29:10Z</time>
      </trkpt>
      <trkpt lat="44.09016" lon="6.23007">
        <ele>589.52</ele>
        <time>2024-01-31T01:29:21Z</time>
      </trkpt>
      <trkpt lat="44.09028" lon="6.23022">
        <ele>588.96</ele>
        <time>2024-01-31T01:29:24Z</time>
      </trkpt>
      <trkpt lat="44.09032" lon="6.23032">
        <ele>589.5</ele>
        <time>2024-01-31T01:29:25Z</time>
      </trkpt>
      <trkpt lat="44.09033" lon="6.23045">
        <ele>590.46</ele>
        <time>2024-01-31T01:29:27Z</time>
      </trkpt>
      <trkpt lat="44.09061" lon="6.23049">
        <ele>589.99</ele>
        <time>2024-01-31T01:29:36Z</time>
      </trkpt>
      <trkpt lat="44.0906" lon="6.23069">
        <ele>591.51</ele>
        <time>2024-01-31T01:29:40Z</time>
      </trkpt>
      <trkpt lat="44.0906" lon="6.23078">
        <ele>591.86</ele>
        <time>2024-01-31T01:29:41Z</time>
      </trkpt>
      <trkpt lat="44.09067" lon="6.23091">
        <ele>592.33</ele>
        <time>2024-01-31T01:29:44Z</time>
      </trkpt>
      <trkpt lat="44.0907" lon="6.23093">
        <ele>592.47</ele>
        <time>2024-01-31T01:29:45Z</time>
      </trkpt>
      <trkpt lat="44.09068" lon="6.23098">
        <ele>592.6</ele>
        <time>2024-01-31T01:29:46Z</time>
      </trkpt>
      <trkpt lat="44.09067" lon="6.231">
        <ele>592.6</ele>
        <time>2024-01-31T01:29:46Z</time>
      </trkpt>
      <trkpt lat="44.09066" lon="6.23104">
        <ele>592.74</ele>
        <time>2024-01-31T01:29:47Z</time>
      </trkpt>
      <trkpt lat="44.09087" lon="6.23124">
        <ele>593.5</ele>
        <time>2024-01-31T01:29:54Z</time>
      </trkpt>
      <trkpt lat="44.09087" lon="6.23137">
        <ele>593.82</ele>
        <time>2024-01-31T01:29:57Z</time>
      </trkpt>
      <trkpt lat="44.09091" lon="6.23145">
        <ele>593.82</ele>
        <time>2024-01-31T01:29:59Z</time>
      </trkpt>
      <trkpt lat="44.09093" lon="6.23176">
        <ele>592.59</ele>
        <time>2024-01-31T01:30:06Z</time>
      </trkpt>
      <trkpt lat="44.09093" lon="6.23184">
        <ele>592.74</ele>
        <time>2024-01-31T01:30:08Z</time>
      </trkpt>
      <trkpt lat="44.09085" lon="6.23221">
        <ele>593.97</ele>
        <time>2024-01-31T01:30:16Z</time>
      </trkpt>
      <trkpt lat="44.0908" lon="6.23243">
        <ele>594.38</ele>
        <time>2024-01-31T01:30:22Z</time>
      </trkpt>
      <trkpt lat="44.09078" lon="6.23253">
        <ele>594.46</ele>
        <time>2024-01-31T01:30:24Z</time>
      </trkpt>
      <trkpt lat="44.09071" lon="6.23292">
        <ele>594.7</ele>
        <time>2024-01-31T01:30:32Z</time>
      </trkpt>
      <trkpt lat="44.09067" lon="6.23306">
        <ele>594.69</ele>
        <time>2024-01-31T01:30:35Z</time>
      </trkpt>
      <trkpt lat="44.09062" lon="6.23335">
        <ele>594.27</ele>
        <time>2024-01-31T01:30:40Z</time>
      </trkpt>
      <trkpt lat="44.09057" lon="6.23372">
        <ele>593.82</ele>
        <time>2024-01-31T01:30:47Z</time>
      </trkpt>
      <trkpt lat="44.09053" lon="6.23396">
        <ele>593.55</ele>
        <time>2024-01-31T01:30:52Z</time>
      </trkpt>
      <trkpt lat="44.09062" lon="6.23408">
        <ele>593.71</ele>
        <time>2024-01-31T01:30:55Z</time>
      </trkpt>
      <trkpt lat="44.09096" lon="6.23463">
        <ele>597.75</ele>
        <time>2024-01-31T01:31:06Z</time>
      </trkpt>
      <trkpt lat="44.09093" lon="6.23498">
        <ele>598.91</ele>
        <time>2024-01-31T01:31:11Z</time>
      </trkpt>
      <trkpt lat="44.09093" lon="6.23501">
        <ele>598.87</ele>
        <time>2024-01-31T01:31:12Z</time>
      </trkpt>
      <trkpt lat="44.09103" lon="6.2357">
        <ele>599.23</ele>
        <time>2024-01-31T01:31:20Z</time>
      </trkpt>
      <trkpt lat="44.0912" lon="6.23621">
        <ele>601.15</ele>
        <time>2024-01-31T01:31:27Z</time>
      </trkpt>
      <trkpt lat="44.0914" lon="6.23662">
        <ele>602.34</ele>
        <time>2024-01-31T01:31:33Z</time>
      </trkpt>
      <trkpt lat="44.09142" lon="6.23674">
        <ele>601.81</ele>
        <time>2024-01-31T01:31:35Z</time>
      </trkpt>
      <trkpt lat="44.09148" lon="6.23684">
        <ele>601.87</ele>
        <time>2024-01-31T01:31:36Z</time>
      </trkpt>
      <trkpt lat="44.09114" lon="6.23693">
        <ele>599.52</ele>
        <time>2024-01-31T01:31:43Z</time>
      </trkpt>
      <trkpt lat="44.09063" lon="6.2369">
        <ele>597.33</ele>
        <time>2024-01-31T01:31:53Z</time>
      </trkpt>
      <trkpt lat="44.09063" lon="6.23698">
        <ele>597.45</ele>
        <time>2024-01-31T01:31:54Z</time>
      </trkpt>
      <trkpt lat="44.09063" lon="6.2373">
        <ele>597.93</ele>
        <time>2024-01-31T01:31:59Z</time>
      </trkpt>
      <trkpt lat="44.09063" lon="6.23774">
        <ele>598.71</ele>
        <time>2024-01-31T01:32:07Z</time>
      </trkpt>
      <trkpt lat="44.09064" lon="6.23795">
        <ele>599</ele>
        <time>2024-01-31T01:32:10Z</time>
      </trkpt>
      <trkpt lat="44.09064" lon="6.23805">
        <ele>599.1</ele>
        <time>2024-01-31T01:32:12Z</time>
      </trkpt>
      <trkpt lat="44.09065" lon="6.23822">
        <ele>599.17</ele>
        <time>2024-01-31T01:32:15Z</time>
      </trkpt>
      <trkpt lat="44.09065" lon="6.23855">
        <ele>599.09</ele>
        <time>2024-01-31T01:32:22Z</time>
      </trkpt>
      <trkpt lat="44.09064" lon="6.23858">
        <ele>599.06</ele>
        <time>2024-01-31T01:32:22Z</time>
      </trkpt>
      <trkpt lat="44.09061" lon="6.23881">
        <ele>598.85</ele>
        <time>2024-01-31T01:32:28Z</time>
      </trkpt>
      <trkpt lat="44.09054" lon="6.23885">
        <ele>598.76</ele>
        <time>2024-01-31T01:32:30Z</time>
      </trkpt>
      <trkpt lat="44.09052" lon="6.23893">
        <ele>598.65</ele>
        <time>2024-01-31T01:32:32Z</time>
      </trkpt>
      <trkpt lat="44.09055" lon="6.23901">
        <ele>598.67</ele>
        <time>2024-01-31T01:32:35Z</time>
      </trkpt>
      <trkpt lat="44.0906" lon="6.23905">
        <ele>598.7</ele>
        <time>2024-01-31T01:32:37Z</time>
      </trkpt>
      <trkpt lat="44.09066" lon="6.23909">
        <ele>598.71</ele>
        <time>2024-01-31T01:32:40Z</time>
      </trkpt>
      <trkpt lat="44.09067" lon="6.23931">
        <ele>598.59</ele>
        <time>2024-01-31T01:32:47Z</time>
      </trkpt>
      <trkpt lat="44.09067" lon="6.23945">
        <ele>598.51</ele>
        <time>2024-01-31T01:32:52Z</time>
      </trkpt>
      <trkpt lat="44.09067" lon="6.23995">
        <ele>598.4</ele>
        <time>2024-01-31T01:33:07Z</time>
      </trkpt>
      <trkpt lat="44.09067" lon="6.24007">
        <ele>598.52</ele>
        <time>2024-01-31T01:33:11Z</time>
      </trkpt>
      <trkpt lat="44.09067" lon="6.24026">
        <ele>598.85</ele>
        <time>2024-01-31T01:33:16Z</time>
      </trkpt>
      <trkpt lat="44.09058" lon="6.24047">
        <ele>599.52</ele>
        <time>2024-01-31T01:33:24Z</time>
      </trkpt>
      <trkpt lat="44.08997" lon="6.24067">
        <ele>600.14</ele>
        <time>2024-01-31T01:33:49Z</time>
      </trkpt>
      <trkpt lat="44.08994" lon="6.24069">
        <ele>600.14</ele>
        <time>2024-01-31T01:33:50Z</time>
      </trkpt>
      <trkpt lat="44.08991" lon="6.24072">
        <ele>600.02</ele>
        <time>2024-01-31T01:33:52Z</time>
      </trkpt>
      <trkpt lat="44.09085" lon="6.24257">
        <ele>604.16</ele>
        <time>2024-01-31T01:34:39Z</time>
      </trkpt>
      <trkpt lat="44.09112" lon="6.24309">
        <ele>606.49</ele>
        <time>2024-01-31T01:34:47Z</time>
      </trkpt>
      <trkpt lat="44.09117" lon="6.24323">
        <ele>607.4</ele>
        <time>2024-01-31T01:34:49Z</time>
      </trkpt>
      <trkpt lat="44.09119" lon="6.24338">
        <ele>609.32</ele>
        <time>2024-01-31T01:34:51Z</time>
      </trkpt>
      <trkpt lat="44.09119" lon="6.24344">
        <ele>609.64</ele>
        <time>2024-01-31T01:34:52Z</time>
      </trkpt>
      <trkpt lat="44.09112" lon="6.24409">
        <ele>608.57</ele>
        <time>2024-01-31T01:35:00Z</time>
      </trkpt>
      <trkpt lat="44.09102" lon="6.24429">
        <ele>606.56</ele>
        <time>2024-01-31T01:35:03Z</time>
      </trkpt>
      <trkpt lat="44.09085" lon="6.24456">
        <ele>604.92</ele>
        <time>2024-01-31T01:35:08Z</time>
      </trkpt>
      <trkpt lat="44.09076" lon="6.24475">
        <ele>606.47</ele>
        <time>2024-01-31T01:35:11Z</time>
      </trkpt>
      <trkpt lat="44.0907" lon="6.24494">
        <ele>607.37</ele>
        <time>2024-01-31T01:35:14Z</time>
      </trkpt>
      <trkpt lat="44.0907" lon="6.24552">
        <ele>608.88</ele>
        <time>2024-01-31T01:35:24Z</time>
      </trkpt>
      <trkpt lat="44.09064" lon="6.2458">
        <ele>609.46</ele>
        <time>2024-01-31T01:35:29Z</time>
      </trkpt>
      <trkpt lat="44.0903" lon="6.24651">
        <ele>608.96</ele>
        <time>2024-01-31T01:35:40Z</time>
      </trkpt>
      <trkpt lat="44.09" lon="6.24715">
        <ele>609.72</ele>
        <time>2024-01-31T01:35:49Z</time>
      </trkpt>
      <trkpt lat="44.08991" lon="6.24747">
        <ele>610.19</ele>
        <time>2024-01-31T01:35:54Z</time>
      </trkpt>
      <trkpt lat="44.08986" lon="6.24778">
        <ele>610.3</ele>
        <time>2024-01-31T01:35:58Z</time>
      </trkpt>
      <trkpt lat="44.08987" lon="6.24814">
        <ele>610.15</ele>
        <time>2024-01-31T01:36:03Z</time>
      </trkpt>
      <trkpt lat="44.08986" lon="6.24838">
        <ele>609.93</ele>
        <time>2024-01-31T01:36:06Z</time>
      </trkpt>
      <trkpt lat="44.08983" lon="6.24848">
        <ele>609.78</ele>
        <time>2024-01-31T01:36:07Z</time>
      </trkpt>
      <trkpt lat="44.08973" lon="6.24871">
        <ele>609.64</ele>
        <time>2024-01-31T01:36:11Z</time>
      </trkpt>
      <trkpt lat="44.08965" lon="6.24884">
        <ele>609.8</ele>
        <time>2024-01-31T01:36:13Z</time>
      </trkpt>
      <trkpt lat="44.08951" lon="6.24896">
        <ele>610.29</ele>
        <time>2024-01-31T01:36:17Z</time>
      </trkpt>
      <trkpt lat="44.08894" lon="6.24927">
        <ele>611.26</ele>
        <time>2024-01-31T01:36:33Z</time>
      </trkpt>
      <trkpt lat="44.08875" lon="6.24937">
        <ele>611.71</ele>
        <time>2024-01-31T01:36:39Z</time>
      </trkpt>
      <trkpt lat="44.08836" lon="6.24957">
        <ele>613.16</ele>
        <time>2024-01-31T01:36:56Z</time>
      </trkpt>
      <trkpt lat="44.08786" lon="6.24984">
        <ele>616.19</ele>
        <time>2024-01-31T01:37:21Z</time>
      </trkpt>
      <trkpt lat="44.08759" lon="6.24998">
        <ele>616.54</ele>
        <time>2024-01-31T01:37:35Z</time>
      </trkpt>
      <trkpt lat="44.08757" lon="6.25002">
        <ele>616.7</ele>
        <time>2024-01-31T01:37:36Z</time>
      </trkpt>
      <trkpt lat="44.08744" lon="6.25025">
        <ele>618.65</ele>
        <time>2024-01-31T01:37:47Z</time>
      </trkpt>
      <trkpt lat="44.0874" lon="6.25032">
        <ele>619.92</ele>
        <time>2024-01-31T01:37:50Z</time>
      </trkpt>
      <trkpt lat="44.08736" lon="6.25039">
        <ele>620.49</ele>
        <time>2024-01-31T01:37:53Z</time>
      </trkpt>
      <trkpt lat="44.08724" lon="6.25052">
        <ele>623.06</ele>
        <time>2024-01-31T01:38:01Z</time>
      </trkpt>
      <trkpt lat="44.08669" lon="6.25097">
        <ele>624.77</ele>
        <time>2024-01-31T01:38:32Z</time>
      </trkpt>
      <trkpt lat="44.08604" lon="6.25152">
        <ele>627.06</ele>
        <time>2024-01-31T01:39:03Z</time>
      </trkpt>
      <trkpt lat="44.0852" lon="6.25231">
        <ele>632.57</ele>
        <time>2024-01-31T01:39:20Z</time>
      </trkpt>
      <trkpt lat="44.08453" lon="6.25276">
        <ele>633.92</ele>
        <time>2024-01-31T01:39:31Z</time>
      </trkpt>
      <trkpt lat="44.08439" lon="6.2528">
        <ele>632.12</ele>
        <time>2024-01-31T01:39:33Z</time>
      </trkpt>
      <trkpt lat="44.08432" lon="6.2528">
        <ele>631.34</ele>
        <time>2024-01-31T01:39:34Z</time>
      </trkpt>
      <trkpt lat="44.08419" lon="6.25274">
        <ele>628.48</ele>
        <time>2024-01-31T01:39:36Z</time>
      </trkpt>
      <trkpt lat="44.08409" lon="6.25265">
        <ele>625.91</ele>
        <time>2024-01-31T01:39:38Z</time>
      </trkpt>
      <trkpt lat="44.084" lon="6.25265">
        <ele>625.37</ele>
        <time>2024-01-31T01:39:39Z</time>
      </trkpt>
      <trkpt lat="44.08383" lon="6.25281">
        <ele>626.27</ele>
        <time>2024-01-31T01:39:42Z</time>
      </trkpt>
      <trkpt lat="44.08321" lon="6.25349">
        <ele>630.59</ele>
        <time>2024-01-31T01:39:55Z</time>
      </trkpt>
      <trkpt lat="44.08318" lon="6.25353">
        <ele>630.86</ele>
        <time>2024-01-31T01:39:56Z</time>
      </trkpt>
      <trkpt lat="44.08313" lon="6.25358">
        <ele>631.06</ele>
        <time>2024-01-31T01:39:57Z</time>
      </trkpt>
      <trkpt lat="44.083" lon="6.25369">
        <ele>632.06</ele>
        <time>2024-01-31T01:40:01Z</time>
      </trkpt>
      <trkpt lat="44.08286" lon="6.25385">
        <ele>632.81</ele>
        <time>2024-01-31T01:40:05Z</time>
      </trkpt>
      <trkpt lat="44.08277" lon="6.25404">
        <ele>633.25</ele>
        <time>2024-01-31T01:40:09Z</time>
      </trkpt>
      <trkpt lat="44.08261" lon="6.25426">
        <ele>632.99</ele>
        <time>2024-01-31T01:40:14Z</time>
      </trkpt>
      <trkpt lat="44.08253" lon="6.25431">
        <ele>633.51</ele>
        <time>2024-01-31T01:40:16Z</time>
      </trkpt>
      <trkpt lat="44.08224" lon="6.2544">
        <ele>635.52</ele>
        <time>2024-01-31T01:40:24Z</time>
      </trkpt>
      <trkpt lat="44.08205" lon="6.25449">
        <ele>636.59</ele>
        <time>2024-01-31T01:40:30Z</time>
      </trkpt>
      <trkpt lat="44.08195" lon="6.2546">
        <ele>637.13</ele>
        <time>2024-01-31T01:40:34Z</time>
      </trkpt>
      <trkpt lat="44.08187" lon="6.25479">
        <ele>636.24</ele>
        <time>2024-01-31T01:40:39Z</time>
      </trkpt>
      <trkpt lat="44.08185" lon="6.25504">
        <ele>635.13</ele>
        <time>2024-01-31T01:40:45Z</time>
      </trkpt>
      <trkpt lat="44.08187" lon="6.25519">
        <ele>634.59</ele>
        <time>2024-01-31T01:40:49Z</time>
      </trkpt>
      <trkpt lat="44.08196" lon="6.25535">
        <ele>634.56</ele>
        <time>2024-01-31T01:40:54Z</time>
      </trkpt>
      <trkpt lat="44.08213" lon="6.25557">
        <ele>640.17</ele>
        <time>2024-01-31T01:41:03Z</time>
      </trkpt>
      <trkpt lat="44.08214" lon="6.25569">
        <ele>643.16</ele>
        <time>2024-01-31T01:41:06Z</time>
      </trkpt>
      <trkpt lat="44.08212" lon="6.2559">
        <ele>646.13</ele>
        <time>2024-01-31T01:41:12Z</time>
      </trkpt>
      <trkpt lat="44.08201" lon="6.25613">
        <ele>649.38</ele>
        <time>2024-01-31T01:41:19Z</time>
      </trkpt>
      <trkpt lat="44.08183" lon="6.25643">
        <ele>650.24</ele>
        <time>2024-01-31T01:41:30Z</time>
      </trkpt>
      <trkpt lat="44.08148" lon="6.257">
        <ele>648.47</ele>
        <time>2024-01-31T01:41:50Z</time>
      </trkpt>
      <trkpt lat="44.08114" lon="6.25796">
        <ele>650.54</ele>
        <time>2024-01-31T01:42:22Z</time>
      </trkpt>
      <trkpt lat="44.08095" lon="6.25831">
        <ele>653.77</ele>
        <time>2024-01-31T01:42:34Z</time>
      </trkpt>
      <trkpt lat="44.08082" lon="6.25846">
        <ele>650.99</ele>
        <time>2024-01-31T01:42:40Z</time>
      </trkpt>
      <trkpt lat="44.08075" lon="6.25857">
        <ele>650.03</ele>
        <time>2024-01-31T01:42:43Z</time>
      </trkpt>
      <trkpt lat="44.08064" lon="6.25897">
        <ele>656.21</ele>
        <time>2024-01-31T01:42:53Z</time>
      </trkpt>
      <trkpt lat="44.08051" lon="6.25924">
        <ele>654.25</ele>
        <time>2024-01-31T01:43:00Z</time>
      </trkpt>
      <trkpt lat="44.08038" lon="6.25992">
        <ele>656.79</ele>
        <time>2024-01-31T01:43:14Z</time>
      </trkpt>
      <trkpt lat="44.08014" lon="6.26067">
        <ele>653.26</ele>
        <time>2024-01-31T01:43:30Z</time>
      </trkpt>
      <trkpt lat="44.08003" lon="6.26062">
        <ele>649.76</ele>
        <time>2024-01-31T01:43:36Z</time>
      </trkpt>
      <trkpt lat="44.07974" lon="6.26142">
        <ele>652.29</ele>
        <time>2024-01-31T01:44:05Z</time>
      </trkpt>
      <trkpt lat="44.0795" lon="6.26198">
        <ele>651.84</ele>
        <time>2024-01-31T01:44:28Z</time>
      </trkpt>
      <trkpt lat="44.0795" lon="6.26225">
        <ele>653.19</ele>
        <time>2024-01-31T01:44:37Z</time>
      </trkpt>
      <trkpt lat="44.0795" lon="6.26231">
        <ele>653.53</ele>
        <time>2024-01-31T01:44:38Z</time>
      </trkpt>
      <trkpt lat="44.07937" lon="6.26269">
        <ele>651.44</ele>
        <time>2024-01-31T01:44:51Z</time>
      </trkpt>
      <trkpt lat="44.07933" lon="6.26312">
        <ele>652.53</ele>
        <time>2024-01-31T01:45:02Z</time>
      </trkpt>
      <trkpt lat="44.07933" lon="6.26334">
        <ele>653.24</ele>
        <time>2024-01-31T01:45:06Z</time>
      </trkpt>
      <trkpt lat="44.07933" lon="6.26338">
        <ele>653.34</ele>
        <time>2024-01-31T01:45:08Z</time>
      </trkpt>
      <trkpt lat="44.07932" lon="6.26352">
        <ele>653.58</ele>
        <time>2024-01-31T01:45:11Z</time>
      </trkpt>
      <trkpt lat="44.0793" lon="6.26445">
        <ele>654.87</ele>
        <time>2024-01-31T01:45:27Z</time>
      </trkpt>
      <trkpt lat="44.07926" lon="6.26634">
        <ele>661.98</ele>
        <time>2024-01-31T01:45:48Z</time>
      </trkpt>
      <trkpt lat="44.07926" lon="6.26638">
        <ele>662.25</ele>
        <time>2024-01-31T01:45:48Z</time>
      </trkpt>
      <trkpt lat="44.07925" lon="6.26674">
        <ele>663.55</ele>
        <time>2024-01-31T01:45:52Z</time>
      </trkpt>
      <trkpt lat="44.07926" lon="6.26683">
        <ele>663.7</ele>
        <time>2024-01-31T01:45:53Z</time>
      </trkpt>
      <trkpt lat="44.07929" lon="6.2669">
        <ele>663.82</ele>
        <time>2024-01-31T01:45:55Z</time>
      </trkpt>
      <trkpt lat="44.07934" lon="6.26697">
        <ele>664.36</ele>
        <time>2024-01-31T01:45:56Z</time>
      </trkpt>
      <trkpt lat="44.07966" lon="6.26717">
        <ele>670.68</ele>
        <time>2024-01-31T01:46:04Z</time>
      </trkpt>
      <trkpt lat="44.07976" lon="6.26727">
        <ele>673.14</ele>
        <time>2024-01-31T01:46:08Z</time>
      </trkpt>
      <trkpt lat="44.07978" lon="6.26732">
        <ele>674.83</ele>
        <time>2024-01-31T01:46:09Z</time>
      </trkpt>
      <trkpt lat="44.07976" lon="6.26742">
        <ele>674.17</ele>
        <time>2024-01-31T01:46:12Z</time>
      </trkpt>
      <trkpt lat="44.07933" lon="6.26788">
        <ele>674.32</ele>
        <time>2024-01-31T01:46:38Z</time>
      </trkpt>
      <trkpt lat="44.07923" lon="6.26798">
        <ele>675.07</ele>
        <time>2024-01-31T01:46:45Z</time>
      </trkpt>
      <trkpt lat="44.07904" lon="6.26825">
        <ele>676.51</ele>
        <time>2024-01-31T01:47:03Z</time>
      </trkpt>
      <trkpt lat="44.07898" lon="6.26839">
        <ele>677.2</ele>
        <time>2024-01-31T01:47:12Z</time>
      </trkpt>
      <trkpt lat="44.07893" lon="6.26856">
        <ele>678.01</ele>
        <time>2024-01-31T01:47:23Z</time>
      </trkpt>
      <trkpt lat="44.0788" lon="6.26931">
        <ele>686.02</ele>
        <time>2024-01-31T01:48:16Z</time>
      </trkpt>
      <trkpt lat="44.07869" lon="6.26963">
        <ele>687.43</ele>
        <time>2024-01-31T01:48:43Z</time>
      </trkpt>
      <trkpt lat="44.07862" lon="6.26974">
        <ele>689.21</ele>
        <time>2024-01-31T01:48:55Z</time>
      </trkpt>
      <trkpt lat="44.0785" lon="6.26986">
        <ele>687.4</ele>
        <time>2024-01-31T01:49:12Z</time>
      </trkpt>
      <trkpt lat="44.07833" lon="6.27002">
        <ele>691.61</ele>
        <time>2024-01-31T01:49:32Z</time>
      </trkpt>
      <trkpt lat="44.0779" lon="6.27013">
        <ele>688.82</ele>
        <time>2024-01-31T01:50:06Z</time>
      </trkpt>
      <trkpt lat="44.07758" lon="6.27047">
        <ele>696.06</ele>
        <time>2024-01-31T01:50:24Z</time>
      </trkpt>
      <trkpt lat="44.07745" lon="6.27053">
        <ele>698.56</ele>
        <time>2024-01-31T01:50:27Z</time>
      </trkpt>
      <trkpt lat="44.07737" lon="6.27052">
        <ele>698.35</ele>
        <time>2024-01-31T01:50:29Z</time>
      </trkpt>
      <trkpt lat="44.07729" lon="6.27047">
        <ele>698.92</ele>
        <time>2024-01-31T01:50:30Z</time>
      </trkpt>
      <trkpt lat="44.07724" lon="6.27039">
        <ele>697.61</ele>
        <time>2024-01-31T01:50:31Z</time>
      </trkpt>
      <trkpt lat="44.07717" lon="6.27017">
        <ele>691.67</ele>
        <time>2024-01-31T01:50:33Z</time>
      </trkpt>
      <trkpt lat="44.07716" lon="6.26974">
        <ele>690.94</ele>
        <time>2024-01-31T01:50:37Z</time>
      </trkpt>
      <trkpt lat="44.07713" lon="6.26961">
        <ele>691.66</ele>
        <time>2024-01-31T01:50:38Z</time>
      </trkpt>
      <trkpt lat="44.07709" lon="6.26954">
        <ele>691.75</ele>
        <time>2024-01-31T01:50:39Z</time>
      </trkpt>
      <trkpt lat="44.07694" lon="6.26943">
        <ele>695.54</ele>
        <time>2024-01-31T01:50:41Z</time>
      </trkpt>
      <trkpt lat="44.07667" lon="6.26904">
        <ele>699.37</ele>
        <time>2024-01-31T01:50:45Z</time>
      </trkpt>
      <trkpt lat="44.07652" lon="6.26891">
        <ele>699.91</ele>
        <time>2024-01-31T01:50:47Z</time>
      </trkpt>
      <trkpt lat="44.07639" lon="6.26886">
        <ele>699.64</ele>
        <time>2024-01-31T01:50:48Z</time>
      </trkpt>
      <trkpt lat="44.07631" lon="6.26887">
        <ele>698.52</ele>
        <time>2024-01-31T01:50:49Z</time>
      </trkpt>
      <trkpt lat="44.07618" lon="6.26897">
        <ele>697.76</ele>
        <time>2024-01-31T01:50:51Z</time>
      </trkpt>
      <trkpt lat="44.07611" lon="6.26906">
        <ele>697.16</ele>
        <time>2024-01-31T01:50:52Z</time>
      </trkpt>
      <trkpt lat="44.07602" lon="6.26927">
        <ele>698.62</ele>
        <time>2024-01-31T01:50:54Z</time>
      </trkpt>
      <trkpt lat="44.07594" lon="6.26936">
        <ele>697.64</ele>
        <time>2024-01-31T01:50:55Z</time>
      </trkpt>
      <trkpt lat="44.07583" lon="6.26942">
        <ele>696.77</ele>
        <time>2024-01-31T01:50:56Z</time>
      </trkpt>
      <trkpt lat="44.07568" lon="6.26949">
        <ele>692.31</ele>
        <time>2024-01-31T01:50:58Z</time>
      </trkpt>
      <trkpt lat="44.0756" lon="6.26957">
        <ele>691.06</ele>
        <time>2024-01-31T01:50:59Z</time>
      </trkpt>
      <trkpt lat="44.07554" lon="6.26967">
        <ele>690.84</ele>
        <time>2024-01-31T01:51:00Z</time>
      </trkpt>
      <trkpt lat="44.0755" lon="6.26983">
        <ele>690.31</ele>
        <time>2024-01-31T01:51:02Z</time>
      </trkpt>
      <trkpt lat="44.07548" lon="6.26994">
        <ele>690.09</ele>
        <time>2024-01-31T01:51:03Z</time>
      </trkpt>
      <trkpt lat="44.0754" lon="6.27047">
        <ele>689.08</ele>
        <time>2024-01-31T01:51:12Z</time>
      </trkpt>
      <trkpt lat="44.07526" lon="6.27086">
        <ele>687.17</ele>
        <time>2024-01-31T01:51:22Z</time>
      </trkpt>
      <trkpt lat="44.07518" lon="6.27095">
        <ele>684.52</ele>
        <time>2024-01-31T01:51:26Z</time>
      </trkpt>
      <trkpt lat="44.07509" lon="6.27099">
        <ele>682.74</ele>
        <time>2024-01-31T01:51:29Z</time>
      </trkpt>
      <trkpt lat="44.07492" lon="6.27096">
        <ele>682.24</ele>
        <time>2024-01-31T01:51:34Z</time>
      </trkpt>
      <trkpt lat="44.07481" lon="6.27092">
        <ele>681.24</ele>
        <time>2024-01-31T01:51:37Z</time>
      </trkpt>
      <trkpt lat="44.07462" lon="6.27088">
        <ele>681.57</ele>
        <time>2024-01-31T01:51:44Z</time>
      </trkpt>
      <trkpt lat="44.07418" lon="6.27091">
        <ele>683.32</ele>
        <time>2024-01-31T01:52:00Z</time>
      </trkpt>
      <trkpt lat="44.07358" lon="6.27122">
        <ele>687.61</ele>
        <time>2024-01-31T01:52:21Z</time>
      </trkpt>
      <trkpt lat="44.07312" lon="6.27131">
        <ele>690.79</ele>
        <time>2024-01-31T01:52:33Z</time>
      </trkpt>
      <trkpt lat="44.07288" lon="6.27131">
        <ele>691.65</ele>
        <time>2024-01-31T01:52:39Z</time>
      </trkpt>
      <trkpt lat="44.07253" lon="6.27122">
        <ele>689.31</ele>
        <time>2024-01-31T01:52:49Z</time>
      </trkpt>
      <trkpt lat="44.07246" lon="6.27125">
        <ele>688.78</ele>
        <time>2024-01-31T01:52:50Z</time>
      </trkpt>
      <trkpt lat="44.0724" lon="6.2713">
        <ele>689.23</ele>
        <time>2024-01-31T01:52:52Z</time>
      </trkpt>
      <trkpt lat="44.07234" lon="6.27139">
        <ele>690.74</ele>
        <time>2024-01-31T01:52:54Z</time>
      </trkpt>
      <trkpt lat="44.07214" lon="6.27184">
        <ele>698.2</ele>
        <time>2024-01-31T01:53:03Z</time>
      </trkpt>
      <trkpt lat="44.07206" lon="6.27195">
        <ele>697.73</ele>
        <time>2024-01-31T01:53:05Z</time>
      </trkpt>
      <trkpt lat="44.07141" lon="6.2724">
        <ele>695.96</ele>
        <time>2024-01-31T01:53:18Z</time>
      </trkpt>
      <trkpt lat="44.07115" lon="6.27251">
        <ele>695.98</ele>
        <time>2024-01-31T02:23:11Z</time>
      </trkpt>
      <trkpt lat="44.07112" lon="6.27245">
        <ele>693.46</ele>
        <time>2024-01-31T02:23:09Z</time>
      </trkpt>
      <trkpt lat="44.07107" lon="6.27242">
        <ele>692.22</ele>
        <time>2024-01-31T02:23:07Z</time>
      </trkpt>
      <trkpt lat="44.07079" lon="6.27237">
        <ele>692.44</ele>
        <time>2024-01-31T02:22:58Z</time>
      </trkpt>
      <trkpt lat="44.07075" lon="6.27231">
        <ele>691.83</ele>
        <time>2024-01-31T02:22:56Z</time>
      </trkpt>
      <trkpt lat="44.0707" lon="6.27181">
        <ele>688.07</ele>
        <time>2024-01-31T02:22:45Z</time>
      </trkpt>
      <trkpt lat="44.07064" lon="6.2715">
        <ele>690.82</ele>
        <time>2024-01-31T02:22:39Z</time>
      </trkpt>
      <trkpt lat="44.07069" lon="6.27134">
        <ele>694.76</ele>
        <time>2024-01-31T02:22:35Z</time>
      </trkpt>
      <trkpt lat="44.07086" lon="6.2713">
        <ele>693.77</ele>
        <time>2024-01-31T02:22:30Z</time>
      </trkpt>
      <trkpt lat="44.07097" lon="6.27123">
        <ele>692.92</ele>
        <time>2024-01-31T02:22:27Z</time>
      </trkpt>
      <trkpt lat="44.07127" lon="6.2706">
        <ele>702.25</ele>
        <time>2024-01-31T02:22:12Z</time>
      </trkpt>
      <trkpt lat="44.07156" lon="6.27017">
        <ele>705.8</ele>
        <time>2024-01-31T02:22:01Z</time>
      </trkpt>
      <trkpt lat="44.07178" lon="6.26997">
        <ele>707.43</ele>
        <time>2024-01-31T02:21:55Z</time>
      </trkpt>
      <trkpt lat="44.07267" lon="6.26961">
        <ele>713.35</ele>
        <time>2024-01-31T02:21:33Z</time>
      </trkpt>
      <trkpt lat="44.07274" lon="6.26955">
        <ele>713.57</ele>
        <time>2024-01-31T02:21:32Z</time>
      </trkpt>
      <trkpt lat="44.07277" lon="6.26947">
        <ele>714.66</ele>
        <time>2024-01-31T02:21:30Z</time>
      </trkpt>
      <trkpt lat="44.07273" lon="6.26919">
        <ele>722.45</ele>
        <time>2024-01-31T02:21:25Z</time>
      </trkpt>
      <trkpt lat="44.07278" lon="6.26909">
        <ele>724.19</ele>
        <time>2024-01-31T02:21:23Z</time>
      </trkpt>
      <trkpt lat="44.07296" lon="6.26912">
        <ele>722.8</ele>
        <time>2024-01-31T02:21:19Z</time>
      </trkpt>
      <trkpt lat="44.07314" lon="6.26919">
        <ele>719.7</ele>
        <time>2024-01-31T02:21:15Z</time>
      </trkpt>
      <trkpt lat="44.07325" lon="6.26916">
        <ele>719.61</ele>
        <time>2024-01-31T02:21:13Z</time>
      </trkpt>
      <trkpt lat="44.0737" lon="6.2689">
        <ele>728.24</ele>
        <time>2024-01-31T02:21:03Z</time>
      </trkpt>
      <trkpt lat="44.07444" lon="6.26834">
        <ele>737.57</ele>
        <time>2024-01-31T02:20:46Z</time>
      </trkpt>
      <trkpt lat="44.07454" lon="6.26822">
        <ele>734.61</ele>
        <time>2024-01-31T02:20:43Z</time>
      </trkpt>
      <trkpt lat="44.07457" lon="6.26812">
        <ele>738.24</ele>
        <time>2024-01-31T02:20:42Z</time>
      </trkpt>
      <trkpt lat="44.07458" lon="6.26772">
        <ele>740.61</ele>
        <time>2024-01-31T02:20:36Z</time>
      </trkpt>
      <trkpt lat="44.0744" lon="6.2671">
        <ele>748.43</ele>
        <time>2024-01-31T02:20:26Z</time>
      </trkpt>
      <trkpt lat="44.07437" lon="6.26697">
        <ele>749.5</ele>
        <time>2024-01-31T02:20:24Z</time>
      </trkpt>
      <trkpt lat="44.07438" lon="6.26689">
        <ele>751.41</ele>
        <time>2024-01-31T02:20:23Z</time>
      </trkpt>
      <trkpt lat="44.07443" lon="6.26684">
        <ele>751.95</ele>
        <time>2024-01-31T02:20:22Z</time>
      </trkpt>
      <trkpt lat="44.07447" lon="6.26685">
        <ele>751.73</ele>
        <time>2024-01-31T02:20:21Z</time>
      </trkpt>
      <trkpt lat="44.07466" lon="6.26702">
        <ele>746.52</ele>
        <time>2024-01-31T02:20:17Z</time>
      </trkpt>
      <trkpt lat="44.0748" lon="6.26709">
        <ele>745.05</ele>
        <time>2024-01-31T02:20:14Z</time>
      </trkpt>
      <trkpt lat="44.07491" lon="6.26704">
        <ele>746.56</ele>
        <time>2024-01-31T02:20:11Z</time>
      </trkpt>
      <trkpt lat="44.07515" lon="6.26681">
        <ele>756.44</ele>
        <time>2024-01-31T02:20:05Z</time>
      </trkpt>
      <trkpt lat="44.07533" lon="6.2667">
        <ele>761.59</ele>
        <time>2024-01-31T02:20:01Z</time>
      </trkpt>
      <trkpt lat="44.07548" lon="6.26666">
        <ele>761.54</ele>
        <time>2024-01-31T02:19:58Z</time>
      </trkpt>
      <trkpt lat="44.07556" lon="6.2666">
        <ele>762.42</ele>
        <time>2024-01-31T02:19:56Z</time>
      </trkpt>
      <trkpt lat="44.07559" lon="6.26652">
        <ele>763.47</ele>
        <time>2024-01-31T02:19:55Z</time>
      </trkpt>
      <trkpt lat="44.07556" lon="6.26645">
        <ele>764.34</ele>
        <time>2024-01-31T02:19:54Z</time>
      </trkpt>
      <trkpt lat="44.0755" lon="6.26643">
        <ele>766.94</ele>
        <time>2024-01-31T02:19:53Z</time>
      </trkpt>
      <trkpt lat="44.07527" lon="6.26658">
        <ele>767.16</ele>
        <time>2024-01-31T02:19:47Z</time>
      </trkpt>
      <trkpt lat="44.07488" lon="6.26664">
        <ele>764.3</ele>
        <time>2024-01-31T02:19:40Z</time>
      </trkpt>
      <trkpt lat="44.07483" lon="6.26661">
        <ele>765.13</ele>
        <time>2024-01-31T02:19:39Z</time>
      </trkpt>
      <trkpt lat="44.07481" lon="6.26654">
        <ele>768.53</ele>
        <time>2024-01-31T02:19:38Z</time>
      </trkpt>
      <trkpt lat="44.07486" lon="6.26642">
        <ele>772.33</ele>
        <time>2024-01-31T02:19:36Z</time>
      </trkpt>
      <trkpt lat="44.0749" lon="6.26638">
        <ele>774.25</ele>
        <time>2024-01-31T02:19:35Z</time>
      </trkpt>
      <trkpt lat="44.07509" lon="6.26637">
        <ele>775.7</ele>
        <time>2024-01-31T02:19:31Z</time>
      </trkpt>
      <trkpt lat="44.07517" lon="6.26633">
        <ele>775.35</ele>
        <time>2024-01-31T02:19:29Z</time>
      </trkpt>
      <trkpt lat="44.07523" lon="6.26618">
        <ele>777.64</ele>
        <time>2024-01-31T02:19:27Z</time>
      </trkpt>
      <trkpt lat="44.0753" lon="6.26561">
        <ele>777.27</ele>
        <time>2024-01-31T02:19:19Z</time>
      </trkpt>
      <trkpt lat="44.0751" lon="6.2655">
        <ele>785.55</ele>
        <time>2024-01-31T02:19:15Z</time>
      </trkpt>
      <trkpt lat="44.07493" lon="6.26525">
        <ele>790.95</ele>
        <time>2024-01-31T02:19:11Z</time>
      </trkpt>
      <trkpt lat="44.0749" lon="6.26512">
        <ele>790.94</ele>
        <time>2024-01-31T02:19:09Z</time>
      </trkpt>
      <trkpt lat="44.07402" lon="6.26384">
        <ele>789.44</ele>
        <time>2024-01-31T02:18:45Z</time>
      </trkpt>
      <trkpt lat="44.07376" lon="6.26337">
        <ele>795.69</ele>
        <time>2024-01-31T02:18:36Z</time>
      </trkpt>
      <trkpt lat="44.07334" lon="6.26271">
        <ele>798.52</ele>
        <time>2024-01-31T02:18:24Z</time>
      </trkpt>
      <trkpt lat="44.07313" lon="6.26222">
        <ele>805.36</ele>
        <time>2024-01-31T02:18:16Z</time>
      </trkpt>
      <trkpt lat="44.073" lon="6.26206">
        <ele>809.44</ele>
        <time>2024-01-31T02:18:12Z</time>
      </trkpt>
      <trkpt lat="44.07267" lon="6.26144">
        <ele>811.25</ele>
        <time>2024-01-31T02:18:01Z</time>
      </trkpt>
      <trkpt lat="44.07234" lon="6.26059">
        <ele>818.64</ele>
        <time>2024-01-31T02:17:47Z</time>
      </trkpt>
      <trkpt lat="44.07209" lon="6.2596">
        <ele>822.06</ele>
        <time>2024-01-31T02:17:32Z</time>
      </trkpt>
      <trkpt lat="44.07188" lon="6.25895">
        <ele>828.07</ele>
        <time>2024-01-31T02:17:22Z</time>
      </trkpt>
      <trkpt lat="44.07167" lon="6.25845">
        <ele>831.58</ele>
        <time>2024-01-31T02:17:14Z</time>
      </trkpt>
      <trkpt lat="44.07143" lon="6.25821">
        <ele>837.38</ele>
        <time>2024-01-31T02:17:08Z</time>
      </trkpt>
      <trkpt lat="44.07122" lon="6.25783">
        <ele>838.05</ele>
        <time>2024-01-31T02:17:00Z</time>
      </trkpt>
      <trkpt lat="44.07089" lon="6.25652">
        <ele>842.45</ele>
        <time>2024-01-31T02:16:36Z</time>
      </trkpt>
      <trkpt lat="44.07117" lon="6.25684">
        <ele>836.48</ele>
        <time>2024-01-31T02:16:16Z</time>
      </trkpt>
      <trkpt lat="44.07122" lon="6.25696">
        <ele>835.18</ele>
        <time>2024-01-31T02:16:10Z</time>
      </trkpt>
      <trkpt lat="44.07127" lon="6.25715">
        <ele>833.39</ele>
        <time>2024-01-31T02:16:01Z</time>
      </trkpt>
      <trkpt lat="44.07137" lon="6.25732">
        <ele>832.72</ele>
        <time>2024-01-31T02:15:51Z</time>
      </trkpt>
      <trkpt lat="44.07139" lon="6.25741">
        <ele>832.32</ele>
        <time>2024-01-31T02:15:49Z</time>
      </trkpt>
      <trkpt lat="44.07137" lon="6.25732">
        <ele>832.72</ele>
        <time>2024-01-31T02:15:51Z</time>
      </trkpt>
      <trkpt lat="44.07127" lon="6.25715">
        <ele>833.39</ele>
        <time>2024-01-31T02:16:01Z</time>
      </trkpt>
      <trkpt lat="44.07122" lon="6.25696">
        <ele>835.18</ele>
        <time>2024-01-31T02:16:10Z</time>
      </trkpt>
      <trkpt lat="44.07117" lon="6.25684">
        <ele>836.48</ele>
        <time>2024-01-31T02:16:16Z</time>
      </trkpt>
      <trkpt lat="44.07089" lon="6.25652">
        <ele>842.45</ele>
        <time>2024-01-31T02:16:36Z</time>
      </trkpt>
      <trkpt lat="44.07122" lon="6.25783">
        <ele>838.05</ele>
        <time>2024-01-31T02:17:00Z</time>
      </trkpt>
      <trkpt lat="44.07143" lon="6.25821">
        <ele>837.38</ele>
        <time>2024-01-31T02:17:08Z</time>
      </trkpt>
      <trkpt lat="44.07167" lon="6.25845">
        <ele>831.58</ele>
        <time>2024-01-31T02:17:14Z</time>
      </trkpt>
      <trkpt lat="44.07188" lon="6.25895">
        <ele>828.07</ele>
        <time>2024-01-31T02:17:22Z</time>
      </trkpt>
      <trkpt lat="44.07209" lon="6.2596">
        <ele>822.06</ele>
        <time>2024-01-31T02:17:32Z</time>
      </trkpt>
      <trkpt lat="44.07234" lon="6.26059">
        <ele>818.64</ele>
        <time>2024-01-31T02:17:47Z</time>
      </trkpt>
      <trkpt lat="44.07267" lon="6.26144">
        <ele>811.25</ele>
        <time>2024-01-31T02:18:01Z</time>
      </trkpt>
      <trkpt lat="44.073" lon="6.26206">
        <ele>809.44</ele>
        <time>2024-01-31T02:18:12Z</time>
      </trkpt>
      <trkpt lat="44.07313" lon="6.26222">
        <ele>805.36</ele>
        <time>2024-01-31T02:18:16Z</time>
      </trkpt>
      <trkpt lat="44.07334" lon="6.26271">
        <ele>798.52</ele>
        <time>2024-01-31T02:18:24Z</time>
      </trkpt>
      <trkpt lat="44.07376" lon="6.26337">
        <ele>795.69</ele>
        <time>2024-01-31T02:18:36Z</time>
      </trkpt>
      <trkpt lat="44.07402" lon="6.26384">
        <ele>789.44</ele>
        <time>2024-01-31T02:18:45Z</time>
      </trkpt>
      <trkpt lat="44.0749" lon="6.26512">
        <ele>790.94</ele>
        <time>2024-01-31T02:19:09Z</time>
      </trkpt>
      <trkpt lat="44.07493" lon="6.26525">
        <ele>790.95</ele>
        <time>2024-01-31T02:19:11Z</time>
      </trkpt>
      <trkpt lat="44.0751" lon="6.2655">
        <ele>785.55</ele>
        <time>2024-01-31T02:19:15Z</time>
      </trkpt>
      <trkpt lat="44.0753" lon="6.26561">
        <ele>777.27</ele>
        <time>2024-01-31T02:19:19Z</time>
      </trkpt>
      <trkpt lat="44.07523" lon="6.26618">
        <ele>777.64</ele>
        <time>2024-01-31T02:19:27Z</time>
      </trkpt>
      <trkpt lat="44.07517" lon="6.26633">
        <ele>775.35</ele>
        <time>2024-01-31T02:19:29Z</time>
      </trkpt>
      <trkpt lat="44.07509" lon="6.26637">
        <ele>775.7</ele>
        <time>2024-01-31T02:19:31Z</time>
      </trkpt>
      <trkpt lat="44.0749" lon="6.26638">
        <ele>774.25</ele>
        <time>2024-01-31T02:19:35Z</time>
      </trkpt>
      <trkpt lat="44.07486" lon="6.26642">
        <ele>772.33</ele>
        <time>2024-01-31T02:19:36Z</time>
      </trkpt>
      <trkpt lat="44.07481" lon="6.26654">
        <ele>768.53</ele>
        <time>2024-01-31T02:19:38Z</time>
      </trkpt>
      <trkpt lat="44.07483" lon="6.26661">
        <ele>765.13</ele>
        <time>2024-01-31T02:19:39Z</time>
      </trkpt>
      <trkpt lat="44.07488" lon="6.26664">
        <ele>764.3</ele>
        <time>2024-01-31T02:19:40Z</time>
      </trkpt>
      <trkpt lat="44.07527" lon="6.26658">
        <ele>767.16</ele>
        <time>2024-01-31T02:19:47Z</time>
      </trkpt>
      <trkpt lat="44.0755" lon="6.26643">
        <ele>766.94</ele>
        <time>2024-01-31T02:19:53Z</time>
      </trkpt>
      <trkpt lat="44.07556" lon="6.26645">
        <ele>764.34</ele>
        <time>2024-01-31T02:19:54Z</time>
      </trkpt>
      <trkpt lat="44.07559" lon="6.26652">
        <ele>763.47</ele>
        <time>2024-01-31T02:19:55Z</time>
      </trkpt>
      <trkpt lat="44.07556" lon="6.2666">
        <ele>762.42</ele>
        <time>2024-01-31T02:19:56Z</time>
      </trkpt>
      <trkpt lat="44.07548" lon="6.26666">
        <ele>761.54</ele>
        <time>2024-01-31T02:19:58Z</time>
      </trkpt>
      <trkpt lat="44.07533" lon="6.2667">
        <ele>761.59</ele>
        <time>2024-01-31T02:20:01Z</time>
      </trkpt>
      <trkpt lat="44.07515" lon="6.26681">
        <ele>756.44</ele>
        <time>2024-01-31T02:20:05Z</time>
      </trkpt>
      <trkpt lat="44.07491" lon="6.26704">
        <ele>746.56</ele>
        <time>2024-01-31T02:20:11Z</time>
      </trkpt>
      <trkpt lat="44.0748" lon="6.26709">
        <ele>745.05</ele>
        <time>2024-01-31T02:20:14Z</time>
      </trkpt>
      <trkpt lat="44.07466" lon="6.26702">
        <ele>746.52</ele>
        <time>2024-01-31T02:20:17Z</time>
      </trkpt>
      <trkpt lat="44.07447" lon="6.26685">
        <ele>751.73</ele>
        <time>2024-01-31T02:20:21Z</time>
      </trkpt>
      <trkpt lat="44.07443" lon="6.26684">
        <ele>751.95</ele>
        <time>2024-01-31T02:20:22Z</time>
      </trkpt>
      <trkpt lat="44.07438" lon="6.26689">
        <ele>751.41</ele>
        <time>2024-01-31T02:20:23Z</time>
      </trkpt>
      <trkpt lat="44.07437" lon="6.26697">
        <ele>749.5</ele>
        <time>2024-01-31T02:20:24Z</time>
      </trkpt>
      <trkpt lat="44.0744" lon="6.2671">
        <ele>748.43</ele>
        <time>2024-01-31T02:20:26Z</time>
      </trkpt>
      <trkpt lat="44.07458" lon="6.26772">
        <ele>740.61</ele>
        <time>2024-01-31T02:20:36Z</time>
      </trkpt>
      <trkpt lat="44.07457" lon="6.26812">
        <ele>738.24</ele>
        <time>2024-01-31T02:20:42Z</time>
      </trkpt>
      <trkpt lat="44.07454" lon="6.26822">
        <ele>734.61</ele>
        <time>2024-01-31T02:20:43Z</time>
      </trkpt>
      <trkpt lat="44.07444" lon="6.26834">
        <ele>737.57</ele>
        <time>2024-01-31T02:20:46Z</time>
      </trkpt>
      <trkpt lat="44.0737" lon="6.2689">
        <ele>728.24</ele>
        <time>2024-01-31T02:21:03Z</time>
      </trkpt>
      <trkpt lat="44.07325" lon="6.26916">
        <ele>719.61</ele>
        <time>2024-01-31T02:21:13Z</time>
      </trkpt>
      <trkpt lat="44.07314" lon="6.26919">
        <ele>719.7</ele>
        <time>2024-01-31T02:21:15Z</time>
      </trkpt>
      <trkpt lat="44.07296" lon="6.26912">
        <ele>722.8</ele>
        <time>2024-01-31T02:21:19Z</time>
      </trkpt>
      <trkpt lat="44.07278" lon="6.26909">
        <ele>724.19</ele>
        <time>2024-01-31T02:21:23Z</time>
      </trkpt>
      <trkpt lat="44.07273" lon="6.26919">
        <ele>722.45</ele>
        <time>2024-01-31T02:21:25Z</time>
      </trkpt>
      <trkpt lat="44.07277" lon="6.26947">
        <ele>714.66</ele>
        <time>2024-01-31T02:21:30Z</time>
      </trkpt>
      <trkpt lat="44.07274" lon="6.26955">
        <ele>713.57</ele>
        <time>2024-01-31T02:21:32Z</time>
      </trkpt>
      <trkpt lat="44.07267" lon="6.26961">
        <ele>713.35</ele>
        <time>2024-01-31T02:21:33Z</time>
      </trkpt>
      <trkpt lat="44.07178" lon="6.26997">
        <ele>707.43</ele>
        <time>2024-01-31T02:21:55Z</time>
      </trkpt>
      <trkpt lat="44.07156" lon="6.27017">
        <ele>705.8</ele>
        <time>2024-01-31T02:22:01Z</time>
      </trkpt>
      <trkpt lat="44.07127" lon="6.2706">
        <ele>702.25</ele>
        <time>2024-01-31T02:22:12Z</time>
      </trkpt>
      <trkpt lat="44.07097" lon="6.27123">
        <ele>692.92</ele>
        <time>2024-01-31T02:22:27Z</time>
      </trkpt>
      <trkpt lat="44.07086" lon="6.2713">
        <ele>693.77</ele>
        <time>2024-01-31T02:22:30Z</time>
      </trkpt>
      <trkpt lat="44.07069" lon="6.27134">
        <ele>694.76</ele>
        <time>2024-01-31T02:22:35Z</time>
      </trkpt>
      <trkpt lat="44.07064" lon="6.2715">
        <ele>690.82</ele>
        <time>2024-01-31T02:22:39Z</time>
      </trkpt>
      <trkpt lat="44.0707" lon="6.27181">
        <ele>688.07</ele>
        <time>2024-01-31T02:22:45Z</time>
      </trkpt>
      <trkpt lat="44.07075" lon="6.27231">
        <ele>691.83</ele>
        <time>2024-01-31T02:22:56Z</time>
      </trkpt>
      <trkpt lat="44.07079" lon="6.27237">
        <ele>692.44</ele>
        <time>2024-01-31T02:22:58Z</time>
      </trkpt>
      <trkpt lat="44.07107" lon="6.27242">
        <ele>692.22</ele>
        <time>2024-01-31T02:23:07Z</time>
      </trkpt>
      <trkpt lat="44.07112" lon="6.27245">
        <ele>693.46</ele>
        <time>2024-01-31T02:23:09Z</time>
      </trkpt>
      <trkpt lat="44.07115" lon="6.27251">
        <ele>695.98</ele>
        <time>2024-01-31T02:23:11Z</time>
      </trkpt>
      <trkpt lat="44.07031" lon="6.27253">
        <ele>698.82</ele>
        <time>2024-01-31T02:23:35Z</time>
      </trkpt>
      <trkpt lat="44.06941" lon="6.27265">
        <ele>702.42</ele>
        <time>2024-01-31T02:24:01Z</time>
      </trkpt>
      <trkpt lat="44.06923" lon="6.27271">
        <ele>700.98</ele>
        <time>2024-01-31T02:24:06Z</time>
      </trkpt>
      <trkpt lat="44.06916" lon="6.27277">
        <ele>700.4</ele>
        <time>2024-01-31T02:24:08Z</time>
      </trkpt>
      <trkpt lat="44.0691" lon="6.27298">
        <ele>700.92</ele>
        <time>2024-01-31T02:24:13Z</time>
      </trkpt>
      <trkpt lat="44.06921" lon="6.27351">
        <ele>702.27</ele>
        <time>2024-01-31T02:24:26Z</time>
      </trkpt>
      <trkpt lat="44.06921" lon="6.27366">
        <ele>701.21</ele>
        <time>2024-01-31T02:24:29Z</time>
      </trkpt>
      <trkpt lat="44.06918" lon="6.2738">
        <ele>702.01</ele>
        <time>2024-01-31T02:24:32Z</time>
      </trkpt>
      <trkpt lat="44.06905" lon="6.27404">
        <ele>705.29</ele>
        <time>2024-01-31T02:24:39Z</time>
      </trkpt>
      <trkpt lat="44.06868" lon="6.2744">
        <ele>706.15</ele>
        <time>2024-01-31T02:24:52Z</time>
      </trkpt>
      <trkpt lat="44.0686" lon="6.2745">
        <ele>705.24</ele>
        <time>2024-01-31T02:24:55Z</time>
      </trkpt>
      <trkpt lat="44.06844" lon="6.27483">
        <ele>704.23</ele>
        <time>2024-01-31T02:25:03Z</time>
      </trkpt>
      <trkpt lat="44.06831" lon="6.27496">
        <ele>703.63</ele>
        <time>2024-01-31T02:25:07Z</time>
      </trkpt>
      <trkpt lat="44.06818" lon="6.27505">
        <ele>703.91</ele>
        <time>2024-01-31T02:25:11Z</time>
      </trkpt>
      <trkpt lat="44.06699" lon="6.27575">
        <ele>705.66</ele>
        <time>2024-01-31T02:25:46Z</time>
      </trkpt>
      <trkpt lat="44.06612" lon="6.27632">
        <ele>709.12</ele>
        <time>2024-01-31T02:26:10Z</time>
      </trkpt>
      <trkpt lat="44.06588" lon="6.27656">
        <ele>710.29</ele>
        <time>2024-01-31T02:26:18Z</time>
      </trkpt>
      <trkpt lat="44.06568" lon="6.27686">
        <ele>711.79</ele>
        <time>2024-01-31T02:26:26Z</time>
      </trkpt>
      <trkpt lat="44.06557" lon="6.27698">
        <ele>712.52</ele>
        <time>2024-01-31T02:26:30Z</time>
      </trkpt>
      <trkpt lat="44.06466" lon="6.27761">
        <ele>714.85</ele>
        <time>2024-01-31T02:27:02Z</time>
      </trkpt>
      <trkpt lat="44.06324" lon="6.27876">
        <ele>721.47</ele>
        <time>2024-01-31T02:28:03Z</time>
      </trkpt>
      <trkpt lat="44.06283" lon="6.27903">
        <ele>722.51</ele>
        <time>2024-01-31T02:28:20Z</time>
      </trkpt>
      <trkpt lat="44.06261" lon="6.27917">
        <ele>723.29</ele>
        <time>2024-01-31T02:28:28Z</time>
      </trkpt>
      <trkpt lat="44.06226" lon="6.2795">
        <ele>725.66</ele>
        <time>2024-01-31T02:28:42Z</time>
      </trkpt>
      <trkpt lat="44.06146" lon="6.27997">
        <ele>726.21</ele>
        <time>2024-01-31T02:29:07Z</time>
      </trkpt>
      <trkpt lat="44.0607" lon="6.28113">
        <ele>731.55</ele>
        <time>2024-01-31T02:29:42Z</time>
      </trkpt>
      <trkpt lat="44.06051" lon="6.28148">
        <ele>734.53</ele>
        <time>2024-01-31T02:29:53Z</time>
      </trkpt>
      <trkpt lat="44.06018" lon="6.28219">
        <ele>740.36</ele>
        <time>2024-01-31T02:30:17Z</time>
      </trkpt>
      <trkpt lat="44.05947" lon="6.28351">
        <ele>748.87</ele>
        <time>2024-01-31T02:31:08Z</time>
      </trkpt>
      <trkpt lat="44.05942" lon="6.28365">
        <ele>749.08</ele>
        <time>2024-01-31T02:31:12Z</time>
      </trkpt>
      <trkpt lat="44.05938" lon="6.28396">
        <ele>752.08</ele>
        <time>2024-01-31T02:31:21Z</time>
      </trkpt>
      <trkpt lat="44.05933" lon="6.28409">
        <ele>753.31</ele>
        <time>2024-01-31T02:31:25Z</time>
      </trkpt>
      <trkpt lat="44.05902" lon="6.28434">
        <ele>751.91</ele>
        <time>2024-01-31T02:31:39Z</time>
      </trkpt>
      <trkpt lat="44.05853" lon="6.28499">
        <ele>755.76</ele>
        <time>2024-01-31T02:32:04Z</time>
      </trkpt>
      <trkpt lat="44.05797" lon="6.28547">
        <ele>756.9</ele>
        <time>2024-01-31T02:32:29Z</time>
      </trkpt>
      <trkpt lat="44.05742" lon="6.28644">
        <ele>756.01</ele>
        <time>2024-01-31T02:33:01Z</time>
      </trkpt>
      <trkpt lat="44.05728" lon="6.28672">
        <ele>758.07</ele>
        <time>2024-01-31T02:33:10Z</time>
      </trkpt>
      <trkpt lat="44.05722" lon="6.28695">
        <ele>755.9</ele>
        <time>2024-01-31T02:33:17Z</time>
      </trkpt>
      <trkpt lat="44.057" lon="6.28826">
        <ele>764.79</ele>
        <time>2024-01-31T02:33:52Z</time>
      </trkpt>
      <trkpt lat="44.05687" lon="6.28879">
        <ele>765.3</ele>
        <time>2024-01-31T02:34:05Z</time>
      </trkpt>
      <trkpt lat="44.05681" lon="6.28896">
        <ele>766.15</ele>
        <time>2024-01-31T02:34:09Z</time>
      </trkpt>
      <trkpt lat="44.05673" lon="6.28912">
        <ele>765.85</ele>
        <time>2024-01-31T02:34:14Z</time>
      </trkpt>
      <trkpt lat="44.05659" lon="6.2893">
        <ele>762.26</ele>
        <time>2024-01-31T02:34:20Z</time>
      </trkpt>
      <trkpt lat="44.05656" lon="6.28934">
        <ele>760.85</ele>
        <time>2024-01-31T02:34:22Z</time>
      </trkpt>
      <trkpt lat="44.0564" lon="6.28947">
        <ele>760.56</ele>
        <time>2024-01-31T02:34:28Z</time>
      </trkpt>
      <trkpt lat="44.05627" lon="6.28955">
        <ele>762.7</ele>
        <time>2024-01-31T02:34:34Z</time>
      </trkpt>
      <trkpt lat="44.05574" lon="6.28976">
        <ele>768.6</ele>
        <time>2024-01-31T02:34:55Z</time>
      </trkpt>
      <trkpt lat="44.05552" lon="6.28995">
        <ele>769.74</ele>
        <time>2024-01-31T02:35:07Z</time>
      </trkpt>
      <trkpt lat="44.05482" lon="6.29096">
        <ele>775.66</ele>
        <time>2024-01-31T02:35:58Z</time>
      </trkpt>
      <trkpt lat="44.05457" lon="6.2914">
        <ele>779.29</ele>
        <time>2024-01-31T02:36:19Z</time>
      </trkpt>
      <trkpt lat="44.05439" lon="6.29181">
        <ele>786.12</ele>
        <time>2024-01-31T02:36:39Z</time>
      </trkpt>
      <trkpt lat="44.05432" lon="6.29189">
        <ele>783.83</ele>
        <time>2024-01-31T02:36:44Z</time>
      </trkpt>
      <trkpt lat="44.05414" lon="6.29197">
        <ele>778.87</ele>
        <time>2024-01-31T02:36:55Z</time>
      </trkpt>
      <trkpt lat="44.05384" lon="6.29203">
        <ele>780.98</ele>
        <time>2024-01-31T02:37:11Z</time>
      </trkpt>
      <trkpt lat="44.05362" lon="6.29204">
        <ele>783.65</ele>
        <time>2024-01-31T02:37:23Z</time>
      </trkpt>
      <trkpt lat="44.05351" lon="6.29203">
        <ele>785.71</ele>
        <time>2024-01-31T02:37:28Z</time>
      </trkpt>
      <trkpt lat="44.05311" lon="6.29188">
        <ele>789.32</ele>
        <time>2024-01-31T02:37:46Z</time>
      </trkpt>
      <trkpt lat="44.05291" lon="6.29188">
        <ele>790.11</ele>
        <time>2024-01-31T02:37:55Z</time>
      </trkpt>
      <trkpt lat="44.05273" lon="6.292">
        <ele>789.53</ele>
        <time>2024-01-31T02:38:02Z</time>
      </trkpt>
      <trkpt lat="44.05252" lon="6.29225">
        <ele>789.81</ele>
        <time>2024-01-31T02:38:12Z</time>
      </trkpt>
      <trkpt lat="44.05245" lon="6.29227">
        <ele>790.62</ele>
        <time>2024-01-31T02:38:14Z</time>
      </trkpt>
      <trkpt lat="44.0524" lon="6.29225">
        <ele>791.06</ele>
        <time>2024-01-31T02:38:16Z</time>
      </trkpt>
      <trkpt lat="44.05236" lon="6.2922">
        <ele>792.22</ele>
        <time>2024-01-31T02:38:18Z</time>
      </trkpt>
      <trkpt lat="44.05236" lon="6.29212">
        <ele>792.6</ele>
        <time>2024-01-31T02:38:20Z</time>
      </trkpt>
      <trkpt lat="44.05239" lon="6.29205">
        <ele>793.01</ele>
        <time>2024-01-31T02:38:22Z</time>
      </trkpt>
      <trkpt lat="44.05266" lon="6.29173">
        <ele>797.72</ele>
        <time>2024-01-31T02:38:35Z</time>
      </trkpt>
      <trkpt lat="44.05289" lon="6.29157">
        <ele>798.39</ele>
        <time>2024-01-31T02:38:44Z</time>
      </trkpt>
      <trkpt lat="44.05287" lon="6.29148">
        <ele>800.62</ele>
        <time>2024-01-31T02:38:47Z</time>
      </trkpt>
      <trkpt lat="44.05283" lon="6.29147">
        <ele>802.25</ele>
        <time>2024-01-31T02:38:48Z</time>
      </trkpt>
      <trkpt lat="44.05253" lon="6.29164">
        <ele>802.58</ele>
        <time>2024-01-31T02:38:59Z</time>
      </trkpt>
      <trkpt lat="44.05212" lon="6.29177">
        <ele>807.63</ele>
        <time>2024-01-31T02:39:15Z</time>
      </trkpt>
      <trkpt lat="44.05144" lon="6.29192">
        <ele>808.37</ele>
        <time>2024-01-31T02:39:44Z</time>
      </trkpt>
      <trkpt lat="44.05106" lon="6.29193">
        <ele>814.91</ele>
        <time>2024-01-31T02:40:02Z</time>
      </trkpt>
      <trkpt lat="44.05084" lon="6.29199">
        <ele>820.52</ele>
        <time>2024-01-31T02:40:14Z</time>
      </trkpt>
      <trkpt lat="44.05063" lon="6.29214">
        <ele>819.57</ele>
        <time>2024-01-31T02:40:26Z</time>
      </trkpt>
      <trkpt lat="44.0503" lon="6.29256">
        <ele>827.18</ele>
        <time>2024-01-31T02:40:49Z</time>
      </trkpt>
      <trkpt lat="44.05011" lon="6.29267">
        <ele>833</ele>
        <time>2024-01-31T02:41:00Z</time>
      </trkpt>
      <trkpt lat="44.04969" lon="6.29267">
        <ele>836.66</ele>
        <time>2024-01-31T02:41:22Z</time>
      </trkpt>
      <trkpt lat="44.04963" lon="6.29266">
        <ele>838.32</ele>
        <time>2024-01-31T02:41:24Z</time>
      </trkpt>
      <trkpt lat="44.0496" lon="6.29261">
        <ele>840.9</ele>
        <time>2024-01-31T02:41:27Z</time>
      </trkpt>
      <trkpt lat="44.04959" lon="6.29255">
        <ele>844.13</ele>
        <time>2024-01-31T02:41:29Z</time>
      </trkpt>
      <trkpt lat="44.04967" lon="6.29246">
        <ele>845.58</ele>
        <time>2024-01-31T02:41:35Z</time>
      </trkpt>
      <trkpt lat="44.05025" lon="6.29214">
        <ele>838.06</ele>
        <time>2024-01-31T02:42:07Z</time>
      </trkpt>
      <trkpt lat="44.05029" lon="6.2921">
        <ele>837.31</ele>
        <time>2024-01-31T02:42:09Z</time>
      </trkpt>
      <trkpt lat="44.05029" lon="6.29206">
        <ele>838.53</ele>
        <time>2024-01-31T02:42:11Z</time>
      </trkpt>
      <trkpt lat="44.05026" lon="6.29201">
        <ele>841.54</ele>
        <time>2024-01-31T02:42:13Z</time>
      </trkpt>
      <trkpt lat="44.05017" lon="6.29198">
        <ele>846.08</ele>
        <time>2024-01-31T02:42:18Z</time>
      </trkpt>
      <trkpt lat="44.04972" lon="6.29213">
        <ele>854.71</ele>
        <time>2024-01-31T02:42:40Z</time>
      </trkpt>
      <trkpt lat="44.04951" lon="6.29224">
        <ele>855.67</ele>
        <time>2024-01-31T02:42:51Z</time>
      </trkpt>
      <trkpt lat="44.04924" lon="6.29254">
        <ele>853.5</ele>
        <time>2024-01-31T02:43:08Z</time>
      </trkpt>
      <trkpt lat="44.04863" lon="6.2928">
        <ele>863.7</ele>
        <time>2024-01-31T02:43:40Z</time>
      </trkpt>
      <trkpt lat="44.04824" lon="6.293">
        <ele>859.51</ele>
        <time>2024-01-31T02:44:01Z</time>
      </trkpt>
      <trkpt lat="44.04745" lon="6.29328">
        <ele>864.74</ele>
        <time>2024-01-31T02:44:42Z</time>
      </trkpt>
      <trkpt lat="44.04709" lon="6.29357">
        <ele>858.5</ele>
        <time>2024-01-31T02:45:04Z</time>
      </trkpt>
      <trkpt lat="44.04688" lon="6.29357">
        <ele>862.28</ele>
        <time>2024-01-31T02:45:15Z</time>
      </trkpt>
      <trkpt lat="44.04662" lon="6.29353">
        <ele>868.21</ele>
        <time>2024-01-31T02:45:28Z</time>
      </trkpt>
      <trkpt lat="44.04634" lon="6.29356">
        <ele>870.54</ele>
        <time>2024-01-31T02:45:43Z</time>
      </trkpt>
      <trkpt lat="44.04592" lon="6.29368">
        <ele>874.34</ele>
        <time>2024-01-31T02:46:07Z</time>
      </trkpt>
      <trkpt lat="44.04541" lon="6.2939">
        <ele>877.65</ele>
        <time>2024-01-31T02:46:38Z</time>
      </trkpt>
      <trkpt lat="44.04529" lon="6.29393">
        <ele>878.67</ele>
        <time>2024-01-31T02:46:45Z</time>
      </trkpt>
      <trkpt lat="44.04505" lon="6.29393">
        <ele>881.51</ele>
        <time>2024-01-31T02:46:59Z</time>
      </trkpt>
      <trkpt lat="44.04493" lon="6.29382">
        <ele>887.69</ele>
        <time>2024-01-31T02:47:08Z</time>
      </trkpt>
      <trkpt lat="44.04454" lon="6.29373">
        <ele>893.91</ele>
        <time>2024-01-31T02:47:31Z</time>
      </trkpt>
      <trkpt lat="44.04397" lon="6.29366">
        <ele>903.79</ele>
        <time>2024-01-31T02:48:05Z</time>
      </trkpt>
      <trkpt lat="44.04375" lon="6.29371">
        <ele>904.44</ele>
        <time>2024-01-31T02:48:18Z</time>
      </trkpt>
      <trkpt lat="44.04312" lon="6.29417">
        <ele>907.04</ele>
        <time>2024-01-31T02:49:06Z</time>
      </trkpt>
      <trkpt lat="44.04276" lon="6.2943">
        <ele>911.35</ele>
        <time>2024-01-31T02:49:31Z</time>
      </trkpt>
      <trkpt lat="44.0426" lon="6.29431">
        <ele>913.27</ele>
        <time>2024-01-31T02:49:41Z</time>
      </trkpt>
      <trkpt lat="44.04158" lon="6.29389">
        <ele>935.08</ele>
        <time>2024-01-31T02:50:52Z</time>
      </trkpt>
      <trkpt lat="44.04149" lon="6.29393">
        <ele>935.17</ele>
        <time>2024-01-31T02:50:59Z</time>
      </trkpt>
      <trkpt lat="44.04132" lon="6.29412">
        <ele>933.63</ele>
        <time>2024-01-31T02:51:13Z</time>
      </trkpt>
      <trkpt lat="44.04086" lon="6.29439">
        <ele>938.04</ele>
        <time>2024-01-31T02:51:47Z</time>
      </trkpt>
      <trkpt lat="44.0402" lon="6.29438">
        <ele>948.26</ele>
        <time>2024-01-31T02:52:26Z</time>
      </trkpt>
      <trkpt lat="44.04007" lon="6.29442">
        <ele>948.43</ele>
        <time>2024-01-31T02:52:34Z</time>
      </trkpt>
      <trkpt lat="44.03907" lon="6.2951">
        <ele>953.44</ele>
        <time>2024-01-31T02:53:36Z</time>
      </trkpt>
      <trkpt lat="44.03877" lon="6.29515">
        <ele>958.67</ele>
        <time>2024-01-31T02:53:52Z</time>
      </trkpt>
      <trkpt lat="44.03829" lon="6.29508">
        <ele>966.93</ele>
        <time>2024-01-31T02:54:17Z</time>
      </trkpt>
      <trkpt lat="44.03817" lon="6.2951">
        <ele>967.25</ele>
        <time>2024-01-31T02:54:24Z</time>
      </trkpt>
      <trkpt lat="44.038" lon="6.29519">
        <ele>967.67</ele>
        <time>2024-01-31T02:54:33Z</time>
      </trkpt>
      <trkpt lat="44.03772" lon="6.29527">
        <ele>970.18</ele>
        <time>2024-01-31T02:54:49Z</time>
      </trkpt>
      <trkpt lat="44.03753" lon="6.29526">
        <ele>973.04</ele>
        <time>2024-01-31T02:54:59Z</time>
      </trkpt>
      <trkpt lat="44.03653" lon="6.29505">
        <ele>986.11</ele>
        <time>2024-01-31T02:55:58Z</time>
      </trkpt>
      <trkpt lat="44.03608" lon="6.29504">
        <ele>990.99</ele>
        <time>2024-01-31T02:56:25Z</time>
      </trkpt>
      <trkpt lat="44.03552" lon="6.29512">
        <ele>998.22</ele>
        <time>2024-01-31T02:56:59Z</time>
      </trkpt>
      <trkpt lat="44.03482" lon="6.29534">
        <ele>1008.94</ele>
        <time>2024-01-31T02:57:37Z</time>
      </trkpt>
      <trkpt lat="44.03451" lon="6.29562">
        <ele>1011.6</ele>
        <time>2024-01-31T02:57:55Z</time>
      </trkpt>
      <trkpt lat="44.03425" lon="6.29592">
        <ele>1013.69</ele>
        <time>2024-01-31T02:58:10Z</time>
      </trkpt>
      <trkpt lat="44.03405" lon="6.29603">
        <ele>1015.73</ele>
        <time>2024-01-31T02:58:19Z</time>
      </trkpt>
      <trkpt lat="44.03388" lon="6.29605">
        <ele>1018.16</ele>
        <time>2024-01-31T02:58:26Z</time>
      </trkpt>
      <trkpt lat="44.03382" lon="6.2961">
        <ele>1018.65</ele>
        <time>2024-01-31T02:58:29Z</time>
      </trkpt>
      <trkpt lat="44.03377" lon="6.2962">
        <ele>1019.07</ele>
        <time>2024-01-31T02:58:33Z</time>
      </trkpt>
      <trkpt lat="44.03365" lon="6.29656">
        <ele>1017.32</ele>
        <time>2024-01-31T02:58:44Z</time>
      </trkpt>
      <trkpt lat="44.03359" lon="6.29665">
        <ele>1016.57</ele>
        <time>2024-01-31T02:58:48Z</time>
      </trkpt>
      <trkpt lat="44.03341" lon="6.29676">
        <ele>1018.1</ele>
        <time>2024-01-31T02:58:57Z</time>
      </trkpt>
      <trkpt lat="44.03262" lon="6.29677">
        <ele>1025.81</ele>
        <time>2024-01-31T02:59:36Z</time>
      </trkpt>
      <trkpt lat="44.03242" lon="6.29674">
        <ele>1027.72</ele>
        <time>2024-01-31T02:59:48Z</time>
      </trkpt>
      <trkpt lat="44.03225" lon="6.29659">
        <ele>1031.13</ele>
        <time>2024-01-31T03:00:01Z</time>
      </trkpt>
      <trkpt lat="44.03206" lon="6.29626">
        <ele>1036.82</ele>
        <time>2024-01-31T03:00:21Z</time>
      </trkpt>
      <trkpt lat="44.032" lon="6.29618">
        <ele>1037.31</ele>
        <time>2024-01-31T03:00:27Z</time>
      </trkpt>
      <trkpt lat="44.03194" lon="6.29615">
        <ele>1037.98</ele>
        <time>2024-01-31T03:00:31Z</time>
      </trkpt>
      <trkpt lat="44.03163" lon="6.29632">
        <ele>1038.34</ele>
        <time>2024-01-31T03:00:56Z</time>
      </trkpt>
      <trkpt lat="44.03128" lon="6.29627">
        <ele>1044.62</ele>
        <time>2024-01-31T03:01:22Z</time>
      </trkpt>
      <trkpt lat="44.0312" lon="6.29639">
        <ele>1043.51</ele>
        <time>2024-01-31T03:01:31Z</time>
      </trkpt>
      <trkpt lat="44.03113" lon="6.29659">
        <ele>1041.55</ele>
        <time>2024-01-31T03:01:43Z</time>
      </trkpt>
      <trkpt lat="44.03097" lon="6.29677">
        <ele>1041.93</ele>
        <time>2024-01-31T03:01:59Z</time>
      </trkpt>
      <trkpt lat="44.03046" lon="6.29704">
        <ele>1051.16</ele>
        <time>2024-01-31T03:02:34Z</time>
      </trkpt>
      <trkpt lat="44.03009" lon="6.29712">
        <ele>1056.53</ele>
        <time>2024-01-31T03:02:53Z</time>
      </trkpt>
      <trkpt lat="44.02973" lon="6.29721">
        <ele>1060.31</ele>
        <time>2024-01-31T03:03:07Z</time>
      </trkpt>
      <trkpt lat="44.02935" lon="6.29739">
        <ele>1064.17</ele>
        <time>2024-01-31T03:03:19Z</time>
      </trkpt>
      <trkpt lat="44.0293" lon="6.29742">
        <ele>1064.52</ele>
        <time>2024-01-31T03:03:20Z</time>
      </trkpt>
      <trkpt lat="44.02898" lon="6.29757">
        <ele>1065.23</ele>
        <time>2024-01-31T03:03:25Z</time>
      </trkpt>
      <trkpt lat="44.02873" lon="6.29774">
        <ele>1064.07</ele>
        <time>2024-01-31T03:03:29Z</time>
      </trkpt>
      <trkpt lat="44.02836" lon="6.29812">
        <ele>1061.6</ele>
        <time>2024-01-31T03:03:35Z</time>
      </trkpt>
      <trkpt lat="44.02802" lon="6.29854">
        <ele>1058.47</ele>
        <time>2024-01-31T03:03:41Z</time>
      </trkpt>
      <trkpt lat="44.0277" lon="6.29884">
        <ele>1056.35</ele>
        <time>2024-01-31T03:03:45Z</time>
      </trkpt>
      <trkpt lat="44.02743" lon="6.29935">
        <ele>1059.51</ele>
        <time>2024-01-31T03:03:51Z</time>
      </trkpt>
      <trkpt lat="44.02734" lon="6.29946">
        <ele>1059.75</ele>
        <time>2024-01-31T03:03:52Z</time>
      </trkpt>
      <trkpt lat="44.02678" lon="6.29992">
        <ele>1058.55</ele>
        <time>2024-01-31T03:04:01Z</time>
      </trkpt>
      <trkpt lat="44.02671" lon="6.30004">
        <ele>1058.86</ele>
        <time>2024-01-31T03:04:02Z</time>
      </trkpt>
      <trkpt lat="44.02666" lon="6.30019">
        <ele>1057.51</ele>
        <time>2024-01-31T03:04:04Z</time>
      </trkpt>
      <trkpt lat="44.0266" lon="6.30049">
        <ele>1052.15</ele>
        <time>2024-01-31T03:04:07Z</time>
      </trkpt>
      <trkpt lat="44.02655" lon="6.30062">
        <ele>1051.39</ele>
        <time>2024-01-31T03:04:08Z</time>
      </trkpt>
      <trkpt lat="44.02648" lon="6.30072">
        <ele>1050.96</ele>
        <time>2024-01-31T03:04:09Z</time>
      </trkpt>
      <trkpt lat="44.02618" lon="6.30093">
        <ele>1050.45</ele>
        <time>2024-01-31T03:04:14Z</time>
      </trkpt>
      <trkpt lat="44.02598" lon="6.30101">
        <ele>1050.18</ele>
        <time>2024-01-31T03:04:16Z</time>
      </trkpt>
      <trkpt lat="44.02589" lon="6.30102">
        <ele>1049.92</ele>
        <time>2024-01-31T03:04:18Z</time>
      </trkpt>
      <trkpt lat="44.0258" lon="6.30098">
        <ele>1049.28</ele>
        <time>2024-01-31T03:04:19Z</time>
      </trkpt>
      <trkpt lat="44.02564" lon="6.30084">
        <ele>1048.24</ele>
        <time>2024-01-31T03:04:22Z</time>
      </trkpt>
      <trkpt lat="44.02553" lon="6.3008">
        <ele>1048.26</ele>
        <time>2024-01-31T03:04:23Z</time>
      </trkpt>
      <trkpt lat="44.02541" lon="6.30081">
        <ele>1048.89</ele>
        <time>2024-01-31T03:04:25Z</time>
      </trkpt>
      <trkpt lat="44.02517" lon="6.30094">
        <ele>1050.45</ele>
        <time>2024-01-31T03:04:28Z</time>
      </trkpt>
      <trkpt lat="44.02493" lon="6.30115">
        <ele>1049.76</ele>
        <time>2024-01-31T03:04:32Z</time>
      </trkpt>
      <trkpt lat="44.02446" lon="6.30176">
        <ele>1044.99</ele>
        <time>2024-01-31T03:04:41Z</time>
      </trkpt>
      <trkpt lat="44.02329" lon="6.30351">
        <ele>1043.77</ele>
        <time>2024-01-31T03:05:11Z</time>
      </trkpt>
      <trkpt lat="44.02303" lon="6.30377">
        <ele>1042.69</ele>
        <time>2024-01-31T03:05:17Z</time>
      </trkpt>
      <trkpt lat="44.02259" lon="6.30408">
        <ele>1039.13</ele>
        <time>2024-01-31T03:05:28Z</time>
      </trkpt>
      <trkpt lat="44.02251" lon="6.30418">
        <ele>1038.46</ele>
        <time>2024-01-31T03:05:31Z</time>
      </trkpt>
      <trkpt lat="44.02234" lon="6.30458">
        <ele>1039.45</ele>
        <time>2024-01-31T03:05:41Z</time>
      </trkpt>
      <trkpt lat="44.02224" lon="6.30467">
        <ele>1041.31</ele>
        <time>2024-01-31T03:05:44Z</time>
      </trkpt>
      <trkpt lat="44.02208" lon="6.30467">
        <ele>1043.07</ele>
        <time>2024-01-31T03:05:48Z</time>
      </trkpt>
      <trkpt lat="44.02187" lon="6.30463">
        <ele>1042.9</ele>
        <time>2024-01-31T03:05:54Z</time>
      </trkpt>
      <trkpt lat="44.02177" lon="6.30465">
        <ele>1042.09</ele>
        <time>2024-01-31T03:05:56Z</time>
      </trkpt>
      <trkpt lat="44.02169" lon="6.30471">
        <ele>1041.78</ele>
        <time>2024-01-31T03:05:58Z</time>
      </trkpt>
      <trkpt lat="44.02163" lon="6.30482">
        <ele>1041.86</ele>
        <time>2024-01-31T03:06:00Z</time>
      </trkpt>
      <trkpt lat="44.0216" lon="6.30495">
        <ele>1042.33</ele>
        <time>2024-01-31T03:06:02Z</time>
      </trkpt>
      <trkpt lat="44.02156" lon="6.30554">
        <ele>1041.39</ele>
        <time>2024-01-31T03:06:11Z</time>
      </trkpt>
      <trkpt lat="44.02152" lon="6.30564">
        <ele>1042.04</ele>
        <time>2024-01-31T03:06:12Z</time>
      </trkpt>
      <trkpt lat="44.02144" lon="6.3057">
        <ele>1042.35</ele>
        <time>2024-01-31T03:06:14Z</time>
      </trkpt>
      <trkpt lat="44.02134" lon="6.30571">
        <ele>1042.52</ele>
        <time>2024-01-31T03:06:16Z</time>
      </trkpt>
      <trkpt lat="44.02124" lon="6.30568">
        <ele>1042.31</ele>
        <time>2024-01-31T03:06:18Z</time>
      </trkpt>
      <trkpt lat="44.02076" lon="6.30521">
        <ele>1038.27</ele>
        <time>2024-01-31T03:06:29Z</time>
      </trkpt>
      <trkpt lat="44.02067" lon="6.30519">
        <ele>1038.26</ele>
        <time>2024-01-31T03:06:31Z</time>
      </trkpt>
      <trkpt lat="44.02058" lon="6.30521">
        <ele>1040.01</ele>
        <time>2024-01-31T03:06:33Z</time>
      </trkpt>
      <trkpt lat="44.02049" lon="6.30528">
        <ele>1040.75</ele>
        <time>2024-01-31T03:06:35Z</time>
      </trkpt>
      <trkpt lat="44.01934" lon="6.30668">
        <ele>1044.55</ele>
        <time>2024-01-31T03:07:04Z</time>
      </trkpt>
      <trkpt lat="44.01853" lon="6.30757">
        <ele>1044.57</ele>
        <time>2024-01-31T03:07:31Z</time>
      </trkpt>
      <trkpt lat="44.01847" lon="6.30763">
        <ele>1044.21</ele>
        <time>2024-01-31T03:07:33Z</time>
      </trkpt>
      <trkpt lat="44.01796" lon="6.30821">
        <ele>1041.01</ele>
        <time>2024-01-31T03:07:52Z</time>
      </trkpt>
      <trkpt lat="44.01753" lon="6.30854">
        <ele>1036.34</ele>
        <time>2024-01-31T03:08:07Z</time>
      </trkpt>
      <trkpt lat="44.01734" lon="6.30862">
        <ele>1035.21</ele>
        <time>2024-01-31T03:08:13Z</time>
      </trkpt>
      <trkpt lat="44.01731" lon="6.30863">
        <ele>1034.8</ele>
        <time>2024-01-31T03:08:14Z</time>
      </trkpt>
      <trkpt lat="44.01712" lon="6.30867">
        <ele>1034.31</ele>
        <time>2024-01-31T03:08:20Z</time>
      </trkpt>
      <trkpt lat="44.01696" lon="6.30866">
        <ele>1033.91</ele>
        <time>2024-01-31T03:08:25Z</time>
      </trkpt>
      <trkpt lat="44.01656" lon="6.30897">
        <ele>1039.99</ele>
        <time>2024-01-31T03:08:36Z</time>
      </trkpt>
      <trkpt lat="44.01639" lon="6.30898">
        <ele>1041.06</ele>
        <time>2024-01-31T03:08:39Z</time>
      </trkpt>
      <trkpt lat="44.01605" lon="6.30889">
        <ele>1040.71</ele>
        <time>2024-01-31T03:08:44Z</time>
      </trkpt>
      <trkpt lat="44.01589" lon="6.30888">
        <ele>1039.98</ele>
        <time>2024-01-31T03:08:46Z</time>
      </trkpt>
      <trkpt lat="44.01541" lon="6.30895">
        <ele>1039.87</ele>
        <time>2024-01-31T03:08:53Z</time>
      </trkpt>
      <trkpt lat="44.01519" lon="6.30895">
        <ele>1041.55</ele>
        <time>2024-01-31T03:08:55Z</time>
      </trkpt>
      <trkpt lat="44.01498" lon="6.30886">
        <ele>1043.11</ele>
        <time>2024-01-31T03:08:58Z</time>
      </trkpt>
      <trkpt lat="44.01463" lon="6.30851">
        <ele>1041.69</ele>
        <time>2024-01-31T03:09:04Z</time>
      </trkpt>
      <trkpt lat="44.01448" lon="6.30842">
        <ele>1043.53</ele>
        <time>2024-01-31T03:09:07Z</time>
      </trkpt>
      <trkpt lat="44.01434" lon="6.30848">
        <ele>1046.33</ele>
        <time>2024-01-31T03:09:10Z</time>
      </trkpt>
      <trkpt lat="44.0142" lon="6.30863">
        <ele>1046.71</ele>
        <time>2024-01-31T03:09:12Z</time>
      </trkpt>
      <trkpt lat="44.01416" lon="6.30872">
        <ele>1046.37</ele>
        <time>2024-01-31T03:09:14Z</time>
      </trkpt>
      <trkpt lat="44.01414" lon="6.30896">
        <ele>1046.16</ele>
        <time>2024-01-31T03:09:17Z</time>
      </trkpt>
      <trkpt lat="44.01408" lon="6.31028">
        <ele>1053.63</ele>
        <time>2024-01-31T03:09:38Z</time>
      </trkpt>
      <trkpt lat="44.01399" lon="6.31049">
        <ele>1056.49</ele>
        <time>2024-01-31T03:09:43Z</time>
      </trkpt>
      <trkpt lat="44.01384" lon="6.31066">
        <ele>1054.7</ele>
        <time>2024-01-31T03:09:48Z</time>
      </trkpt>
      <trkpt lat="44.01358" lon="6.31089">
        <ele>1057.4</ele>
        <time>2024-01-31T03:09:55Z</time>
      </trkpt>
      <trkpt lat="44.01326" lon="6.31128">
        <ele>1064.13</ele>
        <time>2024-01-31T03:10:01Z</time>
      </trkpt>
      <trkpt lat="44.01308" lon="6.31145">
        <ele>1064.62</ele>
        <time>2024-01-31T03:10:04Z</time>
      </trkpt>
      <trkpt lat="44.01289" lon="6.31155">
        <ele>1062.35</ele>
        <time>2024-01-31T03:10:07Z</time>
      </trkpt>
      <trkpt lat="44.01224" lon="6.31168">
        <ele>1053.61</ele>
        <time>2024-01-31T03:10:18Z</time>
      </trkpt>
      <trkpt lat="44.01208" lon="6.31178">
        <ele>1050.8</ele>
        <time>2024-01-31T03:10:22Z</time>
      </trkpt>
      <trkpt lat="44.01197" lon="6.31197">
        <ele>1051.27</ele>
        <time>2024-01-31T03:10:29Z</time>
      </trkpt>
      <trkpt lat="44.01193" lon="6.31209">
        <ele>1052.48</ele>
        <time>2024-01-31T03:10:32Z</time>
      </trkpt>
      <trkpt lat="44.01192" lon="6.31222">
        <ele>1055.09</ele>
        <time>2024-01-31T03:10:37Z</time>
      </trkpt>
      <trkpt lat="44.01192" lon="6.31263">
        <ele>1061.74</ele>
        <time>2024-01-31T03:10:52Z</time>
      </trkpt>
      <trkpt lat="44.01196" lon="6.31303">
        <ele>1062.08</ele>
        <time>2024-01-31T03:11:09Z</time>
      </trkpt>
      <trkpt lat="44.01205" lon="6.31326">
        <ele>1065.92</ele>
        <time>2024-01-31T03:11:21Z</time>
      </trkpt>
      <trkpt lat="44.01233" lon="6.31351">
        <ele>1069.56</ele>
        <time>2024-01-31T03:11:47Z</time>
      </trkpt>
      <trkpt lat="44.01251" lon="6.31375">
        <ele>1068.89</ele>
        <time>2024-01-31T03:12:08Z</time>
      </trkpt>
      <trkpt lat="44.01257" lon="6.31389">
        <ele>1070.43</ele>
        <time>2024-01-31T03:12:19Z</time>
      </trkpt>
      <trkpt lat="44.01262" lon="6.31406">
        <ele>1074.64</ele>
        <time>2024-01-31T03:12:30Z</time>
      </trkpt>
      <trkpt lat="44.01264" lon="6.31421">
        <ele>1076.3</ele>
        <time>2024-01-31T03:12:40Z</time>
      </trkpt>
      <trkpt lat="44.0127" lon="6.31493">
        <ele>1082.82</ele>
        <time>2024-01-31T03:13:24Z</time>
      </trkpt>
      <trkpt lat="44.0127" lon="6.31526">
        <ele>1086.14</ele>
        <time>2024-01-31T03:13:43Z</time>
      </trkpt>
      <trkpt lat="44.01261" lon="6.31557">
        <ele>1087.46</ele>
        <time>2024-01-31T03:14:01Z</time>
      </trkpt>
      <trkpt lat="44.01247" lon="6.31584">
        <ele>1083.72</ele>
        <time>2024-01-31T03:14:17Z</time>
      </trkpt>
      <trkpt lat="44.01237" lon="6.31594">
        <ele>1084.42</ele>
        <time>2024-01-31T03:14:24Z</time>
      </trkpt>
      <trkpt lat="44.01225" lon="6.31601">
        <ele>1090.49</ele>
        <time>2024-01-31T03:14:32Z</time>
      </trkpt>
      <trkpt lat="44.01139" lon="6.31629">
        <ele>1095.37</ele>
        <time>2024-01-31T03:15:18Z</time>
      </trkpt>
      <trkpt lat="44.01117" lon="6.31639">
        <ele>1095.18</ele>
        <time>2024-01-31T03:15:30Z</time>
      </trkpt>
      <trkpt lat="44.01089" lon="6.31661">
        <ele>1094.52</ele>
        <time>2024-01-31T03:15:46Z</time>
      </trkpt>
      <trkpt lat="44.0108" lon="6.31676">
        <ele>1097.76</ele>
        <time>2024-01-31T03:15:53Z</time>
      </trkpt>
      <trkpt lat="44.01081" lon="6.31684">
        <ele>1098.79</ele>
        <time>2024-01-31T03:15:55Z</time>
      </trkpt>
      <trkpt lat="44.01085" lon="6.31688">
        <ele>1100.7</ele>
        <time>2024-01-31T03:15:58Z</time>
      </trkpt>
      <trkpt lat="44.01091" lon="6.31688">
        <ele>1101.58</ele>
        <time>2024-01-31T03:16:01Z</time>
      </trkpt>
      <trkpt lat="44.01111" lon="6.31671">
        <ele>1103.17</ele>
        <time>2024-01-31T03:16:12Z</time>
      </trkpt>
      <trkpt lat="44.0112" lon="6.31668">
        <ele>1103.75</ele>
        <time>2024-01-31T03:16:17Z</time>
      </trkpt>
      <trkpt lat="44.01141" lon="6.31672">
        <ele>1106.89</ele>
        <time>2024-01-31T03:16:29Z</time>
      </trkpt>
      <trkpt lat="44.01168" lon="6.31687">
        <ele>1110.46</ele>
        <time>2024-01-31T03:16:43Z</time>
      </trkpt>
      <trkpt lat="44.01186" lon="6.31701">
        <ele>1113.65</ele>
        <time>2024-01-31T03:16:54Z</time>
      </trkpt>
      <trkpt lat="44.01204" lon="6.31729">
        <ele>1117.54</ele>
        <time>2024-01-31T03:17:08Z</time>
      </trkpt>
      <trkpt lat="44.01212" lon="6.31747">
        <ele>1119.87</ele>
        <time>2024-01-31T03:17:15Z</time>
      </trkpt>
      <trkpt lat="44.0121" lon="6.31753">
        <ele>1122.1</ele>
        <time>2024-01-31T03:17:18Z</time>
      </trkpt>
      <trkpt lat="44.01205" lon="6.31758">
        <ele>1123.77</ele>
        <time>2024-01-31T03:17:21Z</time>
      </trkpt>
      <trkpt lat="44.01198" lon="6.31759">
        <ele>1124.59</ele>
        <time>2024-01-31T03:17:25Z</time>
      </trkpt>
      <trkpt lat="44.01165" lon="6.31735">
        <ele>1122.14</ele>
        <time>2024-01-31T03:17:46Z</time>
      </trkpt>
      <trkpt lat="44.01157" lon="6.31733">
        <ele>1122.53</ele>
        <time>2024-01-31T03:17:51Z</time>
      </trkpt>
      <trkpt lat="44.01142" lon="6.31736">
        <ele>1124.34</ele>
        <time>2024-01-31T03:18:00Z</time>
      </trkpt>
      <trkpt lat="44.01123" lon="6.3175">
        <ele>1125.77</ele>
        <time>2024-01-31T03:18:13Z</time>
      </trkpt>
      <trkpt lat="44.011" lon="6.31778">
        <ele>1126.98</ele>
        <time>2024-01-31T03:18:32Z</time>
      </trkpt>
      <trkpt lat="44.01092" lon="6.31794">
        <ele>1127.41</ele>
        <time>2024-01-31T03:18:41Z</time>
      </trkpt>
      <trkpt lat="44.01093" lon="6.31799">
        <ele>1128.28</ele>
        <time>2024-01-31T03:18:44Z</time>
      </trkpt>
      <trkpt lat="44.01099" lon="6.31804">
        <ele>1131.73</ele>
        <time>2024-01-31T03:18:49Z</time>
      </trkpt>
      <trkpt lat="44.01122" lon="6.3179">
        <ele>1134.7</ele>
        <time>2024-01-31T03:19:05Z</time>
      </trkpt>
      <trkpt lat="44.01137" lon="6.31794">
        <ele>1136.92</ele>
        <time>2024-01-31T03:19:15Z</time>
      </trkpt>
      <trkpt lat="44.01145" lon="6.31807">
        <ele>1138.79</ele>
        <time>2024-01-31T03:19:24Z</time>
      </trkpt>
      <trkpt lat="44.01151" lon="6.31837">
        <ele>1142.93</ele>
        <time>2024-01-31T03:19:40Z</time>
      </trkpt>
      <trkpt lat="44.01155" lon="6.31846">
        <ele>1143.69</ele>
        <time>2024-01-31T03:19:45Z</time>
      </trkpt>
      <trkpt lat="44.01166" lon="6.31853">
        <ele>1144.02</ele>
        <time>2024-01-31T03:19:54Z</time>
      </trkpt>
      <trkpt lat="44.01186" lon="6.31853">
        <ele>1143.51</ele>
        <time>2024-01-31T03:20:10Z</time>
      </trkpt>
      <trkpt lat="44.01198" lon="6.31861">
        <ele>1145.22</ele>
        <time>2024-01-31T03:20:20Z</time>
      </trkpt>
      <trkpt lat="44.01193" lon="6.31874">
        <ele>1146.07</ele>
        <time>2024-01-31T03:20:29Z</time>
      </trkpt>
      <trkpt lat="44.01159" lon="6.31884">
        <ele>1146.88</ele>
        <time>2024-01-31T03:20:57Z</time>
      </trkpt>
      <trkpt lat="44.01133" lon="6.31905">
        <ele>1152.84</ele>
        <time>2024-01-31T03:21:22Z</time>
      </trkpt>
      <trkpt lat="44.01104" lon="6.31909">
        <ele>1152.77</ele>
        <time>2024-01-31T03:21:46Z</time>
      </trkpt>
      <trkpt lat="44.01101" lon="6.31913">
        <ele>1153.34</ele>
        <time>2024-01-31T03:21:49Z</time>
      </trkpt>
      <trkpt lat="44.01099" lon="6.31928">
        <ele>1156.71</ele>
        <time>2024-01-31T03:21:59Z</time>
      </trkpt>
      <trkpt lat="44.01103" lon="6.31936">
        <ele>1159.23</ele>
        <time>2024-01-31T03:22:05Z</time>
      </trkpt>
      <trkpt lat="44.01115" lon="6.3195">
        <ele>1164.45</ele>
        <time>2024-01-31T03:22:18Z</time>
      </trkpt>
      <trkpt lat="44.01137" lon="6.31968">
        <ele>1166.12</ele>
        <time>2024-01-31T03:22:39Z</time>
      </trkpt>
      <trkpt lat="44.01168" lon="6.31972">
        <ele>1163.25</ele>
        <time>2024-01-31T03:23:04Z</time>
      </trkpt>
      <trkpt lat="44.01174" lon="6.31975">
        <ele>1163.27</ele>
        <time>2024-01-31T03:23:09Z</time>
      </trkpt>
      <trkpt lat="44.01178" lon="6.31982">
        <ele>1164.4</ele>
        <time>2024-01-31T03:23:14Z</time>
      </trkpt>
      <trkpt lat="44.01178" lon="6.3199">
        <ele>1165.98</ele>
        <time>2024-01-31T03:23:18Z</time>
      </trkpt>
      <trkpt lat="44.01175" lon="6.31996">
        <ele>1167.13</ele>
        <time>2024-01-31T03:23:23Z</time>
      </trkpt>
      <trkpt lat="44.01143" lon="6.3201">
        <ele>1171.9</ele>
        <time>2024-01-31T03:23:48Z</time>
      </trkpt>
      <trkpt lat="44.01117" lon="6.32017">
        <ele>1176.37</ele>
        <time>2024-01-31T03:24:06Z</time>
      </trkpt>
      <trkpt lat="44.01102" lon="6.32015">
        <ele>1176.77</ele>
        <time>2024-01-31T03:24:16Z</time>
      </trkpt>
      <trkpt lat="44.01078" lon="6.32003">
        <ele>1172.78</ele>
        <time>2024-01-31T03:24:32Z</time>
      </trkpt>
      <trkpt lat="44.01073" lon="6.32006">
        <ele>1172.86</ele>
        <time>2024-01-31T03:24:35Z</time>
      </trkpt>
      <trkpt lat="44.0107" lon="6.32011">
        <ele>1173.62</ele>
        <time>2024-01-31T03:24:38Z</time>
      </trkpt>
      <trkpt lat="44.0107" lon="6.32018">
        <ele>1173.73</ele>
        <time>2024-01-31T03:24:40Z</time>
      </trkpt>
      <trkpt lat="44.01073" lon="6.32025">
        <ele>1175.03</ele>
        <time>2024-01-31T03:24:44Z</time>
      </trkpt>
      <trkpt lat="44.01078" lon="6.3203">
        <ele>1177.18</ele>
        <time>2024-01-31T03:24:47Z</time>
      </trkpt>
      <trkpt lat="44.01102" lon="6.32042">
        <ele>1181.68</ele>
        <time>2024-01-31T03:25:01Z</time>
      </trkpt>
      <trkpt lat="44.0117" lon="6.32048">
        <ele>1182.03</ele>
        <time>2024-01-31T03:25:38Z</time>
      </trkpt>
      <trkpt lat="44.01194" lon="6.32038">
        <ele>1185.44</ele>
        <time>2024-01-31T03:25:52Z</time>
      </trkpt>
      <trkpt lat="44.01221" lon="6.32009">
        <ele>1185.08</ele>
        <time>2024-01-31T03:26:13Z</time>
      </trkpt>
      <trkpt lat="44.0123" lon="6.32011">
        <ele>1187.63</ele>
        <time>2024-01-31T03:26:19Z</time>
      </trkpt>
      <trkpt lat="44.01232" lon="6.32016">
        <ele>1190.06</ele>
        <time>2024-01-31T03:26:22Z</time>
      </trkpt>
      <trkpt lat="44.0123" lon="6.32027">
        <ele>1190.14</ele>
        <time>2024-01-31T03:26:27Z</time>
      </trkpt>
      <trkpt lat="44.01186" lon="6.32066">
        <ele>1192.58</ele>
        <time>2024-01-31T03:26:56Z</time>
      </trkpt>
      <trkpt lat="44.01126" lon="6.32097">
        <ele>1193.89</ele>
        <time>2024-01-31T03:27:24Z</time>
      </trkpt>
      <trkpt lat="44.01105" lon="6.32106">
        <ele>1197.14</ele>
        <time>2024-01-31T03:27:32Z</time>
      </trkpt>
      <trkpt lat="44.01064" lon="6.32111">
        <ele>1203.13</ele>
        <time>2024-01-31T03:27:46Z</time>
      </trkpt>
      <trkpt lat="44.01045" lon="6.3211">
        <ele>1202.72</ele>
        <time>2024-01-31T03:27:50Z</time>
      </trkpt>
      <trkpt lat="44.01036" lon="6.32107">
        <ele>1205.23</ele>
        <time>2024-01-31T03:27:52Z</time>
      </trkpt>
      <trkpt lat="44.0102" lon="6.32095">
        <ele>1206.61</ele>
        <time>2024-01-31T03:27:55Z</time>
      </trkpt>
      <trkpt lat="44.00977" lon="6.32041">
        <ele>1211.4</ele>
        <time>2024-01-31T03:28:03Z</time>
      </trkpt>
      <trkpt lat="44.00964" lon="6.32034">
        <ele>1212.37</ele>
        <time>2024-01-31T03:28:05Z</time>
      </trkpt>
      <trkpt lat="44.00875" lon="6.32045">
        <ele>1219.9</ele>
        <time>2024-01-31T03:28:15Z</time>
      </trkpt>
      <trkpt lat="44.00783" lon="6.32021">
        <ele>1212.35</ele>
        <time>2024-01-31T03:28:27Z</time>
      </trkpt>
      <trkpt lat="44.00778" lon="6.32024">
        <ele>1211.9</ele>
        <time>2024-01-31T03:28:27Z</time>
      </trkpt>
      <trkpt lat="44.00773" lon="6.32033">
        <ele>1211.1</ele>
        <time>2024-01-31T03:28:28Z</time>
      </trkpt>
      <trkpt lat="44.00772" lon="6.32039">
        <ele>1211.42</ele>
        <time>2024-01-31T03:28:29Z</time>
      </trkpt>
      <trkpt lat="44.00773" lon="6.32061">
        <ele>1214.82</ele>
        <time>2024-01-31T03:28:30Z</time>
      </trkpt>
      <trkpt lat="44.00767" lon="6.32079">
        <ele>1216.31</ele>
        <time>2024-01-31T03:28:32Z</time>
      </trkpt>
      <trkpt lat="44.00762" lon="6.32087">
        <ele>1213.31</ele>
        <time>2024-01-31T03:28:33Z</time>
      </trkpt>
      <trkpt lat="44.00736" lon="6.32106">
        <ele>1210.14</ele>
        <time>2024-01-31T03:28:36Z</time>
      </trkpt>
      <trkpt lat="44.00661" lon="6.32139">
        <ele>1201.2</ele>
        <time>2024-01-31T03:28:45Z</time>
      </trkpt>
      <trkpt lat="44.0064" lon="6.32151">
        <ele>1198.36</ele>
        <time>2024-01-31T03:28:48Z</time>
      </trkpt>
      <trkpt lat="44.00623" lon="6.32169">
        <ele>1197.1</ele>
        <time>2024-01-31T03:28:50Z</time>
      </trkpt>
      <trkpt lat="44.00596" lon="6.32215">
        <ele>1196.66</ele>
        <time>2024-01-31T03:28:55Z</time>
      </trkpt>
      <trkpt lat="44.00576" lon="6.3223">
        <ele>1195.18</ele>
        <time>2024-01-31T03:28:58Z</time>
      </trkpt>
      <trkpt lat="44.00547" lon="6.32244">
        <ele>1191.95</ele>
        <time>2024-01-31T03:29:01Z</time>
      </trkpt>
      <trkpt lat="44.00531" lon="6.32258">
        <ele>1189.66</ele>
        <time>2024-01-31T03:29:03Z</time>
      </trkpt>
      <trkpt lat="44.00523" lon="6.3227">
        <ele>1189.95</ele>
        <time>2024-01-31T03:29:05Z</time>
      </trkpt>
      <trkpt lat="44.00512" lon="6.32296">
        <ele>1188.02</ele>
        <time>2024-01-31T03:29:07Z</time>
      </trkpt>
      <trkpt lat="44.00502" lon="6.32333">
        <ele>1187.83</ele>
        <time>2024-01-31T03:29:10Z</time>
      </trkpt>
      <trkpt lat="44.00498" lon="6.32341">
        <ele>1187.04</ele>
        <time>2024-01-31T03:29:11Z</time>
      </trkpt>
      <trkpt lat="44.00492" lon="6.32344">
        <ele>1183.63</ele>
        <time>2024-01-31T03:29:12Z</time>
      </trkpt>
      <trkpt lat="44.00486" lon="6.32342">
        <ele>1181.9</ele>
        <time>2024-01-31T03:29:13Z</time>
      </trkpt>
      <trkpt lat="44.00483" lon="6.32337">
        <ele>1179.81</ele>
        <time>2024-01-31T03:29:13Z</time>
      </trkpt>
      <trkpt lat="44.00481" lon="6.32328">
        <ele>1179.26</ele>
        <time>2024-01-31T03:29:14Z</time>
      </trkpt>
      <trkpt lat="44.00483" lon="6.32317">
        <ele>1178.66</ele>
        <time>2024-01-31T03:29:15Z</time>
      </trkpt>
      <trkpt lat="44.00503" lon="6.32212">
        <ele>1178.04</ele>
        <time>2024-01-31T03:29:24Z</time>
      </trkpt>
      <trkpt lat="44.00504" lon="6.32194">
        <ele>1176.14</ele>
        <time>2024-01-31T03:29:26Z</time>
      </trkpt>
      <trkpt lat="44.00502" lon="6.32147">
        <ele>1170.38</ele>
        <time>2024-01-31T03:29:30Z</time>
      </trkpt>
      <trkpt lat="44.00508" lon="6.32121">
        <ele>1167.48</ele>
        <time>2024-01-31T03:29:32Z</time>
      </trkpt>
      <trkpt lat="44.00522" lon="6.32101">
        <ele>1166.85</ele>
        <time>2024-01-31T03:29:35Z</time>
      </trkpt>
      <trkpt lat="44.00526" lon="6.32088">
        <ele>1165.98</ele>
        <time>2024-01-31T03:29:36Z</time>
      </trkpt>
      <trkpt lat="44.00529" lon="6.32006">
        <ele>1160.01</ele>
        <time>2024-01-31T03:29:42Z</time>
      </trkpt>
      <trkpt lat="44.00538" lon="6.31971">
        <ele>1155.75</ele>
        <time>2024-01-31T03:29:45Z</time>
      </trkpt>
      <trkpt lat="44.0054" lon="6.31947">
        <ele>1154.27</ele>
        <time>2024-01-31T03:29:47Z</time>
      </trkpt>
      <trkpt lat="44.00536" lon="6.3179">
        <ele>1145.88</ele>
        <time>2024-01-31T03:30:00Z</time>
      </trkpt>
      <trkpt lat="44.00533" lon="6.31781">
        <ele>1144.05</ele>
        <time>2024-01-31T03:30:01Z</time>
      </trkpt>
      <trkpt lat="44.00529" lon="6.31776">
        <ele>1142.69</ele>
        <time>2024-01-31T03:30:01Z</time>
      </trkpt>
      <trkpt lat="44.00525" lon="6.31777">
        <ele>1141.82</ele>
        <time>2024-01-31T03:30:02Z</time>
      </trkpt>
      <trkpt lat="44.00516" lon="6.31794">
        <ele>1141.63</ele>
        <time>2024-01-31T03:30:03Z</time>
      </trkpt>
      <trkpt lat="44.0051" lon="6.31823">
        <ele>1142.43</ele>
        <time>2024-01-31T03:30:06Z</time>
      </trkpt>
      <trkpt lat="44.00499" lon="6.31851">
        <ele>1140.73</ele>
        <time>2024-01-31T03:30:08Z</time>
      </trkpt>
      <trkpt lat="44.00491" lon="6.31861">
        <ele>1139.8</ele>
        <time>2024-01-31T03:30:09Z</time>
      </trkpt>
      <trkpt lat="44.00481" lon="6.31867">
        <ele>1138.53</ele>
        <time>2024-01-31T03:30:11Z</time>
      </trkpt>
      <trkpt lat="44.00456" lon="6.31875">
        <ele>1135.89</ele>
        <time>2024-01-31T03:30:14Z</time>
      </trkpt>
      <trkpt lat="44.00431" lon="6.31882">
        <ele>1133.1</ele>
        <time>2024-01-31T03:30:17Z</time>
      </trkpt>
      <trkpt lat="44.0041" lon="6.31896">
        <ele>1130.04</ele>
        <time>2024-01-31T03:30:19Z</time>
      </trkpt>
      <trkpt lat="44.00279" lon="6.32016">
        <ele>1118.08</ele>
        <time>2024-01-31T03:30:37Z</time>
      </trkpt>
      <trkpt lat="44.00208" lon="6.32085">
        <ele>1111.27</ele>
        <time>2024-01-31T03:30:47Z</time>
      </trkpt>
      <trkpt lat="44.00181" lon="6.32105">
        <ele>1107.51</ele>
        <time>2024-01-31T03:30:50Z</time>
      </trkpt>
      <trkpt lat="44.00171" lon="6.32125">
        <ele>1106.75</ele>
        <time>2024-01-31T03:30:52Z</time>
      </trkpt>
      <trkpt lat="44.00165" lon="6.32147">
        <ele>1106.14</ele>
        <time>2024-01-31T03:30:54Z</time>
      </trkpt>
      <trkpt lat="44.00147" lon="6.32263">
        <ele>1100.82</ele>
        <time>2024-01-31T03:31:04Z</time>
      </trkpt>
      <trkpt lat="44.00144" lon="6.32313">
        <ele>1097.41</ele>
        <time>2024-01-31T03:31:09Z</time>
      </trkpt>
      <trkpt lat="44.00149" lon="6.3236">
        <ele>1095.49</ele>
        <time>2024-01-31T03:31:13Z</time>
      </trkpt>
      <trkpt lat="44.00148" lon="6.32397">
        <ele>1093.19</ele>
        <time>2024-01-31T03:31:17Z</time>
      </trkpt>
      <trkpt lat="44.0013" lon="6.3252">
        <ele>1089.06</ele>
        <time>2024-01-31T03:31:29Z</time>
      </trkpt>
      <trkpt lat="44.0012" lon="6.32552">
        <ele>1088.57</ele>
        <time>2024-01-31T03:31:32Z</time>
      </trkpt>
      <trkpt lat="44.00112" lon="6.32567">
        <ele>1087.12</ele>
        <time>2024-01-31T03:31:34Z</time>
      </trkpt>
      <trkpt lat="44.00066" lon="6.3263">
        <ele>1082.21</ele>
        <time>2024-01-31T03:31:42Z</time>
      </trkpt>
      <trkpt lat="44.00051" lon="6.32643">
        <ele>1081.48</ele>
        <time>2024-01-31T03:31:45Z</time>
      </trkpt>
      <trkpt lat="44.00022" lon="6.32662">
        <ele>1077.83</ele>
        <time>2024-01-31T03:31:48Z</time>
      </trkpt>
      <trkpt lat="43.99921" lon="6.32709">
        <ele>1063.53</ele>
        <time>2024-01-31T03:32:01Z</time>
      </trkpt>
      <trkpt lat="43.99899" lon="6.32726">
        <ele>1061.25</ele>
        <time>2024-01-31T03:32:04Z</time>
      </trkpt>
      <trkpt lat="43.99824" lon="6.32843">
        <ele>1051.94</ele>
        <time>2024-01-31T03:32:17Z</time>
      </trkpt>
      <trkpt lat="43.998" lon="6.32905">
        <ele>1048.08</ele>
        <time>2024-01-31T03:32:23Z</time>
      </trkpt>
      <trkpt lat="43.99792" lon="6.32917">
        <ele>1046.64</ele>
        <time>2024-01-31T03:32:24Z</time>
      </trkpt>
      <trkpt lat="43.99774" lon="6.32935">
        <ele>1043.87</ele>
        <time>2024-01-31T03:32:27Z</time>
      </trkpt>
      <trkpt lat="43.9964" lon="6.32996">
        <ele>1031.22</ele>
        <time>2024-01-31T03:32:43Z</time>
      </trkpt>
      <trkpt lat="43.99578" lon="6.33042">
        <ele>1023.54</ele>
        <time>2024-01-31T03:32:51Z</time>
      </trkpt>
      <trkpt lat="43.9957" lon="6.3305">
        <ele>1022.85</ele>
        <time>2024-01-31T03:32:52Z</time>
      </trkpt>
      <trkpt lat="43.99561" lon="6.3307">
        <ele>1021.1</ele>
        <time>2024-01-31T03:32:54Z</time>
      </trkpt>
      <trkpt lat="43.99553" lon="6.33151">
        <ele>1017.63</ele>
        <time>2024-01-31T03:33:02Z</time>
      </trkpt>
      <trkpt lat="43.99551" lon="6.33157">
        <ele>1016.62</ele>
        <time>2024-01-31T03:33:02Z</time>
      </trkpt>
      <trkpt lat="43.99545" lon="6.33191">
        <ele>1015.11</ele>
        <time>2024-01-31T03:33:05Z</time>
      </trkpt>
      <trkpt lat="43.99536" lon="6.33227">
        <ele>1012.84</ele>
        <time>2024-01-31T03:33:09Z</time>
      </trkpt>
      <trkpt lat="43.99529" lon="6.33289">
        <ele>1013.05</ele>
        <time>2024-01-31T03:33:15Z</time>
      </trkpt>
      <trkpt lat="43.99514" lon="6.33314">
        <ele>1011.36</ele>
        <time>2024-01-31T03:33:18Z</time>
      </trkpt>
      <trkpt lat="43.99447" lon="6.33348">
        <ele>1006.16</ele>
        <time>2024-01-31T03:33:27Z</time>
      </trkpt>
      <trkpt lat="43.9944" lon="6.33356">
        <ele>1005.44</ele>
        <time>2024-01-31T03:33:28Z</time>
      </trkpt>
      <trkpt lat="43.99416" lon="6.33391">
        <ele>1003.68</ele>
        <time>2024-01-31T03:33:32Z</time>
      </trkpt>
      <trkpt lat="43.9941" lon="6.33404">
        <ele>1002.62</ele>
        <time>2024-01-31T03:33:33Z</time>
      </trkpt>
      <trkpt lat="43.99407" lon="6.33433">
        <ele>1002.24</ele>
        <time>2024-01-31T03:33:36Z</time>
      </trkpt>
      <trkpt lat="43.99411" lon="6.33483">
        <ele>1004.4</ele>
        <time>2024-01-31T03:33:40Z</time>
      </trkpt>
      <trkpt lat="43.9941" lon="6.33493">
        <ele>1004.18</ele>
        <time>2024-01-31T03:33:41Z</time>
      </trkpt>
      <trkpt lat="43.99405" lon="6.33499">
        <ele>1003.63</ele>
        <time>2024-01-31T03:33:42Z</time>
      </trkpt>
      <trkpt lat="43.99399" lon="6.335">
        <ele>1003</ele>
        <time>2024-01-31T03:33:42Z</time>
      </trkpt>
      <trkpt lat="43.99394" lon="6.33495">
        <ele>1001.57</ele>
        <time>2024-01-31T03:33:43Z</time>
      </trkpt>
      <trkpt lat="43.99392" lon="6.33482">
        <ele>999.47</ele>
        <time>2024-01-31T03:33:44Z</time>
      </trkpt>
      <trkpt lat="43.9938" lon="6.33498">
        <ele>997.17</ele>
        <time>2024-01-31T03:33:46Z</time>
      </trkpt>
      <trkpt lat="43.99366" lon="6.33542">
        <ele>995.5</ele>
        <time>2024-01-31T03:33:51Z</time>
      </trkpt>
      <trkpt lat="43.99349" lon="6.33573">
        <ele>990.62</ele>
        <time>2024-01-31T03:33:54Z</time>
      </trkpt>
      <trkpt lat="43.99324" lon="6.33591">
        <ele>985.79</ele>
        <time>2024-01-31T03:33:58Z</time>
      </trkpt>
      <trkpt lat="43.99302" lon="6.33613">
        <ele>983.14</ele>
        <time>2024-01-31T03:34:01Z</time>
      </trkpt>
      <trkpt lat="43.99294" lon="6.33624">
        <ele>982.3</ele>
        <time>2024-01-31T03:34:02Z</time>
      </trkpt>
      <trkpt lat="43.99275" lon="6.33669">
        <ele>981.81</ele>
        <time>2024-01-31T03:34:07Z</time>
      </trkpt>
      <trkpt lat="43.99251" lon="6.33696">
        <ele>978.54</ele>
        <time>2024-01-31T03:34:11Z</time>
      </trkpt>
      <trkpt lat="43.99212" lon="6.33698">
        <ele>971.99</ele>
        <time>2024-01-31T03:34:19Z</time>
      </trkpt>
      <trkpt lat="43.992" lon="6.33695">
        <ele>969.43</ele>
        <time>2024-01-31T03:34:21Z</time>
      </trkpt>
      <trkpt lat="43.99145" lon="6.33723">
        <ele>967.32</ele>
        <time>2024-01-31T03:34:34Z</time>
      </trkpt>
      <trkpt lat="43.99129" lon="6.33751">
        <ele>967.51</ele>
        <time>2024-01-31T03:34:40Z</time>
      </trkpt>
      <trkpt lat="43.99076" lon="6.33815">
        <ele>961.88</ele>
        <time>2024-01-31T03:34:58Z</time>
      </trkpt>
      <trkpt lat="43.99064" lon="6.33845">
        <ele>960.16</ele>
        <time>2024-01-31T03:35:08Z</time>
      </trkpt>
      <trkpt lat="43.99054" lon="6.33857">
        <ele>953.99</ele>
        <time>2024-01-31T03:35:14Z</time>
      </trkpt>
      <trkpt lat="43.99053" lon="6.33863">
        <ele>953.47</ele>
        <time>2024-01-31T03:35:16Z</time>
      </trkpt>
      <trkpt lat="43.99056" lon="6.33871">
        <ele>954.05</ele>
        <time>2024-01-31T03:35:19Z</time>
      </trkpt>
      <trkpt lat="43.99055" lon="6.33881">
        <ele>950.59</ele>
        <time>2024-01-31T03:35:23Z</time>
      </trkpt>
      <trkpt lat="43.99047" lon="6.33893">
        <ele>947.05</ele>
        <time>2024-01-31T03:35:29Z</time>
      </trkpt>
      <trkpt lat="43.99033" lon="6.33897">
        <ele>942.71</ele>
        <time>2024-01-31T03:35:37Z</time>
      </trkpt>
      <trkpt lat="43.98996" lon="6.33898">
        <ele>948.58</ele>
        <time>2024-01-31T03:36:02Z</time>
      </trkpt>
      <trkpt lat="43.98981" lon="6.33897">
        <ele>951.28</ele>
        <time>2024-01-31T03:36:12Z</time>
      </trkpt>
      <trkpt lat="43.9896" lon="6.33891">
        <ele>955.96</ele>
        <time>2024-01-31T03:36:27Z</time>
      </trkpt>
      <trkpt lat="43.98935" lon="6.33891">
        <ele>963.29</ele>
        <time>2024-01-31T03:36:46Z</time>
      </trkpt>
      <trkpt lat="43.98932" lon="6.33894">
        <ele>966.2</ele>
        <time>2024-01-31T03:36:48Z</time>
      </trkpt>
      <trkpt lat="43.98936" lon="6.33908">
        <ele>969.36</ele>
        <time>2024-01-31T03:36:56Z</time>
      </trkpt>
      <trkpt lat="43.98947" lon="6.33928">
        <ele>972.95</ele>
        <time>2024-01-31T03:37:10Z</time>
      </trkpt>
      <trkpt lat="43.98947" lon="6.33938">
        <ele>975.12</ele>
        <time>2024-01-31T03:37:15Z</time>
      </trkpt>
      <trkpt lat="43.98944" lon="6.3394">
        <ele>977.05</ele>
        <time>2024-01-31T03:37:18Z</time>
      </trkpt>
      <trkpt lat="43.98928" lon="6.33931">
        <ele>980.41</ele>
        <time>2024-01-31T03:37:30Z</time>
      </trkpt>
      <trkpt lat="43.9888" lon="6.33931">
        <ele>990.73</ele>
        <time>2024-01-31T03:38:01Z</time>
      </trkpt>
      <trkpt lat="43.98875" lon="6.33936">
        <ele>991.81</ele>
        <time>2024-01-31T03:38:05Z</time>
      </trkpt>
      <trkpt lat="43.98875" lon="6.33951">
        <ele>993.18</ele>
        <time>2024-01-31T03:38:11Z</time>
      </trkpt>
      <trkpt lat="43.98862" lon="6.33959">
        <ele>992.59</ele>
        <time>2024-01-31T03:38:18Z</time>
      </trkpt>
      <trkpt lat="43.98852" lon="6.33977">
        <ele>992.2</ele>
        <time>2024-01-31T03:38:26Z</time>
      </trkpt>
      <trkpt lat="43.98835" lon="6.33985">
        <ele>991.61</ele>
        <time>2024-01-31T03:38:35Z</time>
      </trkpt>
      <trkpt lat="43.98812" lon="6.34007">
        <ele>991.98</ele>
        <time>2024-01-31T03:38:47Z</time>
      </trkpt>
      <trkpt lat="43.98795" lon="6.34028">
        <ele>993.59</ele>
        <time>2024-01-31T03:38:55Z</time>
      </trkpt>
      <trkpt lat="43.98782" lon="6.34035">
        <ele>994.65</ele>
        <time>2024-01-31T03:39:01Z</time>
      </trkpt>
      <trkpt lat="43.98754" lon="6.34034">
        <ele>996.52</ele>
        <time>2024-01-31T03:39:11Z</time>
      </trkpt>
      <trkpt lat="43.98729" lon="6.34047">
        <ele>998.07</ele>
        <time>2024-01-31T03:39:20Z</time>
      </trkpt>
      <trkpt lat="43.98711" lon="6.34074">
        <ele>999.89</ele>
        <time>2024-01-31T03:39:29Z</time>
      </trkpt>
      <trkpt lat="43.98684" lon="6.34095">
        <ele>995.26</ele>
        <time>2024-01-31T03:39:39Z</time>
      </trkpt>
      <trkpt lat="43.98669" lon="6.34144">
        <ele>995.42</ele>
        <time>2024-01-31T03:39:53Z</time>
      </trkpt>
      <trkpt lat="43.98666" lon="6.34164">
        <ele>994.31</ele>
        <time>2024-01-31T03:39:59Z</time>
      </trkpt>
      <trkpt lat="43.98662" lon="6.34172">
        <ele>993.51</ele>
        <time>2024-01-31T03:40:02Z</time>
      </trkpt>
      <trkpt lat="43.98652" lon="6.34171">
        <ele>992.36</ele>
        <time>2024-01-31T03:40:06Z</time>
      </trkpt>
      <trkpt lat="43.98633" lon="6.34156">
        <ele>992.03</ele>
        <time>2024-01-31T03:40:16Z</time>
      </trkpt>
      <trkpt lat="43.98615" lon="6.34154">
        <ele>994.15</ele>
        <time>2024-01-31T03:40:25Z</time>
      </trkpt>
      <trkpt lat="43.9859" lon="6.34174">
        <ele>995.32</ele>
        <time>2024-01-31T03:40:39Z</time>
      </trkpt>
      <trkpt lat="43.98579" lon="6.34188">
        <ele>994.34</ele>
        <time>2024-01-31T03:40:46Z</time>
      </trkpt>
      <trkpt lat="43.98567" lon="6.34223">
        <ele>991.59</ele>
        <time>2024-01-31T03:41:00Z</time>
      </trkpt>
      <trkpt lat="43.98567" lon="6.34251">
        <ele>995.86</ele>
        <time>2024-01-31T03:41:10Z</time>
      </trkpt>
      <trkpt lat="43.98561" lon="6.34269">
        <ele>992.87</ele>
        <time>2024-01-31T03:41:17Z</time>
      </trkpt>
      <trkpt lat="43.98561" lon="6.34277">
        <ele>993.26</ele>
        <time>2024-01-31T03:41:20Z</time>
      </trkpt>
      <trkpt lat="43.98567" lon="6.343">
        <ele>994.47</ele>
        <time>2024-01-31T03:41:30Z</time>
      </trkpt>
      <trkpt lat="43.98562" lon="6.34312">
        <ele>993.95</ele>
        <time>2024-01-31T03:41:35Z</time>
      </trkpt>
      <trkpt lat="43.98544" lon="6.34314">
        <ele>985.67</ele>
        <time>2024-01-31T03:41:45Z</time>
      </trkpt>
      <trkpt lat="43.98538" lon="6.34309">
        <ele>983.22</ele>
        <time>2024-01-31T03:41:49Z</time>
      </trkpt>
      <trkpt lat="43.98527" lon="6.34275">
        <ele>984.36</ele>
        <time>2024-01-31T03:42:06Z</time>
      </trkpt>
      <trkpt lat="43.98525" lon="6.34254">
        <ele>988.61</ele>
        <time>2024-01-31T03:42:15Z</time>
      </trkpt>
      <trkpt lat="43.98522" lon="6.34244">
        <ele>991.55</ele>
        <time>2024-01-31T03:42:20Z</time>
      </trkpt>
      <trkpt lat="43.98508" lon="6.34227">
        <ele>995.57</ele>
        <time>2024-01-31T03:42:32Z</time>
      </trkpt>
      <trkpt lat="43.98461" lon="6.34222">
        <ele>1003.54</ele>
        <time>2024-01-31T03:43:01Z</time>
      </trkpt>
      <trkpt lat="43.98447" lon="6.34235">
        <ele>1006.05</ele>
        <time>2024-01-31T03:43:12Z</time>
      </trkpt>
      <trkpt lat="43.98407" lon="6.34235">
        <ele>1008.3</ele>
        <time>2024-01-31T03:43:39Z</time>
      </trkpt>
      <trkpt lat="43.98392" lon="6.34231">
        <ele>1008.83</ele>
        <time>2024-01-31T03:43:49Z</time>
      </trkpt>
      <trkpt lat="43.98372" lon="6.34215">
        <ele>1010.13</ele>
        <time>2024-01-31T03:44:07Z</time>
      </trkpt>
      <trkpt lat="43.98351" lon="6.34214">
        <ele>1011.67</ele>
        <time>2024-01-31T03:44:23Z</time>
      </trkpt>
      <trkpt lat="43.98325" lon="6.3423">
        <ele>1014.84</ele>
        <time>2024-01-31T03:44:48Z</time>
      </trkpt>
      <trkpt lat="43.98319" lon="6.34227">
        <ele>1015.26</ele>
        <time>2024-01-31T03:44:53Z</time>
      </trkpt>
      <trkpt lat="43.98306" lon="6.34214">
        <ele>1016.02</ele>
        <time>2024-01-31T03:45:07Z</time>
      </trkpt>
      <trkpt lat="43.98298" lon="6.34211">
        <ele>1016.62</ele>
        <time>2024-01-31T03:45:14Z</time>
      </trkpt>
      <trkpt lat="43.98258" lon="6.34214">
        <ele>1022.87</ele>
        <time>2024-01-31T03:45:50Z</time>
      </trkpt>
      <trkpt lat="43.98231" lon="6.3422">
        <ele>1027.47</ele>
        <time>2024-01-31T03:46:14Z</time>
      </trkpt>
      <trkpt lat="43.98173" lon="6.34222">
        <ele>1036.04</ele>
        <time>2024-01-31T03:47:06Z</time>
      </trkpt>
      <trkpt lat="43.9808" lon="6.34076">
        <ele>1053.81</ele>
        <time>2024-01-31T03:49:14Z</time>
      </trkpt>
      <trkpt lat="43.98063" lon="6.34065">
        <ele>1056.19</ele>
        <time>2024-01-31T03:49:30Z</time>
      </trkpt>
      <trkpt lat="43.98028" lon="6.34055">
        <ele>1063.84</ele>
        <time>2024-01-31T03:50:00Z</time>
      </trkpt>
      <trkpt lat="43.98015" lon="6.34045">
        <ele>1065.64</ele>
        <time>2024-01-31T03:50:12Z</time>
      </trkpt>
      <trkpt lat="43.97966" lon="6.33978">
        <ele>1070.45</ele>
        <time>2024-01-31T03:51:08Z</time>
      </trkpt>
      <trkpt lat="43.97954" lon="6.33967">
        <ele>1073.04</ele>
        <time>2024-01-31T03:51:19Z</time>
      </trkpt>
      <trkpt lat="43.97852" lon="6.33847">
        <ele>1079.07</ele>
        <time>2024-01-31T03:52:52Z</time>
      </trkpt>
      <trkpt lat="43.97844" lon="6.33825">
        <ele>1079.12</ele>
        <time>2024-01-31T03:53:03Z</time>
      </trkpt>
      <trkpt lat="43.97772" lon="6.33695">
        <ele>1085.15</ele>
        <time>2024-01-31T03:54:15Z</time>
      </trkpt>
      <trkpt lat="43.97761" lon="6.33664">
        <ele>1088.73</ele>
        <time>2024-01-31T03:54:30Z</time>
      </trkpt>
      <trkpt lat="43.97751" lon="6.33623">
        <ele>1089.27</ele>
        <time>2024-01-31T03:54:48Z</time>
      </trkpt>
      <trkpt lat="43.97728" lon="6.33583">
        <ele>1099.23</ele>
        <time>2024-01-31T03:55:09Z</time>
      </trkpt>
      <trkpt lat="43.97717" lon="6.33539">
        <ele>1098.7</ele>
        <time>2024-01-31T03:55:28Z</time>
      </trkpt>
      <trkpt lat="43.97706" lon="6.33511">
        <ele>1102.11</ele>
        <time>2024-01-31T03:55:41Z</time>
      </trkpt>
      <trkpt lat="43.97694" lon="6.33471">
        <ele>1103.04</ele>
        <time>2024-01-31T03:55:58Z</time>
      </trkpt>
      <trkpt lat="43.9768" lon="6.33469">
        <ele>1110.11</ele>
        <time>2024-01-31T03:56:06Z</time>
      </trkpt>
      <trkpt lat="43.97674" lon="6.33465">
        <ele>1111.38</ele>
        <time>2024-01-31T03:56:10Z</time>
      </trkpt>
      <trkpt lat="43.97669" lon="6.33458">
        <ele>1111.97</ele>
        <time>2024-01-31T03:56:14Z</time>
      </trkpt>
      <trkpt lat="43.97657" lon="6.33372">
        <ele>1117.79</ele>
        <time>2024-01-31T03:56:45Z</time>
      </trkpt>
      <trkpt lat="43.97653" lon="6.33363">
        <ele>1119.21</ele>
        <time>2024-01-31T03:56:49Z</time>
      </trkpt>
      <trkpt lat="43.97648" lon="6.33355">
        <ele>1120.19</ele>
        <time>2024-01-31T03:56:53Z</time>
      </trkpt>
      <trkpt lat="43.97611" lon="6.33323">
        <ele>1126.45</ele>
        <time>2024-01-31T03:57:12Z</time>
      </trkpt>
      <trkpt lat="43.97602" lon="6.33307">
        <ele>1126.4</ele>
        <time>2024-01-31T03:57:19Z</time>
      </trkpt>
      <trkpt lat="43.97597" lon="6.33287">
        <ele>1124.7</ele>
        <time>2024-01-31T03:57:25Z</time>
      </trkpt>
      <trkpt lat="43.97594" lon="6.33234">
        <ele>1125.29</ele>
        <time>2024-01-31T03:57:41Z</time>
      </trkpt>
      <trkpt lat="43.97583" lon="6.33207">
        <ele>1122.1</ele>
        <time>2024-01-31T03:57:50Z</time>
      </trkpt>
      <trkpt lat="43.97532" lon="6.33135">
        <ele>1116.97</ele>
        <time>2024-01-31T03:58:11Z</time>
      </trkpt>
      <trkpt lat="43.97486" lon="6.33101">
        <ele>1117.99</ele>
        <time>2024-01-31T03:58:23Z</time>
      </trkpt>
      <trkpt lat="43.97478" lon="6.33087">
        <ele>1114</ele>
        <time>2024-01-31T03:58:27Z</time>
      </trkpt>
      <trkpt lat="43.97342" lon="6.32964">
        <ele>1111.59</ele>
        <time>2024-01-31T03:59:01Z</time>
      </trkpt>
      <trkpt lat="43.97302" lon="6.32949">
        <ele>1108.1</ele>
        <time>2024-01-31T03:59:09Z</time>
      </trkpt>
      <trkpt lat="43.97248" lon="6.32959">
        <ele>1111.15</ele>
        <time>2024-01-31T03:59:19Z</time>
      </trkpt>
      <trkpt lat="43.9719" lon="6.32993">
        <ele>1106.92</ele>
        <time>2024-01-31T03:59:32Z</time>
      </trkpt>
      <trkpt lat="43.97155" lon="6.33027">
        <ele>1103.26</ele>
        <time>2024-01-31T03:59:41Z</time>
      </trkpt>
      <trkpt lat="43.97133" lon="6.33081">
        <ele>1102.59</ele>
        <time>2024-01-31T03:59:50Z</time>
      </trkpt>
      <trkpt lat="43.97145" lon="6.33115">
        <ele>1108.7</ele>
        <time>2024-01-31T03:59:55Z</time>
      </trkpt>
      <trkpt lat="43.97114" lon="6.33151">
        <ele>1104.87</ele>
        <time>2024-01-31T04:00:04Z</time>
      </trkpt>
      <trkpt lat="43.97059" lon="6.333">
        <ele>1103.07</ele>
        <time>2024-01-31T04:00:35Z</time>
      </trkpt>
      <trkpt lat="43.97078" lon="6.33419">
        <ele>1097.9</ele>
        <time>2024-01-31T04:00:59Z</time>
      </trkpt>
      <trkpt lat="43.97091" lon="6.3347">
        <ele>1109.49</ele>
        <time>2024-01-31T04:01:10Z</time>
      </trkpt>
      <trkpt lat="43.9709" lon="6.33471">
        <ele>1109.49</ele>
        <time>2024-01-31T04:01:10Z</time>
      </trkpt>
      <trkpt lat="43.97083" lon="6.33486">
        <ele>1109.48</ele>
        <time>2024-01-31T04:01:13Z</time>
      </trkpt>
      <trkpt lat="43.97061" lon="6.33483">
        <ele>1099.93</ele>
        <time>2024-01-31T04:01:19Z</time>
      </trkpt>
      <trkpt lat="43.9697" lon="6.33599">
        <ele>1086.02</ele>
        <time>2024-01-31T04:01:46Z</time>
      </trkpt>
      <trkpt lat="43.96955" lon="6.33685">
        <ele>1087.04</ele>
        <time>2024-01-31T04:01:59Z</time>
      </trkpt>
      <trkpt lat="43.96898" lon="6.3377">
        <ele>1075.64</ele>
        <time>2024-01-31T04:02:15Z</time>
      </trkpt>
      <trkpt lat="43.96883" lon="6.33818">
        <ele>1067.34</ele>
        <time>2024-01-31T04:02:22Z</time>
      </trkpt>
      <trkpt lat="43.96884" lon="6.339">
        <ele>1060.63</ele>
        <time>2024-01-31T04:02:34Z</time>
      </trkpt>
      <trkpt lat="43.96909" lon="6.33971">
        <ele>1055.09</ele>
        <time>2024-01-31T04:02:45Z</time>
      </trkpt>
      <trkpt lat="43.96907" lon="6.34015">
        <ele>1051.45</ele>
        <time>2024-01-31T04:02:51Z</time>
      </trkpt>
      <trkpt lat="43.96902" lon="6.3405">
        <ele>1048.96</ele>
        <time>2024-01-31T04:02:56Z</time>
      </trkpt>
      <trkpt lat="43.96899" lon="6.3415">
        <ele>1039.32</ele>
        <time>2024-01-31T04:03:11Z</time>
      </trkpt>
      <trkpt lat="43.96886" lon="6.34217">
        <ele>1035.24</ele>
        <time>2024-01-31T04:03:21Z</time>
      </trkpt>
      <trkpt lat="43.96874" lon="6.34209">
        <ele>1031.47</ele>
        <time>2024-01-31T04:03:24Z</time>
      </trkpt>
      <trkpt lat="43.96874" lon="6.34119">
        <ele>1026.01</ele>
        <time>2024-01-31T04:03:38Z</time>
      </trkpt>
      <trkpt lat="43.96857" lon="6.34044">
        <ele>1019.9</ele>
        <time>2024-01-31T04:03:50Z</time>
      </trkpt>
      <trkpt lat="43.96857" lon="6.34016">
        <ele>1021.33</ele>
        <time>2024-01-31T04:03:54Z</time>
      </trkpt>
      <trkpt lat="43.9684" lon="6.33993">
        <ele>1019.31</ele>
        <time>2024-01-31T04:03:59Z</time>
      </trkpt>
      <trkpt lat="43.96835" lon="6.33955">
        <ele>1016.23</ele>
        <time>2024-01-31T04:04:05Z</time>
      </trkpt>
      <trkpt lat="43.96797" lon="6.33906">
        <ele>1010.44</ele>
        <time>2024-01-31T04:04:17Z</time>
      </trkpt>
      <trkpt lat="43.96776" lon="6.33902">
        <ele>1007.04</ele>
        <time>2024-01-31T04:04:21Z</time>
      </trkpt>
      <trkpt lat="43.96766" lon="6.33899">
        <ele>1005.17</ele>
        <time>2024-01-31T04:04:24Z</time>
      </trkpt>
      <trkpt lat="43.96723" lon="6.33871">
        <ele>1003.05</ele>
        <time>2024-01-31T04:04:34Z</time>
      </trkpt>
      <trkpt lat="43.96688" lon="6.33767">
        <ele>995.08</ele>
        <time>2024-01-31T04:04:51Z</time>
      </trkpt>
      <trkpt lat="43.96658" lon="6.33757">
        <ele>991.1</ele>
        <time>2024-01-31T04:04:58Z</time>
      </trkpt>
      <trkpt lat="43.96634" lon="6.33783">
        <ele>986.54</ele>
        <time>2024-01-31T04:05:05Z</time>
      </trkpt>
      <trkpt lat="43.96627" lon="6.33833">
        <ele>983.01</ele>
        <time>2024-01-31T04:05:13Z</time>
      </trkpt>
      <trkpt lat="43.96631" lon="6.33869">
        <ele>978.76</ele>
        <time>2024-01-31T04:05:18Z</time>
      </trkpt>
      <trkpt lat="43.96588" lon="6.33891">
        <ele>972.78</ele>
        <time>2024-01-31T04:05:28Z</time>
      </trkpt>
      <trkpt lat="43.9655" lon="6.33947">
        <ele>966.52</ele>
        <time>2024-01-31T04:05:41Z</time>
      </trkpt>
      <trkpt lat="43.96538" lon="6.33984">
        <ele>965.03</ele>
        <time>2024-01-31T04:05:47Z</time>
      </trkpt>
      <trkpt lat="43.96517" lon="6.34022">
        <ele>963.61</ele>
        <time>2024-01-31T04:05:55Z</time>
      </trkpt>
      <trkpt lat="43.96518" lon="6.34045">
        <ele>962.82</ele>
        <time>2024-01-31T04:05:59Z</time>
      </trkpt>
      <trkpt lat="43.96529" lon="6.34052">
        <ele>961.94</ele>
        <time>2024-01-31T04:06:02Z</time>
      </trkpt>
      <trkpt lat="43.96603" lon="6.34024">
        <ele>954.97</ele>
        <time>2024-01-31T04:06:19Z</time>
      </trkpt>
      <trkpt lat="43.96619" lon="6.33999">
        <ele>954.74</ele>
        <time>2024-01-31T04:06:25Z</time>
      </trkpt>
      <trkpt lat="43.96627" lon="6.34009">
        <ele>954.01</ele>
        <time>2024-01-31T04:06:27Z</time>
      </trkpt>
      <trkpt lat="43.96632" lon="6.34057">
        <ele>947.62</ele>
        <time>2024-01-31T04:06:35Z</time>
      </trkpt>
      <trkpt lat="43.9664" lon="6.34063">
        <ele>944.46</ele>
        <time>2024-01-31T04:06:37Z</time>
      </trkpt>
      <trkpt lat="43.96669" lon="6.34035">
        <ele>950.9</ele>
        <time>2024-01-31T04:06:45Z</time>
      </trkpt>
      <trkpt lat="43.96699" lon="6.3407">
        <ele>952.06</ele>
        <time>2024-01-31T04:06:53Z</time>
      </trkpt>
      <trkpt lat="43.96672" lon="6.34119">
        <ele>942.38</ele>
        <time>2024-01-31T04:07:03Z</time>
      </trkpt>
      <trkpt lat="43.96659" lon="6.34178">
        <ele>943.7</ele>
        <time>2024-01-31T04:07:12Z</time>
      </trkpt>
      <trkpt lat="43.96672" lon="6.34203">
        <ele>942.89</ele>
        <time>2024-01-31T04:07:16Z</time>
      </trkpt>
      <trkpt lat="43.96712" lon="6.34196">
        <ele>941.86</ele>
        <time>2024-01-31T04:07:24Z</time>
      </trkpt>
      <trkpt lat="43.96714" lon="6.34214">
        <ele>939.97</ele>
        <time>2024-01-31T04:07:27Z</time>
      </trkpt>
      <trkpt lat="43.96709" lon="6.34273">
        <ele>933.64</ele>
        <time>2024-01-31T04:07:35Z</time>
      </trkpt>
      <trkpt lat="43.96749" lon="6.34355">
        <ele>927.45</ele>
        <time>2024-01-31T04:07:49Z</time>
      </trkpt>
      <trkpt lat="43.96757" lon="6.34407">
        <ele>922.12</ele>
        <time>2024-01-31T04:07:56Z</time>
      </trkpt>
      <trkpt lat="43.96776" lon="6.3444">
        <ele>920.95</ele>
        <time>2024-01-31T04:08:02Z</time>
      </trkpt>
      <trkpt lat="43.96788" lon="6.34502">
        <ele>913.47</ele>
        <time>2024-01-31T04:08:12Z</time>
      </trkpt>
      <trkpt lat="43.96787" lon="6.34531">
        <ele>912.17</ele>
        <time>2024-01-31T04:08:16Z</time>
      </trkpt>
      <trkpt lat="43.96774" lon="6.34578">
        <ele>902.1</ele>
        <time>2024-01-31T04:08:24Z</time>
      </trkpt>
      <trkpt lat="43.96767" lon="6.34563">
        <ele>900.3</ele>
        <time>2024-01-31T04:08:27Z</time>
      </trkpt>
      <trkpt lat="43.96772" lon="6.34515">
        <ele>903.51</ele>
        <time>2024-01-31T04:08:34Z</time>
      </trkpt>
      <trkpt lat="43.96761" lon="6.34483">
        <ele>899.61</ele>
        <time>2024-01-31T04:08:40Z</time>
      </trkpt>
      <trkpt lat="43.96722" lon="6.34443">
        <ele>892.07</ele>
        <time>2024-01-31T04:08:50Z</time>
      </trkpt>
      <trkpt lat="43.96714" lon="6.34425">
        <ele>889.13</ele>
        <time>2024-01-31T04:08:53Z</time>
      </trkpt>
      <trkpt lat="43.96708" lon="6.34395">
        <ele>895.3</ele>
        <time>2024-01-31T04:08:58Z</time>
      </trkpt>
      <trkpt lat="43.9668" lon="6.34391">
        <ele>889.86</ele>
        <time>2024-01-31T04:09:04Z</time>
      </trkpt>
      <trkpt lat="43.96648" lon="6.34443">
        <ele>880.63</ele>
        <time>2024-01-31T04:09:14Z</time>
      </trkpt>
      <trkpt lat="43.9661" lon="6.34516">
        <ele>870.55</ele>
        <time>2024-01-31T04:09:27Z</time>
      </trkpt>
      <trkpt lat="43.96581" lon="6.34522">
        <ele>867.03</ele>
        <time>2024-01-31T04:09:32Z</time>
      </trkpt>
      <trkpt lat="43.96558" lon="6.34512">
        <ele>865.12</ele>
        <time>2024-01-31T04:09:37Z</time>
      </trkpt>
      <trkpt lat="43.96562" lon="6.34532">
        <ele>861.95</ele>
        <time>2024-01-31T04:09:40Z</time>
      </trkpt>
      <trkpt lat="43.96602" lon="6.34556">
        <ele>857.15</ele>
        <time>2024-01-31T04:09:49Z</time>
      </trkpt>
      <trkpt lat="43.96629" lon="6.34537">
        <ele>857.38</ele>
        <time>2024-01-31T04:09:55Z</time>
      </trkpt>
      <trkpt lat="43.96636" lon="6.34526">
        <ele>855.5</ele>
        <time>2024-01-31T04:09:57Z</time>
      </trkpt>
      <trkpt lat="43.96645" lon="6.34537">
        <ele>853.01</ele>
        <time>2024-01-31T04:10:00Z</time>
      </trkpt>
      <trkpt lat="43.96637" lon="6.34607">
        <ele>845.08</ele>
        <time>2024-01-31T04:10:11Z</time>
      </trkpt>
      <trkpt lat="43.96669" lon="6.34612">
        <ele>843.49</ele>
        <time>2024-01-31T04:10:18Z</time>
      </trkpt>
      <trkpt lat="43.96693" lon="6.34681">
        <ele>831.81</ele>
        <time>2024-01-31T04:10:31Z</time>
      </trkpt>
      <trkpt lat="43.9671" lon="6.3469">
        <ele>830.57</ele>
        <time>2024-01-31T04:10:35Z</time>
      </trkpt>
      <trkpt lat="43.96784" lon="6.34799">
        <ele>830.36</ele>
        <time>2024-01-31T04:10:58Z</time>
      </trkpt>
      <trkpt lat="43.96775" lon="6.34817">
        <ele>822.49</ele>
        <time>2024-01-31T04:11:02Z</time>
      </trkpt>
      <trkpt lat="43.96698" lon="6.34826">
        <ele>812.23</ele>
        <time>2024-01-31T04:11:18Z</time>
      </trkpt>
      <trkpt lat="43.96672" lon="6.34845">
        <ele>809.23</ele>
        <time>2024-01-31T04:11:24Z</time>
      </trkpt>
      <trkpt lat="43.96654" lon="6.34882">
        <ele>818.13</ele>
        <time>2024-01-31T04:11:30Z</time>
      </trkpt>
      <trkpt lat="43.96585" lon="6.34912">
        <ele>802.23</ele>
        <time>2024-01-31T04:11:44Z</time>
      </trkpt>
      <trkpt lat="43.96571" lon="6.34931">
        <ele>798.05</ele>
        <time>2024-01-31T04:11:48Z</time>
      </trkpt>
      <trkpt lat="43.96569" lon="6.3495">
        <ele>800.43</ele>
        <time>2024-01-31T04:11:51Z</time>
      </trkpt>
      <trkpt lat="43.96532" lon="6.34975">
        <ele>790.86</ele>
        <time>2024-01-31T04:11:59Z</time>
      </trkpt>
      <trkpt lat="43.96462" lon="6.35053">
        <ele>783.23</ele>
        <time>2024-01-31T04:12:16Z</time>
      </trkpt>
      <trkpt lat="43.96429" lon="6.35062">
        <ele>778.77</ele>
        <time>2024-01-31T04:12:22Z</time>
      </trkpt>
      <trkpt lat="43.96387" lon="6.35106">
        <ele>769.98</ele>
        <time>2024-01-31T04:12:32Z</time>
      </trkpt>
      <trkpt lat="43.96361" lon="6.35129">
        <ele>762.64</ele>
        <time>2024-01-31T04:12:38Z</time>
      </trkpt>
      <trkpt lat="43.96372" lon="6.35181">
        <ele>757.65</ele>
        <time>2024-01-31T04:12:46Z</time>
      </trkpt>
      <trkpt lat="43.96368" lon="6.35267">
        <ele>747.79</ele>
        <time>2024-01-31T04:12:59Z</time>
      </trkpt>
      <trkpt lat="43.96347" lon="6.35302">
        <ele>739.05</ele>
        <time>2024-01-31T04:13:06Z</time>
      </trkpt>
      <trkpt lat="43.96347" lon="6.35341">
        <ele>742.73</ele>
        <time>2024-01-31T04:13:13Z</time>
      </trkpt>
      <trkpt lat="43.96327" lon="6.35375">
        <ele>736.57</ele>
        <time>2024-01-31T04:13:19Z</time>
      </trkpt>
      <trkpt lat="43.96298" lon="6.35442">
        <ele>737.11</ele>
        <time>2024-01-31T04:13:31Z</time>
      </trkpt>
      <trkpt lat="43.96277" lon="6.35466">
        <ele>734.22</ele>
        <time>2024-01-31T04:13:37Z</time>
      </trkpt>
      <trkpt lat="43.9624" lon="6.35477">
        <ele>725.63</ele>
        <time>2024-01-31T04:13:45Z</time>
      </trkpt>
      <trkpt lat="43.96228" lon="6.35467">
        <ele>721.25</ele>
        <time>2024-01-31T04:13:48Z</time>
      </trkpt>
      <trkpt lat="43.96171" lon="6.35425">
        <ele>711.82</ele>
        <time>2024-01-31T04:14:02Z</time>
      </trkpt>
      <trkpt lat="43.96115" lon="6.35495">
        <ele>713.2</ele>
        <time>2024-01-31T04:14:11Z</time>
      </trkpt>
      <trkpt lat="43.96078" lon="6.35544">
        <ele>713.21</ele>
        <time>2024-01-31T04:14:19Z</time>
      </trkpt>
      <trkpt lat="43.96072" lon="6.35551">
        <ele>713.75</ele>
        <time>2024-01-31T04:14:21Z</time>
      </trkpt>
      <trkpt lat="43.95985" lon="6.35664">
        <ele>715.33</ele>
        <time>2024-01-31T04:14:54Z</time>
      </trkpt>
      <trkpt lat="43.95981" lon="6.3567">
        <ele>714.83</ele>
        <time>2024-01-31T04:14:55Z</time>
      </trkpt>
      <trkpt lat="43.95906" lon="6.35751">
        <ele>717.08</ele>
        <time>2024-01-31T04:15:20Z</time>
      </trkpt>
      <trkpt lat="43.95829" lon="6.35848">
        <ele>720.46</ele>
        <time>2024-01-31T04:15:41Z</time>
      </trkpt>
      <trkpt lat="43.95802" lon="6.35893">
        <ele>714.78</ele>
        <time>2024-01-31T04:15:49Z</time>
      </trkpt>
      <trkpt lat="43.95767" lon="6.35973">
        <ele>721.31</ele>
        <time>2024-01-31T04:16:01Z</time>
      </trkpt>
      <trkpt lat="43.95743" lon="6.36011">
        <ele>720.9</ele>
        <time>2024-01-31T04:16:07Z</time>
      </trkpt>
      <trkpt lat="43.95724" lon="6.36032">
        <ele>717.94</ele>
        <time>2024-01-31T04:16:11Z</time>
      </trkpt>
      <trkpt lat="43.95623" lon="6.36127">
        <ele>718.99</ele>
        <time>2024-01-31T04:16:29Z</time>
      </trkpt>
      <trkpt lat="43.95591" lon="6.36169">
        <ele>717.26</ele>
        <time>2024-01-31T04:16:37Z</time>
      </trkpt>
      <trkpt lat="43.95549" lon="6.36237">
        <ele>718.2</ele>
        <time>2024-01-31T04:16:51Z</time>
      </trkpt>
      <trkpt lat="43.95526" lon="6.36272">
        <ele>716.8</ele>
        <time>2024-01-31T04:16:59Z</time>
      </trkpt>
      <trkpt lat="43.955" lon="6.36302">
        <ele>716.32</ele>
        <time>2024-01-31T04:17:06Z</time>
      </trkpt>
      <trkpt lat="43.95476" lon="6.36321">
        <ele>717.29</ele>
        <time>2024-01-31T04:17:12Z</time>
      </trkpt>
      <trkpt lat="43.9543" lon="6.3635">
        <ele>719.09</ele>
        <time>2024-01-31T04:17:25Z</time>
      </trkpt>
      <trkpt lat="43.9538" lon="6.36386">
        <ele>717.64</ele>
        <time>2024-01-31T04:17:38Z</time>
      </trkpt>
      <trkpt lat="43.95302" lon="6.36484">
        <ele>718.64</ele>
        <time>2024-01-31T04:17:56Z</time>
      </trkpt>
      <trkpt lat="43.95273" lon="6.36519">
        <ele>717.39</ele>
        <time>2024-01-31T04:18:02Z</time>
      </trkpt>
      <trkpt lat="43.95252" lon="6.36547">
        <ele>718.17</ele>
        <time>2024-01-31T04:18:07Z</time>
      </trkpt>
      <trkpt lat="43.95234" lon="6.36571">
        <ele>718.8</ele>
        <time>2024-01-31T04:18:12Z</time>
      </trkpt>
      <trkpt lat="43.95214" lon="6.36598">
        <ele>721.03</ele>
        <time>2024-01-31T04:18:17Z</time>
      </trkpt>
      <trkpt lat="43.952" lon="6.3662">
        <ele>721.18</ele>
        <time>2024-01-31T04:18:20Z</time>
      </trkpt>
      <trkpt lat="43.95197" lon="6.36629">
        <ele>721.48</ele>
        <time>2024-01-31T04:18:21Z</time>
      </trkpt>
      <trkpt lat="43.95204" lon="6.36636">
        <ele>721.99</ele>
        <time>2024-01-31T04:18:23Z</time>
      </trkpt>
      <trkpt lat="43.95234" lon="6.36654">
        <ele>723.7</ele>
        <time>2024-01-31T04:18:28Z</time>
      </trkpt>
      <trkpt lat="43.95255" lon="6.36677">
        <ele>723.16</ele>
        <time>2024-01-31T04:18:33Z</time>
      </trkpt>
      <trkpt lat="43.95267" lon="6.36692">
        <ele>723.05</ele>
        <time>2024-01-31T04:18:36Z</time>
      </trkpt>
      <trkpt lat="43.95286" lon="6.36724">
        <ele>723.38</ele>
        <time>2024-01-31T04:18:41Z</time>
      </trkpt>
      <trkpt lat="43.95292" lon="6.36737">
        <ele>724.23</ele>
        <time>2024-01-31T04:18:43Z</time>
      </trkpt>
      <trkpt lat="43.95317" lon="6.36814">
        <ele>723.76</ele>
        <time>2024-01-31T04:18:56Z</time>
      </trkpt>
      <trkpt lat="43.9532" lon="6.36822">
        <ele>723.15</ele>
        <time>2024-01-31T04:18:57Z</time>
      </trkpt>
      <trkpt lat="43.9533" lon="6.36851">
        <ele>722.86</ele>
        <time>2024-01-31T04:19:03Z</time>
      </trkpt>
      <trkpt lat="43.95332" lon="6.36856">
        <ele>722.57</ele>
        <time>2024-01-31T04:19:03Z</time>
      </trkpt>
      <trkpt lat="43.95336" lon="6.36866">
        <ele>722.51</ele>
        <time>2024-01-31T04:19:05Z</time>
      </trkpt>
      <trkpt lat="43.95353" lon="6.36907">
        <ele>722.09</ele>
        <time>2024-01-31T04:19:13Z</time>
      </trkpt>
      <trkpt lat="43.95363" lon="6.36929">
        <ele>721.69</ele>
        <time>2024-01-31T04:19:16Z</time>
      </trkpt>
      <trkpt lat="43.95382" lon="6.36974">
        <ele>722.05</ele>
        <time>2024-01-31T04:19:24Z</time>
      </trkpt>
      <trkpt lat="43.95417" lon="6.36957">
        <ele>726.3</ele>
        <time>2024-01-31T04:19:32Z</time>
      </trkpt>
      <trkpt lat="43.95427" lon="6.3696">
        <ele>727.18</ele>
        <time>2024-01-31T04:19:35Z</time>
      </trkpt>
      <trkpt lat="43.95436" lon="6.36968">
        <ele>728.08</ele>
        <time>2024-01-31T04:19:37Z</time>
      </trkpt>
      <trkpt lat="43.95463" lon="6.37079">
        <ele>727.64</ele>
        <time>2024-01-31T04:19:54Z</time>
      </trkpt>
      <trkpt lat="43.95488" lon="6.37193">
        <ele>728.27</ele>
        <time>2024-01-31T04:20:15Z</time>
      </trkpt>
      <trkpt lat="43.95489" lon="6.37204">
        <ele>728.39</ele>
        <time>2024-01-31T04:20:17Z</time>
      </trkpt>
      <trkpt lat="43.95486" lon="6.37212">
        <ele>727.85</ele>
        <time>2024-01-31T04:20:18Z</time>
      </trkpt>
      <trkpt lat="43.95516" lon="6.37248">
        <ele>729.06</ele>
        <time>2024-01-31T04:20:29Z</time>
      </trkpt>
      <trkpt lat="43.95526" lon="6.37258">
        <ele>729.51</ele>
        <time>2024-01-31T04:20:33Z</time>
      </trkpt>
      <trkpt lat="43.95555" lon="6.37293">
        <ele>729.52</ele>
        <time>2024-01-31T04:20:46Z</time>
      </trkpt>
      <trkpt lat="43.95562" lon="6.37299">
        <ele>729.77</ele>
        <time>2024-01-31T04:20:49Z</time>
      </trkpt>
      <trkpt lat="43.95574" lon="6.37314">
        <ele>729.81</ele>
        <time>2024-01-31T04:20:54Z</time>
      </trkpt>
      <trkpt lat="43.95579" lon="6.37315">
        <ele>730.24</ele>
        <time>2024-01-31T04:20:56Z</time>
      </trkpt>
      <trkpt lat="43.9559" lon="6.37309">
        <ele>730.93</ele>
        <time>2024-01-31T04:21:00Z</time>
      </trkpt>
      <trkpt lat="43.9564" lon="6.37306">
        <ele>733.05</ele>
        <time>2024-01-31T04:21:19Z</time>
      </trkpt>
      <trkpt lat="43.95694" lon="6.37315">
        <ele>735.3</ele>
        <time>2024-01-31T04:21:41Z</time>
      </trkpt>
      <trkpt lat="43.95758" lon="6.37306">
        <ele>736.52</ele>
        <time>2024-01-31T04:22:08Z</time>
      </trkpt>
      <trkpt lat="43.9577" lon="6.37307">
        <ele>737</ele>
        <time>2024-01-31T04:22:13Z</time>
      </trkpt>
      <trkpt lat="43.95875" lon="6.37344">
        <ele>744.61</ele>
        <time>2024-01-31T04:22:58Z</time>
      </trkpt>
      <trkpt lat="43.95912" lon="6.37353">
        <ele>747</ele>
        <time>2024-01-31T04:23:16Z</time>
      </trkpt>
      <trkpt lat="43.95985" lon="6.37364">
        <ele>750.16</ele>
        <time>2024-01-31T04:23:56Z</time>
      </trkpt>
      <trkpt lat="43.95991" lon="6.37371">
        <ele>750.79</ele>
        <time>2024-01-31T04:24:01Z</time>
      </trkpt>
      <trkpt lat="43.95992" lon="6.37377">
        <ele>750.87</ele>
        <time>2024-01-31T04:24:04Z</time>
      </trkpt>
      <trkpt lat="43.95992" lon="6.37381">
        <ele>750.98</ele>
        <time>2024-01-31T04:24:05Z</time>
      </trkpt>
      <trkpt lat="43.95992" lon="6.374">
        <ele>751.72</ele>
        <time>2024-01-31T04:24:14Z</time>
      </trkpt>
      <trkpt lat="43.95991" lon="6.37428">
        <ele>754.35</ele>
        <time>2024-01-31T04:24:26Z</time>
      </trkpt>
      <trkpt lat="43.95996" lon="6.37445">
        <ele>756.52</ele>
        <time>2024-01-31T04:24:34Z</time>
      </trkpt>
      <trkpt lat="43.96029" lon="6.37483">
        <ele>762.3</ele>
        <time>2024-01-31T04:25:02Z</time>
      </trkpt>
      <trkpt lat="43.96054" lon="6.37506">
        <ele>764.76</ele>
        <time>2024-01-31T04:25:22Z</time>
      </trkpt>
      <trkpt lat="43.96062" lon="6.3752">
        <ele>767.06</ele>
        <time>2024-01-31T04:25:31Z</time>
      </trkpt>
      <trkpt lat="43.96076" lon="6.37555">
        <ele>777.13</ele>
        <time>2024-01-31T04:25:52Z</time>
      </trkpt>
      <trkpt lat="43.96088" lon="6.37572">
        <ele>778.11</ele>
        <time>2024-01-31T04:26:04Z</time>
      </trkpt>
      <trkpt lat="43.96202" lon="6.37696">
        <ele>789.64</ele>
        <time>2024-01-31T04:27:28Z</time>
      </trkpt>
      <trkpt lat="43.96249" lon="6.37767">
        <ele>795.86</ele>
        <time>2024-01-31T04:28:01Z</time>
      </trkpt>
      <trkpt lat="43.96256" lon="6.37784">
        <ele>798.27</ele>
        <time>2024-01-31T04:28:08Z</time>
      </trkpt>
      <trkpt lat="43.96261" lon="6.37816">
        <ele>800.82</ele>
        <time>2024-01-31T04:28:20Z</time>
      </trkpt>
      <trkpt lat="43.96265" lon="6.37831">
        <ele>800.8</ele>
        <time>2024-01-31T04:28:26Z</time>
      </trkpt>
      <trkpt lat="43.96271" lon="6.37843">
        <ele>800.61</ele>
        <time>2024-01-31T04:28:31Z</time>
      </trkpt>
      <trkpt lat="43.96278" lon="6.37847">
        <ele>800.7</ele>
        <time>2024-01-31T04:28:35Z</time>
      </trkpt>
      <trkpt lat="43.96311" lon="6.37847">
        <ele>803.19</ele>
        <time>2024-01-31T04:28:52Z</time>
      </trkpt>
      <trkpt lat="43.96366" lon="6.3786">
        <ele>814.27</ele>
        <time>2024-01-31T04:29:22Z</time>
      </trkpt>
      <trkpt lat="43.96405" lon="6.37866">
        <ele>817.26</ele>
        <time>2024-01-31T04:29:44Z</time>
      </trkpt>
      <trkpt lat="43.96439" lon="6.37874">
        <ele>823.28</ele>
        <time>2024-01-31T04:30:03Z</time>
      </trkpt>
      <trkpt lat="43.96471" lon="6.37871">
        <ele>826.83</ele>
        <time>2024-01-31T04:30:21Z</time>
      </trkpt>
      <trkpt lat="43.96538" lon="6.37884">
        <ele>834.84</ele>
        <time>2024-01-31T04:30:55Z</time>
      </trkpt>
      <trkpt lat="43.9656" lon="6.37883">
        <ele>835.31</ele>
        <time>2024-01-31T04:31:06Z</time>
      </trkpt>
      <trkpt lat="43.966" lon="6.37869">
        <ele>835.75</ele>
        <time>2024-01-31T04:31:24Z</time>
      </trkpt>
      <trkpt lat="43.96656" lon="6.37828">
        <ele>842.13</ele>
        <time>2024-01-31T04:31:53Z</time>
      </trkpt>
      <trkpt lat="43.96665" lon="6.37819">
        <ele>844.26</ele>
        <time>2024-01-31T04:31:58Z</time>
      </trkpt>
      <trkpt lat="43.96673" lon="6.37817">
        <ele>846.09</ele>
        <time>2024-01-31T04:32:03Z</time>
      </trkpt>
      <trkpt lat="43.967" lon="6.37793">
        <ele>852.97</ele>
        <time>2024-01-31T04:32:21Z</time>
      </trkpt>
      <trkpt lat="43.96751" lon="6.37722">
        <ele>862.59</ele>
        <time>2024-01-31T04:33:03Z</time>
      </trkpt>
      <trkpt lat="43.96788" lon="6.37682">
        <ele>863.61</ele>
        <time>2024-01-31T04:33:31Z</time>
      </trkpt>
      <trkpt lat="43.96816" lon="6.37643">
        <ele>865.28</ele>
        <time>2024-01-31T04:33:54Z</time>
      </trkpt>
      <trkpt lat="43.96839" lon="6.37642">
        <ele>866.42</ele>
        <time>2024-01-31T04:34:07Z</time>
      </trkpt>
      <trkpt lat="43.96875" lon="6.37621">
        <ele>865.55</ele>
        <time>2024-01-31T04:34:26Z</time>
      </trkpt>
      <trkpt lat="43.96902" lon="6.37591">
        <ele>866.21</ele>
        <time>2024-01-31T04:34:42Z</time>
      </trkpt>
      <trkpt lat="43.96915" lon="6.3757">
        <ele>867.86</ele>
        <time>2024-01-31T04:34:49Z</time>
      </trkpt>
      <trkpt lat="43.96928" lon="6.37577">
        <ele>866.33</ele>
        <time>2024-01-31T04:34:55Z</time>
      </trkpt>
      <trkpt lat="43.96937" lon="6.37571">
        <ele>866.98</ele>
        <time>2024-01-31T04:34:58Z</time>
      </trkpt>
      <trkpt lat="43.96969" lon="6.37533">
        <ele>870.51</ele>
        <time>2024-01-31T04:35:11Z</time>
      </trkpt>
      <trkpt lat="43.97034" lon="6.37496">
        <ele>865.98</ele>
        <time>2024-01-31T04:35:25Z</time>
      </trkpt>
      <trkpt lat="43.97051" lon="6.37483">
        <ele>865.52</ele>
        <time>2024-01-31T04:35:28Z</time>
      </trkpt>
      <trkpt lat="43.97067" lon="6.37468">
        <ele>864.22</ele>
        <time>2024-01-31T04:35:32Z</time>
      </trkpt>
      <trkpt lat="43.97072" lon="6.3745">
        <ele>862.92</ele>
        <time>2024-01-31T04:35:34Z</time>
      </trkpt>
      <trkpt lat="43.9708" lon="6.37444">
        <ele>860.96</ele>
        <time>2024-01-31T04:35:36Z</time>
      </trkpt>
      <trkpt lat="43.97093" lon="6.37459">
        <ele>859.39</ele>
        <time>2024-01-31T04:35:39Z</time>
      </trkpt>
      <trkpt lat="43.97101" lon="6.37477">
        <ele>858.57</ele>
        <time>2024-01-31T04:35:43Z</time>
      </trkpt>
      <trkpt lat="43.97107" lon="6.37489">
        <ele>857.89</ele>
        <time>2024-01-31T04:35:45Z</time>
      </trkpt>
      <trkpt lat="43.971" lon="6.3758">
        <ele>850.9</ele>
        <time>2024-01-31T04:35:59Z</time>
      </trkpt>
      <trkpt lat="43.97094" lon="6.37594">
        <ele>849.9</ele>
        <time>2024-01-31T04:36:01Z</time>
      </trkpt>
      <trkpt lat="43.97061" lon="6.37626">
        <ele>844.62</ele>
        <time>2024-01-31T04:36:09Z</time>
      </trkpt>
      <trkpt lat="43.97051" lon="6.37648">
        <ele>841.74</ele>
        <time>2024-01-31T04:36:13Z</time>
      </trkpt>
      <trkpt lat="43.97044" lon="6.37676">
        <ele>838.65</ele>
        <time>2024-01-31T04:36:17Z</time>
      </trkpt>
      <trkpt lat="43.97037" lon="6.37729">
        <ele>834</ele>
        <time>2024-01-31T04:36:25Z</time>
      </trkpt>
      <trkpt lat="43.97023" lon="6.37773">
        <ele>828.89</ele>
        <time>2024-01-31T04:36:32Z</time>
      </trkpt>
      <trkpt lat="43.96959" lon="6.37877">
        <ele>819.75</ele>
        <time>2024-01-31T04:36:52Z</time>
      </trkpt>
      <trkpt lat="43.96924" lon="6.37923">
        <ele>818.37</ele>
        <time>2024-01-31T04:37:02Z</time>
      </trkpt>
      <trkpt lat="43.96921" lon="6.37932">
        <ele>818.12</ele>
        <time>2024-01-31T04:37:04Z</time>
      </trkpt>
      <trkpt lat="43.96911" lon="6.38053">
        <ele>806.08</ele>
        <time>2024-01-31T04:37:22Z</time>
      </trkpt>
      <trkpt lat="43.96903" lon="6.38101">
        <ele>802.58</ele>
        <time>2024-01-31T04:37:29Z</time>
      </trkpt>
      <trkpt lat="43.96905" lon="6.3818">
        <ele>797.21</ele>
        <time>2024-01-31T04:37:41Z</time>
      </trkpt>
      <trkpt lat="43.96882" lon="6.38281">
        <ele>790.93</ele>
        <time>2024-01-31T04:37:56Z</time>
      </trkpt>
      <trkpt lat="43.96878" lon="6.38292">
        <ele>790.6</ele>
        <time>2024-01-31T04:37:58Z</time>
      </trkpt>
      <trkpt lat="43.96847" lon="6.38347">
        <ele>789.78</ele>
        <time>2024-01-31T04:38:09Z</time>
      </trkpt>
      <trkpt lat="43.96815" lon="6.38386">
        <ele>787.12</ele>
        <time>2024-01-31T04:38:18Z</time>
      </trkpt>
      <trkpt lat="43.96793" lon="6.38424">
        <ele>783.87</ele>
        <time>2024-01-31T04:38:26Z</time>
      </trkpt>
      <trkpt lat="43.96762" lon="6.38464">
        <ele>780.62</ele>
        <time>2024-01-31T04:38:35Z</time>
      </trkpt>
      <trkpt lat="43.96755" lon="6.38476">
        <ele>780.06</ele>
        <time>2024-01-31T04:38:37Z</time>
      </trkpt>
      <trkpt lat="43.96752" lon="6.38488">
        <ele>779.03</ele>
        <time>2024-01-31T04:38:39Z</time>
      </trkpt>
      <trkpt lat="43.96749" lon="6.38553">
        <ele>775.5</ele>
        <time>2024-01-31T04:38:49Z</time>
      </trkpt>
      <trkpt lat="43.96751" lon="6.38567">
        <ele>775.22</ele>
        <time>2024-01-31T04:38:51Z</time>
      </trkpt>
      <trkpt lat="43.96758" lon="6.3858">
        <ele>774.65</ele>
        <time>2024-01-31T04:38:53Z</time>
      </trkpt>
      <trkpt lat="43.96761" lon="6.38593">
        <ele>773.62</ele>
        <time>2024-01-31T04:38:55Z</time>
      </trkpt>
      <trkpt lat="43.96759" lon="6.38675">
        <ele>765.08</ele>
        <time>2024-01-31T04:39:07Z</time>
      </trkpt>
      <trkpt lat="43.96766" lon="6.38729">
        <ele>756.85</ele>
        <time>2024-01-31T04:39:16Z</time>
      </trkpt>
      <trkpt lat="43.96764" lon="6.38758">
        <ele>752.76</ele>
        <time>2024-01-31T04:39:20Z</time>
      </trkpt>
      <trkpt lat="43.96754" lon="6.38779">
        <ele>751.79</ele>
        <time>2024-01-31T04:39:24Z</time>
      </trkpt>
      <trkpt lat="43.96755" lon="6.38792">
        <ele>749.13</ele>
        <time>2024-01-31T04:39:26Z</time>
      </trkpt>
      <trkpt lat="43.9677" lon="6.3879">
        <ele>749.45</ele>
        <time>2024-01-31T04:39:28Z</time>
      </trkpt>
      <trkpt lat="43.96978" lon="6.38822">
        <ele>753.71</ele>
        <time>2024-01-31T04:40:02Z</time>
      </trkpt>
      <trkpt lat="43.9699" lon="6.38828">
        <ele>753.97</ele>
        <time>2024-01-31T04:40:05Z</time>
      </trkpt>
      <trkpt lat="43.97002" lon="6.38837">
        <ele>754.29</ele>
        <time>2024-01-31T04:40:08Z</time>
      </trkpt>
      <trkpt lat="43.97033" lon="6.38868">
        <ele>754.56</ele>
        <time>2024-01-31T04:40:17Z</time>
      </trkpt>
      <trkpt lat="43.9708" lon="6.3892">
        <ele>754.93</ele>
        <time>2024-01-31T04:40:31Z</time>
      </trkpt>
      <trkpt lat="43.97103" lon="6.38942">
        <ele>755.42</ele>
        <time>2024-01-31T04:40:37Z</time>
      </trkpt>
      <trkpt lat="43.97124" lon="6.3895">
        <ele>755.06</ele>
        <time>2024-01-31T04:40:42Z</time>
      </trkpt>
      <trkpt lat="43.97157" lon="6.38949">
        <ele>754.12</ele>
        <time>2024-01-31T04:40:49Z</time>
      </trkpt>
      <trkpt lat="43.972" lon="6.38937">
        <ele>754.42</ele>
        <time>2024-01-31T04:40:58Z</time>
      </trkpt>
      <trkpt lat="43.97209" lon="6.38937">
        <ele>754.92</ele>
        <time>2024-01-31T04:41:01Z</time>
      </trkpt>
      <trkpt lat="43.97221" lon="6.38942">
        <ele>755.13</ele>
        <time>2024-01-31T04:41:03Z</time>
      </trkpt>
      <trkpt lat="43.973" lon="6.39029">
        <ele>757.4</ele>
        <time>2024-01-31T04:41:26Z</time>
      </trkpt>
      <trkpt lat="43.97326" lon="6.39047">
        <ele>758.22</ele>
        <time>2024-01-31T04:41:33Z</time>
      </trkpt>
      <trkpt lat="43.97369" lon="6.39049">
        <ele>761.29</ele>
        <time>2024-01-31T04:41:46Z</time>
      </trkpt>
      <trkpt lat="43.9739" lon="6.39055">
        <ele>761.16</ele>
        <time>2024-01-31T04:41:54Z</time>
      </trkpt>
      <trkpt lat="43.9744" lon="6.39044">
        <ele>761.24</ele>
        <time>2024-01-31T04:42:13Z</time>
      </trkpt>
      <trkpt lat="43.97489" lon="6.3901">
        <ele>761.69</ele>
        <time>2024-01-31T04:42:32Z</time>
      </trkpt>
      <trkpt lat="43.975" lon="6.38999">
        <ele>762.15</ele>
        <time>2024-01-31T04:42:37Z</time>
      </trkpt>
      <trkpt lat="43.97538" lon="6.38922">
        <ele>761.27</ele>
        <time>2024-01-31T04:42:57Z</time>
      </trkpt>
      <trkpt lat="43.97557" lon="6.38907">
        <ele>760.17</ele>
        <time>2024-01-31T04:43:03Z</time>
      </trkpt>
      <trkpt lat="43.9757" lon="6.38904">
        <ele>760.62</ele>
        <time>2024-01-31T04:43:06Z</time>
      </trkpt>
      <trkpt lat="43.97751" lon="6.38888">
        <ele>763.39</ele>
        <time>2024-01-31T04:43:34Z</time>
      </trkpt>
      <trkpt lat="43.97786" lon="6.38888">
        <ele>762.77</ele>
        <time>2024-01-31T04:43:40Z</time>
      </trkpt>
      <trkpt lat="43.97878" lon="6.38916">
        <ele>763.28</ele>
        <time>2024-01-31T04:43:55Z</time>
      </trkpt>
      <trkpt lat="43.97957" lon="6.38925">
        <ele>764.45</ele>
        <time>2024-01-31T04:44:11Z</time>
      </trkpt>
      <trkpt lat="43.98033" lon="6.38913">
        <ele>765.57</ele>
        <time>2024-01-31T04:44:29Z</time>
      </trkpt>
      <trkpt lat="43.98047" lon="6.38909">
        <ele>765.75</ele>
        <time>2024-01-31T04:44:32Z</time>
      </trkpt>
      <trkpt lat="43.98081" lon="6.38901">
        <ele>765.96</ele>
        <time>2024-01-31T04:44:41Z</time>
      </trkpt>
      <trkpt lat="43.9813" lon="6.38878">
        <ele>766.53</ele>
        <time>2024-01-31T04:44:54Z</time>
      </trkpt>
      <trkpt lat="43.98137" lon="6.38874">
        <ele>766.7</ele>
        <time>2024-01-31T04:44:56Z</time>
      </trkpt>
      <trkpt lat="43.98161" lon="6.38855">
        <ele>767.38</ele>
        <time>2024-01-31T04:45:02Z</time>
      </trkpt>
      <trkpt lat="43.98228" lon="6.38779">
        <ele>769.25</ele>
        <time>2024-01-31T04:45:21Z</time>
      </trkpt>
      <trkpt lat="43.98244" lon="6.3877">
        <ele>768.35</ele>
        <time>2024-01-31T04:45:25Z</time>
      </trkpt>
      <trkpt lat="43.98292" lon="6.38757">
        <ele>768.07</ele>
        <time>2024-01-31T04:45:36Z</time>
      </trkpt>
      <trkpt lat="43.98355" lon="6.38742">
        <ele>769.12</ele>
        <time>2024-01-31T04:45:48Z</time>
      </trkpt>
      <trkpt lat="43.98477" lon="6.38706">
        <ele>772.15</ele>
        <time>2024-01-31T04:46:14Z</time>
      </trkpt>
      <trkpt lat="43.98494" lon="6.38704">
        <ele>772.85</ele>
        <time>2024-01-31T04:46:18Z</time>
      </trkpt>
      <trkpt lat="43.98511" lon="6.38707">
        <ele>773.01</ele>
        <time>2024-01-31T04:46:22Z</time>
      </trkpt>
      <trkpt lat="43.98559" lon="6.38728">
        <ele>773.3</ele>
        <time>2024-01-31T04:46:35Z</time>
      </trkpt>
      <trkpt lat="43.98583" lon="6.38731">
        <ele>773.69</ele>
        <time>2024-01-31T04:46:41Z</time>
      </trkpt>
      <trkpt lat="43.98621" lon="6.38729">
        <ele>774.84</ele>
        <time>2024-01-31T04:46:52Z</time>
      </trkpt>
      <trkpt lat="43.98689" lon="6.38735">
        <ele>771.26</ele>
        <time>2024-01-31T04:47:11Z</time>
      </trkpt>
      <trkpt lat="43.9876" lon="6.38726">
        <ele>773.09</ele>
        <time>2024-01-31T04:47:32Z</time>
      </trkpt>
      <trkpt lat="43.98789" lon="6.38717">
        <ele>770.75</ele>
        <time>2024-01-31T04:47:40Z</time>
      </trkpt>
      <trkpt lat="43.98826" lon="6.38689">
        <ele>773.7</ele>
        <time>2024-01-31T04:47:51Z</time>
      </trkpt>
      <trkpt lat="43.98885" lon="6.38652">
        <ele>777.7</ele>
        <time>2024-01-31T04:48:08Z</time>
      </trkpt>
      <trkpt lat="43.98924" lon="6.38604">
        <ele>778.27</ele>
        <time>2024-01-31T04:48:21Z</time>
      </trkpt>
      <trkpt lat="43.98938" lon="6.38593">
        <ele>777.7</ele>
        <time>2024-01-31T04:48:25Z</time>
      </trkpt>
      <trkpt lat="43.9901" lon="6.38559">
        <ele>780.62</ele>
        <time>2024-01-31T04:48:42Z</time>
      </trkpt>
      <trkpt lat="43.99102" lon="6.38508">
        <ele>783.32</ele>
        <time>2024-01-31T04:49:01Z</time>
      </trkpt>
      <trkpt lat="43.99134" lon="6.38496">
        <ele>781.9</ele>
        <time>2024-01-31T04:49:07Z</time>
      </trkpt>
      <trkpt lat="43.99292" lon="6.38494">
        <ele>781.91</ele>
        <time>2024-01-31T04:49:34Z</time>
      </trkpt>
      <trkpt lat="43.99385" lon="6.38505">
        <ele>782.1</ele>
        <time>2024-01-31T04:49:51Z</time>
      </trkpt>
      <trkpt lat="43.99418" lon="6.38504">
        <ele>782.24</ele>
        <time>2024-01-31T04:49:57Z</time>
      </trkpt>
      <trkpt lat="43.99492" lon="6.38486">
        <ele>784.21</ele>
        <time>2024-01-31T04:50:14Z</time>
      </trkpt>
      <trkpt lat="43.99567" lon="6.38473">
        <ele>785.67</ele>
        <time>2024-01-31T04:50:32Z</time>
      </trkpt>
      <trkpt lat="43.99632" lon="6.38457">
        <ele>786.17</ele>
        <time>2024-01-31T04:50:49Z</time>
      </trkpt>
      <trkpt lat="43.99694" lon="6.3843">
        <ele>787.17</ele>
        <time>2024-01-31T04:51:06Z</time>
      </trkpt>
      <trkpt lat="43.9979" lon="6.38439">
        <ele>789.4</ele>
        <time>2024-01-31T04:51:36Z</time>
      </trkpt>
      <trkpt lat="43.99823" lon="6.38436">
        <ele>791.81</ele>
        <time>2024-01-31T04:51:46Z</time>
      </trkpt>
      <trkpt lat="43.9989" lon="6.38424">
        <ele>793.84</ele>
        <time>2024-01-31T04:52:08Z</time>
      </trkpt>
      <trkpt lat="43.99954" lon="6.38393">
        <ele>799.2</ele>
        <time>2024-01-31T04:52:28Z</time>
      </trkpt>
      <trkpt lat="44.00015" lon="6.38381">
        <ele>799.38</ele>
        <time>2024-01-31T04:52:46Z</time>
      </trkpt>
      <trkpt lat="44.00055" lon="6.38359">
        <ele>800.55</ele>
        <time>2024-01-31T04:52:57Z</time>
      </trkpt>
      <trkpt lat="44.00066" lon="6.38349">
        <ele>801.11</ele>
        <time>2024-01-31T04:53:00Z</time>
      </trkpt>
      <trkpt lat="44.00089" lon="6.38324">
        <ele>801.56</ele>
        <time>2024-01-31T04:53:07Z</time>
      </trkpt>
      <trkpt lat="44.00098" lon="6.38309">
        <ele>801.45</ele>
        <time>2024-01-31T04:53:10Z</time>
      </trkpt>
      <trkpt lat="44.00145" lon="6.38203">
        <ele>801.76</ele>
        <time>2024-01-31T04:53:28Z</time>
      </trkpt>
      <trkpt lat="44.00162" lon="6.38169">
        <ele>802.58</ele>
        <time>2024-01-31T04:53:34Z</time>
      </trkpt>
      <trkpt lat="44.00208" lon="6.381">
        <ele>800.99</ele>
        <time>2024-01-31T04:53:47Z</time>
      </trkpt>
      <trkpt lat="44.00231" lon="6.38058">
        <ele>800.86</ele>
        <time>2024-01-31T04:53:54Z</time>
      </trkpt>
      <trkpt lat="44.00266" lon="6.37965">
        <ele>800.69</ele>
        <time>2024-01-31T04:54:08Z</time>
      </trkpt>
      <trkpt lat="44.00282" lon="6.37931">
        <ele>801.07</ele>
        <time>2024-01-31T04:54:13Z</time>
      </trkpt>
      <trkpt lat="44.00363" lon="6.37825">
        <ele>802.16</ele>
        <time>2024-01-31T04:54:32Z</time>
      </trkpt>
      <trkpt lat="44.00381" lon="6.37805">
        <ele>802.12</ele>
        <time>2024-01-31T04:54:37Z</time>
      </trkpt>
      <trkpt lat="44.00418" lon="6.37774">
        <ele>802.78</ele>
        <time>2024-01-31T04:54:44Z</time>
      </trkpt>
      <trkpt lat="44.00436" lon="6.37765">
        <ele>803.5</ele>
        <time>2024-01-31T04:54:48Z</time>
      </trkpt>
      <trkpt lat="44.00455" lon="6.37763">
        <ele>803.5</ele>
        <time>2024-01-31T04:54:51Z</time>
      </trkpt>
      <trkpt lat="44.00482" lon="6.37766">
        <ele>802.33</ele>
        <time>2024-01-31T04:54:56Z</time>
      </trkpt>
      <trkpt lat="44.00495" lon="6.37773">
        <ele>802.18</ele>
        <time>2024-01-31T04:54:59Z</time>
      </trkpt>
      <trkpt lat="44.00514" lon="6.3779">
        <ele>802.12</ele>
        <time>2024-01-31T04:55:03Z</time>
      </trkpt>
      <trkpt lat="44.00581" lon="6.37886">
        <ele>803.72</ele>
        <time>2024-01-31T04:55:21Z</time>
      </trkpt>
      <trkpt lat="44.00607" lon="6.37923">
        <ele>803.52</ele>
        <time>2024-01-31T04:55:30Z</time>
      </trkpt>
      <trkpt lat="44.00614" lon="6.37949">
        <ele>802.31</ele>
        <time>2024-01-31T04:55:35Z</time>
      </trkpt>
      <trkpt lat="44.00613" lon="6.37976">
        <ele>801.25</ele>
        <time>2024-01-31T04:55:40Z</time>
      </trkpt>
      <trkpt lat="44.00597" lon="6.38038">
        <ele>800.56</ele>
        <time>2024-01-31T04:55:52Z</time>
      </trkpt>
      <trkpt lat="44.00588" lon="6.38078">
        <ele>803.31</ele>
        <time>2024-01-31T04:56:00Z</time>
      </trkpt>
      <trkpt lat="44.00584" lon="6.38095">
        <ele>805.91</ele>
        <time>2024-01-31T04:56:04Z</time>
      </trkpt>
      <trkpt lat="44.00583" lon="6.38143">
        <ele>806.61</ele>
        <time>2024-01-31T04:56:13Z</time>
      </trkpt>
      <trkpt lat="44.00594" lon="6.38188">
        <ele>805.89</ele>
        <time>2024-01-31T04:56:21Z</time>
      </trkpt>
      <trkpt lat="44.00611" lon="6.38212">
        <ele>804.12</ele>
        <time>2024-01-31T04:56:27Z</time>
      </trkpt>
      <trkpt lat="44.00642" lon="6.38244">
        <ele>802.57</ele>
        <time>2024-01-31T04:56:37Z</time>
      </trkpt>
      <trkpt lat="44.0071" lon="6.38309">
        <ele>802.71</ele>
        <time>2024-01-31T04:56:51Z</time>
      </trkpt>
      <trkpt lat="44.00735" lon="6.38318">
        <ele>802.87</ele>
        <time>2024-01-31T04:56:55Z</time>
      </trkpt>
      <trkpt lat="44.00861" lon="6.3832">
        <ele>803.79</ele>
        <time>2024-01-31T04:57:17Z</time>
      </trkpt>
      <trkpt lat="44.0091" lon="6.38328">
        <ele>804.66</ele>
        <time>2024-01-31T04:57:28Z</time>
      </trkpt>
      <trkpt lat="44.01232" lon="6.38419">
        <ele>809.85</ele>
        <time>2024-01-31T04:59:05Z</time>
      </trkpt>
      <trkpt lat="44.01232" lon="6.38435">
        <ele>810.63</ele>
        <time>2024-01-31T04:59:09Z</time>
      </trkpt>
      <trkpt lat="44.01237" lon="6.38456">
        <ele>811.1</ele>
        <time>2024-01-31T04:59:13Z</time>
      </trkpt>
      <trkpt lat="44.01259" lon="6.38534">
        <ele>813.86</ele>
        <time>2024-01-31T04:59:33Z</time>
      </trkpt>
      <trkpt lat="44.0126" lon="6.38545">
        <ele>814.21</ele>
        <time>2024-01-31T04:59:35Z</time>
      </trkpt>
      <trkpt lat="44.01258" lon="6.38555">
        <ele>814.71</ele>
        <time>2024-01-31T04:59:38Z</time>
      </trkpt>
      <trkpt lat="44.01252" lon="6.38568">
        <ele>815.07</ele>
        <time>2024-01-31T04:59:41Z</time>
      </trkpt>
      <trkpt lat="44.01244" lon="6.38578">
        <ele>815.34</ele>
        <time>2024-01-31T04:59:45Z</time>
      </trkpt>
      <trkpt lat="44.01241" lon="6.38587">
        <ele>815.78</ele>
        <time>2024-01-31T04:59:47Z</time>
      </trkpt>
      <trkpt lat="44.01239" lon="6.38608">
        <ele>816.46</ele>
        <time>2024-01-31T04:59:52Z</time>
      </trkpt>
      <trkpt lat="44.01245" lon="6.38789">
        <ele>823.48</ele>
        <time>2024-01-31T05:00:37Z</time>
      </trkpt>
      <trkpt lat="44.01245" lon="6.38842">
        <ele>823.54</ele>
        <time>2024-01-31T05:00:49Z</time>
      </trkpt>
      <trkpt lat="44.01247" lon="6.38866">
        <ele>824.08</ele>
        <time>2024-01-31T05:00:54Z</time>
      </trkpt>
      <trkpt lat="44.01253" lon="6.38888">
        <ele>823.92</ele>
        <time>2024-01-31T05:00:58Z</time>
      </trkpt>
      <trkpt lat="44.01203" lon="6.38938">
        <ele>828.02</ele>
        <time>2024-01-31T05:01:20Z</time>
      </trkpt>
      <trkpt lat="44.01194" lon="6.38944">
        <ele>828.62</ele>
        <time>2024-01-31T05:01:24Z</time>
      </trkpt>
      <trkpt lat="44.01176" lon="6.38939">
        <ele>828.44</ele>
        <time>2024-01-31T05:01:30Z</time>
      </trkpt>
      <trkpt lat="44.0112" lon="6.3894">
        <ele>824.82</ele>
        <time>2024-01-31T05:01:48Z</time>
      </trkpt>
      <trkpt lat="44.01064" lon="6.38959">
        <ele>824.27</ele>
        <time>2024-01-31T05:02:06Z</time>
      </trkpt>
      <trkpt lat="44.0104" lon="6.38979">
        <ele>825.24</ele>
        <time>2024-01-31T05:02:15Z</time>
      </trkpt>
      <trkpt lat="44.00998" lon="6.38983">
        <ele>826.04</ele>
        <time>2024-01-31T05:02:30Z</time>
      </trkpt>
      <trkpt lat="44.01013" lon="6.39076">
        <ele>830.92</ele>
        <time>2024-01-31T05:02:58Z</time>
      </trkpt>
      <trkpt lat="44.01009" lon="6.39092">
        <ele>833.91</ele>
        <time>2024-01-31T05:03:03Z</time>
      </trkpt>
      <trkpt lat="44.00989" lon="6.39117">
        <ele>837.08</ele>
        <time>2024-01-31T05:03:14Z</time>
      </trkpt>
      <trkpt lat="44.00976" lon="6.39144">
        <ele>838.36</ele>
        <time>2024-01-31T05:03:24Z</time>
      </trkpt>
      <trkpt lat="44.00967" lon="6.39171">
        <ele>839.65</ele>
        <time>2024-01-31T05:03:32Z</time>
      </trkpt>
      <trkpt lat="44.00971" lon="6.39188">
        <ele>839.57</ele>
        <time>2024-01-31T05:03:37Z</time>
      </trkpt>
      <trkpt lat="44.00996" lon="6.39246">
        <ele>838.95</ele>
        <time>2024-01-31T05:03:56Z</time>
      </trkpt>
      <trkpt lat="44.00978" lon="6.39286">
        <ele>842.89</ele>
        <time>2024-01-31T05:04:09Z</time>
      </trkpt>
      <trkpt lat="44.00973" lon="6.39306">
        <ele>843.05</ele>
        <time>2024-01-31T05:04:15Z</time>
      </trkpt>
      <trkpt lat="44.00962" lon="6.39387">
        <ele>837.92</ele>
        <time>2024-01-31T05:04:37Z</time>
      </trkpt>
      <trkpt lat="44.01009" lon="6.39409">
        <ele>842.22</ele>
        <time>2024-01-31T05:04:50Z</time>
      </trkpt>
      <trkpt lat="44.01039" lon="6.39433">
        <ele>843.73</ele>
        <time>2024-01-31T05:05:01Z</time>
      </trkpt>
      <trkpt lat="44.01105" lon="6.39464">
        <ele>843.72</ele>
        <time>2024-01-31T05:05:22Z</time>
      </trkpt>
      <trkpt lat="44.01122" lon="6.39464">
        <ele>844.45</ele>
        <time>2024-01-31T05:05:27Z</time>
      </trkpt>
      <trkpt lat="44.0114" lon="6.39453">
        <ele>846.07</ele>
        <time>2024-01-31T05:05:33Z</time>
      </trkpt>
      <trkpt lat="44.01148" lon="6.39452">
        <ele>846.24</ele>
        <time>2024-01-31T05:05:35Z</time>
      </trkpt>
      <trkpt lat="44.01166" lon="6.39456">
        <ele>847.45</ele>
        <time>2024-01-31T05:05:41Z</time>
      </trkpt>
      <trkpt lat="44.0117" lon="6.39465">
        <ele>847.4</ele>
        <time>2024-01-31T05:05:45Z</time>
      </trkpt>
      <trkpt lat="44.01171" lon="6.3948">
        <ele>847.03</ele>
        <time>2024-01-31T05:05:49Z</time>
      </trkpt>
      <trkpt lat="44.01166" lon="6.39512">
        <ele>847.79</ele>
        <time>2024-01-31T05:06:00Z</time>
      </trkpt>
      <trkpt lat="44.0114" lon="6.39567">
        <ele>847.18</ele>
        <time>2024-01-31T05:06:14Z</time>
      </trkpt>
      <trkpt lat="44.0114" lon="6.39592">
        <ele>847</ele>
        <time>2024-01-31T05:06:20Z</time>
      </trkpt>
      <trkpt lat="44.01169" lon="6.39644">
        <ele>849.17</ele>
        <time>2024-01-31T05:06:35Z</time>
      </trkpt>
      <trkpt lat="44.01179" lon="6.39667">
        <ele>850.13</ele>
        <time>2024-01-31T05:06:40Z</time>
      </trkpt>
      <trkpt lat="44.01196" lon="6.39729">
        <ele>851.43</ele>
        <time>2024-01-31T05:06:54Z</time>
      </trkpt>
      <trkpt lat="44.01199" lon="6.39748">
        <ele>850.74</ele>
        <time>2024-01-31T05:06:59Z</time>
      </trkpt>
      <trkpt lat="44.01197" lon="6.39789">
        <ele>849.98</ele>
        <time>2024-01-31T05:07:08Z</time>
      </trkpt>
      <trkpt lat="44.01202" lon="6.39813">
        <ele>850.34</ele>
        <time>2024-01-31T05:07:14Z</time>
      </trkpt>
      <trkpt lat="44.01206" lon="6.39822">
        <ele>850.73</ele>
        <time>2024-01-31T05:07:16Z</time>
      </trkpt>
      <trkpt lat="44.01215" lon="6.39846">
        <ele>851.41</ele>
        <time>2024-01-31T05:07:23Z</time>
      </trkpt>
      <trkpt lat="44.01229" lon="6.39908">
        <ele>851.62</ele>
        <time>2024-01-31T05:07:40Z</time>
      </trkpt>
      <trkpt lat="44.0123" lon="6.39923">
        <ele>851.62</ele>
        <time>2024-01-31T05:07:44Z</time>
      </trkpt>
      <trkpt lat="44.01228" lon="6.39945">
        <ele>851.97</ele>
        <time>2024-01-31T05:07:49Z</time>
      </trkpt>
      <trkpt lat="44.01219" lon="6.3999">
        <ele>853.65</ele>
        <time>2024-01-31T05:08:00Z</time>
      </trkpt>
      <trkpt lat="44.01219" lon="6.39999">
        <ele>854.06</ele>
        <time>2024-01-31T05:08:02Z</time>
      </trkpt>
      <trkpt lat="44.01225" lon="6.40006">
        <ele>854.9</ele>
        <time>2024-01-31T05:08:05Z</time>
      </trkpt>
      <trkpt lat="44.01238" lon="6.40014">
        <ele>856.97</ele>
        <time>2024-01-31T05:08:09Z</time>
      </trkpt>
      <trkpt lat="44.01243" lon="6.40021">
        <ele>857.84</ele>
        <time>2024-01-31T05:08:11Z</time>
      </trkpt>
      <trkpt lat="44.01251" lon="6.40034">
        <ele>859.75</ele>
        <time>2024-01-31T05:08:15Z</time>
      </trkpt>
      <trkpt lat="44.01256" lon="6.40094">
        <ele>862.15</ele>
        <time>2024-01-31T05:08:29Z</time>
      </trkpt>
      <trkpt lat="44.01254" lon="6.40118">
        <ele>862.36</ele>
        <time>2024-01-31T05:08:35Z</time>
      </trkpt>
      <trkpt lat="44.01251" lon="6.4013">
        <ele>862.22</ele>
        <time>2024-01-31T05:08:38Z</time>
      </trkpt>
      <trkpt lat="44.01249" lon="6.40141">
        <ele>862.48</ele>
        <time>2024-01-31T05:08:41Z</time>
      </trkpt>
      <trkpt lat="44.01245" lon="6.40147">
        <ele>861.93</ele>
        <time>2024-01-31T05:08:43Z</time>
      </trkpt>
      <trkpt lat="44.0121" lon="6.40241">
        <ele>857.33</ele>
        <time>2024-01-31T05:09:19Z</time>
      </trkpt>
      <trkpt lat="44.01206" lon="6.40316">
        <ele>859.57</ele>
        <time>2024-01-31T05:09:46Z</time>
      </trkpt>
      <trkpt lat="44.01211" lon="6.40421">
        <ele>863.3</ele>
        <time>2024-01-31T05:10:29Z</time>
      </trkpt>
      <trkpt lat="44.01206" lon="6.40479">
        <ele>866.49</ele>
        <time>2024-01-31T05:10:53Z</time>
      </trkpt>
      <trkpt lat="44.01192" lon="6.40545">
        <ele>871.5</ele>
        <time>2024-01-31T05:11:20Z</time>
      </trkpt>
      <trkpt lat="44.01181" lon="6.40567">
        <ele>871.04</ele>
        <time>2024-01-31T05:11:30Z</time>
      </trkpt>
      <trkpt lat="44.01147" lon="6.40612">
        <ele>873.89</ele>
        <time>2024-01-31T05:11:52Z</time>
      </trkpt>
      <trkpt lat="44.01126" lon="6.40633">
        <ele>874.47</ele>
        <time>2024-01-31T05:12:03Z</time>
      </trkpt>
      <trkpt lat="44.01101" lon="6.40651">
        <ele>873.86</ele>
        <time>2024-01-31T05:12:14Z</time>
      </trkpt>
      <trkpt lat="44.0109" lon="6.40661">
        <ele>874.3</ele>
        <time>2024-01-31T05:12:19Z</time>
      </trkpt>
      <trkpt lat="44.01082" lon="6.40675">
        <ele>876.96</ele>
        <time>2024-01-31T05:12:23Z</time>
      </trkpt>
      <trkpt lat="44.01052" lon="6.40699">
        <ele>873.56</ele>
        <time>2024-01-31T05:12:35Z</time>
      </trkpt>
      <trkpt lat="44.01047" lon="6.40707">
        <ele>873.92</ele>
        <time>2024-01-31T05:12:38Z</time>
      </trkpt>
      <trkpt lat="44.01038" lon="6.40731">
        <ele>875.63</ele>
        <time>2024-01-31T05:12:44Z</time>
      </trkpt>
      <trkpt lat="44.0103" lon="6.4076">
        <ele>875.44</ele>
        <time>2024-01-31T05:12:51Z</time>
      </trkpt>
      <trkpt lat="44.01028" lon="6.40778">
        <ele>875.58</ele>
        <time>2024-01-31T05:12:56Z</time>
      </trkpt>
      <trkpt lat="44.01034" lon="6.40815">
        <ele>879.47</ele>
        <time>2024-01-31T05:13:07Z</time>
      </trkpt>
      <trkpt lat="44.01033" lon="6.40829">
        <ele>879.1</ele>
        <time>2024-01-31T05:13:10Z</time>
      </trkpt>
      <trkpt lat="44.01031" lon="6.40845">
        <ele>878.63</ele>
        <time>2024-01-31T05:13:15Z</time>
      </trkpt>
      <trkpt lat="44.01008" lon="6.40944">
        <ele>882.65</ele>
        <time>2024-01-31T05:13:42Z</time>
      </trkpt>
      <trkpt lat="44.01008" lon="6.4097">
        <ele>884.23</ele>
        <time>2024-01-31T05:13:49Z</time>
      </trkpt>
      <trkpt lat="44.01013" lon="6.41031">
        <ele>887.52</ele>
        <time>2024-01-31T05:14:04Z</time>
      </trkpt>
      <trkpt lat="44.01016" lon="6.41037">
        <ele>888.49</ele>
        <time>2024-01-31T05:14:06Z</time>
      </trkpt>
      <trkpt lat="44.01026" lon="6.41048">
        <ele>889.99</ele>
        <time>2024-01-31T05:14:10Z</time>
      </trkpt>
      <trkpt lat="44.01037" lon="6.41053">
        <ele>891.76</ele>
        <time>2024-01-31T05:14:14Z</time>
      </trkpt>
      <trkpt lat="44.0106" lon="6.41073">
        <ele>893.66</ele>
        <time>2024-01-31T05:14:25Z</time>
      </trkpt>
      <trkpt lat="44.01068" lon="6.41076">
        <ele>893.38</ele>
        <time>2024-01-31T05:14:28Z</time>
      </trkpt>
      <trkpt lat="44.01097" lon="6.41077">
        <ele>893.94</ele>
        <time>2024-01-31T05:14:41Z</time>
      </trkpt>
      <trkpt lat="44.01122" lon="6.41071">
        <ele>895.35</ele>
        <time>2024-01-31T05:14:53Z</time>
      </trkpt>
      <trkpt lat="44.01131" lon="6.41072">
        <ele>896.49</ele>
        <time>2024-01-31T05:14:58Z</time>
      </trkpt>
      <trkpt lat="44.0114" lon="6.41076">
        <ele>897.08</ele>
        <time>2024-01-31T05:15:03Z</time>
      </trkpt>
      <trkpt lat="44.01156" lon="6.41076">
        <ele>898.76</ele>
        <time>2024-01-31T05:15:12Z</time>
      </trkpt>
      <trkpt lat="44.01163" lon="6.41074">
        <ele>900.43</ele>
        <time>2024-01-31T05:15:16Z</time>
      </trkpt>
      <trkpt lat="44.01176" lon="6.41063">
        <ele>901.19</ele>
        <time>2024-01-31T05:15:25Z</time>
      </trkpt>
      <trkpt lat="44.0121" lon="6.41026">
        <ele>906.78</ele>
        <time>2024-01-31T05:15:51Z</time>
      </trkpt>
      <trkpt lat="44.01232" lon="6.4102">
        <ele>907.5</ele>
        <time>2024-01-31T05:16:06Z</time>
      </trkpt>
      <trkpt lat="44.0127" lon="6.41019">
        <ele>912.26</ele>
        <time>2024-01-31T05:16:31Z</time>
      </trkpt>
      <trkpt lat="44.01307" lon="6.41005">
        <ele>913.16</ele>
        <time>2024-01-31T05:16:58Z</time>
      </trkpt>
      <trkpt lat="44.0133" lon="6.41005">
        <ele>914.46</ele>
        <time>2024-01-31T05:17:14Z</time>
      </trkpt>
      <trkpt lat="44.01343" lon="6.41012">
        <ele>913.25</ele>
        <time>2024-01-31T05:17:22Z</time>
      </trkpt>
      <trkpt lat="44.01365" lon="6.41036">
        <ele>914.09</ele>
        <time>2024-01-31T05:17:40Z</time>
      </trkpt>
      <trkpt lat="44.0137" lon="6.41038">
        <ele>914.62</ele>
        <time>2024-01-31T05:17:43Z</time>
      </trkpt>
      <trkpt lat="44.01375" lon="6.41035">
        <ele>915.4</ele>
        <time>2024-01-31T05:17:46Z</time>
      </trkpt>
      <trkpt lat="44.01388" lon="6.41022">
        <ele>917.45</ele>
        <time>2024-01-31T05:17:55Z</time>
      </trkpt>
      <trkpt lat="44.01456" lon="6.41009">
        <ele>923.78</ele>
        <time>2024-01-31T05:18:30Z</time>
      </trkpt>
      <trkpt lat="44.0147" lon="6.40997">
        <ele>924.06</ele>
        <time>2024-01-31T05:18:38Z</time>
      </trkpt>
      <trkpt lat="44.01498" lon="6.40991">
        <ele>927.34</ele>
        <time>2024-01-31T05:18:52Z</time>
      </trkpt>
      <trkpt lat="44.01507" lon="6.40986">
        <ele>927.75</ele>
        <time>2024-01-31T05:18:57Z</time>
      </trkpt>
      <trkpt lat="44.01528" lon="6.4096">
        <ele>930.11</ele>
        <time>2024-01-31T05:19:11Z</time>
      </trkpt>
      <trkpt lat="44.0156" lon="6.40945">
        <ele>936.07</ele>
        <time>2024-01-31T05:19:30Z</time>
      </trkpt>
      <trkpt lat="44.01585" lon="6.40943">
        <ele>938.16</ele>
        <time>2024-01-31T05:19:45Z</time>
      </trkpt>
      <trkpt lat="44.01604" lon="6.40948">
        <ele>938.7</ele>
        <time>2024-01-31T05:19:58Z</time>
      </trkpt>
      <trkpt lat="44.01617" lon="6.40955">
        <ele>939.1</ele>
        <time>2024-01-31T05:20:07Z</time>
      </trkpt>
      <trkpt lat="44.01656" lon="6.40991">
        <ele>942.85</ele>
        <time>2024-01-31T05:20:41Z</time>
      </trkpt>
      <trkpt lat="44.01678" lon="6.41">
        <ele>945.23</ele>
        <time>2024-01-31T05:21:00Z</time>
      </trkpt>
      <trkpt lat="44.01696" lon="6.41002">
        <ele>946.71</ele>
        <time>2024-01-31T05:21:15Z</time>
      </trkpt>
      <trkpt lat="44.01702" lon="6.40997">
        <ele>947.36</ele>
        <time>2024-01-31T05:21:21Z</time>
      </trkpt>
      <trkpt lat="44.0172" lon="6.40967">
        <ele>952.32</ele>
        <time>2024-01-31T05:21:45Z</time>
      </trkpt>
      <trkpt lat="44.01754" lon="6.40942">
        <ele>957.84</ele>
        <time>2024-01-31T05:22:19Z</time>
      </trkpt>
      <trkpt lat="44.01757" lon="6.40936">
        <ele>959.47</ele>
        <time>2024-01-31T05:22:24Z</time>
      </trkpt>
      <trkpt lat="44.01764" lon="6.40921">
        <ele>961.83</ele>
        <time>2024-01-31T05:22:35Z</time>
      </trkpt>
      <trkpt lat="44.01771" lon="6.40912">
        <ele>963.3</ele>
        <time>2024-01-31T05:22:44Z</time>
      </trkpt>
      <trkpt lat="44.01781" lon="6.40902">
        <ele>965.44</ele>
        <time>2024-01-31T05:22:55Z</time>
      </trkpt>
      <trkpt lat="44.01798" lon="6.40901">
        <ele>966.35</ele>
        <time>2024-01-31T05:23:09Z</time>
      </trkpt>
      <trkpt lat="44.01817" lon="6.40884">
        <ele>969.7</ele>
        <time>2024-01-31T05:23:27Z</time>
      </trkpt>
      <trkpt lat="44.01823" lon="6.40873">
        <ele>971.76</ele>
        <time>2024-01-31T05:23:35Z</time>
      </trkpt>
      <trkpt lat="44.01826" lon="6.40861">
        <ele>972.94</ele>
        <time>2024-01-31T05:23:42Z</time>
      </trkpt>
      <trkpt lat="44.01826" lon="6.40849">
        <ele>974.33</ele>
        <time>2024-01-31T05:23:49Z</time>
      </trkpt>
      <trkpt lat="44.01833" lon="6.40799">
        <ele>980.98</ele>
        <time>2024-01-31T05:24:16Z</time>
      </trkpt>
      <trkpt lat="44.01837" lon="6.40792">
        <ele>982.35</ele>
        <time>2024-01-31T05:24:21Z</time>
      </trkpt>
      <trkpt lat="44.01844" lon="6.40788">
        <ele>983.32</ele>
        <time>2024-01-31T05:24:26Z</time>
      </trkpt>
      <trkpt lat="44.01873" lon="6.40791">
        <ele>986.35</ele>
        <time>2024-01-31T05:24:47Z</time>
      </trkpt>
      <trkpt lat="44.01898" lon="6.40799">
        <ele>989.84</ele>
        <time>2024-01-31T05:25:06Z</time>
      </trkpt>
      <trkpt lat="44.01902" lon="6.40803">
        <ele>990.9</ele>
        <time>2024-01-31T05:25:10Z</time>
      </trkpt>
      <trkpt lat="44.019" lon="6.40816">
        <ele>992.15</ele>
        <time>2024-01-31T05:25:17Z</time>
      </trkpt>
      <trkpt lat="44.01886" lon="6.40833">
        <ele>991.95</ele>
        <time>2024-01-31T05:25:32Z</time>
      </trkpt>
      <trkpt lat="44.01878" lon="6.40847">
        <ele>992.41</ele>
        <time>2024-01-31T05:25:43Z</time>
      </trkpt>
      <trkpt lat="44.01879" lon="6.40862">
        <ele>994.21</ele>
        <time>2024-01-31T05:25:51Z</time>
      </trkpt>
      <trkpt lat="44.01886" lon="6.40863">
        <ele>995.89</ele>
        <time>2024-01-31T05:25:56Z</time>
      </trkpt>
      <trkpt lat="44.01903" lon="6.4084">
        <ele>999.99</ele>
        <time>2024-01-31T05:26:16Z</time>
      </trkpt>
      <trkpt lat="44.01913" lon="6.40834">
        <ele>1002.1</ele>
        <time>2024-01-31T05:26:25Z</time>
      </trkpt>
      <trkpt lat="44.01953" lon="6.40799">
        <ele>1009.74</ele>
        <time>2024-01-31T05:27:10Z</time>
      </trkpt>
      <trkpt lat="44.01979" lon="6.40792">
        <ele>1017.57</ele>
        <time>2024-01-31T05:27:36Z</time>
      </trkpt>
      <trkpt lat="44.01997" lon="6.4078">
        <ele>1021.99</ele>
        <time>2024-01-31T05:27:57Z</time>
      </trkpt>
      <trkpt lat="44.02007" lon="6.40789">
        <ele>1025.73</ele>
        <time>2024-01-31T05:28:10Z</time>
      </trkpt>
      <trkpt lat="44.0203" lon="6.40801">
        <ele>1029.64</ele>
        <time>2024-01-31T05:28:37Z</time>
      </trkpt>
      <trkpt lat="44.0204" lon="6.40801">
        <ele>1031.66</ele>
        <time>2024-01-31T05:28:49Z</time>
      </trkpt>
      <trkpt lat="44.02057" lon="6.40809">
        <ele>1035.74</ele>
        <time>2024-01-31T05:29:10Z</time>
      </trkpt>
      <trkpt lat="44.02069" lon="6.4081">
        <ele>1036.24</ele>
        <time>2024-01-31T05:29:24Z</time>
      </trkpt>
      <trkpt lat="44.02118" lon="6.40802">
        <ele>1039.14</ele>
        <time>2024-01-31T05:30:22Z</time>
      </trkpt>
      <trkpt lat="44.02248" lon="6.408">
        <ele>1054.84</ele>
        <time>2024-01-31T05:32:39Z</time>
      </trkpt>
      <trkpt lat="44.02404" lon="6.40779">
        <ele>1075.04</ele>
        <time>2024-01-31T05:34:54Z</time>
      </trkpt>
      <trkpt lat="44.0245" lon="6.40786">
        <ele>1082.01</ele>
        <time>2024-01-31T05:35:35Z</time>
      </trkpt>
      <trkpt lat="44.02503" lon="6.40785">
        <ele>1089.61</ele>
        <time>2024-01-31T05:36:27Z</time>
      </trkpt>
      <trkpt lat="44.02533" lon="6.40793">
        <ele>1094.32</ele>
        <time>2024-01-31T05:37:01Z</time>
      </trkpt>
      <trkpt lat="44.02576" lon="6.40814">
        <ele>1100.86</ele>
        <time>2024-01-31T05:37:53Z</time>
      </trkpt>
      <trkpt lat="44.02649" lon="6.40866">
        <ele>1113.33</ele>
        <time>2024-01-31T05:39:33Z</time>
      </trkpt>
      <trkpt lat="44.02704" lon="6.40918">
        <ele>1123.12</ele>
        <time>2024-01-31T05:40:53Z</time>
      </trkpt>
      <trkpt lat="44.02762" lon="6.40948">
        <ele>1135.89</ele>
        <time>2024-01-31T05:42:03Z</time>
      </trkpt>
      <trkpt lat="44.02839" lon="6.41018">
        <ele>1151.64</ele>
        <time>2024-01-31T05:43:33Z</time>
      </trkpt>
      <trkpt lat="44.02857" lon="6.41022">
        <ele>1154.43</ele>
        <time>2024-01-31T05:43:49Z</time>
      </trkpt>
      <trkpt lat="44.0291" lon="6.40995">
        <ele>1166.55</ele>
        <time>2024-01-31T05:44:34Z</time>
      </trkpt>
      <trkpt lat="44.02922" lon="6.40992">
        <ele>1168.8</ele>
        <time>2024-01-31T05:44:43Z</time>
      </trkpt>
      <trkpt lat="44.0293" lon="6.40996">
        <ele>1170.04</ele>
        <time>2024-01-31T05:44:48Z</time>
      </trkpt>
      <trkpt lat="44.02931" lon="6.41002">
        <ele>1169.91</ele>
        <time>2024-01-31T05:44:51Z</time>
      </trkpt>
      <trkpt lat="44.02928" lon="6.41019">
        <ele>1170.48</ele>
        <time>2024-01-31T05:45:00Z</time>
      </trkpt>
      <trkpt lat="44.02907" lon="6.41058">
        <ele>1174.92</ele>
        <time>2024-01-31T05:45:22Z</time>
      </trkpt>
      <trkpt lat="44.02877" lon="6.4109">
        <ele>1179.26</ele>
        <time>2024-01-31T05:45:42Z</time>
      </trkpt>
      <trkpt lat="44.02831" lon="6.41112">
        <ele>1183.68</ele>
        <time>2024-01-31T05:46:05Z</time>
      </trkpt>
      <trkpt lat="44.0282" lon="6.41113">
        <ele>1185.89</ele>
        <time>2024-01-31T05:46:10Z</time>
      </trkpt>
      <trkpt lat="44.02802" lon="6.41109">
        <ele>1187.1</ele>
        <time>2024-01-31T05:46:18Z</time>
      </trkpt>
      <trkpt lat="44.02786" lon="6.411">
        <ele>1188.27</ele>
        <time>2024-01-31T05:46:25Z</time>
      </trkpt>
      <trkpt lat="44.02768" lon="6.41086">
        <ele>1187.37</ele>
        <time>2024-01-31T05:46:33Z</time>
      </trkpt>
      <trkpt lat="44.02751" lon="6.41079">
        <ele>1190.11</ele>
        <time>2024-01-31T05:46:38Z</time>
      </trkpt>
      <trkpt lat="44.0269" lon="6.41076">
        <ele>1195.04</ele>
        <time>2024-01-31T05:46:57Z</time>
      </trkpt>
      <trkpt lat="44.02663" lon="6.41076">
        <ele>1195.1</ele>
        <time>2024-01-31T05:47:05Z</time>
      </trkpt>
      <trkpt lat="44.02662" lon="6.41081">
        <ele>1196.53</ele>
        <time>2024-01-31T05:47:06Z</time>
      </trkpt>
      <trkpt lat="44.02663" lon="6.41086">
        <ele>1197.94</ele>
        <time>2024-01-31T05:47:07Z</time>
      </trkpt>
      <trkpt lat="44.02677" lon="6.41089">
        <ele>1199.42</ele>
        <time>2024-01-31T05:47:12Z</time>
      </trkpt>
      <trkpt lat="44.02713" lon="6.41106">
        <ele>1204.24</ele>
        <time>2024-01-31T05:47:25Z</time>
      </trkpt>
      <trkpt lat="44.02742" lon="6.41126">
        <ele>1206.41</ele>
        <time>2024-01-31T05:47:40Z</time>
      </trkpt>
      <trkpt lat="44.02773" lon="6.41187">
        <ele>1211.59</ele>
        <time>2024-01-31T05:48:11Z</time>
      </trkpt>
      <trkpt lat="44.02783" lon="6.41227">
        <ele>1212.68</ele>
        <time>2024-01-31T05:48:32Z</time>
      </trkpt>
      <trkpt lat="44.02791" lon="6.41232">
        <ele>1213.62</ele>
        <time>2024-01-31T05:48:38Z</time>
      </trkpt>
      <trkpt lat="44.02817" lon="6.41237">
        <ele>1218.35</ele>
        <time>2024-01-31T05:48:57Z</time>
      </trkpt>
      <trkpt lat="44.02878" lon="6.41212">
        <ele>1230.22</ele>
        <time>2024-01-31T05:49:46Z</time>
      </trkpt>
      <trkpt lat="44.02924" lon="6.41211">
        <ele>1235.4</ele>
        <time>2024-01-31T05:50:24Z</time>
      </trkpt>
      <trkpt lat="44.02932" lon="6.41215">
        <ele>1237.15</ele>
        <time>2024-01-31T05:50:32Z</time>
      </trkpt>
      <trkpt lat="44.02944" lon="6.41227">
        <ele>1240.57</ele>
        <time>2024-01-31T05:50:44Z</time>
      </trkpt>
      <trkpt lat="44.02949" lon="6.41236">
        <ele>1241.99</ele>
        <time>2024-01-31T05:50:51Z</time>
      </trkpt>
      <trkpt lat="44.02955" lon="6.41267">
        <ele>1243.32</ele>
        <time>2024-01-31T05:51:12Z</time>
      </trkpt>
      <trkpt lat="44.0296" lon="6.41289">
        <ele>1243.52</ele>
        <time>2024-01-31T05:51:26Z</time>
      </trkpt>
      <trkpt lat="44.02962" lon="6.41324">
        <ele>1241.37</ele>
        <time>2024-01-31T05:51:48Z</time>
      </trkpt>
      <trkpt lat="44.02966" lon="6.4133">
        <ele>1241.85</ele>
        <time>2024-01-31T05:51:52Z</time>
      </trkpt>
      <trkpt lat="44.02973" lon="6.41344">
        <ele>1242.84</ele>
        <time>2024-01-31T05:52:02Z</time>
      </trkpt>
      <trkpt lat="44.02993" lon="6.41371">
        <ele>1244.94</ele>
        <time>2024-01-31T05:52:23Z</time>
      </trkpt>
      <trkpt lat="44.03034" lon="6.41401">
        <ele>1250.56</ele>
        <time>2024-01-31T05:52:56Z</time>
      </trkpt>
      <trkpt lat="44.03072" lon="6.41418">
        <ele>1256.39</ele>
        <time>2024-01-31T05:53:22Z</time>
      </trkpt>
      <trkpt lat="44.03095" lon="6.41436">
        <ele>1260.04</ele>
        <time>2024-01-31T05:53:40Z</time>
      </trkpt>
      <trkpt lat="44.03108" lon="6.41465">
        <ele>1259.26</ele>
        <time>2024-01-31T05:53:56Z</time>
      </trkpt>
      <trkpt lat="44.03157" lon="6.41502">
        <ele>1267.15</ele>
        <time>2024-01-31T05:54:31Z</time>
      </trkpt>
      <trkpt lat="44.03203" lon="6.41561">
        <ele>1268.41</ele>
        <time>2024-01-31T05:55:04Z</time>
      </trkpt>
      <trkpt lat="44.03225" lon="6.41617">
        <ele>1268.66</ele>
        <time>2024-01-31T05:55:28Z</time>
      </trkpt>
      <trkpt lat="44.03214" lon="6.41744">
        <ele>1271.36</ele>
        <time>2024-01-31T05:56:15Z</time>
      </trkpt>
      <trkpt lat="44.03214" lon="6.41779">
        <ele>1272.97</ele>
        <time>2024-01-31T05:56:26Z</time>
      </trkpt>
      <trkpt lat="44.0322" lon="6.41854">
        <ele>1272.11</ele>
        <time>2024-01-31T05:56:47Z</time>
      </trkpt>
      <trkpt lat="44.03208" lon="6.41878">
        <ele>1271.33</ele>
        <time>2024-01-31T05:56:54Z</time>
      </trkpt>
      <trkpt lat="44.03186" lon="6.41904">
        <ele>1272.93</ele>
        <time>2024-01-31T05:57:04Z</time>
      </trkpt>
      <trkpt lat="44.03171" lon="6.41912">
        <ele>1274.81</ele>
        <time>2024-01-31T05:57:09Z</time>
      </trkpt>
      <trkpt lat="44.03138" lon="6.41892">
        <ele>1270.45</ele>
        <time>2024-01-31T05:57:22Z</time>
      </trkpt>
      <trkpt lat="44.03117" lon="6.41886">
        <ele>1270.39</ele>
        <time>2024-01-31T05:57:30Z</time>
      </trkpt>
      <trkpt lat="44.03074" lon="6.41914">
        <ele>1273.27</ele>
        <time>2024-01-31T05:57:43Z</time>
      </trkpt>
      <trkpt lat="44.03008" lon="6.41966">
        <ele>1274.22</ele>
        <time>2024-01-31T05:58:04Z</time>
      </trkpt>
      <trkpt lat="44.02968" lon="6.42035">
        <ele>1278.17</ele>
        <time>2024-01-31T05:58:27Z</time>
      </trkpt>
      <trkpt lat="44.02955" lon="6.42114">
        <ele>1281.55</ele>
        <time>2024-01-31T05:58:56Z</time>
      </trkpt>
      <trkpt lat="44.0297" lon="6.42195">
        <ele>1284.79</ele>
        <time>2024-01-31T05:59:33Z</time>
      </trkpt>
      <trkpt lat="44.02984" lon="6.42301">
        <ele>1288.4</ele>
        <time>2024-01-31T06:00:26Z</time>
      </trkpt>
      <trkpt lat="44.02977" lon="6.42365">
        <ele>1293.97</ele>
        <time>2024-01-31T06:00:58Z</time>
      </trkpt>
      <trkpt lat="44.02952" lon="6.42452">
        <ele>1292.71</ele>
        <time>2024-01-31T06:01:37Z</time>
      </trkpt>
      <trkpt lat="44.02888" lon="6.42556">
        <ele>1296.98</ele>
        <time>2024-01-31T06:02:07Z</time>
      </trkpt>
      <trkpt lat="44.02819" lon="6.4264">
        <ele>1297.59</ele>
        <time>2024-01-31T06:02:30Z</time>
      </trkpt>
      <trkpt lat="44.02796" lon="6.42685">
        <ele>1295.12</ele>
        <time>2024-01-31T06:02:40Z</time>
      </trkpt>
      <trkpt lat="44.02795" lon="6.42833">
        <ele>1302.02</ele>
        <time>2024-01-31T06:03:15Z</time>
      </trkpt>
      <trkpt lat="44.02805" lon="6.42981">
        <ele>1305.23</ele>
        <time>2024-01-31T06:03:55Z</time>
      </trkpt>
      <trkpt lat="44.02808" lon="6.43004">
        <ele>1307.22</ele>
        <time>2024-01-31T06:04:00Z</time>
      </trkpt>
      <trkpt lat="44.02795" lon="6.43044">
        <ele>1305.99</ele>
        <time>2024-01-31T06:04:09Z</time>
      </trkpt>
      <trkpt lat="44.02798" lon="6.43132">
        <ele>1308.14</ele>
        <time>2024-01-31T06:04:26Z</time>
      </trkpt>
      <trkpt lat="44.02801" lon="6.43147">
        <ele>1307.51</ele>
        <time>2024-01-31T06:04:28Z</time>
      </trkpt>
      <trkpt lat="44.02809" lon="6.43157">
        <ele>1306.75</ele>
        <time>2024-01-31T06:04:31Z</time>
      </trkpt>
      <trkpt lat="44.02828" lon="6.43161">
        <ele>1305.59</ele>
        <time>2024-01-31T06:04:35Z</time>
      </trkpt>
      <trkpt lat="44.02872" lon="6.43163">
        <ele>1305.31</ele>
        <time>2024-01-31T06:04:45Z</time>
      </trkpt>
      <trkpt lat="44.02881" lon="6.43167">
        <ele>1305.37</ele>
        <time>2024-01-31T06:04:47Z</time>
      </trkpt>
      <trkpt lat="44.02906" lon="6.43197">
        <ele>1302.78</ele>
        <time>2024-01-31T06:04:55Z</time>
      </trkpt>
      <trkpt lat="44.02956" lon="6.43226">
        <ele>1304.85</ele>
        <time>2024-01-31T06:05:07Z</time>
      </trkpt>
      <trkpt lat="44.03017" lon="6.43269">
        <ele>1304.35</ele>
        <time>2024-01-31T06:05:22Z</time>
      </trkpt>
      <trkpt lat="44.03031" lon="6.43281">
        <ele>1304.03</ele>
        <time>2024-01-31T06:05:26Z</time>
      </trkpt>
      <trkpt lat="44.03045" lon="6.433">
        <ele>1302.51</ele>
        <time>2024-01-31T06:05:30Z</time>
      </trkpt>
      <trkpt lat="44.03066" lon="6.43309">
        <ele>1303.22</ele>
        <time>2024-01-31T06:05:35Z</time>
      </trkpt>
      <trkpt lat="44.03098" lon="6.43333">
        <ele>1296.04</ele>
        <time>2024-01-31T06:05:42Z</time>
      </trkpt>
      <trkpt lat="44.03127" lon="6.43345">
        <ele>1293.5</ele>
        <time>2024-01-31T06:05:48Z</time>
      </trkpt>
      <trkpt lat="44.03143" lon="6.43362">
        <ele>1290.83</ele>
        <time>2024-01-31T06:05:52Z</time>
      </trkpt>
      <trkpt lat="44.0316" lon="6.4339">
        <ele>1286.08</ele>
        <time>2024-01-31T06:05:58Z</time>
      </trkpt>
      <trkpt lat="44.03187" lon="6.43422">
        <ele>1281.5</ele>
        <time>2024-01-31T06:06:05Z</time>
      </trkpt>
      <trkpt lat="44.0322" lon="6.43446">
        <ele>1274.8</ele>
        <time>2024-01-31T06:06:13Z</time>
      </trkpt>
      <trkpt lat="44.03256" lon="6.43441">
        <ele>1270.75</ele>
        <time>2024-01-31T06:06:20Z</time>
      </trkpt>
      <trkpt lat="44.03274" lon="6.43435">
        <ele>1268.06</ele>
        <time>2024-01-31T06:06:23Z</time>
      </trkpt>
      <trkpt lat="44.0329" lon="6.43424">
        <ele>1268.67</ele>
        <time>2024-01-31T06:06:27Z</time>
      </trkpt>
      <trkpt lat="44.03297" lon="6.43423">
        <ele>1268.34</ele>
        <time>2024-01-31T06:06:28Z</time>
      </trkpt>
      <trkpt lat="44.03314" lon="6.43432">
        <ele>1266.62</ele>
        <time>2024-01-31T06:06:32Z</time>
      </trkpt>
      <trkpt lat="44.03323" lon="6.43441">
        <ele>1265.32</ele>
        <time>2024-01-31T06:06:34Z</time>
      </trkpt>
      <trkpt lat="44.03338" lon="6.43466">
        <ele>1263.14</ele>
        <time>2024-01-31T06:06:39Z</time>
      </trkpt>
      <trkpt lat="44.03349" lon="6.43509">
        <ele>1259.93</ele>
        <time>2024-01-31T06:06:45Z</time>
      </trkpt>
      <trkpt lat="44.03355" lon="6.43529">
        <ele>1257.09</ele>
        <time>2024-01-31T06:06:48Z</time>
      </trkpt>
      <trkpt lat="44.03363" lon="6.43537">
        <ele>1256.26</ele>
        <time>2024-01-31T06:06:50Z</time>
      </trkpt>
      <trkpt lat="44.03374" lon="6.43543">
        <ele>1256.17</ele>
        <time>2024-01-31T06:06:53Z</time>
      </trkpt>
      <trkpt lat="44.03451" lon="6.43579">
        <ele>1249.92</ele>
        <time>2024-01-31T06:07:09Z</time>
      </trkpt>
      <trkpt lat="44.03491" lon="6.43582">
        <ele>1248.37</ele>
        <time>2024-01-31T06:07:17Z</time>
      </trkpt>
      <trkpt lat="44.03531" lon="6.43598">
        <ele>1242.56</ele>
        <time>2024-01-31T06:07:27Z</time>
      </trkpt>
      <trkpt lat="44.03584" lon="6.43599">
        <ele>1239.26</ele>
        <time>2024-01-31T06:07:38Z</time>
      </trkpt>
      <trkpt lat="44.03604" lon="6.43609">
        <ele>1237.33</ele>
        <time>2024-01-31T06:07:43Z</time>
      </trkpt>
      <trkpt lat="44.0363" lon="6.43614">
        <ele>1237.23</ele>
        <time>2024-01-31T06:07:49Z</time>
      </trkpt>
      <trkpt lat="44.03651" lon="6.43627">
        <ele>1233.19</ele>
        <time>2024-01-31T06:07:54Z</time>
      </trkpt>
      <trkpt lat="44.03673" lon="6.43623">
        <ele>1231.55</ele>
        <time>2024-01-31T06:07:59Z</time>
      </trkpt>
      <trkpt lat="44.03697" lon="6.43628">
        <ele>1227.5</ele>
        <time>2024-01-31T06:08:04Z</time>
      </trkpt>
      <trkpt lat="44.03746" lon="6.43626">
        <ele>1223.11</ele>
        <time>2024-01-31T06:08:14Z</time>
      </trkpt>
      <trkpt lat="44.03756" lon="6.43629">
        <ele>1220.7</ele>
        <time>2024-01-31T06:08:17Z</time>
      </trkpt>
      <trkpt lat="44.03759" lon="6.43634">
        <ele>1218.94</ele>
        <time>2024-01-31T06:08:18Z</time>
      </trkpt>
      <trkpt lat="44.03759" lon="6.43642">
        <ele>1216.85</ele>
        <time>2024-01-31T06:08:19Z</time>
      </trkpt>
      <trkpt lat="44.03754" lon="6.43651">
        <ele>1216.04</ele>
        <time>2024-01-31T06:08:20Z</time>
      </trkpt>
      <trkpt lat="44.03721" lon="6.43656">
        <ele>1218.08</ele>
        <time>2024-01-31T06:08:27Z</time>
      </trkpt>
      <trkpt lat="44.03692" lon="6.43656">
        <ele>1220.41</ele>
        <time>2024-01-31T06:08:33Z</time>
      </trkpt>
      <trkpt lat="44.03684" lon="6.43664">
        <ele>1218.58</ele>
        <time>2024-01-31T06:08:35Z</time>
      </trkpt>
      <trkpt lat="44.03682" lon="6.43673">
        <ele>1216.07</ele>
        <time>2024-01-31T06:08:37Z</time>
      </trkpt>
      <trkpt lat="44.03684" lon="6.43681">
        <ele>1213.38</ele>
        <time>2024-01-31T06:08:38Z</time>
      </trkpt>
      <trkpt lat="44.03693" lon="6.43692">
        <ele>1209.21</ele>
        <time>2024-01-31T06:08:41Z</time>
      </trkpt>
      <trkpt lat="44.0371" lon="6.43697">
        <ele>1207.79</ele>
        <time>2024-01-31T06:08:45Z</time>
      </trkpt>
      <trkpt lat="44.03736" lon="6.43699">
        <ele>1207.34</ele>
        <time>2024-01-31T06:08:51Z</time>
      </trkpt>
      <trkpt lat="44.03758" lon="6.43709">
        <ele>1204.43</ele>
        <time>2024-01-31T06:08:56Z</time>
      </trkpt>
      <trkpt lat="44.03773" lon="6.43712">
        <ele>1201.58</ele>
        <time>2024-01-31T06:08:59Z</time>
      </trkpt>
      <trkpt lat="44.03777" lon="6.4372">
        <ele>1199.4</ele>
        <time>2024-01-31T06:09:01Z</time>
      </trkpt>
      <trkpt lat="44.03775" lon="6.43728">
        <ele>1198.67</ele>
        <time>2024-01-31T06:09:02Z</time>
      </trkpt>
      <trkpt lat="44.03748" lon="6.43738">
        <ele>1199.29</ele>
        <time>2024-01-31T06:09:08Z</time>
      </trkpt>
      <trkpt lat="44.03683" lon="6.4375">
        <ele>1194.61</ele>
        <time>2024-01-31T06:09:23Z</time>
      </trkpt>
      <trkpt lat="44.03668" lon="6.43749">
        <ele>1194.3</ele>
        <time>2024-01-31T06:09:26Z</time>
      </trkpt>
      <trkpt lat="44.0364" lon="6.43768">
        <ele>1191.58</ele>
        <time>2024-01-31T06:09:33Z</time>
      </trkpt>
      <trkpt lat="44.03609" lon="6.43782">
        <ele>1190.45</ele>
        <time>2024-01-31T06:09:40Z</time>
      </trkpt>
      <trkpt lat="44.03581" lon="6.43814">
        <ele>1187.44</ele>
        <time>2024-01-31T06:09:48Z</time>
      </trkpt>
      <trkpt lat="44.03581" lon="6.43821">
        <ele>1185.98</ele>
        <time>2024-01-31T06:09:49Z</time>
      </trkpt>
      <trkpt lat="44.03585" lon="6.43831">
        <ele>1184.74</ele>
        <time>2024-01-31T06:09:51Z</time>
      </trkpt>
      <trkpt lat="44.03603" lon="6.43845">
        <ele>1184.1</ele>
        <time>2024-01-31T06:09:56Z</time>
      </trkpt>
      <trkpt lat="44.03633" lon="6.43861">
        <ele>1182.07</ele>
        <time>2024-01-31T06:10:03Z</time>
      </trkpt>
      <trkpt lat="44.03652" lon="6.43878">
        <ele>1179.27</ele>
        <time>2024-01-31T06:10:08Z</time>
      </trkpt>
      <trkpt lat="44.03716" lon="6.43899">
        <ele>1173.98</ele>
        <time>2024-01-31T06:10:23Z</time>
      </trkpt>
      <trkpt lat="44.03732" lon="6.43899">
        <ele>1172.93</ele>
        <time>2024-01-31T06:10:26Z</time>
      </trkpt>
      <trkpt lat="44.03809" lon="6.43882">
        <ele>1168.6</ele>
        <time>2024-01-31T06:10:44Z</time>
      </trkpt>
      <trkpt lat="44.03829" lon="6.43888">
        <ele>1166.28</ele>
        <time>2024-01-31T06:10:49Z</time>
      </trkpt>
      <trkpt lat="44.0384" lon="6.43887">
        <ele>1165.07</ele>
        <time>2024-01-31T06:10:51Z</time>
      </trkpt>
      <trkpt lat="44.0385" lon="6.43881">
        <ele>1164.27</ele>
        <time>2024-01-31T06:10:54Z</time>
      </trkpt>
      <trkpt lat="44.03867" lon="6.43855">
        <ele>1164.23</ele>
        <time>2024-01-31T06:10:59Z</time>
      </trkpt>
      <trkpt lat="44.03873" lon="6.43854">
        <ele>1164.3</ele>
        <time>2024-01-31T06:11:01Z</time>
      </trkpt>
      <trkpt lat="44.03892" lon="6.43892">
        <ele>1159.81</ele>
        <time>2024-01-31T06:11:08Z</time>
      </trkpt>
      <trkpt lat="44.03907" lon="6.43904">
        <ele>1158.45</ele>
        <time>2024-01-31T06:11:12Z</time>
      </trkpt>
      <trkpt lat="44.03967" lon="6.43935">
        <ele>1153.3</ele>
        <time>2024-01-31T06:11:25Z</time>
      </trkpt>
      <trkpt lat="44.04016" lon="6.43943">
        <ele>1149.79</ele>
        <time>2024-01-31T06:11:36Z</time>
      </trkpt>
      <trkpt lat="44.04049" lon="6.43953">
        <ele>1146.25</ele>
        <time>2024-01-31T06:11:43Z</time>
      </trkpt>
      <trkpt lat="44.04069" lon="6.43961">
        <ele>1143.66</ele>
        <time>2024-01-31T06:11:47Z</time>
      </trkpt>
      <trkpt lat="44.04084" lon="6.43979">
        <ele>1140.88</ele>
        <time>2024-01-31T06:11:52Z</time>
      </trkpt>
      <trkpt lat="44.04129" lon="6.44012">
        <ele>1136.51</ele>
        <time>2024-01-31T06:12:03Z</time>
      </trkpt>
      <trkpt lat="44.04193" lon="6.44021">
        <ele>1133.21</ele>
        <time>2024-01-31T06:12:18Z</time>
      </trkpt>
      <trkpt lat="44.04228" lon="6.44022">
        <ele>1131.51</ele>
        <time>2024-01-31T06:12:27Z</time>
      </trkpt>
      <trkpt lat="44.04297" lon="6.4402">
        <ele>1127.49</ele>
        <time>2024-01-31T06:12:45Z</time>
      </trkpt>
      <trkpt lat="44.04325" lon="6.44008">
        <ele>1126.03</ele>
        <time>2024-01-31T06:12:53Z</time>
      </trkpt>
      <trkpt lat="44.0441" lon="6.43965">
        <ele>1122.85</ele>
        <time>2024-01-31T06:13:17Z</time>
      </trkpt>
      <trkpt lat="44.04441" lon="6.43957">
        <ele>1121.48</ele>
        <time>2024-01-31T06:13:25Z</time>
      </trkpt>
      <trkpt lat="44.04475" lon="6.43947">
        <ele>1119.91</ele>
        <time>2024-01-31T06:13:31Z</time>
      </trkpt>
      <trkpt lat="44.04485" lon="6.4395">
        <ele>1118.71</ele>
        <time>2024-01-31T06:13:33Z</time>
      </trkpt>
      <trkpt lat="44.04518" lon="6.43941">
        <ele>1120.86</ele>
        <time>2024-01-31T06:13:39Z</time>
      </trkpt>
      <trkpt lat="44.04521" lon="6.43946">
        <ele>1120.47</ele>
        <time>2024-01-31T06:13:40Z</time>
      </trkpt>
      <trkpt lat="44.04528" lon="6.43976">
        <ele>1116.95</ele>
        <time>2024-01-31T06:13:45Z</time>
      </trkpt>
      <trkpt lat="44.04541" lon="6.43976">
        <ele>1117.29</ele>
        <time>2024-01-31T06:13:49Z</time>
      </trkpt>
      <trkpt lat="44.04559" lon="6.43968">
        <ele>1118.51</ele>
        <time>2024-01-31T06:13:55Z</time>
      </trkpt>
      <trkpt lat="44.04589" lon="6.43949">
        <ele>1120.79</ele>
        <time>2024-01-31T06:14:07Z</time>
      </trkpt>
      <trkpt lat="44.04692" lon="6.43928">
        <ele>1123.3</ele>
        <time>2024-01-31T06:14:52Z</time>
      </trkpt>
      <trkpt lat="44.04743" lon="6.43942">
        <ele>1122.05</ele>
        <time>2024-01-31T06:15:17Z</time>
      </trkpt>
      <trkpt lat="44.04796" lon="6.43923">
        <ele>1124.78</ele>
        <time>2024-01-31T06:15:44Z</time>
      </trkpt>
      <trkpt lat="44.04812" lon="6.43922">
        <ele>1125.78</ele>
        <time>2024-01-31T06:15:51Z</time>
      </trkpt>
      <trkpt lat="44.04844" lon="6.43935">
        <ele>1127.18</ele>
        <time>2024-01-31T06:16:06Z</time>
      </trkpt>
      <trkpt lat="44.04866" lon="6.4394">
        <ele>1127.82</ele>
        <time>2024-01-31T06:16:16Z</time>
      </trkpt>
      <trkpt lat="44.04902" lon="6.43934">
        <ele>1129.15</ele>
        <time>2024-01-31T06:16:31Z</time>
      </trkpt>
      <trkpt lat="44.04948" lon="6.4392">
        <ele>1130.18</ele>
        <time>2024-01-31T06:16:49Z</time>
      </trkpt>
      <trkpt lat="44.05124" lon="6.43919">
        <ele>1142.49</ele>
        <time>2024-01-31T06:17:46Z</time>
      </trkpt>
      <trkpt lat="44.05129" lon="6.43926">
        <ele>1142.42</ele>
        <time>2024-01-31T06:17:49Z</time>
      </trkpt>
      <trkpt lat="44.05104" lon="6.43979">
        <ele>1138.2</ele>
        <time>2024-01-31T06:18:02Z</time>
      </trkpt>
      <trkpt lat="44.05092" lon="6.44052">
        <ele>1133.68</ele>
        <time>2024-01-31T06:18:18Z</time>
      </trkpt>
      <trkpt lat="44.05084" lon="6.44074">
        <ele>1132.05</ele>
        <time>2024-01-31T06:18:24Z</time>
      </trkpt>
      <trkpt lat="44.05068" lon="6.44104">
        <ele>1130.2</ele>
        <time>2024-01-31T06:18:32Z</time>
      </trkpt>
      <trkpt lat="44.05061" lon="6.44133">
        <ele>1129.72</ele>
        <time>2024-01-31T06:18:38Z</time>
      </trkpt>
      <trkpt lat="44.0513" lon="6.44128">
        <ele>1133</ele>
        <time>2024-01-31T06:18:59Z</time>
      </trkpt>
      <trkpt lat="44.05151" lon="6.44133">
        <ele>1134.15</ele>
        <time>2024-01-31T06:19:06Z</time>
      </trkpt>
      <trkpt lat="44.05164" lon="6.44154">
        <ele>1135.35</ele>
        <time>2024-01-31T06:19:12Z</time>
      </trkpt>
      <trkpt lat="44.05167" lon="6.44176">
        <ele>1136.42</ele>
        <time>2024-01-31T06:19:17Z</time>
      </trkpt>
      <trkpt lat="44.05175" lon="6.44172">
        <ele>1136.54</ele>
        <time>2024-01-31T06:19:19Z</time>
      </trkpt>
      <trkpt lat="44.05187" lon="6.4416">
        <ele>1136.65</ele>
        <time>2024-01-31T06:19:23Z</time>
      </trkpt>
      <trkpt lat="44.0524" lon="6.44123">
        <ele>1138.4</ele>
        <time>2024-01-31T06:19:37Z</time>
      </trkpt>
      <trkpt lat="44.05272" lon="6.44105">
        <ele>1138.73</ele>
        <time>2024-01-31T06:19:46Z</time>
      </trkpt>
      <trkpt lat="44.05283" lon="6.44099">
        <ele>1138.82</ele>
        <time>2024-01-31T06:19:49Z</time>
      </trkpt>
      <trkpt lat="44.05351" lon="6.44079">
        <ele>1141.53</ele>
        <time>2024-01-31T06:20:11Z</time>
      </trkpt>
      <trkpt lat="44.0538" lon="6.44068">
        <ele>1141.88</ele>
        <time>2024-01-31T06:20:21Z</time>
      </trkpt>
      <trkpt lat="44.05397" lon="6.44058">
        <ele>1142.23</ele>
        <time>2024-01-31T06:20:28Z</time>
      </trkpt>
      <trkpt lat="44.05404" lon="6.4405">
        <ele>1142.23</ele>
        <time>2024-01-31T06:20:31Z</time>
      </trkpt>
      <trkpt lat="44.05415" lon="6.44045">
        <ele>1142.53</ele>
        <time>2024-01-31T06:20:36Z</time>
      </trkpt>
      <trkpt lat="44.05435" lon="6.44029">
        <ele>1142.29</ele>
        <time>2024-01-31T06:20:45Z</time>
      </trkpt>
      <trkpt lat="44.05455" lon="6.44028">
        <ele>1142.63</ele>
        <time>2024-01-31T06:20:53Z</time>
      </trkpt>
      <trkpt lat="44.05516" lon="6.44047">
        <ele>1145.18</ele>
        <time>2024-01-31T06:21:17Z</time>
      </trkpt>
      <trkpt lat="44.05537" lon="6.44045">
        <ele>1146.53</ele>
        <time>2024-01-31T06:21:24Z</time>
      </trkpt>
      <trkpt lat="44.05558" lon="6.4404">
        <ele>1148.51</ele>
        <time>2024-01-31T06:21:32Z</time>
      </trkpt>
      <trkpt lat="44.05595" lon="6.4401">
        <ele>1149.02</ele>
        <time>2024-01-31T06:21:46Z</time>
      </trkpt>
      <trkpt lat="44.05698" lon="6.43961">
        <ele>1148.97</ele>
        <time>2024-01-31T06:22:17Z</time>
      </trkpt>
      <trkpt lat="44.0572" lon="6.43947">
        <ele>1149.42</ele>
        <time>2024-01-31T06:22:22Z</time>
      </trkpt>
      <trkpt lat="44.05746" lon="6.43934">
        <ele>1149.71</ele>
        <time>2024-01-31T06:22:28Z</time>
      </trkpt>
      <trkpt lat="44.05865" lon="6.43919">
        <ele>1153.89</ele>
        <time>2024-01-31T06:22:52Z</time>
      </trkpt>
      <trkpt lat="44.05955" lon="6.43914">
        <ele>1156.17</ele>
        <time>2024-01-31T06:23:14Z</time>
      </trkpt>
      <trkpt lat="44.05974" lon="6.43917">
        <ele>1156.78</ele>
        <time>2024-01-31T06:23:19Z</time>
      </trkpt>
      <trkpt lat="44.05999" lon="6.43938">
        <ele>1157.46</ele>
        <time>2024-01-31T06:23:28Z</time>
      </trkpt>
      <trkpt lat="44.06011" lon="6.4395">
        <ele>1157.61</ele>
        <time>2024-01-31T06:23:33Z</time>
      </trkpt>
      <trkpt lat="44.06058" lon="6.43983">
        <ele>1159.6</ele>
        <time>2024-01-31T06:23:51Z</time>
      </trkpt>
      <trkpt lat="44.06102" lon="6.43987">
        <ele>1161.54</ele>
        <time>2024-01-31T06:24:07Z</time>
      </trkpt>
      <trkpt lat="44.06123" lon="6.43987">
        <ele>1162.21</ele>
        <time>2024-01-31T06:24:17Z</time>
      </trkpt>
      <trkpt lat="44.06227" lon="6.43951">
        <ele>1163.95</ele>
        <time>2024-01-31T06:25:09Z</time>
      </trkpt>
      <trkpt lat="44.06473" lon="6.43826">
        <ele>1173.75</ele>
        <time>2024-01-31T06:26:54Z</time>
      </trkpt>
      <trkpt lat="44.06486" lon="6.43821">
        <ele>1174.04</ele>
        <time>2024-01-31T06:26:59Z</time>
      </trkpt>
      <trkpt lat="44.06506" lon="6.4382">
        <ele>1174.54</ele>
        <time>2024-01-31T06:27:08Z</time>
      </trkpt>
      <trkpt lat="44.06669" lon="6.43782">
        <ele>1183.12</ele>
        <time>2024-01-31T06:28:20Z</time>
      </trkpt>
      <trkpt lat="44.0671" lon="6.43787">
        <ele>1186.23</ele>
        <time>2024-01-31T06:28:39Z</time>
      </trkpt>
      <trkpt lat="44.06762" lon="6.43783">
        <ele>1188.88</ele>
        <time>2024-01-31T06:29:05Z</time>
      </trkpt>
      <trkpt lat="44.06789" lon="6.43769">
        <ele>1189.45</ele>
        <time>2024-01-31T06:29:19Z</time>
      </trkpt>
      <trkpt lat="44.06829" lon="6.43765">
        <ele>1190.8</ele>
        <time>2024-01-31T06:29:39Z</time>
      </trkpt>
      <trkpt lat="44.06937" lon="6.43773">
        <ele>1197.47</ele>
        <time>2024-01-31T06:30:33Z</time>
      </trkpt>
      <trkpt lat="44.06982" lon="6.43753">
        <ele>1199.43</ele>
        <time>2024-01-31T06:30:57Z</time>
      </trkpt>
      <trkpt lat="44.07033" lon="6.43705">
        <ele>1203.37</ele>
        <time>2024-01-31T06:31:31Z</time>
      </trkpt>
      <trkpt lat="44.07061" lon="6.43701">
        <ele>1208.11</ele>
        <time>2024-01-31T06:31:46Z</time>
      </trkpt>
      <trkpt lat="44.07098" lon="6.43707">
        <ele>1213.47</ele>
        <time>2024-01-31T06:32:06Z</time>
      </trkpt>
      <trkpt lat="44.07128" lon="6.43713">
        <ele>1214.61</ele>
        <time>2024-01-31T06:32:23Z</time>
      </trkpt>
      <trkpt lat="44.07187" lon="6.43717">
        <ele>1216.37</ele>
        <time>2024-01-31T06:32:56Z</time>
      </trkpt>
      <trkpt lat="44.07234" lon="6.43688">
        <ele>1218.82</ele>
        <time>2024-01-31T06:33:28Z</time>
      </trkpt>
      <trkpt lat="44.07248" lon="6.43675">
        <ele>1220.28</ele>
        <time>2024-01-31T06:33:39Z</time>
      </trkpt>
      <trkpt lat="44.07257" lon="6.43628">
        <ele>1221.95</ele>
        <time>2024-01-31T06:34:03Z</time>
      </trkpt>
      <trkpt lat="44.07258" lon="6.43578">
        <ele>1226.34</ele>
        <time>2024-01-31T06:34:28Z</time>
      </trkpt>
      <trkpt lat="44.07265" lon="6.4355">
        <ele>1228.52</ele>
        <time>2024-01-31T06:34:44Z</time>
      </trkpt>
      <trkpt lat="44.07272" lon="6.43533">
        <ele>1229.63</ele>
        <time>2024-01-31T06:34:54Z</time>
      </trkpt>
      <trkpt lat="44.07308" lon="6.43495">
        <ele>1234.97</ele>
        <time>2024-01-31T06:35:28Z</time>
      </trkpt>
      <trkpt lat="44.07332" lon="6.43441">
        <ele>1239.54</ele>
        <time>2024-01-31T06:36:05Z</time>
      </trkpt>
      <trkpt lat="44.07354" lon="6.43409">
        <ele>1245.59</ele>
        <time>2024-01-31T06:36:31Z</time>
      </trkpt>
      <trkpt lat="44.07384" lon="6.43296">
        <ele>1258.05</ele>
        <time>2024-01-31T06:37:38Z</time>
      </trkpt>
      <trkpt lat="44.07396" lon="6.43272">
        <ele>1260.11</ele>
        <time>2024-01-31T06:37:53Z</time>
      </trkpt>
      <trkpt lat="44.07408" lon="6.43266">
        <ele>1262.41</ele>
        <time>2024-01-31T06:38:02Z</time>
      </trkpt>
      <trkpt lat="44.07416" lon="6.43271">
        <ele>1264.59</ele>
        <time>2024-01-31T06:38:08Z</time>
      </trkpt>
      <trkpt lat="44.07435" lon="6.43387">
        <ele>1270.44</ele>
        <time>2024-01-31T06:39:08Z</time>
      </trkpt>
      <trkpt lat="44.07467" lon="6.43429">
        <ele>1276.49</ele>
        <time>2024-01-31T06:39:40Z</time>
      </trkpt>
      <trkpt lat="44.07491" lon="6.43495">
        <ele>1280.91</ele>
        <time>2024-01-31T06:40:15Z</time>
      </trkpt>
      <trkpt lat="44.07538" lon="6.43535">
        <ele>1288.67</ele>
        <time>2024-01-31T06:40:51Z</time>
      </trkpt>
      <trkpt lat="44.0755" lon="6.43573">
        <ele>1291.54</ele>
        <time>2024-01-31T06:41:11Z</time>
      </trkpt>
      <trkpt lat="44.07554" lon="6.43572">
        <ele>1293.26</ele>
        <time>2024-01-31T06:41:14Z</time>
      </trkpt>
      <trkpt lat="44.07558" lon="6.43546">
        <ele>1294.9</ele>
        <time>2024-01-31T06:41:27Z</time>
      </trkpt>
      <trkpt lat="44.07572" lon="6.43482">
        <ele>1298.9</ele>
        <time>2024-01-31T06:42:01Z</time>
      </trkpt>
      <trkpt lat="44.07561" lon="6.43407">
        <ele>1303.54</ele>
        <time>2024-01-31T06:42:38Z</time>
      </trkpt>
      <trkpt lat="44.07569" lon="6.43378">
        <ele>1306.17</ele>
        <time>2024-01-31T06:42:53Z</time>
      </trkpt>
      <trkpt lat="44.07579" lon="6.43362">
        <ele>1307.8</ele>
        <time>2024-01-31T06:43:04Z</time>
      </trkpt>
      <trkpt lat="44.07592" lon="6.43355">
        <ele>1309.74</ele>
        <time>2024-01-31T06:43:12Z</time>
      </trkpt>
      <trkpt lat="44.07609" lon="6.43361">
        <ele>1314.73</ele>
        <time>2024-01-31T06:43:24Z</time>
      </trkpt>
      <trkpt lat="44.07626" lon="6.43357">
        <ele>1317.17</ele>
        <time>2024-01-31T06:43:34Z</time>
      </trkpt>
      <trkpt lat="44.07639" lon="6.43344">
        <ele>1319.22</ele>
        <time>2024-01-31T06:43:46Z</time>
      </trkpt>
      <trkpt lat="44.07627" lon="6.43312">
        <ele>1317.37</ele>
        <time>2024-01-31T06:44:01Z</time>
      </trkpt>
      <trkpt lat="44.07645" lon="6.43319">
        <ele>1320.5</ele>
        <time>2024-01-31T06:44:14Z</time>
      </trkpt>
      <trkpt lat="44.07667" lon="6.43342">
        <ele>1323.45</ele>
        <time>2024-01-31T06:44:32Z</time>
      </trkpt>
      <trkpt lat="44.0767" lon="6.43353">
        <ele>1324.29</ele>
        <time>2024-01-31T06:44:37Z</time>
      </trkpt>
      <trkpt lat="44.07671" lon="6.4337">
        <ele>1325.61</ele>
        <time>2024-01-31T06:44:44Z</time>
      </trkpt>
      <trkpt lat="44.07652" lon="6.43412">
        <ele>1328.46</ele>
        <time>2024-01-31T06:45:02Z</time>
      </trkpt>
      <trkpt lat="44.07649" lon="6.43437">
        <ele>1328.37</ele>
        <time>2024-01-31T06:45:11Z</time>
      </trkpt>
      <trkpt lat="44.07656" lon="6.43505">
        <ele>1331.17</ele>
        <time>2024-01-31T06:45:26Z</time>
      </trkpt>
      <trkpt lat="44.0765" lon="6.4355">
        <ele>1330.96</ele>
        <time>2024-01-31T06:45:35Z</time>
      </trkpt>
      <trkpt lat="44.07636" lon="6.4362">
        <ele>1333.94</ele>
        <time>2024-01-31T06:45:47Z</time>
      </trkpt>
      <trkpt lat="44.07606" lon="6.43662">
        <ele>1331.28</ele>
        <time>2024-01-31T06:45:56Z</time>
      </trkpt>
      <trkpt lat="44.07592" lon="6.43692">
        <ele>1331.43</ele>
        <time>2024-01-31T06:46:03Z</time>
      </trkpt>
      <trkpt lat="44.07583" lon="6.43735">
        <ele>1333.13</ele>
        <time>2024-01-31T06:46:11Z</time>
      </trkpt>
      <trkpt lat="44.07583" lon="6.43755">
        <ele>1334.63</ele>
        <time>2024-01-31T06:46:15Z</time>
      </trkpt>
      <trkpt lat="44.07592" lon="6.43777">
        <ele>1336.31</ele>
        <time>2024-01-31T06:46:21Z</time>
      </trkpt>
      <trkpt lat="44.07612" lon="6.43826">
        <ele>1336.15</ele>
        <time>2024-01-31T06:46:40Z</time>
      </trkpt>
      <trkpt lat="44.07632" lon="6.43893">
        <ele>1341.15</ele>
        <time>2024-01-31T06:47:18Z</time>
      </trkpt>
      <trkpt lat="44.07643" lon="6.43913">
        <ele>1342.39</ele>
        <time>2024-01-31T06:47:33Z</time>
      </trkpt>
      <trkpt lat="44.07694" lon="6.43932">
        <ele>1349.11</ele>
        <time>2024-01-31T06:48:27Z</time>
      </trkpt>
      <trkpt lat="44.07713" lon="6.43945">
        <ele>1350.49</ele>
        <time>2024-01-31T06:48:50Z</time>
      </trkpt>
      <trkpt lat="44.07735" lon="6.43963">
        <ele>1353.25</ele>
        <time>2024-01-31T06:49:18Z</time>
      </trkpt>
      <trkpt lat="44.07751" lon="6.43991">
        <ele>1354.45</ele>
        <time>2024-01-31T06:49:46Z</time>
      </trkpt>
      <trkpt lat="44.07785" lon="6.44043">
        <ele>1360.67</ele>
        <time>2024-01-31T06:50:40Z</time>
      </trkpt>
      <trkpt lat="44.07809" lon="6.44104">
        <ele>1363.22</ele>
        <time>2024-01-31T06:51:27Z</time>
      </trkpt>
      <trkpt lat="44.07824" lon="6.44119">
        <ele>1368.47</ele>
        <time>2024-01-31T06:51:44Z</time>
      </trkpt>
      <trkpt lat="44.07841" lon="6.44146">
        <ele>1372.14</ele>
        <time>2024-01-31T06:52:05Z</time>
      </trkpt>
      <trkpt lat="44.07843" lon="6.44158">
        <ele>1372</ele>
        <time>2024-01-31T06:52:12Z</time>
      </trkpt>
      <trkpt lat="44.0784" lon="6.44168">
        <ele>1374.2</ele>
        <time>2024-01-31T06:52:18Z</time>
      </trkpt>
      <trkpt lat="44.07819" lon="6.44183">
        <ele>1370.04</ele>
        <time>2024-01-31T06:52:34Z</time>
      </trkpt>
      <trkpt lat="44.07807" lon="6.44203">
        <ele>1369.79</ele>
        <time>2024-01-31T06:52:45Z</time>
      </trkpt>
      <trkpt lat="44.078" lon="6.44237">
        <ele>1371.83</ele>
        <time>2024-01-31T06:52:58Z</time>
      </trkpt>
      <trkpt lat="44.07797" lon="6.44282">
        <ele>1378.86</ele>
        <time>2024-01-31T06:53:12Z</time>
      </trkpt>
      <trkpt lat="44.07796" lon="6.4434">
        <ele>1382.25</ele>
        <time>2024-01-31T06:53:26Z</time>
      </trkpt>
      <trkpt lat="44.07805" lon="6.44358">
        <ele>1382.68</ele>
        <time>2024-01-31T06:53:31Z</time>
      </trkpt>
      <trkpt lat="44.07822" lon="6.44376">
        <ele>1380.2</ele>
        <time>2024-01-31T06:53:37Z</time>
      </trkpt>
      <trkpt lat="44.07846" lon="6.44385">
        <ele>1375.55</ele>
        <time>2024-01-31T06:53:43Z</time>
      </trkpt>
      <trkpt lat="44.0787" lon="6.4439">
        <ele>1371.67</ele>
        <time>2024-01-31T06:53:49Z</time>
      </trkpt>
      <trkpt lat="44.07914" lon="6.44377">
        <ele>1373.27</ele>
        <time>2024-01-31T06:53:59Z</time>
      </trkpt>
      <trkpt lat="44.07937" lon="6.44379">
        <ele>1373.56</ele>
        <time>2024-01-31T06:54:04Z</time>
      </trkpt>
      <trkpt lat="44.07959" lon="6.44412">
        <ele>1369.35</ele>
        <time>2024-01-31T06:54:10Z</time>
      </trkpt>
      <trkpt lat="44.07963" lon="6.44427">
        <ele>1364.59</ele>
        <time>2024-01-31T06:54:13Z</time>
      </trkpt>
      <trkpt lat="44.07989" lon="6.44449">
        <ele>1361.22</ele>
        <time>2024-01-31T06:54:19Z</time>
      </trkpt>
      <trkpt lat="44.07992" lon="6.44484">
        <ele>1359.31</ele>
        <time>2024-01-31T06:54:24Z</time>
      </trkpt>
      <trkpt lat="44.08045" lon="6.446">
        <ele>1347.52</ele>
        <time>2024-01-31T06:54:43Z</time>
      </trkpt>
      <trkpt lat="44.08077" lon="6.44648">
        <ele>1344</ele>
        <time>2024-01-31T06:54:52Z</time>
      </trkpt>
      <trkpt lat="44.08104" lon="6.44735">
        <ele>1334.01</ele>
        <time>2024-01-31T06:55:05Z</time>
      </trkpt>
      <trkpt lat="44.08122" lon="6.44846">
        <ele>1324.68</ele>
        <time>2024-01-31T06:55:21Z</time>
      </trkpt>
      <trkpt lat="44.0814" lon="6.44932">
        <ele>1322.97</ele>
        <time>2024-01-31T06:55:33Z</time>
      </trkpt>
      <trkpt lat="44.08135" lon="6.44993">
        <ele>1312.75</ele>
        <time>2024-01-31T06:55:41Z</time>
      </trkpt>
      <trkpt lat="44.08155" lon="6.45091">
        <ele>1305.83</ele>
        <time>2024-01-31T06:55:54Z</time>
      </trkpt>
      <trkpt lat="44.08169" lon="6.45141">
        <ele>1303.59</ele>
        <time>2024-01-31T06:56:01Z</time>
      </trkpt>
      <trkpt lat="44.08187" lon="6.45184">
        <ele>1296.97</ele>
        <time>2024-01-31T06:56:08Z</time>
      </trkpt>
      <trkpt lat="44.08197" lon="6.45194">
        <ele>1293.94</ele>
        <time>2024-01-31T06:56:10Z</time>
      </trkpt>
      <trkpt lat="44.08209" lon="6.452">
        <ele>1293.72</ele>
        <time>2024-01-31T06:56:13Z</time>
      </trkpt>
      <trkpt lat="44.0823" lon="6.45198">
        <ele>1293.45</ele>
        <time>2024-01-31T06:56:17Z</time>
      </trkpt>
      <trkpt lat="44.08235" lon="6.45202">
        <ele>1293.2</ele>
        <time>2024-01-31T06:56:18Z</time>
      </trkpt>
      <trkpt lat="44.08236" lon="6.45208">
        <ele>1289.83</ele>
        <time>2024-01-31T06:56:19Z</time>
      </trkpt>
      <trkpt lat="44.08215" lon="6.45218">
        <ele>1287.54</ele>
        <time>2024-01-31T06:56:24Z</time>
      </trkpt>
      <trkpt lat="44.08197" lon="6.45218">
        <ele>1285.79</ele>
        <time>2024-01-31T06:56:28Z</time>
      </trkpt>
      <trkpt lat="44.08157" lon="6.45188">
        <ele>1283.47</ele>
        <time>2024-01-31T06:56:44Z</time>
      </trkpt>
      <trkpt lat="44.08147" lon="6.45174">
        <ele>1279.75</ele>
        <time>2024-01-31T06:56:51Z</time>
      </trkpt>
      <trkpt lat="44.08131" lon="6.45129">
        <ele>1277.06</ele>
        <time>2024-01-31T06:57:13Z</time>
      </trkpt>
      <trkpt lat="44.08104" lon="6.45079">
        <ele>1272.77</ele>
        <time>2024-01-31T06:57:49Z</time>
      </trkpt>
      <trkpt lat="44.08075" lon="6.45002">
        <ele>1270.41</ele>
        <time>2024-01-31T06:58:38Z</time>
      </trkpt>
      <trkpt lat="44.08055" lon="6.44893">
        <ele>1273.96</ele>
        <time>2024-01-31T06:59:32Z</time>
      </trkpt>
      <trkpt lat="44.08047" lon="6.44881">
        <ele>1272.63</ele>
        <time>2024-01-31T06:59:37Z</time>
      </trkpt>
      <trkpt lat="44.08007" lon="6.44994">
        <ele>1261.76</ele>
        <time>2024-01-31T07:00:01Z</time>
      </trkpt>
      <trkpt lat="44.08003" lon="6.45121">
        <ele>1250.71</ele>
        <time>2024-01-31T07:00:19Z</time>
      </trkpt>
      <trkpt lat="44.08023" lon="6.45306">
        <ele>1237.96</ele>
        <time>2024-01-31T07:00:44Z</time>
      </trkpt>
      <trkpt lat="44.08038" lon="6.45366">
        <ele>1224.66</ele>
        <time>2024-01-31T07:00:52Z</time>
      </trkpt>
      <trkpt lat="44.08038" lon="6.45383">
        <ele>1221.8</ele>
        <time>2024-01-31T07:00:55Z</time>
      </trkpt>
      <trkpt lat="44.08035" lon="6.45399">
        <ele>1221.51</ele>
        <time>2024-01-31T07:00:57Z</time>
      </trkpt>
      <trkpt lat="44.08004" lon="6.45432">
        <ele>1228.75</ele>
        <time>2024-01-31T07:01:05Z</time>
      </trkpt>
      <trkpt lat="44.08007" lon="6.45449">
        <ele>1221.13</ele>
        <time>2024-01-31T07:01:08Z</time>
      </trkpt>
      <trkpt lat="44.0802" lon="6.45448">
        <ele>1213.56</ele>
        <time>2024-01-31T07:01:11Z</time>
      </trkpt>
      <trkpt lat="44.08058" lon="6.45382">
        <ele>1209.85</ele>
        <time>2024-01-31T07:01:26Z</time>
      </trkpt>
      <trkpt lat="44.08064" lon="6.45319">
        <ele>1211.82</ele>
        <time>2024-01-31T07:01:37Z</time>
      </trkpt>
      <trkpt lat="44.08058" lon="6.45283">
        <ele>1215.82</ele>
        <time>2024-01-31T07:01:43Z</time>
      </trkpt>
      <trkpt lat="44.08058" lon="6.45259">
        <ele>1209.85</ele>
        <time>2024-01-31T07:01:47Z</time>
      </trkpt>
      <trkpt lat="44.08061" lon="6.45236">
        <ele>1210.87</ele>
        <time>2024-01-31T07:01:50Z</time>
      </trkpt>
      <trkpt lat="44.08066" lon="6.45231">
        <ele>1211.35</ele>
        <time>2024-01-31T07:01:52Z</time>
      </trkpt>
      <trkpt lat="44.08072" lon="6.45233">
        <ele>1211.51</ele>
        <time>2024-01-31T07:01:53Z</time>
      </trkpt>
      <trkpt lat="44.08085" lon="6.45254">
        <ele>1209.28</ele>
        <time>2024-01-31T07:01:57Z</time>
      </trkpt>
      <trkpt lat="44.08102" lon="6.45266">
        <ele>1209.85</ele>
        <time>2024-01-31T07:02:01Z</time>
      </trkpt>
      <trkpt lat="44.08114" lon="6.45282">
        <ele>1205.9</ele>
        <time>2024-01-31T07:02:05Z</time>
      </trkpt>
      <trkpt lat="44.08122" lon="6.45295">
        <ele>1204.96</ele>
        <time>2024-01-31T07:02:08Z</time>
      </trkpt>
      <trkpt lat="44.08147" lon="6.4536">
        <ele>1196.27</ele>
        <time>2024-01-31T07:02:19Z</time>
      </trkpt>
      <trkpt lat="44.08156" lon="6.45366">
        <ele>1193.57</ele>
        <time>2024-01-31T07:02:21Z</time>
      </trkpt>
      <trkpt lat="44.08225" lon="6.45376">
        <ele>1189.8</ele>
        <time>2024-01-31T07:02:35Z</time>
      </trkpt>
      <trkpt lat="44.08264" lon="6.45374">
        <ele>1188.5</ele>
        <time>2024-01-31T07:02:43Z</time>
      </trkpt>
      <trkpt lat="44.08307" lon="6.45378">
        <ele>1185.28</ele>
        <time>2024-01-31T07:02:52Z</time>
      </trkpt>
      <trkpt lat="44.0832" lon="6.45372">
        <ele>1186.06</ele>
        <time>2024-01-31T07:02:56Z</time>
      </trkpt>
      <trkpt lat="44.08328" lon="6.45377">
        <ele>1185.15</ele>
        <time>2024-01-31T07:02:58Z</time>
      </trkpt>
      <trkpt lat="44.08328" lon="6.45386">
        <ele>1183.44</ele>
        <time>2024-01-31T07:02:59Z</time>
      </trkpt>
      <trkpt lat="44.08302" lon="6.45389">
        <ele>1181.48</ele>
        <time>2024-01-31T07:03:05Z</time>
      </trkpt>
      <trkpt lat="44.08285" lon="6.45397">
        <ele>1178.13</ele>
        <time>2024-01-31T07:03:09Z</time>
      </trkpt>
      <trkpt lat="44.08244" lon="6.45407">
        <ele>1174.5</ele>
        <time>2024-01-31T07:03:19Z</time>
      </trkpt>
      <trkpt lat="44.08219" lon="6.45435">
        <ele>1171.31</ele>
        <time>2024-01-31T07:03:27Z</time>
      </trkpt>
      <trkpt lat="44.08192" lon="6.45473">
        <ele>1172.12</ele>
        <time>2024-01-31T07:03:35Z</time>
      </trkpt>
      <trkpt lat="44.08105" lon="6.45542">
        <ele>1159.54</ele>
        <time>2024-01-31T07:03:59Z</time>
      </trkpt>
      <trkpt lat="44.08092" lon="6.45584">
        <ele>1163.21</ele>
        <time>2024-01-31T07:04:08Z</time>
      </trkpt>
      <trkpt lat="44.08071" lon="6.45622">
        <ele>1164.21</ele>
        <time>2024-01-31T07:04:17Z</time>
      </trkpt>
      <trkpt lat="44.07989" lon="6.45702">
        <ele>1153.19</ele>
        <time>2024-01-31T07:04:43Z</time>
      </trkpt>
      <trkpt lat="44.07962" lon="6.45753">
        <ele>1150.64</ele>
        <time>2024-01-31T07:04:54Z</time>
      </trkpt>
      <trkpt lat="44.07919" lon="6.45802">
        <ele>1148.01</ele>
        <time>2024-01-31T07:05:07Z</time>
      </trkpt>
      <trkpt lat="44.07889" lon="6.45826">
        <ele>1147.17</ele>
        <time>2024-01-31T07:05:15Z</time>
      </trkpt>
      <trkpt lat="44.07854" lon="6.45914">
        <ele>1146.2</ele>
        <time>2024-01-31T07:05:30Z</time>
      </trkpt>
      <trkpt lat="44.07853" lon="6.45937">
        <ele>1145.36</ele>
        <time>2024-01-31T07:05:34Z</time>
      </trkpt>
      <trkpt lat="44.07882" lon="6.46087">
        <ele>1133.29</ele>
        <time>2024-01-31T07:05:58Z</time>
      </trkpt>
      <trkpt lat="44.07905" lon="6.46227">
        <ele>1129.93</ele>
        <time>2024-01-31T07:06:22Z</time>
      </trkpt>
      <trkpt lat="44.07911" lon="6.46308">
        <ele>1126.58</ele>
        <time>2024-01-31T07:06:36Z</time>
      </trkpt>
      <trkpt lat="44.07913" lon="6.46457">
        <ele>1122.34</ele>
        <time>2024-01-31T07:07:03Z</time>
      </trkpt>
      <trkpt lat="44.07901" lon="6.46534">
        <ele>1120.77</ele>
        <time>2024-01-31T07:07:17Z</time>
      </trkpt>
      <trkpt lat="44.07912" lon="6.46569">
        <ele>1124.47</ele>
        <time>2024-01-31T07:07:24Z</time>
      </trkpt>
      <trkpt lat="44.07892" lon="6.46678">
        <ele>1122.07</ele>
        <time>2024-01-31T07:07:43Z</time>
      </trkpt>
      <trkpt lat="44.07868" lon="6.46742">
        <ele>1114.98</ele>
        <time>2024-01-31T07:07:55Z</time>
      </trkpt>
      <trkpt lat="44.07856" lon="6.46761">
        <ele>1112.45</ele>
        <time>2024-01-31T07:07:59Z</time>
      </trkpt>
      <trkpt lat="44.07852" lon="6.46784">
        <ele>1112.32</ele>
        <time>2024-01-31T07:08:03Z</time>
      </trkpt>
      <trkpt lat="44.07817" lon="6.47">
        <ele>1115.34</ele>
        <time>2024-01-31T07:08:39Z</time>
      </trkpt>
      <trkpt lat="44.07802" lon="6.47137">
        <ele>1119.77</ele>
        <time>2024-01-31T07:09:04Z</time>
      </trkpt>
      <trkpt lat="44.07828" lon="6.47204">
        <ele>1120.06</ele>
        <time>2024-01-31T07:09:18Z</time>
      </trkpt>
      <trkpt lat="44.07826" lon="6.47209">
        <ele>1119.73</ele>
        <time>2024-01-31T07:09:19Z</time>
      </trkpt>
      <trkpt lat="44.07768" lon="6.47266">
        <ele>1117.64</ele>
        <time>2024-01-31T07:09:38Z</time>
      </trkpt>
      <trkpt lat="44.0776" lon="6.47277">
        <ele>1117.39</ele>
        <time>2024-01-31T07:09:41Z</time>
      </trkpt>
      <trkpt lat="44.07702" lon="6.47428">
        <ele>1111.07</ele>
        <time>2024-01-31T07:10:13Z</time>
      </trkpt>
      <trkpt lat="44.07646" lon="6.47581">
        <ele>1104.94</ele>
        <time>2024-01-31T07:10:45Z</time>
      </trkpt>
      <trkpt lat="44.07629" lon="6.47623">
        <ele>1103.28</ele>
        <time>2024-01-31T07:10:54Z</time>
      </trkpt>
      <trkpt lat="44.0763" lon="6.47632">
        <ele>1102.94</ele>
        <time>2024-01-31T07:10:56Z</time>
      </trkpt>
      <trkpt lat="44.07634" lon="6.47638">
        <ele>1102.8</ele>
        <time>2024-01-31T07:10:57Z</time>
      </trkpt>
      <trkpt lat="44.07709" lon="6.47673">
        <ele>1100.92</ele>
        <time>2024-01-31T07:11:16Z</time>
      </trkpt>
      <trkpt lat="44.07719" lon="6.47683">
        <ele>1099.01</ele>
        <time>2024-01-31T07:11:18Z</time>
      </trkpt>
      <trkpt lat="44.07723" lon="6.47693">
        <ele>1098.21</ele>
        <time>2024-01-31T07:11:20Z</time>
      </trkpt>
      <trkpt lat="44.07723" lon="6.47721">
        <ele>1096.34</ele>
        <time>2024-01-31T07:11:25Z</time>
      </trkpt>
      <trkpt lat="44.07713" lon="6.47814">
        <ele>1089.81</ele>
        <time>2024-01-31T07:11:39Z</time>
      </trkpt>
      <trkpt lat="44.077" lon="6.47869">
        <ele>1085.09</ele>
        <time>2024-01-31T07:11:49Z</time>
      </trkpt>
      <trkpt lat="44.07687" lon="6.47959">
        <ele>1077.4</ele>
        <time>2024-01-31T07:12:03Z</time>
      </trkpt>
      <trkpt lat="44.07671" lon="6.47961">
        <ele>1079.55</ele>
        <time>2024-01-31T07:12:05Z</time>
      </trkpt>
      <trkpt lat="44.07629" lon="6.47987">
        <ele>1078.28</ele>
        <time>2024-01-31T07:12:11Z</time>
      </trkpt>
      <trkpt lat="44.0761" lon="6.47987">
        <ele>1077.43</ele>
        <time>2024-01-31T07:12:14Z</time>
      </trkpt>
      <trkpt lat="44.07615" lon="6.48034">
        <ele>1072.24</ele>
        <time>2024-01-31T07:12:22Z</time>
      </trkpt>
      <trkpt lat="44.07602" lon="6.48037">
        <ele>1071.67</ele>
        <time>2024-01-31T07:12:26Z</time>
      </trkpt>
      <trkpt lat="44.07573" lon="6.48063">
        <ele>1069.98</ele>
        <time>2024-01-31T07:12:35Z</time>
      </trkpt>
      <trkpt lat="44.07525" lon="6.48078">
        <ele>1068.9</ele>
        <time>2024-01-31T07:12:49Z</time>
      </trkpt>
      <trkpt lat="44.07524" lon="6.48085">
        <ele>1068.9</ele>
        <time>2024-01-31T07:12:51Z</time>
      </trkpt>
      <trkpt lat="44.07533" lon="6.48116">
        <ele>1069.53</ele>
        <time>2024-01-31T07:12:58Z</time>
      </trkpt>
      <trkpt lat="44.07534" lon="6.4813">
        <ele>1069.84</ele>
        <time>2024-01-31T07:13:01Z</time>
      </trkpt>
      <trkpt lat="44.07518" lon="6.48174">
        <ele>1069.81</ele>
        <time>2024-01-31T07:13:12Z</time>
      </trkpt>
      <trkpt lat="44.07517" lon="6.48196">
        <ele>1069.86</ele>
        <time>2024-01-31T07:13:17Z</time>
      </trkpt>
      <trkpt lat="44.07525" lon="6.48257">
        <ele>1070.46</ele>
        <time>2024-01-31T07:13:32Z</time>
      </trkpt>
      <trkpt lat="44.07534" lon="6.48272">
        <ele>1070.61</ele>
        <time>2024-01-31T07:13:37Z</time>
      </trkpt>
      <trkpt lat="44.07591" lon="6.48338">
        <ele>1072.11</ele>
        <time>2024-01-31T07:14:04Z</time>
      </trkpt>
      <trkpt lat="44.07611" lon="6.48351">
        <ele>1072.36</ele>
        <time>2024-01-31T07:14:12Z</time>
      </trkpt>
      <trkpt lat="44.07639" lon="6.48363">
        <ele>1072.84</ele>
        <time>2024-01-31T07:14:22Z</time>
      </trkpt>
      <trkpt lat="44.07643" lon="6.48395">
        <ele>1072.7</ele>
        <time>2024-01-31T07:14:30Z</time>
      </trkpt>
      <trkpt lat="44.0765" lon="6.48422">
        <ele>1072.73</ele>
        <time>2024-01-31T07:14:37Z</time>
      </trkpt>
      <trkpt lat="44.07652" lon="6.48443">
        <ele>1072.83</ele>
        <time>2024-01-31T07:14:42Z</time>
      </trkpt>
      <trkpt lat="44.07661" lon="6.48458">
        <ele>1072.96</ele>
        <time>2024-01-31T07:14:47Z</time>
      </trkpt>
      <trkpt lat="44.07727" lon="6.48485">
        <ele>1073.98</ele>
        <time>2024-01-31T07:15:08Z</time>
      </trkpt>
      <trkpt lat="44.07738" lon="6.48509">
        <ele>1073.96</ele>
        <time>2024-01-31T07:15:14Z</time>
      </trkpt>
      <trkpt lat="44.0775" lon="6.48521">
        <ele>1074.28</ele>
        <time>2024-01-31T07:15:19Z</time>
      </trkpt>
      <trkpt lat="44.07766" lon="6.48542">
        <ele>1074.6</ele>
        <time>2024-01-31T07:15:26Z</time>
      </trkpt>
      <trkpt lat="44.07771" lon="6.48571">
        <ele>1074.45</ele>
        <time>2024-01-31T07:15:32Z</time>
      </trkpt>
      <trkpt lat="44.07779" lon="6.48586">
        <ele>1074.06</ele>
        <time>2024-01-31T07:15:37Z</time>
      </trkpt>
      <trkpt lat="44.07792" lon="6.48606">
        <ele>1074.63</ele>
        <time>2024-01-31T07:15:44Z</time>
      </trkpt>
      <trkpt lat="44.07819" lon="6.48628">
        <ele>1076.58</ele>
        <time>2024-01-31T07:15:54Z</time>
      </trkpt>
      <trkpt lat="44.07831" lon="6.48648">
        <ele>1076.86</ele>
        <time>2024-01-31T07:16:00Z</time>
      </trkpt>
      <trkpt lat="44.07846" lon="6.48681">
        <ele>1076.49</ele>
        <time>2024-01-31T07:16:10Z</time>
      </trkpt>
      <trkpt lat="44.07841" lon="6.48727">
        <ele>1075.53</ele>
        <time>2024-01-31T07:16:21Z</time>
      </trkpt>
      <trkpt lat="44.07845" lon="6.48746">
        <ele>1075.4</ele>
        <time>2024-01-31T07:16:26Z</time>
      </trkpt>
      <trkpt lat="44.0785" lon="6.48761">
        <ele>1075.24</ele>
        <time>2024-01-31T07:16:30Z</time>
      </trkpt>
      <trkpt lat="44.07854" lon="6.48771">
        <ele>1076.19</ele>
        <time>2024-01-31T07:16:33Z</time>
      </trkpt>
      <trkpt lat="44.07887" lon="6.48775">
        <ele>1077.42</ele>
        <time>2024-01-31T07:16:45Z</time>
      </trkpt>
      <trkpt lat="44.07919" lon="6.48779">
        <ele>1078.79</ele>
        <time>2024-01-31T07:16:58Z</time>
      </trkpt>
      <trkpt lat="44.0799" lon="6.48819">
        <ele>1082.67</ele>
        <time>2024-01-31T07:17:31Z</time>
      </trkpt>
      <trkpt lat="44.08003" lon="6.48842">
        <ele>1083.7</ele>
        <time>2024-01-31T07:17:40Z</time>
      </trkpt>
      <trkpt lat="44.08016" lon="6.48879">
        <ele>1084.48</ele>
        <time>2024-01-31T07:17:54Z</time>
      </trkpt>
      <trkpt lat="44.08034" lon="6.48908">
        <ele>1083.13</ele>
        <time>2024-01-31T07:18:06Z</time>
      </trkpt>
      <trkpt lat="44.08047" lon="6.48941">
        <ele>1083.06</ele>
        <time>2024-01-31T07:18:18Z</time>
      </trkpt>
      <trkpt lat="44.08053" lon="6.48983">
        <ele>1084.15</ele>
        <time>2024-01-31T07:18:31Z</time>
      </trkpt>
      <trkpt lat="44.08053" lon="6.48997">
        <ele>1084.01</ele>
        <time>2024-01-31T07:18:35Z</time>
      </trkpt>
      <trkpt lat="44.08043" lon="6.49067">
        <ele>1083.22</ele>
        <time>2024-01-31T07:18:56Z</time>
      </trkpt>
      <trkpt lat="44.08065" lon="6.49104">
        <ele>1083.33</ele>
        <time>2024-01-31T07:19:08Z</time>
      </trkpt>
      <trkpt lat="44.0808" lon="6.49115">
        <ele>1083.69</ele>
        <time>2024-01-31T07:19:14Z</time>
      </trkpt>
      <trkpt lat="44.08121" lon="6.49129">
        <ele>1085.28</ele>
        <time>2024-01-31T07:19:27Z</time>
      </trkpt>
      <trkpt lat="44.08161" lon="6.49146">
        <ele>1086.6</ele>
        <time>2024-01-31T07:19:39Z</time>
      </trkpt>
      <trkpt lat="44.08191" lon="6.49175">
        <ele>1088.4</ele>
        <time>2024-01-31T07:19:50Z</time>
      </trkpt>
      <trkpt lat="44.08249" lon="6.49272">
        <ele>1092.24</ele>
        <time>2024-01-31T07:20:17Z</time>
      </trkpt>
      <trkpt lat="44.08265" lon="6.49303">
        <ele>1092.39</ele>
        <time>2024-01-31T07:20:27Z</time>
      </trkpt>
      <trkpt lat="44.08292" lon="6.49356">
        <ele>1092.27</ele>
        <time>2024-01-31T07:20:43Z</time>
      </trkpt>
      <trkpt lat="44.08326" lon="6.49444">
        <ele>1091.53</ele>
        <time>2024-01-31T07:21:09Z</time>
      </trkpt>
      <trkpt lat="44.08376" lon="6.49458">
        <ele>1090.35</ele>
        <time>2024-01-31T07:21:25Z</time>
      </trkpt>
      <trkpt lat="44.0836" lon="6.49474">
        <ele>1090.8</ele>
        <time>2024-01-31T07:21:32Z</time>
      </trkpt>
      <trkpt lat="44.08346" lon="6.49494">
        <ele>1091.19</ele>
        <time>2024-01-31T07:21:40Z</time>
      </trkpt>
      <trkpt lat="44.08333" lon="6.49528">
        <ele>1091.62</ele>
        <time>2024-01-31T07:21:50Z</time>
      </trkpt>
      <trkpt lat="44.08326" lon="6.49545">
        <ele>1091.89</ele>
        <time>2024-01-31T07:21:55Z</time>
      </trkpt>
      <trkpt lat="44.08323" lon="6.49565">
        <ele>1092.26</ele>
        <time>2024-01-31T07:22:00Z</time>
      </trkpt>
      <trkpt lat="44.08323" lon="6.49604">
        <ele>1093.28</ele>
        <time>2024-01-31T07:22:09Z</time>
      </trkpt>
      <trkpt lat="44.0833" lon="6.49622">
        <ele>1093.81</ele>
        <time>2024-01-31T07:22:14Z</time>
      </trkpt>
      <trkpt lat="44.08339" lon="6.49637">
        <ele>1095.04</ele>
        <time>2024-01-31T07:22:18Z</time>
      </trkpt>
      <trkpt lat="44.08351" lon="6.49651">
        <ele>1096.06</ele>
        <time>2024-01-31T07:22:23Z</time>
      </trkpt>
      <trkpt lat="44.08371" lon="6.49654">
        <ele>1095.95</ele>
        <time>2024-01-31T07:22:30Z</time>
      </trkpt>
      <trkpt lat="44.08393" lon="6.49672">
        <ele>1096.18</ele>
        <time>2024-01-31T07:22:38Z</time>
      </trkpt>
      <trkpt lat="44.0841" lon="6.49698">
        <ele>1096.22</ele>
        <time>2024-01-31T07:22:46Z</time>
      </trkpt>
      <trkpt lat="44.08415" lon="6.49717">
        <ele>1096.23</ele>
        <time>2024-01-31T07:22:51Z</time>
      </trkpt>
      <trkpt lat="44.08455" lon="6.49776">
        <ele>1097.51</ele>
        <time>2024-01-31T07:23:11Z</time>
      </trkpt>
      <trkpt lat="44.08479" lon="6.49819">
        <ele>1097.91</ele>
        <time>2024-01-31T07:23:26Z</time>
      </trkpt>
      <trkpt lat="44.08508" lon="6.49859">
        <ele>1098.53</ele>
        <time>2024-01-31T07:23:43Z</time>
      </trkpt>
      <trkpt lat="44.08533" lon="6.49909">
        <ele>1100.37</ele>
        <time>2024-01-31T07:24:04Z</time>
      </trkpt>
      <trkpt lat="44.08542" lon="6.49937">
        <ele>1102.01</ele>
        <time>2024-01-31T07:24:15Z</time>
      </trkpt>
      <trkpt lat="44.08541" lon="6.49975">
        <ele>1104.49</ele>
        <time>2024-01-31T07:24:30Z</time>
      </trkpt>
      <trkpt lat="44.08552" lon="6.50002">
        <ele>1104.73</ele>
        <time>2024-01-31T07:24:42Z</time>
      </trkpt>
      <trkpt lat="44.08559" lon="6.50032">
        <ele>1105.7</ele>
        <time>2024-01-31T07:24:54Z</time>
      </trkpt>
      <trkpt lat="44.0856" lon="6.5007">
        <ele>1105.71</ele>
        <time>2024-01-31T07:25:08Z</time>
      </trkpt>
      <trkpt lat="44.08553" lon="6.50114">
        <ele>1105.64</ele>
        <time>2024-01-31T07:25:25Z</time>
      </trkpt>
      <trkpt lat="44.0855" lon="6.50161">
        <ele>1107.19</ele>
        <time>2024-01-31T07:25:41Z</time>
      </trkpt>
      <trkpt lat="44.08552" lon="6.50207">
        <ele>1108.09</ele>
        <time>2024-01-31T07:25:54Z</time>
      </trkpt>
      <trkpt lat="44.08565" lon="6.50253">
        <ele>1107.87</ele>
        <time>2024-01-31T07:26:06Z</time>
      </trkpt>
      <trkpt lat="44.08564" lon="6.50281">
        <ele>1110.16</ele>
        <time>2024-01-31T07:26:12Z</time>
      </trkpt>
      <trkpt lat="44.0858" lon="6.5032">
        <ele>1108.2</ele>
        <time>2024-01-31T07:26:20Z</time>
      </trkpt>
      <trkpt lat="44.08578" lon="6.50334">
        <ele>1108.12</ele>
        <time>2024-01-31T07:26:23Z</time>
      </trkpt>
      <trkpt lat="44.08591" lon="6.50322">
        <ele>1106.8</ele>
        <time>2024-01-31T07:26:27Z</time>
      </trkpt>
      <trkpt lat="44.08595" lon="6.5032">
        <ele>1106.41</ele>
        <time>2024-01-31T07:26:28Z</time>
      </trkpt>
      <trkpt lat="44.08609" lon="6.50314">
        <ele>1105.26</ele>
        <time>2024-01-31T07:26:31Z</time>
      </trkpt>
      <trkpt lat="44.08634" lon="6.50312">
        <ele>1103.96</ele>
        <time>2024-01-31T07:26:37Z</time>
      </trkpt>
      <trkpt lat="44.08698" lon="6.50343">
        <ele>1103.48</ele>
        <time>2024-01-31T07:26:53Z</time>
      </trkpt>
      <trkpt lat="44.08741" lon="6.50339">
        <ele>1102.34</ele>
        <time>2024-01-31T07:27:04Z</time>
      </trkpt>
      <trkpt lat="44.08804" lon="6.50313">
        <ele>1103.01</ele>
        <time>2024-01-31T07:27:23Z</time>
      </trkpt>
      <trkpt lat="44.08822" lon="6.5031">
        <ele>1104.5</ele>
        <time>2024-01-31T07:27:29Z</time>
      </trkpt>
      <trkpt lat="44.08832" lon="6.50312">
        <ele>1105.61</ele>
        <time>2024-01-31T07:27:31Z</time>
      </trkpt>
      <trkpt lat="44.08902" lon="6.50297">
        <ele>1115.81</ele>
        <time>2024-01-31T07:27:53Z</time>
      </trkpt>
      <trkpt lat="44.08923" lon="6.50296">
        <ele>1117.16</ele>
        <time>2024-01-31T07:28:00Z</time>
      </trkpt>
      <trkpt lat="44.08931" lon="6.503">
        <ele>1118.19</ele>
        <time>2024-01-31T07:28:04Z</time>
      </trkpt>
      <trkpt lat="44.08912" lon="6.50307">
        <ele>1117.86</ele>
        <time>2024-01-31T07:28:08Z</time>
      </trkpt>
      <trkpt lat="44.08894" lon="6.50325">
        <ele>1117.69</ele>
        <time>2024-01-31T07:28:13Z</time>
      </trkpt>
      <trkpt lat="44.08887" lon="6.50345">
        <ele>1118.8</ele>
        <time>2024-01-31T07:28:17Z</time>
      </trkpt>
      <trkpt lat="44.08882" lon="6.5037">
        <ele>1116.79</ele>
        <time>2024-01-31T07:28:22Z</time>
      </trkpt>
      <trkpt lat="44.08865" lon="6.50781">
        <ele>1114.65</ele>
        <time>2024-01-31T07:29:30Z</time>
      </trkpt>
      <trkpt lat="44.08867" lon="6.50834">
        <ele>1115.45</ele>
        <time>2024-01-31T07:29:40Z</time>
      </trkpt>
      <trkpt lat="44.08879" lon="6.50968">
        <ele>1117.52</ele>
        <time>2024-01-31T07:30:07Z</time>
      </trkpt>
      <trkpt lat="44.0888" lon="6.51059">
        <ele>1119.82</ele>
        <time>2024-01-31T07:30:27Z</time>
      </trkpt>
      <trkpt lat="44.08863" lon="6.51057">
        <ele>1119.69</ele>
        <time>2024-01-31T07:30:35Z</time>
      </trkpt>
      <trkpt lat="44.08844" lon="6.51047">
        <ele>1119.35</ele>
        <time>2024-01-31T07:30:45Z</time>
      </trkpt>
      <trkpt lat="44.08836" lon="6.51046">
        <ele>1119.5</ele>
        <time>2024-01-31T07:30:49Z</time>
      </trkpt>
      <trkpt lat="44.08821" lon="6.51029">
        <ele>1119.41</ele>
        <time>2024-01-31T07:30:59Z</time>
      </trkpt>
      <trkpt lat="44.088" lon="6.51023">
        <ele>1120.31</ele>
        <time>2024-01-31T07:31:11Z</time>
      </trkpt>
      <trkpt lat="44.0876" lon="6.51044">
        <ele>1124.07</ele>
        <time>2024-01-31T07:31:36Z</time>
      </trkpt>
      <trkpt lat="44.08734" lon="6.51048">
        <ele>1126.63</ele>
        <time>2024-01-31T07:31:51Z</time>
      </trkpt>
      <trkpt lat="44.08718" lon="6.51064">
        <ele>1128.62</ele>
        <time>2024-01-31T07:32:03Z</time>
      </trkpt>
      <trkpt lat="44.0871" lon="6.51068">
        <ele>1129.46</ele>
        <time>2024-01-31T07:32:09Z</time>
      </trkpt>
      <trkpt lat="44.08666" lon="6.5112">
        <ele>1135.23</ele>
        <time>2024-01-31T07:32:47Z</time>
      </trkpt>
      <trkpt lat="44.0866" lon="6.5115">
        <ele>1136.63</ele>
        <time>2024-01-31T07:33:03Z</time>
      </trkpt>
      <trkpt lat="44.0865" lon="6.51176">
        <ele>1139.48</ele>
        <time>2024-01-31T07:33:19Z</time>
      </trkpt>
      <trkpt lat="44.08635" lon="6.51203">
        <ele>1142.2</ele>
        <time>2024-01-31T07:33:36Z</time>
      </trkpt>
      <trkpt lat="44.08627" lon="6.5121">
        <ele>1143.35</ele>
        <time>2024-01-31T07:33:43Z</time>
      </trkpt>
      <trkpt lat="44.08569" lon="6.51204">
        <ele>1147.89</ele>
        <time>2024-01-31T07:34:28Z</time>
      </trkpt>
      <trkpt lat="44.0856" lon="6.5121">
        <ele>1148.86</ele>
        <time>2024-01-31T07:34:36Z</time>
      </trkpt>
      <trkpt lat="44.08532" lon="6.51228">
        <ele>1150.88</ele>
        <time>2024-01-31T07:35:00Z</time>
      </trkpt>
      <trkpt lat="44.08516" lon="6.51228">
        <ele>1152.23</ele>
        <time>2024-01-31T07:35:13Z</time>
      </trkpt>
      <trkpt lat="44.08502" lon="6.5122">
        <ele>1153.16</ele>
        <time>2024-01-31T07:35:24Z</time>
      </trkpt>
      <trkpt lat="44.08488" lon="6.51223">
        <ele>1154.37</ele>
        <time>2024-01-31T07:35:35Z</time>
      </trkpt>
      <trkpt lat="44.0845" lon="6.51246">
        <ele>1159.88</ele>
        <time>2024-01-31T07:36:10Z</time>
      </trkpt>
      <trkpt lat="44.08436" lon="6.51254">
        <ele>1162.1</ele>
        <time>2024-01-31T07:36:21Z</time>
      </trkpt>
      <trkpt lat="44.08408" lon="6.5125">
        <ele>1166.6</ele>
        <time>2024-01-31T07:36:45Z</time>
      </trkpt>
      <trkpt lat="44.084" lon="6.51256">
        <ele>1168.2</ele>
        <time>2024-01-31T07:36:52Z</time>
      </trkpt>
      <trkpt lat="44.08385" lon="6.51284">
        <ele>1170.57</ele>
        <time>2024-01-31T07:37:14Z</time>
      </trkpt>
      <trkpt lat="44.08373" lon="6.51295">
        <ele>1172.24</ele>
        <time>2024-01-31T07:37:26Z</time>
      </trkpt>
      <trkpt lat="44.08302" lon="6.51314">
        <ele>1184.81</ele>
        <time>2024-01-31T07:38:25Z</time>
      </trkpt>
      <trkpt lat="44.08268" lon="6.5131">
        <ele>1189.98</ele>
        <time>2024-01-31T07:38:53Z</time>
      </trkpt>
      <trkpt lat="44.08235" lon="6.513">
        <ele>1193.84</ele>
        <time>2024-01-31T07:39:20Z</time>
      </trkpt>
      <trkpt lat="44.08178" lon="6.51269">
        <ele>1201.92</ele>
        <time>2024-01-31T07:40:09Z</time>
      </trkpt>
      <trkpt lat="44.08161" lon="6.51264">
        <ele>1203.66</ele>
        <time>2024-01-31T07:40:23Z</time>
      </trkpt>
      <trkpt lat="44.08142" lon="6.51268">
        <ele>1205.42</ele>
        <time>2024-01-31T07:40:37Z</time>
      </trkpt>
      <trkpt lat="44.08123" lon="6.51286">
        <ele>1207.37</ele>
        <time>2024-01-31T07:40:54Z</time>
      </trkpt>
      <trkpt lat="44.08115" lon="6.5129">
        <ele>1207.74</ele>
        <time>2024-01-31T07:41:01Z</time>
      </trkpt>
      <trkpt lat="44.08105" lon="6.51268">
        <ele>1210.59</ele>
        <time>2024-01-31T07:41:15Z</time>
      </trkpt>
      <trkpt lat="44.0809" lon="6.5125">
        <ele>1214.5</ele>
        <time>2024-01-31T07:41:30Z</time>
      </trkpt>
      <trkpt lat="44.08071" lon="6.51247">
        <ele>1217.39</ele>
        <time>2024-01-31T07:41:44Z</time>
      </trkpt>
      <trkpt lat="44.0806" lon="6.51241">
        <ele>1219.55</ele>
        <time>2024-01-31T07:41:53Z</time>
      </trkpt>
      <trkpt lat="44.08058" lon="6.51228">
        <ele>1221.22</ele>
        <time>2024-01-31T07:42:00Z</time>
      </trkpt>
      <trkpt lat="44.08081" lon="6.51205">
        <ele>1219.24</ele>
        <time>2024-01-31T07:42:20Z</time>
      </trkpt>
      <trkpt lat="44.08084" lon="6.5118">
        <ele>1220.21</ele>
        <time>2024-01-31T07:42:32Z</time>
      </trkpt>
      <trkpt lat="44.08082" lon="6.51169">
        <ele>1221.49</ele>
        <time>2024-01-31T07:42:37Z</time>
      </trkpt>
      <trkpt lat="44.08069" lon="6.51108">
        <ele>1226.73</ele>
        <time>2024-01-31T07:43:08Z</time>
      </trkpt>
      <trkpt lat="44.08068" lon="6.51086">
        <ele>1228.14</ele>
        <time>2024-01-31T07:43:16Z</time>
      </trkpt>
      <trkpt lat="44.08071" lon="6.51069">
        <ele>1229.14</ele>
        <time>2024-01-31T07:43:23Z</time>
      </trkpt>
      <trkpt lat="44.08078" lon="6.51055">
        <ele>1228.95</ele>
        <time>2024-01-31T07:43:30Z</time>
      </trkpt>
      <trkpt lat="44.08101" lon="6.51023">
        <ele>1227.85</ele>
        <time>2024-01-31T07:43:49Z</time>
      </trkpt>
      <trkpt lat="44.08103" lon="6.51016">
        <ele>1227.84</ele>
        <time>2024-01-31T07:43:52Z</time>
      </trkpt>
      <trkpt lat="44.08104" lon="6.51012">
        <ele>1228.2</ele>
        <time>2024-01-31T07:43:54Z</time>
      </trkpt>
      <trkpt lat="44.081" lon="6.50992">
        <ele>1230.35</ele>
        <time>2024-01-31T07:44:03Z</time>
      </trkpt>
      <trkpt lat="44.08079" lon="6.50957">
        <ele>1237.26</ele>
        <time>2024-01-31T07:44:25Z</time>
      </trkpt>
      <trkpt lat="44.08078" lon="6.50947">
        <ele>1237.85</ele>
        <time>2024-01-31T07:44:30Z</time>
      </trkpt>
      <trkpt lat="44.08097" lon="6.50906">
        <ele>1234.1</ele>
        <time>2024-01-31T07:44:52Z</time>
      </trkpt>
      <trkpt lat="44.08096" lon="6.50898">
        <ele>1235.06</ele>
        <time>2024-01-31T07:44:55Z</time>
      </trkpt>
      <trkpt lat="44.08087" lon="6.50888">
        <ele>1235.98</ele>
        <time>2024-01-31T07:45:02Z</time>
      </trkpt>
      <trkpt lat="44.08073" lon="6.50885">
        <ele>1237.8</ele>
        <time>2024-01-31T07:45:11Z</time>
      </trkpt>
      <trkpt lat="44.08068" lon="6.50888">
        <ele>1238.44</ele>
        <time>2024-01-31T07:45:14Z</time>
      </trkpt>
      <trkpt lat="44.08051" lon="6.50901">
        <ele>1242.98</ele>
        <time>2024-01-31T07:45:25Z</time>
      </trkpt>
      <trkpt lat="44.07985" lon="6.50875">
        <ele>1253.97</ele>
        <time>2024-01-31T07:46:08Z</time>
      </trkpt>
      <trkpt lat="44.07956" lon="6.50849">
        <ele>1254.62</ele>
        <time>2024-01-31T07:46:32Z</time>
      </trkpt>
      <trkpt lat="44.07939" lon="6.50851">
        <ele>1260.28</ele>
        <time>2024-01-31T07:46:46Z</time>
      </trkpt>
      <trkpt lat="44.07925" lon="6.50847">
        <ele>1261.69</ele>
        <time>2024-01-31T07:46:57Z</time>
      </trkpt>
      <trkpt lat="44.07899" lon="6.50832">
        <ele>1259.05</ele>
        <time>2024-01-31T07:47:19Z</time>
      </trkpt>
      <trkpt lat="44.07878" lon="6.50842">
        <ele>1262.73</ele>
        <time>2024-01-31T07:47:36Z</time>
      </trkpt>
      <trkpt lat="44.07863" lon="6.50855">
        <ele>1264.83</ele>
        <time>2024-01-31T07:47:51Z</time>
      </trkpt>
      <trkpt lat="44.07855" lon="6.50878">
        <ele>1267.97</ele>
        <time>2024-01-31T07:48:05Z</time>
      </trkpt>
      <trkpt lat="44.0785" lon="6.50933">
        <ele>1274.05</ele>
        <time>2024-01-31T07:48:35Z</time>
      </trkpt>
      <trkpt lat="44.07797" lon="6.51044">
        <ele>1291.33</ele>
        <time>2024-01-31T07:49:48Z</time>
      </trkpt>
      <trkpt lat="44.07789" lon="6.51052">
        <ele>1292.69</ele>
        <time>2024-01-31T07:49:56Z</time>
      </trkpt>
      <trkpt lat="44.0778" lon="6.51053">
        <ele>1292.06</ele>
        <time>2024-01-31T07:50:03Z</time>
      </trkpt>
      <trkpt lat="44.0776" lon="6.51039">
        <ele>1289.91</ele>
        <time>2024-01-31T07:50:20Z</time>
      </trkpt>
      <trkpt lat="44.07747" lon="6.51002">
        <ele>1288.15</ele>
        <time>2024-01-31T07:50:41Z</time>
      </trkpt>
      <trkpt lat="44.07722" lon="6.5095">
        <ele>1291.21</ele>
        <time>2024-01-31T07:51:11Z</time>
      </trkpt>
      <trkpt lat="44.07711" lon="6.50951">
        <ele>1292.5</ele>
        <time>2024-01-31T07:51:18Z</time>
      </trkpt>
      <trkpt lat="44.077" lon="6.50963">
        <ele>1294.24</ele>
        <time>2024-01-31T07:51:28Z</time>
      </trkpt>
      <trkpt lat="44.07691" lon="6.5098">
        <ele>1295.58</ele>
        <time>2024-01-31T07:51:37Z</time>
      </trkpt>
      <trkpt lat="44.07684" lon="6.50999">
        <ele>1296.73</ele>
        <time>2024-01-31T07:51:47Z</time>
      </trkpt>
      <trkpt lat="44.07684" lon="6.51042">
        <ele>1297.79</ele>
        <time>2024-01-31T07:52:06Z</time>
      </trkpt>
      <trkpt lat="44.07691" lon="6.51061">
        <ele>1298.24</ele>
        <time>2024-01-31T07:52:17Z</time>
      </trkpt>
      <trkpt lat="44.07711" lon="6.51084">
        <ele>1299.94</ele>
        <time>2024-01-31T07:52:35Z</time>
      </trkpt>
      <trkpt lat="44.07714" lon="6.51101">
        <ele>1303.02</ele>
        <time>2024-01-31T07:52:45Z</time>
      </trkpt>
      <trkpt lat="44.07695" lon="6.51173">
        <ele>1311.15</ele>
        <time>2024-01-31T07:53:29Z</time>
      </trkpt>
      <trkpt lat="44.07679" lon="6.51215">
        <ele>1314.39</ele>
        <time>2024-01-31T07:53:58Z</time>
      </trkpt>
      <trkpt lat="44.07656" lon="6.51231">
        <ele>1316.79</ele>
        <time>2024-01-31T07:54:21Z</time>
      </trkpt>
      <trkpt lat="44.0763" lon="6.51243">
        <ele>1321.78</ele>
        <time>2024-01-31T07:54:43Z</time>
      </trkpt>
      <trkpt lat="44.07615" lon="6.51242">
        <ele>1324.92</ele>
        <time>2024-01-31T07:54:56Z</time>
      </trkpt>
      <trkpt lat="44.076" lon="6.51235">
        <ele>1326.53</ele>
        <time>2024-01-31T07:55:08Z</time>
      </trkpt>
      <trkpt lat="44.07586" lon="6.51215">
        <ele>1330.04</ele>
        <time>2024-01-31T07:55:25Z</time>
      </trkpt>
      <trkpt lat="44.07577" lon="6.51177">
        <ele>1330.81</ele>
        <time>2024-01-31T07:55:48Z</time>
      </trkpt>
      <trkpt lat="44.07554" lon="6.51122">
        <ele>1336.92</ele>
        <time>2024-01-31T07:56:25Z</time>
      </trkpt>
      <trkpt lat="44.07554" lon="6.51081">
        <ele>1334.86</ele>
        <time>2024-01-31T07:56:48Z</time>
      </trkpt>
      <trkpt lat="44.07547" lon="6.51058">
        <ele>1337</ele>
        <time>2024-01-31T07:57:02Z</time>
      </trkpt>
      <trkpt lat="44.07535" lon="6.51035">
        <ele>1337.79</ele>
        <time>2024-01-31T07:57:19Z</time>
      </trkpt>
      <trkpt lat="44.07518" lon="6.51026">
        <ele>1342.33</ele>
        <time>2024-01-31T07:57:33Z</time>
      </trkpt>
      <trkpt lat="44.07486" lon="6.51021">
        <ele>1350.88</ele>
        <time>2024-01-31T07:57:59Z</time>
      </trkpt>
      <trkpt lat="44.07453" lon="6.50993">
        <ele>1351.91</ele>
        <time>2024-01-31T07:58:29Z</time>
      </trkpt>
      <trkpt lat="44.07412" lon="6.50988">
        <ele>1359.14</ele>
        <time>2024-01-31T07:59:02Z</time>
      </trkpt>
      <trkpt lat="44.07375" lon="6.5096">
        <ele>1362.93</ele>
        <time>2024-01-31T07:59:37Z</time>
      </trkpt>
      <trkpt lat="44.07362" lon="6.50928">
        <ele>1362.12</ele>
        <time>2024-01-31T08:00:00Z</time>
      </trkpt>
      <trkpt lat="44.0731" lon="6.50823">
        <ele>1374.78</ele>
        <time>2024-01-31T08:01:16Z</time>
      </trkpt>
      <trkpt lat="44.07295" lon="6.50766">
        <ele>1374.97</ele>
        <time>2024-01-31T08:01:48Z</time>
      </trkpt>
      <trkpt lat="44.0728" lon="6.50721">
        <ele>1380</ele>
        <time>2024-01-31T08:02:12Z</time>
      </trkpt>
      <trkpt lat="44.07259" lon="6.50678">
        <ele>1387.28</ele>
        <time>2024-01-31T08:02:38Z</time>
      </trkpt>
      <trkpt lat="44.0725" lon="6.50589">
        <ele>1387.64</ele>
        <time>2024-01-31T08:03:26Z</time>
      </trkpt>
      <trkpt lat="44.07246" lon="6.50561">
        <ele>1387.03</ele>
        <time>2024-01-31T08:03:42Z</time>
      </trkpt>
      <trkpt lat="44.07245" lon="6.50549">
        <ele>1385.58</ele>
        <time>2024-01-31T08:03:48Z</time>
      </trkpt>
      <trkpt lat="44.07229" lon="6.50521">
        <ele>1393.32</ele>
        <time>2024-01-31T08:04:08Z</time>
      </trkpt>
      <trkpt lat="44.07219" lon="6.5049">
        <ele>1395.97</ele>
        <time>2024-01-31T08:04:28Z</time>
      </trkpt>
      <trkpt lat="44.07198" lon="6.50448">
        <ele>1405.28</ele>
        <time>2024-01-31T08:04:57Z</time>
      </trkpt>
      <trkpt lat="44.07198" lon="6.50406">
        <ele>1400.36</ele>
        <time>2024-01-31T08:05:22Z</time>
      </trkpt>
      <trkpt lat="44.0719" lon="6.50381">
        <ele>1401.74</ele>
        <time>2024-01-31T08:05:38Z</time>
      </trkpt>
      <trkpt lat="44.07175" lon="6.50362">
        <ele>1406.01</ele>
        <time>2024-01-31T08:05:56Z</time>
      </trkpt>
      <trkpt lat="44.07157" lon="6.50325">
        <ele>1414.4</ele>
        <time>2024-01-31T08:06:24Z</time>
      </trkpt>
      <trkpt lat="44.07154" lon="6.50308">
        <ele>1416.71</ele>
        <time>2024-01-31T08:06:34Z</time>
      </trkpt>
      <trkpt lat="44.07158" lon="6.50286">
        <ele>1413.09</ele>
        <time>2024-01-31T08:06:48Z</time>
      </trkpt>
      <trkpt lat="44.07157" lon="6.50266">
        <ele>1414.99</ele>
        <time>2024-01-31T08:07:00Z</time>
      </trkpt>
      <trkpt lat="44.07123" lon="6.50128">
        <ele>1423.71</ele>
        <time>2024-01-31T08:08:21Z</time>
      </trkpt>
      <trkpt lat="44.071" lon="6.49991">
        <ele>1445.89</ele>
        <time>2024-01-31T08:09:29Z</time>
      </trkpt>
      <trkpt lat="44.07101" lon="6.49954">
        <ele>1442.67</ele>
        <time>2024-01-31T08:09:46Z</time>
      </trkpt>
      <trkpt lat="44.07096" lon="6.4992">
        <ele>1449.27</ele>
        <time>2024-01-31T08:10:00Z</time>
      </trkpt>
      <trkpt lat="44.07095" lon="6.49887">
        <ele>1447.65</ele>
        <time>2024-01-31T08:10:14Z</time>
      </trkpt>
      <trkpt lat="44.07078" lon="6.49831">
        <ele>1455.97</ele>
        <time>2024-01-31T08:10:39Z</time>
      </trkpt>
      <trkpt lat="44.0706" lon="6.49802">
        <ele>1463.57</ele>
        <time>2024-01-31T08:10:54Z</time>
      </trkpt>
      <trkpt lat="44.07035" lon="6.49729">
        <ele>1458.8</ele>
        <time>2024-01-31T08:11:26Z</time>
      </trkpt>
      <trkpt lat="44.06963" lon="6.4969">
        <ele>1476.43</ele>
        <time>2024-01-31T08:12:10Z</time>
      </trkpt>
      <trkpt lat="44.06958" lon="6.49681">
        <ele>1475.56</ele>
        <time>2024-01-31T08:12:14Z</time>
      </trkpt>
      <trkpt lat="44.06947" lon="6.49648">
        <ele>1467.8</ele>
        <time>2024-01-31T08:12:27Z</time>
      </trkpt>
      <trkpt lat="44.06941" lon="6.49642">
        <ele>1470.41</ele>
        <time>2024-01-31T08:12:30Z</time>
      </trkpt>
      <trkpt lat="44.0691" lon="6.49641">
        <ele>1482.83</ele>
        <time>2024-01-31T08:12:44Z</time>
      </trkpt>
      <trkpt lat="44.06883" lon="6.4963">
        <ele>1486.68</ele>
        <time>2024-01-31T08:12:57Z</time>
      </trkpt>
      <trkpt lat="44.0686" lon="6.49587">
        <ele>1483.58</ele>
        <time>2024-01-31T08:13:10Z</time>
      </trkpt>
      <trkpt lat="44.06817" lon="6.49557">
        <ele>1487.68</ele>
        <time>2024-01-31T08:13:27Z</time>
      </trkpt>
      <trkpt lat="44.06789" lon="6.49533">
        <ele>1488.8</ele>
        <time>2024-01-31T08:13:39Z</time>
      </trkpt>
      <trkpt lat="44.06771" lon="6.495">
        <ele>1487.3</ele>
        <time>2024-01-31T08:13:50Z</time>
      </trkpt>
      <trkpt lat="44.06752" lon="6.49477">
        <ele>1487.48</ele>
        <time>2024-01-31T08:13:57Z</time>
      </trkpt>
      <trkpt lat="44.06695" lon="6.4947">
        <ele>1492.68</ele>
        <time>2024-01-31T08:14:19Z</time>
      </trkpt>
      <trkpt lat="44.06664" lon="6.49478">
        <ele>1495.77</ele>
        <time>2024-01-31T08:14:32Z</time>
      </trkpt>
      <trkpt lat="44.0665" lon="6.49482">
        <ele>1497.42</ele>
        <time>2024-01-31T08:14:38Z</time>
      </trkpt>
      <trkpt lat="44.06611" lon="6.49468">
        <ele>1498.47</ele>
        <time>2024-01-31T08:14:55Z</time>
      </trkpt>
      <trkpt lat="44.06568" lon="6.49422">
        <ele>1499.62</ele>
        <time>2024-01-31T08:15:19Z</time>
      </trkpt>
      <trkpt lat="44.06545" lon="6.49414">
        <ele>1501.15</ele>
        <time>2024-01-31T08:15:28Z</time>
      </trkpt>
      <trkpt lat="44.0652" lon="6.49397">
        <ele>1501.84</ele>
        <time>2024-01-31T08:15:38Z</time>
      </trkpt>
      <trkpt lat="44.06509" lon="6.49399">
        <ele>1502.02</ele>
        <time>2024-01-31T08:15:40Z</time>
      </trkpt>
      <trkpt lat="44.06509" lon="6.4944">
        <ele>1502.64</ele>
        <time>2024-01-31T08:15:48Z</time>
      </trkpt>
      <trkpt lat="44.06509" lon="6.4947">
        <ele>1503.22</ele>
        <time>2024-01-31T08:15:54Z</time>
      </trkpt>
      <trkpt lat="44.06513" lon="6.49518">
        <ele>1503.83</ele>
        <time>2024-01-31T08:16:02Z</time>
      </trkpt>
      <trkpt lat="44.06503" lon="6.49538">
        <ele>1503.34</ele>
        <time>2024-01-31T08:16:06Z</time>
      </trkpt>
      <trkpt lat="44.06492" lon="6.49581">
        <ele>1503.14</ele>
        <time>2024-01-31T08:16:14Z</time>
      </trkpt>
      <trkpt lat="44.06445" lon="6.49594">
        <ele>1499.48</ele>
        <time>2024-01-31T08:16:25Z</time>
      </trkpt>
      <trkpt lat="44.06406" lon="6.49624">
        <ele>1496.78</ele>
        <time>2024-01-31T08:16:35Z</time>
      </trkpt>
      <trkpt lat="44.06384" lon="6.49648">
        <ele>1493.39</ele>
        <time>2024-01-31T08:16:42Z</time>
      </trkpt>
      <trkpt lat="44.06374" lon="6.4967">
        <ele>1493.4</ele>
        <time>2024-01-31T08:16:47Z</time>
      </trkpt>
      <trkpt lat="44.06364" lon="6.49691">
        <ele>1494.15</ele>
        <time>2024-01-31T08:16:51Z</time>
      </trkpt>
      <trkpt lat="44.06334" lon="6.49721">
        <ele>1494.17</ele>
        <time>2024-01-31T08:17:00Z</time>
      </trkpt>
      <trkpt lat="44.06306" lon="6.49804">
        <ele>1496.31</ele>
        <time>2024-01-31T08:17:19Z</time>
      </trkpt>
      <trkpt lat="44.06298" lon="6.4985">
        <ele>1495.87</ele>
        <time>2024-01-31T08:17:28Z</time>
      </trkpt>
      <trkpt lat="44.06295" lon="6.49898">
        <ele>1495.94</ele>
        <time>2024-01-31T08:17:38Z</time>
      </trkpt>
      <trkpt lat="44.06301" lon="6.49937">
        <ele>1497.99</ele>
        <time>2024-01-31T08:17:45Z</time>
      </trkpt>
      <trkpt lat="44.06294" lon="6.49958">
        <ele>1500.16</ele>
        <time>2024-01-31T08:17:49Z</time>
      </trkpt>
      <trkpt lat="44.06275" lon="6.49985">
        <ele>1498.89</ele>
        <time>2024-01-31T08:17:56Z</time>
      </trkpt>
      <trkpt lat="44.06256" lon="6.49995">
        <ele>1496.72</ele>
        <time>2024-01-31T08:18:01Z</time>
      </trkpt>
      <trkpt lat="44.06232" lon="6.49994">
        <ele>1493</ele>
        <time>2024-01-31T08:18:07Z</time>
      </trkpt>
      <trkpt lat="44.06205" lon="6.50006">
        <ele>1490.25</ele>
        <time>2024-01-31T08:18:14Z</time>
      </trkpt>
      <trkpt lat="44.06203" lon="6.50009">
        <ele>1489.86</ele>
        <time>2024-01-31T08:18:15Z</time>
      </trkpt>
      <trkpt lat="44.06148" lon="6.50105">
        <ele>1484.74</ele>
        <time>2024-01-31T08:18:36Z</time>
      </trkpt>
      <trkpt lat="44.06143" lon="6.50127">
        <ele>1484.94</ele>
        <time>2024-01-31T08:18:40Z</time>
      </trkpt>
      <trkpt lat="44.06086" lon="6.50213">
        <ele>1482.82</ele>
        <time>2024-01-31T08:19:01Z</time>
      </trkpt>
      <trkpt lat="44.0606" lon="6.50295">
        <ele>1484.28</ele>
        <time>2024-01-31T08:19:17Z</time>
      </trkpt>
      <trkpt lat="44.06052" lon="6.50313">
        <ele>1484.32</ele>
        <time>2024-01-31T08:19:20Z</time>
      </trkpt>
      <trkpt lat="44.06032" lon="6.50356">
        <ele>1484.17</ele>
        <time>2024-01-31T08:19:30Z</time>
      </trkpt>
      <trkpt lat="44.05977" lon="6.50425">
        <ele>1481.02</ele>
        <time>2024-01-31T08:19:50Z</time>
      </trkpt>
      <trkpt lat="44.05956" lon="6.5047">
        <ele>1480.71</ele>
        <time>2024-01-31T08:19:59Z</time>
      </trkpt>
      <trkpt lat="44.05948" lon="6.50513">
        <ele>1482.8</ele>
        <time>2024-01-31T08:20:07Z</time>
      </trkpt>
      <trkpt lat="44.05896" lon="6.50578">
        <ele>1483.34</ele>
        <time>2024-01-31T08:20:24Z</time>
      </trkpt>
      <trkpt lat="44.05862" lon="6.50683">
        <ele>1478.49</ele>
        <time>2024-01-31T08:20:43Z</time>
      </trkpt>
      <trkpt lat="44.05832" lon="6.50797">
        <ele>1471.24</ele>
        <time>2024-01-31T08:21:01Z</time>
      </trkpt>
      <trkpt lat="44.05801" lon="6.50891">
        <ele>1461.54</ele>
        <time>2024-01-31T08:21:16Z</time>
      </trkpt>
      <trkpt lat="44.05805" lon="6.50907">
        <ele>1458.88</ele>
        <time>2024-01-31T08:21:19Z</time>
      </trkpt>
      <trkpt lat="44.05813" lon="6.5092">
        <ele>1458.93</ele>
        <time>2024-01-31T08:21:22Z</time>
      </trkpt>
      <trkpt lat="44.05868" lon="6.50978">
        <ele>1449.3</ele>
        <time>2024-01-31T08:21:38Z</time>
      </trkpt>
      <trkpt lat="44.05916" lon="6.51007">
        <ele>1443.23</ele>
        <time>2024-01-31T08:21:53Z</time>
      </trkpt>
      <trkpt lat="44.05977" lon="6.51062">
        <ele>1435.59</ele>
        <time>2024-01-31T08:22:23Z</time>
      </trkpt>
      <trkpt lat="44.05991" lon="6.51081">
        <ele>1433.88</ele>
        <time>2024-01-31T08:22:32Z</time>
      </trkpt>
      <trkpt lat="44.06004" lon="6.5109">
        <ele>1435.3</ele>
        <time>2024-01-31T08:22:38Z</time>
      </trkpt>
      <trkpt lat="44.06021" lon="6.51111">
        <ele>1435.99</ele>
        <time>2024-01-31T08:22:47Z</time>
      </trkpt>
      <trkpt lat="44.0604" lon="6.51145">
        <ele>1435.14</ele>
        <time>2024-01-31T08:22:59Z</time>
      </trkpt>
      <trkpt lat="44.06056" lon="6.51179">
        <ele>1436.74</ele>
        <time>2024-01-31T08:23:10Z</time>
      </trkpt>
      <trkpt lat="44.06059" lon="6.5119">
        <ele>1437.36</ele>
        <time>2024-01-31T08:23:13Z</time>
      </trkpt>
      <trkpt lat="44.06056" lon="6.51198">
        <ele>1437.45</ele>
        <time>2024-01-31T08:23:15Z</time>
      </trkpt>
      <trkpt lat="44.0605" lon="6.512">
        <ele>1437.82</ele>
        <time>2024-01-31T08:23:17Z</time>
      </trkpt>
      <trkpt lat="44.06024" lon="6.51181">
        <ele>1437.23</ele>
        <time>2024-01-31T08:23:28Z</time>
      </trkpt>
      <trkpt lat="44.05993" lon="6.51163">
        <ele>1440.33</ele>
        <time>2024-01-31T08:23:41Z</time>
      </trkpt>
      <trkpt lat="44.05976" lon="6.51159">
        <ele>1442.99</ele>
        <time>2024-01-31T08:23:48Z</time>
      </trkpt>
      <trkpt lat="44.05915" lon="6.51164">
        <ele>1447.24</ele>
        <time>2024-01-31T08:24:14Z</time>
      </trkpt>
      <trkpt lat="44.0589" lon="6.51178">
        <ele>1446.54</ele>
        <time>2024-01-31T08:24:27Z</time>
      </trkpt>
      <trkpt lat="44.05874" lon="6.51193">
        <ele>1448.49</ele>
        <time>2024-01-31T08:24:36Z</time>
      </trkpt>
      <trkpt lat="44.05866" lon="6.51212">
        <ele>1450.43</ele>
        <time>2024-01-31T08:24:44Z</time>
      </trkpt>
      <trkpt lat="44.05848" lon="6.51319">
        <ele>1463.96</ele>
        <time>2024-01-31T08:25:29Z</time>
      </trkpt>
      <trkpt lat="44.05822" lon="6.51433">
        <ele>1471.75</ele>
        <time>2024-01-31T08:26:24Z</time>
      </trkpt>
      <trkpt lat="44.05813" lon="6.51453">
        <ele>1475.29</ele>
        <time>2024-01-31T08:26:35Z</time>
      </trkpt>
      <trkpt lat="44.05806" lon="6.51457">
        <ele>1475.92</ele>
        <time>2024-01-31T08:26:40Z</time>
      </trkpt>
      <trkpt lat="44.0579" lon="6.51456">
        <ele>1475.44</ele>
        <time>2024-01-31T08:26:50Z</time>
      </trkpt>
      <trkpt lat="44.05767" lon="6.51445">
        <ele>1475.06</ele>
        <time>2024-01-31T08:27:03Z</time>
      </trkpt>
      <trkpt lat="44.05757" lon="6.51433">
        <ele>1476.08</ele>
        <time>2024-01-31T08:27:10Z</time>
      </trkpt>
      <trkpt lat="44.05735" lon="6.51422">
        <ele>1477.96</ele>
        <time>2024-01-31T08:27:22Z</time>
      </trkpt>
      <trkpt lat="44.05702" lon="6.51394">
        <ele>1480.77</ele>
        <time>2024-01-31T08:27:40Z</time>
      </trkpt>
      <trkpt lat="44.05691" lon="6.51378">
        <ele>1481.35</ele>
        <time>2024-01-31T08:27:47Z</time>
      </trkpt>
      <trkpt lat="44.05649" lon="6.51315">
        <ele>1483.28</ele>
        <time>2024-01-31T08:28:11Z</time>
      </trkpt>
      <trkpt lat="44.05619" lon="6.51257">
        <ele>1484.69</ele>
        <time>2024-01-31T08:28:31Z</time>
      </trkpt>
      <trkpt lat="44.05544" lon="6.51212">
        <ele>1488.13</ele>
        <time>2024-01-31T08:28:58Z</time>
      </trkpt>
      <trkpt lat="44.05516" lon="6.51213">
        <ele>1489.8</ele>
        <time>2024-01-31T08:29:06Z</time>
      </trkpt>
      <trkpt lat="44.05463" lon="6.51189">
        <ele>1491.46</ele>
        <time>2024-01-31T08:29:23Z</time>
      </trkpt>
      <trkpt lat="44.05386" lon="6.51163">
        <ele>1493.8</ele>
        <time>2024-01-31T08:29:47Z</time>
      </trkpt>
      <trkpt lat="44.05292" lon="6.51143">
        <ele>1497.52</ele>
        <time>2024-01-31T08:30:15Z</time>
      </trkpt>
      <trkpt lat="44.05241" lon="6.5116">
        <ele>1497.71</ele>
        <time>2024-01-31T08:30:31Z</time>
      </trkpt>
      <trkpt lat="44.05169" lon="6.51175">
        <ele>1497.07</ele>
        <time>2024-01-31T08:30:53Z</time>
      </trkpt>
      <trkpt lat="44.05131" lon="6.51182">
        <ele>1496.81</ele>
        <time>2024-01-31T08:31:04Z</time>
      </trkpt>
      <trkpt lat="44.05119" lon="6.51184">
        <ele>1496.51</ele>
        <time>2024-01-31T08:31:08Z</time>
      </trkpt>
      <trkpt lat="44.05063" lon="6.51182">
        <ele>1495.28</ele>
        <time>2024-01-31T08:31:25Z</time>
      </trkpt>
      <trkpt lat="44.05029" lon="6.51196">
        <ele>1494.53</ele>
        <time>2024-01-31T08:31:37Z</time>
      </trkpt>
      <trkpt lat="44.04926" lon="6.51151">
        <ele>1490.16</ele>
        <time>2024-01-31T08:32:18Z</time>
      </trkpt>
      <trkpt lat="44.04814" lon="6.51174">
        <ele>1486.49</ele>
        <time>2024-01-31T08:33:14Z</time>
      </trkpt>
      <trkpt lat="44.04796" lon="6.51161">
        <ele>1487.4</ele>
        <time>2024-01-31T08:33:25Z</time>
      </trkpt>
      <trkpt lat="44.04771" lon="6.51165">
        <ele>1489.19</ele>
        <time>2024-01-31T08:33:38Z</time>
      </trkpt>
      <trkpt lat="44.04683" lon="6.5117">
        <ele>1501.1</ele>
        <time>2024-01-31T08:34:23Z</time>
      </trkpt>
      <trkpt lat="44.04644" lon="6.51187">
        <ele>1503.27</ele>
        <time>2024-01-31T08:34:41Z</time>
      </trkpt>
      <trkpt lat="44.04601" lon="6.5117">
        <ele>1504.43</ele>
        <time>2024-01-31T08:34:59Z</time>
      </trkpt>
      <trkpt lat="44.04576" lon="6.51166">
        <ele>1505.35</ele>
        <time>2024-01-31T08:35:07Z</time>
      </trkpt>
      <trkpt lat="44.04559" lon="6.51174">
        <ele>1505.57</ele>
        <time>2024-01-31T08:35:13Z</time>
      </trkpt>
      <trkpt lat="44.04528" lon="6.51204">
        <ele>1505.89</ele>
        <time>2024-01-31T08:35:25Z</time>
      </trkpt>
      <trkpt lat="44.04423" lon="6.51284">
        <ele>1506.9</ele>
        <time>2024-01-31T08:36:00Z</time>
      </trkpt>
      <trkpt lat="44.04411" lon="6.51304">
        <ele>1505.39</ele>
        <time>2024-01-31T08:36:06Z</time>
      </trkpt>
      <trkpt lat="44.04398" lon="6.5134">
        <ele>1501.21</ele>
        <time>2024-01-31T08:36:15Z</time>
      </trkpt>
      <trkpt lat="44.0438" lon="6.51369">
        <ele>1498.9</ele>
        <time>2024-01-31T08:36:25Z</time>
      </trkpt>
      <trkpt lat="44.04364" lon="6.51384">
        <ele>1498.23</ele>
        <time>2024-01-31T08:36:32Z</time>
      </trkpt>
      <trkpt lat="44.04339" lon="6.51396">
        <ele>1499.96</ele>
        <time>2024-01-31T08:36:42Z</time>
      </trkpt>
      <trkpt lat="44.04243" lon="6.51433">
        <ele>1507.69</ele>
        <time>2024-01-31T08:37:31Z</time>
      </trkpt>
      <trkpt lat="44.04142" lon="6.51436">
        <ele>1511.92</ele>
        <time>2024-01-31T08:38:34Z</time>
      </trkpt>
      <trkpt lat="44.04116" lon="6.51418">
        <ele>1513.52</ele>
        <time>2024-01-31T08:38:54Z</time>
      </trkpt>
      <trkpt lat="44.04089" lon="6.51385">
        <ele>1517.2</ele>
        <time>2024-01-31T08:39:21Z</time>
      </trkpt>
      <trkpt lat="44.04067" lon="6.51365">
        <ele>1521.12</ele>
        <time>2024-01-31T08:39:42Z</time>
      </trkpt>
      <trkpt lat="44.04029" lon="6.51379">
        <ele>1524.71</ele>
        <time>2024-01-31T08:40:12Z</time>
      </trkpt>
      <trkpt lat="44.04006" lon="6.51383">
        <ele>1526.89</ele>
        <time>2024-01-31T08:40:30Z</time>
      </trkpt>
      <trkpt lat="44.04001" lon="6.5138">
        <ele>1527.69</ele>
        <time>2024-01-31T08:40:33Z</time>
      </trkpt>
      <trkpt lat="44.03994" lon="6.51369">
        <ele>1529.56</ele>
        <time>2024-01-31T08:40:42Z</time>
      </trkpt>
      <trkpt lat="44.0399" lon="6.51356">
        <ele>1531.25</ele>
        <time>2024-01-31T08:40:50Z</time>
      </trkpt>
      <trkpt lat="44.03989" lon="6.51301">
        <ele>1535.94</ele>
        <time>2024-01-31T08:41:19Z</time>
      </trkpt>
      <trkpt lat="44.03963" lon="6.51212">
        <ele>1542.31</ele>
        <time>2024-01-31T08:42:05Z</time>
      </trkpt>
      <trkpt lat="44.03909" lon="6.51169">
        <ele>1549.83</ele>
        <time>2024-01-31T08:42:42Z</time>
      </trkpt>
      <trkpt lat="44.03886" lon="6.51176">
        <ele>1552.88</ele>
        <time>2024-01-31T08:42:53Z</time>
      </trkpt>
      <trkpt lat="44.0385" lon="6.51224">
        <ele>1558.02</ele>
        <time>2024-01-31T08:43:18Z</time>
      </trkpt>
      <trkpt lat="44.03827" lon="6.51256">
        <ele>1560.4</ele>
        <time>2024-01-31T08:43:33Z</time>
      </trkpt>
      <trkpt lat="44.03787" lon="6.51358">
        <ele>1567.12</ele>
        <time>2024-01-31T08:44:10Z</time>
      </trkpt>
      <trkpt lat="44.03779" lon="6.51408">
        <ele>1566.44</ele>
        <time>2024-01-31T08:44:26Z</time>
      </trkpt>
      <trkpt lat="44.03773" lon="6.51435">
        <ele>1566.28</ele>
        <time>2024-01-31T08:44:36Z</time>
      </trkpt>
      <trkpt lat="44.03757" lon="6.51475">
        <ele>1566.32</ele>
        <time>2024-01-31T08:44:52Z</time>
      </trkpt>
      <trkpt lat="44.03737" lon="6.51516">
        <ele>1566.38</ele>
        <time>2024-01-31T08:45:09Z</time>
      </trkpt>
      <trkpt lat="44.03717" lon="6.51529">
        <ele>1566.97</ele>
        <time>2024-01-31T08:45:19Z</time>
      </trkpt>
      <trkpt lat="44.037" lon="6.51536">
        <ele>1566.5</ele>
        <time>2024-01-31T08:45:28Z</time>
      </trkpt>
      <trkpt lat="44.03674" lon="6.51537">
        <ele>1566.72</ele>
        <time>2024-01-31T08:45:40Z</time>
      </trkpt>
      <trkpt lat="44.03658" lon="6.51528">
        <ele>1566.92</ele>
        <time>2024-01-31T08:45:48Z</time>
      </trkpt>
      <trkpt lat="44.03554" lon="6.51428">
        <ele>1568.31</ele>
        <time>2024-01-31T08:46:41Z</time>
      </trkpt>
      <trkpt lat="44.03542" lon="6.51398">
        <ele>1568.03</ele>
        <time>2024-01-31T08:46:49Z</time>
      </trkpt>
      <trkpt lat="44.03514" lon="6.51363">
        <ele>1568.39</ele>
        <time>2024-01-31T08:47:00Z</time>
      </trkpt>
      <trkpt lat="44.035" lon="6.51369">
        <ele>1568.46</ele>
        <time>2024-01-31T08:47:04Z</time>
      </trkpt>
      <trkpt lat="44.03454" lon="6.5136">
        <ele>1568.22</ele>
        <time>2024-01-31T08:47:16Z</time>
      </trkpt>
      <trkpt lat="44.0344" lon="6.51353">
        <ele>1568.96</ele>
        <time>2024-01-31T08:47:20Z</time>
      </trkpt>
      <trkpt lat="44.03433" lon="6.51326">
        <ele>1567.19</ele>
        <time>2024-01-31T08:47:25Z</time>
      </trkpt>
      <trkpt lat="44.03443" lon="6.51266">
        <ele>1564.17</ele>
        <time>2024-01-31T08:47:35Z</time>
      </trkpt>
      <trkpt lat="44.03441" lon="6.51209">
        <ele>1563.77</ele>
        <time>2024-01-31T08:47:44Z</time>
      </trkpt>
      <trkpt lat="44.0343" lon="6.5116">
        <ele>1564.03</ele>
        <time>2024-01-31T08:47:52Z</time>
      </trkpt>
      <trkpt lat="44.03411" lon="6.51127">
        <ele>1564</ele>
        <time>2024-01-31T08:47:59Z</time>
      </trkpt>
      <trkpt lat="44.03369" lon="6.51088">
        <ele>1564.51</ele>
        <time>2024-01-31T08:48:10Z</time>
      </trkpt>
      <trkpt lat="44.0333" lon="6.51096">
        <ele>1564.78</ele>
        <time>2024-01-31T08:48:19Z</time>
      </trkpt>
      <trkpt lat="44.03286" lon="6.51134">
        <ele>1561.99</ele>
        <time>2024-01-31T08:48:30Z</time>
      </trkpt>
      <trkpt lat="44.03273" lon="6.51166">
        <ele>1559.1</ele>
        <time>2024-01-31T08:48:36Z</time>
      </trkpt>
      <trkpt lat="44.03273" lon="6.51197">
        <ele>1563.57</ele>
        <time>2024-01-31T08:48:42Z</time>
      </trkpt>
      <trkpt lat="44.03222" lon="6.51231">
        <ele>1561.24</ele>
        <time>2024-01-31T08:48:57Z</time>
      </trkpt>
      <trkpt lat="44.03198" lon="6.51264">
        <ele>1565.5</ele>
        <time>2024-01-31T08:49:09Z</time>
      </trkpt>
      <trkpt lat="44.03163" lon="6.51301">
        <ele>1562.31</ele>
        <time>2024-01-31T08:49:28Z</time>
      </trkpt>
      <trkpt lat="44.03153" lon="6.51318">
        <ele>1559.61</ele>
        <time>2024-01-31T08:49:35Z</time>
      </trkpt>
      <trkpt lat="44.03141" lon="6.51473">
        <ele>1555.42</ele>
        <time>2024-01-31T08:50:13Z</time>
      </trkpt>
      <trkpt lat="44.0313" lon="6.5147">
        <ele>1552.41</ele>
        <time>2024-01-31T08:50:16Z</time>
      </trkpt>
      <trkpt lat="44.03108" lon="6.51445">
        <ele>1548.07</ele>
        <time>2024-01-31T08:50:23Z</time>
      </trkpt>
      <trkpt lat="44.03079" lon="6.51393">
        <ele>1540.63</ele>
        <time>2024-01-31T08:50:34Z</time>
      </trkpt>
      <trkpt lat="44.0302" lon="6.51314">
        <ele>1537.75</ele>
        <time>2024-01-31T08:50:51Z</time>
      </trkpt>
      <trkpt lat="44.03" lon="6.51276">
        <ele>1533.6</ele>
        <time>2024-01-31T08:50:57Z</time>
      </trkpt>
      <trkpt lat="44.02983" lon="6.51232">
        <ele>1528.71</ele>
        <time>2024-01-31T08:51:04Z</time>
      </trkpt>
      <trkpt lat="44.02973" lon="6.51214">
        <ele>1527.36</ele>
        <time>2024-01-31T08:51:08Z</time>
      </trkpt>
      <trkpt lat="44.02957" lon="6.51203">
        <ele>1527.13</ele>
        <time>2024-01-31T08:51:11Z</time>
      </trkpt>
      <trkpt lat="44.02938" lon="6.51202">
        <ele>1525.65</ele>
        <time>2024-01-31T08:51:15Z</time>
      </trkpt>
      <trkpt lat="44.0291" lon="6.5122">
        <ele>1520.31</ele>
        <time>2024-01-31T08:51:22Z</time>
      </trkpt>
      <trkpt lat="44.02895" lon="6.5127">
        <ele>1516.6</ele>
        <time>2024-01-31T08:51:31Z</time>
      </trkpt>
      <trkpt lat="44.02822" lon="6.51375">
        <ele>1511.03</ele>
        <time>2024-01-31T08:52:02Z</time>
      </trkpt>
      <trkpt lat="44.02743" lon="6.51363">
        <ele>1514.48</ele>
        <time>2024-01-31T08:52:42Z</time>
      </trkpt>
      <trkpt lat="44.02717" lon="6.51364">
        <ele>1516.46</ele>
        <time>2024-01-31T08:52:55Z</time>
      </trkpt>
      <trkpt lat="44.02609" lon="6.51376">
        <ele>1523.92</ele>
        <time>2024-01-31T08:53:45Z</time>
      </trkpt>
      <trkpt lat="44.02592" lon="6.5138">
        <ele>1525.28</ele>
        <time>2024-01-31T08:53:52Z</time>
      </trkpt>
      <trkpt lat="44.02541" lon="6.51399">
        <ele>1529.46</ele>
        <time>2024-01-31T08:54:14Z</time>
      </trkpt>
      <trkpt lat="44.02528" lon="6.51404">
        <ele>1531.4</ele>
        <time>2024-01-31T08:54:20Z</time>
      </trkpt>
      <trkpt lat="44.02454" lon="6.51438">
        <ele>1529.95</ele>
        <time>2024-01-31T08:54:56Z</time>
      </trkpt>
      <trkpt lat="44.02419" lon="6.5147">
        <ele>1537.32</ele>
        <time>2024-01-31T08:55:18Z</time>
      </trkpt>
      <trkpt lat="44.0236" lon="6.51512">
        <ele>1545.97</ele>
        <time>2024-01-31T08:55:57Z</time>
      </trkpt>
      <trkpt lat="44.02339" lon="6.5154">
        <ele>1549.9</ele>
        <time>2024-01-31T08:56:14Z</time>
      </trkpt>
      <trkpt lat="44.02291" lon="6.51592">
        <ele>1552.94</ele>
        <time>2024-01-31T08:56:49Z</time>
      </trkpt>
      <trkpt lat="44.02264" lon="6.51609">
        <ele>1549.22</ele>
        <time>2024-01-31T08:57:05Z</time>
      </trkpt>
      <trkpt lat="44.0224" lon="6.51618">
        <ele>1549.87</ele>
        <time>2024-01-31T08:57:17Z</time>
      </trkpt>
      <trkpt lat="44.02223" lon="6.51624">
        <ele>1549.57</ele>
        <time>2024-01-31T08:57:25Z</time>
      </trkpt>
      <trkpt lat="44.02209" lon="6.51624">
        <ele>1548.84</ele>
        <time>2024-01-31T08:57:31Z</time>
      </trkpt>
      <trkpt lat="44.02108" lon="6.51606">
        <ele>1550.21</ele>
        <time>2024-01-31T08:58:05Z</time>
      </trkpt>
      <trkpt lat="44.02098" lon="6.51607">
        <ele>1550.03</ele>
        <time>2024-01-31T08:58:08Z</time>
      </trkpt>
      <trkpt lat="44.02041" lon="6.51636">
        <ele>1548.26</ele>
        <time>2024-01-31T08:58:24Z</time>
      </trkpt>
      <trkpt lat="44.0202" lon="6.51649">
        <ele>1549.29</ele>
        <time>2024-01-31T08:58:31Z</time>
      </trkpt>
      <trkpt lat="44.02011" lon="6.5165">
        <ele>1548.91</ele>
        <time>2024-01-31T08:58:33Z</time>
      </trkpt>
      <trkpt lat="44.01984" lon="6.51649">
        <ele>1547.84</ele>
        <time>2024-01-31T08:58:41Z</time>
      </trkpt>
      <trkpt lat="44.01929" lon="6.5164">
        <ele>1544.51</ele>
        <time>2024-01-31T08:58:56Z</time>
      </trkpt>
      <trkpt lat="44.01883" lon="6.51628">
        <ele>1542.95</ele>
        <time>2024-01-31T08:59:10Z</time>
      </trkpt>
      <trkpt lat="44.01878" lon="6.51636">
        <ele>1545</ele>
        <time>2024-01-31T08:59:13Z</time>
      </trkpt>
      <trkpt lat="44.01872" lon="6.51638">
        <ele>1545.68</ele>
        <time>2024-01-31T08:59:15Z</time>
      </trkpt>
      <trkpt lat="44.01831" lon="6.51591">
        <ele>1543.61</ele>
        <time>2024-01-31T08:59:34Z</time>
      </trkpt>
      <trkpt lat="44.01801" lon="6.51583">
        <ele>1546.91</ele>
        <time>2024-01-31T08:59:45Z</time>
      </trkpt>
      <trkpt lat="44.01771" lon="6.5158">
        <ele>1549.94</ele>
        <time>2024-01-31T08:59:57Z</time>
      </trkpt>
      <trkpt lat="44.01741" lon="6.51601">
        <ele>1555.97</ele>
        <time>2024-01-31T09:00:11Z</time>
      </trkpt>
      <trkpt lat="44.01707" lon="6.51645">
        <ele>1562.75</ele>
        <time>2024-01-31T09:00:32Z</time>
      </trkpt>
      <trkpt lat="44.01695" lon="6.51656">
        <ele>1563.82</ele>
        <time>2024-01-31T09:00:39Z</time>
      </trkpt>
      <trkpt lat="44.01642" lon="6.51686">
        <ele>1567.29</ele>
        <time>2024-01-31T09:01:11Z</time>
      </trkpt>
      <trkpt lat="44.01628" lon="6.51695">
        <ele>1566.2</ele>
        <time>2024-01-31T09:01:20Z</time>
      </trkpt>
      <trkpt lat="44.01622" lon="6.51703">
        <ele>1566.72</ele>
        <time>2024-01-31T09:01:25Z</time>
      </trkpt>
      <trkpt lat="44.01617" lon="6.51712">
        <ele>1567.09</ele>
        <time>2024-01-31T09:01:30Z</time>
      </trkpt>
      <trkpt lat="44.01618" lon="6.51734">
        <ele>1570.97</ele>
        <time>2024-01-31T09:01:39Z</time>
      </trkpt>
      <trkpt lat="44.01627" lon="6.51784">
        <ele>1578.24</ele>
        <time>2024-01-31T09:02:01Z</time>
      </trkpt>
      <trkpt lat="44.01625" lon="6.51816">
        <ele>1581.77</ele>
        <time>2024-01-31T09:02:15Z</time>
      </trkpt>
      <trkpt lat="44.01611" lon="6.51856">
        <ele>1580.68</ele>
        <time>2024-01-31T09:02:36Z</time>
      </trkpt>
      <trkpt lat="44.01609" lon="6.51883">
        <ele>1582.95</ele>
        <time>2024-01-31T09:02:50Z</time>
      </trkpt>
      <trkpt lat="44.01598" lon="6.51917">
        <ele>1582.36</ele>
        <time>2024-01-31T09:03:10Z</time>
      </trkpt>
      <trkpt lat="44.01596" lon="6.51942">
        <ele>1584.92</ele>
        <time>2024-01-31T09:03:23Z</time>
      </trkpt>
      <trkpt lat="44.01599" lon="6.51967">
        <ele>1586.08</ele>
        <time>2024-01-31T09:03:37Z</time>
      </trkpt>
      <trkpt lat="44.01613" lon="6.52017">
        <ele>1591.27</ele>
        <time>2024-01-31T09:04:08Z</time>
      </trkpt>
      <trkpt lat="44.01615" lon="6.5204">
        <ele>1591.46</ele>
        <time>2024-01-31T09:04:21Z</time>
      </trkpt>
      <trkpt lat="44.0161" lon="6.52081">
        <ele>1592.68</ele>
        <time>2024-01-31T09:04:45Z</time>
      </trkpt>
      <trkpt lat="44.01599" lon="6.52109">
        <ele>1592.48</ele>
        <time>2024-01-31T09:05:03Z</time>
      </trkpt>
      <trkpt lat="44.01594" lon="6.52149">
        <ele>1595.45</ele>
        <time>2024-01-31T09:05:28Z</time>
      </trkpt>
      <trkpt lat="44.01585" lon="6.52187">
        <ele>1595.94</ele>
        <time>2024-01-31T09:05:51Z</time>
      </trkpt>
      <trkpt lat="44.01589" lon="6.52232">
        <ele>1603.35</ele>
        <time>2024-01-31T09:06:20Z</time>
      </trkpt>
      <trkpt lat="44.01586" lon="6.52242">
        <ele>1604.6</ele>
        <time>2024-01-31T09:06:27Z</time>
      </trkpt>
      <trkpt lat="44.01555" lon="6.52234">
        <ele>1603.32</ele>
        <time>2024-01-31T09:06:56Z</time>
      </trkpt>
      <trkpt lat="44.01537" lon="6.52239">
        <ele>1608.14</ele>
        <time>2024-01-31T09:07:12Z</time>
      </trkpt>
      <trkpt lat="44.0149" lon="6.52272">
        <ele>1614.02</ele>
        <time>2024-01-31T09:08:01Z</time>
      </trkpt>
      <trkpt lat="44.0148" lon="6.52286">
        <ele>1613.46</ele>
        <time>2024-01-31T09:08:14Z</time>
      </trkpt>
      <trkpt lat="44.01463" lon="6.52318">
        <ele>1614.51</ele>
        <time>2024-01-31T09:08:38Z</time>
      </trkpt>
      <trkpt lat="44.01455" lon="6.52357">
        <ele>1622.42</ele>
        <time>2024-01-31T09:09:02Z</time>
      </trkpt>
      <trkpt lat="44.01448" lon="6.52363">
        <ele>1622.81</ele>
        <time>2024-01-31T09:09:08Z</time>
      </trkpt>
      <trkpt lat="44.01439" lon="6.52361">
        <ele>1623.49</ele>
        <time>2024-01-31T09:09:15Z</time>
      </trkpt>
      <trkpt lat="44.01408" lon="6.52341">
        <ele>1625.77</ele>
        <time>2024-01-31T09:09:45Z</time>
      </trkpt>
      <trkpt lat="44.01369" lon="6.52324">
        <ele>1631.62</ele>
        <time>2024-01-31T09:10:21Z</time>
      </trkpt>
      <trkpt lat="44.01337" lon="6.52322">
        <ele>1636.87</ele>
        <time>2024-01-31T09:10:50Z</time>
      </trkpt>
      <trkpt lat="44.0131" lon="6.52326">
        <ele>1639.41</ele>
        <time>2024-01-31T09:11:13Z</time>
      </trkpt>
      <trkpt lat="44.01287" lon="6.52335">
        <ele>1642.19</ele>
        <time>2024-01-31T09:11:32Z</time>
      </trkpt>
      <trkpt lat="44.01207" lon="6.52395">
        <ele>1650.6</ele>
        <time>2024-01-31T09:12:41Z</time>
      </trkpt>
      <trkpt lat="44.01185" lon="6.52418">
        <ele>1658.61</ele>
        <time>2024-01-31T09:13:01Z</time>
      </trkpt>
      <trkpt lat="44.01174" lon="6.52417">
        <ele>1659.37</ele>
        <time>2024-01-31T09:13:09Z</time>
      </trkpt>
      <trkpt lat="44.01155" lon="6.52394">
        <ele>1654.45</ele>
        <time>2024-01-31T09:13:27Z</time>
      </trkpt>
      <trkpt lat="44.01136" lon="6.52377">
        <ele>1654.22</ele>
        <time>2024-01-31T09:13:43Z</time>
      </trkpt>
      <trkpt lat="44.01025" lon="6.52344">
        <ele>1664.53</ele>
        <time>2024-01-31T09:14:44Z</time>
      </trkpt>
      <trkpt lat="44.00969" lon="6.5232">
        <ele>1667.1</ele>
        <time>2024-01-31T09:15:08Z</time>
      </trkpt>
      <trkpt lat="44.00929" lon="6.52278">
        <ele>1664.92</ele>
        <time>2024-01-31T09:15:25Z</time>
      </trkpt>
      <trkpt lat="44.00777" lon="6.52213">
        <ele>1670.4</ele>
        <time>2024-01-31T09:16:04Z</time>
      </trkpt>
      <trkpt lat="44.00769" lon="6.52212">
        <ele>1670.58</ele>
        <time>2024-01-31T09:16:06Z</time>
      </trkpt>
      <trkpt lat="44.00623" lon="6.52193">
        <ele>1661.89</ele>
        <time>2024-01-31T09:16:38Z</time>
      </trkpt>
      <trkpt lat="44.00613" lon="6.52187">
        <ele>1661.52</ele>
        <time>2024-01-31T09:16:40Z</time>
      </trkpt>
      <trkpt lat="44.00615" lon="6.52172">
        <ele>1661.09</ele>
        <time>2024-01-31T09:16:42Z</time>
      </trkpt>
      <trkpt lat="44.00638" lon="6.52157">
        <ele>1659.55</ele>
        <time>2024-01-31T09:16:48Z</time>
      </trkpt>
      <trkpt lat="44.00666" lon="6.5213">
        <ele>1655.13</ele>
        <time>2024-01-31T09:16:56Z</time>
      </trkpt>
      <trkpt lat="44.00688" lon="6.52118">
        <ele>1652.95</ele>
        <time>2024-01-31T09:17:01Z</time>
      </trkpt>
      <trkpt lat="44.0073" lon="6.52086">
        <ele>1646.57</ele>
        <time>2024-01-31T09:17:12Z</time>
      </trkpt>
      <trkpt lat="44.00831" lon="6.52084">
        <ele>1636.02</ele>
        <time>2024-01-31T09:17:35Z</time>
      </trkpt>
      <trkpt lat="44.00946" lon="6.52092">
        <ele>1624.68</ele>
        <time>2024-01-31T09:18:01Z</time>
      </trkpt>
      <trkpt lat="44.00991" lon="6.52144">
        <ele>1623.05</ele>
        <time>2024-01-31T09:18:14Z</time>
      </trkpt>
      <trkpt lat="44.00995" lon="6.5213">
        <ele>1620.53</ele>
        <time>2024-01-31T09:18:16Z</time>
      </trkpt>
      <trkpt lat="44.00969" lon="6.5207">
        <ele>1615.43</ele>
        <time>2024-01-31T09:18:27Z</time>
      </trkpt>
      <trkpt lat="44.00937" lon="6.52024">
        <ele>1610.65</ele>
        <time>2024-01-31T09:18:37Z</time>
      </trkpt>
      <trkpt lat="44.00839" lon="6.51988">
        <ele>1608.63</ele>
        <time>2024-01-31T09:18:57Z</time>
      </trkpt>
      <trkpt lat="44.00799" lon="6.5195">
        <ele>1599.68</ele>
        <time>2024-01-31T09:19:06Z</time>
      </trkpt>
      <trkpt lat="44.00741" lon="6.5192">
        <ele>1596.19</ele>
        <time>2024-01-31T09:19:18Z</time>
      </trkpt>
      <trkpt lat="44.00705" lon="6.51875">
        <ele>1589.78</ele>
        <time>2024-01-31T09:19:27Z</time>
      </trkpt>
      <trkpt lat="44.00672" lon="6.51848">
        <ele>1586.88</ele>
        <time>2024-01-31T09:19:34Z</time>
      </trkpt>
      <trkpt lat="44.00654" lon="6.5184">
        <ele>1584.94</ele>
        <time>2024-01-31T09:19:38Z</time>
      </trkpt>
      <trkpt lat="44.00611" lon="6.51832">
        <ele>1579.76</ele>
        <time>2024-01-31T09:19:47Z</time>
      </trkpt>
      <trkpt lat="44.00601" lon="6.51838">
        <ele>1579.28</ele>
        <time>2024-01-31T09:19:49Z</time>
      </trkpt>
      <trkpt lat="44.00549" lon="6.51916">
        <ele>1571.56</ele>
        <time>2024-01-31T09:20:04Z</time>
      </trkpt>
      <trkpt lat="44.00542" lon="6.51938">
        <ele>1572.11</ele>
        <time>2024-01-31T09:20:08Z</time>
      </trkpt>
      <trkpt lat="44.00492" lon="6.51958">
        <ele>1571.08</ele>
        <time>2024-01-31T09:20:20Z</time>
      </trkpt>
      <trkpt lat="44.00407" lon="6.51972">
        <ele>1558.09</ele>
        <time>2024-01-31T09:20:42Z</time>
      </trkpt>
      <trkpt lat="44.00347" lon="6.52">
        <ele>1554.02</ele>
        <time>2024-01-31T09:20:57Z</time>
      </trkpt>
      <trkpt lat="44.00321" lon="6.52027">
        <ele>1553.9</ele>
        <time>2024-01-31T09:21:04Z</time>
      </trkpt>
      <trkpt lat="44.00242" lon="6.52028">
        <ele>1546.55</ele>
        <time>2024-01-31T09:21:21Z</time>
      </trkpt>
      <trkpt lat="44.00068" lon="6.52001">
        <ele>1527.5</ele>
        <time>2024-01-31T09:21:56Z</time>
      </trkpt>
      <trkpt lat="43.99997" lon="6.51979">
        <ele>1517.25</ele>
        <time>2024-01-31T09:22:10Z</time>
      </trkpt>
      <trkpt lat="43.99942" lon="6.51974">
        <ele>1512.14</ele>
        <time>2024-01-31T09:22:21Z</time>
      </trkpt>
      <trkpt lat="43.99912" lon="6.51981">
        <ele>1510.25</ele>
        <time>2024-01-31T09:22:28Z</time>
      </trkpt>
      <trkpt lat="43.99909" lon="6.51976">
        <ele>1508.96</ele>
        <time>2024-01-31T09:22:29Z</time>
      </trkpt>
      <trkpt lat="43.99909" lon="6.51969">
        <ele>1507.05</ele>
        <time>2024-01-31T09:22:30Z</time>
      </trkpt>
      <trkpt lat="43.99912" lon="6.51964">
        <ele>1506.16</ele>
        <time>2024-01-31T09:22:31Z</time>
      </trkpt>
      <trkpt lat="43.99954" lon="6.5196">
        <ele>1506.92</ele>
        <time>2024-01-31T09:22:39Z</time>
      </trkpt>
      <trkpt lat="43.99995" lon="6.51937">
        <ele>1502.22</ele>
        <time>2024-01-31T09:22:49Z</time>
      </trkpt>
      <trkpt lat="44.00068" lon="6.51895">
        <ele>1490.97</ele>
        <time>2024-01-31T09:23:07Z</time>
      </trkpt>
      <trkpt lat="44.00136" lon="6.51875">
        <ele>1484.11</ele>
        <time>2024-01-31T09:23:21Z</time>
      </trkpt>
      <trkpt lat="44.00193" lon="6.51868">
        <ele>1477.94</ele>
        <time>2024-01-31T09:23:33Z</time>
      </trkpt>
      <trkpt lat="44.0024" lon="6.51841">
        <ele>1469.63</ele>
        <time>2024-01-31T09:23:43Z</time>
      </trkpt>
      <trkpt lat="44.00281" lon="6.51836">
        <ele>1463.42</ele>
        <time>2024-01-31T09:23:51Z</time>
      </trkpt>
      <trkpt lat="44.00297" lon="6.51782">
        <ele>1458.44</ele>
        <time>2024-01-31T09:23:59Z</time>
      </trkpt>
      <trkpt lat="44.00322" lon="6.51747">
        <ele>1457.8</ele>
        <time>2024-01-31T09:24:07Z</time>
      </trkpt>
      <trkpt lat="44.0035" lon="6.51735">
        <ele>1455.59</ele>
        <time>2024-01-31T09:24:12Z</time>
      </trkpt>
      <trkpt lat="44.00426" lon="6.51738">
        <ele>1449.4</ele>
        <time>2024-01-31T09:24:27Z</time>
      </trkpt>
      <trkpt lat="44.00434" lon="6.51711">
        <ele>1446.4</ele>
        <time>2024-01-31T09:24:32Z</time>
      </trkpt>
      <trkpt lat="44.00434" lon="6.5168">
        <ele>1447.19</ele>
        <time>2024-01-31T09:24:37Z</time>
      </trkpt>
      <trkpt lat="44.00466" lon="6.51559">
        <ele>1448.44</ele>
        <time>2024-01-31T09:24:59Z</time>
      </trkpt>
      <trkpt lat="44.00492" lon="6.51504">
        <ele>1451.12</ele>
        <time>2024-01-31T09:25:13Z</time>
      </trkpt>
      <trkpt lat="44.00514" lon="6.51488">
        <ele>1451.98</ele>
        <time>2024-01-31T09:25:21Z</time>
      </trkpt>
      <trkpt lat="44.00601" lon="6.51503">
        <ele>1457.88</ele>
        <time>2024-01-31T09:26:12Z</time>
      </trkpt>
      <trkpt lat="44.00668" lon="6.51466">
        <ele>1455.73</ele>
        <time>2024-01-31T09:27:13Z</time>
      </trkpt>
      <trkpt lat="44.00684" lon="6.51467">
        <ele>1456.57</ele>
        <time>2024-01-31T09:27:25Z</time>
      </trkpt>
      <trkpt lat="44.00704" lon="6.51481">
        <ele>1457.24</ele>
        <time>2024-01-31T09:27:41Z</time>
      </trkpt>
      <trkpt lat="44.0075" lon="6.51597">
        <ele>1454.12</ele>
        <time>2024-01-31T09:28:20Z</time>
      </trkpt>
      <trkpt lat="44.00763" lon="6.51608">
        <ele>1456.11</ele>
        <time>2024-01-31T09:28:23Z</time>
      </trkpt>
      <trkpt lat="44.00862" lon="6.51576">
        <ele>1451.97</ele>
        <time>2024-01-31T09:28:44Z</time>
      </trkpt>
      <trkpt lat="44.00878" lon="6.51555">
        <ele>1447.81</ele>
        <time>2024-01-31T09:28:49Z</time>
      </trkpt>
      <trkpt lat="44.00897" lon="6.51487">
        <ele>1442.06</ele>
        <time>2024-01-31T09:28:59Z</time>
      </trkpt>
      <trkpt lat="44.00907" lon="6.51475">
        <ele>1440.64</ele>
        <time>2024-01-31T09:29:01Z</time>
      </trkpt>
      <trkpt lat="44.00963" lon="6.51435">
        <ele>1432.22</ele>
        <time>2024-01-31T09:29:14Z</time>
      </trkpt>
      <trkpt lat="44.00988" lon="6.51425">
        <ele>1427.78</ele>
        <time>2024-01-31T09:29:19Z</time>
      </trkpt>
      <trkpt lat="44.01037" lon="6.51432">
        <ele>1420.65</ele>
        <time>2024-01-31T09:29:31Z</time>
      </trkpt>
      <trkpt lat="44.01053" lon="6.51441">
        <ele>1417.09</ele>
        <time>2024-01-31T09:29:35Z</time>
      </trkpt>
      <trkpt lat="44.01067" lon="6.51454">
        <ele>1413.33</ele>
        <time>2024-01-31T09:29:39Z</time>
      </trkpt>
      <trkpt lat="44.01074" lon="6.51476">
        <ele>1414.89</ele>
        <time>2024-01-31T09:29:43Z</time>
      </trkpt>
      <trkpt lat="44.01081" lon="6.51488">
        <ele>1415.25</ele>
        <time>2024-01-31T09:29:46Z</time>
      </trkpt>
      <trkpt lat="44.0111" lon="6.51514">
        <ele>1414.93</ele>
        <time>2024-01-31T09:29:54Z</time>
      </trkpt>
      <trkpt lat="44.0112" lon="6.51516">
        <ele>1414.6</ele>
        <time>2024-01-31T09:29:57Z</time>
      </trkpt>
      <trkpt lat="44.0115" lon="6.5151">
        <ele>1405.51</ele>
        <time>2024-01-31T09:30:05Z</time>
      </trkpt>
      <trkpt lat="44.01169" lon="6.515">
        <ele>1399.84</ele>
        <time>2024-01-31T09:30:10Z</time>
      </trkpt>
      <trkpt lat="44.01177" lon="6.515">
        <ele>1398.78</ele>
        <time>2024-01-31T09:30:12Z</time>
      </trkpt>
      <trkpt lat="44.01209" lon="6.51515">
        <ele>1397.69</ele>
        <time>2024-01-31T09:30:19Z</time>
      </trkpt>
      <trkpt lat="44.01214" lon="6.51509">
        <ele>1394.52</ele>
        <time>2024-01-31T09:30:21Z</time>
      </trkpt>
      <trkpt lat="44.01214" lon="6.51502">
        <ele>1390.8</ele>
        <time>2024-01-31T09:30:22Z</time>
      </trkpt>
      <trkpt lat="44.01171" lon="6.5148">
        <ele>1390.68</ele>
        <time>2024-01-31T09:30:31Z</time>
      </trkpt>
      <trkpt lat="44.01142" lon="6.51471">
        <ele>1390.82</ele>
        <time>2024-01-31T09:30:37Z</time>
      </trkpt>
      <trkpt lat="44.01122" lon="6.51471">
        <ele>1395.14</ele>
        <time>2024-01-31T09:30:41Z</time>
      </trkpt>
      <trkpt lat="44.01109" lon="6.51457">
        <ele>1394.05</ele>
        <time>2024-01-31T09:30:44Z</time>
      </trkpt>
      <trkpt lat="44.01093" lon="6.51403">
        <ele>1381.61</ele>
        <time>2024-01-31T09:30:52Z</time>
      </trkpt>
      <trkpt lat="44.01068" lon="6.51369">
        <ele>1380.22</ele>
        <time>2024-01-31T09:30:59Z</time>
      </trkpt>
      <trkpt lat="44.01046" lon="6.51322">
        <ele>1372.42</ele>
        <time>2024-01-31T09:31:06Z</time>
      </trkpt>
      <trkpt lat="44.01029" lon="6.51299">
        <ele>1368.73</ele>
        <time>2024-01-31T09:31:11Z</time>
      </trkpt>
      <trkpt lat="44.01005" lon="6.51283">
        <ele>1366.38</ele>
        <time>2024-01-31T09:31:16Z</time>
      </trkpt>
      <trkpt lat="44.00981" lon="6.51279">
        <ele>1363</ele>
        <time>2024-01-31T09:31:21Z</time>
      </trkpt>
      <trkpt lat="44.00935" lon="6.51291">
        <ele>1357.38</ele>
        <time>2024-01-31T09:31:31Z</time>
      </trkpt>
      <trkpt lat="44.00914" lon="6.51305">
        <ele>1356.48</ele>
        <time>2024-01-31T09:31:36Z</time>
      </trkpt>
      <trkpt lat="44.0087" lon="6.513">
        <ele>1346.84</ele>
        <time>2024-01-31T09:31:45Z</time>
      </trkpt>
      <trkpt lat="44.00857" lon="6.51306">
        <ele>1347.96</ele>
        <time>2024-01-31T09:31:48Z</time>
      </trkpt>
      <trkpt lat="44.00838" lon="6.51325">
        <ele>1347.61</ele>
        <time>2024-01-31T09:31:53Z</time>
      </trkpt>
      <trkpt lat="44.00829" lon="6.51322">
        <ele>1346.54</ele>
        <time>2024-01-31T09:31:55Z</time>
      </trkpt>
      <trkpt lat="44.00825" lon="6.51315">
        <ele>1345.19</ele>
        <time>2024-01-31T09:31:57Z</time>
      </trkpt>
      <trkpt lat="44.00827" lon="6.51226">
        <ele>1339.6</ele>
        <time>2024-01-31T09:32:10Z</time>
      </trkpt>
      <trkpt lat="44.00825" lon="6.51179">
        <ele>1336.31</ele>
        <time>2024-01-31T09:32:17Z</time>
      </trkpt>
      <trkpt lat="44.0081" lon="6.5113">
        <ele>1336.22</ele>
        <time>2024-01-31T09:32:24Z</time>
      </trkpt>
      <trkpt lat="44.00787" lon="6.51109">
        <ele>1334.86</ele>
        <time>2024-01-31T09:32:30Z</time>
      </trkpt>
      <trkpt lat="44.00726" lon="6.51086">
        <ele>1327</ele>
        <time>2024-01-31T09:32:42Z</time>
      </trkpt>
      <trkpt lat="44.00699" lon="6.51085">
        <ele>1324.32</ele>
        <time>2024-01-31T09:32:48Z</time>
      </trkpt>
      <trkpt lat="44.00661" lon="6.51096">
        <ele>1321.32</ele>
        <time>2024-01-31T09:32:56Z</time>
      </trkpt>
      <trkpt lat="44.00609" lon="6.51102">
        <ele>1315.24</ele>
        <time>2024-01-31T09:33:06Z</time>
      </trkpt>
      <trkpt lat="44.00601" lon="6.51096">
        <ele>1315.69</ele>
        <time>2024-01-31T09:33:08Z</time>
      </trkpt>
      <trkpt lat="44.00598" lon="6.51069">
        <ele>1313.97</ele>
        <time>2024-01-31T09:33:12Z</time>
      </trkpt>
      <trkpt lat="44.00591" lon="6.51046">
        <ele>1312.63</ele>
        <time>2024-01-31T09:33:15Z</time>
      </trkpt>
      <trkpt lat="44.00582" lon="6.51036">
        <ele>1312.68</ele>
        <time>2024-01-31T09:33:17Z</time>
      </trkpt>
      <trkpt lat="44.00531" lon="6.51011">
        <ele>1307.94</ele>
        <time>2024-01-31T09:33:27Z</time>
      </trkpt>
      <trkpt lat="44.00436" lon="6.50996">
        <ele>1296.15</ele>
        <time>2024-01-31T09:33:46Z</time>
      </trkpt>
      <trkpt lat="44.00231" lon="6.51246">
        <ele>1268.33</ele>
        <time>2024-01-31T09:34:45Z</time>
      </trkpt>
      <trkpt lat="44.00186" lon="6.51379">
        <ele>1261.07</ele>
        <time>2024-01-31T09:35:15Z</time>
      </trkpt>
      <trkpt lat="44.00177" lon="6.51388">
        <ele>1265.73</ele>
        <time>2024-01-31T09:35:18Z</time>
      </trkpt>
      <trkpt lat="44.00168" lon="6.51387">
        <ele>1267.39</ele>
        <time>2024-01-31T09:35:21Z</time>
      </trkpt>
      <trkpt lat="44.00152" lon="6.51374">
        <ele>1267.19</ele>
        <time>2024-01-31T09:35:27Z</time>
      </trkpt>
      <trkpt lat="44.00132" lon="6.51348">
        <ele>1262.67</ele>
        <time>2024-01-31T09:35:36Z</time>
      </trkpt>
      <trkpt lat="44.00072" lon="6.51357">
        <ele>1259.1</ele>
        <time>2024-01-31T09:35:51Z</time>
      </trkpt>
      <trkpt lat="44.00064" lon="6.51373">
        <ele>1259.95</ele>
        <time>2024-01-31T09:35:54Z</time>
      </trkpt>
      <trkpt lat="44.00054" lon="6.51376">
        <ele>1258.79</ele>
        <time>2024-01-31T09:35:56Z</time>
      </trkpt>
      <trkpt lat="44.00042" lon="6.51374">
        <ele>1258.51</ele>
        <time>2024-01-31T09:35:59Z</time>
      </trkpt>
      <trkpt lat="43.99988" lon="6.51393">
        <ele>1255.77</ele>
        <time>2024-01-31T09:36:10Z</time>
      </trkpt>
      <trkpt lat="43.99972" lon="6.51386">
        <ele>1251.18</ele>
        <time>2024-01-31T09:36:14Z</time>
      </trkpt>
      <trkpt lat="43.99927" lon="6.5138">
        <ele>1246.81</ele>
        <time>2024-01-31T09:36:23Z</time>
      </trkpt>
      <trkpt lat="43.99903" lon="6.51386">
        <ele>1246.08</ele>
        <time>2024-01-31T09:36:28Z</time>
      </trkpt>
      <trkpt lat="43.99881" lon="6.51377">
        <ele>1241.65</ele>
        <time>2024-01-31T09:36:32Z</time>
      </trkpt>
      <trkpt lat="43.99835" lon="6.51371">
        <ele>1238.56</ele>
        <time>2024-01-31T09:36:41Z</time>
      </trkpt>
      <trkpt lat="43.99819" lon="6.51362">
        <ele>1235.64</ele>
        <time>2024-01-31T09:36:45Z</time>
      </trkpt>
      <trkpt lat="43.99798" lon="6.51338">
        <ele>1228.87</ele>
        <time>2024-01-31T09:36:50Z</time>
      </trkpt>
      <trkpt lat="43.99788" lon="6.51331">
        <ele>1227.83</ele>
        <time>2024-01-31T09:36:53Z</time>
      </trkpt>
      <trkpt lat="43.99751" lon="6.5132">
        <ele>1223.34</ele>
        <time>2024-01-31T09:37:00Z</time>
      </trkpt>
      <trkpt lat="43.99734" lon="6.51319">
        <ele>1221.97</ele>
        <time>2024-01-31T09:37:04Z</time>
      </trkpt>
      <trkpt lat="43.99697" lon="6.51328">
        <ele>1220.11</ele>
        <time>2024-01-31T09:37:11Z</time>
      </trkpt>
      <trkpt lat="43.99642" lon="6.51328">
        <ele>1213.81</ele>
        <time>2024-01-31T09:37:23Z</time>
      </trkpt>
      <trkpt lat="43.99566" lon="6.51343">
        <ele>1205.53</ele>
        <time>2024-01-31T09:37:40Z</time>
      </trkpt>
      <trkpt lat="43.99498" lon="6.5133">
        <ele>1197.19</ele>
        <time>2024-01-31T09:37:55Z</time>
      </trkpt>
      <trkpt lat="43.99411" lon="6.51271">
        <ele>1189.87</ele>
        <time>2024-01-31T09:38:17Z</time>
      </trkpt>
      <trkpt lat="43.99406" lon="6.51266">
        <ele>1189.86</ele>
        <time>2024-01-31T09:38:19Z</time>
      </trkpt>
      <trkpt lat="43.99405" lon="6.5126">
        <ele>1188.86</ele>
        <time>2024-01-31T09:38:20Z</time>
      </trkpt>
      <trkpt lat="43.99385" lon="6.51238">
        <ele>1187.8</ele>
        <time>2024-01-31T09:38:26Z</time>
      </trkpt>
      <trkpt lat="43.99294" lon="6.51222">
        <ele>1190.5</ele>
        <time>2024-01-31T09:38:47Z</time>
      </trkpt>
      <trkpt lat="43.99277" lon="6.51227">
        <ele>1191.92</ele>
        <time>2024-01-31T09:38:51Z</time>
      </trkpt>
      <trkpt lat="43.98917" lon="6.51212">
        <ele>1173.16</ele>
        <time>2024-01-31T09:40:15Z</time>
      </trkpt>
      <trkpt lat="43.98863" lon="6.51247">
        <ele>1176.64</ele>
        <time>2024-01-31T09:40:28Z</time>
      </trkpt>
      <trkpt lat="43.98789" lon="6.51246">
        <ele>1165.06</ele>
        <time>2024-01-31T09:40:44Z</time>
      </trkpt>
      <trkpt lat="43.9871" lon="6.51326">
        <ele>1159.44</ele>
        <time>2024-01-31T09:41:06Z</time>
      </trkpt>
      <trkpt lat="43.98694" lon="6.51359">
        <ele>1158.06</ele>
        <time>2024-01-31T09:41:12Z</time>
      </trkpt>
      <trkpt lat="43.98684" lon="6.51395">
        <ele>1161.16</ele>
        <time>2024-01-31T09:41:18Z</time>
      </trkpt>
      <trkpt lat="43.98658" lon="6.51432">
        <ele>1160.52</ele>
        <time>2024-01-31T09:41:26Z</time>
      </trkpt>
      <trkpt lat="43.986" lon="6.51476">
        <ele>1154.1</ele>
        <time>2024-01-31T09:41:39Z</time>
      </trkpt>
      <trkpt lat="43.98573" lon="6.51484">
        <ele>1153.43</ele>
        <time>2024-01-31T09:41:45Z</time>
      </trkpt>
      <trkpt lat="43.98501" lon="6.51474">
        <ele>1148.51</ele>
        <time>2024-01-31T09:41:59Z</time>
      </trkpt>
      <trkpt lat="43.98485" lon="6.51475">
        <ele>1147.26</ele>
        <time>2024-01-31T09:42:03Z</time>
      </trkpt>
      <trkpt lat="43.9847" lon="6.51486">
        <ele>1145.3</ele>
        <time>2024-01-31T09:42:06Z</time>
      </trkpt>
      <trkpt lat="43.98474" lon="6.51498">
        <ele>1145.84</ele>
        <time>2024-01-31T09:42:08Z</time>
      </trkpt>
      <trkpt lat="43.98544" lon="6.51593">
        <ele>1147.42</ele>
        <time>2024-01-31T09:42:29Z</time>
      </trkpt>
      <trkpt lat="43.98795" lon="6.51846">
        <ele>1140.44</ele>
        <time>2024-01-31T09:43:44Z</time>
      </trkpt>
      <trkpt lat="43.98842" lon="6.51963">
        <ele>1123.52</ele>
        <time>2024-01-31T09:44:06Z</time>
      </trkpt>
      <trkpt lat="43.98981" lon="6.52102">
        <ele>1116.39</ele>
        <time>2024-01-31T09:44:45Z</time>
      </trkpt>
      <trkpt lat="43.98961" lon="6.52189">
        <ele>1106.46</ele>
        <time>2024-01-31T09:44:59Z</time>
      </trkpt>
      <trkpt lat="43.98959" lon="6.52263">
        <ele>1101.65</ele>
        <time>2024-01-31T09:45:10Z</time>
      </trkpt>
      <trkpt lat="43.98949" lon="6.52285">
        <ele>1098.73</ele>
        <time>2024-01-31T09:45:14Z</time>
      </trkpt>
      <trkpt lat="43.98929" lon="6.52296">
        <ele>1093.33</ele>
        <time>2024-01-31T09:45:19Z</time>
      </trkpt>
      <trkpt lat="43.98891" lon="6.52305">
        <ele>1085.24</ele>
        <time>2024-01-31T09:45:27Z</time>
      </trkpt>
      <trkpt lat="43.98876" lon="6.52318">
        <ele>1084.24</ele>
        <time>2024-01-31T09:45:31Z</time>
      </trkpt>
      <trkpt lat="43.98868" lon="6.52335">
        <ele>1083.58</ele>
        <time>2024-01-31T09:45:34Z</time>
      </trkpt>
      <trkpt lat="43.98869" lon="6.52371">
        <ele>1083.53</ele>
        <time>2024-01-31T09:45:39Z</time>
      </trkpt>
      <trkpt lat="43.989" lon="6.52504">
        <ele>1078.35</ele>
        <time>2024-01-31T09:46:03Z</time>
      </trkpt>
      <trkpt lat="43.98916" lon="6.52511">
        <ele>1077.92</ele>
        <time>2024-01-31T09:46:07Z</time>
      </trkpt>
      <trkpt lat="43.98938" lon="6.52513">
        <ele>1079.31</ele>
        <time>2024-01-31T09:46:13Z</time>
      </trkpt>
      <trkpt lat="43.98964" lon="6.52523">
        <ele>1079.12</ele>
        <time>2024-01-31T09:46:20Z</time>
      </trkpt>
      <trkpt lat="43.98967" lon="6.52528">
        <ele>1078.4</ele>
        <time>2024-01-31T09:46:21Z</time>
      </trkpt>
      <trkpt lat="43.98967" lon="6.52534">
        <ele>1077.96</ele>
        <time>2024-01-31T09:46:22Z</time>
      </trkpt>
      <trkpt lat="43.98963" lon="6.52537">
        <ele>1077.09</ele>
        <time>2024-01-31T09:46:23Z</time>
      </trkpt>
      <trkpt lat="43.98946" lon="6.52528">
        <ele>1076.91</ele>
        <time>2024-01-31T09:46:28Z</time>
      </trkpt>
      <trkpt lat="43.98939" lon="6.52528">
        <ele>1076.69</ele>
        <time>2024-01-31T09:46:30Z</time>
      </trkpt>
      <trkpt lat="43.98926" lon="6.52533">
        <ele>1075.19</ele>
        <time>2024-01-31T09:46:33Z</time>
      </trkpt>
      <trkpt lat="43.98899" lon="6.52561">
        <ele>1069.19</ele>
        <time>2024-01-31T09:46:41Z</time>
      </trkpt>
      <trkpt lat="43.98858" lon="6.52569">
        <ele>1063.55</ele>
        <time>2024-01-31T09:46:51Z</time>
      </trkpt>
      <trkpt lat="43.98843" lon="6.52569">
        <ele>1060.73</ele>
        <time>2024-01-31T09:46:55Z</time>
      </trkpt>
      <trkpt lat="43.98815" lon="6.5256">
        <ele>1057.55</ele>
        <time>2024-01-31T09:47:02Z</time>
      </trkpt>
      <trkpt lat="43.9878" lon="6.52534">
        <ele>1054.59</ele>
        <time>2024-01-31T09:47:10Z</time>
      </trkpt>
      <trkpt lat="43.98745" lon="6.52496">
        <ele>1051.52</ele>
        <time>2024-01-31T09:47:20Z</time>
      </trkpt>
      <trkpt lat="43.98739" lon="6.52483">
        <ele>1049.65</ele>
        <time>2024-01-31T09:47:22Z</time>
      </trkpt>
      <trkpt lat="43.98724" lon="6.524">
        <ele>1044.23</ele>
        <time>2024-01-31T09:47:35Z</time>
      </trkpt>
      <trkpt lat="43.98718" lon="6.52386">
        <ele>1043.06</ele>
        <time>2024-01-31T09:47:37Z</time>
      </trkpt>
      <trkpt lat="43.98695" lon="6.52362">
        <ele>1039.47</ele>
        <time>2024-01-31T09:47:43Z</time>
      </trkpt>
      <trkpt lat="43.98657" lon="6.52346">
        <ele>1034.75</ele>
        <time>2024-01-31T09:47:50Z</time>
      </trkpt>
      <trkpt lat="43.98639" lon="6.52326">
        <ele>1031.01</ele>
        <time>2024-01-31T09:47:54Z</time>
      </trkpt>
      <trkpt lat="43.98624" lon="6.52304">
        <ele>1025.19</ele>
        <time>2024-01-31T09:47:59Z</time>
      </trkpt>
      <trkpt lat="43.98617" lon="6.52291">
        <ele>1022.31</ele>
        <time>2024-01-31T09:48:01Z</time>
      </trkpt>
      <trkpt lat="43.98614" lon="6.52253">
        <ele>1016.1</ele>
        <time>2024-01-31T09:48:06Z</time>
      </trkpt>
      <trkpt lat="43.98601" lon="6.52206">
        <ele>1012.61</ele>
        <time>2024-01-31T09:48:13Z</time>
      </trkpt>
      <trkpt lat="43.98482" lon="6.52194">
        <ele>990.98</ele>
        <time>2024-01-31T09:48:26Z</time>
      </trkpt>
      <trkpt lat="43.98428" lon="6.52195">
        <ele>982.92</ele>
        <time>2024-01-31T09:48:32Z</time>
      </trkpt>
      <trkpt lat="43.98406" lon="6.5219">
        <ele>980.75</ele>
        <time>2024-01-31T09:48:34Z</time>
      </trkpt>
      <trkpt lat="43.98385" lon="6.52197">
        <ele>978.53</ele>
        <time>2024-01-31T09:48:37Z</time>
      </trkpt>
      <trkpt lat="43.98323" lon="6.52225">
        <ele>970.21</ele>
        <time>2024-01-31T09:48:44Z</time>
      </trkpt>
      <trkpt lat="43.98307" lon="6.52233">
        <ele>967.95</ele>
        <time>2024-01-31T09:48:46Z</time>
      </trkpt>
      <trkpt lat="43.98276" lon="6.52246">
        <ele>964.39</ele>
        <time>2024-01-31T09:48:50Z</time>
      </trkpt>
      <trkpt lat="43.98268" lon="6.52251">
        <ele>963.46</ele>
        <time>2024-01-31T09:48:51Z</time>
      </trkpt>
      <trkpt lat="43.98265" lon="6.5226">
        <ele>963.09</ele>
        <time>2024-01-31T09:48:52Z</time>
      </trkpt>
      <trkpt lat="43.9826" lon="6.5228">
        <ele>963.14</ele>
        <time>2024-01-31T09:48:54Z</time>
      </trkpt>
      <trkpt lat="43.98251" lon="6.52294">
        <ele>962.89</ele>
        <time>2024-01-31T09:48:55Z</time>
      </trkpt>
      <trkpt lat="43.98233" lon="6.52285">
        <ele>960.38</ele>
        <time>2024-01-31T09:48:58Z</time>
      </trkpt>
      <trkpt lat="43.98223" lon="6.52283">
        <ele>959.18</ele>
        <time>2024-01-31T09:48:59Z</time>
      </trkpt>
      <trkpt lat="43.98212" lon="6.52269">
        <ele>957.63</ele>
        <time>2024-01-31T09:49:01Z</time>
      </trkpt>
      <trkpt lat="43.98201" lon="6.52253">
        <ele>956.99</ele>
        <time>2024-01-31T09:49:03Z</time>
      </trkpt>
      <trkpt lat="43.98189" lon="6.52238">
        <ele>956.11</ele>
        <time>2024-01-31T09:49:05Z</time>
      </trkpt>
      <trkpt lat="43.98182" lon="6.52228">
        <ele>955.75</ele>
        <time>2024-01-31T09:49:06Z</time>
      </trkpt>
      <trkpt lat="43.9817" lon="6.52221">
        <ele>955.28</ele>
        <time>2024-01-31T09:49:07Z</time>
      </trkpt>
      <trkpt lat="43.98123" lon="6.52204">
        <ele>951.89</ele>
        <time>2024-01-31T09:49:13Z</time>
      </trkpt>
      <trkpt lat="43.98075" lon="6.52159">
        <ele>947.56</ele>
        <time>2024-01-31T09:49:21Z</time>
      </trkpt>
      <trkpt lat="43.98059" lon="6.52136">
        <ele>945.82</ele>
        <time>2024-01-31T09:49:24Z</time>
      </trkpt>
      <trkpt lat="43.98036" lon="6.52098">
        <ele>943.59</ele>
        <time>2024-01-31T09:49:28Z</time>
      </trkpt>
      <trkpt lat="43.98015" lon="6.52057">
        <ele>941.8</ele>
        <time>2024-01-31T09:49:33Z</time>
      </trkpt>
      <trkpt lat="43.97995" lon="6.52035">
        <ele>939.84</ele>
        <time>2024-01-31T09:49:36Z</time>
      </trkpt>
      <trkpt lat="43.97932" lon="6.51959">
        <ele>933.26</ele>
        <time>2024-01-31T09:49:46Z</time>
      </trkpt>
      <trkpt lat="43.97928" lon="6.51953">
        <ele>932.86</ele>
        <time>2024-01-31T09:49:47Z</time>
      </trkpt>
      <trkpt lat="43.97839" lon="6.51867">
        <ele>924.43</ele>
        <time>2024-01-31T09:50:01Z</time>
      </trkpt>
      <trkpt lat="43.97793" lon="6.5187">
        <ele>919.8</ele>
        <time>2024-01-31T09:50:06Z</time>
      </trkpt>
      <trkpt lat="43.97673" lon="6.51777">
        <ele>913.08</ele>
        <time>2024-01-31T09:50:24Z</time>
      </trkpt>
      <trkpt lat="43.97625" lon="6.5174">
        <ele>911.13</ele>
        <time>2024-01-31T09:50:32Z</time>
      </trkpt>
      <trkpt lat="43.97619" lon="6.51735">
        <ele>910.92</ele>
        <time>2024-01-31T09:50:33Z</time>
      </trkpt>
      <trkpt lat="43.97536" lon="6.51672">
        <ele>908.09</ele>
        <time>2024-01-31T09:50:46Z</time>
      </trkpt>
      <trkpt lat="43.97507" lon="6.5165">
        <ele>906.78</ele>
        <time>2024-01-31T09:50:51Z</time>
      </trkpt>
      <trkpt lat="43.97341" lon="6.51515">
        <ele>903.72</ele>
        <time>2024-01-31T09:51:20Z</time>
      </trkpt>
      <trkpt lat="43.97267" lon="6.51448">
        <ele>902.38</ele>
        <time>2024-01-31T09:51:33Z</time>
      </trkpt>
      <trkpt lat="43.97182" lon="6.51382">
        <ele>899.52</ele>
        <time>2024-01-31T09:51:47Z</time>
      </trkpt>
      <trkpt lat="43.97152" lon="6.51351">
        <ele>896.76</ele>
        <time>2024-01-31T09:51:53Z</time>
      </trkpt>
      <trkpt lat="43.97134" lon="6.5133">
        <ele>895.42</ele>
        <time>2024-01-31T09:51:57Z</time>
      </trkpt>
      <trkpt lat="43.97119" lon="6.51307">
        <ele>894.78</ele>
        <time>2024-01-31T09:52:00Z</time>
      </trkpt>
      <trkpt lat="43.97117" lon="6.51303">
        <ele>894.68</ele>
        <time>2024-01-31T09:52:00Z</time>
      </trkpt>
      <trkpt lat="43.97085" lon="6.51246">
        <ele>894.11</ele>
        <time>2024-01-31T09:52:09Z</time>
      </trkpt>
      <trkpt lat="43.9707" lon="6.51279">
        <ele>893.98</ele>
        <time>2024-01-31T09:52:13Z</time>
      </trkpt>
      <trkpt lat="43.97041" lon="6.51315">
        <ele>893.94</ele>
        <time>2024-01-31T09:52:19Z</time>
      </trkpt>
      <trkpt lat="43.97013" lon="6.51334">
        <ele>893.84</ele>
        <time>2024-01-31T09:52:24Z</time>
      </trkpt>
      <trkpt lat="43.96967" lon="6.51355">
        <ele>893.52</ele>
        <time>2024-01-31T09:52:31Z</time>
      </trkpt>
      <trkpt lat="43.96953" lon="6.51355">
        <ele>893.39</ele>
        <time>2024-01-31T09:52:33Z</time>
      </trkpt>
      <trkpt lat="43.96929" lon="6.51338">
        <ele>893.05</ele>
        <time>2024-01-31T09:52:37Z</time>
      </trkpt>
      <trkpt lat="43.96893" lon="6.51319">
        <ele>892.62</ele>
        <time>2024-01-31T09:52:43Z</time>
      </trkpt>
      <trkpt lat="43.96867" lon="6.51314">
        <ele>892.3</ele>
        <time>2024-01-31T09:52:47Z</time>
      </trkpt>
      <trkpt lat="43.96815" lon="6.51325">
        <ele>891.65</ele>
        <time>2024-01-31T09:52:55Z</time>
      </trkpt>
      <trkpt lat="43.9678" lon="6.51338">
        <ele>891.12</ele>
        <time>2024-01-31T09:53:00Z</time>
      </trkpt>
      <trkpt lat="43.96758" lon="6.51325">
        <ele>890.79</ele>
        <time>2024-01-31T09:53:04Z</time>
      </trkpt>
      <trkpt lat="43.96732" lon="6.51292">
        <ele>890.4</ele>
        <time>2024-01-31T09:53:10Z</time>
      </trkpt>
      <trkpt lat="43.96704" lon="6.51272">
        <ele>889.99</ele>
        <time>2024-01-31T09:53:14Z</time>
      </trkpt>
      <trkpt lat="43.96681" lon="6.51224">
        <ele>889.05</ele>
        <time>2024-01-31T09:53:21Z</time>
      </trkpt>
      <trkpt lat="43.96669" lon="6.51185">
        <ele>888.23</ele>
        <time>2024-01-31T09:53:26Z</time>
      </trkpt>
      <trkpt lat="43.96642" lon="6.51152">
        <ele>887.3</ele>
        <time>2024-01-31T09:53:32Z</time>
      </trkpt>
      <trkpt lat="43.96632" lon="6.51145">
        <ele>887.22</ele>
        <time>2024-01-31T09:53:34Z</time>
      </trkpt>
      <trkpt lat="43.96609" lon="6.51176">
        <ele>887.36</ele>
        <time>2024-01-31T09:53:39Z</time>
      </trkpt>
      <trkpt lat="43.96522" lon="6.51327">
        <ele>887.53</ele>
        <time>2024-01-31T09:54:02Z</time>
      </trkpt>
      <trkpt lat="43.96505" lon="6.51344">
        <ele>887.28</ele>
        <time>2024-01-31T09:54:05Z</time>
      </trkpt>
      <trkpt lat="43.96484" lon="6.51358">
        <ele>887.09</ele>
        <time>2024-01-31T09:54:09Z</time>
      </trkpt>
      <trkpt lat="43.96468" lon="6.51364">
        <ele>886.94</ele>
        <time>2024-01-31T09:54:12Z</time>
      </trkpt>
      <trkpt lat="43.96359" lon="6.51366">
        <ele>885</ele>
        <time>2024-01-31T09:54:30Z</time>
      </trkpt>
      <trkpt lat="43.96343" lon="6.51365">
        <ele>885.16</ele>
        <time>2024-01-31T09:54:33Z</time>
      </trkpt>
      <trkpt lat="43.96263" lon="6.51343">
        <ele>884.21</ele>
        <time>2024-01-31T09:54:46Z</time>
      </trkpt>
      <trkpt lat="43.96244" lon="6.51341">
        <ele>883.75</ele>
        <time>2024-01-31T09:54:51Z</time>
      </trkpt>
      <trkpt lat="43.96227" lon="6.51341">
        <ele>883.38</ele>
        <time>2024-01-31T09:54:56Z</time>
      </trkpt>
      <trkpt lat="43.9618" lon="6.5135">
        <ele>882.74</ele>
        <time>2024-01-31T09:55:09Z</time>
      </trkpt>
      <trkpt lat="43.96161" lon="6.51354">
        <ele>882.45</ele>
        <time>2024-01-31T09:55:15Z</time>
      </trkpt>
      <trkpt lat="43.96144" lon="6.51363">
        <ele>882.22</ele>
        <time>2024-01-31T09:55:20Z</time>
      </trkpt>
      <trkpt lat="43.96148" lon="6.51365">
        <ele>882.3</ele>
        <time>2024-01-31T09:55:21Z</time>
      </trkpt>
      <trkpt lat="43.9615" lon="6.51371">
        <ele>882.4</ele>
        <time>2024-01-31T09:55:22Z</time>
      </trkpt>
      <trkpt lat="43.96163" lon="6.51434">
        <ele>885.52</ele>
        <time>2024-01-31T09:55:38Z</time>
      </trkpt>
      <trkpt lat="43.96162" lon="6.5144">
        <ele>886.33</ele>
        <time>2024-01-31T09:55:40Z</time>
      </trkpt>
      <trkpt lat="43.96158" lon="6.51446">
        <ele>887.22</ele>
        <time>2024-01-31T09:55:42Z</time>
      </trkpt>
      <trkpt lat="43.96144" lon="6.51457">
        <ele>889.58</ele>
        <time>2024-01-31T09:55:47Z</time>
      </trkpt>
      <trkpt lat="43.9608" lon="6.51498">
        <ele>894.58</ele>
        <time>2024-01-31T09:56:16Z</time>
      </trkpt>
      <trkpt lat="43.95966" lon="6.51587">
        <ele>898.49</ele>
        <time>2024-01-31T09:57:03Z</time>
      </trkpt>
      <trkpt lat="43.9594" lon="6.51595">
        <ele>897.68</ele>
        <time>2024-01-31T09:57:12Z</time>
      </trkpt>
      <trkpt lat="43.95899" lon="6.51581">
        <ele>899.11</ele>
        <time>2024-01-31T09:57:24Z</time>
      </trkpt>
      <trkpt lat="43.95888" lon="6.51587">
        <ele>899.69</ele>
        <time>2024-01-31T09:57:28Z</time>
      </trkpt>
      <trkpt lat="43.95866" lon="6.51614">
        <ele>904.75</ele>
        <time>2024-01-31T09:57:34Z</time>
      </trkpt>
      <trkpt lat="43.95852" lon="6.51617">
        <ele>904.84</ele>
        <time>2024-01-31T09:57:37Z</time>
      </trkpt>
      <trkpt lat="43.95814" lon="6.51605">
        <ele>904.26</ele>
        <time>2024-01-31T09:57:44Z</time>
      </trkpt>
      <trkpt lat="43.95785" lon="6.51608">
        <ele>904.32</ele>
        <time>2024-01-31T09:57:49Z</time>
      </trkpt>
      <trkpt lat="43.95749" lon="6.51604">
        <ele>904.3</ele>
        <time>2024-01-31T09:57:55Z</time>
      </trkpt>
      <trkpt lat="43.95643" lon="6.51609">
        <ele>903.3</ele>
        <time>2024-01-31T09:58:10Z</time>
      </trkpt>
      <trkpt lat="43.95628" lon="6.51613">
        <ele>903.31</ele>
        <time>2024-01-31T09:58:12Z</time>
      </trkpt>
      <trkpt lat="43.95621" lon="6.51624">
        <ele>903.59</ele>
        <time>2024-01-31T09:58:14Z</time>
      </trkpt>
      <trkpt lat="43.95615" lon="6.51637">
        <ele>903.56</ele>
        <time>2024-01-31T09:58:15Z</time>
      </trkpt>
      <trkpt lat="43.95612" lon="6.51658">
        <ele>902.97</ele>
        <time>2024-01-31T09:58:17Z</time>
      </trkpt>
      <trkpt lat="43.9562" lon="6.51701">
        <ele>901.02</ele>
        <time>2024-01-31T09:58:22Z</time>
      </trkpt>
      <trkpt lat="43.95616" lon="6.51714">
        <ele>900.21</ele>
        <time>2024-01-31T09:58:23Z</time>
      </trkpt>
      <trkpt lat="43.95609" lon="6.51723">
        <ele>899.44</ele>
        <time>2024-01-31T09:58:25Z</time>
      </trkpt>
      <trkpt lat="43.95593" lon="6.51725">
        <ele>897.93</ele>
        <time>2024-01-31T09:58:27Z</time>
      </trkpt>
      <trkpt lat="43.95577" lon="6.5171">
        <ele>896.54</ele>
        <time>2024-01-31T09:58:30Z</time>
      </trkpt>
      <trkpt lat="43.95556" lon="6.51712">
        <ele>893.21</ele>
        <time>2024-01-31T09:58:34Z</time>
      </trkpt>
      <trkpt lat="43.9554" lon="6.51725">
        <ele>891.05</ele>
        <time>2024-01-31T09:58:37Z</time>
      </trkpt>
      <trkpt lat="43.95496" lon="6.51787">
        <ele>887.76</ele>
        <time>2024-01-31T09:58:51Z</time>
      </trkpt>
      <trkpt lat="43.95492" lon="6.51811">
        <ele>888.16</ele>
        <time>2024-01-31T09:58:56Z</time>
      </trkpt>
      <trkpt lat="43.95488" lon="6.51828">
        <ele>888.95</ele>
        <time>2024-01-31T09:59:00Z</time>
      </trkpt>
      <trkpt lat="43.95485" lon="6.51854">
        <ele>889.42</ele>
        <time>2024-01-31T09:59:07Z</time>
      </trkpt>
      <trkpt lat="43.95475" lon="6.51887">
        <ele>890.24</ele>
        <time>2024-01-31T09:59:16Z</time>
      </trkpt>
      <trkpt lat="43.9546" lon="6.51914">
        <ele>890.96</ele>
        <time>2024-01-31T09:59:25Z</time>
      </trkpt>
      <trkpt lat="43.95433" lon="6.51947">
        <ele>892.57</ele>
        <time>2024-01-31T09:59:36Z</time>
      </trkpt>
      <trkpt lat="43.95412" lon="6.52041">
        <ele>895.87</ele>
        <time>2024-01-31T09:59:53Z</time>
      </trkpt>
      <trkpt lat="43.95392" lon="6.52094">
        <ele>898.82</ele>
        <time>2024-01-31T10:00:03Z</time>
      </trkpt>
      <trkpt lat="43.95373" lon="6.52158">
        <ele>899.72</ele>
        <time>2024-01-31T10:00:17Z</time>
      </trkpt>
      <trkpt lat="43.95366" lon="6.52173">
        <ele>899.79</ele>
        <time>2024-01-31T10:00:21Z</time>
      </trkpt>
      <trkpt lat="43.95349" lon="6.52215">
        <ele>898.22</ele>
        <time>2024-01-31T10:00:32Z</time>
      </trkpt>
      <trkpt lat="43.95325" lon="6.52249">
        <ele>897.56</ele>
        <time>2024-01-31T10:00:45Z</time>
      </trkpt>
      <trkpt lat="43.95308" lon="6.52266">
        <ele>897.14</ele>
        <time>2024-01-31T10:00:53Z</time>
      </trkpt>
      <trkpt lat="43.95299" lon="6.5228">
        <ele>896.25</ele>
        <time>2024-01-31T10:00:58Z</time>
      </trkpt>
      <trkpt lat="43.95296" lon="6.52293">
        <ele>895.01</ele>
        <time>2024-01-31T10:01:02Z</time>
      </trkpt>
      <trkpt lat="43.95299" lon="6.52345">
        <ele>895.49</ele>
        <time>2024-01-31T10:01:20Z</time>
      </trkpt>
      <trkpt lat="43.95306" lon="6.5239">
        <ele>897.33</ele>
        <time>2024-01-31T10:01:40Z</time>
      </trkpt>
      <trkpt lat="43.9529" lon="6.52421">
        <ele>905.29</ele>
        <time>2024-01-31T10:01:57Z</time>
      </trkpt>
      <trkpt lat="43.95292" lon="6.52464">
        <ele>907.09</ele>
        <time>2024-01-31T10:02:18Z</time>
      </trkpt>
      <trkpt lat="43.95283" lon="6.52507">
        <ele>909.77</ele>
        <time>2024-01-31T10:02:39Z</time>
      </trkpt>
      <trkpt lat="43.95262" lon="6.52539">
        <ele>913.97</ele>
        <time>2024-01-31T10:02:58Z</time>
      </trkpt>
      <trkpt lat="43.9522" lon="6.52592">
        <ele>921.52</ele>
        <time>2024-01-31T10:03:32Z</time>
      </trkpt>
      <trkpt lat="43.95206" lon="6.52602">
        <ele>923.24</ele>
        <time>2024-01-31T10:03:41Z</time>
      </trkpt>
      <trkpt lat="43.95202" lon="6.52615">
        <ele>924.52</ele>
        <time>2024-01-31T10:03:48Z</time>
      </trkpt>
      <trkpt lat="43.95199" lon="6.52635">
        <ele>925.91</ele>
        <time>2024-01-31T10:03:57Z</time>
      </trkpt>
      <trkpt lat="43.95191" lon="6.5265">
        <ele>928.37</ele>
        <time>2024-01-31T10:04:05Z</time>
      </trkpt>
      <trkpt lat="43.9517" lon="6.52675">
        <ele>933.31</ele>
        <time>2024-01-31T10:04:23Z</time>
      </trkpt>
      <trkpt lat="43.95163" lon="6.52719">
        <ele>933.18</ele>
        <time>2024-01-31T10:04:44Z</time>
      </trkpt>
      <trkpt lat="43.95146" lon="6.52751">
        <ele>934.41</ele>
        <time>2024-01-31T10:05:02Z</time>
      </trkpt>
      <trkpt lat="43.95092" lon="6.52818">
        <ele>946.4</ele>
        <time>2024-01-31T10:05:48Z</time>
      </trkpt>
      <trkpt lat="43.95081" lon="6.52834">
        <ele>947.53</ele>
        <time>2024-01-31T10:05:58Z</time>
      </trkpt>
      <trkpt lat="43.95072" lon="6.5284">
        <ele>950.55</ele>
        <time>2024-01-31T10:06:06Z</time>
      </trkpt>
      <trkpt lat="43.95043" lon="6.52868">
        <ele>951.65</ele>
        <time>2024-01-31T10:06:31Z</time>
      </trkpt>
      <trkpt lat="43.9501" lon="6.52911">
        <ele>958.11</ele>
        <time>2024-01-31T10:07:04Z</time>
      </trkpt>
      <trkpt lat="43.94976" lon="6.52945">
        <ele>963.63</ele>
        <time>2024-01-31T10:07:35Z</time>
      </trkpt>
      <trkpt lat="43.9495" lon="6.5296">
        <ele>967.64</ele>
        <time>2024-01-31T10:07:56Z</time>
      </trkpt>
      <trkpt lat="43.94912" lon="6.53003">
        <ele>974.93</ele>
        <time>2024-01-31T10:08:33Z</time>
      </trkpt>
      <trkpt lat="43.94876" lon="6.53038">
        <ele>980.28</ele>
        <time>2024-01-31T10:09:08Z</time>
      </trkpt>
      <trkpt lat="43.94842" lon="6.53054">
        <ele>987.68</ele>
        <time>2024-01-31T10:09:36Z</time>
      </trkpt>
      <trkpt lat="43.94822" lon="6.53069">
        <ele>990.39</ele>
        <time>2024-01-31T10:09:54Z</time>
      </trkpt>
      <trkpt lat="43.9479" lon="6.53103">
        <ele>992.47</ele>
        <time>2024-01-31T10:10:25Z</time>
      </trkpt>
      <trkpt lat="43.94726" lon="6.53186">
        <ele>1002.27</ele>
        <time>2024-01-31T10:11:36Z</time>
      </trkpt>
      <trkpt lat="43.94638" lon="6.53288">
        <ele>1022.42</ele>
        <time>2024-01-31T10:12:48Z</time>
      </trkpt>
      <trkpt lat="43.94627" lon="6.53305">
        <ele>1024.35</ele>
        <time>2024-01-31T10:12:56Z</time>
      </trkpt>
      <trkpt lat="43.946" lon="6.53413">
        <ele>1026.61</ele>
        <time>2024-01-31T10:13:29Z</time>
      </trkpt>
      <trkpt lat="43.94598" lon="6.53436">
        <ele>1024.51</ele>
        <time>2024-01-31T10:13:33Z</time>
      </trkpt>
      <trkpt lat="43.94575" lon="6.53489">
        <ele>1019.54</ele>
        <time>2024-01-31T10:13:44Z</time>
      </trkpt>
      <trkpt lat="43.94553" lon="6.53499">
        <ele>1015.69</ele>
        <time>2024-01-31T10:13:49Z</time>
      </trkpt>
      <trkpt lat="43.94532" lon="6.53503">
        <ele>1015.76</ele>
        <time>2024-01-31T10:13:53Z</time>
      </trkpt>
      <trkpt lat="43.94524" lon="6.53509">
        <ele>1016.4</ele>
        <time>2024-01-31T10:13:55Z</time>
      </trkpt>
      <trkpt lat="43.94523" lon="6.53521">
        <ele>1017.09</ele>
        <time>2024-01-31T10:13:57Z</time>
      </trkpt>
      <trkpt lat="43.9453" lon="6.53537">
        <ele>1015.42</ele>
        <time>2024-01-31T10:14:00Z</time>
      </trkpt>
      <trkpt lat="43.94529" lon="6.53556">
        <ele>1013.76</ele>
        <time>2024-01-31T10:14:03Z</time>
      </trkpt>
      <trkpt lat="43.94517" lon="6.53626">
        <ele>1009.77</ele>
        <time>2024-01-31T10:14:13Z</time>
      </trkpt>
      <trkpt lat="43.94517" lon="6.53651">
        <ele>1007.34</ele>
        <time>2024-01-31T10:14:16Z</time>
      </trkpt>
      <trkpt lat="43.94523" lon="6.53675">
        <ele>1002.64</ele>
        <time>2024-01-31T10:14:20Z</time>
      </trkpt>
      <trkpt lat="43.94526" lon="6.53764">
        <ele>989.61</ele>
        <time>2024-01-31T10:14:32Z</time>
      </trkpt>
      <trkpt lat="43.94525" lon="6.53813">
        <ele>981.74</ele>
        <time>2024-01-31T10:14:39Z</time>
      </trkpt>
      <trkpt lat="43.94515" lon="6.53845">
        <ele>978.44</ele>
        <time>2024-01-31T10:14:44Z</time>
      </trkpt>
      <trkpt lat="43.94498" lon="6.53862">
        <ele>977.36</ele>
        <time>2024-01-31T10:14:47Z</time>
      </trkpt>
      <trkpt lat="43.94491" lon="6.53878">
        <ele>975.59</ele>
        <time>2024-01-31T10:14:50Z</time>
      </trkpt>
      <trkpt lat="43.94488" lon="6.53958">
        <ele>964.28</ele>
        <time>2024-01-31T10:15:01Z</time>
      </trkpt>
      <trkpt lat="43.94474" lon="6.54026">
        <ele>957.73</ele>
        <time>2024-01-31T10:15:11Z</time>
      </trkpt>
      <trkpt lat="43.94466" lon="6.54047">
        <ele>955.74</ele>
        <time>2024-01-31T10:15:14Z</time>
      </trkpt>
      <trkpt lat="43.94445" lon="6.54071">
        <ele>952.01</ele>
        <time>2024-01-31T10:15:19Z</time>
      </trkpt>
      <trkpt lat="43.94434" lon="6.54095">
        <ele>945.22</ele>
        <time>2024-01-31T10:15:23Z</time>
      </trkpt>
      <trkpt lat="43.94415" lon="6.5412">
        <ele>943.14</ele>
        <time>2024-01-31T10:15:28Z</time>
      </trkpt>
      <trkpt lat="43.94401" lon="6.54161">
        <ele>936.93</ele>
        <time>2024-01-31T10:15:35Z</time>
      </trkpt>
      <trkpt lat="43.944" lon="6.54201">
        <ele>929.74</ele>
        <time>2024-01-31T10:15:40Z</time>
      </trkpt>
      <trkpt lat="43.94383" lon="6.54226">
        <ele>923.97</ele>
        <time>2024-01-31T10:15:45Z</time>
      </trkpt>
      <trkpt lat="43.94368" lon="6.54237">
        <ele>920.23</ele>
        <time>2024-01-31T10:15:49Z</time>
      </trkpt>
      <trkpt lat="43.94323" lon="6.5423">
        <ele>918.88</ele>
        <time>2024-01-31T10:15:58Z</time>
      </trkpt>
      <trkpt lat="43.9429" lon="6.54238">
        <ele>915.32</ele>
        <time>2024-01-31T10:16:04Z</time>
      </trkpt>
      <trkpt lat="43.9426" lon="6.5424">
        <ele>913.46</ele>
        <time>2024-01-31T10:16:11Z</time>
      </trkpt>
      <trkpt lat="43.94182" lon="6.54231">
        <ele>906.43</ele>
        <time>2024-01-31T10:16:27Z</time>
      </trkpt>
      <trkpt lat="43.94139" lon="6.54229">
        <ele>897.52</ele>
        <time>2024-01-31T10:16:37Z</time>
      </trkpt>
      <trkpt lat="43.94131" lon="6.54231">
        <ele>896.15</ele>
        <time>2024-01-31T10:16:38Z</time>
      </trkpt>
      <trkpt lat="43.94093" lon="6.54033">
        <ele>891.61</ele>
        <time>2024-01-31T10:16:57Z</time>
      </trkpt>
      <trkpt lat="43.94062" lon="6.53944">
        <ele>889.37</ele>
        <time>2024-01-31T10:17:07Z</time>
      </trkpt>
      <trkpt lat="43.94055" lon="6.53924">
        <ele>889.32</ele>
        <time>2024-01-31T10:17:09Z</time>
      </trkpt>
      <trkpt lat="43.93928" lon="6.53732">
        <ele>888.14</ele>
        <time>2024-01-31T10:17:33Z</time>
      </trkpt>
      <trkpt lat="43.93858" lon="6.53618">
        <ele>884.61</ele>
        <time>2024-01-31T10:17:47Z</time>
      </trkpt>
      <trkpt lat="43.93847" lon="6.53602">
        <ele>882.36</ele>
        <time>2024-01-31T10:17:50Z</time>
      </trkpt>
      <trkpt lat="43.93792" lon="6.53548">
        <ele>881.84</ele>
        <time>2024-01-31T10:18:00Z</time>
      </trkpt>
      <trkpt lat="43.93782" lon="6.53535">
        <ele>882.81</ele>
        <time>2024-01-31T10:18:03Z</time>
      </trkpt>
      <trkpt lat="43.93766" lon="6.5348">
        <ele>882.71</ele>
        <time>2024-01-31T10:18:12Z</time>
      </trkpt>
      <trkpt lat="43.93753" lon="6.53452">
        <ele>882.95</ele>
        <time>2024-01-31T10:18:18Z</time>
      </trkpt>
      <trkpt lat="43.93747" lon="6.53418">
        <ele>886.09</ele>
        <time>2024-01-31T10:18:25Z</time>
      </trkpt>
      <trkpt lat="43.93743" lon="6.53398">
        <ele>885.34</ele>
        <time>2024-01-31T10:18:30Z</time>
      </trkpt>
      <trkpt lat="43.93732" lon="6.53368">
        <ele>882.87</ele>
        <time>2024-01-31T10:18:39Z</time>
      </trkpt>
      <trkpt lat="43.93727" lon="6.53357">
        <ele>882.88</ele>
        <time>2024-01-31T10:18:42Z</time>
      </trkpt>
      <trkpt lat="43.93692" lon="6.53288">
        <ele>883.65</ele>
        <time>2024-01-31T10:19:06Z</time>
      </trkpt>
      <trkpt lat="43.93635" lon="6.53202">
        <ele>883.32</ele>
        <time>2024-01-31T10:20:03Z</time>
      </trkpt>
      <trkpt lat="43.93622" lon="6.53189">
        <ele>884.58</ele>
        <time>2024-01-31T10:20:14Z</time>
      </trkpt>
      <trkpt lat="43.93595" lon="6.53177">
        <ele>879.2</ele>
        <time>2024-01-31T10:20:35Z</time>
      </trkpt>
      <trkpt lat="43.93589" lon="6.53167">
        <ele>879.49</ele>
        <time>2024-01-31T10:20:40Z</time>
      </trkpt>
      <trkpt lat="43.93575" lon="6.53173">
        <ele>878.03</ele>
        <time>2024-01-31T10:20:51Z</time>
      </trkpt>
      <trkpt lat="43.93525" lon="6.53158">
        <ele>882.01</ele>
        <time>2024-01-31T10:21:21Z</time>
      </trkpt>
      <trkpt lat="43.93514" lon="6.53155">
        <ele>887.23</ele>
        <time>2024-01-31T10:21:27Z</time>
      </trkpt>
      <trkpt lat="43.93376" lon="6.53112">
        <ele>887.25</ele>
        <time>2024-01-31T10:22:08Z</time>
      </trkpt>
      <trkpt lat="43.93349" lon="6.53107">
        <ele>881.98</ele>
        <time>2024-01-31T10:22:11Z</time>
      </trkpt>
      <trkpt lat="43.93299" lon="6.53106">
        <ele>883.08</ele>
        <time>2024-01-31T10:22:17Z</time>
      </trkpt>
      <trkpt lat="43.93265" lon="6.53111">
        <ele>882.06</ele>
        <time>2024-01-31T10:22:21Z</time>
      </trkpt>
      <trkpt lat="43.93187" lon="6.5314">
        <ele>883.94</ele>
        <time>2024-01-31T10:22:31Z</time>
      </trkpt>
      <trkpt lat="43.93108" lon="6.53158">
        <ele>882.89</ele>
        <time>2024-01-31T10:22:41Z</time>
      </trkpt>
      <trkpt lat="43.93051" lon="6.5319">
        <ele>884.7</ele>
        <time>2024-01-31T10:22:49Z</time>
      </trkpt>
      <trkpt lat="43.93024" lon="6.53201">
        <ele>884.24</ele>
        <time>2024-01-31T10:22:53Z</time>
      </trkpt>
      <trkpt lat="43.92883" lon="6.53225">
        <ele>885.76</ele>
        <time>2024-01-31T10:23:15Z</time>
      </trkpt>
      <trkpt lat="43.92854" lon="6.5324">
        <ele>884.77</ele>
        <time>2024-01-31T10:23:21Z</time>
      </trkpt>
      <trkpt lat="43.92805" lon="6.53277">
        <ele>882.82</ele>
        <time>2024-01-31T10:23:34Z</time>
      </trkpt>
      <trkpt lat="43.92689" lon="6.53312">
        <ele>885.01</ele>
        <time>2024-01-31T10:24:10Z</time>
      </trkpt>
      <trkpt lat="43.92629" lon="6.53337">
        <ele>888.45</ele>
        <time>2024-01-31T10:24:26Z</time>
      </trkpt>
      <trkpt lat="43.92598" lon="6.53338">
        <ele>889.26</ele>
        <time>2024-01-31T10:24:35Z</time>
      </trkpt>
      <trkpt lat="43.92554" lon="6.5332">
        <ele>888.79</ele>
        <time>2024-01-31T10:24:44Z</time>
      </trkpt>
      <trkpt lat="43.92538" lon="6.53316">
        <ele>889.67</ele>
        <time>2024-01-31T10:24:47Z</time>
      </trkpt>
      <trkpt lat="43.92508" lon="6.53317">
        <ele>890.68</ele>
        <time>2024-01-31T10:24:51Z</time>
      </trkpt>
      <trkpt lat="43.9247" lon="6.53327">
        <ele>894.2</ele>
        <time>2024-01-31T10:24:57Z</time>
      </trkpt>
      <trkpt lat="43.92464" lon="6.53329">
        <ele>894.17</ele>
        <time>2024-01-31T10:24:58Z</time>
      </trkpt>
      <trkpt lat="43.92448" lon="6.53331">
        <ele>895.67</ele>
        <time>2024-01-31T10:25:02Z</time>
      </trkpt>
      <trkpt lat="43.92434" lon="6.53332">
        <ele>895.59</ele>
        <time>2024-01-31T10:25:05Z</time>
      </trkpt>
      <trkpt lat="43.92426" lon="6.53331">
        <ele>895.49</ele>
        <time>2024-01-31T10:25:07Z</time>
      </trkpt>
      <trkpt lat="43.92379" lon="6.53324">
        <ele>895.61</ele>
        <time>2024-01-31T10:25:16Z</time>
      </trkpt>
      <trkpt lat="43.92354" lon="6.53333">
        <ele>896.58</ele>
        <time>2024-01-31T10:25:22Z</time>
      </trkpt>
      <trkpt lat="43.92331" lon="6.53354">
        <ele>897.85</ele>
        <time>2024-01-31T10:25:30Z</time>
      </trkpt>
      <trkpt lat="43.92278" lon="6.53426">
        <ele>898.59</ele>
        <time>2024-01-31T10:25:49Z</time>
      </trkpt>
      <trkpt lat="43.92245" lon="6.53454">
        <ele>899.27</ele>
        <time>2024-01-31T10:26:01Z</time>
      </trkpt>
      <trkpt lat="43.92207" lon="6.53479">
        <ele>901.34</ele>
        <time>2024-01-31T10:26:15Z</time>
      </trkpt>
      <trkpt lat="43.92183" lon="6.53488">
        <ele>901.89</ele>
        <time>2024-01-31T10:26:22Z</time>
      </trkpt>
      <trkpt lat="43.92133" lon="6.53499">
        <ele>903.69</ele>
        <time>2024-01-31T10:26:34Z</time>
      </trkpt>
      <trkpt lat="43.92064" lon="6.5352">
        <ele>906.92</ele>
        <time>2024-01-31T10:26:47Z</time>
      </trkpt>
      <trkpt lat="43.92023" lon="6.53526">
        <ele>907.95</ele>
        <time>2024-01-31T10:26:53Z</time>
      </trkpt>
      <trkpt lat="43.92008" lon="6.5354">
        <ele>908.7</ele>
        <time>2024-01-31T10:26:55Z</time>
      </trkpt>
      <trkpt lat="43.91996" lon="6.53572">
        <ele>909.89</ele>
        <time>2024-01-31T10:26:59Z</time>
      </trkpt>
      <trkpt lat="43.91977" lon="6.53598">
        <ele>909.96</ele>
        <time>2024-01-31T10:27:03Z</time>
      </trkpt>
      <trkpt lat="43.9196" lon="6.5361">
        <ele>910.47</ele>
        <time>2024-01-31T10:27:07Z</time>
      </trkpt>
      <trkpt lat="43.9193" lon="6.53614">
        <ele>911.01</ele>
        <time>2024-01-31T10:27:13Z</time>
      </trkpt>
      <trkpt lat="43.9192" lon="6.53619">
        <ele>911.16</ele>
        <time>2024-01-31T10:27:16Z</time>
      </trkpt>
      <trkpt lat="43.9191" lon="6.53629">
        <ele>911.39</ele>
        <time>2024-01-31T10:27:19Z</time>
      </trkpt>
      <trkpt lat="43.91896" lon="6.53657">
        <ele>911.31</ele>
        <time>2024-01-31T10:27:25Z</time>
      </trkpt>
      <trkpt lat="43.91892" lon="6.53669">
        <ele>911.14</ele>
        <time>2024-01-31T10:27:28Z</time>
      </trkpt>
      <trkpt lat="43.9189" lon="6.53686">
        <ele>911.51</ele>
        <time>2024-01-31T10:27:31Z</time>
      </trkpt>
      <trkpt lat="43.91894" lon="6.53768">
        <ele>911.67</ele>
        <time>2024-01-31T10:27:47Z</time>
      </trkpt>
      <trkpt lat="43.91899" lon="6.53811">
        <ele>911.61</ele>
        <time>2024-01-31T10:27:57Z</time>
      </trkpt>
      <trkpt lat="43.91882" lon="6.53842">
        <ele>907.12</ele>
        <time>2024-01-31T10:28:07Z</time>
      </trkpt>
      <trkpt lat="43.91874" lon="6.53847">
        <ele>906.59</ele>
        <time>2024-01-31T10:28:10Z</time>
      </trkpt>
      <trkpt lat="43.91855" lon="6.53847">
        <ele>907.79</ele>
        <time>2024-01-31T10:28:17Z</time>
      </trkpt>
      <trkpt lat="43.91841" lon="6.53835">
        <ele>908.1</ele>
        <time>2024-01-31T10:28:24Z</time>
      </trkpt>
      <trkpt lat="43.91802" lon="6.53777">
        <ele>908.77</ele>
        <time>2024-01-31T10:28:42Z</time>
      </trkpt>
      <trkpt lat="43.91799" lon="6.53772">
        <ele>909.24</ele>
        <time>2024-01-31T10:28:44Z</time>
      </trkpt>
      <trkpt lat="43.91793" lon="6.53771">
        <ele>910.3</ele>
        <time>2024-01-31T10:28:46Z</time>
      </trkpt>
      <trkpt lat="43.9179" lon="6.53776">
        <ele>910.2</ele>
        <time>2024-01-31T10:28:47Z</time>
      </trkpt>
      <trkpt lat="43.91744" lon="6.54005">
        <ele>914.94</ele>
        <time>2024-01-31T10:29:30Z</time>
      </trkpt>
      <trkpt lat="43.91745" lon="6.54016">
        <ele>915.2</ele>
        <time>2024-01-31T10:29:32Z</time>
      </trkpt>
      <trkpt lat="43.91604" lon="6.54109">
        <ele>916.16</ele>
        <time>2024-01-31T10:29:58Z</time>
      </trkpt>
      <trkpt lat="43.91577" lon="6.54131">
        <ele>915.04</ele>
        <time>2024-01-31T10:30:03Z</time>
      </trkpt>
      <trkpt lat="43.91569" lon="6.5414">
        <ele>914.54</ele>
        <time>2024-01-31T10:30:04Z</time>
      </trkpt>
      <trkpt lat="43.91563" lon="6.54136">
        <ele>914.34</ele>
        <time>2024-01-31T10:30:05Z</time>
      </trkpt>
      <trkpt lat="43.9153" lon="6.54156">
        <ele>912.83</ele>
        <time>2024-01-31T10:30:10Z</time>
      </trkpt>
      <trkpt lat="43.91516" lon="6.54167">
        <ele>912.7</ele>
        <time>2024-01-31T10:30:12Z</time>
      </trkpt>
      <trkpt lat="43.91507" lon="6.54165">
        <ele>912.61</ele>
        <time>2024-01-31T10:30:13Z</time>
      </trkpt>
      <trkpt lat="43.91469" lon="6.54181">
        <ele>913.21</ele>
        <time>2024-01-31T10:30:18Z</time>
      </trkpt>
      <trkpt lat="43.91443" lon="6.54195">
        <ele>913</ele>
        <time>2024-01-31T10:30:22Z</time>
      </trkpt>
      <trkpt lat="43.91414" lon="6.54184">
        <ele>912.97</ele>
        <time>2024-01-31T10:30:26Z</time>
      </trkpt>
      <trkpt lat="43.91412" lon="6.54197">
        <ele>911.84</ele>
        <time>2024-01-31T10:30:27Z</time>
      </trkpt>
      <trkpt lat="43.91403" lon="6.54222">
        <ele>909.62</ele>
        <time>2024-01-31T10:30:29Z</time>
      </trkpt>
      <trkpt lat="43.91395" lon="6.54268">
        <ele>907.92</ele>
        <time>2024-01-31T10:30:33Z</time>
      </trkpt>
      <trkpt lat="43.91384" lon="6.54303">
        <ele>903.13</ele>
        <time>2024-01-31T10:30:36Z</time>
      </trkpt>
      <trkpt lat="43.91365" lon="6.54337">
        <ele>901.29</ele>
        <time>2024-01-31T10:30:40Z</time>
      </trkpt>
      <trkpt lat="43.91358" lon="6.54344">
        <ele>900.37</ele>
        <time>2024-01-31T10:30:41Z</time>
      </trkpt>
      <trkpt lat="43.91309" lon="6.54378">
        <ele>894.92</ele>
        <time>2024-01-31T10:30:47Z</time>
      </trkpt>
      <trkpt lat="43.913" lon="6.54397">
        <ele>895.65</ele>
        <time>2024-01-31T10:30:49Z</time>
      </trkpt>
      <trkpt lat="43.91273" lon="6.54438">
        <ele>891.98</ele>
        <time>2024-01-31T10:30:55Z</time>
      </trkpt>
      <trkpt lat="43.91269" lon="6.54453">
        <ele>891.47</ele>
        <time>2024-01-31T10:30:56Z</time>
      </trkpt>
      <trkpt lat="43.91268" lon="6.545">
        <ele>893.38</ele>
        <time>2024-01-31T10:31:01Z</time>
      </trkpt>
      <trkpt lat="43.91273" lon="6.54557">
        <ele>896.85</ele>
        <time>2024-01-31T10:31:08Z</time>
      </trkpt>
      <trkpt lat="43.91303" lon="6.54638">
        <ele>903.06</ele>
        <time>2024-01-31T10:31:29Z</time>
      </trkpt>
      <trkpt lat="43.91305" lon="6.54649">
        <ele>905.76</ele>
        <time>2024-01-31T10:31:32Z</time>
      </trkpt>
      <trkpt lat="43.913" lon="6.54693">
        <ele>903.04</ele>
        <time>2024-01-31T10:31:43Z</time>
      </trkpt>
      <trkpt lat="43.91296" lon="6.54754">
        <ele>908.66</ele>
        <time>2024-01-31T10:31:55Z</time>
      </trkpt>
      <trkpt lat="43.91302" lon="6.54775">
        <ele>911.01</ele>
        <time>2024-01-31T10:32:00Z</time>
      </trkpt>
      <trkpt lat="43.91302" lon="6.5479">
        <ele>913.03</ele>
        <time>2024-01-31T10:32:02Z</time>
      </trkpt>
      <trkpt lat="43.91297" lon="6.54803">
        <ele>912.96</ele>
        <time>2024-01-31T10:32:04Z</time>
      </trkpt>
      <trkpt lat="43.91302" lon="6.54816">
        <ele>917.6</ele>
        <time>2024-01-31T10:32:08Z</time>
      </trkpt>
      <trkpt lat="43.91267" lon="6.54864">
        <ele>912.2</ele>
        <time>2024-01-31T10:32:18Z</time>
      </trkpt>
      <trkpt lat="43.91258" lon="6.54894">
        <ele>910.85</ele>
        <time>2024-01-31T10:32:24Z</time>
      </trkpt>
      <trkpt lat="43.91249" lon="6.54942">
        <ele>908.93</ele>
        <time>2024-01-31T10:32:32Z</time>
      </trkpt>
      <trkpt lat="43.91244" lon="6.54981">
        <ele>902.24</ele>
        <time>2024-01-31T10:32:39Z</time>
      </trkpt>
      <trkpt lat="43.91247" lon="6.55008">
        <ele>899.24</ele>
        <time>2024-01-31T10:32:45Z</time>
      </trkpt>
      <trkpt lat="43.91253" lon="6.55019">
        <ele>900.31</ele>
        <time>2024-01-31T10:32:48Z</time>
      </trkpt>
      <trkpt lat="43.91262" lon="6.55028">
        <ele>901.06</ele>
        <time>2024-01-31T10:32:51Z</time>
      </trkpt>
      <trkpt lat="43.91283" lon="6.55038">
        <ele>904.72</ele>
        <time>2024-01-31T10:32:59Z</time>
      </trkpt>
      <trkpt lat="43.91294" lon="6.55049">
        <ele>903.54</ele>
        <time>2024-01-31T10:33:06Z</time>
      </trkpt>
      <trkpt lat="43.91303" lon="6.55063">
        <ele>903.42</ele>
        <time>2024-01-31T10:33:14Z</time>
      </trkpt>
      <trkpt lat="43.91313" lon="6.55095">
        <ele>901</ele>
        <time>2024-01-31T10:33:30Z</time>
      </trkpt>
      <trkpt lat="43.91311" lon="6.55131">
        <ele>902.71</ele>
        <time>2024-01-31T10:33:48Z</time>
      </trkpt>
      <trkpt lat="43.91299" lon="6.55229">
        <ele>895.81</ele>
        <time>2024-01-31T10:34:39Z</time>
      </trkpt>
      <trkpt lat="43.91295" lon="6.55239">
        <ele>893.54</ele>
        <time>2024-01-31T10:34:44Z</time>
      </trkpt>
      <trkpt lat="43.91283" lon="6.55248">
        <ele>890.78</ele>
        <time>2024-01-31T10:34:53Z</time>
      </trkpt>
      <trkpt lat="43.91276" lon="6.55247">
        <ele>891.61</ele>
        <time>2024-01-31T10:34:59Z</time>
      </trkpt>
      <trkpt lat="43.91268" lon="6.55242">
        <ele>892.36</ele>
        <time>2024-01-31T10:35:05Z</time>
      </trkpt>
      <trkpt lat="43.91258" lon="6.55231">
        <ele>894.8</ele>
        <time>2024-01-31T10:35:13Z</time>
      </trkpt>
      <trkpt lat="43.91226" lon="6.5518">
        <ele>896.89</ele>
        <time>2024-01-31T10:35:45Z</time>
      </trkpt>
      <trkpt lat="43.912" lon="6.55147">
        <ele>897.45</ele>
        <time>2024-01-31T10:36:05Z</time>
      </trkpt>
      <trkpt lat="43.91131" lon="6.55102">
        <ele>901.3</ele>
        <time>2024-01-31T10:36:37Z</time>
      </trkpt>
      <trkpt lat="43.91096" lon="6.55069">
        <ele>903.68</ele>
        <time>2024-01-31T10:36:47Z</time>
      </trkpt>
      <trkpt lat="43.91072" lon="6.55054">
        <ele>905.65</ele>
        <time>2024-01-31T10:36:54Z</time>
      </trkpt>
      <trkpt lat="43.91062" lon="6.55042">
        <ele>905.24</ele>
        <time>2024-01-31T10:36:58Z</time>
      </trkpt>
      <trkpt lat="43.91056" lon="6.5503">
        <ele>905.5</ele>
        <time>2024-01-31T10:37:01Z</time>
      </trkpt>
      <trkpt lat="43.91053" lon="6.55016">
        <ele>906.75</ele>
        <time>2024-01-31T10:37:05Z</time>
      </trkpt>
      <trkpt lat="43.91053" lon="6.55002">
        <ele>906.41</ele>
        <time>2024-01-31T10:37:08Z</time>
      </trkpt>
      <trkpt lat="43.91063" lon="6.54949">
        <ele>907.18</ele>
        <time>2024-01-31T10:37:21Z</time>
      </trkpt>
      <trkpt lat="43.91061" lon="6.54921">
        <ele>907.32</ele>
        <time>2024-01-31T10:37:28Z</time>
      </trkpt>
      <trkpt lat="43.91053" lon="6.54905">
        <ele>908.34</ele>
        <time>2024-01-31T10:37:33Z</time>
      </trkpt>
      <trkpt lat="43.9102" lon="6.54851">
        <ele>910.12</ele>
        <time>2024-01-31T10:37:49Z</time>
      </trkpt>
      <trkpt lat="43.91015" lon="6.54833">
        <ele>910.2</ele>
        <time>2024-01-31T10:37:54Z</time>
      </trkpt>
      <trkpt lat="43.91005" lon="6.54771">
        <ele>913.23</ele>
        <time>2024-01-31T10:38:09Z</time>
      </trkpt>
      <trkpt lat="43.90998" lon="6.54753">
        <ele>914.86</ele>
        <time>2024-01-31T10:38:14Z</time>
      </trkpt>
      <trkpt lat="43.9099" lon="6.54737">
        <ele>913.35</ele>
        <time>2024-01-31T10:38:19Z</time>
      </trkpt>
      <trkpt lat="43.90967" lon="6.5471">
        <ele>914.84</ele>
        <time>2024-01-31T10:38:27Z</time>
      </trkpt>
      <trkpt lat="43.90956" lon="6.54692">
        <ele>917.76</ele>
        <time>2024-01-31T10:38:32Z</time>
      </trkpt>
      <trkpt lat="43.90907" lon="6.54586">
        <ele>922.53</ele>
        <time>2024-01-31T10:38:46Z</time>
      </trkpt>
      <trkpt lat="43.90871" lon="6.54504">
        <ele>922.82</ele>
        <time>2024-01-31T10:38:58Z</time>
      </trkpt>
      <trkpt lat="43.9086" lon="6.54486">
        <ele>923.45</ele>
        <time>2024-01-31T10:39:01Z</time>
      </trkpt>
      <trkpt lat="43.90851" lon="6.54473">
        <ele>922.96</ele>
        <time>2024-01-31T10:39:03Z</time>
      </trkpt>
      <trkpt lat="43.90829" lon="6.54457">
        <ele>922.2</ele>
        <time>2024-01-31T10:39:07Z</time>
      </trkpt>
      <trkpt lat="43.90808" lon="6.5445">
        <ele>921.36</ele>
        <time>2024-01-31T10:39:11Z</time>
      </trkpt>
      <trkpt lat="43.90768" lon="6.54446">
        <ele>922.65</ele>
        <time>2024-01-31T10:39:17Z</time>
      </trkpt>
      <trkpt lat="43.90748" lon="6.54434">
        <ele>922.69</ele>
        <time>2024-01-31T10:39:21Z</time>
      </trkpt>
      <trkpt lat="43.90699" lon="6.54381">
        <ele>920.39</ele>
        <time>2024-01-31T10:39:34Z</time>
      </trkpt>
      <trkpt lat="43.90626" lon="6.54317">
        <ele>923.08</ele>
        <time>2024-01-31T10:39:52Z</time>
      </trkpt>
      <trkpt lat="43.90613" lon="6.54302">
        <ele>922.97</ele>
        <time>2024-01-31T10:39:54Z</time>
      </trkpt>
      <trkpt lat="43.90593" lon="6.54267">
        <ele>921.16</ele>
        <time>2024-01-31T10:39:59Z</time>
      </trkpt>
      <trkpt lat="43.90583" lon="6.54256">
        <ele>919.89</ele>
        <time>2024-01-31T10:40:01Z</time>
      </trkpt>
      <trkpt lat="43.90572" lon="6.54251">
        <ele>919.33</ele>
        <time>2024-01-31T10:40:02Z</time>
      </trkpt>
      <trkpt lat="43.90561" lon="6.5425">
        <ele>918.74</ele>
        <time>2024-01-31T10:40:04Z</time>
      </trkpt>
      <trkpt lat="43.90549" lon="6.54253">
        <ele>919.12</ele>
        <time>2024-01-31T10:40:05Z</time>
      </trkpt>
      <trkpt lat="43.90528" lon="6.54266">
        <ele>920.04</ele>
        <time>2024-01-31T10:40:08Z</time>
      </trkpt>
      <trkpt lat="43.90517" lon="6.54269">
        <ele>919.96</ele>
        <time>2024-01-31T10:40:10Z</time>
      </trkpt>
      <trkpt lat="43.90504" lon="6.54268">
        <ele>921.56</ele>
        <time>2024-01-31T10:40:11Z</time>
      </trkpt>
      <trkpt lat="43.90492" lon="6.5426">
        <ele>921.92</ele>
        <time>2024-01-31T10:40:13Z</time>
      </trkpt>
      <trkpt lat="43.90484" lon="6.54251">
        <ele>922.19</ele>
        <time>2024-01-31T10:40:14Z</time>
      </trkpt>
      <trkpt lat="43.90455" lon="6.54207">
        <ele>919.88</ele>
        <time>2024-01-31T10:40:19Z</time>
      </trkpt>
      <trkpt lat="43.90443" lon="6.54197">
        <ele>919.1</ele>
        <time>2024-01-31T10:40:21Z</time>
      </trkpt>
      <trkpt lat="43.90407" lon="6.54185">
        <ele>919.44</ele>
        <time>2024-01-31T10:40:25Z</time>
      </trkpt>
      <trkpt lat="43.90395" lon="6.54177">
        <ele>918.93</ele>
        <time>2024-01-31T10:40:27Z</time>
      </trkpt>
      <trkpt lat="43.90372" lon="6.54149">
        <ele>919.43</ele>
        <time>2024-01-31T10:40:30Z</time>
      </trkpt>
      <trkpt lat="43.9035" lon="6.54136">
        <ele>919.11</ele>
        <time>2024-01-31T10:40:34Z</time>
      </trkpt>
      <trkpt lat="43.90321" lon="6.54135">
        <ele>918.68</ele>
        <time>2024-01-31T10:40:38Z</time>
      </trkpt>
      <trkpt lat="43.90294" lon="6.54143">
        <ele>917.71</ele>
        <time>2024-01-31T10:40:45Z</time>
      </trkpt>
      <trkpt lat="43.90283" lon="6.54149">
        <ele>915.74</ele>
        <time>2024-01-31T10:40:49Z</time>
      </trkpt>
      <trkpt lat="43.90264" lon="6.54174">
        <ele>914.97</ele>
        <time>2024-01-31T10:40:59Z</time>
      </trkpt>
      <trkpt lat="43.90258" lon="6.54189">
        <ele>915.46</ele>
        <time>2024-01-31T10:41:04Z</time>
      </trkpt>
      <trkpt lat="43.90245" lon="6.54251">
        <ele>914.05</ele>
        <time>2024-01-31T10:41:24Z</time>
      </trkpt>
      <trkpt lat="43.9024" lon="6.54262">
        <ele>915.17</ele>
        <time>2024-01-31T10:41:28Z</time>
      </trkpt>
      <trkpt lat="43.90233" lon="6.5427">
        <ele>914.35</ele>
        <time>2024-01-31T10:41:32Z</time>
      </trkpt>
      <trkpt lat="43.90225" lon="6.54275">
        <ele>913.98</ele>
        <time>2024-01-31T10:41:36Z</time>
      </trkpt>
      <trkpt lat="43.90215" lon="6.54275">
        <ele>914.02</ele>
        <time>2024-01-31T10:41:41Z</time>
      </trkpt>
      <trkpt lat="43.90206" lon="6.54271">
        <ele>914.27</ele>
        <time>2024-01-31T10:41:46Z</time>
      </trkpt>
      <trkpt lat="43.90186" lon="6.54253">
        <ele>915.5</ele>
        <time>2024-01-31T10:41:57Z</time>
      </trkpt>
      <trkpt lat="43.90166" lon="6.5423">
        <ele>915.72</ele>
        <time>2024-01-31T10:42:08Z</time>
      </trkpt>
      <trkpt lat="43.90158" lon="6.54213">
        <ele>916.59</ele>
        <time>2024-01-31T10:42:15Z</time>
      </trkpt>
      <trkpt lat="43.90118" lon="6.54076">
        <ele>912.24</ele>
        <time>2024-01-31T10:42:45Z</time>
      </trkpt>
      <trkpt lat="43.90112" lon="6.54065">
        <ele>912.33</ele>
        <time>2024-01-31T10:42:46Z</time>
      </trkpt>
      <trkpt lat="43.90102" lon="6.54056">
        <ele>912.68</ele>
        <time>2024-01-31T10:42:48Z</time>
      </trkpt>
      <trkpt lat="43.90093" lon="6.54052">
        <ele>911.92</ele>
        <time>2024-01-31T10:42:49Z</time>
      </trkpt>
      <trkpt lat="43.90081" lon="6.54053">
        <ele>910.85</ele>
        <time>2024-01-31T10:42:51Z</time>
      </trkpt>
      <trkpt lat="43.90033" lon="6.54072">
        <ele>912.98</ele>
        <time>2024-01-31T10:42:57Z</time>
      </trkpt>
      <trkpt lat="43.90022" lon="6.54071">
        <ele>913.08</ele>
        <time>2024-01-31T10:42:59Z</time>
      </trkpt>
      <trkpt lat="43.90009" lon="6.54065">
        <ele>913.68</ele>
        <time>2024-01-31T10:43:00Z</time>
      </trkpt>
      <trkpt lat="43.89989" lon="6.54039">
        <ele>912.93</ele>
        <time>2024-01-31T10:43:04Z</time>
      </trkpt>
      <trkpt lat="43.89954" lon="6.5397">
        <ele>910.21</ele>
        <time>2024-01-31T10:43:12Z</time>
      </trkpt>
      <trkpt lat="43.89945" lon="6.53955">
        <ele>909.94</ele>
        <time>2024-01-31T10:43:14Z</time>
      </trkpt>
      <trkpt lat="43.89934" lon="6.53943">
        <ele>910.49</ele>
        <time>2024-01-31T10:43:15Z</time>
      </trkpt>
      <trkpt lat="43.89883" lon="6.53918">
        <ele>908.34</ele>
        <time>2024-01-31T10:43:22Z</time>
      </trkpt>
      <trkpt lat="43.89852" lon="6.53892">
        <ele>906.53</ele>
        <time>2024-01-31T10:43:26Z</time>
      </trkpt>
      <trkpt lat="43.89841" lon="6.53889">
        <ele>906.72</ele>
        <time>2024-01-31T10:43:27Z</time>
      </trkpt>
      <trkpt lat="43.89816" lon="6.53888">
        <ele>905.12</ele>
        <time>2024-01-31T10:43:30Z</time>
      </trkpt>
      <trkpt lat="43.898" lon="6.53881">
        <ele>906.15</ele>
        <time>2024-01-31T10:43:32Z</time>
      </trkpt>
      <trkpt lat="43.89747" lon="6.53851">
        <ele>907</ele>
        <time>2024-01-31T10:43:38Z</time>
      </trkpt>
      <trkpt lat="43.89708" lon="6.53819">
        <ele>904.29</ele>
        <time>2024-01-31T10:43:43Z</time>
      </trkpt>
      <trkpt lat="43.89698" lon="6.53817">
        <ele>903.86</ele>
        <time>2024-01-31T10:43:44Z</time>
      </trkpt>
      <trkpt lat="43.89687" lon="6.5382">
        <ele>903.79</ele>
        <time>2024-01-31T10:43:45Z</time>
      </trkpt>
      <trkpt lat="43.89659" lon="6.53837">
        <ele>901.47</ele>
        <time>2024-01-31T10:43:49Z</time>
      </trkpt>
      <trkpt lat="43.89649" lon="6.53839">
        <ele>901.23</ele>
        <time>2024-01-31T10:43:50Z</time>
      </trkpt>
      <trkpt lat="43.89638" lon="6.53837">
        <ele>900.89</ele>
        <time>2024-01-31T10:43:51Z</time>
      </trkpt>
      <trkpt lat="43.89629" lon="6.5383">
        <ele>900.77</ele>
        <time>2024-01-31T10:43:53Z</time>
      </trkpt>
      <trkpt lat="43.89621" lon="6.5382">
        <ele>900.65</ele>
        <time>2024-01-31T10:43:54Z</time>
      </trkpt>
      <trkpt lat="43.89603" lon="6.53788">
        <ele>898.93</ele>
        <time>2024-01-31T10:43:58Z</time>
      </trkpt>
      <trkpt lat="43.89595" lon="6.53781">
        <ele>898.89</ele>
        <time>2024-01-31T10:43:59Z</time>
      </trkpt>
      <trkpt lat="43.89585" lon="6.53778">
        <ele>898.95</ele>
        <time>2024-01-31T10:44:00Z</time>
      </trkpt>
      <trkpt lat="43.89576" lon="6.53782">
        <ele>898.52</ele>
        <time>2024-01-31T10:44:02Z</time>
      </trkpt>
      <trkpt lat="43.89568" lon="6.53788">
        <ele>897.93</ele>
        <time>2024-01-31T10:44:04Z</time>
      </trkpt>
      <trkpt lat="43.89563" lon="6.53797">
        <ele>896.73</ele>
        <time>2024-01-31T10:44:06Z</time>
      </trkpt>
      <trkpt lat="43.89559" lon="6.53811">
        <ele>896.92</ele>
        <time>2024-01-31T10:44:09Z</time>
      </trkpt>
      <trkpt lat="43.8956" lon="6.53825">
        <ele>896.55</ele>
        <time>2024-01-31T10:44:12Z</time>
      </trkpt>
      <trkpt lat="43.89579" lon="6.53953">
        <ele>895.12</ele>
        <time>2024-01-31T10:45:05Z</time>
      </trkpt>
      <trkpt lat="43.8959" lon="6.54005">
        <ele>893.41</ele>
        <time>2024-01-31T10:45:33Z</time>
      </trkpt>
      <trkpt lat="43.89589" lon="6.5402">
        <ele>892.15</ele>
        <time>2024-01-31T10:45:41Z</time>
      </trkpt>
      <trkpt lat="43.89586" lon="6.54034">
        <ele>889.44</ele>
        <time>2024-01-31T10:45:48Z</time>
      </trkpt>
      <trkpt lat="43.89579" lon="6.54045">
        <ele>890.39</ele>
        <time>2024-01-31T10:45:56Z</time>
      </trkpt>
      <trkpt lat="43.89572" lon="6.54052">
        <ele>891.95</ele>
        <time>2024-01-31T10:46:03Z</time>
      </trkpt>
      <trkpt lat="43.89562" lon="6.54055">
        <ele>892.79</ele>
        <time>2024-01-31T10:46:10Z</time>
      </trkpt>
      <trkpt lat="43.89552" lon="6.54052">
        <ele>895.62</ele>
        <time>2024-01-31T10:46:18Z</time>
      </trkpt>
      <trkpt lat="43.89541" lon="6.54044">
        <ele>895.19</ele>
        <time>2024-01-31T10:46:26Z</time>
      </trkpt>
      <trkpt lat="43.89521" lon="6.54017">
        <ele>896.09</ele>
        <time>2024-01-31T10:46:46Z</time>
      </trkpt>
      <trkpt lat="43.89474" lon="6.53916">
        <ele>893.06</ele>
        <time>2024-01-31T10:47:41Z</time>
      </trkpt>
      <trkpt lat="43.8941" lon="6.53833">
        <ele>896.45</ele>
        <time>2024-01-31T10:48:06Z</time>
      </trkpt>
      <trkpt lat="43.8939" lon="6.53801">
        <ele>895.11</ele>
        <time>2024-01-31T10:48:11Z</time>
      </trkpt>
      <trkpt lat="43.89366" lon="6.53749">
        <ele>894.17</ele>
        <time>2024-01-31T10:48:17Z</time>
      </trkpt>
      <trkpt lat="43.89343" lon="6.53674">
        <ele>891.4</ele>
        <time>2024-01-31T10:48:25Z</time>
      </trkpt>
      <trkpt lat="43.89335" lon="6.53656">
        <ele>891.74</ele>
        <time>2024-01-31T10:48:26Z</time>
      </trkpt>
      <trkpt lat="43.89321" lon="6.53637">
        <ele>895.17</ele>
        <time>2024-01-31T10:48:28Z</time>
      </trkpt>
      <trkpt lat="43.89288" lon="6.536">
        <ele>892.45</ele>
        <time>2024-01-31T10:48:33Z</time>
      </trkpt>
      <trkpt lat="43.89258" lon="6.53574">
        <ele>893.61</ele>
        <time>2024-01-31T10:48:37Z</time>
      </trkpt>
      <trkpt lat="43.89246" lon="6.53567">
        <ele>893.35</ele>
        <time>2024-01-31T10:48:38Z</time>
      </trkpt>
      <trkpt lat="43.89222" lon="6.53561">
        <ele>909.16</ele>
        <time>2024-01-31T10:48:41Z</time>
      </trkpt>
      <trkpt lat="43.89195" lon="6.53563">
        <ele>939.79</ele>
        <time>2024-01-31T10:48:44Z</time>
      </trkpt>
      <trkpt lat="43.89174" lon="6.53568">
        <ele>944.38</ele>
        <time>2024-01-31T10:48:46Z</time>
      </trkpt>
      <trkpt lat="43.89146" lon="6.53585">
        <ele>930.5</ele>
        <time>2024-01-31T10:48:50Z</time>
      </trkpt>
      <trkpt lat="43.89133" lon="6.53589">
        <ele>917.11</ele>
        <time>2024-01-31T10:48:51Z</time>
      </trkpt>
      <trkpt lat="43.89126" lon="6.53591">
        <ele>907.65</ele>
        <time>2024-01-31T10:48:52Z</time>
      </trkpt>
      <trkpt lat="43.89113" lon="6.53606">
        <ele>901.35</ele>
        <time>2024-01-31T10:48:54Z</time>
      </trkpt>
      <trkpt lat="43.89075" lon="6.53668">
        <ele>890.26</ele>
        <time>2024-01-31T10:49:02Z</time>
      </trkpt>
      <trkpt lat="43.89068" lon="6.53683">
        <ele>890.59</ele>
        <time>2024-01-31T10:49:04Z</time>
      </trkpt>
      <trkpt lat="43.8906" lon="6.53718">
        <ele>890.13</ele>
        <time>2024-01-31T10:49:08Z</time>
      </trkpt>
      <trkpt lat="43.89045" lon="6.53766">
        <ele>889.9</ele>
        <time>2024-01-31T10:49:20Z</time>
      </trkpt>
      <trkpt lat="43.89033" lon="6.53792">
        <ele>891.45</ele>
        <time>2024-01-31T10:49:30Z</time>
      </trkpt>
      <trkpt lat="43.89021" lon="6.53803">
        <ele>895.32</ele>
        <time>2024-01-31T10:49:37Z</time>
      </trkpt>
      <trkpt lat="43.8901" lon="6.53805">
        <ele>893.93</ele>
        <time>2024-01-31T10:49:42Z</time>
      </trkpt>
      <trkpt lat="43.88963" lon="6.53799">
        <ele>888.22</ele>
        <time>2024-01-31T10:50:07Z</time>
      </trkpt>
      <trkpt lat="43.88861" lon="6.5381">
        <ele>889.2</ele>
        <time>2024-01-31T10:50:53Z</time>
      </trkpt>
      <trkpt lat="43.8885" lon="6.53815">
        <ele>889.29</ele>
        <time>2024-01-31T10:50:56Z</time>
      </trkpt>
      <trkpt lat="43.88828" lon="6.53841">
        <ele>889.52</ele>
        <time>2024-01-31T10:51:01Z</time>
      </trkpt>
      <trkpt lat="43.8882" lon="6.53847">
        <ele>890.07</ele>
        <time>2024-01-31T10:51:03Z</time>
      </trkpt>
      <trkpt lat="43.88811" lon="6.53849">
        <ele>889.5</ele>
        <time>2024-01-31T10:51:04Z</time>
      </trkpt>
      <trkpt lat="43.88802" lon="6.53848">
        <ele>889.44</ele>
        <time>2024-01-31T10:51:06Z</time>
      </trkpt>
      <trkpt lat="43.88789" lon="6.53834">
        <ele>887.83</ele>
        <time>2024-01-31T10:51:08Z</time>
      </trkpt>
      <trkpt lat="43.88758" lon="6.53725">
        <ele>890.09</ele>
        <time>2024-01-31T10:51:20Z</time>
      </trkpt>
      <trkpt lat="43.88751" lon="6.53711">
        <ele>889.94</ele>
        <time>2024-01-31T10:51:21Z</time>
      </trkpt>
      <trkpt lat="43.88743" lon="6.537">
        <ele>890.14</ele>
        <time>2024-01-31T10:51:22Z</time>
      </trkpt>
      <trkpt lat="43.88734" lon="6.53696">
        <ele>890.09</ele>
        <time>2024-01-31T10:51:24Z</time>
      </trkpt>
      <trkpt lat="43.88722" lon="6.53694">
        <ele>889.12</ele>
        <time>2024-01-31T10:51:25Z</time>
      </trkpt>
      <trkpt lat="43.88709" lon="6.53697">
        <ele>889.69</ele>
        <time>2024-01-31T10:51:26Z</time>
      </trkpt>
      <trkpt lat="43.88668" lon="6.53714">
        <ele>891.22</ele>
        <time>2024-01-31T10:51:31Z</time>
      </trkpt>
      <trkpt lat="43.8861" lon="6.53724">
        <ele>889.15</ele>
        <time>2024-01-31T10:51:38Z</time>
      </trkpt>
      <trkpt lat="43.88584" lon="6.53734">
        <ele>889.58</ele>
        <time>2024-01-31T10:51:41Z</time>
      </trkpt>
      <trkpt lat="43.88534" lon="6.53786">
        <ele>892.48</ele>
        <time>2024-01-31T10:51:50Z</time>
      </trkpt>
      <trkpt lat="43.88508" lon="6.53817">
        <ele>889.31</ele>
        <time>2024-01-31T10:51:56Z</time>
      </trkpt>
      <trkpt lat="43.88468" lon="6.53889">
        <ele>893.95</ele>
        <time>2024-01-31T10:52:10Z</time>
      </trkpt>
      <trkpt lat="43.8846" lon="6.53908">
        <ele>892.14</ele>
        <time>2024-01-31T10:52:15Z</time>
      </trkpt>
      <trkpt lat="43.88454" lon="6.53932">
        <ele>889.63</ele>
        <time>2024-01-31T10:52:21Z</time>
      </trkpt>
      <trkpt lat="43.8844" lon="6.53962">
        <ele>892.22</ele>
        <time>2024-01-31T10:52:32Z</time>
      </trkpt>
      <trkpt lat="43.8843" lon="6.53975">
        <ele>893.69</ele>
        <time>2024-01-31T10:52:38Z</time>
      </trkpt>
      <trkpt lat="43.88418" lon="6.53983">
        <ele>892.84</ele>
        <time>2024-01-31T10:52:43Z</time>
      </trkpt>
      <trkpt lat="43.88383" lon="6.53994">
        <ele>887.31</ele>
        <time>2024-01-31T10:52:55Z</time>
      </trkpt>
      <trkpt lat="43.88374" lon="6.54002">
        <ele>887.37</ele>
        <time>2024-01-31T10:52:59Z</time>
      </trkpt>
      <trkpt lat="43.88368" lon="6.54013">
        <ele>888</ele>
        <time>2024-01-31T10:53:01Z</time>
      </trkpt>
      <trkpt lat="43.88354" lon="6.54046">
        <ele>891.05</ele>
        <time>2024-01-31T10:53:09Z</time>
      </trkpt>
      <trkpt lat="43.88348" lon="6.54053">
        <ele>891.64</ele>
        <time>2024-01-31T10:53:11Z</time>
      </trkpt>
      <trkpt lat="43.88337" lon="6.54057">
        <ele>890.51</ele>
        <time>2024-01-31T10:53:13Z</time>
      </trkpt>
      <trkpt lat="43.88331" lon="6.54058">
        <ele>890.28</ele>
        <time>2024-01-31T10:53:14Z</time>
      </trkpt>
      <trkpt lat="43.8833" lon="6.54064">
        <ele>891</ele>
        <time>2024-01-31T10:53:16Z</time>
      </trkpt>
      <trkpt lat="43.88328" lon="6.54069">
        <ele>892.76</ele>
        <time>2024-01-31T10:53:17Z</time>
      </trkpt>
      <trkpt lat="43.88318" lon="6.54072">
        <ele>893.11</ele>
        <time>2024-01-31T10:53:20Z</time>
      </trkpt>
      <trkpt lat="43.88274" lon="6.54058">
        <ele>895.4</ele>
        <time>2024-01-31T10:53:32Z</time>
      </trkpt>
      <trkpt lat="43.88256" lon="6.54062">
        <ele>896.34</ele>
        <time>2024-01-31T10:53:37Z</time>
      </trkpt>
      <trkpt lat="43.88247" lon="6.54067">
        <ele>896.76</ele>
        <time>2024-01-31T10:53:41Z</time>
      </trkpt>
      <trkpt lat="43.88229" lon="6.54084">
        <ele>898.77</ele>
        <time>2024-01-31T10:53:49Z</time>
      </trkpt>
      <trkpt lat="43.88202" lon="6.54122">
        <ele>903.64</ele>
        <time>2024-01-31T10:54:05Z</time>
      </trkpt>
      <trkpt lat="43.88178" lon="6.54167">
        <ele>904.73</ele>
        <time>2024-01-31T10:54:22Z</time>
      </trkpt>
      <trkpt lat="43.88169" lon="6.54187">
        <ele>906.06</ele>
        <time>2024-01-31T10:54:31Z</time>
      </trkpt>
      <trkpt lat="43.88159" lon="6.54222">
        <ele>910.19</ele>
        <time>2024-01-31T10:54:47Z</time>
      </trkpt>
      <trkpt lat="43.88132" lon="6.5434">
        <ele>921.18</ele>
        <time>2024-01-31T10:55:58Z</time>
      </trkpt>
      <trkpt lat="43.88117" lon="6.54376">
        <ele>925.01</ele>
        <time>2024-01-31T10:56:21Z</time>
      </trkpt>
      <trkpt lat="43.88064" lon="6.54468">
        <ele>934.6</ele>
        <time>2024-01-31T10:57:13Z</time>
      </trkpt>
      <trkpt lat="43.88046" lon="6.54486">
        <ele>938.68</ele>
        <time>2024-01-31T10:57:24Z</time>
      </trkpt>
      <trkpt lat="43.88036" lon="6.54489">
        <ele>940.24</ele>
        <time>2024-01-31T10:57:29Z</time>
      </trkpt>
      <trkpt lat="43.88025" lon="6.54488">
        <ele>940.44</ele>
        <time>2024-01-31T10:57:33Z</time>
      </trkpt>
      <trkpt lat="43.87999" lon="6.54474">
        <ele>942.14</ele>
        <time>2024-01-31T10:57:46Z</time>
      </trkpt>
      <trkpt lat="43.87991" lon="6.54474">
        <ele>942.47</ele>
        <time>2024-01-31T10:57:48Z</time>
      </trkpt>
      <trkpt lat="43.87983" lon="6.54478">
        <ele>943.76</ele>
        <time>2024-01-31T10:57:52Z</time>
      </trkpt>
      <trkpt lat="43.8797" lon="6.54492">
        <ele>946.07</ele>
        <time>2024-01-31T10:57:59Z</time>
      </trkpt>
      <trkpt lat="43.87949" lon="6.54522">
        <ele>949.11</ele>
        <time>2024-01-31T10:58:11Z</time>
      </trkpt>
      <trkpt lat="43.87927" lon="6.54561">
        <ele>950.44</ele>
        <time>2024-01-31T10:58:23Z</time>
      </trkpt>
      <trkpt lat="43.87916" lon="6.54587">
        <ele>949.15</ele>
        <time>2024-01-31T10:58:33Z</time>
      </trkpt>
      <trkpt lat="43.87914" lon="6.546">
        <ele>949.68</ele>
        <time>2024-01-31T10:58:37Z</time>
      </trkpt>
      <trkpt lat="43.87918" lon="6.54627">
        <ele>950.31</ele>
        <time>2024-01-31T10:58:48Z</time>
      </trkpt>
      <trkpt lat="43.87973" lon="6.54722">
        <ele>955.87</ele>
        <time>2024-01-31T10:59:42Z</time>
      </trkpt>
      <trkpt lat="43.87989" lon="6.54767">
        <ele>959.71</ele>
        <time>2024-01-31T11:00:06Z</time>
      </trkpt>
      <trkpt lat="43.87991" lon="6.54781">
        <ele>960.34</ele>
        <time>2024-01-31T11:00:13Z</time>
      </trkpt>
      <trkpt lat="43.8799" lon="6.54794">
        <ele>961.03</ele>
        <time>2024-01-31T11:00:18Z</time>
      </trkpt>
      <trkpt lat="43.87985" lon="6.54805">
        <ele>961.92</ele>
        <time>2024-01-31T11:00:24Z</time>
      </trkpt>
      <trkpt lat="43.87976" lon="6.54812">
        <ele>962.83</ele>
        <time>2024-01-31T11:00:29Z</time>
      </trkpt>
      <trkpt lat="43.87966" lon="6.54814">
        <ele>963.13</ele>
        <time>2024-01-31T11:00:34Z</time>
      </trkpt>
      <trkpt lat="43.87871" lon="6.54794">
        <ele>969.43</ele>
        <time>2024-01-31T11:01:21Z</time>
      </trkpt>
      <trkpt lat="43.87839" lon="6.54792">
        <ele>972.27</ele>
        <time>2024-01-31T11:01:34Z</time>
      </trkpt>
      <trkpt lat="43.87823" lon="6.54797">
        <ele>974.22</ele>
        <time>2024-01-31T11:01:40Z</time>
      </trkpt>
      <trkpt lat="43.87812" lon="6.54807">
        <ele>975.12</ele>
        <time>2024-01-31T11:01:44Z</time>
      </trkpt>
      <trkpt lat="43.87802" lon="6.54822">
        <ele>976.04</ele>
        <time>2024-01-31T11:01:50Z</time>
      </trkpt>
      <trkpt lat="43.8775" lon="6.54917">
        <ele>981.57</ele>
        <time>2024-01-31T11:02:25Z</time>
      </trkpt>
      <trkpt lat="43.87736" lon="6.54951">
        <ele>984.23</ele>
        <time>2024-01-31T11:02:38Z</time>
      </trkpt>
      <trkpt lat="43.87731" lon="6.54969">
        <ele>985.98</ele>
        <time>2024-01-31T11:02:44Z</time>
      </trkpt>
      <trkpt lat="43.87723" lon="6.55023">
        <ele>992.17</ele>
        <time>2024-01-31T11:03:04Z</time>
      </trkpt>
      <trkpt lat="43.87719" lon="6.55039">
        <ele>993.32</ele>
        <time>2024-01-31T11:03:10Z</time>
      </trkpt>
      <trkpt lat="43.87712" lon="6.55052">
        <ele>994.24</ele>
        <time>2024-01-31T11:03:16Z</time>
      </trkpt>
      <trkpt lat="43.87703" lon="6.55063">
        <ele>994.78</ele>
        <time>2024-01-31T11:03:23Z</time>
      </trkpt>
      <trkpt lat="43.87667" lon="6.5509">
        <ele>999.28</ele>
        <time>2024-01-31T11:03:45Z</time>
      </trkpt>
      <trkpt lat="43.87629" lon="6.55119">
        <ele>1003.21</ele>
        <time>2024-01-31T11:04:06Z</time>
      </trkpt>
      <trkpt lat="43.87637" lon="6.55128">
        <ele>1005.1</ele>
        <time>2024-01-31T11:04:11Z</time>
      </trkpt>
      <trkpt lat="43.87655" lon="6.55118">
        <ele>1003.98</ele>
        <time>2024-01-31T11:04:20Z</time>
      </trkpt>
      <trkpt lat="43.87678" lon="6.55113">
        <ele>1002.07</ele>
        <time>2024-01-31T11:04:28Z</time>
      </trkpt>
      <trkpt lat="43.8769" lon="6.55122">
        <ele>1002.44</ele>
        <time>2024-01-31T11:04:34Z</time>
      </trkpt>
      <trkpt lat="43.87711" lon="6.5517">
        <ele>1008.37</ele>
        <time>2024-01-31T11:04:49Z</time>
      </trkpt>
      <trkpt lat="43.87719" lon="6.55182">
        <ele>1009.86</ele>
        <time>2024-01-31T11:04:54Z</time>
      </trkpt>
      <trkpt lat="43.87727" lon="6.55181">
        <ele>1009.9</ele>
        <time>2024-01-31T11:04:57Z</time>
      </trkpt>
      <trkpt lat="43.87732" lon="6.55172">
        <ele>1008.99</ele>
        <time>2024-01-31T11:05:01Z</time>
      </trkpt>
      <trkpt lat="43.87742" lon="6.55143">
        <ele>1007.44</ele>
        <time>2024-01-31T11:05:11Z</time>
      </trkpt>
      <trkpt lat="43.87755" lon="6.55101">
        <ele>1005.64</ele>
        <time>2024-01-31T11:05:25Z</time>
      </trkpt>
      <trkpt lat="43.87772" lon="6.55082">
        <ele>1008.22</ele>
        <time>2024-01-31T11:05:36Z</time>
      </trkpt>
      <trkpt lat="43.87794" lon="6.55077">
        <ele>1010.65</ele>
        <time>2024-01-31T11:05:46Z</time>
      </trkpt>
      <trkpt lat="43.87806" lon="6.55078">
        <ele>1011.52</ele>
        <time>2024-01-31T11:05:52Z</time>
      </trkpt>
      <trkpt lat="43.87826" lon="6.55086">
        <ele>1015.08</ele>
        <time>2024-01-31T11:06:01Z</time>
      </trkpt>
      <trkpt lat="43.87833" lon="6.55086">
        <ele>1016.49</ele>
        <time>2024-01-31T11:06:05Z</time>
      </trkpt>
      <trkpt lat="43.87841" lon="6.5508">
        <ele>1016.68</ele>
        <time>2024-01-31T11:06:08Z</time>
      </trkpt>
      <trkpt lat="43.87846" lon="6.55071">
        <ele>1016.18</ele>
        <time>2024-01-31T11:06:12Z</time>
      </trkpt>
      <trkpt lat="43.87864" lon="6.55057">
        <ele>1018.35</ele>
        <time>2024-01-31T11:06:23Z</time>
      </trkpt>
      <trkpt lat="43.87873" lon="6.55043">
        <ele>1018.85</ele>
        <time>2024-01-31T11:06:30Z</time>
      </trkpt>
      <trkpt lat="43.8788" lon="6.55037">
        <ele>1019.44</ele>
        <time>2024-01-31T11:06:34Z</time>
      </trkpt>
      <trkpt lat="43.87887" lon="6.55038">
        <ele>1020.07</ele>
        <time>2024-01-31T11:06:39Z</time>
      </trkpt>
      <trkpt lat="43.87893" lon="6.55046">
        <ele>1022.26</ele>
        <time>2024-01-31T11:06:45Z</time>
      </trkpt>
      <trkpt lat="43.87904" lon="6.55068">
        <ele>1026.06</ele>
        <time>2024-01-31T11:06:57Z</time>
      </trkpt>
      <trkpt lat="43.87916" lon="6.5508">
        <ele>1029.22</ele>
        <time>2024-01-31T11:07:08Z</time>
      </trkpt>
      <trkpt lat="43.87917" lon="6.5509">
        <ele>1030.34</ele>
        <time>2024-01-31T11:07:13Z</time>
      </trkpt>
      <trkpt lat="43.87906" lon="6.55103">
        <ele>1031.51</ele>
        <time>2024-01-31T11:07:23Z</time>
      </trkpt>
      <trkpt lat="43.87932" lon="6.55096">
        <ele>1033.25</ele>
        <time>2024-01-31T11:07:41Z</time>
      </trkpt>
      <trkpt lat="43.87952" lon="6.55082">
        <ele>1032.66</ele>
        <time>2024-01-31T11:07:55Z</time>
      </trkpt>
      <trkpt lat="43.87955" lon="6.55084">
        <ele>1032.89</ele>
        <time>2024-01-31T11:07:58Z</time>
      </trkpt>
      <trkpt lat="43.87957" lon="6.55093">
        <ele>1034.24</ele>
        <time>2024-01-31T11:08:02Z</time>
      </trkpt>
      <trkpt lat="43.87955" lon="6.551">
        <ele>1035.57</ele>
        <time>2024-01-31T11:08:05Z</time>
      </trkpt>
      <trkpt lat="43.87943" lon="6.55116">
        <ele>1036.99</ele>
        <time>2024-01-31T11:08:16Z</time>
      </trkpt>
      <trkpt lat="43.87925" lon="6.55154">
        <ele>1039.62</ele>
        <time>2024-01-31T11:08:38Z</time>
      </trkpt>
      <trkpt lat="43.8792" lon="6.55178">
        <ele>1042.02</ele>
        <time>2024-01-31T11:08:49Z</time>
      </trkpt>
      <trkpt lat="43.87906" lon="6.55195">
        <ele>1042.07</ele>
        <time>2024-01-31T11:08:59Z</time>
      </trkpt>
      <trkpt lat="43.87881" lon="6.55213">
        <ele>1040.63</ele>
        <time>2024-01-31T11:09:13Z</time>
      </trkpt>
      <trkpt lat="43.87867" lon="6.55231">
        <ele>1041.46</ele>
        <time>2024-01-31T11:09:24Z</time>
      </trkpt>
      <trkpt lat="43.87866" lon="6.55238">
        <ele>1042.24</ele>
        <time>2024-01-31T11:09:26Z</time>
      </trkpt>
      <trkpt lat="43.8787" lon="6.55243">
        <ele>1043.17</ele>
        <time>2024-01-31T11:09:29Z</time>
      </trkpt>
      <trkpt lat="43.8789" lon="6.55238">
        <ele>1044.42</ele>
        <time>2024-01-31T11:09:40Z</time>
      </trkpt>
      <trkpt lat="43.87941" lon="6.55211">
        <ele>1048.03</ele>
        <time>2024-01-31T11:10:10Z</time>
      </trkpt>
      <trkpt lat="43.87956" lon="6.55204">
        <ele>1048.97</ele>
        <time>2024-01-31T11:10:19Z</time>
      </trkpt>
      <trkpt lat="43.87966" lon="6.55196">
        <ele>1049.69</ele>
        <time>2024-01-31T11:10:26Z</time>
      </trkpt>
      <trkpt lat="43.87982" lon="6.55175">
        <ele>1048.39</ele>
        <time>2024-01-31T11:10:38Z</time>
      </trkpt>
      <trkpt lat="43.87985" lon="6.55181">
        <ele>1049.85</ele>
        <time>2024-01-31T11:10:42Z</time>
      </trkpt>
      <trkpt lat="43.87992" lon="6.55186">
        <ele>1051.08</ele>
        <time>2024-01-31T11:10:47Z</time>
      </trkpt>
      <trkpt lat="43.88009" lon="6.55183">
        <ele>1051.32</ele>
        <time>2024-01-31T11:10:57Z</time>
      </trkpt>
      <trkpt lat="43.8802" lon="6.55188">
        <ele>1052.25</ele>
        <time>2024-01-31T11:11:05Z</time>
      </trkpt>
      <trkpt lat="43.88033" lon="6.55183">
        <ele>1051.23</ele>
        <time>2024-01-31T11:11:13Z</time>
      </trkpt>
      <trkpt lat="43.88046" lon="6.55208">
        <ele>1056.12</ele>
        <time>2024-01-31T11:11:27Z</time>
      </trkpt>
      <trkpt lat="43.88067" lon="6.55213">
        <ele>1055.62</ele>
        <time>2024-01-31T11:11:41Z</time>
      </trkpt>
      <trkpt lat="43.88068" lon="6.55226">
        <ele>1058.13</ele>
        <time>2024-01-31T11:11:46Z</time>
      </trkpt>
      <trkpt lat="43.88056" lon="6.55233">
        <ele>1060.83</ele>
        <time>2024-01-31T11:11:56Z</time>
      </trkpt>
      <trkpt lat="43.88056" lon="6.55236">
        <ele>1061.69</ele>
        <time>2024-01-31T11:11:58Z</time>
      </trkpt>
      <trkpt lat="43.88061" lon="6.55242">
        <ele>1062.35</ele>
        <time>2024-01-31T11:12:02Z</time>
      </trkpt>
      <trkpt lat="43.88078" lon="6.55253">
        <ele>1063.03</ele>
        <time>2024-01-31T11:12:16Z</time>
      </trkpt>
      <trkpt lat="43.88082" lon="6.5526">
        <ele>1064.56</ele>
        <time>2024-01-31T11:12:20Z</time>
      </trkpt>
      <trkpt lat="43.8808" lon="6.55271">
        <ele>1067.53</ele>
        <time>2024-01-31T11:12:27Z</time>
      </trkpt>
      <trkpt lat="43.88065" lon="6.55269">
        <ele>1067.29</ele>
        <time>2024-01-31T11:12:38Z</time>
      </trkpt>
      <trkpt lat="43.88055" lon="6.55281">
        <ele>1070.06</ele>
        <time>2024-01-31T11:12:48Z</time>
      </trkpt>
      <trkpt lat="43.88031" lon="6.55292">
        <ele>1071.16</ele>
        <time>2024-01-31T11:13:07Z</time>
      </trkpt>
      <trkpt lat="43.88027" lon="6.55302">
        <ele>1072.2</ele>
        <time>2024-01-31T11:13:13Z</time>
      </trkpt>
      <trkpt lat="43.88029" lon="6.55307">
        <ele>1072.97</ele>
        <time>2024-01-31T11:13:16Z</time>
      </trkpt>
      <trkpt lat="43.88035" lon="6.55311">
        <ele>1074.75</ele>
        <time>2024-01-31T11:13:22Z</time>
      </trkpt>
      <trkpt lat="43.88055" lon="6.55304">
        <ele>1074.16</ele>
        <time>2024-01-31T11:13:37Z</time>
      </trkpt>
      <trkpt lat="43.88063" lon="6.55303">
        <ele>1074.15</ele>
        <time>2024-01-31T11:13:43Z</time>
      </trkpt>
      <trkpt lat="43.88065" lon="6.55306">
        <ele>1074.89</ele>
        <time>2024-01-31T11:13:45Z</time>
      </trkpt>
      <trkpt lat="43.88072" lon="6.55335">
        <ele>1080.24</ele>
        <time>2024-01-31T11:14:01Z</time>
      </trkpt>
      <trkpt lat="43.88071" lon="6.55339">
        <ele>1080.24</ele>
        <time>2024-01-31T11:14:04Z</time>
      </trkpt>
      <trkpt lat="43.88057" lon="6.5534">
        <ele>1080.96</ele>
        <time>2024-01-31T11:14:14Z</time>
      </trkpt>
      <trkpt lat="43.88054" lon="6.55345">
        <ele>1081.54</ele>
        <time>2024-01-31T11:14:17Z</time>
      </trkpt>
      <trkpt lat="43.88055" lon="6.55351">
        <ele>1082.22</ele>
        <time>2024-01-31T11:14:21Z</time>
      </trkpt>
      <trkpt lat="43.88062" lon="6.55364">
        <ele>1084.54</ele>
        <time>2024-01-31T11:14:30Z</time>
      </trkpt>
      <trkpt lat="43.88086" lon="6.55366">
        <ele>1085.4</ele>
        <time>2024-01-31T11:14:48Z</time>
      </trkpt>
      <trkpt lat="43.88096" lon="6.5537">
        <ele>1086.01</ele>
        <time>2024-01-31T11:14:56Z</time>
      </trkpt>
      <trkpt lat="43.88116" lon="6.55377">
        <ele>1085.99</ele>
        <time>2024-01-31T11:15:12Z</time>
      </trkpt>
      <trkpt lat="43.88159" lon="6.55383">
        <ele>1082.43</ele>
        <time>2024-01-31T11:15:45Z</time>
      </trkpt>
      <trkpt lat="43.88162" lon="6.55388">
        <ele>1083.43</ele>
        <time>2024-01-31T11:15:49Z</time>
      </trkpt>
      <trkpt lat="43.88167" lon="6.55408">
        <ele>1086.4</ele>
        <time>2024-01-31T11:16:00Z</time>
      </trkpt>
      <trkpt lat="43.88184" lon="6.55438">
        <ele>1089.41</ele>
        <time>2024-01-31T11:16:19Z</time>
      </trkpt>
      <trkpt lat="43.88185" lon="6.55463">
        <ele>1092.05</ele>
        <time>2024-01-31T11:16:31Z</time>
      </trkpt>
      <trkpt lat="43.88189" lon="6.55475">
        <ele>1092.82</ele>
        <time>2024-01-31T11:16:37Z</time>
      </trkpt>
      <trkpt lat="43.88213" lon="6.55501">
        <ele>1087.04</ele>
        <time>2024-01-31T11:16:55Z</time>
      </trkpt>
      <trkpt lat="43.88229" lon="6.55558">
        <ele>1088.24</ele>
        <time>2024-01-31T11:17:19Z</time>
      </trkpt>
      <trkpt lat="43.88226" lon="6.55576">
        <ele>1092.25</ele>
        <time>2024-01-31T11:17:26Z</time>
      </trkpt>
      <trkpt lat="43.88224" lon="6.55579">
        <ele>1092.25</ele>
        <time>2024-01-31T11:17:27Z</time>
      </trkpt>
      <trkpt lat="43.88218" lon="6.5558">
        <ele>1095.45</ele>
        <time>2024-01-31T11:17:30Z</time>
      </trkpt>
      <trkpt lat="43.88208" lon="6.55559">
        <ele>1097.48</ele>
        <time>2024-01-31T11:17:39Z</time>
      </trkpt>
      <trkpt lat="43.882" lon="6.55523">
        <ele>1097.28</ele>
        <time>2024-01-31T11:17:52Z</time>
      </trkpt>
      <trkpt lat="43.88183" lon="6.55506">
        <ele>1101.73</ele>
        <time>2024-01-31T11:18:03Z</time>
      </trkpt>
      <trkpt lat="43.88165" lon="6.55481">
        <ele>1102.36</ele>
        <time>2024-01-31T11:18:14Z</time>
      </trkpt>
      <trkpt lat="43.88153" lon="6.55468">
        <ele>1102.31</ele>
        <time>2024-01-31T11:18:20Z</time>
      </trkpt>
      <trkpt lat="43.88143" lon="6.55463">
        <ele>1102.62</ele>
        <time>2024-01-31T11:18:24Z</time>
      </trkpt>
      <trkpt lat="43.88111" lon="6.55458">
        <ele>1102.7</ele>
        <time>2024-01-31T11:18:36Z</time>
      </trkpt>
      <trkpt lat="43.88107" lon="6.5546">
        <ele>1103.64</ele>
        <time>2024-01-31T11:18:38Z</time>
      </trkpt>
      <trkpt lat="43.88103" lon="6.55471">
        <ele>1105.46</ele>
        <time>2024-01-31T11:18:41Z</time>
      </trkpt>
      <trkpt lat="43.88106" lon="6.55476">
        <ele>1106.36</ele>
        <time>2024-01-31T11:18:43Z</time>
      </trkpt>
      <trkpt lat="43.8813" lon="6.55482">
        <ele>1107.06</ele>
        <time>2024-01-31T11:18:52Z</time>
      </trkpt>
      <trkpt lat="43.88135" lon="6.55491">
        <ele>1108.32</ele>
        <time>2024-01-31T11:18:55Z</time>
      </trkpt>
      <trkpt lat="43.88134" lon="6.55502">
        <ele>1110.74</ele>
        <time>2024-01-31T11:18:59Z</time>
      </trkpt>
      <trkpt lat="43.88119" lon="6.55501">
        <ele>1111.23</ele>
        <time>2024-01-31T11:19:04Z</time>
      </trkpt>
      <trkpt lat="43.88093" lon="6.55506">
        <ele>1112.86</ele>
        <time>2024-01-31T11:19:17Z</time>
      </trkpt>
      <trkpt lat="43.88069" lon="6.55517">
        <ele>1115.51</ele>
        <time>2024-01-31T11:19:29Z</time>
      </trkpt>
      <trkpt lat="43.88042" lon="6.55532">
        <ele>1117.96</ele>
        <time>2024-01-31T11:19:44Z</time>
      </trkpt>
      <trkpt lat="43.8803" lon="6.55543">
        <ele>1119.08</ele>
        <time>2024-01-31T11:19:53Z</time>
      </trkpt>
      <trkpt lat="43.88015" lon="6.55557">
        <ele>1119.72</ele>
        <time>2024-01-31T11:20:03Z</time>
      </trkpt>
      <trkpt lat="43.87998" lon="6.55581">
        <ele>1122.39</ele>
        <time>2024-01-31T11:20:16Z</time>
      </trkpt>
      <trkpt lat="43.87982" lon="6.55597">
        <ele>1122.5</ele>
        <time>2024-01-31T11:20:26Z</time>
      </trkpt>
      <trkpt lat="43.8798" lon="6.55611">
        <ele>1123.81</ele>
        <time>2024-01-31T11:20:30Z</time>
      </trkpt>
      <trkpt lat="43.87976" lon="6.55618">
        <ele>1124.87</ele>
        <time>2024-01-31T11:20:33Z</time>
      </trkpt>
      <trkpt lat="43.87899" lon="6.55698">
        <ele>1133.62</ele>
        <time>2024-01-31T11:21:14Z</time>
      </trkpt>
      <trkpt lat="43.87878" lon="6.55714">
        <ele>1134.93</ele>
        <time>2024-01-31T11:21:24Z</time>
      </trkpt>
      <trkpt lat="43.87833" lon="6.55736">
        <ele>1135.26</ele>
        <time>2024-01-31T11:21:44Z</time>
      </trkpt>
      <trkpt lat="43.87822" lon="6.55744">
        <ele>1135.58</ele>
        <time>2024-01-31T11:21:48Z</time>
      </trkpt>
      <trkpt lat="43.87783" lon="6.55791">
        <ele>1140.7</ele>
        <time>2024-01-31T11:22:00Z</time>
      </trkpt>
      <trkpt lat="43.87762" lon="6.55809">
        <ele>1140.83</ele>
        <time>2024-01-31T11:22:05Z</time>
      </trkpt>
      <trkpt lat="43.87689" lon="6.55844">
        <ele>1143.48</ele>
        <time>2024-01-31T11:22:21Z</time>
      </trkpt>
      <trkpt lat="43.87652" lon="6.55862">
        <ele>1146.66</ele>
        <time>2024-01-31T11:22:31Z</time>
      </trkpt>
      <trkpt lat="43.87639" lon="6.55873">
        <ele>1147.94</ele>
        <time>2024-01-31T11:22:35Z</time>
      </trkpt>
      <trkpt lat="43.87624" lon="6.55896">
        <ele>1149.49</ele>
        <time>2024-01-31T11:22:42Z</time>
      </trkpt>
      <trkpt lat="43.87568" lon="6.56086">
        <ele>1163.65</ele>
        <time>2024-01-31T11:23:29Z</time>
      </trkpt>
      <trkpt lat="43.87558" lon="6.56105">
        <ele>1162.91</ele>
        <time>2024-01-31T11:23:37Z</time>
      </trkpt>
      <trkpt lat="43.87511" lon="6.56147">
        <ele>1162.58</ele>
        <time>2024-01-31T11:24:00Z</time>
      </trkpt>
      <trkpt lat="43.87497" lon="6.56164">
        <ele>1161.59</ele>
        <time>2024-01-31T11:24:07Z</time>
      </trkpt>
      <trkpt lat="43.87491" lon="6.56175">
        <ele>1161.65</ele>
        <time>2024-01-31T11:24:10Z</time>
      </trkpt>
      <trkpt lat="43.87482" lon="6.56201">
        <ele>1160.89</ele>
        <time>2024-01-31T11:24:15Z</time>
      </trkpt>
      <trkpt lat="43.8746" lon="6.56291">
        <ele>1159.83</ele>
        <time>2024-01-31T11:24:26Z</time>
      </trkpt>
      <trkpt lat="43.8745" lon="6.56317">
        <ele>1159.05</ele>
        <time>2024-01-31T11:24:28Z</time>
      </trkpt>
      <trkpt lat="43.87427" lon="6.56343">
        <ele>1159.3</ele>
        <time>2024-01-31T11:24:32Z</time>
      </trkpt>
      <trkpt lat="43.87374" lon="6.5638">
        <ele>1159.06</ele>
        <time>2024-01-31T11:24:39Z</time>
      </trkpt>
      <trkpt lat="43.8735" lon="6.564">
        <ele>1158.51</ele>
        <time>2024-01-31T11:24:42Z</time>
      </trkpt>
      <trkpt lat="43.87336" lon="6.56418">
        <ele>1158.22</ele>
        <time>2024-01-31T11:24:44Z</time>
      </trkpt>
      <trkpt lat="43.87328" lon="6.56442">
        <ele>1157.9</ele>
        <time>2024-01-31T11:24:46Z</time>
      </trkpt>
      <trkpt lat="43.87322" lon="6.56487">
        <ele>1159.07</ele>
        <time>2024-01-31T11:24:50Z</time>
      </trkpt>
      <trkpt lat="43.87318" lon="6.56566">
        <ele>1159.12</ele>
        <time>2024-01-31T11:24:57Z</time>
      </trkpt>
      <trkpt lat="43.87323" lon="6.56593">
        <ele>1158.26</ele>
        <time>2024-01-31T11:25:00Z</time>
      </trkpt>
      <trkpt lat="43.87336" lon="6.56628">
        <ele>1158.26</ele>
        <time>2024-01-31T11:25:08Z</time>
      </trkpt>
      <trkpt lat="43.87339" lon="6.56641">
        <ele>1156.66</ele>
        <time>2024-01-31T11:25:11Z</time>
      </trkpt>
      <trkpt lat="43.87339" lon="6.56653">
        <ele>1152.9</ele>
        <time>2024-01-31T11:25:15Z</time>
      </trkpt>
      <trkpt lat="43.87332" lon="6.5668">
        <ele>1137.98</ele>
        <time>2024-01-31T11:25:25Z</time>
      </trkpt>
      <trkpt lat="43.8732" lon="6.56708">
        <ele>1123.5</ele>
        <time>2024-01-31T11:25:38Z</time>
      </trkpt>
      <trkpt lat="43.873" lon="6.56743">
        <ele>1122.3</ele>
        <time>2024-01-31T11:25:55Z</time>
      </trkpt>
      <trkpt lat="43.87265" lon="6.56781">
        <ele>1142.3</ele>
        <time>2024-01-31T11:26:15Z</time>
      </trkpt>
      <trkpt lat="43.87234" lon="6.56802">
        <ele>1151.61</ele>
        <time>2024-01-31T11:26:28Z</time>
      </trkpt>
      <trkpt lat="43.87211" lon="6.56811">
        <ele>1156.87</ele>
        <time>2024-01-31T11:26:34Z</time>
      </trkpt>
      <trkpt lat="43.87158" lon="6.5683">
        <ele>1149.88</ele>
        <time>2024-01-31T11:26:42Z</time>
      </trkpt>
      <trkpt lat="43.87137" lon="6.56843">
        <ele>1147.81</ele>
        <time>2024-01-31T11:26:45Z</time>
      </trkpt>
      <trkpt lat="43.87118" lon="6.5686">
        <ele>1146.13</ele>
        <time>2024-01-31T11:26:48Z</time>
      </trkpt>
      <trkpt lat="43.87103" lon="6.56883">
        <ele>1142.84</ele>
        <time>2024-01-31T11:26:50Z</time>
      </trkpt>
      <trkpt lat="43.87026" lon="6.57031">
        <ele>1129.64</ele>
        <time>2024-01-31T11:27:05Z</time>
      </trkpt>
      <trkpt lat="43.86995" lon="6.57085">
        <ele>1126.15</ele>
        <time>2024-01-31T11:27:11Z</time>
      </trkpt>
      <trkpt lat="43.8699" lon="6.57094">
        <ele>1126.52</ele>
        <time>2024-01-31T11:27:12Z</time>
      </trkpt>
      <trkpt lat="43.86985" lon="6.57107">
        <ele>1127.14</ele>
        <time>2024-01-31T11:27:13Z</time>
      </trkpt>
      <trkpt lat="43.86966" lon="6.57151">
        <ele>1130.4</ele>
        <time>2024-01-31T11:27:18Z</time>
      </trkpt>
      <trkpt lat="43.86959" lon="6.57175">
        <ele>1129.91</ele>
        <time>2024-01-31T11:27:21Z</time>
      </trkpt>
      <trkpt lat="43.86959" lon="6.57289">
        <ele>1135.81</ele>
        <time>2024-01-31T11:27:45Z</time>
      </trkpt>
      <trkpt lat="43.86985" lon="6.57358">
        <ele>1143.79</ele>
        <time>2024-01-31T11:28:14Z</time>
      </trkpt>
      <trkpt lat="43.87" lon="6.5739">
        <ele>1150.48</ele>
        <time>2024-01-31T11:28:32Z</time>
      </trkpt>
      <trkpt lat="43.87007" lon="6.57419">
        <ele>1150.97</ele>
        <time>2024-01-31T11:28:47Z</time>
      </trkpt>
      <trkpt lat="43.87017" lon="6.57488">
        <ele>1148.46</ele>
        <time>2024-01-31T11:29:22Z</time>
      </trkpt>
      <trkpt lat="43.8702" lon="6.57495">
        <ele>1149.22</ele>
        <time>2024-01-31T11:29:26Z</time>
      </trkpt>
      <trkpt lat="43.87041" lon="6.57533">
        <ele>1155.09</ele>
        <time>2024-01-31T11:29:51Z</time>
      </trkpt>
      <trkpt lat="43.8705" lon="6.57566">
        <ele>1157.06</ele>
        <time>2024-01-31T11:30:09Z</time>
      </trkpt>
      <trkpt lat="43.87049" lon="6.57596">
        <ele>1156.95</ele>
        <time>2024-01-31T11:30:24Z</time>
      </trkpt>
      <trkpt lat="43.87044" lon="6.57622">
        <ele>1157.99</ele>
        <time>2024-01-31T11:30:36Z</time>
      </trkpt>
      <trkpt lat="43.87032" lon="6.57657">
        <ele>1158.84</ele>
        <time>2024-01-31T11:30:52Z</time>
      </trkpt>
      <trkpt lat="43.87036" lon="6.57711">
        <ele>1159.96</ele>
        <time>2024-01-31T11:31:12Z</time>
      </trkpt>
      <trkpt lat="43.87028" lon="6.57741">
        <ele>1159.27</ele>
        <time>2024-01-31T11:31:22Z</time>
      </trkpt>
      <trkpt lat="43.87012" lon="6.57788">
        <ele>1163.12</ele>
        <time>2024-01-31T11:31:35Z</time>
      </trkpt>
      <trkpt lat="43.86964" lon="6.57858">
        <ele>1165.64</ele>
        <time>2024-01-31T11:31:57Z</time>
      </trkpt>
      <trkpt lat="43.8696" lon="6.57869">
        <ele>1165.02</ele>
        <time>2024-01-31T11:32:00Z</time>
      </trkpt>
      <trkpt lat="43.86956" lon="6.57921">
        <ele>1165.61</ele>
        <time>2024-01-31T11:32:13Z</time>
      </trkpt>
      <trkpt lat="43.86954" lon="6.57941">
        <ele>1166.35</ele>
        <time>2024-01-31T11:32:18Z</time>
      </trkpt>
      <trkpt lat="43.86952" lon="6.57968">
        <ele>1166.92</ele>
        <time>2024-01-31T11:32:24Z</time>
      </trkpt>
      <trkpt lat="43.86939" lon="6.57999">
        <ele>1164.27</ele>
        <time>2024-01-31T11:32:31Z</time>
      </trkpt>
      <trkpt lat="43.86936" lon="6.58024">
        <ele>1164.8</ele>
        <time>2024-01-31T11:32:36Z</time>
      </trkpt>
      <trkpt lat="43.86936" lon="6.58104">
        <ele>1170.63</ele>
        <time>2024-01-31T11:32:50Z</time>
      </trkpt>
      <trkpt lat="43.86933" lon="6.58122">
        <ele>1172.68</ele>
        <time>2024-01-31T11:32:53Z</time>
      </trkpt>
      <trkpt lat="43.8693" lon="6.5813">
        <ele>1173.32</ele>
        <time>2024-01-31T11:32:55Z</time>
      </trkpt>
      <trkpt lat="43.86915" lon="6.58152">
        <ele>1174.81</ele>
        <time>2024-01-31T11:33:01Z</time>
      </trkpt>
      <trkpt lat="43.86879" lon="6.58192">
        <ele>1174.06</ele>
        <time>2024-01-31T11:33:15Z</time>
      </trkpt>
      <trkpt lat="43.86861" lon="6.58232">
        <ele>1176.86</ele>
        <time>2024-01-31T11:33:28Z</time>
      </trkpt>
      <trkpt lat="43.86855" lon="6.58252">
        <ele>1177.96</ele>
        <time>2024-01-31T11:33:33Z</time>
      </trkpt>
      <trkpt lat="43.86853" lon="6.58271">
        <ele>1179</ele>
        <time>2024-01-31T11:33:38Z</time>
      </trkpt>
      <trkpt lat="43.86855" lon="6.58318">
        <ele>1182.69</ele>
        <time>2024-01-31T11:33:49Z</time>
      </trkpt>
      <trkpt lat="43.86876" lon="6.58454">
        <ele>1189.21</ele>
        <time>2024-01-31T11:34:32Z</time>
      </trkpt>
      <trkpt lat="43.8689" lon="6.58608">
        <ele>1195.11</ele>
        <time>2024-01-31T11:35:34Z</time>
      </trkpt>
      <trkpt lat="43.86896" lon="6.58617">
        <ele>1196.18</ele>
        <time>2024-01-31T11:35:39Z</time>
      </trkpt>
      <trkpt lat="43.86916" lon="6.58639">
        <ele>1201.12</ele>
        <time>2024-01-31T11:35:52Z</time>
      </trkpt>
      <trkpt lat="43.86918" lon="6.58651">
        <ele>1200.3</ele>
        <time>2024-01-31T11:35:57Z</time>
      </trkpt>
      <trkpt lat="43.86908" lon="6.587">
        <ele>1201.79</ele>
        <time>2024-01-31T11:36:15Z</time>
      </trkpt>
      <trkpt lat="43.86881" lon="6.58771">
        <ele>1205.76</ele>
        <time>2024-01-31T11:36:41Z</time>
      </trkpt>
      <trkpt lat="43.86857" lon="6.58797">
        <ele>1205.83</ele>
        <time>2024-01-31T11:36:55Z</time>
      </trkpt>
      <trkpt lat="43.86845" lon="6.58819">
        <ele>1208.79</ele>
        <time>2024-01-31T11:37:03Z</time>
      </trkpt>
      <trkpt lat="43.86841" lon="6.58841">
        <ele>1208.91</ele>
        <time>2024-01-31T11:37:10Z</time>
      </trkpt>
      <trkpt lat="43.86845" lon="6.58913">
        <ele>1213.69</ele>
        <time>2024-01-31T11:37:29Z</time>
      </trkpt>
      <trkpt lat="43.86816" lon="6.59091">
        <ele>1224.9</ele>
        <time>2024-01-31T11:38:26Z</time>
      </trkpt>
      <trkpt lat="43.86816" lon="6.59139">
        <ele>1225.53</ele>
        <time>2024-01-31T11:38:42Z</time>
      </trkpt>
      <trkpt lat="43.86821" lon="6.59184">
        <ele>1225.7</ele>
        <time>2024-01-31T11:38:58Z</time>
      </trkpt>
      <trkpt lat="43.86869" lon="6.59236">
        <ele>1230.9</ele>
        <time>2024-01-31T11:39:23Z</time>
      </trkpt>
      <trkpt lat="43.86875" lon="6.59251">
        <ele>1232.1</ele>
        <time>2024-01-31T11:39:29Z</time>
      </trkpt>
      <trkpt lat="43.86876" lon="6.59264">
        <ele>1232.31</ele>
        <time>2024-01-31T11:39:33Z</time>
      </trkpt>
      <trkpt lat="43.86843" lon="6.59322">
        <ele>1233.95</ele>
        <time>2024-01-31T11:39:56Z</time>
      </trkpt>
      <trkpt lat="43.86838" lon="6.5934">
        <ele>1234.31</ele>
        <time>2024-01-31T11:40:02Z</time>
      </trkpt>
      <trkpt lat="43.86819" lon="6.59399">
        <ele>1236.04</ele>
        <time>2024-01-31T11:40:22Z</time>
      </trkpt>
      <trkpt lat="43.86818" lon="6.59428">
        <ele>1236.77</ele>
        <time>2024-01-31T11:40:30Z</time>
      </trkpt>
      <trkpt lat="43.86877" lon="6.59585">
        <ele>1244.85</ele>
        <time>2024-01-31T11:41:18Z</time>
      </trkpt>
      <trkpt lat="43.86874" lon="6.59605">
        <ele>1245.53</ele>
        <time>2024-01-31T11:41:24Z</time>
      </trkpt>
      <trkpt lat="43.86861" lon="6.59621">
        <ele>1244.88</ele>
        <time>2024-01-31T11:41:32Z</time>
      </trkpt>
      <trkpt lat="43.86849" lon="6.59641">
        <ele>1245.33</ele>
        <time>2024-01-31T11:41:39Z</time>
      </trkpt>
      <trkpt lat="43.86841" lon="6.59702">
        <ele>1248.97</ele>
        <time>2024-01-31T11:41:57Z</time>
      </trkpt>
      <trkpt lat="43.86831" lon="6.59749">
        <ele>1250.97</ele>
        <time>2024-01-31T11:42:10Z</time>
      </trkpt>
      <trkpt lat="43.86804" lon="6.59847">
        <ele>1256.87</ele>
        <time>2024-01-31T11:42:36Z</time>
      </trkpt>
      <trkpt lat="43.86794" lon="6.59902">
        <ele>1257.9</ele>
        <time>2024-01-31T11:42:49Z</time>
      </trkpt>
      <trkpt lat="43.86788" lon="6.59931">
        <ele>1258.63</ele>
        <time>2024-01-31T11:42:56Z</time>
      </trkpt>
      <trkpt lat="43.86787" lon="6.59962">
        <ele>1258.33</ele>
        <time>2024-01-31T11:43:03Z</time>
      </trkpt>
      <trkpt lat="43.86792" lon="6.59979">
        <ele>1258.85</ele>
        <time>2024-01-31T11:43:07Z</time>
      </trkpt>
      <trkpt lat="43.8683" lon="6.60025">
        <ele>1261.33</ele>
        <time>2024-01-31T11:43:22Z</time>
      </trkpt>
      <trkpt lat="43.86834" lon="6.60043">
        <ele>1261.52</ele>
        <time>2024-01-31T11:43:26Z</time>
      </trkpt>
      <trkpt lat="43.86826" lon="6.60068">
        <ele>1261.93</ele>
        <time>2024-01-31T11:43:33Z</time>
      </trkpt>
      <trkpt lat="43.86815" lon="6.60089">
        <ele>1261.25</ele>
        <time>2024-01-31T11:43:40Z</time>
      </trkpt>
      <trkpt lat="43.86815" lon="6.60105">
        <ele>1261.35</ele>
        <time>2024-01-31T11:43:44Z</time>
      </trkpt>
      <trkpt lat="43.86822" lon="6.60122">
        <ele>1261.94</ele>
        <time>2024-01-31T11:43:49Z</time>
      </trkpt>
      <trkpt lat="43.86847" lon="6.60163">
        <ele>1263.65</ele>
        <time>2024-01-31T11:44:05Z</time>
      </trkpt>
      <trkpt lat="43.86851" lon="6.60178">
        <ele>1264.48</ele>
        <time>2024-01-31T11:44:10Z</time>
      </trkpt>
      <trkpt lat="43.86859" lon="6.60246">
        <ele>1267.69</ele>
        <time>2024-01-31T11:44:31Z</time>
      </trkpt>
      <trkpt lat="43.86877" lon="6.60337">
        <ele>1270.22</ele>
        <time>2024-01-31T11:45:01Z</time>
      </trkpt>
      <trkpt lat="43.86877" lon="6.60364">
        <ele>1269.86</ele>
        <time>2024-01-31T11:45:09Z</time>
      </trkpt>
      <trkpt lat="43.86873" lon="6.60387">
        <ele>1269.82</ele>
        <time>2024-01-31T11:45:17Z</time>
      </trkpt>
      <trkpt lat="43.86813" lon="6.60561">
        <ele>1275.64</ele>
        <time>2024-01-31T11:46:12Z</time>
      </trkpt>
      <trkpt lat="43.86806" lon="6.6058">
        <ele>1275.37</ele>
        <time>2024-01-31T11:46:17Z</time>
      </trkpt>
      <trkpt lat="43.868" lon="6.60601">
        <ele>1276.09</ele>
        <time>2024-01-31T11:46:23Z</time>
      </trkpt>
      <trkpt lat="43.86796" lon="6.60627">
        <ele>1276.99</ele>
        <time>2024-01-31T11:46:30Z</time>
      </trkpt>
      <trkpt lat="43.8679" lon="6.60845">
        <ele>1288.71</ele>
        <time>2024-01-31T11:47:25Z</time>
      </trkpt>
      <trkpt lat="43.86784" lon="6.60952">
        <ele>1294.86</ele>
        <time>2024-01-31T11:47:54Z</time>
      </trkpt>
      <trkpt lat="43.86762" lon="6.61071">
        <ele>1300.47</ele>
        <time>2024-01-31T11:48:28Z</time>
      </trkpt>
      <trkpt lat="43.86758" lon="6.61176">
        <ele>1305.55</ele>
        <time>2024-01-31T11:48:58Z</time>
      </trkpt>
      <trkpt lat="43.86741" lon="6.61309">
        <ele>1308.14</ele>
        <time>2024-01-31T11:49:38Z</time>
      </trkpt>
      <trkpt lat="43.86743" lon="6.61427">
        <ele>1316.22</ele>
        <time>2024-01-31T11:50:10Z</time>
      </trkpt>
      <trkpt lat="43.86737" lon="6.61482">
        <ele>1317.14</ele>
        <time>2024-01-31T11:50:24Z</time>
      </trkpt>
      <trkpt lat="43.86733" lon="6.61553">
        <ele>1318.59</ele>
        <time>2024-01-31T11:50:42Z</time>
      </trkpt>
      <trkpt lat="43.86735" lon="6.61603">
        <ele>1319.62</ele>
        <time>2024-01-31T11:50:55Z</time>
      </trkpt>
      <trkpt lat="43.86746" lon="6.61704">
        <ele>1320.78</ele>
        <time>2024-01-31T11:51:20Z</time>
      </trkpt>
      <trkpt lat="43.86754" lon="6.61745">
        <ele>1321.2</ele>
        <time>2024-01-31T11:51:30Z</time>
      </trkpt>
      <trkpt lat="43.86773" lon="6.618">
        <ele>1324.21</ele>
        <time>2024-01-31T11:51:47Z</time>
      </trkpt>
      <trkpt lat="43.86787" lon="6.61887">
        <ele>1325.74</ele>
        <time>2024-01-31T11:52:13Z</time>
      </trkpt>
      <trkpt lat="43.86791" lon="6.61952">
        <ele>1326.99</ele>
        <time>2024-01-31T11:52:33Z</time>
      </trkpt>
      <trkpt lat="43.86787" lon="6.61969">
        <ele>1326.84</ele>
        <time>2024-01-31T11:52:39Z</time>
      </trkpt>
      <trkpt lat="43.86744" lon="6.62091">
        <ele>1330.99</ele>
        <time>2024-01-31T11:53:25Z</time>
      </trkpt>
      <trkpt lat="43.86693" lon="6.62287">
        <ele>1334.26</ele>
        <time>2024-01-31T11:54:33Z</time>
      </trkpt>
      <trkpt lat="43.86691" lon="6.62297">
        <ele>1334.51</ele>
        <time>2024-01-31T11:54:36Z</time>
      </trkpt>
      <trkpt lat="43.86596" lon="6.62653">
        <ele>1343.51</ele>
        <time>2024-01-31T11:56:10Z</time>
      </trkpt>
      <trkpt lat="43.86585" lon="6.62711">
        <ele>1345.76</ele>
        <time>2024-01-31T11:56:26Z</time>
      </trkpt>
      <trkpt lat="43.86568" lon="6.62835">
        <ele>1349.86</ele>
        <time>2024-01-31T11:57:06Z</time>
      </trkpt>
      <trkpt lat="43.86519" lon="6.63111">
        <ele>1365.05</ele>
        <time>2024-01-31T11:58:17Z</time>
      </trkpt>
      <trkpt lat="43.86514" lon="6.63146">
        <ele>1365.65</ele>
        <time>2024-01-31T11:58:21Z</time>
      </trkpt>
      <trkpt lat="43.86514" lon="6.63179">
        <ele>1366.05</ele>
        <time>2024-01-31T11:58:23Z</time>
      </trkpt>
      <trkpt lat="43.8651" lon="6.63206">
        <ele>1363.71</ele>
        <time>2024-01-31T11:58:28Z</time>
      </trkpt>
      <trkpt lat="43.86498" lon="6.63248">
        <ele>1358.4</ele>
        <time>2024-01-31T11:58:34Z</time>
      </trkpt>
      <trkpt lat="43.86484" lon="6.63296">
        <ele>1351.67</ele>
        <time>2024-01-31T11:58:41Z</time>
      </trkpt>
      <trkpt lat="43.86472" lon="6.63312">
        <ele>1349.93</ele>
        <time>2024-01-31T11:58:45Z</time>
      </trkpt>
      <trkpt lat="43.86453" lon="6.63364">
        <ele>1342.43</ele>
        <time>2024-01-31T11:58:52Z</time>
      </trkpt>
      <trkpt lat="43.8643" lon="6.63438">
        <ele>1329.26</ele>
        <time>2024-01-31T11:59:03Z</time>
      </trkpt>
      <trkpt lat="43.8641" lon="6.63492">
        <ele>1323.64</ele>
        <time>2024-01-31T11:59:11Z</time>
      </trkpt>
      <trkpt lat="43.86392" lon="6.63569">
        <ele>1306.33</ele>
        <time>2024-01-31T11:59:22Z</time>
      </trkpt>
      <trkpt lat="43.86364" lon="6.63642">
        <ele>1294.11</ele>
        <time>2024-01-31T11:59:33Z</time>
      </trkpt>
      <trkpt lat="43.86346" lon="6.6369">
        <ele>1280.63</ele>
        <time>2024-01-31T11:59:40Z</time>
      </trkpt>
      <trkpt lat="43.86289" lon="6.63793">
        <ele>1263.27</ele>
        <time>2024-01-31T11:59:58Z</time>
      </trkpt>
      <trkpt lat="43.8628" lon="6.63812">
        <ele>1260.12</ele>
        <time>2024-01-31T12:00:01Z</time>
      </trkpt>
      <trkpt lat="43.86249" lon="6.63927">
        <ele>1230.73</ele>
        <time>2024-01-31T12:00:17Z</time>
      </trkpt>
      <trkpt lat="43.86213" lon="6.64029">
        <ele>1216.27</ele>
        <time>2024-01-31T12:00:33Z</time>
      </trkpt>
      <trkpt lat="43.86192" lon="6.64098">
        <ele>1207.31</ele>
        <time>2024-01-31T12:00:43Z</time>
      </trkpt>
      <trkpt lat="43.86164" lon="6.64244">
        <ele>1186.81</ele>
        <time>2024-01-31T12:01:04Z</time>
      </trkpt>
      <trkpt lat="43.86094" lon="6.64517">
        <ele>1162.18</ele>
        <time>2024-01-31T12:01:45Z</time>
      </trkpt>
      <trkpt lat="43.86036" lon="6.64689">
        <ele>1148.97</ele>
        <time>2024-01-31T12:02:12Z</time>
      </trkpt>
      <trkpt lat="43.8601" lon="6.64751">
        <ele>1145.1</ele>
        <time>2024-01-31T12:02:22Z</time>
      </trkpt>
      <trkpt lat="43.85973" lon="6.64789">
        <ele>1145.24</ele>
        <time>2024-01-31T12:02:32Z</time>
      </trkpt>
      <trkpt lat="43.85952" lon="6.64822">
        <ele>1143.5</ele>
        <time>2024-01-31T12:02:38Z</time>
      </trkpt>
      <trkpt lat="43.85934" lon="6.64843">
        <ele>1142.56</ele>
        <time>2024-01-31T12:02:43Z</time>
      </trkpt>
      <trkpt lat="43.85914" lon="6.64883">
        <ele>1139.99</ele>
        <time>2024-01-31T12:02:51Z</time>
      </trkpt>
      <trkpt lat="43.85884" lon="6.64917">
        <ele>1138.42</ele>
        <time>2024-01-31T12:02:56Z</time>
      </trkpt>
      <trkpt lat="43.85855" lon="6.64945">
        <ele>1137.17</ele>
        <time>2024-01-31T12:03:00Z</time>
      </trkpt>
      <trkpt lat="43.85839" lon="6.64956">
        <ele>1136.81</ele>
        <time>2024-01-31T12:03:03Z</time>
      </trkpt>
      <trkpt lat="43.858" lon="6.64973">
        <ele>1135.25</ele>
        <time>2024-01-31T12:03:08Z</time>
      </trkpt>
      <trkpt lat="43.85793" lon="6.64977">
        <ele>1134.85</ele>
        <time>2024-01-31T12:03:09Z</time>
      </trkpt>
      <trkpt lat="43.85748" lon="6.65002">
        <ele>1132.57</ele>
        <time>2024-01-31T12:03:15Z</time>
      </trkpt>
      <trkpt lat="43.85738" lon="6.65007">
        <ele>1132.14</ele>
        <time>2024-01-31T12:03:16Z</time>
      </trkpt>
      <trkpt lat="43.85733" lon="6.65009">
        <ele>1131.7</ele>
        <time>2024-01-31T12:03:17Z</time>
      </trkpt>
      <trkpt lat="43.85716" lon="6.65012">
        <ele>1131.03</ele>
        <time>2024-01-31T12:03:19Z</time>
      </trkpt>
      <trkpt lat="43.85704" lon="6.6501">
        <ele>1131.07</ele>
        <time>2024-01-31T12:03:21Z</time>
      </trkpt>
      <trkpt lat="43.85694" lon="6.65004">
        <ele>1130.94</ele>
        <time>2024-01-31T12:03:22Z</time>
      </trkpt>
      <trkpt lat="43.85671" lon="6.64987">
        <ele>1131.28</ele>
        <time>2024-01-31T12:03:26Z</time>
      </trkpt>
      <trkpt lat="43.8567" lon="6.64986">
        <ele>1131.28</ele>
        <time>2024-01-31T12:03:26Z</time>
      </trkpt>
      <trkpt lat="43.85658" lon="6.6498">
        <ele>1130.99</ele>
        <time>2024-01-31T12:03:27Z</time>
      </trkpt>
      <trkpt lat="43.8564" lon="6.6498">
        <ele>1129.44</ele>
        <time>2024-01-31T12:03:30Z</time>
      </trkpt>
      <trkpt lat="43.85626" lon="6.64985">
        <ele>1127.57</ele>
        <time>2024-01-31T12:03:32Z</time>
      </trkpt>
      <trkpt lat="43.85605" lon="6.64998">
        <ele>1125.22</ele>
        <time>2024-01-31T12:03:35Z</time>
      </trkpt>
      <trkpt lat="43.85557" lon="6.65029">
        <ele>1123.72</ele>
        <time>2024-01-31T12:03:42Z</time>
      </trkpt>
      <trkpt lat="43.85554" lon="6.65032">
        <ele>1123.72</ele>
        <time>2024-01-31T12:03:43Z</time>
      </trkpt>
      <trkpt lat="43.85536" lon="6.65044">
        <ele>1123.36</ele>
        <time>2024-01-31T12:03:46Z</time>
      </trkpt>
      <trkpt lat="43.85523" lon="6.65053">
        <ele>1122.96</ele>
        <time>2024-01-31T12:03:48Z</time>
      </trkpt>
      <trkpt lat="43.85502" lon="6.65065">
        <ele>1122.12</ele>
        <time>2024-01-31T12:03:51Z</time>
      </trkpt>
      <trkpt lat="43.85481" lon="6.65071">
        <ele>1121.28</ele>
        <time>2024-01-31T12:03:54Z</time>
      </trkpt>
      <trkpt lat="43.85454" lon="6.65082">
        <ele>1119.5</ele>
        <time>2024-01-31T12:03:59Z</time>
      </trkpt>
      <trkpt lat="43.8544" lon="6.65094">
        <ele>1118.75</ele>
        <time>2024-01-31T12:04:02Z</time>
      </trkpt>
      <trkpt lat="43.85431" lon="6.65109">
        <ele>1118.36</ele>
        <time>2024-01-31T12:04:04Z</time>
      </trkpt>
      <trkpt lat="43.85427" lon="6.65124">
        <ele>1118.44</ele>
        <time>2024-01-31T12:04:06Z</time>
      </trkpt>
      <trkpt lat="43.85426" lon="6.6514">
        <ele>1118.91</ele>
        <time>2024-01-31T12:04:08Z</time>
      </trkpt>
      <trkpt lat="43.85423" lon="6.65152">
        <ele>1119.27</ele>
        <time>2024-01-31T12:04:10Z</time>
      </trkpt>
      <trkpt lat="43.85421" lon="6.65162">
        <ele>1120.1</ele>
        <time>2024-01-31T12:04:11Z</time>
      </trkpt>
      <trkpt lat="43.85414" lon="6.65174">
        <ele>1120.1</ele>
        <time>2024-01-31T12:04:13Z</time>
      </trkpt>
      <trkpt lat="43.85256" lon="6.65372">
        <ele>1116.98</ele>
        <time>2024-01-31T12:04:46Z</time>
      </trkpt>
      <trkpt lat="43.85212" lon="6.65435">
        <ele>1117.5</ele>
        <time>2024-01-31T12:04:56Z</time>
      </trkpt>
      <trkpt lat="43.85198" lon="6.65453">
        <ele>1116.81</ele>
        <time>2024-01-31T12:04:58Z</time>
      </trkpt>
      <trkpt lat="43.85178" lon="6.65469">
        <ele>1116.81</ele>
        <time>2024-01-31T12:05:02Z</time>
      </trkpt>
      <trkpt lat="43.85158" lon="6.65478">
        <ele>1116.29</ele>
        <time>2024-01-31T12:05:05Z</time>
      </trkpt>
      <trkpt lat="43.8515" lon="6.65484">
        <ele>1115.97</ele>
        <time>2024-01-31T12:05:06Z</time>
      </trkpt>
      <trkpt lat="43.85133" lon="6.65507">
        <ele>1115.77</ele>
        <time>2024-01-31T12:05:10Z</time>
      </trkpt>
      <trkpt lat="43.85077" lon="6.65598">
        <ele>1114.21</ele>
        <time>2024-01-31T12:05:23Z</time>
      </trkpt>
      <trkpt lat="43.85069" lon="6.65623">
        <ele>1114.01</ele>
        <time>2024-01-31T12:05:27Z</time>
      </trkpt>
      <trkpt lat="43.8506" lon="6.65662">
        <ele>1115.2</ele>
        <time>2024-01-31T12:05:31Z</time>
      </trkpt>
      <trkpt lat="43.85038" lon="6.65711">
        <ele>1114.71</ele>
        <time>2024-01-31T12:05:38Z</time>
      </trkpt>
      <trkpt lat="43.85007" lon="6.65764">
        <ele>1114.36</ele>
        <time>2024-01-31T12:05:46Z</time>
      </trkpt>
      <trkpt lat="43.84991" lon="6.65796">
        <ele>1114.61</ele>
        <time>2024-01-31T12:05:50Z</time>
      </trkpt>
      <trkpt lat="43.84983" lon="6.6582">
        <ele>1114.78</ele>
        <time>2024-01-31T12:05:53Z</time>
      </trkpt>
      <trkpt lat="43.84941" lon="6.65964">
        <ele>1112.94</ele>
        <time>2024-01-31T12:06:10Z</time>
      </trkpt>
      <trkpt lat="43.84912" lon="6.6604">
        <ele>1113.09</ele>
        <time>2024-01-31T12:06:18Z</time>
      </trkpt>
      <trkpt lat="43.84887" lon="6.66108">
        <ele>1113.43</ele>
        <time>2024-01-31T12:06:26Z</time>
      </trkpt>
      <trkpt lat="43.84855" lon="6.66228">
        <ele>1111.45</ele>
        <time>2024-01-31T12:06:39Z</time>
      </trkpt>
      <trkpt lat="43.84848" lon="6.66267">
        <ele>1110.17</ele>
        <time>2024-01-31T12:06:43Z</time>
      </trkpt>
      <trkpt lat="43.8484" lon="6.66333">
        <ele>1109.56</ele>
        <time>2024-01-31T12:06:50Z</time>
      </trkpt>
      <trkpt lat="43.84834" lon="6.66395">
        <ele>1109.13</ele>
        <time>2024-01-31T12:06:57Z</time>
      </trkpt>
      <trkpt lat="43.84829" lon="6.66506">
        <ele>1107.93</ele>
        <time>2024-01-31T12:07:09Z</time>
      </trkpt>
      <trkpt lat="43.84819" lon="6.66625">
        <ele>1107.49</ele>
        <time>2024-01-31T12:07:23Z</time>
      </trkpt>
      <trkpt lat="43.84814" lon="6.66648">
        <ele>1106.94</ele>
        <time>2024-01-31T12:07:26Z</time>
      </trkpt>
      <trkpt lat="43.84773" lon="6.66767">
        <ele>1102.84</ele>
        <time>2024-01-31T12:07:41Z</time>
      </trkpt>
      <trkpt lat="43.84748" lon="6.66856">
        <ele>1103.26</ele>
        <time>2024-01-31T12:07:52Z</time>
      </trkpt>
      <trkpt lat="43.84716" lon="6.66929">
        <ele>1100.87</ele>
        <time>2024-01-31T12:08:01Z</time>
      </trkpt>
      <trkpt lat="43.84682" lon="6.67039">
        <ele>1099.34</ele>
        <time>2024-01-31T12:08:14Z</time>
      </trkpt>
      <trkpt lat="43.84584" lon="6.67289">
        <ele>1095.9</ele>
        <time>2024-01-31T12:08:45Z</time>
      </trkpt>
      <trkpt lat="43.84567" lon="6.67326">
        <ele>1095.64</ele>
        <time>2024-01-31T12:08:50Z</time>
      </trkpt>
      <trkpt lat="43.84539" lon="6.67376">
        <ele>1093.56</ele>
        <time>2024-01-31T12:08:56Z</time>
      </trkpt>
      <trkpt lat="43.84518" lon="6.67412">
        <ele>1093.41</ele>
        <time>2024-01-31T12:09:01Z</time>
      </trkpt>
      <trkpt lat="43.84511" lon="6.67424">
        <ele>1094.02</ele>
        <time>2024-01-31T12:09:03Z</time>
      </trkpt>
      <trkpt lat="43.84498" lon="6.67454">
        <ele>1094.06</ele>
        <time>2024-01-31T12:09:07Z</time>
      </trkpt>
      <trkpt lat="43.84479" lon="6.6751">
        <ele>1093.03</ele>
        <time>2024-01-31T12:09:13Z</time>
      </trkpt>
      <trkpt lat="43.84453" lon="6.67591">
        <ele>1091.69</ele>
        <time>2024-01-31T12:09:22Z</time>
      </trkpt>
      <trkpt lat="43.84447" lon="6.67613">
        <ele>1091.29</ele>
        <time>2024-01-31T12:09:25Z</time>
      </trkpt>
      <trkpt lat="43.84441" lon="6.67713">
        <ele>1090.19</ele>
        <time>2024-01-31T12:09:36Z</time>
      </trkpt>
      <trkpt lat="43.84427" lon="6.67839">
        <ele>1089.68</ele>
        <time>2024-01-31T12:09:50Z</time>
      </trkpt>
      <trkpt lat="43.8442" lon="6.6787">
        <ele>1089.13</ele>
        <time>2024-01-31T12:09:54Z</time>
      </trkpt>
      <trkpt lat="43.84398" lon="6.67944">
        <ele>1088.97</ele>
        <time>2024-01-31T12:10:02Z</time>
      </trkpt>
      <trkpt lat="43.84388" lon="6.67967">
        <ele>1088.25</ele>
        <time>2024-01-31T12:10:05Z</time>
      </trkpt>
      <trkpt lat="43.84366" lon="6.67996">
        <ele>1087</ele>
        <time>2024-01-31T12:10:09Z</time>
      </trkpt>
      <trkpt lat="43.84342" lon="6.68035">
        <ele>1085.95</ele>
        <time>2024-01-31T12:10:14Z</time>
      </trkpt>
      <trkpt lat="43.84298" lon="6.68095">
        <ele>1082.84</ele>
        <time>2024-01-31T12:10:23Z</time>
      </trkpt>
      <trkpt lat="43.84226" lon="6.68175">
        <ele>1078.08</ele>
        <time>2024-01-31T12:10:35Z</time>
      </trkpt>
      <trkpt lat="43.84196" lon="6.68216">
        <ele>1076.79</ele>
        <time>2024-01-31T12:10:41Z</time>
      </trkpt>
      <trkpt lat="43.84154" lon="6.68283">
        <ele>1076.23</ele>
        <time>2024-01-31T12:10:50Z</time>
      </trkpt>
      <trkpt lat="43.84093" lon="6.68395">
        <ele>1074.99</ele>
        <time>2024-01-31T12:11:07Z</time>
      </trkpt>
      <trkpt lat="43.84085" lon="6.68387">
        <ele>1073.98</ele>
        <time>2024-01-31T12:11:10Z</time>
      </trkpt>
      <trkpt lat="43.84053" lon="6.68376">
        <ele>1072.1</ele>
        <time>2024-01-31T12:11:20Z</time>
      </trkpt>
      <trkpt lat="43.84012" lon="6.68372">
        <ele>1070.32</ele>
        <time>2024-01-31T12:11:34Z</time>
      </trkpt>
      <trkpt lat="43.83987" lon="6.68373">
        <ele>1070.08</ele>
        <time>2024-01-31T12:11:42Z</time>
      </trkpt>
      <trkpt lat="43.83973" lon="6.68365">
        <ele>1070.12</ele>
        <time>2024-01-31T12:11:47Z</time>
      </trkpt>
      <trkpt lat="43.8397" lon="6.68359">
        <ele>1070.19</ele>
        <time>2024-01-31T12:11:49Z</time>
      </trkpt>
      <trkpt lat="43.83965" lon="6.68371">
        <ele>1070.05</ele>
        <time>2024-01-31T12:11:53Z</time>
      </trkpt>
      <trkpt lat="43.83949" lon="6.68395">
        <ele>1069.6</ele>
        <time>2024-01-31T12:12:01Z</time>
      </trkpt>
      <trkpt lat="43.83944" lon="6.68409">
        <ele>1069.38</ele>
        <time>2024-01-31T12:12:05Z</time>
      </trkpt>
      <trkpt lat="43.83936" lon="6.68423">
        <ele>1069.13</ele>
        <time>2024-01-31T12:12:10Z</time>
      </trkpt>
      <trkpt lat="43.83874" lon="6.68598">
        <ele>1067.26</ele>
        <time>2024-01-31T12:13:08Z</time>
      </trkpt>
      <trkpt lat="43.83856" lon="6.68638">
        <ele>1067.2</ele>
        <time>2024-01-31T12:13:21Z</time>
      </trkpt>
      <trkpt lat="43.83826" lon="6.68684">
        <ele>1067.92</ele>
        <time>2024-01-31T12:13:36Z</time>
      </trkpt>
      <trkpt lat="43.83809" lon="6.68718">
        <ele>1068.51</ele>
        <time>2024-01-31T12:13:46Z</time>
      </trkpt>
      <trkpt lat="43.83806" lon="6.6873">
        <ele>1068.69</ele>
        <time>2024-01-31T12:13:48Z</time>
      </trkpt>
      <trkpt lat="43.83819" lon="6.68778">
        <ele>1066.83</ele>
        <time>2024-01-31T12:13:59Z</time>
      </trkpt>
      <trkpt lat="43.83818" lon="6.68808">
        <ele>1066.49</ele>
        <time>2024-01-31T12:14:05Z</time>
      </trkpt>
      <trkpt lat="43.83821" lon="6.68847">
        <ele>1066.4</ele>
        <time>2024-01-31T12:14:12Z</time>
      </trkpt>
      <trkpt lat="43.83812" lon="6.68877">
        <ele>1066.5</ele>
        <time>2024-01-31T12:14:18Z</time>
      </trkpt>
      <trkpt lat="43.83817" lon="6.68884">
        <ele>1066.17</ele>
        <time>2024-01-31T12:14:20Z</time>
      </trkpt>
      <trkpt lat="43.83823" lon="6.68898">
        <ele>1065.74</ele>
        <time>2024-01-31T12:14:23Z</time>
      </trkpt>
      <trkpt lat="43.83826" lon="6.68949">
        <ele>1064.3</ele>
        <time>2024-01-31T12:14:32Z</time>
      </trkpt>
      <trkpt lat="43.83823" lon="6.69016">
        <ele>1063.07</ele>
        <time>2024-01-31T12:14:44Z</time>
      </trkpt>
      <trkpt lat="43.83829" lon="6.69092">
        <ele>1063.13</ele>
        <time>2024-01-31T12:14:58Z</time>
      </trkpt>
      <trkpt lat="43.83819" lon="6.6912">
        <ele>1062.58</ele>
        <time>2024-01-31T12:15:05Z</time>
      </trkpt>
      <trkpt lat="43.83832" lon="6.69128">
        <ele>1062.89</ele>
        <time>2024-01-31T12:15:08Z</time>
      </trkpt>
      <trkpt lat="43.83836" lon="6.69134">
        <ele>1063.08</ele>
        <time>2024-01-31T12:15:10Z</time>
      </trkpt>
      <trkpt lat="43.83836" lon="6.69141">
        <ele>1063.11</ele>
        <time>2024-01-31T12:15:11Z</time>
      </trkpt>
      <trkpt lat="43.83834" lon="6.69145">
        <ele>1063.12</ele>
        <time>2024-01-31T12:15:12Z</time>
      </trkpt>
      <trkpt lat="43.83826" lon="6.69152">
        <ele>1062.72</ele>
        <time>2024-01-31T12:15:15Z</time>
      </trkpt>
      <trkpt lat="43.83822" lon="6.69176">
        <ele>1062.5</ele>
        <time>2024-01-31T12:15:19Z</time>
      </trkpt>
      <trkpt lat="43.83806" lon="6.69211">
        <ele>1061.15</ele>
        <time>2024-01-31T12:15:28Z</time>
      </trkpt>
      <trkpt lat="43.83804" lon="6.69222">
        <ele>1060.81</ele>
        <time>2024-01-31T12:15:31Z</time>
      </trkpt>
      <trkpt lat="43.83801" lon="6.69272">
        <ele>1059.13</ele>
        <time>2024-01-31T12:15:42Z</time>
      </trkpt>
      <trkpt lat="43.83807" lon="6.69305">
        <ele>1059.15</ele>
        <time>2024-01-31T12:15:50Z</time>
      </trkpt>
      <trkpt lat="43.83817" lon="6.69344">
        <ele>1060.42</ele>
        <time>2024-01-31T12:16:01Z</time>
      </trkpt>
      <trkpt lat="43.83814" lon="6.69355">
        <ele>1059.73</ele>
        <time>2024-01-31T12:16:04Z</time>
      </trkpt>
      <trkpt lat="43.83797" lon="6.69391">
        <ele>1057.43</ele>
        <time>2024-01-31T12:16:14Z</time>
      </trkpt>
      <trkpt lat="43.83786" lon="6.69441">
        <ele>1056.79</ele>
        <time>2024-01-31T12:16:27Z</time>
      </trkpt>
      <trkpt lat="43.83776" lon="6.6946">
        <ele>1055.77</ele>
        <time>2024-01-31T12:16:33Z</time>
      </trkpt>
      <trkpt lat="43.83761" lon="6.69501">
        <ele>1055.27</ele>
        <time>2024-01-31T12:16:44Z</time>
      </trkpt>
      <trkpt lat="43.83759" lon="6.69519">
        <ele>1055.4</ele>
        <time>2024-01-31T12:16:49Z</time>
      </trkpt>
      <trkpt lat="43.83761" lon="6.6955">
        <ele>1056.1</ele>
        <time>2024-01-31T12:16:57Z</time>
      </trkpt>
      <trkpt lat="43.83762" lon="6.69598">
        <ele>1056.22</ele>
        <time>2024-01-31T12:17:10Z</time>
      </trkpt>
      <trkpt lat="43.83762" lon="6.69636">
        <ele>1055.06</ele>
        <time>2024-01-31T12:17:21Z</time>
      </trkpt>
      <trkpt lat="43.83764" lon="6.6967">
        <ele>1053.97</ele>
        <time>2024-01-31T12:17:31Z</time>
      </trkpt>
      <trkpt lat="43.8378" lon="6.69764">
        <ele>1054.81</ele>
        <time>2024-01-31T12:17:59Z</time>
      </trkpt>
      <trkpt lat="43.8378" lon="6.69811">
        <ele>1055.22</ele>
        <time>2024-01-31T12:18:13Z</time>
      </trkpt>
      <trkpt lat="43.83776" lon="6.69832">
        <ele>1054.36</ele>
        <time>2024-01-31T12:18:19Z</time>
      </trkpt>
      <trkpt lat="43.83748" lon="6.69922">
        <ele>1052.79</ele>
        <time>2024-01-31T12:18:44Z</time>
      </trkpt>
      <trkpt lat="43.83735" lon="6.6998">
        <ele>1052.64</ele>
        <time>2024-01-31T12:18:58Z</time>
      </trkpt>
      <trkpt lat="43.8373" lon="6.70091">
        <ele>1052.28</ele>
        <time>2024-01-31T12:19:21Z</time>
      </trkpt>
      <trkpt lat="43.83731" lon="6.70154">
        <ele>1052.13</ele>
        <time>2024-01-31T12:19:33Z</time>
      </trkpt>
      <trkpt lat="43.8373" lon="6.7023">
        <ele>1052.21</ele>
        <time>2024-01-31T12:19:46Z</time>
      </trkpt>
      <trkpt lat="43.8374" lon="6.70286">
        <ele>1052.14</ele>
        <time>2024-01-31T12:19:56Z</time>
      </trkpt>
      <trkpt lat="43.83756" lon="6.70343">
        <ele>1052.07</ele>
        <time>2024-01-31T12:20:06Z</time>
      </trkpt>
      <trkpt lat="43.83791" lon="6.70429">
        <ele>1052.99</ele>
        <time>2024-01-31T12:20:23Z</time>
      </trkpt>
      <trkpt lat="43.83805" lon="6.70488">
        <ele>1052.56</ele>
        <time>2024-01-31T12:20:34Z</time>
      </trkpt>
      <trkpt lat="43.83815" lon="6.70548">
        <ele>1052.75</ele>
        <time>2024-01-31T12:20:45Z</time>
      </trkpt>
      <trkpt lat="43.83832" lon="6.70591">
        <ele>1052.48</ele>
        <time>2024-01-31T12:20:54Z</time>
      </trkpt>
      <trkpt lat="43.83849" lon="6.70645">
        <ele>1053.02</ele>
        <time>2024-01-31T12:21:05Z</time>
      </trkpt>
      <trkpt lat="43.83862" lon="6.70718">
        <ele>1052.18</ele>
        <time>2024-01-31T12:21:20Z</time>
      </trkpt>
      <trkpt lat="43.83873" lon="6.70765">
        <ele>1051.55</ele>
        <time>2024-01-31T12:21:29Z</time>
      </trkpt>
      <trkpt lat="43.83893" lon="6.70847">
        <ele>1052.13</ele>
        <time>2024-01-31T12:21:44Z</time>
      </trkpt>
      <trkpt lat="43.83911" lon="6.70904">
        <ele>1051.5</ele>
        <time>2024-01-31T12:21:55Z</time>
      </trkpt>
      <trkpt lat="43.83923" lon="6.70979">
        <ele>1051.48</ele>
        <time>2024-01-31T12:22:09Z</time>
      </trkpt>
      <trkpt lat="43.83934" lon="6.70998">
        <ele>1051.51</ele>
        <time>2024-01-31T12:22:13Z</time>
      </trkpt>
      <trkpt lat="43.83943" lon="6.7101">
        <ele>1051.91</ele>
        <time>2024-01-31T12:22:17Z</time>
      </trkpt>
      <trkpt lat="43.83948" lon="6.71048">
        <ele>1051.75</ele>
        <time>2024-01-31T12:22:24Z</time>
      </trkpt>
      <trkpt lat="43.83963" lon="6.71062">
        <ele>1053.64</ele>
        <time>2024-01-31T12:22:28Z</time>
      </trkpt>
      <trkpt lat="43.84002" lon="6.71074">
        <ele>1060.07</ele>
        <time>2024-01-31T12:22:39Z</time>
      </trkpt>
      <trkpt lat="43.84029" lon="6.71075">
        <ele>1064.07</ele>
        <time>2024-01-31T12:22:46Z</time>
      </trkpt>
      <trkpt lat="43.84052" lon="6.71092">
        <ele>1064.4</ele>
        <time>2024-01-31T12:22:53Z</time>
      </trkpt>
      <trkpt lat="43.84064" lon="6.71096">
        <ele>1064.75</ele>
        <time>2024-01-31T12:22:56Z</time>
      </trkpt>
      <trkpt lat="43.84115" lon="6.71149">
        <ele>1062.31</ele>
        <time>2024-01-31T12:23:07Z</time>
      </trkpt>
      <trkpt lat="43.84135" lon="6.7118">
        <ele>1061.29</ele>
        <time>2024-01-31T12:23:12Z</time>
      </trkpt>
      <trkpt lat="43.84213" lon="6.71338">
        <ele>1060.59</ele>
        <time>2024-01-31T12:23:32Z</time>
      </trkpt>
      <trkpt lat="43.84229" lon="6.71378">
        <ele>1061.07</ele>
        <time>2024-01-31T12:23:37Z</time>
      </trkpt>
      <trkpt lat="43.84251" lon="6.71455">
        <ele>1060.59</ele>
        <time>2024-01-31T12:23:46Z</time>
      </trkpt>
      <trkpt lat="43.84285" lon="6.71518">
        <ele>1060.45</ele>
        <time>2024-01-31T12:23:54Z</time>
      </trkpt>
      <trkpt lat="43.84319" lon="6.71604">
        <ele>1059.58</ele>
        <time>2024-01-31T12:24:06Z</time>
      </trkpt>
      <trkpt lat="43.84355" lon="6.71663">
        <ele>1059.22</ele>
        <time>2024-01-31T12:24:14Z</time>
      </trkpt>
      <trkpt lat="43.84381" lon="6.71712">
        <ele>1058.62</ele>
        <time>2024-01-31T12:24:21Z</time>
      </trkpt>
      <trkpt lat="43.84418" lon="6.71771">
        <ele>1059.39</ele>
        <time>2024-01-31T12:24:30Z</time>
      </trkpt>
      <trkpt lat="43.84459" lon="6.71847">
        <ele>1058.34</ele>
        <time>2024-01-31T12:24:41Z</time>
      </trkpt>
      <trkpt lat="43.84492" lon="6.71916">
        <ele>1057.25</ele>
        <time>2024-01-31T12:24:51Z</time>
      </trkpt>
      <trkpt lat="43.84503" lon="6.71939">
        <ele>1057.41</ele>
        <time>2024-01-31T12:24:54Z</time>
      </trkpt>
      <trkpt lat="43.84523" lon="6.7198">
        <ele>1057.11</ele>
        <time>2024-01-31T12:25:01Z</time>
      </trkpt>
      <trkpt lat="43.8456" lon="6.72065">
        <ele>1056.69</ele>
        <time>2024-01-31T12:25:13Z</time>
      </trkpt>
      <trkpt lat="43.8459" lon="6.72143">
        <ele>1056.96</ele>
        <time>2024-01-31T12:25:23Z</time>
      </trkpt>
      <trkpt lat="43.84614" lon="6.72258">
        <ele>1056.39</ele>
        <time>2024-01-31T12:25:36Z</time>
      </trkpt>
      <trkpt lat="43.84615" lon="6.72342">
        <ele>1054.97</ele>
        <time>2024-01-31T12:25:45Z</time>
      </trkpt>
      <trkpt lat="43.84624" lon="6.72398">
        <ele>1053.95</ele>
        <time>2024-01-31T12:25:51Z</time>
      </trkpt>
      <trkpt lat="43.84639" lon="6.72465">
        <ele>1051.93</ele>
        <time>2024-01-31T12:25:58Z</time>
      </trkpt>
      <trkpt lat="43.84642" lon="6.72478">
        <ele>1051.98</ele>
        <time>2024-01-31T12:25:59Z</time>
      </trkpt>
      <trkpt lat="43.84645" lon="6.72491">
        <ele>1051.91</ele>
        <time>2024-01-31T12:26:00Z</time>
      </trkpt>
      <trkpt lat="43.8467" lon="6.72567">
        <ele>1050.47</ele>
        <time>2024-01-31T12:26:08Z</time>
      </trkpt>
      <trkpt lat="43.84677" lon="6.726">
        <ele>1047.65</ele>
        <time>2024-01-31T12:26:12Z</time>
      </trkpt>
      <trkpt lat="43.84682" lon="6.72628">
        <ele>1045.86</ele>
        <time>2024-01-31T12:26:14Z</time>
      </trkpt>
      <trkpt lat="43.84688" lon="6.72716">
        <ele>1040.62</ele>
        <time>2024-01-31T12:26:22Z</time>
      </trkpt>
      <trkpt lat="43.84689" lon="6.72721">
        <ele>1040.39</ele>
        <time>2024-01-31T12:26:23Z</time>
      </trkpt>
      <trkpt lat="43.84689" lon="6.72724">
        <ele>1040.12</ele>
        <time>2024-01-31T12:26:23Z</time>
      </trkpt>
      <trkpt lat="43.84692" lon="6.72749">
        <ele>1039.55</ele>
        <time>2024-01-31T12:26:25Z</time>
      </trkpt>
      <trkpt lat="43.84716" lon="6.72853">
        <ele>1033.83</ele>
        <time>2024-01-31T12:26:35Z</time>
      </trkpt>
      <trkpt lat="43.84718" lon="6.72861">
        <ele>1034.07</ele>
        <time>2024-01-31T12:26:36Z</time>
      </trkpt>
      <trkpt lat="43.8472" lon="6.72866">
        <ele>1033.41</ele>
        <time>2024-01-31T12:26:36Z</time>
      </trkpt>
      <trkpt lat="43.8474" lon="6.72905">
        <ele>1031.55</ele>
        <time>2024-01-31T12:26:41Z</time>
      </trkpt>
      <trkpt lat="43.84826" lon="6.73049">
        <ele>1023.17</ele>
        <time>2024-01-31T12:27:00Z</time>
      </trkpt>
      <trkpt lat="43.84837" lon="6.73063">
        <ele>1021.75</ele>
        <time>2024-01-31T12:27:03Z</time>
      </trkpt>
      <trkpt lat="43.84868" lon="6.73086">
        <ele>1021.07</ele>
        <time>2024-01-31T12:27:08Z</time>
      </trkpt>
      <trkpt lat="43.84897" lon="6.73094">
        <ele>1020.6</ele>
        <time>2024-01-31T12:27:13Z</time>
      </trkpt>
      <trkpt lat="43.84895" lon="6.73108">
        <ele>1018.14</ele>
        <time>2024-01-31T12:27:14Z</time>
      </trkpt>
      <trkpt lat="43.84895" lon="6.73126">
        <ele>1015.86</ele>
        <time>2024-01-31T12:27:16Z</time>
      </trkpt>
      <trkpt lat="43.84892" lon="6.73135">
        <ele>1015.63</ele>
        <time>2024-01-31T12:27:18Z</time>
      </trkpt>
      <trkpt lat="43.84819" lon="6.73157">
        <ele>1016.33</ele>
        <time>2024-01-31T12:27:32Z</time>
      </trkpt>
      <trkpt lat="43.84802" lon="6.73157">
        <ele>1016.34</ele>
        <time>2024-01-31T12:27:35Z</time>
      </trkpt>
      <trkpt lat="43.84768" lon="6.73157">
        <ele>1016.03</ele>
        <time>2024-01-31T12:27:41Z</time>
      </trkpt>
      <trkpt lat="43.84756" lon="6.73164">
        <ele>1016.37</ele>
        <time>2024-01-31T12:27:43Z</time>
      </trkpt>
      <trkpt lat="43.84748" lon="6.73177">
        <ele>1016.52</ele>
        <time>2024-01-31T12:27:45Z</time>
      </trkpt>
      <trkpt lat="43.84721" lon="6.73253">
        <ele>1018.72</ele>
        <time>2024-01-31T12:27:55Z</time>
      </trkpt>
      <trkpt lat="43.84691" lon="6.73324">
        <ele>1019.19</ele>
        <time>2024-01-31T12:28:07Z</time>
      </trkpt>
      <trkpt lat="43.8468" lon="6.7336">
        <ele>1019.09</ele>
        <time>2024-01-31T12:28:14Z</time>
      </trkpt>
      <trkpt lat="43.84635" lon="6.73533">
        <ele>1020.83</ele>
        <time>2024-01-31T12:28:46Z</time>
      </trkpt>
      <trkpt lat="43.8461" lon="6.73607">
        <ele>1021.91</ele>
        <time>2024-01-31T12:29:03Z</time>
      </trkpt>
      <trkpt lat="43.8457" lon="6.73678">
        <ele>1023.81</ele>
        <time>2024-01-31T12:29:22Z</time>
      </trkpt>
      <trkpt lat="43.84514" lon="6.73756">
        <ele>1024.24</ele>
        <time>2024-01-31T12:29:45Z</time>
      </trkpt>
      <trkpt lat="43.84485" lon="6.73782">
        <ele>1024.76</ele>
        <time>2024-01-31T12:29:56Z</time>
      </trkpt>
      <trkpt lat="43.84481" lon="6.73793">
        <ele>1025.02</ele>
        <time>2024-01-31T12:29:59Z</time>
      </trkpt>
      <trkpt lat="43.84482" lon="6.73848">
        <ele>1026.19</ele>
        <time>2024-01-31T12:30:13Z</time>
      </trkpt>
      <trkpt lat="43.8448" lon="6.73862">
        <ele>1026.66</ele>
        <time>2024-01-31T12:30:16Z</time>
      </trkpt>
      <trkpt lat="43.8447" lon="6.7388">
        <ele>1026.76</ele>
        <time>2024-01-31T12:30:21Z</time>
      </trkpt>
      <trkpt lat="43.84439" lon="6.73955">
        <ele>1027.92</ele>
        <time>2024-01-31T12:30:38Z</time>
      </trkpt>
      <trkpt lat="43.84416" lon="6.74055">
        <ele>1030.19</ele>
        <time>2024-01-31T12:30:53Z</time>
      </trkpt>
      <trkpt lat="43.84407" lon="6.74102">
        <ele>1030.7</ele>
        <time>2024-01-31T12:30:59Z</time>
      </trkpt>
      <trkpt lat="43.84403" lon="6.74149">
        <ele>1032.53</ele>
        <time>2024-01-31T12:31:04Z</time>
      </trkpt>
      <trkpt lat="43.84395" lon="6.74187">
        <ele>1034.07</ele>
        <time>2024-01-31T12:31:09Z</time>
      </trkpt>
      <trkpt lat="43.84382" lon="6.74212">
        <ele>1032.7</ele>
        <time>2024-01-31T12:31:13Z</time>
      </trkpt>
      <trkpt lat="43.84336" lon="6.74276">
        <ele>1031.71</ele>
        <time>2024-01-31T12:31:22Z</time>
      </trkpt>
      <trkpt lat="43.84292" lon="6.74326">
        <ele>1033.21</ele>
        <time>2024-01-31T12:31:32Z</time>
      </trkpt>
      <trkpt lat="43.84284" lon="6.74344">
        <ele>1033.56</ele>
        <time>2024-01-31T12:31:35Z</time>
      </trkpt>
      <trkpt lat="43.84275" lon="6.74362">
        <ele>1033.85</ele>
        <time>2024-01-31T12:31:38Z</time>
      </trkpt>
      <trkpt lat="43.84256" lon="6.74383">
        <ele>1033.05</ele>
        <time>2024-01-31T12:31:44Z</time>
      </trkpt>
      <trkpt lat="43.84159" lon="6.74421">
        <ele>1034.68</ele>
        <time>2024-01-31T12:32:15Z</time>
      </trkpt>
      <trkpt lat="43.84072" lon="6.74471">
        <ele>1036.04</ele>
        <time>2024-01-31T12:32:57Z</time>
      </trkpt>
      <trkpt lat="43.84014" lon="6.74499">
        <ele>1037.26</ele>
        <time>2024-01-31T12:33:23Z</time>
      </trkpt>
      <trkpt lat="43.83964" lon="6.7452">
        <ele>1039.26</ele>
        <time>2024-01-31T12:33:42Z</time>
      </trkpt>
      <trkpt lat="43.83938" lon="6.74522">
        <ele>1040.84</ele>
        <time>2024-01-31T12:33:50Z</time>
      </trkpt>
      <trkpt lat="43.83836" lon="6.74492">
        <ele>1043.55</ele>
        <time>2024-01-31T12:34:12Z</time>
      </trkpt>
      <trkpt lat="43.838" lon="6.74489">
        <ele>1042.78</ele>
        <time>2024-01-31T12:34:17Z</time>
      </trkpt>
      <trkpt lat="43.83786" lon="6.74492">
        <ele>1042.98</ele>
        <time>2024-01-31T12:34:19Z</time>
      </trkpt>
      <trkpt lat="43.8376" lon="6.74501">
        <ele>1041.33</ele>
        <time>2024-01-31T12:34:23Z</time>
      </trkpt>
      <trkpt lat="43.8375" lon="6.74507">
        <ele>1039.77</ele>
        <time>2024-01-31T12:34:25Z</time>
      </trkpt>
      <trkpt lat="43.83741" lon="6.7452">
        <ele>1039.85</ele>
        <time>2024-01-31T12:34:26Z</time>
      </trkpt>
      <trkpt lat="43.83732" lon="6.74538">
        <ele>1039.57</ele>
        <time>2024-01-31T12:34:29Z</time>
      </trkpt>
      <trkpt lat="43.83717" lon="6.74616">
        <ele>1042.75</ele>
        <time>2024-01-31T12:34:37Z</time>
      </trkpt>
      <trkpt lat="43.83709" lon="6.7464">
        <ele>1041.38</ele>
        <time>2024-01-31T12:34:40Z</time>
      </trkpt>
      <trkpt lat="43.837" lon="6.74658">
        <ele>1039.98</ele>
        <time>2024-01-31T12:34:42Z</time>
      </trkpt>
      <trkpt lat="43.83652" lon="6.74728">
        <ele>1038.39</ele>
        <time>2024-01-31T12:34:53Z</time>
      </trkpt>
      <trkpt lat="43.83638" lon="6.74761">
        <ele>1039.92</ele>
        <time>2024-01-31T12:34:58Z</time>
      </trkpt>
      <trkpt lat="43.83618" lon="6.74849">
        <ele>1040.69</ele>
        <time>2024-01-31T12:35:10Z</time>
      </trkpt>
      <trkpt lat="43.83597" lon="6.7498">
        <ele>1043.58</ele>
        <time>2024-01-31T12:35:36Z</time>
      </trkpt>
      <trkpt lat="43.83593" lon="6.75003">
        <ele>1043.98</ele>
        <time>2024-01-31T12:35:40Z</time>
      </trkpt>
      <trkpt lat="43.8357" lon="6.75136">
        <ele>1047.19</ele>
        <time>2024-01-31T12:36:10Z</time>
      </trkpt>
      <trkpt lat="43.83541" lon="6.75279">
        <ele>1052.91</ele>
        <time>2024-01-31T12:36:43Z</time>
      </trkpt>
      <trkpt lat="43.83486" lon="6.75477">
        <ele>1057</ele>
        <time>2024-01-31T12:37:19Z</time>
      </trkpt>
      <trkpt lat="43.83477" lon="6.75523">
        <ele>1056.94</ele>
        <time>2024-01-31T12:37:27Z</time>
      </trkpt>
      <trkpt lat="43.83477" lon="6.75553">
        <ele>1059.58</ele>
        <time>2024-01-31T12:37:33Z</time>
      </trkpt>
      <trkpt lat="43.83452" lon="6.75647">
        <ele>1057.81</ele>
        <time>2024-01-31T12:37:51Z</time>
      </trkpt>
      <trkpt lat="43.83437" lon="6.75771">
        <ele>1057.38</ele>
        <time>2024-01-31T12:38:13Z</time>
      </trkpt>
      <trkpt lat="43.83425" lon="6.75835">
        <ele>1060.91</ele>
        <time>2024-01-31T12:38:25Z</time>
      </trkpt>
      <trkpt lat="43.83407" lon="6.75898">
        <ele>1060.24</ele>
        <time>2024-01-31T12:38:38Z</time>
      </trkpt>
      <trkpt lat="43.83379" lon="6.75965">
        <ele>1061.41</ele>
        <time>2024-01-31T12:38:54Z</time>
      </trkpt>
      <trkpt lat="43.83353" lon="6.76022">
        <ele>1062.7</ele>
        <time>2024-01-31T12:39:08Z</time>
      </trkpt>
      <trkpt lat="43.83324" lon="6.76065">
        <ele>1060.23</ele>
        <time>2024-01-31T12:39:20Z</time>
      </trkpt>
      <trkpt lat="43.83314" lon="6.7608">
        <ele>1059.87</ele>
        <time>2024-01-31T12:39:24Z</time>
      </trkpt>
      <trkpt lat="43.83265" lon="6.76142">
        <ele>1063.56</ele>
        <time>2024-01-31T12:39:45Z</time>
      </trkpt>
      <trkpt lat="43.83197" lon="6.76209">
        <ele>1067.68</ele>
        <time>2024-01-31T12:40:13Z</time>
      </trkpt>
      <trkpt lat="43.83179" lon="6.76218">
        <ele>1067.45</ele>
        <time>2024-01-31T12:40:20Z</time>
      </trkpt>
      <trkpt lat="43.83139" lon="6.76222">
        <ele>1064.53</ele>
        <time>2024-01-31T12:40:34Z</time>
      </trkpt>
      <trkpt lat="43.83102" lon="6.76233">
        <ele>1061.59</ele>
        <time>2024-01-31T12:40:46Z</time>
      </trkpt>
      <trkpt lat="43.83083" lon="6.76247">
        <ele>1061.28</ele>
        <time>2024-01-31T12:40:53Z</time>
      </trkpt>
      <trkpt lat="43.83063" lon="6.76273">
        <ele>1062.17</ele>
        <time>2024-01-31T12:41:01Z</time>
      </trkpt>
      <trkpt lat="43.83056" lon="6.76281">
        <ele>1062.33</ele>
        <time>2024-01-31T12:41:04Z</time>
      </trkpt>
      <trkpt lat="43.83014" lon="6.763">
        <ele>1068.14</ele>
        <time>2024-01-31T12:41:16Z</time>
      </trkpt>
      <trkpt lat="43.82988" lon="6.76318">
        <ele>1070.12</ele>
        <time>2024-01-31T12:41:24Z</time>
      </trkpt>
      <trkpt lat="43.82958" lon="6.76345">
        <ele>1072.35</ele>
        <time>2024-01-31T12:41:33Z</time>
      </trkpt>
      <trkpt lat="43.82875" lon="6.76439">
        <ele>1075.49</ele>
        <time>2024-01-31T12:41:53Z</time>
      </trkpt>
      <trkpt lat="43.82813" lon="6.76498">
        <ele>1077.52</ele>
        <time>2024-01-31T12:42:06Z</time>
      </trkpt>
      <trkpt lat="43.82757" lon="6.76558">
        <ele>1077.43</ele>
        <time>2024-01-31T12:42:17Z</time>
      </trkpt>
      <trkpt lat="43.82721" lon="6.76653">
        <ele>1078.08</ele>
        <time>2024-01-31T12:42:30Z</time>
      </trkpt>
      <trkpt lat="43.8271" lon="6.76676">
        <ele>1077.28</ele>
        <time>2024-01-31T12:42:33Z</time>
      </trkpt>
      <trkpt lat="43.8265" lon="6.76763">
        <ele>1073.64</ele>
        <time>2024-01-31T12:42:47Z</time>
      </trkpt>
      <trkpt lat="43.82624" lon="6.76804">
        <ele>1075.96</ele>
        <time>2024-01-31T12:42:53Z</time>
      </trkpt>
      <trkpt lat="43.82596" lon="6.7686">
        <ele>1076.86</ele>
        <time>2024-01-31T12:43:01Z</time>
      </trkpt>
      <trkpt lat="43.82582" lon="6.76897">
        <ele>1075.74</ele>
        <time>2024-01-31T12:43:06Z</time>
      </trkpt>
      <trkpt lat="43.82577" lon="6.7693">
        <ele>1075.43</ele>
        <time>2024-01-31T12:43:10Z</time>
      </trkpt>
      <trkpt lat="43.82575" lon="6.76993">
        <ele>1075.48</ele>
        <time>2024-01-31T12:43:18Z</time>
      </trkpt>
      <trkpt lat="43.82555" lon="6.77188">
        <ele>1079.62</ele>
        <time>2024-01-31T12:43:53Z</time>
      </trkpt>
      <trkpt lat="43.82553" lon="6.77318">
        <ele>1084.2</ele>
        <time>2024-01-31T12:44:20Z</time>
      </trkpt>
      <trkpt lat="43.82544" lon="6.7743">
        <ele>1087.41</ele>
        <time>2024-01-31T12:44:44Z</time>
      </trkpt>
      <trkpt lat="43.82543" lon="6.77499">
        <ele>1088.09</ele>
        <time>2024-01-31T12:44:58Z</time>
      </trkpt>
      <trkpt lat="43.82544" lon="6.77534">
        <ele>1088.7</ele>
        <time>2024-01-31T12:45:05Z</time>
      </trkpt>
      <trkpt lat="43.82552" lon="6.77611">
        <ele>1089.03</ele>
        <time>2024-01-31T12:45:21Z</time>
      </trkpt>
      <trkpt lat="43.82556" lon="6.77694">
        <ele>1090.95</ele>
        <time>2024-01-31T12:45:38Z</time>
      </trkpt>
      <trkpt lat="43.82555" lon="6.77749">
        <ele>1091.08</ele>
        <time>2024-01-31T12:45:50Z</time>
      </trkpt>
      <trkpt lat="43.82542" lon="6.77922">
        <ele>1092.52</ele>
        <time>2024-01-31T12:46:28Z</time>
      </trkpt>
      <trkpt lat="43.82559" lon="6.78035">
        <ele>1093.68</ele>
        <time>2024-01-31T12:46:50Z</time>
      </trkpt>
      <trkpt lat="43.8256" lon="6.78082">
        <ele>1093.66</ele>
        <time>2024-01-31T12:46:58Z</time>
      </trkpt>
      <trkpt lat="43.82558" lon="6.78096">
        <ele>1093.72</ele>
        <time>2024-01-31T12:47:00Z</time>
      </trkpt>
      <trkpt lat="43.82551" lon="6.78117">
        <ele>1093.43</ele>
        <time>2024-01-31T12:47:03Z</time>
      </trkpt>
      <trkpt lat="43.82533" lon="6.78155">
        <ele>1093.13</ele>
        <time>2024-01-31T12:47:09Z</time>
      </trkpt>
      <trkpt lat="43.82528" lon="6.78173">
        <ele>1093.31</ele>
        <time>2024-01-31T12:47:12Z</time>
      </trkpt>
      <trkpt lat="43.82525" lon="6.78199">
        <ele>1093.77</ele>
        <time>2024-01-31T12:47:15Z</time>
      </trkpt>
      <trkpt lat="43.8254" lon="6.78372">
        <ele>1094.38</ele>
        <time>2024-01-31T12:47:36Z</time>
      </trkpt>
      <trkpt lat="43.82546" lon="6.78564">
        <ele>1095.41</ele>
        <time>2024-01-31T12:48:08Z</time>
      </trkpt>
      <trkpt lat="43.82545" lon="6.78628">
        <ele>1096.22</ele>
        <time>2024-01-31T12:48:22Z</time>
      </trkpt>
      <trkpt lat="43.8254" lon="6.78699">
        <ele>1097.54</ele>
        <time>2024-01-31T12:48:39Z</time>
      </trkpt>
      <trkpt lat="43.82524" lon="6.78748">
        <ele>1098.28</ele>
        <time>2024-01-31T12:48:52Z</time>
      </trkpt>
      <trkpt lat="43.82511" lon="6.78798">
        <ele>1098.98</ele>
        <time>2024-01-31T12:49:05Z</time>
      </trkpt>
      <trkpt lat="43.82479" lon="6.78964">
        <ele>1102.68</ele>
        <time>2024-01-31T12:49:44Z</time>
      </trkpt>
      <trkpt lat="43.8248" lon="6.79036">
        <ele>1102.69</ele>
        <time>2024-01-31T12:50:00Z</time>
      </trkpt>
      <trkpt lat="43.82477" lon="6.79039">
        <ele>1102.67</ele>
        <time>2024-01-31T12:50:02Z</time>
      </trkpt>
      <trkpt lat="43.82476" lon="6.79054">
        <ele>1102.62</ele>
        <time>2024-01-31T12:50:07Z</time>
      </trkpt>
      <trkpt lat="43.82463" lon="6.79075">
        <ele>1103.25</ele>
        <time>2024-01-31T12:50:16Z</time>
      </trkpt>
      <trkpt lat="43.8245" lon="6.79089">
        <ele>1104.82</ele>
        <time>2024-01-31T12:50:23Z</time>
      </trkpt>
      <trkpt lat="43.82434" lon="6.79112">
        <ele>1106.63</ele>
        <time>2024-01-31T12:50:34Z</time>
      </trkpt>
      <trkpt lat="43.82407" lon="6.79163">
        <ele>1107.53</ele>
        <time>2024-01-31T12:50:57Z</time>
      </trkpt>
      <trkpt lat="43.82391" lon="6.79205">
        <ele>1111.69</ele>
        <time>2024-01-31T12:51:16Z</time>
      </trkpt>
      <trkpt lat="43.82368" lon="6.79243">
        <ele>1110.85</ele>
        <time>2024-01-31T12:51:36Z</time>
      </trkpt>
      <trkpt lat="43.82356" lon="6.79367">
        <ele>1117.96</ele>
        <time>2024-01-31T12:52:30Z</time>
      </trkpt>
      <trkpt lat="43.82357" lon="6.79396">
        <ele>1120.32</ele>
        <time>2024-01-31T12:52:44Z</time>
      </trkpt>
      <trkpt lat="43.82363" lon="6.79434">
        <ele>1122.97</ele>
        <time>2024-01-31T12:53:01Z</time>
      </trkpt>
      <trkpt lat="43.82373" lon="6.79459">
        <ele>1124.75</ele>
        <time>2024-01-31T12:53:15Z</time>
      </trkpt>
      <trkpt lat="43.82387" lon="6.79506">
        <ele>1127.25</ele>
        <time>2024-01-31T12:53:39Z</time>
      </trkpt>
      <trkpt lat="43.82401" lon="6.79536">
        <ele>1129.88</ele>
        <time>2024-01-31T12:53:57Z</time>
      </trkpt>
      <trkpt lat="43.82405" lon="6.79557">
        <ele>1130.16</ele>
        <time>2024-01-31T12:54:08Z</time>
      </trkpt>
      <trkpt lat="43.82399" lon="6.79613">
        <ele>1131.21</ele>
        <time>2024-01-31T12:54:36Z</time>
      </trkpt>
      <trkpt lat="43.824" lon="6.79633">
        <ele>1132.61</ele>
        <time>2024-01-31T12:54:47Z</time>
      </trkpt>
      <trkpt lat="43.82392" lon="6.79654">
        <ele>1133.79</ele>
        <time>2024-01-31T12:54:59Z</time>
      </trkpt>
      <trkpt lat="43.82395" lon="6.79668">
        <ele>1135.8</ele>
        <time>2024-01-31T12:55:07Z</time>
      </trkpt>
      <trkpt lat="43.82391" lon="6.79718">
        <ele>1141.12</ele>
        <time>2024-01-31T12:55:35Z</time>
      </trkpt>
      <trkpt lat="43.82375" lon="6.79761">
        <ele>1142.4</ele>
        <time>2024-01-31T12:56:02Z</time>
      </trkpt>
      <trkpt lat="43.82373" lon="6.79781">
        <ele>1143.96</ele>
        <time>2024-01-31T12:56:14Z</time>
      </trkpt>
      <trkpt lat="43.82377" lon="6.79803">
        <ele>1147.2</ele>
        <time>2024-01-31T12:56:27Z</time>
      </trkpt>
      <trkpt lat="43.82368" lon="6.79848">
        <ele>1149.9</ele>
        <time>2024-01-31T12:56:55Z</time>
      </trkpt>
      <trkpt lat="43.82353" lon="6.799">
        <ele>1154.01</ele>
        <time>2024-01-31T12:57:30Z</time>
      </trkpt>
      <trkpt lat="43.82353" lon="6.79911">
        <ele>1154.72</ele>
        <time>2024-01-31T12:57:36Z</time>
      </trkpt>
      <trkpt lat="43.82361" lon="6.79946">
        <ele>1158.95</ele>
        <time>2024-01-31T12:57:59Z</time>
      </trkpt>
      <trkpt lat="43.82362" lon="6.79975">
        <ele>1162.62</ele>
        <time>2024-01-31T12:58:18Z</time>
      </trkpt>
      <trkpt lat="43.82359" lon="6.80024">
        <ele>1169.2</ele>
        <time>2024-01-31T12:58:48Z</time>
      </trkpt>
      <trkpt lat="43.82361" lon="6.80076">
        <ele>1174.42</ele>
        <time>2024-01-31T12:59:18Z</time>
      </trkpt>
      <trkpt lat="43.82359" lon="6.80093">
        <ele>1175.65</ele>
        <time>2024-01-31T12:59:28Z</time>
      </trkpt>
      <trkpt lat="43.82322" lon="6.80178">
        <ele>1191.39</ele>
        <time>2024-01-31T13:00:20Z</time>
      </trkpt>
      <trkpt lat="43.82317" lon="6.80216">
        <ele>1198.45</ele>
        <time>2024-01-31T13:00:39Z</time>
      </trkpt>
      <trkpt lat="43.82304" lon="6.80256">
        <ele>1203.17</ele>
        <time>2024-01-31T13:01:01Z</time>
      </trkpt>
      <trkpt lat="43.82293" lon="6.80259">
        <ele>1202.38</ele>
        <time>2024-01-31T13:01:08Z</time>
      </trkpt>
      <trkpt lat="43.82281" lon="6.80253">
        <ele>1201.1</ele>
        <time>2024-01-31T13:01:17Z</time>
      </trkpt>
      <trkpt lat="43.82265" lon="6.80224">
        <ele>1200.88</ele>
        <time>2024-01-31T13:01:36Z</time>
      </trkpt>
      <trkpt lat="43.82242" lon="6.80133">
        <ele>1209.6</ele>
        <time>2024-01-31T13:02:21Z</time>
      </trkpt>
      <trkpt lat="43.82226" lon="6.8013">
        <ele>1210.32</ele>
        <time>2024-01-31T13:02:33Z</time>
      </trkpt>
      <trkpt lat="43.8221" lon="6.80135">
        <ele>1209.06</ele>
        <time>2024-01-31T13:02:43Z</time>
      </trkpt>
      <trkpt lat="43.82183" lon="6.80127">
        <ele>1208.64</ele>
        <time>2024-01-31T13:03:02Z</time>
      </trkpt>
      <trkpt lat="43.8218" lon="6.80134">
        <ele>1208.33</ele>
        <time>2024-01-31T13:03:05Z</time>
      </trkpt>
      <trkpt lat="43.82167" lon="6.80144">
        <ele>1208.72</ele>
        <time>2024-01-31T13:03:16Z</time>
      </trkpt>
      <trkpt lat="43.82162" lon="6.80154">
        <ele>1209.5</ele>
        <time>2024-01-31T13:03:22Z</time>
      </trkpt>
      <trkpt lat="43.82152" lon="6.80268">
        <ele>1200.1</ele>
        <time>2024-01-31T13:04:15Z</time>
      </trkpt>
      <trkpt lat="43.82138" lon="6.80334">
        <ele>1202.08</ele>
        <time>2024-01-31T13:04:39Z</time>
      </trkpt>
      <trkpt lat="43.82128" lon="6.80394">
        <ele>1205.49</ele>
        <time>2024-01-31T13:04:57Z</time>
      </trkpt>
      <trkpt lat="43.8212" lon="6.80451">
        <ele>1205.65</ele>
        <time>2024-01-31T13:05:14Z</time>
      </trkpt>
      <trkpt lat="43.82118" lon="6.80511">
        <ele>1204.74</ele>
        <time>2024-01-31T13:05:33Z</time>
      </trkpt>
      <trkpt lat="43.82116" lon="6.80517">
        <ele>1204.42</ele>
        <time>2024-01-31T13:05:35Z</time>
      </trkpt>
      <trkpt lat="43.82113" lon="6.80518">
        <ele>1206.3</ele>
        <time>2024-01-31T13:05:37Z</time>
      </trkpt>
      <trkpt lat="43.82109" lon="6.80516">
        <ele>1208.9</ele>
        <time>2024-01-31T13:05:40Z</time>
      </trkpt>
      <trkpt lat="43.82108" lon="6.80509">
        <ele>1209.23</ele>
        <time>2024-01-31T13:05:42Z</time>
      </trkpt>
      <trkpt lat="43.8211" lon="6.80495">
        <ele>1210.37</ele>
        <time>2024-01-31T13:05:47Z</time>
      </trkpt>
      <trkpt lat="43.82107" lon="6.80402">
        <ele>1215.92</ele>
        <time>2024-01-31T13:06:19Z</time>
      </trkpt>
      <trkpt lat="43.82086" lon="6.80193">
        <ele>1229.16</ele>
        <time>2024-01-31T13:07:37Z</time>
      </trkpt>
      <trkpt lat="43.8206" lon="6.80022">
        <ele>1238.88</ele>
        <time>2024-01-31T13:08:38Z</time>
      </trkpt>
      <trkpt lat="43.82038" lon="6.79909">
        <ele>1245.8</ele>
        <time>2024-01-31T13:09:21Z</time>
      </trkpt>
      <trkpt lat="43.8203" lon="6.79875">
        <ele>1248.06</ele>
        <time>2024-01-31T13:09:34Z</time>
      </trkpt>
      <trkpt lat="43.8201" lon="6.79848">
        <ele>1253.7</ele>
        <time>2024-01-31T13:09:49Z</time>
      </trkpt>
      <trkpt lat="43.81998" lon="6.79826">
        <ele>1258.28</ele>
        <time>2024-01-31T13:09:58Z</time>
      </trkpt>
      <trkpt lat="43.81991" lon="6.79804">
        <ele>1261.27</ele>
        <time>2024-01-31T13:10:07Z</time>
      </trkpt>
      <trkpt lat="43.81985" lon="6.79695">
        <ele>1261.38</ele>
        <time>2024-01-31T13:10:46Z</time>
      </trkpt>
      <trkpt lat="43.81964" lon="6.79599">
        <ele>1268.23</ele>
        <time>2024-01-31T13:11:22Z</time>
      </trkpt>
      <trkpt lat="43.81957" lon="6.79553">
        <ele>1268.24</ele>
        <time>2024-01-31T13:11:39Z</time>
      </trkpt>
      <trkpt lat="43.81956" lon="6.79547">
        <ele>1269.05</ele>
        <time>2024-01-31T13:11:41Z</time>
      </trkpt>
      <trkpt lat="43.81953" lon="6.79546">
        <ele>1269.05</ele>
        <time>2024-01-31T13:11:43Z</time>
      </trkpt>
      <trkpt lat="43.81948" lon="6.79547">
        <ele>1271.36</ele>
        <time>2024-01-31T13:11:46Z</time>
      </trkpt>
      <trkpt lat="43.81947" lon="6.79552">
        <ele>1271.56</ele>
        <time>2024-01-31T13:11:48Z</time>
      </trkpt>
      <trkpt lat="43.8195" lon="6.79628">
        <ele>1272.78</ele>
        <time>2024-01-31T13:12:17Z</time>
      </trkpt>
      <trkpt lat="43.81949" lon="6.79686">
        <ele>1274.42</ele>
        <time>2024-01-31T13:12:39Z</time>
      </trkpt>
      <trkpt lat="43.81947" lon="6.79732">
        <ele>1278.54</ele>
        <time>2024-01-31T13:12:58Z</time>
      </trkpt>
      <trkpt lat="43.81938" lon="6.79806">
        <ele>1285.09</ele>
        <time>2024-01-31T13:13:29Z</time>
      </trkpt>
      <trkpt lat="43.81936" lon="6.79847">
        <ele>1286.46</ele>
        <time>2024-01-31T13:13:45Z</time>
      </trkpt>
      <trkpt lat="43.81941" lon="6.80026">
        <ele>1294.48</ele>
        <time>2024-01-31T13:14:47Z</time>
      </trkpt>
      <trkpt lat="43.81945" lon="6.80091">
        <ele>1294.55</ele>
        <time>2024-01-31T13:15:08Z</time>
      </trkpt>
      <trkpt lat="43.81942" lon="6.80145">
        <ele>1298.96</ele>
        <time>2024-01-31T13:15:25Z</time>
      </trkpt>
      <trkpt lat="43.81944" lon="6.80179">
        <ele>1297.2</ele>
        <time>2024-01-31T13:15:35Z</time>
      </trkpt>
      <trkpt lat="43.81942" lon="6.80259">
        <ele>1302.4</ele>
        <time>2024-01-31T13:15:58Z</time>
      </trkpt>
      <trkpt lat="43.81937" lon="6.80356">
        <ele>1308.23</ele>
        <time>2024-01-31T13:16:26Z</time>
      </trkpt>
      <trkpt lat="43.81939" lon="6.80386">
        <ele>1308.3</ele>
        <time>2024-01-31T13:16:34Z</time>
      </trkpt>
      <trkpt lat="43.81937" lon="6.80411">
        <ele>1308.37</ele>
        <time>2024-01-31T13:16:41Z</time>
      </trkpt>
      <trkpt lat="43.81933" lon="6.8044">
        <ele>1311.53</ele>
        <time>2024-01-31T13:16:49Z</time>
      </trkpt>
      <trkpt lat="43.81926" lon="6.80533">
        <ele>1316.78</ele>
        <time>2024-01-31T13:17:15Z</time>
      </trkpt>
      <trkpt lat="43.81918" lon="6.80578">
        <ele>1323.65</ele>
        <time>2024-01-31T13:17:27Z</time>
      </trkpt>
      <trkpt lat="43.81917" lon="6.80596">
        <ele>1324.91</ele>
        <time>2024-01-31T13:17:32Z</time>
      </trkpt>
      <trkpt lat="43.81924" lon="6.80645">
        <ele>1325.95</ele>
        <time>2024-01-31T13:17:47Z</time>
      </trkpt>
      <trkpt lat="43.81935" lon="6.80692">
        <ele>1327.15</ele>
        <time>2024-01-31T13:18:04Z</time>
      </trkpt>
      <trkpt lat="43.81938" lon="6.80719">
        <ele>1326.61</ele>
        <time>2024-01-31T13:18:13Z</time>
      </trkpt>
      <trkpt lat="43.81939" lon="6.80749">
        <ele>1326.61</ele>
        <time>2024-01-31T13:18:23Z</time>
      </trkpt>
      <trkpt lat="43.81937" lon="6.8078">
        <ele>1324.31</ele>
        <time>2024-01-31T13:18:33Z</time>
      </trkpt>
      <trkpt lat="43.81934" lon="6.80782">
        <ele>1327.39</ele>
        <time>2024-01-31T13:18:35Z</time>
      </trkpt>
      <trkpt lat="43.8193" lon="6.80778">
        <ele>1330.87</ele>
        <time>2024-01-31T13:18:37Z</time>
      </trkpt>
      <trkpt lat="43.81932" lon="6.80746">
        <ele>1329.75</ele>
        <time>2024-01-31T13:18:47Z</time>
      </trkpt>
      <trkpt lat="43.81923" lon="6.80709">
        <ele>1334.88</ele>
        <time>2024-01-31T13:18:59Z</time>
      </trkpt>
      <trkpt lat="43.81897" lon="6.80644">
        <ele>1341.92</ele>
        <time>2024-01-31T13:19:19Z</time>
      </trkpt>
      <trkpt lat="43.81882" lon="6.80592">
        <ele>1345.14</ele>
        <time>2024-01-31T13:19:35Z</time>
      </trkpt>
      <trkpt lat="43.81886" lon="6.80532">
        <ele>1342.04</ele>
        <time>2024-01-31T13:19:55Z</time>
      </trkpt>
      <trkpt lat="43.81885" lon="6.80463">
        <ele>1344.2</ele>
        <time>2024-01-31T13:20:19Z</time>
      </trkpt>
      <trkpt lat="43.81889" lon="6.80443">
        <ele>1341.99</ele>
        <time>2024-01-31T13:20:27Z</time>
      </trkpt>
      <trkpt lat="43.81889" lon="6.80426">
        <ele>1342.16</ele>
        <time>2024-01-31T13:20:33Z</time>
      </trkpt>
      <trkpt lat="43.81865" lon="6.80345">
        <ele>1355.65</ele>
        <time>2024-01-31T13:21:05Z</time>
      </trkpt>
      <trkpt lat="43.81848" lon="6.8027">
        <ele>1361.55</ele>
        <time>2024-01-31T13:21:37Z</time>
      </trkpt>
      <trkpt lat="43.81842" lon="6.80207">
        <ele>1363.56</ele>
        <time>2024-01-31T13:22:03Z</time>
      </trkpt>
      <trkpt lat="43.81846" lon="6.80172">
        <ele>1360.86</ele>
        <time>2024-01-31T13:22:16Z</time>
      </trkpt>
      <trkpt lat="43.81842" lon="6.80166">
        <ele>1363.46</ele>
        <time>2024-01-31T13:22:19Z</time>
      </trkpt>
      <trkpt lat="43.81837" lon="6.80172">
        <ele>1366.04</ele>
        <time>2024-01-31T13:22:21Z</time>
      </trkpt>
      <trkpt lat="43.81835" lon="6.80213">
        <ele>1368.66</ele>
        <time>2024-01-31T13:22:33Z</time>
      </trkpt>
      <trkpt lat="43.81829" lon="6.80262">
        <ele>1371.53</ele>
        <time>2024-01-31T13:22:46Z</time>
      </trkpt>
      <trkpt lat="43.81828" lon="6.80412">
        <ele>1378.68</ele>
        <time>2024-01-31T13:23:21Z</time>
      </trkpt>
      <trkpt lat="43.81814" lon="6.80495">
        <ele>1381.98</ele>
        <time>2024-01-31T13:23:40Z</time>
      </trkpt>
      <trkpt lat="43.81797" lon="6.80561">
        <ele>1385.78</ele>
        <time>2024-01-31T13:23:56Z</time>
      </trkpt>
      <trkpt lat="43.81792" lon="6.80604">
        <ele>1387.27</ele>
        <time>2024-01-31T13:24:07Z</time>
      </trkpt>
      <trkpt lat="43.81787" lon="6.8061">
        <ele>1389.01</ele>
        <time>2024-01-31T13:24:10Z</time>
      </trkpt>
      <trkpt lat="43.81784" lon="6.80604">
        <ele>1390.37</ele>
        <time>2024-01-31T13:24:13Z</time>
      </trkpt>
      <trkpt lat="43.81787" lon="6.80573">
        <ele>1389.06</ele>
        <time>2024-01-31T13:24:22Z</time>
      </trkpt>
      <trkpt lat="43.81786" lon="6.80515">
        <ele>1391.97</ele>
        <time>2024-01-31T13:24:40Z</time>
      </trkpt>
      <trkpt lat="43.81791" lon="6.80481">
        <ele>1392.33</ele>
        <time>2024-01-31T13:24:51Z</time>
      </trkpt>
      <trkpt lat="43.81789" lon="6.8042">
        <ele>1397.4</ele>
        <time>2024-01-31T13:25:12Z</time>
      </trkpt>
      <trkpt lat="43.81777" lon="6.80425">
        <ele>1401.34</ele>
        <time>2024-01-31T13:25:20Z</time>
      </trkpt>
      <trkpt lat="43.81769" lon="6.80434">
        <ele>1404.83</ele>
        <time>2024-01-31T13:25:26Z</time>
      </trkpt>
      <trkpt lat="43.81765" lon="6.80458">
        <ele>1404.65</ele>
        <time>2024-01-31T13:25:38Z</time>
      </trkpt>
      <trkpt lat="43.8176" lon="6.80465">
        <ele>1406.04</ele>
        <time>2024-01-31T13:25:43Z</time>
      </trkpt>
      <trkpt lat="43.81746" lon="6.80469">
        <ele>1412.31</ele>
        <time>2024-01-31T13:25:52Z</time>
      </trkpt>
      <trkpt lat="43.81736" lon="6.80481">
        <ele>1414.2</ele>
        <time>2024-01-31T13:26:02Z</time>
      </trkpt>
      <trkpt lat="43.8173" lon="6.805">
        <ele>1415.56</ele>
        <time>2024-01-31T13:26:10Z</time>
      </trkpt>
      <trkpt lat="43.81713" lon="6.80631">
        <ele>1423.67</ele>
        <time>2024-01-31T13:27:03Z</time>
      </trkpt>
      <trkpt lat="43.81726" lon="6.80681">
        <ele>1426.25</ele>
        <time>2024-01-31T13:27:22Z</time>
      </trkpt>
      <trkpt lat="43.81723" lon="6.8069">
        <ele>1429.85</ele>
        <time>2024-01-31T13:27:25Z</time>
      </trkpt>
      <trkpt lat="43.81721" lon="6.80691">
        <ele>1431.4</ele>
        <time>2024-01-31T13:27:26Z</time>
      </trkpt>
      <trkpt lat="43.81713" lon="6.80678">
        <ele>1430.34</ele>
        <time>2024-01-31T13:27:32Z</time>
      </trkpt>
      <trkpt lat="43.81705" lon="6.80649">
        <ele>1429.21</ele>
        <time>2024-01-31T13:27:42Z</time>
      </trkpt>
      <trkpt lat="43.817" lon="6.80625">
        <ele>1428.77</ele>
        <time>2024-01-31T13:27:49Z</time>
      </trkpt>
      <trkpt lat="43.81698" lon="6.80597">
        <ele>1428.16</ele>
        <time>2024-01-31T13:27:57Z</time>
      </trkpt>
      <trkpt lat="43.81696" lon="6.80584">
        <ele>1427.22</ele>
        <time>2024-01-31T13:28:01Z</time>
      </trkpt>
      <trkpt lat="43.81691" lon="6.80574">
        <ele>1429.29</ele>
        <time>2024-01-31T13:28:04Z</time>
      </trkpt>
      <trkpt lat="43.81674" lon="6.80558">
        <ele>1430.73</ele>
        <time>2024-01-31T13:28:11Z</time>
      </trkpt>
      <trkpt lat="43.81642" lon="6.80541">
        <ele>1434.47</ele>
        <time>2024-01-31T13:28:21Z</time>
      </trkpt>
      <trkpt lat="43.81628" lon="6.80528">
        <ele>1435.08</ele>
        <time>2024-01-31T13:28:25Z</time>
      </trkpt>
      <trkpt lat="43.8161" lon="6.80499">
        <ele>1435.27</ele>
        <time>2024-01-31T13:28:31Z</time>
      </trkpt>
      <trkpt lat="43.81593" lon="6.80479">
        <ele>1435.51</ele>
        <time>2024-01-31T13:28:36Z</time>
      </trkpt>
      <trkpt lat="43.81547" lon="6.80458">
        <ele>1439.15</ele>
        <time>2024-01-31T13:28:52Z</time>
      </trkpt>
      <trkpt lat="43.81535" lon="6.80442">
        <ele>1438.98</ele>
        <time>2024-01-31T13:28:56Z</time>
      </trkpt>
      <trkpt lat="43.81511" lon="6.80424">
        <ele>1440.38</ele>
        <time>2024-01-31T13:29:04Z</time>
      </trkpt>
      <trkpt lat="43.815" lon="6.80403">
        <ele>1439.68</ele>
        <time>2024-01-31T13:29:09Z</time>
      </trkpt>
      <trkpt lat="43.8148" lon="6.80384">
        <ele>1439.71</ele>
        <time>2024-01-31T13:29:15Z</time>
      </trkpt>
      <trkpt lat="43.81451" lon="6.80363">
        <ele>1439.38</ele>
        <time>2024-01-31T13:29:23Z</time>
      </trkpt>
      <trkpt lat="43.81366" lon="6.80333">
        <ele>1431.14</ele>
        <time>2024-01-31T13:29:41Z</time>
      </trkpt>
      <trkpt lat="43.81349" lon="6.80332">
        <ele>1429.06</ele>
        <time>2024-01-31T13:29:43Z</time>
      </trkpt>
      <trkpt lat="43.81305" lon="6.80317">
        <ele>1427.82</ele>
        <time>2024-01-31T13:29:48Z</time>
      </trkpt>
      <trkpt lat="43.8129" lon="6.80308">
        <ele>1427.4</ele>
        <time>2024-01-31T13:29:49Z</time>
      </trkpt>
      <trkpt lat="43.81264" lon="6.80269">
        <ele>1427.57</ele>
        <time>2024-01-31T13:29:53Z</time>
      </trkpt>
      <trkpt lat="43.81239" lon="6.80245">
        <ele>1429.95</ele>
        <time>2024-01-31T13:29:57Z</time>
      </trkpt>
      <trkpt lat="43.81195" lon="6.8023">
        <ele>1426.27</ele>
        <time>2024-01-31T13:30:02Z</time>
      </trkpt>
      <trkpt lat="43.81189" lon="6.80231">
        <ele>1425.26</ele>
        <time>2024-01-31T13:30:02Z</time>
      </trkpt>
      <trkpt lat="43.81186" lon="6.80236">
        <ele>1422.67</ele>
        <time>2024-01-31T13:30:03Z</time>
      </trkpt>
      <trkpt lat="43.81192" lon="6.80246">
        <ele>1420.85</ele>
        <time>2024-01-31T13:30:04Z</time>
      </trkpt>
      <trkpt lat="43.81218" lon="6.80261">
        <ele>1422.23</ele>
        <time>2024-01-31T13:30:07Z</time>
      </trkpt>
      <trkpt lat="43.81223" lon="6.80269">
        <ele>1421.51</ele>
        <time>2024-01-31T13:30:08Z</time>
      </trkpt>
      <trkpt lat="43.81224" lon="6.80279">
        <ele>1421.2</ele>
        <time>2024-01-31T13:30:08Z</time>
      </trkpt>
      <trkpt lat="43.81221" lon="6.80294">
        <ele>1419.04</ele>
        <time>2024-01-31T13:30:10Z</time>
      </trkpt>
      <trkpt lat="43.81198" lon="6.80349">
        <ele>1414.45</ele>
        <time>2024-01-31T13:30:15Z</time>
      </trkpt>
      <trkpt lat="43.8119" lon="6.80385">
        <ele>1413.3</ele>
        <time>2024-01-31T13:30:18Z</time>
      </trkpt>
      <trkpt lat="43.81182" lon="6.8045">
        <ele>1410.81</ele>
        <time>2024-01-31T13:30:23Z</time>
      </trkpt>
      <trkpt lat="43.81176" lon="6.80526">
        <ele>1406.3</ele>
        <time>2024-01-31T13:30:29Z</time>
      </trkpt>
      <trkpt lat="43.81179" lon="6.80644">
        <ele>1398.84</ele>
        <time>2024-01-31T13:30:39Z</time>
      </trkpt>
      <trkpt lat="43.81178" lon="6.80686">
        <ele>1398.47</ele>
        <time>2024-01-31T13:30:43Z</time>
      </trkpt>
      <trkpt lat="43.81156" lon="6.8088">
        <ele>1388.9</ele>
        <time>2024-01-31T13:31:00Z</time>
      </trkpt>
      <trkpt lat="43.81139" lon="6.80992">
        <ele>1382.95</ele>
        <time>2024-01-31T13:31:10Z</time>
      </trkpt>
      <trkpt lat="43.81122" lon="6.81072">
        <ele>1375.55</ele>
        <time>2024-01-31T13:31:17Z</time>
      </trkpt>
      <trkpt lat="43.81115" lon="6.81115">
        <ele>1374.2</ele>
        <time>2024-01-31T13:31:21Z</time>
      </trkpt>
      <trkpt lat="43.81103" lon="6.8114">
        <ele>1368.9</ele>
        <time>2024-01-31T13:31:24Z</time>
      </trkpt>
      <trkpt lat="43.81097" lon="6.81159">
        <ele>1367.42</ele>
        <time>2024-01-31T13:31:26Z</time>
      </trkpt>
      <trkpt lat="43.81084" lon="6.81228">
        <ele>1364.49</ele>
        <time>2024-01-31T13:31:32Z</time>
      </trkpt>
      <trkpt lat="43.81084" lon="6.81248">
        <ele>1362.97</ele>
        <time>2024-01-31T13:31:34Z</time>
      </trkpt>
      <trkpt lat="43.81088" lon="6.81276">
        <ele>1362.78</ele>
        <time>2024-01-31T13:31:36Z</time>
      </trkpt>
      <trkpt lat="43.81084" lon="6.81333">
        <ele>1359.23</ele>
        <time>2024-01-31T13:31:41Z</time>
      </trkpt>
      <trkpt lat="43.81085" lon="6.81356">
        <ele>1358.5</ele>
        <time>2024-01-31T13:31:43Z</time>
      </trkpt>
      <trkpt lat="43.81091" lon="6.81404">
        <ele>1358.68</ele>
        <time>2024-01-31T13:31:48Z</time>
      </trkpt>
      <trkpt lat="43.81092" lon="6.81433">
        <ele>1356.36</ele>
        <time>2024-01-31T13:31:50Z</time>
      </trkpt>
      <trkpt lat="43.81087" lon="6.81519">
        <ele>1350.23</ele>
        <time>2024-01-31T13:31:58Z</time>
      </trkpt>
      <trkpt lat="43.81097" lon="6.81584">
        <ele>1345.65</ele>
        <time>2024-01-31T13:32:04Z</time>
      </trkpt>
      <trkpt lat="43.81106" lon="6.81654">
        <ele>1342.05</ele>
        <time>2024-01-31T13:32:11Z</time>
      </trkpt>
      <trkpt lat="43.8112" lon="6.81728">
        <ele>1336.53</ele>
        <time>2024-01-31T13:32:19Z</time>
      </trkpt>
      <trkpt lat="43.81133" lon="6.81815">
        <ele>1336.59</ele>
        <time>2024-01-31T13:32:30Z</time>
      </trkpt>
      <trkpt lat="43.81155" lon="6.8189">
        <ele>1336.43</ele>
        <time>2024-01-31T13:32:39Z</time>
      </trkpt>
      <trkpt lat="43.81163" lon="6.81931">
        <ele>1338.77</ele>
        <time>2024-01-31T13:32:43Z</time>
      </trkpt>
      <trkpt lat="43.81165" lon="6.81949">
        <ele>1338.46</ele>
        <time>2024-01-31T13:32:45Z</time>
      </trkpt>
      <trkpt lat="43.81163" lon="6.81966">
        <ele>1336.01</ele>
        <time>2024-01-31T13:32:46Z</time>
      </trkpt>
      <trkpt lat="43.81156" lon="6.81991">
        <ele>1334.89</ele>
        <time>2024-01-31T13:32:49Z</time>
      </trkpt>
      <trkpt lat="43.81114" lon="6.82076">
        <ele>1327.05</ele>
        <time>2024-01-31T13:32:58Z</time>
      </trkpt>
      <trkpt lat="43.81091" lon="6.82128">
        <ele>1327.09</ele>
        <time>2024-01-31T13:33:03Z</time>
      </trkpt>
      <trkpt lat="43.81066" lon="6.82167">
        <ele>1322.77</ele>
        <time>2024-01-31T13:33:08Z</time>
      </trkpt>
      <trkpt lat="43.81058" lon="6.82183">
        <ele>1320.73</ele>
        <time>2024-01-31T13:33:09Z</time>
      </trkpt>
      <trkpt lat="43.81045" lon="6.82231">
        <ele>1319.16</ele>
        <time>2024-01-31T13:33:13Z</time>
      </trkpt>
      <trkpt lat="43.81039" lon="6.82242">
        <ele>1318.65</ele>
        <time>2024-01-31T13:33:14Z</time>
      </trkpt>
      <trkpt lat="43.81012" lon="6.82294">
        <ele>1315.06</ele>
        <time>2024-01-31T13:33:20Z</time>
      </trkpt>
      <trkpt lat="43.80981" lon="6.82335">
        <ele>1307.92</ele>
        <time>2024-01-31T13:33:25Z</time>
      </trkpt>
      <trkpt lat="43.80975" lon="6.82353">
        <ele>1306.84</ele>
        <time>2024-01-31T13:33:26Z</time>
      </trkpt>
      <trkpt lat="43.80976" lon="6.82393">
        <ele>1306.34</ele>
        <time>2024-01-31T13:33:30Z</time>
      </trkpt>
      <trkpt lat="43.80994" lon="6.82533">
        <ele>1305.14</ele>
        <time>2024-01-31T13:33:44Z</time>
      </trkpt>
      <trkpt lat="43.80991" lon="6.82561">
        <ele>1303.68</ele>
        <time>2024-01-31T13:33:49Z</time>
      </trkpt>
      <trkpt lat="43.80971" lon="6.82606">
        <ele>1299.38</ele>
        <time>2024-01-31T13:33:58Z</time>
      </trkpt>
      <trkpt lat="43.80963" lon="6.82641">
        <ele>1299.6</ele>
        <time>2024-01-31T13:34:05Z</time>
      </trkpt>
      <trkpt lat="43.80957" lon="6.8266">
        <ele>1298.27</ele>
        <time>2024-01-31T13:34:09Z</time>
      </trkpt>
      <trkpt lat="43.80937" lon="6.82701">
        <ele>1295.46</ele>
        <time>2024-01-31T13:34:14Z</time>
      </trkpt>
      <trkpt lat="43.80921" lon="6.82722">
        <ele>1291.98</ele>
        <time>2024-01-31T13:34:17Z</time>
      </trkpt>
      <trkpt lat="43.80893" lon="6.82746">
        <ele>1288.49</ele>
        <time>2024-01-31T13:34:21Z</time>
      </trkpt>
      <trkpt lat="43.8088" lon="6.82767">
        <ele>1288.42</ele>
        <time>2024-01-31T13:34:24Z</time>
      </trkpt>
      <trkpt lat="43.80863" lon="6.82773">
        <ele>1286.55</ele>
        <time>2024-01-31T13:34:26Z</time>
      </trkpt>
      <trkpt lat="43.80845" lon="6.82769">
        <ele>1283.9</ele>
        <time>2024-01-31T13:34:28Z</time>
      </trkpt>
      <trkpt lat="43.80832" lon="6.82761">
        <ele>1281.49</ele>
        <time>2024-01-31T13:34:29Z</time>
      </trkpt>
      <trkpt lat="43.80823" lon="6.82752">
        <ele>1279.67</ele>
        <time>2024-01-31T13:34:31Z</time>
      </trkpt>
      <trkpt lat="43.80816" lon="6.82732">
        <ele>1277.27</ele>
        <time>2024-01-31T13:34:32Z</time>
      </trkpt>
      <trkpt lat="43.8081" lon="6.82702">
        <ele>1273.09</ele>
        <time>2024-01-31T13:34:35Z</time>
      </trkpt>
      <trkpt lat="43.80804" lon="6.82688">
        <ele>1271.84</ele>
        <time>2024-01-31T13:34:36Z</time>
      </trkpt>
      <trkpt lat="43.80793" lon="6.82676">
        <ele>1271.11</ele>
        <time>2024-01-31T13:34:38Z</time>
      </trkpt>
      <trkpt lat="43.80783" lon="6.82672">
        <ele>1270.51</ele>
        <time>2024-01-31T13:34:39Z</time>
      </trkpt>
      <trkpt lat="43.80771" lon="6.82674">
        <ele>1269.89</ele>
        <time>2024-01-31T13:34:40Z</time>
      </trkpt>
      <trkpt lat="43.80756" lon="6.82682">
        <ele>1269.58</ele>
        <time>2024-01-31T13:34:42Z</time>
      </trkpt>
      <trkpt lat="43.80733" lon="6.82702">
        <ele>1266.77</ele>
        <time>2024-01-31T13:34:45Z</time>
      </trkpt>
      <trkpt lat="43.80721" lon="6.82721">
        <ele>1265.14</ele>
        <time>2024-01-31T13:34:47Z</time>
      </trkpt>
      <trkpt lat="43.80711" lon="6.82746">
        <ele>1266.02</ele>
        <time>2024-01-31T13:34:49Z</time>
      </trkpt>
      <trkpt lat="43.80678" lon="6.82802">
        <ele>1262.71</ele>
        <time>2024-01-31T13:34:55Z</time>
      </trkpt>
      <trkpt lat="43.80657" lon="6.82872">
        <ele>1262.22</ele>
        <time>2024-01-31T13:35:01Z</time>
      </trkpt>
      <trkpt lat="43.80635" lon="6.82922">
        <ele>1258.46</ele>
        <time>2024-01-31T13:35:06Z</time>
      </trkpt>
      <trkpt lat="43.8063" lon="6.82942">
        <ele>1255.7</ele>
        <time>2024-01-31T13:35:07Z</time>
      </trkpt>
      <trkpt lat="43.80631" lon="6.82963">
        <ele>1253.2</ele>
        <time>2024-01-31T13:35:09Z</time>
      </trkpt>
      <trkpt lat="43.80636" lon="6.82976">
        <ele>1252.61</ele>
        <time>2024-01-31T13:35:10Z</time>
      </trkpt>
      <trkpt lat="43.80699" lon="6.83059">
        <ele>1248</ele>
        <time>2024-01-31T13:35:21Z</time>
      </trkpt>
      <trkpt lat="43.8071" lon="6.8308">
        <ele>1249.69</ele>
        <time>2024-01-31T13:35:23Z</time>
      </trkpt>
      <trkpt lat="43.80753" lon="6.83182">
        <ele>1243.9</ele>
        <time>2024-01-31T13:35:35Z</time>
      </trkpt>
      <trkpt lat="43.80763" lon="6.83218">
        <ele>1241.76</ele>
        <time>2024-01-31T13:35:39Z</time>
      </trkpt>
      <trkpt lat="43.80767" lon="6.83242">
        <ele>1239.82</ele>
        <time>2024-01-31T13:35:41Z</time>
      </trkpt>
      <trkpt lat="43.80768" lon="6.83293">
        <ele>1233.65</ele>
        <time>2024-01-31T13:35:46Z</time>
      </trkpt>
      <trkpt lat="43.80766" lon="6.83381">
        <ele>1227.74</ele>
        <time>2024-01-31T13:35:54Z</time>
      </trkpt>
      <trkpt lat="43.80763" lon="6.83401">
        <ele>1226.19</ele>
        <time>2024-01-31T13:35:56Z</time>
      </trkpt>
      <trkpt lat="43.8075" lon="6.83445">
        <ele>1221.8</ele>
        <time>2024-01-31T13:36:00Z</time>
      </trkpt>
      <trkpt lat="43.8071" lon="6.83537">
        <ele>1216.4</ele>
        <time>2024-01-31T13:36:10Z</time>
      </trkpt>
      <trkpt lat="43.807" lon="6.83571">
        <ele>1215.25</ele>
        <time>2024-01-31T13:36:13Z</time>
      </trkpt>
      <trkpt lat="43.8069" lon="6.83624">
        <ele>1213.61</ele>
        <time>2024-01-31T13:36:18Z</time>
      </trkpt>
      <trkpt lat="43.8068" lon="6.83655">
        <ele>1212.69</ele>
        <time>2024-01-31T13:36:21Z</time>
      </trkpt>
      <trkpt lat="43.8067" lon="6.83675">
        <ele>1211.6</ele>
        <time>2024-01-31T13:36:23Z</time>
      </trkpt>
      <trkpt lat="43.80655" lon="6.83694">
        <ele>1209.35</ele>
        <time>2024-01-31T13:36:25Z</time>
      </trkpt>
      <trkpt lat="43.80324" lon="6.83939">
        <ele>1175.28</ele>
        <time>2024-01-31T13:37:11Z</time>
      </trkpt>
      <trkpt lat="43.80289" lon="6.83953">
        <ele>1172.77</ele>
        <time>2024-01-31T13:37:15Z</time>
      </trkpt>
      <trkpt lat="43.80271" lon="6.83956">
        <ele>1171.59</ele>
        <time>2024-01-31T13:37:18Z</time>
      </trkpt>
      <trkpt lat="43.80221" lon="6.83954">
        <ele>1168.03</ele>
        <time>2024-01-31T13:37:24Z</time>
      </trkpt>
      <trkpt lat="43.80199" lon="6.83946">
        <ele>1166.79</ele>
        <time>2024-01-31T13:37:27Z</time>
      </trkpt>
      <trkpt lat="43.80167" lon="6.83926">
        <ele>1165.84</ele>
        <time>2024-01-31T13:37:32Z</time>
      </trkpt>
      <trkpt lat="43.80128" lon="6.83885">
        <ele>1165.76</ele>
        <time>2024-01-31T13:37:38Z</time>
      </trkpt>
      <trkpt lat="43.801" lon="6.83839">
        <ele>1164.85</ele>
        <time>2024-01-31T13:37:45Z</time>
      </trkpt>
      <trkpt lat="43.8008" lon="6.83797">
        <ele>1163.19</ele>
        <time>2024-01-31T13:37:51Z</time>
      </trkpt>
      <trkpt lat="43.8007" lon="6.83789">
        <ele>1163.07</ele>
        <time>2024-01-31T13:37:53Z</time>
      </trkpt>
      <trkpt lat="43.80058" lon="6.83788">
        <ele>1163.36</ele>
        <time>2024-01-31T13:37:56Z</time>
      </trkpt>
      <trkpt lat="43.80056" lon="6.83784">
        <ele>1163.3</ele>
        <time>2024-01-31T13:37:56Z</time>
      </trkpt>
      <trkpt lat="43.80051" lon="6.83779">
        <ele>1163.46</ele>
        <time>2024-01-31T13:37:57Z</time>
      </trkpt>
      <trkpt lat="43.80046" lon="6.83779">
        <ele>1163.58</ele>
        <time>2024-01-31T13:37:58Z</time>
      </trkpt>
      <trkpt lat="43.80039" lon="6.83787">
        <ele>1163.8</ele>
        <time>2024-01-31T13:38:00Z</time>
      </trkpt>
      <trkpt lat="43.80039" lon="6.83795">
        <ele>1164.1</ele>
        <time>2024-01-31T13:38:02Z</time>
      </trkpt>
      <trkpt lat="43.80042" lon="6.83802">
        <ele>1164.07</ele>
        <time>2024-01-31T13:38:03Z</time>
      </trkpt>
      <trkpt lat="43.80047" lon="6.83806">
        <ele>1163.59</ele>
        <time>2024-01-31T13:38:04Z</time>
      </trkpt>
      <trkpt lat="43.80053" lon="6.83804">
        <ele>1163.23</ele>
        <time>2024-01-31T13:38:05Z</time>
      </trkpt>
      <trkpt lat="43.80061" lon="6.83814">
        <ele>1162.98</ele>
        <time>2024-01-31T13:38:08Z</time>
      </trkpt>
      <trkpt lat="43.80092" lon="6.83841">
        <ele>1165.55</ele>
        <time>2024-01-31T13:38:17Z</time>
      </trkpt>
      <trkpt lat="43.80102" lon="6.83856">
        <ele>1166.07</ele>
        <time>2024-01-31T13:38:21Z</time>
      </trkpt>
      <trkpt lat="43.80138" lon="6.83933">
        <ele>1167.59</ele>
        <time>2024-01-31T13:38:43Z</time>
      </trkpt>
      <trkpt lat="43.80162" lon="6.83997">
        <ele>1169.12</ele>
        <time>2024-01-31T13:39:00Z</time>
      </trkpt>
      <trkpt lat="43.8018" lon="6.84054">
        <ele>1170.71</ele>
        <time>2024-01-31T13:39:12Z</time>
      </trkpt>
      <trkpt lat="43.80197" lon="6.84122">
        <ele>1172.21</ele>
        <time>2024-01-31T13:39:23Z</time>
      </trkpt>
      <trkpt lat="43.80207" lon="6.84175">
        <ele>1173.03</ele>
        <time>2024-01-31T13:39:29Z</time>
      </trkpt>
      <trkpt lat="43.80244" lon="6.84562">
        <ele>1168.85</ele>
        <time>2024-01-31T13:40:10Z</time>
      </trkpt>
      <trkpt lat="43.80251" lon="6.84592">
        <ele>1168.4</ele>
        <time>2024-01-31T13:40:14Z</time>
      </trkpt>
      <trkpt lat="43.80281" lon="6.84697">
        <ele>1167.98</ele>
        <time>2024-01-31T13:40:32Z</time>
      </trkpt>
      <trkpt lat="43.80483" lon="6.85295">
        <ele>1177.16</ele>
        <time>2024-01-31T13:42:35Z</time>
      </trkpt>
      <trkpt lat="43.80511" lon="6.85363">
        <ele>1177.35</ele>
        <time>2024-01-31T13:42:49Z</time>
      </trkpt>
      <trkpt lat="43.80599" lon="6.85554">
        <ele>1177.99</ele>
        <time>2024-01-31T13:43:30Z</time>
      </trkpt>
      <trkpt lat="43.8069" lon="6.85744">
        <ele>1180.11</ele>
        <time>2024-01-31T13:44:09Z</time>
      </trkpt>
      <trkpt lat="43.80795" lon="6.85932">
        <ele>1186.16</ele>
        <time>2024-01-31T13:44:47Z</time>
      </trkpt>
      <trkpt lat="43.80801" lon="6.85946">
        <ele>1186.56</ele>
        <time>2024-01-31T13:44:49Z</time>
      </trkpt>
      <trkpt lat="43.80833" lon="6.86058">
        <ele>1185.32</ele>
        <time>2024-01-31T13:45:03Z</time>
      </trkpt>
      <trkpt lat="43.80862" lon="6.86143">
        <ele>1181.45</ele>
        <time>2024-01-31T13:45:12Z</time>
      </trkpt>
      <trkpt lat="43.80869" lon="6.86169">
        <ele>1180.78</ele>
        <time>2024-01-31T13:45:15Z</time>
      </trkpt>
      <trkpt lat="43.80885" lon="6.8625">
        <ele>1176.16</ele>
        <time>2024-01-31T13:45:23Z</time>
      </trkpt>
      <trkpt lat="43.809" lon="6.86313">
        <ele>1173.48</ele>
        <time>2024-01-31T13:45:29Z</time>
      </trkpt>
      <trkpt lat="43.80905" lon="6.8636">
        <ele>1171.28</ele>
        <time>2024-01-31T13:45:33Z</time>
      </trkpt>
      <trkpt lat="43.80905" lon="6.86392">
        <ele>1170.77</ele>
        <time>2024-01-31T13:45:36Z</time>
      </trkpt>
      <trkpt lat="43.80901" lon="6.86453">
        <ele>1170.7</ele>
        <time>2024-01-31T13:45:41Z</time>
      </trkpt>
      <trkpt lat="43.80905" lon="6.86522">
        <ele>1168.08</ele>
        <time>2024-01-31T13:45:47Z</time>
      </trkpt>
      <trkpt lat="43.80903" lon="6.86542">
        <ele>1167.59</ele>
        <time>2024-01-31T13:45:49Z</time>
      </trkpt>
      <trkpt lat="43.80898" lon="6.86559">
        <ele>1167.34</ele>
        <time>2024-01-31T13:45:51Z</time>
      </trkpt>
      <trkpt lat="43.80848" lon="6.86664">
        <ele>1164.86</ele>
        <time>2024-01-31T13:46:03Z</time>
      </trkpt>
      <trkpt lat="43.80834" lon="6.86709">
        <ele>1163.49</ele>
        <time>2024-01-31T13:46:08Z</time>
      </trkpt>
      <trkpt lat="43.8083" lon="6.86754">
        <ele>1161.48</ele>
        <time>2024-01-31T13:46:12Z</time>
      </trkpt>
      <trkpt lat="43.8084" lon="6.86833">
        <ele>1160.9</ele>
        <time>2024-01-31T13:46:20Z</time>
      </trkpt>
      <trkpt lat="43.8084" lon="6.86855">
        <ele>1160.3</ele>
        <time>2024-01-31T13:46:22Z</time>
      </trkpt>
      <trkpt lat="43.80829" lon="6.8695">
        <ele>1156.49</ele>
        <time>2024-01-31T13:46:32Z</time>
      </trkpt>
      <trkpt lat="43.80812" lon="6.8703">
        <ele>1154.61</ele>
        <time>2024-01-31T13:46:40Z</time>
      </trkpt>
      <trkpt lat="43.80801" lon="6.87134">
        <ele>1153.66</ele>
        <time>2024-01-31T13:46:51Z</time>
      </trkpt>
      <trkpt lat="43.808" lon="6.87161">
        <ele>1153.41</ele>
        <time>2024-01-31T13:46:54Z</time>
      </trkpt>
      <trkpt lat="43.80815" lon="6.87271">
        <ele>1148.77</ele>
        <time>2024-01-31T13:47:05Z</time>
      </trkpt>
      <trkpt lat="43.80823" lon="6.87418">
        <ele>1146.98</ele>
        <time>2024-01-31T13:47:19Z</time>
      </trkpt>
      <trkpt lat="43.80827" lon="6.87449">
        <ele>1146.22</ele>
        <time>2024-01-31T13:47:22Z</time>
      </trkpt>
      <trkpt lat="43.80846" lon="6.87543">
        <ele>1144.06</ele>
        <time>2024-01-31T13:47:31Z</time>
      </trkpt>
      <trkpt lat="43.80877" lon="6.87627">
        <ele>1142.99</ele>
        <time>2024-01-31T13:47:40Z</time>
      </trkpt>
      <trkpt lat="43.80885" lon="6.87665">
        <ele>1142.14</ele>
        <time>2024-01-31T13:47:44Z</time>
      </trkpt>
      <trkpt lat="43.8089" lon="6.87702">
        <ele>1141.76</ele>
        <time>2024-01-31T13:47:48Z</time>
      </trkpt>
      <trkpt lat="43.80898" lon="6.87873">
        <ele>1140.81</ele>
        <time>2024-01-31T13:48:09Z</time>
      </trkpt>
      <trkpt lat="43.80905" lon="6.88077">
        <ele>1139.53</ele>
        <time>2024-01-31T13:48:52Z</time>
      </trkpt>
      <trkpt lat="43.80905" lon="6.88139">
        <ele>1140</ele>
        <time>2024-01-31T13:49:07Z</time>
      </trkpt>
      <trkpt lat="43.80891" lon="6.88262">
        <ele>1142.26</ele>
        <time>2024-01-31T13:49:29Z</time>
      </trkpt>
      <trkpt lat="43.80884" lon="6.88286">
        <ele>1143.24</ele>
        <time>2024-01-31T13:49:33Z</time>
      </trkpt>
      <trkpt lat="43.80878" lon="6.88291">
        <ele>1143.73</ele>
        <time>2024-01-31T13:49:34Z</time>
      </trkpt>
      <trkpt lat="43.80876" lon="6.883">
        <ele>1143.73</ele>
        <time>2024-01-31T13:49:35Z</time>
      </trkpt>
      <trkpt lat="43.80881" lon="6.88313">
        <ele>1143.28</ele>
        <time>2024-01-31T13:49:37Z</time>
      </trkpt>
      <trkpt lat="43.80881" lon="6.8834">
        <ele>1143.41</ele>
        <time>2024-01-31T13:49:40Z</time>
      </trkpt>
      <trkpt lat="43.80863" lon="6.88466">
        <ele>1148.48</ele>
        <time>2024-01-31T13:49:53Z</time>
      </trkpt>
      <trkpt lat="43.80857" lon="6.88493">
        <ele>1148.6</ele>
        <time>2024-01-31T13:49:56Z</time>
      </trkpt>
      <trkpt lat="43.80818" lon="6.88623">
        <ele>1144.86</ele>
        <time>2024-01-31T13:50:09Z</time>
      </trkpt>
      <trkpt lat="43.80787" lon="6.88778">
        <ele>1140.22</ele>
        <time>2024-01-31T13:50:25Z</time>
      </trkpt>
      <trkpt lat="43.80726" lon="6.89177">
        <ele>1127.9</ele>
        <time>2024-01-31T13:51:05Z</time>
      </trkpt>
      <trkpt lat="43.8073" lon="6.89183">
        <ele>1127.64</ele>
        <time>2024-01-31T13:51:07Z</time>
      </trkpt>
      <trkpt lat="43.80757" lon="6.89201">
        <ele>1127.12</ele>
        <time>2024-01-31T13:51:15Z</time>
      </trkpt>
      <trkpt lat="43.80771" lon="6.89196">
        <ele>1127.04</ele>
        <time>2024-01-31T13:51:19Z</time>
      </trkpt>
      <trkpt lat="43.80784" lon="6.89194">
        <ele>1127.25</ele>
        <time>2024-01-31T13:51:22Z</time>
      </trkpt>
      <trkpt lat="43.80794" lon="6.89203">
        <ele>1127.26</ele>
        <time>2024-01-31T13:51:25Z</time>
      </trkpt>
      <trkpt lat="43.80836" lon="6.89241">
        <ele>1127.34</ele>
        <time>2024-01-31T13:51:40Z</time>
      </trkpt>
      <trkpt lat="43.80909" lon="6.89243">
        <ele>1127.62</ele>
        <time>2024-01-31T13:52:05Z</time>
      </trkpt>
      <trkpt lat="43.80916" lon="6.89246">
        <ele>1127.83</ele>
        <time>2024-01-31T13:52:08Z</time>
      </trkpt>
      <trkpt lat="43.80929" lon="6.89242">
        <ele>1128.43</ele>
        <time>2024-01-31T13:52:13Z</time>
      </trkpt>
      <trkpt lat="43.80966" lon="6.89247">
        <ele>1131.21</ele>
        <time>2024-01-31T13:52:28Z</time>
      </trkpt>
      <trkpt lat="43.80971" lon="6.8925">
        <ele>1131.37</ele>
        <time>2024-01-31T13:52:31Z</time>
      </trkpt>
      <trkpt lat="43.80973" lon="6.89257">
        <ele>1131.67</ele>
        <time>2024-01-31T13:52:33Z</time>
      </trkpt>
      <trkpt lat="43.8098" lon="6.89369">
        <ele>1134.66</ele>
        <time>2024-01-31T13:53:05Z</time>
      </trkpt>
      <trkpt lat="43.80984" lon="6.89377">
        <ele>1135.13</ele>
        <time>2024-01-31T13:53:07Z</time>
      </trkpt>
      <trkpt lat="43.81" lon="6.89378">
        <ele>1135.24</ele>
        <time>2024-01-31T13:53:13Z</time>
      </trkpt>
      <trkpt lat="43.81015" lon="6.89384">
        <ele>1134.47</ele>
        <time>2024-01-31T13:53:19Z</time>
      </trkpt>
      <trkpt lat="43.81031" lon="6.89384">
        <ele>1132.98</ele>
        <time>2024-01-31T13:53:25Z</time>
      </trkpt>
      <trkpt lat="43.81064" lon="6.89375">
        <ele>1131.74</ele>
        <time>2024-01-31T13:53:37Z</time>
      </trkpt>
      <trkpt lat="43.81082" lon="6.89367">
        <ele>1132.35</ele>
        <time>2024-01-31T13:53:44Z</time>
      </trkpt>
      <trkpt lat="43.8109" lon="6.8936">
        <ele>1133.31</ele>
        <time>2024-01-31T13:53:47Z</time>
      </trkpt>
      <trkpt lat="43.81122" lon="6.89271">
        <ele>1137.83</ele>
        <time>2024-01-31T13:54:10Z</time>
      </trkpt>
      <trkpt lat="43.81125" lon="6.89252">
        <ele>1137.88</ele>
        <time>2024-01-31T13:54:14Z</time>
      </trkpt>
      <trkpt lat="43.81126" lon="6.89163">
        <ele>1136.01</ele>
        <time>2024-01-31T13:54:34Z</time>
      </trkpt>
      <trkpt lat="43.81129" lon="6.89146">
        <ele>1135.32</ele>
        <time>2024-01-31T13:54:38Z</time>
      </trkpt>
      <trkpt lat="43.81133" lon="6.89136">
        <ele>1134.93</ele>
        <time>2024-01-31T13:54:40Z</time>
      </trkpt>
      <trkpt lat="43.81139" lon="6.89131">
        <ele>1134.57</ele>
        <time>2024-01-31T13:54:43Z</time>
      </trkpt>
      <trkpt lat="43.81145" lon="6.89132">
        <ele>1134.47</ele>
        <time>2024-01-31T13:54:45Z</time>
      </trkpt>
      <trkpt lat="43.81191" lon="6.89193">
        <ele>1134.82</ele>
        <time>2024-01-31T13:55:09Z</time>
      </trkpt>
      <trkpt lat="43.81218" lon="6.89252">
        <ele>1136.25</ele>
        <time>2024-01-31T13:55:29Z</time>
      </trkpt>
      <trkpt lat="43.81224" lon="6.89274">
        <ele>1136.7</ele>
        <time>2024-01-31T13:55:37Z</time>
      </trkpt>
      <trkpt lat="43.81247" lon="6.89377">
        <ele>1138.17</ele>
        <time>2024-01-31T13:56:12Z</time>
      </trkpt>
      <trkpt lat="43.81275" lon="6.8943">
        <ele>1140.4</ele>
        <time>2024-01-31T13:56:36Z</time>
      </trkpt>
      <trkpt lat="43.81309" lon="6.89462">
        <ele>1141.93</ele>
        <time>2024-01-31T13:56:57Z</time>
      </trkpt>
      <trkpt lat="43.81338" lon="6.89532">
        <ele>1143.98</ele>
        <time>2024-01-31T13:57:27Z</time>
      </trkpt>
      <trkpt lat="43.8138" lon="6.89701">
        <ele>1147.82</ele>
        <time>2024-01-31T13:58:35Z</time>
      </trkpt>
      <trkpt lat="43.8138" lon="6.89736">
        <ele>1149.48</ele>
        <time>2024-01-31T13:58:48Z</time>
      </trkpt>
      <trkpt lat="43.81389" lon="6.89813">
        <ele>1151.46</ele>
        <time>2024-01-31T13:59:16Z</time>
      </trkpt>
      <trkpt lat="43.81406" lon="6.89895">
        <ele>1152.59</ele>
        <time>2024-01-31T13:59:47Z</time>
      </trkpt>
      <trkpt lat="43.8142" lon="6.8992">
        <ele>1152.79</ele>
        <time>2024-01-31T13:59:58Z</time>
      </trkpt>
      <trkpt lat="43.81428" lon="6.89957">
        <ele>1153.85</ele>
        <time>2024-01-31T14:00:11Z</time>
      </trkpt>
      <trkpt lat="43.81445" lon="6.89982">
        <ele>1154.19</ele>
        <time>2024-01-31T14:00:22Z</time>
      </trkpt>
      <trkpt lat="43.81467" lon="6.90061">
        <ele>1158.41</ele>
        <time>2024-01-31T14:00:51Z</time>
      </trkpt>
      <trkpt lat="43.81479" lon="6.90084">
        <ele>1159.55</ele>
        <time>2024-01-31T14:01:01Z</time>
      </trkpt>
      <trkpt lat="43.81494" lon="6.90085">
        <ele>1159.21</ele>
        <time>2024-01-31T14:01:08Z</time>
      </trkpt>
      <trkpt lat="43.81513" lon="6.90111">
        <ele>1160.61</ele>
        <time>2024-01-31T14:01:22Z</time>
      </trkpt>
      <trkpt lat="43.81532" lon="6.90114">
        <ele>1161.89</ele>
        <time>2024-01-31T14:01:32Z</time>
      </trkpt>
      <trkpt lat="43.81544" lon="6.90125">
        <ele>1162.98</ele>
        <time>2024-01-31T14:01:40Z</time>
      </trkpt>
      <trkpt lat="43.81585" lon="6.90146">
        <ele>1168.27</ele>
        <time>2024-01-31T14:02:04Z</time>
      </trkpt>
      <trkpt lat="43.81592" lon="6.90158">
        <ele>1169.66</ele>
        <time>2024-01-31T14:02:11Z</time>
      </trkpt>
      <trkpt lat="43.81609" lon="6.90273">
        <ele>1177.9</ele>
        <time>2024-01-31T14:03:06Z</time>
      </trkpt>
      <trkpt lat="43.81615" lon="6.90292">
        <ele>1179.47</ele>
        <time>2024-01-31T14:03:17Z</time>
      </trkpt>
      <trkpt lat="43.8162" lon="6.90324">
        <ele>1182.33</ele>
        <time>2024-01-31T14:03:35Z</time>
      </trkpt>
      <trkpt lat="43.81628" lon="6.90336">
        <ele>1183.62</ele>
        <time>2024-01-31T14:03:44Z</time>
      </trkpt>
      <trkpt lat="43.81638" lon="6.90342">
        <ele>1185.15</ele>
        <time>2024-01-31T14:03:53Z</time>
      </trkpt>
      <trkpt lat="43.81647" lon="6.90343">
        <ele>1186.16</ele>
        <time>2024-01-31T14:04:00Z</time>
      </trkpt>
      <trkpt lat="43.81655" lon="6.90354">
        <ele>1188.32</ele>
        <time>2024-01-31T14:04:09Z</time>
      </trkpt>
      <trkpt lat="43.81686" lon="6.90403">
        <ele>1195.37</ele>
        <time>2024-01-31T14:04:48Z</time>
      </trkpt>
      <trkpt lat="43.81709" lon="6.90449">
        <ele>1201.85</ele>
        <time>2024-01-31T14:05:22Z</time>
      </trkpt>
      <trkpt lat="43.81736" lon="6.90488">
        <ele>1207.4</ele>
        <time>2024-01-31T14:05:55Z</time>
      </trkpt>
      <trkpt lat="43.8174" lon="6.90503">
        <ele>1208.47</ele>
        <time>2024-01-31T14:06:05Z</time>
      </trkpt>
      <trkpt lat="43.81743" lon="6.90541">
        <ele>1212.07</ele>
        <time>2024-01-31T14:06:29Z</time>
      </trkpt>
      <trkpt lat="43.81751" lon="6.90601">
        <ele>1219.22</ele>
        <time>2024-01-31T14:07:05Z</time>
      </trkpt>
      <trkpt lat="43.81783" lon="6.90694">
        <ele>1228.61</ele>
        <time>2024-01-31T14:08:07Z</time>
      </trkpt>
      <trkpt lat="43.81819" lon="6.90776">
        <ele>1239.84</ele>
        <time>2024-01-31T14:09:02Z</time>
      </trkpt>
      <trkpt lat="43.81847" lon="6.9083">
        <ele>1248.54</ele>
        <time>2024-01-31T14:09:39Z</time>
      </trkpt>
      <trkpt lat="43.8187" lon="6.90866">
        <ele>1253.29</ele>
        <time>2024-01-31T14:10:06Z</time>
      </trkpt>
      <trkpt lat="43.81952" lon="6.90879">
        <ele>1262.07</ele>
        <time>2024-01-31T14:11:06Z</time>
      </trkpt>
      <trkpt lat="43.81995" lon="6.90871">
        <ele>1265.45</ele>
        <time>2024-01-31T14:11:34Z</time>
      </trkpt>
      <trkpt lat="43.82036" lon="6.90855">
        <ele>1269.09</ele>
        <time>2024-01-31T14:12:01Z</time>
      </trkpt>
      <trkpt lat="43.82065" lon="6.90864">
        <ele>1271.51</ele>
        <time>2024-01-31T14:12:19Z</time>
      </trkpt>
      <trkpt lat="43.82095" lon="6.90896">
        <ele>1273.29</ele>
        <time>2024-01-31T14:12:40Z</time>
      </trkpt>
      <trkpt lat="43.82115" lon="6.90912">
        <ele>1274.59</ele>
        <time>2024-01-31T14:12:54Z</time>
      </trkpt>
      <trkpt lat="43.82133" lon="6.90909">
        <ele>1276.75</ele>
        <time>2024-01-31T14:13:04Z</time>
      </trkpt>
      <trkpt lat="43.82146" lon="6.90918">
        <ele>1277.97</ele>
        <time>2024-01-31T14:13:12Z</time>
      </trkpt>
      <trkpt lat="43.82164" lon="6.90938">
        <ele>1280.16</ele>
        <time>2024-01-31T14:13:26Z</time>
      </trkpt>
      <trkpt lat="43.82176" lon="6.90943">
        <ele>1281.91</ele>
        <time>2024-01-31T14:13:33Z</time>
      </trkpt>
      <trkpt lat="43.82183" lon="6.90936">
        <ele>1282.66</ele>
        <time>2024-01-31T14:13:39Z</time>
      </trkpt>
      <trkpt lat="43.82192" lon="6.90892">
        <ele>1285.44</ele>
        <time>2024-01-31T14:13:59Z</time>
      </trkpt>
      <trkpt lat="43.82229" lon="6.9081">
        <ele>1295</ele>
        <time>2024-01-31T14:14:46Z</time>
      </trkpt>
      <trkpt lat="43.82275" lon="6.90696">
        <ele>1306.15</ele>
        <time>2024-01-31T14:15:59Z</time>
      </trkpt>
      <trkpt lat="43.82289" lon="6.90693">
        <ele>1307.51</ele>
        <time>2024-01-31T14:16:11Z</time>
      </trkpt>
      <trkpt lat="43.82368" lon="6.90688">
        <ele>1317.43</ele>
        <time>2024-01-31T14:17:21Z</time>
      </trkpt>
      <trkpt lat="43.82426" lon="6.90714">
        <ele>1327.8</ele>
        <time>2024-01-31T14:18:18Z</time>
      </trkpt>
      <trkpt lat="43.82473" lon="6.9074">
        <ele>1336.54</ele>
        <time>2024-01-31T14:19:05Z</time>
      </trkpt>
      <trkpt lat="43.82508" lon="6.90752">
        <ele>1343.1</ele>
        <time>2024-01-31T14:19:38Z</time>
      </trkpt>
      <trkpt lat="43.82534" lon="6.9077">
        <ele>1348.22</ele>
        <time>2024-01-31T14:20:03Z</time>
      </trkpt>
      <trkpt lat="43.82544" lon="6.90783">
        <ele>1350.1</ele>
        <time>2024-01-31T14:20:14Z</time>
      </trkpt>
      <trkpt lat="43.82542" lon="6.90821">
        <ele>1352.04</ele>
        <time>2024-01-31T14:20:36Z</time>
      </trkpt>
      <trkpt lat="43.82545" lon="6.9084">
        <ele>1353.55</ele>
        <time>2024-01-31T14:20:46Z</time>
      </trkpt>
      <trkpt lat="43.82553" lon="6.90856">
        <ele>1354.61</ele>
        <time>2024-01-31T14:20:56Z</time>
      </trkpt>
      <trkpt lat="43.82588" lon="6.90852">
        <ele>1356.75</ele>
        <time>2024-01-31T14:21:18Z</time>
      </trkpt>
      <trkpt lat="43.82601" lon="6.90857">
        <ele>1358.48</ele>
        <time>2024-01-31T14:21:27Z</time>
      </trkpt>
      <trkpt lat="43.82617" lon="6.9089">
        <ele>1361.19</ele>
        <time>2024-01-31T14:21:42Z</time>
      </trkpt>
      <trkpt lat="43.82621" lon="6.90909">
        <ele>1361.88</ele>
        <time>2024-01-31T14:21:49Z</time>
      </trkpt>
      <trkpt lat="43.82623" lon="6.90935">
        <ele>1361.84</ele>
        <time>2024-01-31T14:21:58Z</time>
      </trkpt>
      <trkpt lat="43.82643" lon="6.90983">
        <ele>1361.2</ele>
        <time>2024-01-31T14:22:15Z</time>
      </trkpt>
      <trkpt lat="43.82653" lon="6.90996">
        <ele>1361.63</ele>
        <time>2024-01-31T14:22:20Z</time>
      </trkpt>
      <trkpt lat="43.82657" lon="6.91012">
        <ele>1361.37</ele>
        <time>2024-01-31T14:22:24Z</time>
      </trkpt>
      <trkpt lat="43.82651" lon="6.91042">
        <ele>1360.22</ele>
        <time>2024-01-31T14:22:32Z</time>
      </trkpt>
      <trkpt lat="43.82657" lon="6.91078">
        <ele>1361.02</ele>
        <time>2024-01-31T14:22:39Z</time>
      </trkpt>
      <trkpt lat="43.8266" lon="6.9112">
        <ele>1360.73</ele>
        <time>2024-01-31T14:22:48Z</time>
      </trkpt>
      <trkpt lat="43.82665" lon="6.91151">
        <ele>1361.17</ele>
        <time>2024-01-31T14:22:54Z</time>
      </trkpt>
      <trkpt lat="43.82664" lon="6.91171">
        <ele>1361.04</ele>
        <time>2024-01-31T14:22:58Z</time>
      </trkpt>
      <trkpt lat="43.82656" lon="6.91237">
        <ele>1360.18</ele>
        <time>2024-01-31T14:23:12Z</time>
      </trkpt>
      <trkpt lat="43.82654" lon="6.91295">
        <ele>1359.92</ele>
        <time>2024-01-31T14:23:24Z</time>
      </trkpt>
      <trkpt lat="43.82663" lon="6.91353">
        <ele>1360.71</ele>
        <time>2024-01-31T14:23:37Z</time>
      </trkpt>
      <trkpt lat="43.82668" lon="6.91368">
        <ele>1361.14</ele>
        <time>2024-01-31T14:23:41Z</time>
      </trkpt>
      <trkpt lat="43.82672" lon="6.91409">
        <ele>1361.24</ele>
        <time>2024-01-31T14:23:51Z</time>
      </trkpt>
      <trkpt lat="43.82672" lon="6.91441">
        <ele>1360.4</ele>
        <time>2024-01-31T14:23:59Z</time>
      </trkpt>
      <trkpt lat="43.82696" lon="6.91484">
        <ele>1362.84</ele>
        <time>2024-01-31T14:24:13Z</time>
      </trkpt>
      <trkpt lat="43.827" lon="6.91508">
        <ele>1362.97</ele>
        <time>2024-01-31T14:24:19Z</time>
      </trkpt>
      <trkpt lat="43.827" lon="6.91531">
        <ele>1362.51</ele>
        <time>2024-01-31T14:24:25Z</time>
      </trkpt>
      <trkpt lat="43.82714" lon="6.91581">
        <ele>1363.37</ele>
        <time>2024-01-31T14:24:40Z</time>
      </trkpt>
      <trkpt lat="43.82728" lon="6.91599">
        <ele>1364.55</ele>
        <time>2024-01-31T14:24:47Z</time>
      </trkpt>
      <trkpt lat="43.82753" lon="6.91666">
        <ele>1366.58</ele>
        <time>2024-01-31T14:25:06Z</time>
      </trkpt>
      <trkpt lat="43.82772" lon="6.91725">
        <ele>1367.63</ele>
        <time>2024-01-31T14:25:21Z</time>
      </trkpt>
      <trkpt lat="43.82782" lon="6.91743">
        <ele>1368.47</ele>
        <time>2024-01-31T14:25:27Z</time>
      </trkpt>
      <trkpt lat="43.82787" lon="6.91762">
        <ele>1368.27</ele>
        <time>2024-01-31T14:25:31Z</time>
      </trkpt>
      <trkpt lat="43.82794" lon="6.91802">
        <ele>1367.31</ele>
        <time>2024-01-31T14:25:40Z</time>
      </trkpt>
      <trkpt lat="43.82793" lon="6.91818">
        <ele>1366.21</ele>
        <time>2024-01-31T14:25:43Z</time>
      </trkpt>
      <trkpt lat="43.82808" lon="6.91896">
        <ele>1364.77</ele>
        <time>2024-01-31T14:26:00Z</time>
      </trkpt>
      <trkpt lat="43.82805" lon="6.91908">
        <ele>1363.88</ele>
        <time>2024-01-31T14:26:02Z</time>
      </trkpt>
      <trkpt lat="43.82792" lon="6.91931">
        <ele>1361.92</ele>
        <time>2024-01-31T14:26:08Z</time>
      </trkpt>
      <trkpt lat="43.82784" lon="6.91958">
        <ele>1360.61</ele>
        <time>2024-01-31T14:26:14Z</time>
      </trkpt>
      <trkpt lat="43.82777" lon="6.92035">
        <ele>1359.94</ele>
        <time>2024-01-31T14:26:30Z</time>
      </trkpt>
      <trkpt lat="43.82777" lon="6.9206">
        <ele>1359.29</ele>
        <time>2024-01-31T14:26:35Z</time>
      </trkpt>
      <trkpt lat="43.82784" lon="6.92078">
        <ele>1359.61</ele>
        <time>2024-01-31T14:26:40Z</time>
      </trkpt>
      <trkpt lat="43.82797" lon="6.92096">
        <ele>1360.23</ele>
        <time>2024-01-31T14:26:46Z</time>
      </trkpt>
      <trkpt lat="43.82805" lon="6.92118">
        <ele>1360.35</ele>
        <time>2024-01-31T14:26:51Z</time>
      </trkpt>
      <trkpt lat="43.82807" lon="6.92209">
        <ele>1359.53</ele>
        <time>2024-01-31T14:27:13Z</time>
      </trkpt>
      <trkpt lat="43.82825" lon="6.92327">
        <ele>1360.23</ele>
        <time>2024-01-31T14:27:41Z</time>
      </trkpt>
      <trkpt lat="43.82825" lon="6.92372">
        <ele>1360.29</ele>
        <time>2024-01-31T14:27:51Z</time>
      </trkpt>
      <trkpt lat="43.82808" lon="6.92432">
        <ele>1358.85</ele>
        <time>2024-01-31T14:28:05Z</time>
      </trkpt>
      <trkpt lat="43.82798" lon="6.92509">
        <ele>1357.92</ele>
        <time>2024-01-31T14:28:21Z</time>
      </trkpt>
      <trkpt lat="43.8279" lon="6.92625">
        <ele>1357.37</ele>
        <time>2024-01-31T14:28:45Z</time>
      </trkpt>
      <trkpt lat="43.82802" lon="6.92739">
        <ele>1358.43</ele>
        <time>2024-01-31T14:29:09Z</time>
      </trkpt>
      <trkpt lat="43.82799" lon="6.92771">
        <ele>1358.81</ele>
        <time>2024-01-31T14:29:16Z</time>
      </trkpt>
      <trkpt lat="43.82783" lon="6.92819">
        <ele>1358.82</ele>
        <time>2024-01-31T14:29:28Z</time>
      </trkpt>
      <trkpt lat="43.82786" lon="6.9286">
        <ele>1359.44</ele>
        <time>2024-01-31T14:29:38Z</time>
      </trkpt>
      <trkpt lat="43.82783" lon="6.92875">
        <ele>1359.47</ele>
        <time>2024-01-31T14:29:41Z</time>
      </trkpt>
      <trkpt lat="43.82708" lon="6.92942">
        <ele>1358.2</ele>
        <time>2024-01-31T14:30:12Z</time>
      </trkpt>
      <trkpt lat="43.82706" lon="6.92949">
        <ele>1358.21</ele>
        <time>2024-01-31T14:30:14Z</time>
      </trkpt>
      <trkpt lat="43.8271" lon="6.92967">
        <ele>1358.41</ele>
        <time>2024-01-31T14:30:19Z</time>
      </trkpt>
      <trkpt lat="43.82709" lon="6.92978">
        <ele>1358.5</ele>
        <time>2024-01-31T14:30:21Z</time>
      </trkpt>
      <trkpt lat="43.82703" lon="6.92992">
        <ele>1358.5</ele>
        <time>2024-01-31T14:30:26Z</time>
      </trkpt>
      <trkpt lat="43.82678" lon="6.93021">
        <ele>1358.62</ele>
        <time>2024-01-31T14:30:37Z</time>
      </trkpt>
      <trkpt lat="43.82674" lon="6.9303">
        <ele>1358.88</ele>
        <time>2024-01-31T14:30:40Z</time>
      </trkpt>
      <trkpt lat="43.8267" lon="6.9309">
        <ele>1359.03</ele>
        <time>2024-01-31T14:30:55Z</time>
      </trkpt>
      <trkpt lat="43.82668" lon="6.93096">
        <ele>1359.17</ele>
        <time>2024-01-31T14:30:57Z</time>
      </trkpt>
      <trkpt lat="43.82658" lon="6.93102">
        <ele>1359.52</ele>
        <time>2024-01-31T14:31:01Z</time>
      </trkpt>
      <trkpt lat="43.82655" lon="6.9311">
        <ele>1359.72</ele>
        <time>2024-01-31T14:31:04Z</time>
      </trkpt>
      <trkpt lat="43.82656" lon="6.93119">
        <ele>1359.67</ele>
        <time>2024-01-31T14:31:06Z</time>
      </trkpt>
      <trkpt lat="43.82686" lon="6.93155">
        <ele>1358.89</ele>
        <time>2024-01-31T14:31:22Z</time>
      </trkpt>
      <trkpt lat="43.82692" lon="6.93175">
        <ele>1358.87</ele>
        <time>2024-01-31T14:31:29Z</time>
      </trkpt>
      <trkpt lat="43.82691" lon="6.93197">
        <ele>1358.93</ele>
        <time>2024-01-31T14:31:36Z</time>
      </trkpt>
      <trkpt lat="43.82683" lon="6.93208">
        <ele>1359</ele>
        <time>2024-01-31T14:31:41Z</time>
      </trkpt>
      <trkpt lat="43.8266" lon="6.9322">
        <ele>1359.86</ele>
        <time>2024-01-31T14:31:53Z</time>
      </trkpt>
      <trkpt lat="43.82652" lon="6.93227">
        <ele>1360.42</ele>
        <time>2024-01-31T14:31:57Z</time>
      </trkpt>
      <trkpt lat="43.82621" lon="6.93281">
        <ele>1363.99</ele>
        <time>2024-01-31T14:32:25Z</time>
      </trkpt>
      <trkpt lat="43.82606" lon="6.93312">
        <ele>1365.78</ele>
        <time>2024-01-31T14:32:41Z</time>
      </trkpt>
      <trkpt lat="43.82604" lon="6.9334">
        <ele>1366.71</ele>
        <time>2024-01-31T14:32:54Z</time>
      </trkpt>
      <trkpt lat="43.82596" lon="6.93356">
        <ele>1367.9</ele>
        <time>2024-01-31T14:33:04Z</time>
      </trkpt>
      <trkpt lat="43.82582" lon="6.93385">
        <ele>1370.07</ele>
        <time>2024-01-31T14:33:22Z</time>
      </trkpt>
      <trkpt lat="43.82576" lon="6.9344">
        <ele>1375.22</ele>
        <time>2024-01-31T14:33:52Z</time>
      </trkpt>
      <trkpt lat="43.82576" lon="6.93458">
        <ele>1377.26</ele>
        <time>2024-01-31T14:34:03Z</time>
      </trkpt>
      <trkpt lat="43.82597" lon="6.93523">
        <ele>1384.26</ele>
        <time>2024-01-31T14:34:44Z</time>
      </trkpt>
      <trkpt lat="43.82615" lon="6.93642">
        <ele>1398.64</ele>
        <time>2024-01-31T14:35:57Z</time>
      </trkpt>
      <trkpt lat="43.82617" lon="6.9377">
        <ele>1412.09</ele>
        <time>2024-01-31T14:37:10Z</time>
      </trkpt>
      <trkpt lat="43.82615" lon="6.93824">
        <ele>1417.19</ele>
        <time>2024-01-31T14:37:38Z</time>
      </trkpt>
      <trkpt lat="43.82618" lon="6.93856">
        <ele>1420.39</ele>
        <time>2024-01-31T14:37:54Z</time>
      </trkpt>
      <trkpt lat="43.82619" lon="6.93893">
        <ele>1422.53</ele>
        <time>2024-01-31T14:38:11Z</time>
      </trkpt>
      <trkpt lat="43.82616" lon="6.93917">
        <ele>1424.04</ele>
        <time>2024-01-31T14:38:22Z</time>
      </trkpt>
      <trkpt lat="43.82619" lon="6.93935">
        <ele>1424.34</ele>
        <time>2024-01-31T14:38:30Z</time>
      </trkpt>
      <trkpt lat="43.82619" lon="6.93954">
        <ele>1425.37</ele>
        <time>2024-01-31T14:38:38Z</time>
      </trkpt>
      <trkpt lat="43.82632" lon="6.93987">
        <ele>1424.8</ele>
        <time>2024-01-31T14:38:52Z</time>
      </trkpt>
      <trkpt lat="43.82635" lon="6.94005">
        <ele>1425.39</ele>
        <time>2024-01-31T14:38:59Z</time>
      </trkpt>
      <trkpt lat="43.82632" lon="6.94021">
        <ele>1425.83</ele>
        <time>2024-01-31T14:39:04Z</time>
      </trkpt>
      <trkpt lat="43.82617" lon="6.94042">
        <ele>1427.74</ele>
        <time>2024-01-31T14:39:13Z</time>
      </trkpt>
      <trkpt lat="43.82615" lon="6.94052">
        <ele>1427.7</ele>
        <time>2024-01-31T14:39:16Z</time>
      </trkpt>
      <trkpt lat="43.82619" lon="6.94076">
        <ele>1427.62</ele>
        <time>2024-01-31T14:39:23Z</time>
      </trkpt>
      <trkpt lat="43.82626" lon="6.94088">
        <ele>1427.83</ele>
        <time>2024-01-31T14:39:26Z</time>
      </trkpt>
      <trkpt lat="43.82639" lon="6.94098">
        <ele>1427.6</ele>
        <time>2024-01-31T14:39:31Z</time>
      </trkpt>
      <trkpt lat="43.82674" lon="6.94115">
        <ele>1426.63</ele>
        <time>2024-01-31T14:39:41Z</time>
      </trkpt>
      <trkpt lat="43.82729" lon="6.9411">
        <ele>1420.52</ele>
        <time>2024-01-31T14:39:55Z</time>
      </trkpt>
      <trkpt lat="43.82774" lon="6.94117">
        <ele>1417.01</ele>
        <time>2024-01-31T14:40:07Z</time>
      </trkpt>
      <trkpt lat="43.82803" lon="6.94116">
        <ele>1413.07</ele>
        <time>2024-01-31T14:40:14Z</time>
      </trkpt>
      <trkpt lat="43.82825" lon="6.94129">
        <ele>1412.68</ele>
        <time>2024-01-31T14:40:20Z</time>
      </trkpt>
      <trkpt lat="43.82849" lon="6.94138">
        <ele>1412.06</ele>
        <time>2024-01-31T14:40:26Z</time>
      </trkpt>
      <trkpt lat="43.82901" lon="6.94164">
        <ele>1411.28</ele>
        <time>2024-01-31T14:40:40Z</time>
      </trkpt>
      <trkpt lat="43.82909" lon="6.9417">
        <ele>1411.42</ele>
        <time>2024-01-31T14:40:43Z</time>
      </trkpt>
      <trkpt lat="43.82911" lon="6.94183">
        <ele>1412.22</ele>
        <time>2024-01-31T14:40:45Z</time>
      </trkpt>
      <trkpt lat="43.82913" lon="6.94193">
        <ele>1412.95</ele>
        <time>2024-01-31T14:40:47Z</time>
      </trkpt>
      <trkpt lat="43.82909" lon="6.94257">
        <ele>1417.44</ele>
        <time>2024-01-31T14:41:01Z</time>
      </trkpt>
      <trkpt lat="43.8291" lon="6.94267">
        <ele>1417.37</ele>
        <time>2024-01-31T14:41:03Z</time>
      </trkpt>
      <trkpt lat="43.82921" lon="6.94299">
        <ele>1418.56</ele>
        <time>2024-01-31T14:41:12Z</time>
      </trkpt>
      <trkpt lat="43.82951" lon="6.94319">
        <ele>1419.16</ele>
        <time>2024-01-31T14:41:23Z</time>
      </trkpt>
      <trkpt lat="43.82965" lon="6.94338">
        <ele>1420.5</ele>
        <time>2024-01-31T14:41:30Z</time>
      </trkpt>
      <trkpt lat="43.82983" lon="6.94397">
        <ele>1424.13</ele>
        <time>2024-01-31T14:41:43Z</time>
      </trkpt>
      <trkpt lat="43.82997" lon="6.9443">
        <ele>1427.05</ele>
        <time>2024-01-31T14:41:50Z</time>
      </trkpt>
      <trkpt lat="43.83003" lon="6.94461">
        <ele>1428.95</ele>
        <time>2024-01-31T14:41:55Z</time>
      </trkpt>
      <trkpt lat="43.83001" lon="6.94497">
        <ele>1430.25</ele>
        <time>2024-01-31T14:42:01Z</time>
      </trkpt>
      <trkpt lat="43.83004" lon="6.94506">
        <ele>1430.29</ele>
        <time>2024-01-31T14:42:03Z</time>
      </trkpt>
      <trkpt lat="43.83007" lon="6.9451">
        <ele>1430.85</ele>
        <time>2024-01-31T14:42:04Z</time>
      </trkpt>
      <trkpt lat="43.82997" lon="6.94541">
        <ele>1429.38</ele>
        <time>2024-01-31T14:42:07Z</time>
      </trkpt>
      <trkpt lat="43.83033" lon="6.94619">
        <ele>1419.53</ele>
        <time>2024-01-31T14:42:22Z</time>
      </trkpt>
      <trkpt lat="43.83051" lon="6.94636">
        <ele>1419.76</ele>
        <time>2024-01-31T14:42:27Z</time>
      </trkpt>
      <trkpt lat="43.83053" lon="6.94676">
        <ele>1416.5</ele>
        <time>2024-01-31T14:42:33Z</time>
      </trkpt>
      <trkpt lat="43.8306" lon="6.94717">
        <ele>1413.54</ele>
        <time>2024-01-31T14:42:40Z</time>
      </trkpt>
      <trkpt lat="43.83084" lon="6.94754">
        <ele>1413.15</ele>
        <time>2024-01-31T14:42:48Z</time>
      </trkpt>
      <trkpt lat="43.83107" lon="6.94806">
        <ele>1409.97</ele>
        <time>2024-01-31T14:42:58Z</time>
      </trkpt>
      <trkpt lat="43.8314" lon="6.9486">
        <ele>1408.33</ele>
        <time>2024-01-31T14:43:11Z</time>
      </trkpt>
      <trkpt lat="43.8318" lon="6.94932">
        <ele>1407.6</ele>
        <time>2024-01-31T14:43:32Z</time>
      </trkpt>
      <trkpt lat="43.83202" lon="6.94998">
        <ele>1409.27</ele>
        <time>2024-01-31T14:43:53Z</time>
      </trkpt>
      <trkpt lat="43.83221" lon="6.95071">
        <ele>1410.96</ele>
        <time>2024-01-31T14:44:17Z</time>
      </trkpt>
      <trkpt lat="43.83247" lon="6.95191">
        <ele>1417.34</ele>
        <time>2024-01-31T14:45:00Z</time>
      </trkpt>
      <trkpt lat="43.83253" lon="6.95239">
        <ele>1418.59</ele>
        <time>2024-01-31T14:45:20Z</time>
      </trkpt>
      <trkpt lat="43.83269" lon="6.95311">
        <ele>1423.44</ele>
        <time>2024-01-31T14:45:52Z</time>
      </trkpt>
      <trkpt lat="43.83279" lon="6.95385">
        <ele>1423.64</ele>
        <time>2024-01-31T14:46:26Z</time>
      </trkpt>
      <trkpt lat="43.83338" lon="6.95505">
        <ele>1437.17</ele>
        <time>2024-01-31T14:47:32Z</time>
      </trkpt>
      <trkpt lat="43.8335" lon="6.95566">
        <ele>1443.99</ele>
        <time>2024-01-31T14:47:59Z</time>
      </trkpt>
      <trkpt lat="43.8335" lon="6.95621">
        <ele>1446.52</ele>
        <time>2024-01-31T14:48:20Z</time>
      </trkpt>
      <trkpt lat="43.8336" lon="6.9562">
        <ele>1447.84</ele>
        <time>2024-01-31T14:48:26Z</time>
      </trkpt>
      <trkpt lat="43.83373" lon="6.95624">
        <ele>1449.91</ele>
        <time>2024-01-31T14:48:32Z</time>
      </trkpt>
      <trkpt lat="43.8341" lon="6.95642">
        <ele>1455.75</ele>
        <time>2024-01-31T14:48:48Z</time>
      </trkpt>
      <trkpt lat="43.83464" lon="6.95712">
        <ele>1455.91</ele>
        <time>2024-01-31T14:49:12Z</time>
      </trkpt>
      <trkpt lat="43.83489" lon="6.95763">
        <ele>1455.51</ele>
        <time>2024-01-31T14:49:25Z</time>
      </trkpt>
      <trkpt lat="43.83521" lon="6.95869">
        <ele>1456.47</ele>
        <time>2024-01-31T14:49:48Z</time>
      </trkpt>
      <trkpt lat="43.83537" lon="6.95949">
        <ele>1455.57</ele>
        <time>2024-01-31T14:50:05Z</time>
      </trkpt>
      <trkpt lat="43.83543" lon="6.96025">
        <ele>1455.24</ele>
        <time>2024-01-31T14:50:22Z</time>
      </trkpt>
      <trkpt lat="43.83543" lon="6.96046">
        <ele>1455.01</ele>
        <time>2024-01-31T14:50:26Z</time>
      </trkpt>
      <trkpt lat="43.83558" lon="6.96147">
        <ele>1454.6</ele>
        <time>2024-01-31T14:50:51Z</time>
      </trkpt>
      <trkpt lat="43.8356" lon="6.96175">
        <ele>1454.33</ele>
        <time>2024-01-31T14:50:59Z</time>
      </trkpt>
      <trkpt lat="43.83557" lon="6.96246">
        <ele>1454.69</ele>
        <time>2024-01-31T14:51:19Z</time>
      </trkpt>
      <trkpt lat="43.83557" lon="6.9627">
        <ele>1454.71</ele>
        <time>2024-01-31T14:51:26Z</time>
      </trkpt>
      <trkpt lat="43.8357" lon="6.96374">
        <ele>1453.41</ele>
        <time>2024-01-31T14:51:55Z</time>
      </trkpt>
      <trkpt lat="43.83561" lon="6.96421">
        <ele>1455.08</ele>
        <time>2024-01-31T14:52:08Z</time>
      </trkpt>
      <trkpt lat="43.83539" lon="6.96471">
        <ele>1452.45</ele>
        <time>2024-01-31T14:52:24Z</time>
      </trkpt>
      <trkpt lat="43.83511" lon="6.96516">
        <ele>1452.19</ele>
        <time>2024-01-31T14:52:40Z</time>
      </trkpt>
      <trkpt lat="43.83464" lon="6.966">
        <ele>1454.85</ele>
        <time>2024-01-31T14:53:07Z</time>
      </trkpt>
      <trkpt lat="43.83415" lon="6.9673">
        <ele>1453.51</ele>
        <time>2024-01-31T14:53:36Z</time>
      </trkpt>
      <trkpt lat="43.83394" lon="6.96756">
        <ele>1454.56</ele>
        <time>2024-01-31T14:53:44Z</time>
      </trkpt>
      <trkpt lat="43.8332" lon="6.96818">
        <ele>1451.95</ele>
        <time>2024-01-31T14:54:06Z</time>
      </trkpt>
      <trkpt lat="43.83296" lon="6.96866">
        <ele>1454.31</ele>
        <time>2024-01-31T14:54:16Z</time>
      </trkpt>
      <trkpt lat="43.83246" lon="6.97006">
        <ele>1450.29</ele>
        <time>2024-01-31T14:54:42Z</time>
      </trkpt>
      <trkpt lat="43.83224" lon="6.97077">
        <ele>1445.14</ele>
        <time>2024-01-31T14:54:55Z</time>
      </trkpt>
      <trkpt lat="43.83206" lon="6.97149">
        <ele>1441.45</ele>
        <time>2024-01-31T14:55:08Z</time>
      </trkpt>
      <trkpt lat="43.83193" lon="6.97195">
        <ele>1436.15</ele>
        <time>2024-01-31T14:55:13Z</time>
      </trkpt>
      <trkpt lat="43.83175" lon="6.97273">
        <ele>1432.67</ele>
        <time>2024-01-31T14:55:22Z</time>
      </trkpt>
      <trkpt lat="43.83164" lon="6.97297">
        <ele>1432.41</ele>
        <time>2024-01-31T14:55:26Z</time>
      </trkpt>
      <trkpt lat="43.83154" lon="6.9731">
        <ele>1430.32</ele>
        <time>2024-01-31T14:55:29Z</time>
      </trkpt>
      <trkpt lat="43.83113" lon="6.97342">
        <ele>1428.99</ele>
        <time>2024-01-31T14:55:42Z</time>
      </trkpt>
      <trkpt lat="43.83114" lon="6.97347">
        <ele>1429.82</ele>
        <time>2024-01-31T14:55:44Z</time>
      </trkpt>
      <trkpt lat="43.83106" lon="6.97371">
        <ele>1432.49</ele>
        <time>2024-01-31T14:55:52Z</time>
      </trkpt>
      <trkpt lat="43.83084" lon="6.97408">
        <ele>1432.38</ele>
        <time>2024-01-31T14:56:08Z</time>
      </trkpt>
      <trkpt lat="43.83055" lon="6.9744">
        <ele>1429.79</ele>
        <time>2024-01-31T14:56:24Z</time>
      </trkpt>
      <trkpt lat="43.83022" lon="6.97459">
        <ele>1427.71</ele>
        <time>2024-01-31T14:56:41Z</time>
      </trkpt>
      <trkpt lat="43.82999" lon="6.97463">
        <ele>1428.76</ele>
        <time>2024-01-31T14:56:53Z</time>
      </trkpt>
      <trkpt lat="43.82973" lon="6.97458">
        <ele>1430.67</ele>
        <time>2024-01-31T14:57:07Z</time>
      </trkpt>
      <trkpt lat="43.82954" lon="6.97446">
        <ele>1430.88</ele>
        <time>2024-01-31T14:57:19Z</time>
      </trkpt>
      <trkpt lat="43.82913" lon="6.97404">
        <ele>1430.63</ele>
        <time>2024-01-31T14:57:45Z</time>
      </trkpt>
      <trkpt lat="43.82903" lon="6.974">
        <ele>1431.54</ele>
        <time>2024-01-31T14:57:51Z</time>
      </trkpt>
      <trkpt lat="43.82896" lon="6.97404">
        <ele>1432.1</ele>
        <time>2024-01-31T14:57:55Z</time>
      </trkpt>
      <trkpt lat="43.82884" lon="6.97419">
        <ele>1434.61</ele>
        <time>2024-01-31T14:58:03Z</time>
      </trkpt>
      <trkpt lat="43.82874" lon="6.97445">
        <ele>1438.11</ele>
        <time>2024-01-31T14:58:13Z</time>
      </trkpt>
      <trkpt lat="43.82873" lon="6.97461">
        <ele>1440.45</ele>
        <time>2024-01-31T14:58:19Z</time>
      </trkpt>
      <trkpt lat="43.82875" lon="6.97466">
        <ele>1441.03</ele>
        <time>2024-01-31T14:58:21Z</time>
      </trkpt>
      <trkpt lat="43.82877" lon="6.97471">
        <ele>1441.73</ele>
        <time>2024-01-31T14:58:23Z</time>
      </trkpt>
      <trkpt lat="43.82907" lon="6.97477">
        <ele>1441.86</ele>
        <time>2024-01-31T14:58:38Z</time>
      </trkpt>
      <trkpt lat="43.82926" lon="6.97497">
        <ele>1443.75</ele>
        <time>2024-01-31T14:58:50Z</time>
      </trkpt>
      <trkpt lat="43.82953" lon="6.97527">
        <ele>1444.58</ele>
        <time>2024-01-31T14:59:08Z</time>
      </trkpt>
      <trkpt lat="43.8297" lon="6.97562">
        <ele>1447.57</ele>
        <time>2024-01-31T14:59:24Z</time>
      </trkpt>
      <trkpt lat="43.82973" lon="6.97574">
        <ele>1448.77</ele>
        <time>2024-01-31T14:59:29Z</time>
      </trkpt>
      <trkpt lat="43.8297" lon="6.97582">
        <ele>1450.18</ele>
        <time>2024-01-31T14:59:33Z</time>
      </trkpt>
      <trkpt lat="43.82962" lon="6.97588">
        <ele>1451.1</ele>
        <time>2024-01-31T14:59:38Z</time>
      </trkpt>
      <trkpt lat="43.82949" lon="6.97585">
        <ele>1452.28</ele>
        <time>2024-01-31T14:59:44Z</time>
      </trkpt>
      <trkpt lat="43.82915" lon="6.97543">
        <ele>1450.91</ele>
        <time>2024-01-31T15:00:09Z</time>
      </trkpt>
      <trkpt lat="43.82899" lon="6.97539">
        <ele>1451.26</ele>
        <time>2024-01-31T15:00:17Z</time>
      </trkpt>
      <trkpt lat="43.82892" lon="6.97543">
        <ele>1451.78</ele>
        <time>2024-01-31T15:00:22Z</time>
      </trkpt>
      <trkpt lat="43.82883" lon="6.97556">
        <ele>1453.24</ele>
        <time>2024-01-31T15:00:29Z</time>
      </trkpt>
      <trkpt lat="43.82882" lon="6.97582">
        <ele>1456.08</ele>
        <time>2024-01-31T15:00:40Z</time>
      </trkpt>
      <trkpt lat="43.82912" lon="6.97623">
        <ele>1457.78</ele>
        <time>2024-01-31T15:01:04Z</time>
      </trkpt>
      <trkpt lat="43.82914" lon="6.97638">
        <ele>1459.08</ele>
        <time>2024-01-31T15:01:11Z</time>
      </trkpt>
      <trkpt lat="43.82912" lon="6.97653">
        <ele>1460.01</ele>
        <time>2024-01-31T15:01:17Z</time>
      </trkpt>
      <trkpt lat="43.82894" lon="6.97681">
        <ele>1462.51</ele>
        <time>2024-01-31T15:01:32Z</time>
      </trkpt>
      <trkpt lat="43.82862" lon="6.97733">
        <ele>1468.44</ele>
        <time>2024-01-31T15:02:02Z</time>
      </trkpt>
      <trkpt lat="43.82859" lon="6.97741">
        <ele>1468.66</ele>
        <time>2024-01-31T15:02:06Z</time>
      </trkpt>
      <trkpt lat="43.82862" lon="6.97758">
        <ele>1469.33</ele>
        <time>2024-01-31T15:02:14Z</time>
      </trkpt>
      <trkpt lat="43.82864" lon="6.97801">
        <ele>1470.73</ele>
        <time>2024-01-31T15:02:32Z</time>
      </trkpt>
      <trkpt lat="43.82857" lon="6.97846">
        <ele>1472.63</ele>
        <time>2024-01-31T15:02:53Z</time>
      </trkpt>
      <trkpt lat="43.82846" lon="6.97866">
        <ele>1473.03</ele>
        <time>2024-01-31T15:03:03Z</time>
      </trkpt>
      <trkpt lat="43.82826" lon="6.97884">
        <ele>1475.78</ele>
        <time>2024-01-31T15:03:17Z</time>
      </trkpt>
      <trkpt lat="43.82797" lon="6.97901">
        <ele>1479.01</ele>
        <time>2024-01-31T15:03:34Z</time>
      </trkpt>
      <trkpt lat="43.82795" lon="6.97911">
        <ele>1478.84</ele>
        <time>2024-01-31T15:03:38Z</time>
      </trkpt>
      <trkpt lat="43.82784" lon="6.97945">
        <ele>1481.21</ele>
        <time>2024-01-31T15:03:52Z</time>
      </trkpt>
      <trkpt lat="43.82766" lon="6.97982">
        <ele>1485.74</ele>
        <time>2024-01-31T15:04:10Z</time>
      </trkpt>
      <trkpt lat="43.82751" lon="6.98023">
        <ele>1488.89</ele>
        <time>2024-01-31T15:04:29Z</time>
      </trkpt>
      <trkpt lat="43.82739" lon="6.9808">
        <ele>1488.76</ele>
        <time>2024-01-31T15:04:55Z</time>
      </trkpt>
      <trkpt lat="43.82712" lon="6.98113">
        <ele>1489.49</ele>
        <time>2024-01-31T15:05:17Z</time>
      </trkpt>
      <trkpt lat="43.827" lon="6.98124">
        <ele>1489.82</ele>
        <time>2024-01-31T15:05:26Z</time>
      </trkpt>
      <trkpt lat="43.82688" lon="6.98131">
        <ele>1490.14</ele>
        <time>2024-01-31T15:05:34Z</time>
      </trkpt>
      <trkpt lat="43.82646" lon="6.98145">
        <ele>1492.93</ele>
        <time>2024-01-31T15:06:03Z</time>
      </trkpt>
      <trkpt lat="43.82619" lon="6.98145">
        <ele>1493.93</ele>
        <time>2024-01-31T15:06:22Z</time>
      </trkpt>
      <trkpt lat="43.82585" lon="6.98155">
        <ele>1498.11</ele>
        <time>2024-01-31T15:06:47Z</time>
      </trkpt>
      <trkpt lat="43.82554" lon="6.98169">
        <ele>1505.12</ele>
        <time>2024-01-31T15:07:12Z</time>
      </trkpt>
      <trkpt lat="43.82496" lon="6.98184">
        <ele>1514.78</ele>
        <time>2024-01-31T15:07:57Z</time>
      </trkpt>
      <trkpt lat="43.8245" lon="6.98218">
        <ele>1520.86</ele>
        <time>2024-01-31T15:08:37Z</time>
      </trkpt>
      <trkpt lat="43.82448" lon="6.98228">
        <ele>1521.68</ele>
        <time>2024-01-31T15:08:43Z</time>
      </trkpt>
      <trkpt lat="43.82452" lon="6.98244">
        <ele>1523.04</ele>
        <time>2024-01-31T15:08:52Z</time>
      </trkpt>
      <trkpt lat="43.8245" lon="6.98256">
        <ele>1523.84</ele>
        <time>2024-01-31T15:08:58Z</time>
      </trkpt>
      <trkpt lat="43.8243" lon="6.98291">
        <ele>1525.71</ele>
        <time>2024-01-31T15:09:20Z</time>
      </trkpt>
      <trkpt lat="43.82431" lon="6.98304">
        <ele>1526.92</ele>
        <time>2024-01-31T15:09:26Z</time>
      </trkpt>
      <trkpt lat="43.82431" lon="6.98313">
        <ele>1527.54</ele>
        <time>2024-01-31T15:09:31Z</time>
      </trkpt>
      <trkpt lat="43.82409" lon="6.98336">
        <ele>1529.98</ele>
        <time>2024-01-31T15:09:49Z</time>
      </trkpt>
      <trkpt lat="43.824" lon="6.98384">
        <ele>1531.29</ele>
        <time>2024-01-31T15:10:10Z</time>
      </trkpt>
      <trkpt lat="43.82391" lon="6.98471">
        <ele>1532.64</ele>
        <time>2024-01-31T15:10:45Z</time>
      </trkpt>
      <trkpt lat="43.8238" lon="6.9853">
        <ele>1535.33</ele>
        <time>2024-01-31T15:11:07Z</time>
      </trkpt>
      <trkpt lat="43.82376" lon="6.98605">
        <ele>1537.27</ele>
        <time>2024-01-31T15:11:30Z</time>
      </trkpt>
      <trkpt lat="43.82371" lon="6.9864">
        <ele>1539.84</ele>
        <time>2024-01-31T15:11:41Z</time>
      </trkpt>
      <trkpt lat="43.82375" lon="6.98669">
        <ele>1539.35</ele>
        <time>2024-01-31T15:11:49Z</time>
      </trkpt>
      <trkpt lat="43.82374" lon="6.98691">
        <ele>1538.38</ele>
        <time>2024-01-31T15:11:56Z</time>
      </trkpt>
      <trkpt lat="43.82386" lon="6.98755">
        <ele>1538.79</ele>
        <time>2024-01-31T15:12:14Z</time>
      </trkpt>
      <trkpt lat="43.82398" lon="6.98801">
        <ele>1538.9</ele>
        <time>2024-01-31T15:12:28Z</time>
      </trkpt>
      <trkpt lat="43.82391" lon="6.98853">
        <ele>1540.98</ele>
        <time>2024-01-31T15:12:43Z</time>
      </trkpt>
      <trkpt lat="43.82394" lon="6.98909">
        <ele>1543.58</ele>
        <time>2024-01-31T15:12:58Z</time>
      </trkpt>
      <trkpt lat="43.8239" lon="6.98931">
        <ele>1544.73</ele>
        <time>2024-01-31T15:13:04Z</time>
      </trkpt>
      <trkpt lat="43.82374" lon="6.98953">
        <ele>1545.54</ele>
        <time>2024-01-31T15:13:11Z</time>
      </trkpt>
      <trkpt lat="43.82358" lon="6.98986">
        <ele>1545.89</ele>
        <time>2024-01-31T15:13:20Z</time>
      </trkpt>
      <trkpt lat="43.82346" lon="6.99051">
        <ele>1549.08</ele>
        <time>2024-01-31T15:13:37Z</time>
      </trkpt>
      <trkpt lat="43.82345" lon="6.99089">
        <ele>1550.87</ele>
        <time>2024-01-31T15:13:46Z</time>
      </trkpt>
      <trkpt lat="43.82342" lon="6.99096">
        <ele>1551.61</ele>
        <time>2024-01-31T15:13:48Z</time>
      </trkpt>
      <trkpt lat="43.82335" lon="6.99099">
        <ele>1552.06</ele>
        <time>2024-01-31T15:13:51Z</time>
      </trkpt>
      <trkpt lat="43.8233" lon="6.99104">
        <ele>1553.08</ele>
        <time>2024-01-31T15:13:53Z</time>
      </trkpt>
      <trkpt lat="43.8232" lon="6.99137">
        <ele>1552.32</ele>
        <time>2024-01-31T15:14:03Z</time>
      </trkpt>
      <trkpt lat="43.82298" lon="6.99162">
        <ele>1548.44</ele>
        <time>2024-01-31T15:14:14Z</time>
      </trkpt>
      <trkpt lat="43.82286" lon="6.99178">
        <ele>1545.58</ele>
        <time>2024-01-31T15:14:20Z</time>
      </trkpt>
      <trkpt lat="43.82286" lon="6.99181">
        <ele>1545.58</ele>
        <time>2024-01-31T15:14:21Z</time>
      </trkpt>
      <trkpt lat="43.82287" lon="6.99187">
        <ele>1544.54</ele>
        <time>2024-01-31T15:14:23Z</time>
      </trkpt>
      <trkpt lat="43.82292" lon="6.99192">
        <ele>1544.16</ele>
        <time>2024-01-31T15:14:25Z</time>
      </trkpt>
      <trkpt lat="43.82318" lon="6.99212">
        <ele>1542.13</ele>
        <time>2024-01-31T15:14:37Z</time>
      </trkpt>
      <trkpt lat="43.82346" lon="6.99265">
        <ele>1546.46</ele>
        <time>2024-01-31T15:14:57Z</time>
      </trkpt>
      <trkpt lat="43.82368" lon="6.9933">
        <ele>1551.26</ele>
        <time>2024-01-31T15:15:21Z</time>
      </trkpt>
      <trkpt lat="43.82371" lon="6.99402">
        <ele>1553.63</ele>
        <time>2024-01-31T15:15:44Z</time>
      </trkpt>
      <trkpt lat="43.82375" lon="6.99453">
        <ele>1555.66</ele>
        <time>2024-01-31T15:16:00Z</time>
      </trkpt>
      <trkpt lat="43.82392" lon="6.99553">
        <ele>1556.9</ele>
        <time>2024-01-31T15:16:32Z</time>
      </trkpt>
      <trkpt lat="43.82385" lon="6.9962">
        <ele>1559.58</ele>
        <time>2024-01-31T15:16:54Z</time>
      </trkpt>
      <trkpt lat="43.82377" lon="6.99648">
        <ele>1561.06</ele>
        <time>2024-01-31T15:17:05Z</time>
      </trkpt>
      <trkpt lat="43.82366" lon="6.99672">
        <ele>1561.83</ele>
        <time>2024-01-31T15:17:14Z</time>
      </trkpt>
      <trkpt lat="43.8235" lon="6.99682">
        <ele>1563.08</ele>
        <time>2024-01-31T15:17:22Z</time>
      </trkpt>
      <trkpt lat="43.823" lon="6.99703">
        <ele>1565.01</ele>
        <time>2024-01-31T15:17:48Z</time>
      </trkpt>
      <trkpt lat="43.8229" lon="6.99717">
        <ele>1565.58</ele>
        <time>2024-01-31T15:17:55Z</time>
      </trkpt>
      <trkpt lat="43.82281" lon="6.99736">
        <ele>1566.99</ele>
        <time>2024-01-31T15:18:04Z</time>
      </trkpt>
      <trkpt lat="43.8226" lon="6.99813">
        <ele>1574.97</ele>
        <time>2024-01-31T15:18:34Z</time>
      </trkpt>
      <trkpt lat="43.82258" lon="6.99841">
        <ele>1577.01</ele>
        <time>2024-01-31T15:18:43Z</time>
      </trkpt>
      <trkpt lat="43.82247" lon="6.99859">
        <ele>1578.78</ele>
        <time>2024-01-31T15:18:50Z</time>
      </trkpt>
      <trkpt lat="43.82208" lon="6.99881">
        <ele>1585.68</ele>
        <time>2024-01-31T15:19:04Z</time>
      </trkpt>
      <trkpt lat="43.82189" lon="6.99896">
        <ele>1587.65</ele>
        <time>2024-01-31T15:19:10Z</time>
      </trkpt>
      <trkpt lat="43.8217" lon="6.99912">
        <ele>1586.77</ele>
        <time>2024-01-31T15:19:16Z</time>
      </trkpt>
      <trkpt lat="43.82153" lon="6.99921">
        <ele>1584.63</ele>
        <time>2024-01-31T15:19:20Z</time>
      </trkpt>
      <trkpt lat="43.82143" lon="6.99942">
        <ele>1583.35</ele>
        <time>2024-01-31T15:19:24Z</time>
      </trkpt>
      <trkpt lat="43.82134" lon="6.99975">
        <ele>1581.22</ele>
        <time>2024-01-31T15:19:29Z</time>
      </trkpt>
      <trkpt lat="43.82134" lon="7.00025">
        <ele>1576.2</ele>
        <time>2024-01-31T15:19:37Z</time>
      </trkpt>
      <trkpt lat="43.82119" lon="7.00105">
        <ele>1570.08</ele>
        <time>2024-01-31T15:19:48Z</time>
      </trkpt>
      <trkpt lat="43.82091" lon="7.00137">
        <ele>1568.54</ele>
        <time>2024-01-31T15:19:55Z</time>
      </trkpt>
      <trkpt lat="43.82079" lon="7.00158">
        <ele>1566.56</ele>
        <time>2024-01-31T15:19:59Z</time>
      </trkpt>
      <trkpt lat="43.82076" lon="7.00186">
        <ele>1564.27</ele>
        <time>2024-01-31T15:20:02Z</time>
      </trkpt>
      <trkpt lat="43.82078" lon="7.00211">
        <ele>1561.67</ele>
        <time>2024-01-31T15:20:06Z</time>
      </trkpt>
      <trkpt lat="43.82092" lon="7.00264">
        <ele>1554.68</ele>
        <time>2024-01-31T15:20:13Z</time>
      </trkpt>
      <trkpt lat="43.82097" lon="7.00309">
        <ele>1547.59</ele>
        <time>2024-01-31T15:20:19Z</time>
      </trkpt>
      <trkpt lat="43.82097" lon="7.00391">
        <ele>1535.9</ele>
        <time>2024-01-31T15:20:30Z</time>
      </trkpt>
      <trkpt lat="43.82099" lon="7.00412">
        <ele>1533.54</ele>
        <time>2024-01-31T15:20:33Z</time>
      </trkpt>
      <trkpt lat="43.82103" lon="7.00424">
        <ele>1530.62</ele>
        <time>2024-01-31T15:20:35Z</time>
      </trkpt>
      <trkpt lat="43.82122" lon="7.0048">
        <ele>1521.26</ele>
        <time>2024-01-31T15:20:44Z</time>
      </trkpt>
      <trkpt lat="43.82134" lon="7.00545">
        <ele>1510.35</ele>
        <time>2024-01-31T15:20:53Z</time>
      </trkpt>
      <trkpt lat="43.82134" lon="7.0058">
        <ele>1504.7</ele>
        <time>2024-01-31T15:20:57Z</time>
      </trkpt>
      <trkpt lat="43.82142" lon="7.0061">
        <ele>1501.49</ele>
        <time>2024-01-31T15:21:02Z</time>
      </trkpt>
      <trkpt lat="43.82143" lon="7.00636">
        <ele>1497.35</ele>
        <time>2024-01-31T15:21:06Z</time>
      </trkpt>
      <trkpt lat="43.82137" lon="7.00671">
        <ele>1490.89</ele>
        <time>2024-01-31T15:21:11Z</time>
      </trkpt>
      <trkpt lat="43.82132" lon="7.00678">
        <ele>1489.84</ele>
        <time>2024-01-31T15:21:12Z</time>
      </trkpt>
      <trkpt lat="43.82125" lon="7.00688">
        <ele>1488.47</ele>
        <time>2024-01-31T15:21:14Z</time>
      </trkpt>
      <trkpt lat="43.82112" lon="7.00693">
        <ele>1487.1</ele>
        <time>2024-01-31T15:21:17Z</time>
      </trkpt>
      <trkpt lat="43.82101" lon="7.0069">
        <ele>1484.9</ele>
        <time>2024-01-31T15:21:19Z</time>
      </trkpt>
      <trkpt lat="43.82061" lon="7.00665">
        <ele>1477.68</ele>
        <time>2024-01-31T15:21:28Z</time>
      </trkpt>
      <trkpt lat="43.82051" lon="7.00648">
        <ele>1475.76</ele>
        <time>2024-01-31T15:21:32Z</time>
      </trkpt>
      <trkpt lat="43.82044" lon="7.00641">
        <ele>1475.15</ele>
        <time>2024-01-31T15:21:33Z</time>
      </trkpt>
      <trkpt lat="43.82031" lon="7.00638">
        <ele>1473.11</ele>
        <time>2024-01-31T15:21:36Z</time>
      </trkpt>
      <trkpt lat="43.82019" lon="7.00626">
        <ele>1471.27</ele>
        <time>2024-01-31T15:21:39Z</time>
      </trkpt>
      <trkpt lat="43.8201" lon="7.00623">
        <ele>1470.17</ele>
        <time>2024-01-31T15:21:41Z</time>
      </trkpt>
      <trkpt lat="43.81998" lon="7.00626">
        <ele>1468.49</ele>
        <time>2024-01-31T15:21:44Z</time>
      </trkpt>
      <trkpt lat="43.81987" lon="7.00635">
        <ele>1466.48</ele>
        <time>2024-01-31T15:21:47Z</time>
      </trkpt>
      <trkpt lat="43.8198" lon="7.00649">
        <ele>1465.37</ele>
        <time>2024-01-31T15:21:49Z</time>
      </trkpt>
      <trkpt lat="43.81977" lon="7.00663">
        <ele>1463.71</ele>
        <time>2024-01-31T15:21:51Z</time>
      </trkpt>
      <trkpt lat="43.8198" lon="7.00693">
        <ele>1461.51</ele>
        <time>2024-01-31T15:21:56Z</time>
      </trkpt>
      <trkpt lat="43.82003" lon="7.00789">
        <ele>1457.14</ele>
        <time>2024-01-31T15:22:11Z</time>
      </trkpt>
      <trkpt lat="43.82004" lon="7.00827">
        <ele>1453.12</ele>
        <time>2024-01-31T15:22:17Z</time>
      </trkpt>
      <trkpt lat="43.82" lon="7.00864">
        <ele>1451.26</ele>
        <time>2024-01-31T15:22:23Z</time>
      </trkpt>
      <trkpt lat="43.81993" lon="7.00892">
        <ele>1446.51</ele>
        <time>2024-01-31T15:22:28Z</time>
      </trkpt>
      <trkpt lat="43.81993" lon="7.00919">
        <ele>1442.78</ele>
        <time>2024-01-31T15:22:32Z</time>
      </trkpt>
      <trkpt lat="43.82002" lon="7.00949">
        <ele>1440.09</ele>
        <time>2024-01-31T15:22:36Z</time>
      </trkpt>
      <trkpt lat="43.82017" lon="7.00977">
        <ele>1437.25</ele>
        <time>2024-01-31T15:22:42Z</time>
      </trkpt>
      <trkpt lat="43.82015" lon="7.00982">
        <ele>1436.61</ele>
        <time>2024-01-31T15:22:43Z</time>
      </trkpt>
      <trkpt lat="43.81998" lon="7.00958">
        <ele>1437.24</ele>
        <time>2024-01-31T15:22:48Z</time>
      </trkpt>
      <trkpt lat="43.81993" lon="7.00963">
        <ele>1435.42</ele>
        <time>2024-01-31T15:22:49Z</time>
      </trkpt>
      <trkpt lat="43.81993" lon="7.00975">
        <ele>1434.7</ele>
        <time>2024-01-31T15:22:51Z</time>
      </trkpt>
      <trkpt lat="43.82009" lon="7.00999">
        <ele>1432.72</ele>
        <time>2024-01-31T15:22:56Z</time>
      </trkpt>
      <trkpt lat="43.82021" lon="7.01031">
        <ele>1431.8</ele>
        <time>2024-01-31T15:23:02Z</time>
      </trkpt>
      <trkpt lat="43.8203" lon="7.01036">
        <ele>1431.73</ele>
        <time>2024-01-31T15:23:04Z</time>
      </trkpt>
      <trkpt lat="43.82029" lon="7.01043">
        <ele>1431.2</ele>
        <time>2024-01-31T15:23:05Z</time>
      </trkpt>
      <trkpt lat="43.82034" lon="7.01044">
        <ele>1431.68</ele>
        <time>2024-01-31T15:23:06Z</time>
      </trkpt>
      <trkpt lat="43.82042" lon="7.01064">
        <ele>1435.18</ele>
        <time>2024-01-31T15:23:10Z</time>
      </trkpt>
      <trkpt lat="43.82048" lon="7.01069">
        <ele>1438.14</ele>
        <time>2024-01-31T15:23:12Z</time>
      </trkpt>
      <trkpt lat="43.82043" lon="7.01082">
        <ele>1438.28</ele>
        <time>2024-01-31T15:23:14Z</time>
      </trkpt>
      <trkpt lat="43.82012" lon="7.01126">
        <ele>1431.28</ele>
        <time>2024-01-31T15:23:24Z</time>
      </trkpt>
      <trkpt lat="43.82005" lon="7.01144">
        <ele>1431.22</ele>
        <time>2024-01-31T15:23:27Z</time>
      </trkpt>
      <trkpt lat="43.81996" lon="7.01201">
        <ele>1429.41</ele>
        <time>2024-01-31T15:23:36Z</time>
      </trkpt>
      <trkpt lat="43.81996" lon="7.01221">
        <ele>1427.78</ele>
        <time>2024-01-31T15:23:40Z</time>
      </trkpt>
      <trkpt lat="43.82003" lon="7.01256">
        <ele>1424.64</ele>
        <time>2024-01-31T15:23:45Z</time>
      </trkpt>
      <trkpt lat="43.82001" lon="7.01307">
        <ele>1418.63</ele>
        <time>2024-01-31T15:23:53Z</time>
      </trkpt>
      <trkpt lat="43.82023" lon="7.01412">
        <ele>1418.4</ele>
        <time>2024-01-31T15:24:09Z</time>
      </trkpt>
      <trkpt lat="43.82019" lon="7.01444">
        <ele>1415.78</ele>
        <time>2024-01-31T15:24:14Z</time>
      </trkpt>
      <trkpt lat="43.82018" lon="7.01498">
        <ele>1412.44</ele>
        <time>2024-01-31T15:24:21Z</time>
      </trkpt>
      <trkpt lat="43.82023" lon="7.0155">
        <ele>1407.46</ele>
        <time>2024-01-31T15:24:29Z</time>
      </trkpt>
      <trkpt lat="43.82016" lon="7.01589">
        <ele>1400.84</ele>
        <time>2024-01-31T15:24:35Z</time>
      </trkpt>
      <trkpt lat="43.82017" lon="7.01621">
        <ele>1399.2</ele>
        <time>2024-01-31T15:24:40Z</time>
      </trkpt>
      <trkpt lat="43.82019" lon="7.01646">
        <ele>1398.81</ele>
        <time>2024-01-31T15:24:43Z</time>
      </trkpt>
      <trkpt lat="43.82023" lon="7.01669">
        <ele>1398.49</ele>
        <time>2024-01-31T15:24:47Z</time>
      </trkpt>
      <trkpt lat="43.82024" lon="7.01697">
        <ele>1397.11</ele>
        <time>2024-01-31T15:24:51Z</time>
      </trkpt>
      <trkpt lat="43.82014" lon="7.01718">
        <ele>1397.09</ele>
        <time>2024-01-31T15:24:54Z</time>
      </trkpt>
      <trkpt lat="43.82008" lon="7.01737">
        <ele>1397.27</ele>
        <time>2024-01-31T15:24:57Z</time>
      </trkpt>
      <trkpt lat="43.82014" lon="7.01761">
        <ele>1400.96</ele>
        <time>2024-01-31T15:25:01Z</time>
      </trkpt>
      <trkpt lat="43.82013" lon="7.01772">
        <ele>1399.96</ele>
        <time>2024-01-31T15:25:02Z</time>
      </trkpt>
      <trkpt lat="43.82006" lon="7.01785">
        <ele>1398.42</ele>
        <time>2024-01-31T15:25:05Z</time>
      </trkpt>
      <trkpt lat="43.82007" lon="7.01797">
        <ele>1397.6</ele>
        <time>2024-01-31T15:25:06Z</time>
      </trkpt>
      <trkpt lat="43.81992" lon="7.01838">
        <ele>1390.21</ele>
        <time>2024-01-31T15:25:13Z</time>
      </trkpt>
      <trkpt lat="43.8199" lon="7.01861">
        <ele>1386.13</ele>
        <time>2024-01-31T15:25:16Z</time>
      </trkpt>
      <trkpt lat="43.81981" lon="7.01884">
        <ele>1380.75</ele>
        <time>2024-01-31T15:25:20Z</time>
      </trkpt>
      <trkpt lat="43.81979" lon="7.01939">
        <ele>1371.92</ele>
        <time>2024-01-31T15:25:27Z</time>
      </trkpt>
      <trkpt lat="43.81982" lon="7.01968">
        <ele>1367.24</ele>
        <time>2024-01-31T15:25:31Z</time>
      </trkpt>
      <trkpt lat="43.82" lon="7.02018">
        <ele>1361.64</ele>
        <time>2024-01-31T15:25:39Z</time>
      </trkpt>
      <trkpt lat="43.82009" lon="7.02102">
        <ele>1355.19</ele>
        <time>2024-01-31T15:25:50Z</time>
      </trkpt>
      <trkpt lat="43.82007" lon="7.02134">
        <ele>1349.74</ele>
        <time>2024-01-31T15:25:55Z</time>
      </trkpt>
      <trkpt lat="43.81991" lon="7.02218">
        <ele>1339.79</ele>
        <time>2024-01-31T15:26:07Z</time>
      </trkpt>
      <trkpt lat="43.81993" lon="7.02252">
        <ele>1337.15</ele>
        <time>2024-01-31T15:26:12Z</time>
      </trkpt>
      <trkpt lat="43.82" lon="7.02294">
        <ele>1332.89</ele>
        <time>2024-01-31T15:26:17Z</time>
      </trkpt>
      <trkpt lat="43.82021" lon="7.02339">
        <ele>1329.33</ele>
        <time>2024-01-31T15:26:25Z</time>
      </trkpt>
      <trkpt lat="43.82034" lon="7.0243">
        <ele>1314.07</ele>
        <time>2024-01-31T15:26:38Z</time>
      </trkpt>
      <trkpt lat="43.82032" lon="7.02442">
        <ele>1312.24</ele>
        <time>2024-01-31T15:26:39Z</time>
      </trkpt>
      <trkpt lat="43.82038" lon="7.0249">
        <ele>1303.14</ele>
        <time>2024-01-31T15:26:46Z</time>
      </trkpt>
      <trkpt lat="43.82042" lon="7.02504">
        <ele>1301.21</ele>
        <time>2024-01-31T15:26:49Z</time>
      </trkpt>
      <trkpt lat="43.82058" lon="7.02524">
        <ele>1303.17</ele>
        <time>2024-01-31T15:26:54Z</time>
      </trkpt>
      <trkpt lat="43.82068" lon="7.02548">
        <ele>1300.38</ele>
        <time>2024-01-31T15:26:58Z</time>
      </trkpt>
      <trkpt lat="43.82068" lon="7.0256">
        <ele>1297.6</ele>
        <time>2024-01-31T15:27:00Z</time>
      </trkpt>
      <trkpt lat="43.82055" lon="7.02606">
        <ele>1284.1</ele>
        <time>2024-01-31T15:27:10Z</time>
      </trkpt>
      <trkpt lat="43.82056" lon="7.02617">
        <ele>1281.79</ele>
        <time>2024-01-31T15:27:12Z</time>
      </trkpt>
      <trkpt lat="43.8208" lon="7.02645">
        <ele>1278.38</ele>
        <time>2024-01-31T15:27:24Z</time>
      </trkpt>
      <trkpt lat="43.82083" lon="7.02662">
        <ele>1276.26</ele>
        <time>2024-01-31T15:27:30Z</time>
      </trkpt>
      <trkpt lat="43.82102" lon="7.02688">
        <ele>1278.17</ele>
        <time>2024-01-31T15:27:42Z</time>
      </trkpt>
      <trkpt lat="43.82134" lon="7.02711">
        <ele>1283.25</ele>
        <time>2024-01-31T15:28:04Z</time>
      </trkpt>
      <trkpt lat="43.82159" lon="7.02722">
        <ele>1286.09</ele>
        <time>2024-01-31T15:28:21Z</time>
      </trkpt>
      <trkpt lat="43.82221" lon="7.02789">
        <ele>1292.74</ele>
        <time>2024-01-31T15:29:18Z</time>
      </trkpt>
      <trkpt lat="43.82243" lon="7.02831">
        <ele>1296.56</ele>
        <time>2024-01-31T15:29:41Z</time>
      </trkpt>
      <trkpt lat="43.82249" lon="7.02851">
        <ele>1299.13</ele>
        <time>2024-01-31T15:29:51Z</time>
      </trkpt>
      <trkpt lat="43.82247" lon="7.02879">
        <ele>1302.09</ele>
        <time>2024-01-31T15:30:04Z</time>
      </trkpt>
      <trkpt lat="43.82235" lon="7.02909">
        <ele>1304.94</ele>
        <time>2024-01-31T15:30:20Z</time>
      </trkpt>
      <trkpt lat="43.82231" lon="7.02933">
        <ele>1307.2</ele>
        <time>2024-01-31T15:30:32Z</time>
      </trkpt>
      <trkpt lat="43.82208" lon="7.02979">
        <ele>1309.6</ele>
        <time>2024-01-31T15:30:59Z</time>
      </trkpt>
      <trkpt lat="43.822" lon="7.03002">
        <ele>1310.68</ele>
        <time>2024-01-31T15:31:11Z</time>
      </trkpt>
      <trkpt lat="43.82201" lon="7.03033">
        <ele>1311.66</ele>
        <time>2024-01-31T15:31:26Z</time>
      </trkpt>
      <trkpt lat="43.82198" lon="7.03077">
        <ele>1313.78</ele>
        <time>2024-01-31T15:31:45Z</time>
      </trkpt>
      <trkpt lat="43.82204" lon="7.03114">
        <ele>1316.34</ele>
        <time>2024-01-31T15:32:02Z</time>
      </trkpt>
      <trkpt lat="43.82238" lon="7.03164">
        <ele>1323.01</ele>
        <time>2024-01-31T15:32:29Z</time>
      </trkpt>
      <trkpt lat="43.82244" lon="7.0318">
        <ele>1324.94</ele>
        <time>2024-01-31T15:32:35Z</time>
      </trkpt>
      <trkpt lat="43.8224" lon="7.03205">
        <ele>1326.73</ele>
        <time>2024-01-31T15:32:43Z</time>
      </trkpt>
      <trkpt lat="43.82231" lon="7.03232">
        <ele>1328.09</ele>
        <time>2024-01-31T15:32:53Z</time>
      </trkpt>
      <trkpt lat="43.82226" lon="7.0328">
        <ele>1329.33</ele>
        <time>2024-01-31T15:33:05Z</time>
      </trkpt>
      <trkpt lat="43.82204" lon="7.0331">
        <ele>1328.97</ele>
        <time>2024-01-31T15:33:13Z</time>
      </trkpt>
      <trkpt lat="43.82149" lon="7.03418">
        <ele>1328.77</ele>
        <time>2024-01-31T15:33:35Z</time>
      </trkpt>
      <trkpt lat="43.82139" lon="7.03448">
        <ele>1327.67</ele>
        <time>2024-01-31T15:33:40Z</time>
      </trkpt>
      <trkpt lat="43.82138" lon="7.03473">
        <ele>1327.44</ele>
        <time>2024-01-31T15:33:43Z</time>
      </trkpt>
      <trkpt lat="43.82133" lon="7.03479">
        <ele>1326.64</ele>
        <time>2024-01-31T15:33:45Z</time>
      </trkpt>
      <trkpt lat="43.82113" lon="7.03476">
        <ele>1322.57</ele>
        <time>2024-01-31T15:33:49Z</time>
      </trkpt>
      <trkpt lat="43.82101" lon="7.03491">
        <ele>1319.56</ele>
        <time>2024-01-31T15:33:52Z</time>
      </trkpt>
      <trkpt lat="43.82076" lon="7.03537">
        <ele>1313.09</ele>
        <time>2024-01-31T15:34:00Z</time>
      </trkpt>
      <trkpt lat="43.82059" lon="7.03562">
        <ele>1309.28</ele>
        <time>2024-01-31T15:34:05Z</time>
      </trkpt>
      <trkpt lat="43.82036" lon="7.03557">
        <ele>1307.59</ele>
        <time>2024-01-31T15:34:10Z</time>
      </trkpt>
      <trkpt lat="43.81997" lon="7.03556">
        <ele>1303.62</ele>
        <time>2024-01-31T15:34:18Z</time>
      </trkpt>
      <trkpt lat="43.8198" lon="7.03572">
        <ele>1301.35</ele>
        <time>2024-01-31T15:34:22Z</time>
      </trkpt>
      <trkpt lat="43.81931" lon="7.03653">
        <ele>1295.4</ele>
        <time>2024-01-31T15:34:37Z</time>
      </trkpt>
      <trkpt lat="43.81824" lon="7.03727">
        <ele>1282.84</ele>
        <time>2024-01-31T15:35:00Z</time>
      </trkpt>
      <trkpt lat="43.81814" lon="7.03747">
        <ele>1281.12</ele>
        <time>2024-01-31T15:35:03Z</time>
      </trkpt>
      <trkpt lat="43.81791" lon="7.03764">
        <ele>1275</ele>
        <time>2024-01-31T15:35:08Z</time>
      </trkpt>
      <trkpt lat="43.81773" lon="7.03786">
        <ele>1267.54</ele>
        <time>2024-01-31T15:35:12Z</time>
      </trkpt>
      <trkpt lat="43.81765" lon="7.03788">
        <ele>1265.27</ele>
        <time>2024-01-31T15:35:14Z</time>
      </trkpt>
      <trkpt lat="43.81743" lon="7.03779">
        <ele>1260.35</ele>
        <time>2024-01-31T15:35:19Z</time>
      </trkpt>
      <trkpt lat="43.81732" lon="7.03781">
        <ele>1257.35</ele>
        <time>2024-01-31T15:35:21Z</time>
      </trkpt>
      <trkpt lat="43.81725" lon="7.03777">
        <ele>1255.58</ele>
        <time>2024-01-31T15:35:22Z</time>
      </trkpt>
      <trkpt lat="43.81718" lon="7.03779">
        <ele>1254.43</ele>
        <time>2024-01-31T15:35:24Z</time>
      </trkpt>
      <trkpt lat="43.81696" lon="7.03818">
        <ele>1247.56</ele>
        <time>2024-01-31T15:35:31Z</time>
      </trkpt>
      <trkpt lat="43.81696" lon="7.03841">
        <ele>1245.1</ele>
        <time>2024-01-31T15:35:34Z</time>
      </trkpt>
      <trkpt lat="43.81693" lon="7.03856">
        <ele>1241.52</ele>
        <time>2024-01-31T15:35:36Z</time>
      </trkpt>
      <trkpt lat="43.81699" lon="7.03903">
        <ele>1237.68</ele>
        <time>2024-01-31T15:35:43Z</time>
      </trkpt>
      <trkpt lat="43.81695" lon="7.03914">
        <ele>1238.88</ele>
        <time>2024-01-31T15:35:45Z</time>
      </trkpt>
      <trkpt lat="43.81683" lon="7.03923">
        <ele>1240.32</ele>
        <time>2024-01-31T15:35:48Z</time>
      </trkpt>
      <trkpt lat="43.81666" lon="7.03967">
        <ele>1240.46</ele>
        <time>2024-01-31T15:35:56Z</time>
      </trkpt>
      <trkpt lat="43.81665" lon="7.0398">
        <ele>1239.43</ele>
        <time>2024-01-31T15:35:58Z</time>
      </trkpt>
      <trkpt lat="43.81659" lon="7.04002">
        <ele>1237.47</ele>
        <time>2024-01-31T15:36:02Z</time>
      </trkpt>
      <trkpt lat="43.81658" lon="7.04041">
        <ele>1235.65</ele>
        <time>2024-01-31T15:36:08Z</time>
      </trkpt>
      <trkpt lat="43.81656" lon="7.04057">
        <ele>1234.93</ele>
        <time>2024-01-31T15:36:11Z</time>
      </trkpt>
      <trkpt lat="43.81652" lon="7.04067">
        <ele>1234.47</ele>
        <time>2024-01-31T15:36:13Z</time>
      </trkpt>
      <trkpt lat="43.81646" lon="7.04074">
        <ele>1234.16</ele>
        <time>2024-01-31T15:36:15Z</time>
      </trkpt>
      <trkpt lat="43.81625" lon="7.0409">
        <ele>1231.02</ele>
        <time>2024-01-31T15:36:20Z</time>
      </trkpt>
      <trkpt lat="43.81598" lon="7.04131">
        <ele>1229.4</ele>
        <time>2024-01-31T15:36:29Z</time>
      </trkpt>
      <trkpt lat="43.81585" lon="7.04167">
        <ele>1228.65</ele>
        <time>2024-01-31T15:36:36Z</time>
      </trkpt>
      <trkpt lat="43.8158" lon="7.04172">
        <ele>1228.35</ele>
        <time>2024-01-31T15:36:37Z</time>
      </trkpt>
      <trkpt lat="43.81579" lon="7.04183">
        <ele>1227.87</ele>
        <time>2024-01-31T15:36:38Z</time>
      </trkpt>
      <trkpt lat="43.81583" lon="7.04202">
        <ele>1227.85</ele>
        <time>2024-01-31T15:36:42Z</time>
      </trkpt>
      <trkpt lat="43.81568" lon="7.04229">
        <ele>1223.07</ele>
        <time>2024-01-31T15:36:47Z</time>
      </trkpt>
      <trkpt lat="43.81546" lon="7.04262">
        <ele>1218.82</ele>
        <time>2024-01-31T15:36:55Z</time>
      </trkpt>
      <trkpt lat="43.81547" lon="7.04273">
        <ele>1217.41</ele>
        <time>2024-01-31T15:36:56Z</time>
      </trkpt>
      <trkpt lat="43.81571" lon="7.04335">
        <ele>1211.01</ele>
        <time>2024-01-31T15:37:09Z</time>
      </trkpt>
      <trkpt lat="43.8158" lon="7.04341">
        <ele>1210.99</ele>
        <time>2024-01-31T15:37:11Z</time>
      </trkpt>
      <trkpt lat="43.81587" lon="7.04358">
        <ele>1211.07</ele>
        <time>2024-01-31T15:37:15Z</time>
      </trkpt>
      <trkpt lat="43.81593" lon="7.04381">
        <ele>1211.73</ele>
        <time>2024-01-31T15:37:20Z</time>
      </trkpt>
      <trkpt lat="43.816" lon="7.04492">
        <ele>1206.56</ele>
        <time>2024-01-31T15:37:49Z</time>
      </trkpt>
      <trkpt lat="43.81619" lon="7.04508">
        <ele>1208.73</ele>
        <time>2024-01-31T15:37:57Z</time>
      </trkpt>
      <trkpt lat="43.81632" lon="7.04511">
        <ele>1210.01</ele>
        <time>2024-01-31T15:38:02Z</time>
      </trkpt>
      <trkpt lat="43.81658" lon="7.04538">
        <ele>1216.29</ele>
        <time>2024-01-31T15:38:13Z</time>
      </trkpt>
      <trkpt lat="43.81664" lon="7.04552">
        <ele>1218.4</ele>
        <time>2024-01-31T15:38:17Z</time>
      </trkpt>
      <trkpt lat="43.81661" lon="7.04591">
        <ele>1222.71</ele>
        <time>2024-01-31T15:38:25Z</time>
      </trkpt>
      <trkpt lat="43.81653" lon="7.04622">
        <ele>1225.68</ele>
        <time>2024-01-31T15:38:31Z</time>
      </trkpt>
      <trkpt lat="43.8164" lon="7.04642">
        <ele>1227.69</ele>
        <time>2024-01-31T15:38:36Z</time>
      </trkpt>
      <trkpt lat="43.81625" lon="7.0464">
        <ele>1227.05</ele>
        <time>2024-01-31T15:38:39Z</time>
      </trkpt>
      <trkpt lat="43.81618" lon="7.04646">
        <ele>1227.22</ele>
        <time>2024-01-31T15:38:41Z</time>
      </trkpt>
      <trkpt lat="43.81616" lon="7.04654">
        <ele>1227.6</ele>
        <time>2024-01-31T15:38:43Z</time>
      </trkpt>
      <trkpt lat="43.8161" lon="7.0466">
        <ele>1227.59</ele>
        <time>2024-01-31T15:38:45Z</time>
      </trkpt>
      <trkpt lat="43.81597" lon="7.04658">
        <ele>1226.64</ele>
        <time>2024-01-31T15:38:48Z</time>
      </trkpt>
      <trkpt lat="43.8159" lon="7.04663">
        <ele>1226.14</ele>
        <time>2024-01-31T15:38:49Z</time>
      </trkpt>
      <trkpt lat="43.81588" lon="7.04677">
        <ele>1226.22</ele>
        <time>2024-01-31T15:38:52Z</time>
      </trkpt>
      <trkpt lat="43.81577" lon="7.04709">
        <ele>1224.82</ele>
        <time>2024-01-31T15:38:57Z</time>
      </trkpt>
      <trkpt lat="43.81582" lon="7.04737">
        <ele>1225.62</ele>
        <time>2024-01-31T15:39:01Z</time>
      </trkpt>
      <trkpt lat="43.81581" lon="7.04836">
        <ele>1222.19</ele>
        <time>2024-01-31T15:39:16Z</time>
      </trkpt>
      <trkpt lat="43.81591" lon="7.04883">
        <ele>1221.18</ele>
        <time>2024-01-31T15:39:23Z</time>
      </trkpt>
      <trkpt lat="43.81594" lon="7.0492">
        <ele>1218.72</ele>
        <time>2024-01-31T15:39:28Z</time>
      </trkpt>
      <trkpt lat="43.81598" lon="7.04936">
        <ele>1219.01</ele>
        <time>2024-01-31T15:39:31Z</time>
      </trkpt>
      <trkpt lat="43.81603" lon="7.04991">
        <ele>1212.45</ele>
        <time>2024-01-31T15:39:40Z</time>
      </trkpt>
      <trkpt lat="43.81605" lon="7.05038">
        <ele>1205.67</ele>
        <time>2024-01-31T15:39:47Z</time>
      </trkpt>
      <trkpt lat="43.81617" lon="7.05085">
        <ele>1204.05</ele>
        <time>2024-01-31T15:39:55Z</time>
      </trkpt>
      <trkpt lat="43.81643" lon="7.05159">
        <ele>1199.34</ele>
        <time>2024-01-31T15:40:09Z</time>
      </trkpt>
      <trkpt lat="43.81657" lon="7.05182">
        <ele>1200.22</ele>
        <time>2024-01-31T15:40:14Z</time>
      </trkpt>
      <trkpt lat="43.81672" lon="7.05221">
        <ele>1196.69</ele>
        <time>2024-01-31T15:40:21Z</time>
      </trkpt>
      <trkpt lat="43.81695" lon="7.0526">
        <ele>1193.41</ele>
        <time>2024-01-31T15:40:29Z</time>
      </trkpt>
      <trkpt lat="43.81684" lon="7.05316">
        <ele>1186.03</ele>
        <time>2024-01-31T15:40:40Z</time>
      </trkpt>
      <trkpt lat="43.81677" lon="7.05333">
        <ele>1183.29</ele>
        <time>2024-01-31T15:40:43Z</time>
      </trkpt>
      <trkpt lat="43.81676" lon="7.05347">
        <ele>1181.81</ele>
        <time>2024-01-31T15:40:46Z</time>
      </trkpt>
      <trkpt lat="43.81673" lon="7.05351">
        <ele>1181.07</ele>
        <time>2024-01-31T15:40:47Z</time>
      </trkpt>
      <trkpt lat="43.81664" lon="7.05352">
        <ele>1180.17</ele>
        <time>2024-01-31T15:40:49Z</time>
      </trkpt>
      <trkpt lat="43.81659" lon="7.05361">
        <ele>1178.88</ele>
        <time>2024-01-31T15:40:51Z</time>
      </trkpt>
      <trkpt lat="43.81666" lon="7.05425">
        <ele>1172.91</ele>
        <time>2024-01-31T15:41:03Z</time>
      </trkpt>
      <trkpt lat="43.81668" lon="7.05437">
        <ele>1172.66</ele>
        <time>2024-01-31T15:41:05Z</time>
      </trkpt>
      <trkpt lat="43.81676" lon="7.05449">
        <ele>1172.41</ele>
        <time>2024-01-31T15:41:08Z</time>
      </trkpt>
      <trkpt lat="43.81685" lon="7.05453">
        <ele>1172.5</ele>
        <time>2024-01-31T15:41:10Z</time>
      </trkpt>
      <trkpt lat="43.81701" lon="7.05448">
        <ele>1172.46</ele>
        <time>2024-01-31T15:41:14Z</time>
      </trkpt>
      <trkpt lat="43.81717" lon="7.05432">
        <ele>1171.27</ele>
        <time>2024-01-31T15:41:19Z</time>
      </trkpt>
      <trkpt lat="43.81742" lon="7.05431">
        <ele>1170.34</ele>
        <time>2024-01-31T15:41:25Z</time>
      </trkpt>
      <trkpt lat="43.81765" lon="7.05436">
        <ele>1168.55</ele>
        <time>2024-01-31T15:41:31Z</time>
      </trkpt>
      <trkpt lat="43.81793" lon="7.0545">
        <ele>1165.49</ele>
        <time>2024-01-31T15:41:38Z</time>
      </trkpt>
      <trkpt lat="43.81801" lon="7.05459">
        <ele>1164.24</ele>
        <time>2024-01-31T15:41:41Z</time>
      </trkpt>
      <trkpt lat="43.81813" lon="7.05462">
        <ele>1162.48</ele>
        <time>2024-01-31T15:41:44Z</time>
      </trkpt>
      <trkpt lat="43.81822" lon="7.05474">
        <ele>1161.12</ele>
        <time>2024-01-31T15:41:47Z</time>
      </trkpt>
      <trkpt lat="43.81823" lon="7.05484">
        <ele>1160.9</ele>
        <time>2024-01-31T15:41:49Z</time>
      </trkpt>
      <trkpt lat="43.81856" lon="7.05519">
        <ele>1155.28</ele>
        <time>2024-01-31T15:41:59Z</time>
      </trkpt>
      <trkpt lat="43.81885" lon="7.05566">
        <ele>1150.45</ele>
        <time>2024-01-31T15:42:09Z</time>
      </trkpt>
      <trkpt lat="43.8192" lon="7.05595">
        <ele>1146.86</ele>
        <time>2024-01-31T15:42:18Z</time>
      </trkpt>
      <trkpt lat="43.81938" lon="7.05626">
        <ele>1145.19</ele>
        <time>2024-01-31T15:42:24Z</time>
      </trkpt>
      <trkpt lat="43.81973" lon="7.05665">
        <ele>1141.81</ele>
        <time>2024-01-31T15:42:34Z</time>
      </trkpt>
      <trkpt lat="43.81999" lon="7.05709">
        <ele>1140.46</ele>
        <time>2024-01-31T15:42:42Z</time>
      </trkpt>
      <trkpt lat="43.82001" lon="7.05719">
        <ele>1140.94</ele>
        <time>2024-01-31T15:42:44Z</time>
      </trkpt>
      <trkpt lat="43.81999" lon="7.05744">
        <ele>1140.7</ele>
        <time>2024-01-31T15:42:48Z</time>
      </trkpt>
      <trkpt lat="43.81999" lon="7.05762">
        <ele>1141.33</ele>
        <time>2024-01-31T15:42:51Z</time>
      </trkpt>
      <trkpt lat="43.81994" lon="7.05788">
        <ele>1142.25</ele>
        <time>2024-01-31T15:42:55Z</time>
      </trkpt>
      <trkpt lat="43.81987" lon="7.05811">
        <ele>1143.57</ele>
        <time>2024-01-31T15:42:58Z</time>
      </trkpt>
      <trkpt lat="43.81971" lon="7.05848">
        <ele>1141.85</ele>
        <time>2024-01-31T15:43:05Z</time>
      </trkpt>
      <trkpt lat="43.81953" lon="7.05909">
        <ele>1138.88</ele>
        <time>2024-01-31T15:43:14Z</time>
      </trkpt>
      <trkpt lat="43.81949" lon="7.05952">
        <ele>1136.16</ele>
        <time>2024-01-31T15:43:20Z</time>
      </trkpt>
      <trkpt lat="43.81963" lon="7.0603">
        <ele>1133.08</ele>
        <time>2024-01-31T15:43:32Z</time>
      </trkpt>
      <trkpt lat="43.81957" lon="7.06136">
        <ele>1116.88</ele>
        <time>2024-01-31T15:43:47Z</time>
      </trkpt>
      <trkpt lat="43.81942" lon="7.06228">
        <ele>1107.43</ele>
        <time>2024-01-31T15:44:00Z</time>
      </trkpt>
      <trkpt lat="43.81946" lon="7.0635">
        <ele>1099.65</ele>
        <time>2024-01-31T15:44:17Z</time>
      </trkpt>
      <trkpt lat="43.81952" lon="7.06396">
        <ele>1092.45</ele>
        <time>2024-01-31T15:44:24Z</time>
      </trkpt>
      <trkpt lat="43.81959" lon="7.06425">
        <ele>1093.29</ele>
        <time>2024-01-31T15:44:28Z</time>
      </trkpt>
      <trkpt lat="43.81932" lon="7.06579">
        <ele>1071.18</ele>
        <time>2024-01-31T15:44:50Z</time>
      </trkpt>
      <trkpt lat="43.81884" lon="7.06803">
        <ele>1042.53</ele>
        <time>2024-01-31T15:45:22Z</time>
      </trkpt>
      <trkpt lat="43.81878" lon="7.06843">
        <ele>1039.53</ele>
        <time>2024-01-31T15:45:28Z</time>
      </trkpt>
      <trkpt lat="43.81793" lon="7.06959">
        <ele>1019.42</ele>
        <time>2024-01-31T15:45:51Z</time>
      </trkpt>
      <trkpt lat="43.81771" lon="7.06998">
        <ele>1013.93</ele>
        <time>2024-01-31T15:45:58Z</time>
      </trkpt>
      <trkpt lat="43.81658" lon="7.07252">
        <ele>988.12</ele>
        <time>2024-01-31T15:46:41Z</time>
      </trkpt>
      <trkpt lat="43.81632" lon="7.07309">
        <ele>981.86</ele>
        <time>2024-01-31T15:46:51Z</time>
      </trkpt>
      <trkpt lat="43.81627" lon="7.07341">
        <ele>979.41</ele>
        <time>2024-01-31T15:46:55Z</time>
      </trkpt>
      <trkpt lat="43.81633" lon="7.07382">
        <ele>977.12</ele>
        <time>2024-01-31T15:47:01Z</time>
      </trkpt>
      <trkpt lat="43.81632" lon="7.07398">
        <ele>976.69</ele>
        <time>2024-01-31T15:47:03Z</time>
      </trkpt>
      <trkpt lat="43.81626" lon="7.07437">
        <ele>974.84</ele>
        <time>2024-01-31T15:47:09Z</time>
      </trkpt>
      <trkpt lat="43.81623" lon="7.07518">
        <ele>971.69</ele>
        <time>2024-01-31T15:47:20Z</time>
      </trkpt>
      <trkpt lat="43.8162" lon="7.07552">
        <ele>969.97</ele>
        <time>2024-01-31T15:47:25Z</time>
      </trkpt>
      <trkpt lat="43.81615" lon="7.07578">
        <ele>969.49</ele>
        <time>2024-01-31T15:47:29Z</time>
      </trkpt>
      <trkpt lat="43.81617" lon="7.07615">
        <ele>966.65</ele>
        <time>2024-01-31T15:47:34Z</time>
      </trkpt>
      <trkpt lat="43.81614" lon="7.07639">
        <ele>963.97</ele>
        <time>2024-01-31T15:47:37Z</time>
      </trkpt>
      <trkpt lat="43.81615" lon="7.07656">
        <ele>961.37</ele>
        <time>2024-01-31T15:47:40Z</time>
      </trkpt>
      <trkpt lat="43.81624" lon="7.07688">
        <ele>960.27</ele>
        <time>2024-01-31T15:47:45Z</time>
      </trkpt>
      <trkpt lat="43.81622" lon="7.07716">
        <ele>957.91</ele>
        <time>2024-01-31T15:47:49Z</time>
      </trkpt>
      <trkpt lat="43.81617" lon="7.07752">
        <ele>957.85</ele>
        <time>2024-01-31T15:47:55Z</time>
      </trkpt>
      <trkpt lat="43.81602" lon="7.07797">
        <ele>955.15</ele>
        <time>2024-01-31T15:48:03Z</time>
      </trkpt>
      <trkpt lat="43.81578" lon="7.07889">
        <ele>945.28</ele>
        <time>2024-01-31T15:48:20Z</time>
      </trkpt>
      <trkpt lat="43.81554" lon="7.07936">
        <ele>942.43</ele>
        <time>2024-01-31T15:48:31Z</time>
      </trkpt>
      <trkpt lat="43.81541" lon="7.07972">
        <ele>938.89</ele>
        <time>2024-01-31T15:48:38Z</time>
      </trkpt>
      <trkpt lat="43.81545" lon="7.07983">
        <ele>938.14</ele>
        <time>2024-01-31T15:48:40Z</time>
      </trkpt>
      <trkpt lat="43.81571" lon="7.08027">
        <ele>937.11</ele>
        <time>2024-01-31T15:48:50Z</time>
      </trkpt>
      <trkpt lat="43.81567" lon="7.08094">
        <ele>937.02</ele>
        <time>2024-01-31T15:49:01Z</time>
      </trkpt>
      <trkpt lat="43.81554" lon="7.08129">
        <ele>931.19</ele>
        <time>2024-01-31T15:49:08Z</time>
      </trkpt>
      <trkpt lat="43.8155" lon="7.08145">
        <ele>931.59</ele>
        <time>2024-01-31T15:49:10Z</time>
      </trkpt>
      <trkpt lat="43.81553" lon="7.08181">
        <ele>931.11</ele>
        <time>2024-01-31T15:49:16Z</time>
      </trkpt>
      <trkpt lat="43.81542" lon="7.08268">
        <ele>927.71</ele>
        <time>2024-01-31T15:49:29Z</time>
      </trkpt>
      <trkpt lat="43.81555" lon="7.08305">
        <ele>926.88</ele>
        <time>2024-01-31T15:49:36Z</time>
      </trkpt>
      <trkpt lat="43.81557" lon="7.08327">
        <ele>925.11</ele>
        <time>2024-01-31T15:49:39Z</time>
      </trkpt>
      <trkpt lat="43.81551" lon="7.08372">
        <ele>921.9</ele>
        <time>2024-01-31T15:49:46Z</time>
      </trkpt>
      <trkpt lat="43.81551" lon="7.08402">
        <ele>920.39</ele>
        <time>2024-01-31T15:49:51Z</time>
      </trkpt>
      <trkpt lat="43.81548" lon="7.08427">
        <ele>916.17</ele>
        <time>2024-01-31T15:49:55Z</time>
      </trkpt>
      <trkpt lat="43.81548" lon="7.08442">
        <ele>914.32</ele>
        <time>2024-01-31T15:49:57Z</time>
      </trkpt>
      <trkpt lat="43.81554" lon="7.08462">
        <ele>916.8</ele>
        <time>2024-01-31T15:50:01Z</time>
      </trkpt>
      <trkpt lat="43.81555" lon="7.08475">
        <ele>916.71</ele>
        <time>2024-01-31T15:50:03Z</time>
      </trkpt>
      <trkpt lat="43.81551" lon="7.08484">
        <ele>915.85</ele>
        <time>2024-01-31T15:50:05Z</time>
      </trkpt>
      <trkpt lat="43.81522" lon="7.08508">
        <ele>910.79</ele>
        <time>2024-01-31T15:50:13Z</time>
      </trkpt>
      <trkpt lat="43.81519" lon="7.08515">
        <ele>909.63</ele>
        <time>2024-01-31T15:50:14Z</time>
      </trkpt>
      <trkpt lat="43.8152" lon="7.08568">
        <ele>911.96</ele>
        <time>2024-01-31T15:50:23Z</time>
      </trkpt>
      <trkpt lat="43.8151" lon="7.0866">
        <ele>908.84</ele>
        <time>2024-01-31T15:50:38Z</time>
      </trkpt>
      <trkpt lat="43.81515" lon="7.08701">
        <ele>909.78</ele>
        <time>2024-01-31T15:50:45Z</time>
      </trkpt>
      <trkpt lat="43.8151" lon="7.08717">
        <ele>909.32</ele>
        <time>2024-01-31T15:50:48Z</time>
      </trkpt>
      <trkpt lat="43.81501" lon="7.08732">
        <ele>907.96</ele>
        <time>2024-01-31T15:50:51Z</time>
      </trkpt>
      <trkpt lat="43.81492" lon="7.08739">
        <ele>905.58</ele>
        <time>2024-01-31T15:50:53Z</time>
      </trkpt>
      <trkpt lat="43.81477" lon="7.08814">
        <ele>905.31</ele>
        <time>2024-01-31T15:51:05Z</time>
      </trkpt>
      <trkpt lat="43.81467" lon="7.0885">
        <ele>900.08</ele>
        <time>2024-01-31T15:51:11Z</time>
      </trkpt>
      <trkpt lat="43.8147" lon="7.08859">
        <ele>899.2</ele>
        <time>2024-01-31T15:51:12Z</time>
      </trkpt>
      <trkpt lat="43.81481" lon="7.0887">
        <ele>901.29</ele>
        <time>2024-01-31T15:51:15Z</time>
      </trkpt>
      <trkpt lat="43.81496" lon="7.08937">
        <ele>893.23</ele>
        <time>2024-01-31T15:51:25Z</time>
      </trkpt>
      <trkpt lat="43.81491" lon="7.08945">
        <ele>893.47</ele>
        <time>2024-01-31T15:51:26Z</time>
      </trkpt>
      <trkpt lat="43.81458" lon="7.08955">
        <ele>885.05</ele>
        <time>2024-01-31T15:51:33Z</time>
      </trkpt>
      <trkpt lat="43.81422" lon="7.08986">
        <ele>881.6</ele>
        <time>2024-01-31T15:51:41Z</time>
      </trkpt>
      <trkpt lat="43.81416" lon="7.08996">
        <ele>878.33</ele>
        <time>2024-01-31T15:51:43Z</time>
      </trkpt>
      <trkpt lat="43.81419" lon="7.0901">
        <ele>879.26</ele>
        <time>2024-01-31T15:51:45Z</time>
      </trkpt>
      <trkpt lat="43.81418" lon="7.09028">
        <ele>876.83</ele>
        <time>2024-01-31T15:51:48Z</time>
      </trkpt>
      <trkpt lat="43.8143" lon="7.09144">
        <ele>872.82</ele>
        <time>2024-01-31T15:52:04Z</time>
      </trkpt>
      <trkpt lat="43.81426" lon="7.09177">
        <ele>868.49</ele>
        <time>2024-01-31T15:52:09Z</time>
      </trkpt>
      <trkpt lat="43.81409" lon="7.09238">
        <ele>858.02</ele>
        <time>2024-01-31T15:52:18Z</time>
      </trkpt>
      <trkpt lat="43.81406" lon="7.0923">
        <ele>855.13</ele>
        <time>2024-01-31T15:52:19Z</time>
      </trkpt>
      <trkpt lat="43.81401" lon="7.09191">
        <ele>852.53</ele>
        <time>2024-01-31T15:52:25Z</time>
      </trkpt>
      <trkpt lat="43.81397" lon="7.09188">
        <ele>850.13</ele>
        <time>2024-01-31T15:52:26Z</time>
      </trkpt>
      <trkpt lat="43.8138" lon="7.09249">
        <ele>840.32</ele>
        <time>2024-01-31T15:52:35Z</time>
      </trkpt>
      <trkpt lat="43.81375" lon="7.09307">
        <ele>837.79</ele>
        <time>2024-01-31T15:52:44Z</time>
      </trkpt>
      <trkpt lat="43.81371" lon="7.09315">
        <ele>835.88</ele>
        <time>2024-01-31T15:52:45Z</time>
      </trkpt>
      <trkpt lat="43.81358" lon="7.09323">
        <ele>830.54</ele>
        <time>2024-01-31T15:52:48Z</time>
      </trkpt>
      <trkpt lat="43.81333" lon="7.09346">
        <ele>823.85</ele>
        <time>2024-01-31T15:52:54Z</time>
      </trkpt>
      <trkpt lat="43.81294" lon="7.09424">
        <ele>815.15</ele>
        <time>2024-01-31T15:53:07Z</time>
      </trkpt>
      <trkpt lat="43.81284" lon="7.09476">
        <ele>813.42</ele>
        <time>2024-01-31T15:53:14Z</time>
      </trkpt>
      <trkpt lat="43.81273" lon="7.09515">
        <ele>808.41</ele>
        <time>2024-01-31T15:53:20Z</time>
      </trkpt>
      <trkpt lat="43.81272" lon="7.09564">
        <ele>810.34</ele>
        <time>2024-01-31T15:53:27Z</time>
      </trkpt>
      <trkpt lat="43.8127" lon="7.09567">
        <ele>808.61</ele>
        <time>2024-01-31T15:53:28Z</time>
      </trkpt>
      <trkpt lat="43.81266" lon="7.09561">
        <ele>806</ele>
        <time>2024-01-31T15:53:29Z</time>
      </trkpt>
      <trkpt lat="43.81261" lon="7.09533">
        <ele>803.06</ele>
        <time>2024-01-31T15:53:33Z</time>
      </trkpt>
      <trkpt lat="43.81251" lon="7.09515">
        <ele>798.03</ele>
        <time>2024-01-31T15:53:36Z</time>
      </trkpt>
      <trkpt lat="43.81248" lon="7.09492">
        <ele>794.51</ele>
        <time>2024-01-31T15:53:40Z</time>
      </trkpt>
      <trkpt lat="43.81232" lon="7.09446">
        <ele>790.1</ele>
        <time>2024-01-31T15:53:48Z</time>
      </trkpt>
      <trkpt lat="43.8122" lon="7.09395">
        <ele>779.47</ele>
        <time>2024-01-31T15:53:56Z</time>
      </trkpt>
      <trkpt lat="43.81215" lon="7.0936">
        <ele>770.73</ele>
        <time>2024-01-31T15:54:03Z</time>
      </trkpt>
      <trkpt lat="43.81211" lon="7.09301">
        <ele>760.09</ele>
        <time>2024-01-31T15:54:16Z</time>
      </trkpt>
      <trkpt lat="43.81208" lon="7.09298">
        <ele>756.52</ele>
        <time>2024-01-31T15:54:17Z</time>
      </trkpt>
      <trkpt lat="43.81207" lon="7.09292">
        <ele>755.74</ele>
        <time>2024-01-31T15:54:18Z</time>
      </trkpt>
      <trkpt lat="43.81205" lon="7.09288">
        <ele>752.47</ele>
        <time>2024-01-31T15:54:19Z</time>
      </trkpt>
      <trkpt lat="43.81185" lon="7.0928">
        <ele>755.47</ele>
        <time>2024-01-31T15:54:27Z</time>
      </trkpt>
      <trkpt lat="43.81177" lon="7.09284">
        <ele>756.85</ele>
        <time>2024-01-31T15:54:30Z</time>
      </trkpt>
      <trkpt lat="43.81171" lon="7.09296">
        <ele>758.52</ele>
        <time>2024-01-31T15:54:34Z</time>
      </trkpt>
      <trkpt lat="43.81162" lon="7.09323">
        <ele>757.19</ele>
        <time>2024-01-31T15:54:45Z</time>
      </trkpt>
      <trkpt lat="43.81151" lon="7.09337">
        <ele>757.66</ele>
        <time>2024-01-31T15:54:53Z</time>
      </trkpt>
      <trkpt lat="43.8112" lon="7.09359">
        <ele>759.54</ele>
        <time>2024-01-31T15:55:14Z</time>
      </trkpt>
      <trkpt lat="43.811" lon="7.0936">
        <ele>762.39</ele>
        <time>2024-01-31T15:55:28Z</time>
      </trkpt>
      <trkpt lat="43.81094" lon="7.09362">
        <ele>763.24</ele>
        <time>2024-01-31T15:55:32Z</time>
      </trkpt>
      <trkpt lat="43.8109" lon="7.09367">
        <ele>764.03</ele>
        <time>2024-01-31T15:55:36Z</time>
      </trkpt>
      <trkpt lat="43.81083" lon="7.09385">
        <ele>766.23</ele>
        <time>2024-01-31T15:55:47Z</time>
      </trkpt>
      <trkpt lat="43.81081" lon="7.09401">
        <ele>767.02</ele>
        <time>2024-01-31T15:55:56Z</time>
      </trkpt>
      <trkpt lat="43.81081" lon="7.09424">
        <ele>766.38</ele>
        <time>2024-01-31T15:56:07Z</time>
      </trkpt>
      <trkpt lat="43.81078" lon="7.09432">
        <ele>765.74</ele>
        <time>2024-01-31T15:56:11Z</time>
      </trkpt>
      <trkpt lat="43.81061" lon="7.09455">
        <ele>769.72</ele>
        <time>2024-01-31T15:56:26Z</time>
      </trkpt>
      <trkpt lat="43.81049" lon="7.09514">
        <ele>772.19</ele>
        <time>2024-01-31T15:56:52Z</time>
      </trkpt>
      <trkpt lat="43.81044" lon="7.09532">
        <ele>773.05</ele>
        <time>2024-01-31T15:56:58Z</time>
      </trkpt>
      <trkpt lat="43.81042" lon="7.09545">
        <ele>774.62</ele>
        <time>2024-01-31T15:57:01Z</time>
      </trkpt>
      <trkpt lat="43.81043" lon="7.09559">
        <ele>776.74</ele>
        <time>2024-01-31T15:57:04Z</time>
      </trkpt>
      <trkpt lat="43.81051" lon="7.09582">
        <ele>776.01</ele>
        <time>2024-01-31T15:57:09Z</time>
      </trkpt>
      <trkpt lat="43.81065" lon="7.09659">
        <ele>778.86</ele>
        <time>2024-01-31T15:57:18Z</time>
      </trkpt>
      <trkpt lat="43.8107" lon="7.09673">
        <ele>779.74</ele>
        <time>2024-01-31T15:57:20Z</time>
      </trkpt>
      <trkpt lat="43.81078" lon="7.09684">
        <ele>778.39</ele>
        <time>2024-01-31T15:57:21Z</time>
      </trkpt>
      <trkpt lat="43.81082" lon="7.09701">
        <ele>779.01</ele>
        <time>2024-01-31T15:57:23Z</time>
      </trkpt>
      <trkpt lat="43.8108" lon="7.09719">
        <ele>780.91</ele>
        <time>2024-01-31T15:57:25Z</time>
      </trkpt>
      <trkpt lat="43.81073" lon="7.09739">
        <ele>783.28</ele>
        <time>2024-01-31T15:57:27Z</time>
      </trkpt>
      <trkpt lat="43.81073" lon="7.09749">
        <ele>788.03</ele>
        <time>2024-01-31T15:57:28Z</time>
      </trkpt>
      <trkpt lat="43.8108" lon="7.09782">
        <ele>779.21</ele>
        <time>2024-01-31T15:57:31Z</time>
      </trkpt>
      <trkpt lat="43.81082" lon="7.09804">
        <ele>773.27</ele>
        <time>2024-01-31T15:57:33Z</time>
      </trkpt>
      <trkpt lat="43.81077" lon="7.09813">
        <ele>780.59</ele>
        <time>2024-01-31T15:57:34Z</time>
      </trkpt>
      <trkpt lat="43.81054" lon="7.0984">
        <ele>786.16</ele>
        <time>2024-01-31T15:57:38Z</time>
      </trkpt>
      <trkpt lat="43.81044" lon="7.09847">
        <ele>784.64</ele>
        <time>2024-01-31T15:57:40Z</time>
      </trkpt>
      <trkpt lat="43.80989" lon="7.09853">
        <ele>791.02</ele>
        <time>2024-01-31T15:57:47Z</time>
      </trkpt>
      <trkpt lat="43.80957" lon="7.09863">
        <ele>794.25</ele>
        <time>2024-01-31T15:57:52Z</time>
      </trkpt>
      <trkpt lat="43.80905" lon="7.09865">
        <ele>799.18</ele>
        <time>2024-01-31T15:58:04Z</time>
      </trkpt>
      <trkpt lat="43.80871" lon="7.09884">
        <ele>796.95</ele>
        <time>2024-01-31T15:58:16Z</time>
      </trkpt>
      <trkpt lat="43.8086" lon="7.09887">
        <ele>797.34</ele>
        <time>2024-01-31T15:58:19Z</time>
      </trkpt>
      <trkpt lat="43.80823" lon="7.0987">
        <ele>802.01</ele>
        <time>2024-01-31T15:58:32Z</time>
      </trkpt>
      <trkpt lat="43.80786" lon="7.0987">
        <ele>802.36</ele>
        <time>2024-01-31T15:58:45Z</time>
      </trkpt>
      <trkpt lat="43.80729" lon="7.09845">
        <ele>806.17</ele>
        <time>2024-01-31T15:59:15Z</time>
      </trkpt>
      <trkpt lat="43.80662" lon="7.09827">
        <ele>807.19</ele>
        <time>2024-01-31T16:00:10Z</time>
      </trkpt>
      <trkpt lat="43.80653" lon="7.09821">
        <ele>807.45</ele>
        <time>2024-01-31T16:00:19Z</time>
      </trkpt>
      <trkpt lat="43.8063" lon="7.09796">
        <ele>811.11</ele>
        <time>2024-01-31T16:00:42Z</time>
      </trkpt>
      <trkpt lat="43.80619" lon="7.09787">
        <ele>812.53</ele>
        <time>2024-01-31T16:00:52Z</time>
      </trkpt>
      <trkpt lat="43.80589" lon="7.09777">
        <ele>816.99</ele>
        <time>2024-01-31T16:01:13Z</time>
      </trkpt>
      <trkpt lat="43.80578" lon="7.09777">
        <ele>818.74</ele>
        <time>2024-01-31T16:01:20Z</time>
      </trkpt>
      <trkpt lat="43.80567" lon="7.09782">
        <ele>818.31</ele>
        <time>2024-01-31T16:01:28Z</time>
      </trkpt>
      <trkpt lat="43.80539" lon="7.09813">
        <ele>816.8</ele>
        <time>2024-01-31T16:01:49Z</time>
      </trkpt>
      <trkpt lat="43.80533" lon="7.09828">
        <ele>817.02</ele>
        <time>2024-01-31T16:01:56Z</time>
      </trkpt>
      <trkpt lat="43.80529" lon="7.09848">
        <ele>818.4</ele>
        <time>2024-01-31T16:02:04Z</time>
      </trkpt>
      <trkpt lat="43.80531" lon="7.09908">
        <ele>823.86</ele>
        <time>2024-01-31T16:02:23Z</time>
      </trkpt>
      <trkpt lat="43.80528" lon="7.09924">
        <ele>822.59</ele>
        <time>2024-01-31T16:02:27Z</time>
      </trkpt>
      <trkpt lat="43.80522" lon="7.09942">
        <ele>824.05</ele>
        <time>2024-01-31T16:02:31Z</time>
      </trkpt>
      <trkpt lat="43.80509" lon="7.09962">
        <ele>824.74</ele>
        <time>2024-01-31T16:02:35Z</time>
      </trkpt>
      <trkpt lat="43.80483" lon="7.09988">
        <ele>826.25</ele>
        <time>2024-01-31T16:02:39Z</time>
      </trkpt>
      <trkpt lat="43.80421" lon="7.10038">
        <ele>828.57</ele>
        <time>2024-01-31T16:02:49Z</time>
      </trkpt>
      <trkpt lat="43.80384" lon="7.10074">
        <ele>829.51</ele>
        <time>2024-01-31T16:02:56Z</time>
      </trkpt>
      <trkpt lat="43.80338" lon="7.10106">
        <ele>834.55</ele>
        <time>2024-01-31T16:03:07Z</time>
      </trkpt>
      <trkpt lat="43.80321" lon="7.10126">
        <ele>833.09</ele>
        <time>2024-01-31T16:03:14Z</time>
      </trkpt>
      <trkpt lat="43.80311" lon="7.10133">
        <ele>833.56</ele>
        <time>2024-01-31T16:03:17Z</time>
      </trkpt>
      <trkpt lat="43.80275" lon="7.1014">
        <ele>834.19</ele>
        <time>2024-01-31T16:03:30Z</time>
      </trkpt>
      <trkpt lat="43.8027" lon="7.1014">
        <ele>835.14</ele>
        <time>2024-01-31T16:03:33Z</time>
      </trkpt>
      <trkpt lat="43.80265" lon="7.1014">
        <ele>835.57</ele>
        <time>2024-01-31T16:03:35Z</time>
      </trkpt>
      <trkpt lat="43.80232" lon="7.10138">
        <ele>836.03</ele>
        <time>2024-01-31T16:03:51Z</time>
      </trkpt>
      <trkpt lat="43.8022" lon="7.10141">
        <ele>837.58</ele>
        <time>2024-01-31T16:03:57Z</time>
      </trkpt>
      <trkpt lat="43.80183" lon="7.10161">
        <ele>837.3</ele>
        <time>2024-01-31T16:04:18Z</time>
      </trkpt>
      <trkpt lat="43.8017" lon="7.10161">
        <ele>838</ele>
        <time>2024-01-31T16:04:25Z</time>
      </trkpt>
      <trkpt lat="43.801" lon="7.10131">
        <ele>843.81</ele>
        <time>2024-01-31T16:05:07Z</time>
      </trkpt>
      <trkpt lat="43.80093" lon="7.10123">
        <ele>844.58</ele>
        <time>2024-01-31T16:05:13Z</time>
      </trkpt>
      <trkpt lat="43.80088" lon="7.10109">
        <ele>846.28</ele>
        <time>2024-01-31T16:05:19Z</time>
      </trkpt>
      <trkpt lat="43.80041" lon="7.0992">
        <ele>853.01</ele>
        <time>2024-01-31T16:06:39Z</time>
      </trkpt>
      <trkpt lat="43.80038" lon="7.09871">
        <ele>854.03</ele>
        <time>2024-01-31T16:06:55Z</time>
      </trkpt>
      <trkpt lat="43.80026" lon="7.09835">
        <ele>857.69</ele>
        <time>2024-01-31T16:07:07Z</time>
      </trkpt>
      <trkpt lat="43.80019" lon="7.09786">
        <ele>860.27</ele>
        <time>2024-01-31T16:07:22Z</time>
      </trkpt>
      <trkpt lat="43.80014" lon="7.09766">
        <ele>860.95</ele>
        <time>2024-01-31T16:07:28Z</time>
      </trkpt>
      <trkpt lat="43.80014" lon="7.09747">
        <ele>862.1</ele>
        <time>2024-01-31T16:07:33Z</time>
      </trkpt>
      <trkpt lat="43.80028" lon="7.09672">
        <ele>865.56</ele>
        <time>2024-01-31T16:07:53Z</time>
      </trkpt>
      <trkpt lat="43.80036" lon="7.09612">
        <ele>865.32</ele>
        <time>2024-01-31T16:08:06Z</time>
      </trkpt>
      <trkpt lat="43.80044" lon="7.09588">
        <ele>868.05</ele>
        <time>2024-01-31T16:08:11Z</time>
      </trkpt>
      <trkpt lat="43.801" lon="7.09512">
        <ele>869.04</ele>
        <time>2024-01-31T16:08:33Z</time>
      </trkpt>
      <trkpt lat="43.80108" lon="7.09488">
        <ele>868.85</ele>
        <time>2024-01-31T16:08:39Z</time>
      </trkpt>
      <trkpt lat="43.80121" lon="7.0943">
        <ele>870.59</ele>
        <time>2024-01-31T16:08:53Z</time>
      </trkpt>
      <trkpt lat="43.80127" lon="7.09402">
        <ele>871.27</ele>
        <time>2024-01-31T16:08:59Z</time>
      </trkpt>
      <trkpt lat="43.80128" lon="7.09388">
        <ele>871.43</ele>
        <time>2024-01-31T16:09:03Z</time>
      </trkpt>
      <trkpt lat="43.80126" lon="7.09379">
        <ele>871.55</ele>
        <time>2024-01-31T16:09:06Z</time>
      </trkpt>
      <trkpt lat="43.80118" lon="7.09369">
        <ele>871.92</ele>
        <time>2024-01-31T16:09:09Z</time>
      </trkpt>
      <trkpt lat="43.80107" lon="7.09368">
        <ele>873.08</ele>
        <time>2024-01-31T16:09:13Z</time>
      </trkpt>
      <trkpt lat="43.80102" lon="7.09372">
        <ele>873.59</ele>
        <time>2024-01-31T16:09:16Z</time>
      </trkpt>
      <trkpt lat="43.80096" lon="7.09381">
        <ele>874.09</ele>
        <time>2024-01-31T16:09:20Z</time>
      </trkpt>
      <trkpt lat="43.80075" lon="7.09456">
        <ele>873.56</ele>
        <time>2024-01-31T16:09:47Z</time>
      </trkpt>
      <trkpt lat="43.8007" lon="7.09461">
        <ele>874.14</ele>
        <time>2024-01-31T16:09:51Z</time>
      </trkpt>
      <trkpt lat="43.80066" lon="7.0946">
        <ele>875.31</ele>
        <time>2024-01-31T16:09:53Z</time>
      </trkpt>
      <trkpt lat="43.80053" lon="7.09493">
        <ele>874.59</ele>
        <time>2024-01-31T16:10:07Z</time>
      </trkpt>
      <trkpt lat="43.80016" lon="7.09534">
        <ele>880.12</ele>
        <time>2024-01-31T16:10:31Z</time>
      </trkpt>
      <trkpt lat="43.79996" lon="7.09556">
        <ele>882.06</ele>
        <time>2024-01-31T16:10:41Z</time>
      </trkpt>
      <trkpt lat="43.79987" lon="7.0958">
        <ele>882.48</ele>
        <time>2024-01-31T16:10:49Z</time>
      </trkpt>
      <trkpt lat="43.79978" lon="7.0966">
        <ele>883.75</ele>
        <time>2024-01-31T16:11:14Z</time>
      </trkpt>
      <trkpt lat="43.7997" lon="7.09703">
        <ele>881.47</ele>
        <time>2024-01-31T16:11:28Z</time>
      </trkpt>
      <trkpt lat="43.79956" lon="7.09748">
        <ele>884.38</ele>
        <time>2024-01-31T16:11:42Z</time>
      </trkpt>
      <trkpt lat="43.79944" lon="7.09852">
        <ele>888.36</ele>
        <time>2024-01-31T16:12:04Z</time>
      </trkpt>
      <trkpt lat="43.79947" lon="7.09895">
        <ele>886.2</ele>
        <time>2024-01-31T16:12:12Z</time>
      </trkpt>
      <trkpt lat="43.79954" lon="7.09944">
        <ele>885.17</ele>
        <time>2024-01-31T16:12:20Z</time>
      </trkpt>
      <trkpt lat="43.79983" lon="7.10107">
        <ele>889.83</ele>
        <time>2024-01-31T16:12:37Z</time>
      </trkpt>
      <trkpt lat="43.80008" lon="7.10277">
        <ele>887.53</ele>
        <time>2024-01-31T16:12:54Z</time>
      </trkpt>
      <trkpt lat="43.80009" lon="7.10324">
        <ele>884.96</ele>
        <time>2024-01-31T16:13:01Z</time>
      </trkpt>
      <trkpt lat="43.80005" lon="7.10342">
        <ele>885.11</ele>
        <time>2024-01-31T16:13:04Z</time>
      </trkpt>
      <trkpt lat="43.79996" lon="7.10357">
        <ele>884.55</ele>
        <time>2024-01-31T16:13:07Z</time>
      </trkpt>
      <trkpt lat="43.79937" lon="7.10372">
        <ele>886.69</ele>
        <time>2024-01-31T16:13:23Z</time>
      </trkpt>
      <trkpt lat="43.79914" lon="7.10379">
        <ele>888.75</ele>
        <time>2024-01-31T16:13:30Z</time>
      </trkpt>
      <trkpt lat="43.79906" lon="7.10385">
        <ele>888.29</ele>
        <time>2024-01-31T16:13:33Z</time>
      </trkpt>
      <trkpt lat="43.79904" lon="7.10395">
        <ele>888.44</ele>
        <time>2024-01-31T16:13:35Z</time>
      </trkpt>
      <trkpt lat="43.79908" lon="7.10403">
        <ele>887.9</ele>
        <time>2024-01-31T16:13:37Z</time>
      </trkpt>
      <trkpt lat="43.79918" lon="7.10415">
        <ele>890.25</ele>
        <time>2024-01-31T16:13:42Z</time>
      </trkpt>
      <trkpt lat="43.79939" lon="7.10428">
        <ele>888.85</ele>
        <time>2024-01-31T16:13:51Z</time>
      </trkpt>
      <trkpt lat="43.79955" lon="7.10442">
        <ele>888.17</ele>
        <time>2024-01-31T16:14:00Z</time>
      </trkpt>
      <trkpt lat="43.7998" lon="7.10479">
        <ele>888.05</ele>
        <time>2024-01-31T16:14:14Z</time>
      </trkpt>
      <trkpt lat="43.79989" lon="7.10496">
        <ele>887.78</ele>
        <time>2024-01-31T16:14:19Z</time>
      </trkpt>
      <trkpt lat="43.79993" lon="7.10511">
        <ele>887.56</ele>
        <time>2024-01-31T16:14:23Z</time>
      </trkpt>
      <trkpt lat="43.79995" lon="7.10551">
        <ele>888.23</ele>
        <time>2024-01-31T16:14:29Z</time>
      </trkpt>
      <trkpt lat="43.7999" lon="7.10626">
        <ele>888.67</ele>
        <time>2024-01-31T16:14:39Z</time>
      </trkpt>
      <trkpt lat="43.7999" lon="7.10665">
        <ele>889.84</ele>
        <time>2024-01-31T16:14:45Z</time>
      </trkpt>
      <trkpt lat="43.8001" lon="7.10871">
        <ele>890.53</ele>
        <time>2024-01-31T16:15:22Z</time>
      </trkpt>
      <trkpt lat="43.8002" lon="7.11042">
        <ele>894.35</ele>
        <time>2024-01-31T16:15:44Z</time>
      </trkpt>
      <trkpt lat="43.80043" lon="7.11216">
        <ele>895.54</ele>
        <time>2024-01-31T16:16:01Z</time>
      </trkpt>
      <trkpt lat="43.80057" lon="7.11264">
        <ele>894.95</ele>
        <time>2024-01-31T16:16:05Z</time>
      </trkpt>
      <trkpt lat="43.80076" lon="7.11304">
        <ele>893.67</ele>
        <time>2024-01-31T16:16:09Z</time>
      </trkpt>
      <trkpt lat="43.80082" lon="7.11318">
        <ele>893.47</ele>
        <time>2024-01-31T16:16:10Z</time>
      </trkpt>
      <trkpt lat="43.80087" lon="7.11346">
        <ele>892.9</ele>
        <time>2024-01-31T16:16:13Z</time>
      </trkpt>
      <trkpt lat="43.80092" lon="7.1142">
        <ele>889.23</ele>
        <time>2024-01-31T16:16:19Z</time>
      </trkpt>
      <trkpt lat="43.80158" lon="7.11572">
        <ele>880.1</ele>
        <time>2024-01-31T16:16:34Z</time>
      </trkpt>
      <trkpt lat="43.80178" lon="7.11605">
        <ele>877.53</ele>
        <time>2024-01-31T16:16:38Z</time>
      </trkpt>
      <trkpt lat="43.802" lon="7.1163">
        <ele>876.48</ele>
        <time>2024-01-31T16:16:42Z</time>
      </trkpt>
      <trkpt lat="43.80214" lon="7.11652">
        <ele>874.99</ele>
        <time>2024-01-31T16:16:44Z</time>
      </trkpt>
      <trkpt lat="43.80233" lon="7.11729">
        <ele>869.72</ele>
        <time>2024-01-31T16:16:52Z</time>
      </trkpt>
      <trkpt lat="43.80265" lon="7.11821">
        <ele>863.55</ele>
        <time>2024-01-31T16:17:01Z</time>
      </trkpt>
      <trkpt lat="43.80264" lon="7.11858">
        <ele>863.31</ele>
        <time>2024-01-31T16:17:05Z</time>
      </trkpt>
      <trkpt lat="43.80261" lon="7.11886">
        <ele>862.96</ele>
        <time>2024-01-31T16:17:08Z</time>
      </trkpt>
      <trkpt lat="43.80254" lon="7.11903">
        <ele>862.34</ele>
        <time>2024-01-31T16:17:10Z</time>
      </trkpt>
      <trkpt lat="43.80235" lon="7.11931">
        <ele>860.85</ele>
        <time>2024-01-31T16:17:14Z</time>
      </trkpt>
      <trkpt lat="43.80226" lon="7.11941">
        <ele>860.43</ele>
        <time>2024-01-31T16:17:16Z</time>
      </trkpt>
      <trkpt lat="43.80224" lon="7.1195">
        <ele>859.44</ele>
        <time>2024-01-31T16:17:17Z</time>
      </trkpt>
      <trkpt lat="43.80222" lon="7.11963">
        <ele>858.12</ele>
        <time>2024-01-31T16:17:18Z</time>
      </trkpt>
      <trkpt lat="43.80232" lon="7.1202">
        <ele>854.4</ele>
        <time>2024-01-31T16:17:25Z</time>
      </trkpt>
      <trkpt lat="43.80236" lon="7.12025">
        <ele>853.76</ele>
        <time>2024-01-31T16:17:26Z</time>
      </trkpt>
      <trkpt lat="43.80266" lon="7.12036">
        <ele>853.24</ele>
        <time>2024-01-31T16:17:31Z</time>
      </trkpt>
      <trkpt lat="43.80273" lon="7.12047">
        <ele>853.79</ele>
        <time>2024-01-31T16:17:33Z</time>
      </trkpt>
      <trkpt lat="43.80276" lon="7.12096">
        <ele>853.91</ele>
        <time>2024-01-31T16:17:40Z</time>
      </trkpt>
      <trkpt lat="43.80281" lon="7.12117">
        <ele>853.48</ele>
        <time>2024-01-31T16:17:42Z</time>
      </trkpt>
      <trkpt lat="43.80283" lon="7.12168">
        <ele>848.94</ele>
        <time>2024-01-31T16:17:49Z</time>
      </trkpt>
      <trkpt lat="43.80294" lon="7.12199">
        <ele>848.31</ele>
        <time>2024-01-31T16:17:53Z</time>
      </trkpt>
      <trkpt lat="43.80307" lon="7.12219">
        <ele>847.76</ele>
        <time>2024-01-31T16:17:57Z</time>
      </trkpt>
      <trkpt lat="43.80321" lon="7.12237">
        <ele>846</ele>
        <time>2024-01-31T16:18:00Z</time>
      </trkpt>
      <trkpt lat="43.80396" lon="7.12304">
        <ele>838.09</ele>
        <time>2024-01-31T16:18:12Z</time>
      </trkpt>
      <trkpt lat="43.80433" lon="7.12348">
        <ele>831.63</ele>
        <time>2024-01-31T16:18:19Z</time>
      </trkpt>
      <trkpt lat="43.8049" lon="7.12381">
        <ele>823.67</ele>
        <time>2024-01-31T16:18:27Z</time>
      </trkpt>
      <trkpt lat="43.80492" lon="7.12387">
        <ele>824.71</ele>
        <time>2024-01-31T16:18:28Z</time>
      </trkpt>
      <trkpt lat="43.80499" lon="7.12391">
        <ele>824.16</ele>
        <time>2024-01-31T16:18:30Z</time>
      </trkpt>
      <trkpt lat="43.80527" lon="7.1242">
        <ele>823.96</ele>
        <time>2024-01-31T16:18:37Z</time>
      </trkpt>
      <trkpt lat="43.80557" lon="7.12444">
        <ele>822.24</ele>
        <time>2024-01-31T16:18:45Z</time>
      </trkpt>
      <trkpt lat="43.80575" lon="7.12465">
        <ele>818.8</ele>
        <time>2024-01-31T16:18:50Z</time>
      </trkpt>
      <trkpt lat="43.80626" lon="7.12536">
        <ele>807.58</ele>
        <time>2024-01-31T16:19:06Z</time>
      </trkpt>
      <trkpt lat="43.80641" lon="7.12563">
        <ele>805.27</ele>
        <time>2024-01-31T16:19:12Z</time>
      </trkpt>
      <trkpt lat="43.80667" lon="7.12646">
        <ele>804.31</ele>
        <time>2024-01-31T16:19:27Z</time>
      </trkpt>
      <trkpt lat="43.80677" lon="7.12669">
        <ele>803.41</ele>
        <time>2024-01-31T16:19:31Z</time>
      </trkpt>
      <trkpt lat="43.80689" lon="7.12695">
        <ele>799.11</ele>
        <time>2024-01-31T16:19:36Z</time>
      </trkpt>
      <trkpt lat="43.80701" lon="7.12738">
        <ele>797.05</ele>
        <time>2024-01-31T16:19:43Z</time>
      </trkpt>
      <trkpt lat="43.8072" lon="7.12774">
        <ele>793.88</ele>
        <time>2024-01-31T16:19:51Z</time>
      </trkpt>
      <trkpt lat="43.8073" lon="7.1281">
        <ele>791.28</ele>
        <time>2024-01-31T16:19:56Z</time>
      </trkpt>
      <trkpt lat="43.80746" lon="7.12845">
        <ele>789.6</ele>
        <time>2024-01-31T16:20:03Z</time>
      </trkpt>
      <trkpt lat="43.80772" lon="7.12911">
        <ele>786.44</ele>
        <time>2024-01-31T16:20:14Z</time>
      </trkpt>
      <trkpt lat="43.80804" lon="7.12965">
        <ele>778.39</ele>
        <time>2024-01-31T16:20:24Z</time>
      </trkpt>
      <trkpt lat="43.8084" lon="7.13001">
        <ele>768.25</ele>
        <time>2024-01-31T16:20:33Z</time>
      </trkpt>
      <trkpt lat="43.80849" lon="7.1302">
        <ele>765.78</ele>
        <time>2024-01-31T16:20:36Z</time>
      </trkpt>
      <trkpt lat="43.80856" lon="7.13054">
        <ele>764.98</ele>
        <time>2024-01-31T16:20:41Z</time>
      </trkpt>
      <trkpt lat="43.80876" lon="7.1309">
        <ele>760.43</ele>
        <time>2024-01-31T16:20:47Z</time>
      </trkpt>
      <trkpt lat="43.80933" lon="7.1316">
        <ele>748.77</ele>
        <time>2024-01-31T16:21:02Z</time>
      </trkpt>
      <trkpt lat="43.80962" lon="7.132">
        <ele>743.53</ele>
        <time>2024-01-31T16:21:09Z</time>
      </trkpt>
      <trkpt lat="43.80987" lon="7.13268">
        <ele>739.76</ele>
        <time>2024-01-31T16:21:20Z</time>
      </trkpt>
      <trkpt lat="43.81028" lon="7.13365">
        <ele>728.87</ele>
        <time>2024-01-31T16:21:35Z</time>
      </trkpt>
      <trkpt lat="43.81062" lon="7.13401">
        <ele>722.29</ele>
        <time>2024-01-31T16:21:44Z</time>
      </trkpt>
      <trkpt lat="43.81103" lon="7.13481">
        <ele>717.84</ele>
        <time>2024-01-31T16:21:58Z</time>
      </trkpt>
      <trkpt lat="43.81149" lon="7.13586">
        <ele>710.04</ele>
        <time>2024-01-31T16:22:17Z</time>
      </trkpt>
      <trkpt lat="43.81185" lon="7.13693">
        <ele>702.84</ele>
        <time>2024-01-31T16:22:36Z</time>
      </trkpt>
      <trkpt lat="43.81194" lon="7.13732">
        <ele>700.12</ele>
        <time>2024-01-31T16:22:44Z</time>
      </trkpt>
      <trkpt lat="43.81193" lon="7.13796">
        <ele>700.31</ele>
        <time>2024-01-31T16:22:55Z</time>
      </trkpt>
      <trkpt lat="43.81185" lon="7.1383">
        <ele>701.38</ele>
        <time>2024-01-31T16:23:01Z</time>
      </trkpt>
      <trkpt lat="43.81185" lon="7.13842">
        <ele>701.8</ele>
        <time>2024-01-31T16:23:04Z</time>
      </trkpt>
      <trkpt lat="43.81189" lon="7.13857">
        <ele>702.67</ele>
        <time>2024-01-31T16:23:07Z</time>
      </trkpt>
      <trkpt lat="43.81244" lon="7.13953">
        <ele>694.21</ele>
        <time>2024-01-31T16:23:30Z</time>
      </trkpt>
      <trkpt lat="43.81289" lon="7.14043">
        <ele>691.43</ele>
        <time>2024-01-31T16:23:50Z</time>
      </trkpt>
      <trkpt lat="43.81342" lon="7.1414">
        <ele>687.76</ele>
        <time>2024-01-31T16:24:12Z</time>
      </trkpt>
      <trkpt lat="43.81384" lon="7.14274">
        <ele>684.46</ele>
        <time>2024-01-31T16:24:40Z</time>
      </trkpt>
      <trkpt lat="43.81401" lon="7.14352">
        <ele>681.18</ele>
        <time>2024-01-31T16:24:55Z</time>
      </trkpt>
      <trkpt lat="43.81406" lon="7.1443">
        <ele>681.05</ele>
        <time>2024-01-31T16:25:09Z</time>
      </trkpt>
      <trkpt lat="43.81425" lon="7.14503">
        <ele>679.08</ele>
        <time>2024-01-31T16:25:21Z</time>
      </trkpt>
      <trkpt lat="43.81463" lon="7.14608">
        <ele>672.81</ele>
        <time>2024-01-31T16:25:41Z</time>
      </trkpt>
      <trkpt lat="43.8147" lon="7.147">
        <ele>671.34</ele>
        <time>2024-01-31T16:25:57Z</time>
      </trkpt>
      <trkpt lat="43.81463" lon="7.14731">
        <ele>674.8</ele>
        <time>2024-01-31T16:26:02Z</time>
      </trkpt>
      <trkpt lat="43.81463" lon="7.14754">
        <ele>674.94</ele>
        <time>2024-01-31T16:26:06Z</time>
      </trkpt>
      <trkpt lat="43.81476" lon="7.14813">
        <ele>670.24</ele>
        <time>2024-01-31T16:26:16Z</time>
      </trkpt>
      <trkpt lat="43.815" lon="7.14989">
        <ele>667.95</ele>
        <time>2024-01-31T16:26:46Z</time>
      </trkpt>
      <trkpt lat="43.81461" lon="7.15105">
        <ele>670.26</ele>
        <time>2024-01-31T16:27:07Z</time>
      </trkpt>
      <trkpt lat="43.8145" lon="7.1523">
        <ele>663.64</ele>
        <time>2024-01-31T16:27:27Z</time>
      </trkpt>
      <trkpt lat="43.81437" lon="7.15266">
        <ele>661.17</ele>
        <time>2024-01-31T16:27:33Z</time>
      </trkpt>
      <trkpt lat="43.81434" lon="7.15288">
        <ele>658.03</ele>
        <time>2024-01-31T16:27:36Z</time>
      </trkpt>
      <trkpt lat="43.81434" lon="7.15328">
        <ele>653.81</ele>
        <time>2024-01-31T16:27:42Z</time>
      </trkpt>
      <trkpt lat="43.81429" lon="7.15348">
        <ele>653.6</ele>
        <time>2024-01-31T16:27:45Z</time>
      </trkpt>
      <trkpt lat="43.81419" lon="7.15372">
        <ele>652.36</ele>
        <time>2024-01-31T16:27:50Z</time>
      </trkpt>
      <trkpt lat="43.81414" lon="7.15399">
        <ele>648.88</ele>
        <time>2024-01-31T16:27:54Z</time>
      </trkpt>
      <trkpt lat="43.81414" lon="7.15463">
        <ele>638.86</ele>
        <time>2024-01-31T16:28:03Z</time>
      </trkpt>
      <trkpt lat="43.81399" lon="7.15513">
        <ele>634.52</ele>
        <time>2024-01-31T16:28:11Z</time>
      </trkpt>
      <trkpt lat="43.81386" lon="7.15532">
        <ele>631.72</ele>
        <time>2024-01-31T16:28:15Z</time>
      </trkpt>
      <trkpt lat="43.81362" lon="7.1555">
        <ele>630.24</ele>
        <time>2024-01-31T16:28:21Z</time>
      </trkpt>
      <trkpt lat="43.8136" lon="7.15555">
        <ele>630.34</ele>
        <time>2024-01-31T16:28:22Z</time>
      </trkpt>
      <trkpt lat="43.81364" lon="7.15557">
        <ele>629.9</ele>
        <time>2024-01-31T16:28:23Z</time>
      </trkpt>
      <trkpt lat="43.81385" lon="7.15554">
        <ele>626.08</ele>
        <time>2024-01-31T16:28:27Z</time>
      </trkpt>
      <trkpt lat="43.81403" lon="7.15553">
        <ele>623.48</ele>
        <time>2024-01-31T16:28:32Z</time>
      </trkpt>
      <trkpt lat="43.81417" lon="7.15556">
        <ele>621.75</ele>
        <time>2024-01-31T16:28:35Z</time>
      </trkpt>
      <trkpt lat="43.81428" lon="7.15562">
        <ele>621.79</ele>
        <time>2024-01-31T16:28:37Z</time>
      </trkpt>
      <trkpt lat="43.81439" lon="7.15587">
        <ele>620.83</ele>
        <time>2024-01-31T16:28:42Z</time>
      </trkpt>
      <trkpt lat="43.81453" lon="7.15622">
        <ele>617.94</ele>
        <time>2024-01-31T16:28:48Z</time>
      </trkpt>
      <trkpt lat="43.81485" lon="7.15678">
        <ele>610.28</ele>
        <time>2024-01-31T16:28:59Z</time>
      </trkpt>
      <trkpt lat="43.81498" lon="7.15717">
        <ele>607.39</ele>
        <time>2024-01-31T16:29:05Z</time>
      </trkpt>
      <trkpt lat="43.81515" lon="7.15752">
        <ele>605.68</ele>
        <time>2024-01-31T16:29:12Z</time>
      </trkpt>
      <trkpt lat="43.81535" lon="7.15778">
        <ele>600.54</ele>
        <time>2024-01-31T16:29:17Z</time>
      </trkpt>
      <trkpt lat="43.81547" lon="7.15788">
        <ele>597.13</ele>
        <time>2024-01-31T16:29:20Z</time>
      </trkpt>
      <trkpt lat="43.8158" lon="7.15807">
        <ele>588.95</ele>
        <time>2024-01-31T16:29:27Z</time>
      </trkpt>
      <trkpt lat="43.81601" lon="7.15845">
        <ele>588.23</ele>
        <time>2024-01-31T16:29:34Z</time>
      </trkpt>
      <trkpt lat="43.81637" lon="7.15941">
        <ele>585.18</ele>
        <time>2024-01-31T16:29:49Z</time>
      </trkpt>
      <trkpt lat="43.81659" lon="7.15973">
        <ele>577.68</ele>
        <time>2024-01-31T16:29:55Z</time>
      </trkpt>
      <trkpt lat="43.81664" lon="7.15985">
        <ele>576.52</ele>
        <time>2024-01-31T16:29:57Z</time>
      </trkpt>
      <trkpt lat="43.81674" lon="7.16061">
        <ele>570.95</ele>
        <time>2024-01-31T16:30:07Z</time>
      </trkpt>
      <trkpt lat="43.81677" lon="7.16066">
        <ele>570.91</ele>
        <time>2024-01-31T16:30:08Z</time>
      </trkpt>
      <trkpt lat="43.8168" lon="7.16065">
        <ele>568.74</ele>
        <time>2024-01-31T16:30:09Z</time>
      </trkpt>
      <trkpt lat="43.81683" lon="7.1606">
        <ele>566.65</ele>
        <time>2024-01-31T16:30:10Z</time>
      </trkpt>
      <trkpt lat="43.81681" lon="7.16038">
        <ele>569.06</ele>
        <time>2024-01-31T16:30:13Z</time>
      </trkpt>
      <trkpt lat="43.81685" lon="7.16036">
        <ele>566.92</ele>
        <time>2024-01-31T16:30:13Z</time>
      </trkpt>
      <trkpt lat="43.81688" lon="7.16038">
        <ele>564.78</ele>
        <time>2024-01-31T16:30:14Z</time>
      </trkpt>
      <trkpt lat="43.8169" lon="7.16055">
        <ele>564.66</ele>
        <time>2024-01-31T16:30:16Z</time>
      </trkpt>
      <trkpt lat="43.81704" lon="7.16092">
        <ele>556.3</ele>
        <time>2024-01-31T16:30:22Z</time>
      </trkpt>
      <trkpt lat="43.81706" lon="7.16104">
        <ele>556.25</ele>
        <time>2024-01-31T16:30:24Z</time>
      </trkpt>
      <trkpt lat="43.8171" lon="7.16149">
        <ele>553.87</ele>
        <time>2024-01-31T16:30:30Z</time>
      </trkpt>
      <trkpt lat="43.81716" lon="7.16183">
        <ele>549.98</ele>
        <time>2024-01-31T16:30:34Z</time>
      </trkpt>
      <trkpt lat="43.81714" lon="7.16202">
        <ele>547.14</ele>
        <time>2024-01-31T16:30:37Z</time>
      </trkpt>
      <trkpt lat="43.81707" lon="7.16218">
        <ele>548.74</ele>
        <time>2024-01-31T16:30:39Z</time>
      </trkpt>
      <trkpt lat="43.81704" lon="7.1624">
        <ele>544.78</ele>
        <time>2024-01-31T16:30:42Z</time>
      </trkpt>
      <trkpt lat="43.81701" lon="7.16282">
        <ele>535.3</ele>
        <time>2024-01-31T16:30:48Z</time>
      </trkpt>
      <trkpt lat="43.81698" lon="7.16296">
        <ele>532.56</ele>
        <time>2024-01-31T16:30:50Z</time>
      </trkpt>
      <trkpt lat="43.81689" lon="7.16311">
        <ele>531.85</ele>
        <time>2024-01-31T16:30:53Z</time>
      </trkpt>
      <trkpt lat="43.81662" lon="7.16318">
        <ele>536</ele>
        <time>2024-01-31T16:30:58Z</time>
      </trkpt>
      <trkpt lat="43.81654" lon="7.16327">
        <ele>535.27</ele>
        <time>2024-01-31T16:31:00Z</time>
      </trkpt>
      <trkpt lat="43.81651" lon="7.16337">
        <ele>533.61</ele>
        <time>2024-01-31T16:31:01Z</time>
      </trkpt>
      <trkpt lat="43.81654" lon="7.16355">
        <ele>528.39</ele>
        <time>2024-01-31T16:31:04Z</time>
      </trkpt>
      <trkpt lat="43.81649" lon="7.16395">
        <ele>521.32</ele>
        <time>2024-01-31T16:31:09Z</time>
      </trkpt>
      <trkpt lat="43.8165" lon="7.16404">
        <ele>520.35</ele>
        <time>2024-01-31T16:31:10Z</time>
      </trkpt>
      <trkpt lat="43.81537" lon="7.16486">
        <ele>510.25</ele>
        <time>2024-01-31T16:31:25Z</time>
      </trkpt>
      <trkpt lat="43.81524" lon="7.16491">
        <ele>508.66</ele>
        <time>2024-01-31T16:31:27Z</time>
      </trkpt>
      <trkpt lat="43.81476" lon="7.16493">
        <ele>505.94</ele>
        <time>2024-01-31T16:31:37Z</time>
      </trkpt>
      <trkpt lat="43.81439" lon="7.16517">
        <ele>498.88</ele>
        <time>2024-01-31T16:31:41Z</time>
      </trkpt>
      <trkpt lat="43.81388" lon="7.16535">
        <ele>491.33</ele>
        <time>2024-01-31T16:31:47Z</time>
      </trkpt>
      <trkpt lat="43.81371" lon="7.16536">
        <ele>489.02</ele>
        <time>2024-01-31T16:31:49Z</time>
      </trkpt>
      <trkpt lat="43.81368" lon="7.1654">
        <ele>487.22</ele>
        <time>2024-01-31T16:31:49Z</time>
      </trkpt>
      <trkpt lat="43.81349" lon="7.16528">
        <ele>487.65</ele>
        <time>2024-01-31T16:31:52Z</time>
      </trkpt>
      <trkpt lat="43.81343" lon="7.16529">
        <ele>486.86</ele>
        <time>2024-01-31T16:31:53Z</time>
      </trkpt>
      <trkpt lat="43.81328" lon="7.16537">
        <ele>483.38</ele>
        <time>2024-01-31T16:31:54Z</time>
      </trkpt>
      <trkpt lat="43.8128" lon="7.16566">
        <ele>472.37</ele>
        <time>2024-01-31T16:32:01Z</time>
      </trkpt>
      <trkpt lat="43.81253" lon="7.16568">
        <ele>469.61</ele>
        <time>2024-01-31T16:32:04Z</time>
      </trkpt>
      <trkpt lat="43.81234" lon="7.1656">
        <ele>473.01</ele>
        <time>2024-01-31T16:32:08Z</time>
      </trkpt>
      <trkpt lat="43.8122" lon="7.16559">
        <ele>472.98</ele>
        <time>2024-01-31T16:32:10Z</time>
      </trkpt>
      <trkpt lat="43.81202" lon="7.16566">
        <ele>470.3</ele>
        <time>2024-01-31T16:32:14Z</time>
      </trkpt>
      <trkpt lat="43.81157" lon="7.16594">
        <ele>466.31</ele>
        <time>2024-01-31T16:32:23Z</time>
      </trkpt>
      <trkpt lat="43.81118" lon="7.16601">
        <ele>468.49</ele>
        <time>2024-01-31T16:32:31Z</time>
      </trkpt>
      <trkpt lat="43.81074" lon="7.16617">
        <ele>471.3</ele>
        <time>2024-01-31T16:32:38Z</time>
      </trkpt>
      <trkpt lat="43.81067" lon="7.16623">
        <ele>471.76</ele>
        <time>2024-01-31T16:32:40Z</time>
      </trkpt>
      <trkpt lat="43.81057" lon="7.1664">
        <ele>471.25</ele>
        <time>2024-01-31T16:32:42Z</time>
      </trkpt>
      <trkpt lat="43.81043" lon="7.16701">
        <ele>466.51</ele>
        <time>2024-01-31T16:32:49Z</time>
      </trkpt>
      <trkpt lat="43.81038" lon="7.16714">
        <ele>467.19</ele>
        <time>2024-01-31T16:32:50Z</time>
      </trkpt>
      <trkpt lat="43.81017" lon="7.16747">
        <ele>464.91</ele>
        <time>2024-01-31T16:32:54Z</time>
      </trkpt>
      <trkpt lat="43.80976" lon="7.16795">
        <ele>462.03</ele>
        <time>2024-01-31T16:33:00Z</time>
      </trkpt>
      <trkpt lat="43.8094" lon="7.16834">
        <ele>462.93</ele>
        <time>2024-01-31T16:33:05Z</time>
      </trkpt>
      <trkpt lat="43.80923" lon="7.16855">
        <ele>461.14</ele>
        <time>2024-01-31T16:33:08Z</time>
      </trkpt>
      <trkpt lat="43.80913" lon="7.16858">
        <ele>461.33</ele>
        <time>2024-01-31T16:33:09Z</time>
      </trkpt>
      <trkpt lat="43.80902" lon="7.16855">
        <ele>460.82</ele>
        <time>2024-01-31T16:33:10Z</time>
      </trkpt>
      <trkpt lat="43.80897" lon="7.16849">
        <ele>460.58</ele>
        <time>2024-01-31T16:33:11Z</time>
      </trkpt>
      <trkpt lat="43.80875" lon="7.16815">
        <ele>459.44</ele>
        <time>2024-01-31T16:33:15Z</time>
      </trkpt>
      <trkpt lat="43.80835" lon="7.16771">
        <ele>457.3</ele>
        <time>2024-01-31T16:33:21Z</time>
      </trkpt>
      <trkpt lat="43.80825" lon="7.16762">
        <ele>456.7</ele>
        <time>2024-01-31T16:33:23Z</time>
      </trkpt>
      <trkpt lat="43.808" lon="7.16748">
        <ele>452.99</ele>
        <time>2024-01-31T16:33:26Z</time>
      </trkpt>
      <trkpt lat="43.80753" lon="7.16712">
        <ele>449.59</ele>
        <time>2024-01-31T16:33:34Z</time>
      </trkpt>
      <trkpt lat="43.80733" lon="7.1669">
        <ele>447.58</ele>
        <time>2024-01-31T16:33:42Z</time>
      </trkpt>
      <trkpt lat="43.80732" lon="7.16689">
        <ele>447.58</ele>
        <time>2024-01-31T16:33:42Z</time>
      </trkpt>
      <trkpt lat="43.80703" lon="7.16652">
        <ele>447.06</ele>
        <time>2024-01-31T16:34:01Z</time>
      </trkpt>
      <trkpt lat="43.80691" lon="7.16646">
        <ele>447.04</ele>
        <time>2024-01-31T16:34:07Z</time>
      </trkpt>
      <trkpt lat="43.80675" lon="7.1665">
        <ele>447.71</ele>
        <time>2024-01-31T16:34:16Z</time>
      </trkpt>
      <trkpt lat="43.80642" lon="7.16674">
        <ele>443.66</ele>
        <time>2024-01-31T16:34:38Z</time>
      </trkpt>
      <trkpt lat="43.80624" lon="7.16674">
        <ele>444.44</ele>
        <time>2024-01-31T16:34:50Z</time>
      </trkpt>
      <trkpt lat="43.80591" lon="7.16661">
        <ele>446.85</ele>
        <time>2024-01-31T16:35:13Z</time>
      </trkpt>
      <trkpt lat="43.80578" lon="7.1666">
        <ele>447.1</ele>
        <time>2024-01-31T16:35:22Z</time>
      </trkpt>
      <trkpt lat="43.80571" lon="7.16667">
        <ele>445.6</ele>
        <time>2024-01-31T16:35:28Z</time>
      </trkpt>
      <trkpt lat="43.80562" lon="7.1669">
        <ele>446</ele>
        <time>2024-01-31T16:35:39Z</time>
      </trkpt>
      <trkpt lat="43.80558" lon="7.16709">
        <ele>443.53</ele>
        <time>2024-01-31T16:35:48Z</time>
      </trkpt>
      <trkpt lat="43.80553" lon="7.16714">
        <ele>447.71</ele>
        <time>2024-01-31T16:35:53Z</time>
      </trkpt>
      <trkpt lat="43.80529" lon="7.16825">
        <ele>446.58</ele>
        <time>2024-01-31T16:36:48Z</time>
      </trkpt>
      <trkpt lat="43.80503" lon="7.16872">
        <ele>450.22</ele>
        <time>2024-01-31T16:37:08Z</time>
      </trkpt>
      <trkpt lat="43.80496" lon="7.16892">
        <ele>449.9</ele>
        <time>2024-01-31T16:37:15Z</time>
      </trkpt>
      <trkpt lat="43.80484" lon="7.16965">
        <ele>449.31</ele>
        <time>2024-01-31T16:37:36Z</time>
      </trkpt>
      <trkpt lat="43.80479" lon="7.16979">
        <ele>449.55</ele>
        <time>2024-01-31T16:37:40Z</time>
      </trkpt>
      <trkpt lat="43.80472" lon="7.16993">
        <ele>449.63</ele>
        <time>2024-01-31T16:37:44Z</time>
      </trkpt>
      <trkpt lat="43.80424" lon="7.17059">
        <ele>457.59</ele>
        <time>2024-01-31T16:38:02Z</time>
      </trkpt>
      <trkpt lat="43.80417" lon="7.17072">
        <ele>457.01</ele>
        <time>2024-01-31T16:38:05Z</time>
      </trkpt>
      <trkpt lat="43.80412" lon="7.17087">
        <ele>456.22</ele>
        <time>2024-01-31T16:38:08Z</time>
      </trkpt>
      <trkpt lat="43.804" lon="7.17164">
        <ele>454.36</ele>
        <time>2024-01-31T16:38:24Z</time>
      </trkpt>
      <trkpt lat="43.80383" lon="7.17238">
        <ele>455.02</ele>
        <time>2024-01-31T16:38:43Z</time>
      </trkpt>
      <trkpt lat="43.8036" lon="7.17304">
        <ele>457.56</ele>
        <time>2024-01-31T16:38:58Z</time>
      </trkpt>
      <trkpt lat="43.8034" lon="7.17327">
        <ele>456.28</ele>
        <time>2024-01-31T16:39:05Z</time>
      </trkpt>
      <trkpt lat="43.8033" lon="7.17334">
        <ele>459.22</ele>
        <time>2024-01-31T16:39:09Z</time>
      </trkpt>
      <trkpt lat="43.80302" lon="7.17344">
        <ele>464.78</ele>
        <time>2024-01-31T16:39:18Z</time>
      </trkpt>
      <trkpt lat="43.80296" lon="7.17352">
        <ele>465.94</ele>
        <time>2024-01-31T16:39:21Z</time>
      </trkpt>
      <trkpt lat="43.80296" lon="7.17359">
        <ele>464.84</ele>
        <time>2024-01-31T16:39:22Z</time>
      </trkpt>
      <trkpt lat="43.80295" lon="7.17373">
        <ele>460.55</ele>
        <time>2024-01-31T16:39:25Z</time>
      </trkpt>
      <trkpt lat="43.80257" lon="7.17452">
        <ele>462.22</ele>
        <time>2024-01-31T16:39:52Z</time>
      </trkpt>
      <trkpt lat="43.80243" lon="7.17489">
        <ele>460.4</ele>
        <time>2024-01-31T16:40:05Z</time>
      </trkpt>
      <trkpt lat="43.80224" lon="7.17522">
        <ele>463.34</ele>
        <time>2024-01-31T16:40:18Z</time>
      </trkpt>
      <trkpt lat="43.802" lon="7.17594">
        <ele>464.41</ele>
        <time>2024-01-31T16:40:34Z</time>
      </trkpt>
      <trkpt lat="43.80193" lon="7.17611">
        <ele>465.3</ele>
        <time>2024-01-31T16:40:38Z</time>
      </trkpt>
      <trkpt lat="43.80145" lon="7.17683">
        <ele>468.61</ele>
        <time>2024-01-31T16:40:57Z</time>
      </trkpt>
      <trkpt lat="43.80137" lon="7.17703">
        <ele>469.56</ele>
        <time>2024-01-31T16:41:01Z</time>
      </trkpt>
      <trkpt lat="43.80128" lon="7.17752">
        <ele>467.81</ele>
        <time>2024-01-31T16:41:10Z</time>
      </trkpt>
      <trkpt lat="43.80126" lon="7.17842">
        <ele>464.67</ele>
        <time>2024-01-31T16:41:24Z</time>
      </trkpt>
      <trkpt lat="43.80126" lon="7.1788">
        <ele>464.07</ele>
        <time>2024-01-31T16:41:30Z</time>
      </trkpt>
      <trkpt lat="43.80131" lon="7.17913">
        <ele>462.11</ele>
        <time>2024-01-31T16:41:35Z</time>
      </trkpt>
      <trkpt lat="43.8013" lon="7.17923">
        <ele>462.26</ele>
        <time>2024-01-31T16:41:36Z</time>
      </trkpt>
      <trkpt lat="43.80126" lon="7.17932">
        <ele>463.42</ele>
        <time>2024-01-31T16:41:38Z</time>
      </trkpt>
      <trkpt lat="43.80107" lon="7.17951">
        <ele>464.67</ele>
        <time>2024-01-31T16:41:43Z</time>
      </trkpt>
      <trkpt lat="43.80103" lon="7.17957">
        <ele>464.19</ele>
        <time>2024-01-31T16:41:43Z</time>
      </trkpt>
      <trkpt lat="43.80003" lon="7.17991">
        <ele>455.56</ele>
        <time>2024-01-31T16:41:55Z</time>
      </trkpt>
      <trkpt lat="43.79983" lon="7.18007">
        <ele>454.61</ele>
        <time>2024-01-31T16:41:57Z</time>
      </trkpt>
      <trkpt lat="43.79969" lon="7.18031">
        <ele>450.81</ele>
        <time>2024-01-31T16:42:00Z</time>
      </trkpt>
      <trkpt lat="43.79953" lon="7.18067">
        <ele>448.23</ele>
        <time>2024-01-31T16:42:03Z</time>
      </trkpt>
      <trkpt lat="43.79932" lon="7.18144">
        <ele>440.58</ele>
        <time>2024-01-31T16:42:10Z</time>
      </trkpt>
      <trkpt lat="43.79924" lon="7.18163">
        <ele>437.57</ele>
        <time>2024-01-31T16:42:12Z</time>
      </trkpt>
      <trkpt lat="43.79919" lon="7.18168">
        <ele>436.91</ele>
        <time>2024-01-31T16:42:13Z</time>
      </trkpt>
      <trkpt lat="43.79912" lon="7.18169">
        <ele>436.86</ele>
        <time>2024-01-31T16:42:14Z</time>
      </trkpt>
      <trkpt lat="43.79897" lon="7.18154">
        <ele>437.12</ele>
        <time>2024-01-31T16:42:16Z</time>
      </trkpt>
      <trkpt lat="43.79864" lon="7.18098">
        <ele>435.93</ele>
        <time>2024-01-31T16:42:22Z</time>
      </trkpt>
      <trkpt lat="43.79852" lon="7.18084">
        <ele>435.09</ele>
        <time>2024-01-31T16:42:24Z</time>
      </trkpt>
      <trkpt lat="43.79844" lon="7.1808">
        <ele>434.13</ele>
        <time>2024-01-31T16:42:25Z</time>
      </trkpt>
      <trkpt lat="43.79807" lon="7.18076">
        <ele>427.84</ele>
        <time>2024-01-31T16:42:30Z</time>
      </trkpt>
      <trkpt lat="43.79784" lon="7.18066">
        <ele>428.99</ele>
        <time>2024-01-31T16:42:32Z</time>
      </trkpt>
      <trkpt lat="43.79778" lon="7.18066">
        <ele>429.33</ele>
        <time>2024-01-31T16:42:33Z</time>
      </trkpt>
      <trkpt lat="43.79775" lon="7.1807">
        <ele>429.29</ele>
        <time>2024-01-31T16:42:34Z</time>
      </trkpt>
      <trkpt lat="43.79772" lon="7.18138">
        <ele>422.99</ele>
        <time>2024-01-31T16:42:40Z</time>
      </trkpt>
      <trkpt lat="43.79761" lon="7.18159">
        <ele>421.19</ele>
        <time>2024-01-31T16:42:42Z</time>
      </trkpt>
      <trkpt lat="43.79754" lon="7.18166">
        <ele>421.18</ele>
        <time>2024-01-31T16:42:43Z</time>
      </trkpt>
      <trkpt lat="43.79744" lon="7.18171">
        <ele>420.51</ele>
        <time>2024-01-31T16:42:44Z</time>
      </trkpt>
      <trkpt lat="43.7972" lon="7.18171">
        <ele>417.17</ele>
        <time>2024-01-31T16:42:47Z</time>
      </trkpt>
      <trkpt lat="43.79685" lon="7.18159">
        <ele>414.29</ele>
        <time>2024-01-31T16:42:51Z</time>
      </trkpt>
      <trkpt lat="43.79642" lon="7.18148">
        <ele>412.19</ele>
        <time>2024-01-31T16:42:56Z</time>
      </trkpt>
      <trkpt lat="43.79619" lon="7.18144">
        <ele>411.52</ele>
        <time>2024-01-31T16:42:59Z</time>
      </trkpt>
      <trkpt lat="43.79591" lon="7.18147">
        <ele>409.51</ele>
        <time>2024-01-31T16:43:02Z</time>
      </trkpt>
      <trkpt lat="43.7947" lon="7.18237">
        <ele>399.04</ele>
        <time>2024-01-31T16:43:19Z</time>
      </trkpt>
      <trkpt lat="43.7942" lon="7.18288">
        <ele>393.75</ele>
        <time>2024-01-31T16:43:27Z</time>
      </trkpt>
      <trkpt lat="43.79399" lon="7.18313">
        <ele>391.47</ele>
        <time>2024-01-31T16:43:30Z</time>
      </trkpt>
      <trkpt lat="43.79384" lon="7.18335">
        <ele>387.5</ele>
        <time>2024-01-31T16:43:32Z</time>
      </trkpt>
      <trkpt lat="43.79373" lon="7.18343">
        <ele>388.23</ele>
        <time>2024-01-31T16:43:34Z</time>
      </trkpt>
      <trkpt lat="43.79339" lon="7.18362">
        <ele>385.23</ele>
        <time>2024-01-31T16:43:38Z</time>
      </trkpt>
      <trkpt lat="43.79305" lon="7.18378">
        <ele>383.45</ele>
        <time>2024-01-31T16:43:42Z</time>
      </trkpt>
      <trkpt lat="43.79291" lon="7.18384">
        <ele>384.01</ele>
        <time>2024-01-31T16:43:44Z</time>
      </trkpt>
      <trkpt lat="43.79279" lon="7.18393">
        <ele>382.58</ele>
        <time>2024-01-31T16:43:45Z</time>
      </trkpt>
      <trkpt lat="43.79252" lon="7.18413">
        <ele>379.69</ele>
        <time>2024-01-31T16:43:48Z</time>
      </trkpt>
      <trkpt lat="43.79236" lon="7.1842">
        <ele>379.14</ele>
        <time>2024-01-31T16:43:50Z</time>
      </trkpt>
      <trkpt lat="43.79165" lon="7.18437">
        <ele>371.31</ele>
        <time>2024-01-31T16:43:59Z</time>
      </trkpt>
      <trkpt lat="43.79138" lon="7.18438">
        <ele>367.76</ele>
        <time>2024-01-31T16:44:02Z</time>
      </trkpt>
      <trkpt lat="43.7918" lon="7.18462">
        <ele>366.52</ele>
        <time>2024-01-31T16:44:07Z</time>
      </trkpt>
      <trkpt lat="43.79208" lon="7.18493">
        <ele>364.25</ele>
        <time>2024-01-31T16:44:11Z</time>
      </trkpt>
      <trkpt lat="43.79208" lon="7.18501">
        <ele>363.8</ele>
        <time>2024-01-31T16:44:12Z</time>
      </trkpt>
      <trkpt lat="43.79203" lon="7.18505">
        <ele>362.82</ele>
        <time>2024-01-31T16:44:13Z</time>
      </trkpt>
      <trkpt lat="43.79198" lon="7.18492">
        <ele>363.69</ele>
        <time>2024-01-31T16:44:14Z</time>
      </trkpt>
      <trkpt lat="43.79194" lon="7.18487">
        <ele>363.73</ele>
        <time>2024-01-31T16:44:15Z</time>
      </trkpt>
      <trkpt lat="43.79177" lon="7.1848">
        <ele>363.07</ele>
        <time>2024-01-31T16:44:17Z</time>
      </trkpt>
      <trkpt lat="43.79157" lon="7.18484">
        <ele>359.83</ele>
        <time>2024-01-31T16:44:19Z</time>
      </trkpt>
      <trkpt lat="43.79135" lon="7.18485">
        <ele>356.64</ele>
        <time>2024-01-31T16:44:21Z</time>
      </trkpt>
      <trkpt lat="43.79137" lon="7.18494">
        <ele>355.02</ele>
        <time>2024-01-31T16:44:23Z</time>
      </trkpt>
      <trkpt lat="43.79146" lon="7.18498">
        <ele>355.7</ele>
        <time>2024-01-31T16:44:25Z</time>
      </trkpt>
      <trkpt lat="43.79137" lon="7.18524">
        <ele>350.2</ele>
        <time>2024-01-31T16:44:29Z</time>
      </trkpt>
      <trkpt lat="43.79136" lon="7.18523">
        <ele>350.2</ele>
        <time>2024-01-31T16:44:29Z</time>
      </trkpt>
      <trkpt lat="43.79125" lon="7.18521">
        <ele>349.79</ele>
        <time>2024-01-31T16:44:30Z</time>
      </trkpt>
      <trkpt lat="43.79141" lon="7.18536">
        <ele>349.64</ele>
        <time>2024-01-31T16:44:32Z</time>
      </trkpt>
      <trkpt lat="43.7913" lon="7.18554">
        <ele>346.11</ele>
        <time>2024-01-31T16:44:34Z</time>
      </trkpt>
      <trkpt lat="43.79107" lon="7.18577">
        <ele>339.76</ele>
        <time>2024-01-31T16:44:37Z</time>
      </trkpt>
      <trkpt lat="43.79078" lon="7.18705">
        <ele>319.3</ele>
        <time>2024-01-31T16:44:48Z</time>
      </trkpt>
      <trkpt lat="43.79048" lon="7.18765">
        <ele>307.72</ele>
        <time>2024-01-31T16:44:54Z</time>
      </trkpt>
      <trkpt lat="43.7904" lon="7.18785">
        <ele>304.68</ele>
        <time>2024-01-31T16:44:56Z</time>
      </trkpt>
      <trkpt lat="43.79011" lon="7.18823">
        <ele>294.46</ele>
        <time>2024-01-31T16:45:00Z</time>
      </trkpt>
      <trkpt lat="43.79014" lon="7.18837">
        <ele>295.02</ele>
        <time>2024-01-31T16:45:01Z</time>
      </trkpt>
      <trkpt lat="43.79014" lon="7.18853">
        <ele>294.22</ele>
        <time>2024-01-31T16:45:03Z</time>
      </trkpt>
      <trkpt lat="43.79012" lon="7.18859">
        <ele>292.35</ele>
        <time>2024-01-31T16:45:03Z</time>
      </trkpt>
      <trkpt lat="43.79" lon="7.18842">
        <ele>289.79</ele>
        <time>2024-01-31T16:45:05Z</time>
      </trkpt>
      <trkpt lat="43.78993" lon="7.18841">
        <ele>288.64</ele>
        <time>2024-01-31T16:45:06Z</time>
      </trkpt>
      <trkpt lat="43.78979" lon="7.18849">
        <ele>285.44</ele>
        <time>2024-01-31T16:45:08Z</time>
      </trkpt>
      <trkpt lat="43.78974" lon="7.18851">
        <ele>283.87</ele>
        <time>2024-01-31T16:45:09Z</time>
      </trkpt>
      <trkpt lat="43.78968" lon="7.18864">
        <ele>283.42</ele>
        <time>2024-01-31T16:45:10Z</time>
      </trkpt>
      <trkpt lat="43.78941" lon="7.18897">
        <ele>282.8</ele>
        <time>2024-01-31T16:45:14Z</time>
      </trkpt>
      <trkpt lat="43.78878" lon="7.18931">
        <ele>282.83</ele>
        <time>2024-01-31T16:45:23Z</time>
      </trkpt>
      <trkpt lat="43.78857" lon="7.18946">
        <ele>283.33</ele>
        <time>2024-01-31T16:45:25Z</time>
      </trkpt>
      <trkpt lat="43.78843" lon="7.18969">
        <ele>282.31</ele>
        <time>2024-01-31T16:45:28Z</time>
      </trkpt>
      <trkpt lat="43.78826" lon="7.18969">
        <ele>283.01</ele>
        <time>2024-01-31T16:45:30Z</time>
      </trkpt>
      <trkpt lat="43.78746" lon="7.1899">
        <ele>273.68</ele>
        <time>2024-01-31T16:45:41Z</time>
      </trkpt>
      <trkpt lat="43.78742" lon="7.19">
        <ele>272.25</ele>
        <time>2024-01-31T16:45:42Z</time>
      </trkpt>
      <trkpt lat="43.78726" lon="7.19054">
        <ele>269.96</ele>
        <time>2024-01-31T16:45:47Z</time>
      </trkpt>
      <trkpt lat="43.78703" lon="7.19072">
        <ele>263.84</ele>
        <time>2024-01-31T16:45:51Z</time>
      </trkpt>
      <trkpt lat="43.78573" lon="7.19107">
        <ele>256.79</ele>
        <time>2024-01-31T16:46:07Z</time>
      </trkpt>
      <trkpt lat="43.78539" lon="7.19118">
        <ele>257.39</ele>
        <time>2024-01-31T16:46:12Z</time>
      </trkpt>
      <trkpt lat="43.78419" lon="7.19184">
        <ele>249.69</ele>
        <time>2024-01-31T16:46:29Z</time>
      </trkpt>
      <trkpt lat="43.7839" lon="7.19186">
        <ele>247.42</ele>
        <time>2024-01-31T16:46:33Z</time>
      </trkpt>
      <trkpt lat="43.78373" lon="7.19176">
        <ele>243.95</ele>
        <time>2024-01-31T16:46:36Z</time>
      </trkpt>
      <trkpt lat="43.78364" lon="7.19171">
        <ele>242.25</ele>
        <time>2024-01-31T16:46:37Z</time>
      </trkpt>
      <trkpt lat="43.78353" lon="7.1917">
        <ele>240.51</ele>
        <time>2024-01-31T16:46:38Z</time>
      </trkpt>
      <trkpt lat="43.78316" lon="7.19184">
        <ele>238.74</ele>
        <time>2024-01-31T16:46:43Z</time>
      </trkpt>
      <trkpt lat="43.78289" lon="7.19189">
        <ele>236.85</ele>
        <time>2024-01-31T16:46:46Z</time>
      </trkpt>
      <trkpt lat="43.78196" lon="7.19201">
        <ele>224.25</ele>
        <time>2024-01-31T16:46:57Z</time>
      </trkpt>
      <trkpt lat="43.78144" lon="7.19225">
        <ele>216.48</ele>
        <time>2024-01-31T16:47:04Z</time>
      </trkpt>
      <trkpt lat="43.78137" lon="7.1923">
        <ele>215.42</ele>
        <time>2024-01-31T16:47:04Z</time>
      </trkpt>
      <trkpt lat="43.78132" lon="7.19236">
        <ele>214.56</ele>
        <time>2024-01-31T16:47:05Z</time>
      </trkpt>
      <trkpt lat="43.78124" lon="7.19259">
        <ele>212.69</ele>
        <time>2024-01-31T16:47:07Z</time>
      </trkpt>
      <trkpt lat="43.78103" lon="7.19302">
        <ele>209.04</ele>
        <time>2024-01-31T16:47:12Z</time>
      </trkpt>
      <trkpt lat="43.78082" lon="7.19403">
        <ele>201.53</ele>
        <time>2024-01-31T16:47:20Z</time>
      </trkpt>
      <trkpt lat="43.78065" lon="7.19454">
        <ele>196.79</ele>
        <time>2024-01-31T16:47:25Z</time>
      </trkpt>
      <trkpt lat="43.78048" lon="7.1948">
        <ele>193.56</ele>
        <time>2024-01-31T16:47:28Z</time>
      </trkpt>
      <trkpt lat="43.77998" lon="7.19537">
        <ele>186.26</ele>
        <time>2024-01-31T16:47:35Z</time>
      </trkpt>
      <trkpt lat="43.77991" lon="7.19541">
        <ele>185.33</ele>
        <time>2024-01-31T16:47:36Z</time>
      </trkpt>
      <trkpt lat="43.77981" lon="7.19536">
        <ele>184.69</ele>
        <time>2024-01-31T16:47:37Z</time>
      </trkpt>
      <trkpt lat="43.77965" lon="7.19504">
        <ele>181.8</ele>
        <time>2024-01-31T16:47:40Z</time>
      </trkpt>
      <trkpt lat="43.77953" lon="7.19493">
        <ele>179.89</ele>
        <time>2024-01-31T16:47:42Z</time>
      </trkpt>
      <trkpt lat="43.77918" lon="7.19494">
        <ele>175.57</ele>
        <time>2024-01-31T16:47:45Z</time>
      </trkpt>
      <trkpt lat="43.77886" lon="7.19497">
        <ele>170.8</ele>
        <time>2024-01-31T16:47:49Z</time>
      </trkpt>
      <trkpt lat="43.77827" lon="7.19548">
        <ele>158.39</ele>
        <time>2024-01-31T16:47:57Z</time>
      </trkpt>
      <trkpt lat="43.77826" lon="7.19557">
        <ele>157.07</ele>
        <time>2024-01-31T16:47:58Z</time>
      </trkpt>
      <trkpt lat="43.77831" lon="7.19561">
        <ele>156.37</ele>
        <time>2024-01-31T16:47:59Z</time>
      </trkpt>
      <trkpt lat="43.77869" lon="7.19566">
        <ele>150.78</ele>
        <time>2024-01-31T16:48:03Z</time>
      </trkpt>
      <trkpt lat="43.77877" lon="7.19569">
        <ele>150.36</ele>
        <time>2024-01-31T16:48:04Z</time>
      </trkpt>
      <trkpt lat="43.7788" lon="7.19574">
        <ele>149.72</ele>
        <time>2024-01-31T16:48:05Z</time>
      </trkpt>
      <trkpt lat="43.77879" lon="7.19579">
        <ele>148.73</ele>
        <time>2024-01-31T16:48:05Z</time>
      </trkpt>
      <trkpt lat="43.77874" lon="7.19587">
        <ele>147.96</ele>
        <time>2024-01-31T16:48:06Z</time>
      </trkpt>
      <trkpt lat="43.77853" lon="7.19612">
        <ele>143.89</ele>
        <time>2024-01-31T16:48:09Z</time>
      </trkpt>
      <trkpt lat="43.77835" lon="7.19627">
        <ele>140.56</ele>
        <time>2024-01-31T16:48:12Z</time>
      </trkpt>
      <trkpt lat="43.77829" lon="7.19636">
        <ele>140.04</ele>
        <time>2024-01-31T16:48:13Z</time>
      </trkpt>
      <trkpt lat="43.77815" lon="7.19631">
        <ele>139.06</ele>
        <time>2024-01-31T16:48:15Z</time>
      </trkpt>
      <trkpt lat="43.77774" lon="7.19629">
        <ele>136.85</ele>
        <time>2024-01-31T16:48:20Z</time>
      </trkpt>
      <trkpt lat="43.77754" lon="7.19621">
        <ele>135.6</ele>
        <time>2024-01-31T16:48:23Z</time>
      </trkpt>
      <trkpt lat="43.77717" lon="7.19598">
        <ele>133.4</ele>
        <time>2024-01-31T16:48:27Z</time>
      </trkpt>
      <trkpt lat="43.77702" lon="7.1959">
        <ele>132.38</ele>
        <time>2024-01-31T16:48:29Z</time>
      </trkpt>
      <trkpt lat="43.77685" lon="7.19591">
        <ele>131.6</ele>
        <time>2024-01-31T16:48:32Z</time>
      </trkpt>
      <trkpt lat="43.77675" lon="7.19602">
        <ele>130.69</ele>
        <time>2024-01-31T16:48:33Z</time>
      </trkpt>
      <trkpt lat="43.77669" lon="7.19613">
        <ele>130.1</ele>
        <time>2024-01-31T16:48:35Z</time>
      </trkpt>
      <trkpt lat="43.77611" lon="7.19754">
        <ele>124.25</ele>
        <time>2024-01-31T16:48:50Z</time>
      </trkpt>
      <trkpt lat="43.77589" lon="7.19785">
        <ele>122.67</ele>
        <time>2024-01-31T16:48:54Z</time>
      </trkpt>
      <trkpt lat="43.77579" lon="7.19793">
        <ele>121.96</ele>
        <time>2024-01-31T16:48:55Z</time>
      </trkpt>
      <trkpt lat="43.77545" lon="7.1981">
        <ele>120.14</ele>
        <time>2024-01-31T16:49:00Z</time>
      </trkpt>
      <trkpt lat="43.7753" lon="7.19821">
        <ele>119.22</ele>
        <time>2024-01-31T16:49:02Z</time>
      </trkpt>
      <trkpt lat="43.77525" lon="7.19817">
        <ele>119.42</ele>
        <time>2024-01-31T16:49:03Z</time>
      </trkpt>
      <trkpt lat="43.77522" lon="7.19819">
        <ele>119.22</ele>
        <time>2024-01-31T16:49:03Z</time>
      </trkpt>
      <trkpt lat="43.77521" lon="7.19828">
        <ele>118.77</ele>
        <time>2024-01-31T16:49:04Z</time>
      </trkpt>
      <trkpt lat="43.77512" lon="7.19841">
        <ele>118.56</ele>
        <time>2024-01-31T16:49:05Z</time>
      </trkpt>
      <trkpt lat="43.77503" lon="7.19863">
        <ele>117.93</ele>
        <time>2024-01-31T16:49:08Z</time>
      </trkpt>
      <trkpt lat="43.77484" lon="7.1993">
        <ele>115.56</ele>
        <time>2024-01-31T16:49:14Z</time>
      </trkpt>
      <trkpt lat="43.77478" lon="7.19928">
        <ele>115.43</ele>
        <time>2024-01-31T16:49:15Z</time>
      </trkpt>
      <trkpt lat="43.77472" lon="7.19931">
        <ele>115</ele>
        <time>2024-01-31T16:49:16Z</time>
      </trkpt>
      <trkpt lat="43.77469" lon="7.19945">
        <ele>114.57</ele>
        <time>2024-01-31T16:49:17Z</time>
      </trkpt>
      <trkpt lat="43.77435" lon="7.19951">
        <ele>112.6</ele>
        <time>2024-01-31T16:49:21Z</time>
      </trkpt>
      <trkpt lat="43.77431" lon="7.19958">
        <ele>112.38</ele>
        <time>2024-01-31T16:49:22Z</time>
      </trkpt>
      <trkpt lat="43.77386" lon="7.19964">
        <ele>106.09</ele>
        <time>2024-01-31T16:49:27Z</time>
      </trkpt>
      <trkpt lat="43.77362" lon="7.19974">
        <ele>103.98</ele>
        <time>2024-01-31T16:49:30Z</time>
      </trkpt>
      <trkpt lat="43.77295" lon="7.19989">
        <ele>100.34</ele>
        <time>2024-01-31T16:49:38Z</time>
      </trkpt>
      <trkpt lat="43.77274" lon="7.19998">
        <ele>99.61</ele>
        <time>2024-01-31T16:49:41Z</time>
      </trkpt>
      <trkpt lat="43.7723" lon="7.20023">
        <ele>98.78</ele>
        <time>2024-01-31T16:49:47Z</time>
      </trkpt>
      <trkpt lat="43.7717" lon="7.20066">
        <ele>94.13</ele>
        <time>2024-01-31T16:49:54Z</time>
      </trkpt>
      <trkpt lat="43.77138" lon="7.20083">
        <ele>92.04</ele>
        <time>2024-01-31T16:49:58Z</time>
      </trkpt>
      <trkpt lat="43.77107" lon="7.20107">
        <ele>87.01</ele>
        <time>2024-01-31T16:50:02Z</time>
      </trkpt>
      <trkpt lat="43.77106" lon="7.20107">
        <ele>86.76</ele>
        <time>2024-01-31T16:50:02Z</time>
      </trkpt>
      <trkpt lat="43.77073" lon="7.20131">
        <ele>82.67</ele>
        <time>2024-01-31T16:50:07Z</time>
      </trkpt>
      <trkpt lat="43.77053" lon="7.20155">
        <ele>77.47</ele>
        <time>2024-01-31T16:50:10Z</time>
      </trkpt>
      <trkpt lat="43.77045" lon="7.20178">
        <ele>74.46</ele>
        <time>2024-01-31T16:50:12Z</time>
      </trkpt>
      <trkpt lat="43.77042" lon="7.20194">
        <ele>72.06</ele>
        <time>2024-01-31T16:50:13Z</time>
      </trkpt>
      <trkpt lat="43.77042" lon="7.20211">
        <ele>68.59</ele>
        <time>2024-01-31T16:50:15Z</time>
      </trkpt>
      <trkpt lat="43.77034" lon="7.20252">
        <ele>65.44</ele>
        <time>2024-01-31T16:50:18Z</time>
      </trkpt>
      <trkpt lat="43.77022" lon="7.20279">
        <ele>65.35</ele>
        <time>2024-01-31T16:50:21Z</time>
      </trkpt>
      <trkpt lat="43.77015" lon="7.20285">
        <ele>65.43</ele>
        <time>2024-01-31T16:50:22Z</time>
      </trkpt>
      <trkpt lat="43.77009" lon="7.20266">
        <ele>65.62</ele>
        <time>2024-01-31T16:50:24Z</time>
      </trkpt>
      <trkpt lat="43.76971" lon="7.20228">
        <ele>64.76</ele>
        <time>2024-01-31T16:50:31Z</time>
      </trkpt>
      <trkpt lat="43.76947" lon="7.20196">
        <ele>63.8</ele>
        <time>2024-01-31T16:50:36Z</time>
      </trkpt>
      <trkpt lat="43.76903" lon="7.20117">
        <ele>62.81</ele>
        <time>2024-01-31T16:50:49Z</time>
      </trkpt>
      <trkpt lat="43.76854" lon="7.20068">
        <ele>62.95</ele>
        <time>2024-01-31T16:51:01Z</time>
      </trkpt>
      <trkpt lat="43.76786" lon="7.20011">
        <ele>64.86</ele>
        <time>2024-01-31T16:51:18Z</time>
      </trkpt>
      <trkpt lat="43.76782" lon="7.20004">
        <ele>65.22</ele>
        <time>2024-01-31T16:51:19Z</time>
      </trkpt>
      <trkpt lat="43.76776" lon="7.1998">
        <ele>65.96</ele>
        <time>2024-01-31T16:51:23Z</time>
      </trkpt>
      <trkpt lat="43.76763" lon="7.1998">
        <ele>66.09</ele>
        <time>2024-01-31T16:51:32Z</time>
      </trkpt>
      <trkpt lat="43.76757" lon="7.19989">
        <ele>66.18</ele>
        <time>2024-01-31T16:51:35Z</time>
      </trkpt>
      <trkpt lat="43.7674" lon="7.20033">
        <ele>65.52</ele>
        <time>2024-01-31T16:51:47Z</time>
      </trkpt>
      <trkpt lat="43.76718" lon="7.20076">
        <ele>65.68</ele>
        <time>2024-01-31T16:51:59Z</time>
      </trkpt>
      <trkpt lat="43.76706" lon="7.20064">
        <ele>65.24</ele>
        <time>2024-01-31T16:52:03Z</time>
      </trkpt>
      <trkpt lat="43.76689" lon="7.20097">
        <ele>65.36</ele>
        <time>2024-01-31T16:52:23Z</time>
      </trkpt>
      <trkpt lat="43.76683" lon="7.20091">
        <ele>66.25</ele>
        <time>2024-01-31T16:52:29Z</time>
      </trkpt>
      <trkpt lat="43.76659" lon="7.2016">
        <ele>65.55</ele>
        <time>2024-01-31T16:52:38Z</time>
      </trkpt>
      <trkpt lat="43.76648" lon="7.20165">
        <ele>65.85</ele>
        <time>2024-01-31T16:52:40Z</time>
      </trkpt>
      <trkpt lat="43.76642" lon="7.20165">
        <ele>65.9</ele>
        <time>2024-01-31T16:52:41Z</time>
      </trkpt>
      <trkpt lat="43.76639" lon="7.20165">
        <ele>65.94</ele>
        <time>2024-01-31T16:52:42Z</time>
      </trkpt>
      <trkpt lat="43.76631" lon="7.20165">
        <ele>66.09</ele>
        <time>2024-01-31T16:52:44Z</time>
      </trkpt>
      <trkpt lat="43.76615" lon="7.20171">
        <ele>65.93</ele>
        <time>2024-01-31T16:52:49Z</time>
      </trkpt>
      <trkpt lat="43.76601" lon="7.20165">
        <ele>65.64</ele>
        <time>2024-01-31T16:52:53Z</time>
      </trkpt>
      <trkpt lat="43.76592" lon="7.2016">
        <ele>65.11</ele>
        <time>2024-01-31T16:52:56Z</time>
      </trkpt>
      <trkpt lat="43.76588" lon="7.20161">
        <ele>65.11</ele>
        <time>2024-01-31T16:52:57Z</time>
      </trkpt>
      <trkpt lat="43.76585" lon="7.2017">
        <ele>65.13</ele>
        <time>2024-01-31T16:52:59Z</time>
      </trkpt>
      <trkpt lat="43.76581" lon="7.20177">
        <ele>65.19</ele>
        <time>2024-01-31T16:53:01Z</time>
      </trkpt>
      <trkpt lat="43.76569" lon="7.20204">
        <ele>63.05</ele>
        <time>2024-01-31T16:53:06Z</time>
      </trkpt>
      <trkpt lat="43.76415" lon="7.20486">
        <ele>64.44</ele>
        <time>2024-01-31T16:54:08Z</time>
      </trkpt>
      <trkpt lat="43.76412" lon="7.2049">
        <ele>65.23</ele>
        <time>2024-01-31T16:54:09Z</time>
      </trkpt>
      <trkpt lat="43.76384" lon="7.20448">
        <ele>61.9</ele>
        <time>2024-01-31T16:54:22Z</time>
      </trkpt>
      <trkpt lat="43.76389" lon="7.20441">
        <ele>61.42</ele>
        <time>2024-01-31T16:54:24Z</time>
      </trkpt>
      <trkpt lat="43.76393" lon="7.20439">
        <ele>61.36</ele>
        <time>2024-01-31T16:54:25Z</time>
      </trkpt>
      <trkpt lat="43.76399" lon="7.20443">
        <ele>61.19</ele>
        <time>2024-01-31T16:54:27Z</time>
      </trkpt>
      <trkpt lat="43.7658" lon="7.20671">
        <ele>62.01</ele>
        <time>2024-01-31T16:55:45Z</time>
      </trkpt>
      <trkpt lat="43.76715" lon="7.20818">
        <ele>62.32</ele>
        <time>2024-01-31T16:56:46Z</time>
      </trkpt>
      <trkpt lat="43.76811" lon="7.20914">
        <ele>62.79</ele>
        <time>2024-01-31T16:57:26Z</time>
      </trkpt>
      <trkpt lat="43.76837" lon="7.20943">
        <ele>63.09</ele>
        <time>2024-01-31T16:57:37Z</time>
      </trkpt>
      <trkpt lat="43.76958" lon="7.2108">
        <ele>63.38</ele>
        <time>2024-01-31T16:58:22Z</time>
      </trkpt>
      <trkpt lat="43.77011" lon="7.21152">
        <ele>66.19</ele>
        <time>2024-01-31T16:58:43Z</time>
      </trkpt>
      <trkpt lat="43.77124" lon="7.2127">
        <ele>68.95</ele>
        <time>2024-01-31T16:59:25Z</time>
      </trkpt>
      <trkpt lat="43.77185" lon="7.21322">
        <ele>65.59</ele>
        <time>2024-01-31T16:59:47Z</time>
      </trkpt>
      <trkpt lat="43.77183" lon="7.21326">
        <ele>66.06</ele>
        <time>2024-01-31T16:59:50Z</time>
      </trkpt>
      <trkpt lat="43.7718" lon="7.21334">
        <ele>70.14</ele>
        <time>2024-01-31T16:59:54Z</time>
      </trkpt>
      <trkpt lat="43.77156" lon="7.21389">
        <ele>67.88</ele>
        <time>2024-01-31T17:00:27Z</time>
      </trkpt>
      <trkpt lat="43.77144" lon="7.2142">
        <ele>68.7</ele>
        <time>2024-01-31T17:00:44Z</time>
      </trkpt>
      <trkpt lat="43.77129" lon="7.21481">
        <ele>72.33</ele>
        <time>2024-01-31T17:01:16Z</time>
      </trkpt>
      <trkpt lat="43.77132" lon="7.21482">
        <ele>72.33</ele>
        <time>2024-01-31T17:01:18Z</time>
      </trkpt>
      <trkpt lat="43.77142" lon="7.21437">
        <ele>71.38</ele>
        <time>2024-01-31T17:01:42Z</time>
      </trkpt>
      <trkpt lat="43.77157" lon="7.21393">
        <ele>69.06</ele>
        <time>2024-01-31T17:02:06Z</time>
      </trkpt>
      <trkpt lat="43.77161" lon="7.21396">
        <ele>70.74</ele>
        <time>2024-01-31T17:02:09Z</time>
      </trkpt>
      <trkpt lat="43.77148" lon="7.21439">
        <ele>71.43</ele>
        <time>2024-01-31T17:02:16Z</time>
      </trkpt>
      <trkpt lat="43.77174" lon="7.21454">
        <ele>69.29</ele>
        <time>2024-01-31T17:02:23Z</time>
      </trkpt>
      <trkpt lat="43.77182" lon="7.21471">
        <ele>69.37</ele>
        <time>2024-01-31T17:02:27Z</time>
      </trkpt>
      <trkpt lat="43.77189" lon="7.21476">
        <ele>69.38</ele>
        <time>2024-01-31T17:02:29Z</time>
      </trkpt>
      <trkpt lat="43.77209" lon="7.21493">
        <ele>69.4</ele>
        <time>2024-01-31T17:02:34Z</time>
      </trkpt>
      <trkpt lat="43.77227" lon="7.21507">
        <ele>69.45</ele>
        <time>2024-01-31T17:02:39Z</time>
      </trkpt>
      <trkpt lat="43.77224" lon="7.21524">
        <ele>69.58</ele>
        <time>2024-01-31T17:02:42Z</time>
      </trkpt>
      <trkpt lat="43.77232" lon="7.2153">
        <ele>69.72</ele>
        <time>2024-01-31T17:02:44Z</time>
      </trkpt>
      <trkpt lat="43.77245" lon="7.215">
        <ele>69.62</ele>
        <time>2024-01-31T17:02:50Z</time>
      </trkpt>
      <trkpt lat="43.77287" lon="7.21533">
        <ele>69.73</ele>
        <time>2024-01-31T17:03:02Z</time>
      </trkpt>
      <trkpt lat="43.77324" lon="7.21561">
        <ele>68.92</ele>
        <time>2024-01-31T17:03:11Z</time>
      </trkpt>
      <trkpt lat="43.77344" lon="7.215">
        <ele>71.68</ele>
        <time>2024-01-31T17:03:22Z</time>
      </trkpt>
      <trkpt lat="43.77435" lon="7.21565">
        <ele>72.38</ele>
        <time>2024-01-31T17:03:40Z</time>
      </trkpt>
      <trkpt lat="43.77453" lon="7.21576">
        <ele>72.47</ele>
        <time>2024-01-31T17:03:44Z</time>
      </trkpt>
      <trkpt lat="43.77466" lon="7.21584">
        <ele>70.96</ele>
        <time>2024-01-31T17:03:47Z</time>
      </trkpt>
      <trkpt lat="43.77568" lon="7.21643">
        <ele>73.04</ele>
        <time>2024-01-31T17:04:13Z</time>
      </trkpt>
      <trkpt lat="43.77658" lon="7.21686">
        <ele>73.64</ele>
        <time>2024-01-31T17:04:38Z</time>
      </trkpt>
      <trkpt lat="43.77706" lon="7.21706">
        <ele>73.85</ele>
        <time>2024-01-31T17:04:52Z</time>
      </trkpt>
      <trkpt lat="43.7783" lon="7.21748">
        <ele>74.52</ele>
        <time>2024-01-31T17:05:29Z</time>
      </trkpt>
      <trkpt lat="43.7787" lon="7.2176">
        <ele>74.8</ele>
        <time>2024-01-31T17:05:43Z</time>
      </trkpt>
      <trkpt lat="43.77959" lon="7.21778">
        <ele>75.3</ele>
        <time>2024-01-31T17:06:22Z</time>
      </trkpt>
      <trkpt lat="43.77956" lon="7.21797">
        <ele>75.77</ele>
        <time>2024-01-31T17:06:29Z</time>
      </trkpt>
      <trkpt lat="43.77945" lon="7.21806">
        <ele>77.65</ele>
        <time>2024-01-31T17:06:36Z</time>
      </trkpt>
      <trkpt lat="43.77932" lon="7.2181">
        <ele>77.61</ele>
        <time>2024-01-31T17:06:43Z</time>
      </trkpt>
      <trkpt lat="43.7792" lon="7.21824">
        <ele>79.79</ele>
        <time>2024-01-31T17:06:52Z</time>
      </trkpt>
      <trkpt lat="43.77904" lon="7.2185">
        <ele>80.33</ele>
        <time>2024-01-31T17:07:07Z</time>
      </trkpt>
      <trkpt lat="43.77877" lon="7.21912">
        <ele>84.84</ele>
        <time>2024-01-31T17:07:42Z</time>
      </trkpt>
      <trkpt lat="43.77869" lon="7.21964">
        <ele>88.31</ele>
        <time>2024-01-31T17:08:13Z</time>
      </trkpt>
      <trkpt lat="43.7787" lon="7.21983">
        <ele>88.81</ele>
        <time>2024-01-31T17:08:25Z</time>
      </trkpt>
      <trkpt lat="43.77879" lon="7.22011">
        <ele>91.09</ele>
        <time>2024-01-31T17:08:42Z</time>
      </trkpt>
      <trkpt lat="43.77882" lon="7.22032">
        <ele>92.65</ele>
        <time>2024-01-31T17:08:55Z</time>
      </trkpt>
      <trkpt lat="43.77882" lon="7.22045">
        <ele>93.74</ele>
        <time>2024-01-31T17:09:03Z</time>
      </trkpt>
      <trkpt lat="43.77879" lon="7.22051">
        <ele>94.26</ele>
        <time>2024-01-31T17:09:07Z</time>
      </trkpt>
      <trkpt lat="43.77873" lon="7.2205">
        <ele>94.67</ele>
        <time>2024-01-31T17:09:11Z</time>
      </trkpt>
      <trkpt lat="43.77854" lon="7.22034">
        <ele>98.47</ele>
        <time>2024-01-31T17:09:27Z</time>
      </trkpt>
      <trkpt lat="43.77847" lon="7.22036">
        <ele>97.01</ele>
        <time>2024-01-31T17:09:33Z</time>
      </trkpt>
      <trkpt lat="43.77816" lon="7.22077">
        <ele>100.91</ele>
        <time>2024-01-31T17:09:59Z</time>
      </trkpt>
      <trkpt lat="43.77789" lon="7.22096">
        <ele>102.89</ele>
        <time>2024-01-31T17:10:13Z</time>
      </trkpt>
      <trkpt lat="43.77774" lon="7.22118">
        <ele>107.89</ele>
        <time>2024-01-31T17:10:22Z</time>
      </trkpt>
      <trkpt lat="43.77768" lon="7.2212">
        <ele>108.69</ele>
        <time>2024-01-31T17:10:24Z</time>
      </trkpt>
      <trkpt lat="43.77761" lon="7.22118">
        <ele>108.57</ele>
        <time>2024-01-31T17:10:27Z</time>
      </trkpt>
      <trkpt lat="43.77754" lon="7.22103">
        <ele>109.97</ele>
        <time>2024-01-31T17:10:31Z</time>
      </trkpt>
      <trkpt lat="43.77752" lon="7.22076">
        <ele>109.36</ele>
        <time>2024-01-31T17:10:37Z</time>
      </trkpt>
      <trkpt lat="43.77755" lon="7.2206">
        <ele>110.87</ele>
        <time>2024-01-31T17:10:41Z</time>
      </trkpt>
      <trkpt lat="43.77772" lon="7.22025">
        <ele>107.95</ele>
        <time>2024-01-31T17:10:50Z</time>
      </trkpt>
      <trkpt lat="43.77783" lon="7.21974">
        <ele>112.89</ele>
        <time>2024-01-31T17:11:01Z</time>
      </trkpt>
      <trkpt lat="43.77785" lon="7.21942">
        <ele>117.49</ele>
        <time>2024-01-31T17:11:08Z</time>
      </trkpt>
      <trkpt lat="43.77782" lon="7.21929">
        <ele>117.79</ele>
        <time>2024-01-31T17:11:11Z</time>
      </trkpt>
      <trkpt lat="43.77778" lon="7.21924">
        <ele>118.35</ele>
        <time>2024-01-31T17:11:13Z</time>
      </trkpt>
      <trkpt lat="43.77764" lon="7.21927">
        <ele>120.26</ele>
        <time>2024-01-31T17:11:17Z</time>
      </trkpt>
      <trkpt lat="43.77755" lon="7.21933">
        <ele>121.11</ele>
        <time>2024-01-31T17:11:20Z</time>
      </trkpt>
      <trkpt lat="43.77748" lon="7.21942">
        <ele>122.13</ele>
        <time>2024-01-31T17:11:23Z</time>
      </trkpt>
      <trkpt lat="43.77735" lon="7.22005">
        <ele>126.13</ele>
        <time>2024-01-31T17:11:44Z</time>
      </trkpt>
      <trkpt lat="43.77728" lon="7.22022">
        <ele>127.15</ele>
        <time>2024-01-31T17:11:52Z</time>
      </trkpt>
      <trkpt lat="43.7772" lon="7.22058">
        <ele>130.14</ele>
        <time>2024-01-31T17:12:14Z</time>
      </trkpt>
      <trkpt lat="43.77717" lon="7.22089">
        <ele>133.61</ele>
        <time>2024-01-31T17:12:35Z</time>
      </trkpt>
      <trkpt lat="43.77706" lon="7.22124">
        <ele>143.95</ele>
        <time>2024-01-31T17:13:03Z</time>
      </trkpt>
      <trkpt lat="43.77692" lon="7.22138">
        <ele>153.36</ele>
        <time>2024-01-31T17:13:23Z</time>
      </trkpt>
      <trkpt lat="43.77678" lon="7.22134">
        <ele>154.24</ele>
        <time>2024-01-31T17:13:41Z</time>
      </trkpt>
      <trkpt lat="43.77673" lon="7.22136">
        <ele>153.65</ele>
        <time>2024-01-31T17:13:47Z</time>
      </trkpt>
      <trkpt lat="43.77687" lon="7.22187">
        <ele>162.25</ele>
        <time>2024-01-31T17:14:35Z</time>
      </trkpt>
      <trkpt lat="43.77705" lon="7.22275">
        <ele>175.56</ele>
        <time>2024-01-31T17:15:43Z</time>
      </trkpt>
      <trkpt lat="43.77707" lon="7.22302">
        <ele>181</ele>
        <time>2024-01-31T17:16:00Z</time>
      </trkpt>
      <trkpt lat="43.77709" lon="7.22312">
        <ele>182.5</ele>
        <time>2024-01-31T17:16:06Z</time>
      </trkpt>
      <trkpt lat="43.77708" lon="7.22329">
        <ele>187.32</ele>
        <time>2024-01-31T17:16:14Z</time>
      </trkpt>
      <trkpt lat="43.77698" lon="7.22366">
        <ele>199.67</ele>
        <time>2024-01-31T17:16:30Z</time>
      </trkpt>
      <trkpt lat="43.77689" lon="7.22383">
        <ele>206.14</ele>
        <time>2024-01-31T17:16:37Z</time>
      </trkpt>
      <trkpt lat="43.77675" lon="7.22393">
        <ele>208.59</ele>
        <time>2024-01-31T17:16:45Z</time>
      </trkpt>
      <trkpt lat="43.77621" lon="7.22401">
        <ele>209.74</ele>
        <time>2024-01-31T17:17:09Z</time>
      </trkpt>
      <trkpt lat="43.7761" lon="7.22398">
        <ele>209.38</ele>
        <time>2024-01-31T17:17:14Z</time>
      </trkpt>
      <trkpt lat="43.77582" lon="7.22376">
        <ele>209.16</ele>
        <time>2024-01-31T17:17:25Z</time>
      </trkpt>
      <trkpt lat="43.77576" lon="7.22367">
        <ele>209.03</ele>
        <time>2024-01-31T17:17:27Z</time>
      </trkpt>
      <trkpt lat="43.77569" lon="7.22366">
        <ele>209.1</ele>
        <time>2024-01-31T17:17:29Z</time>
      </trkpt>
      <trkpt lat="43.77587" lon="7.2242">
        <ele>212.44</ele>
        <time>2024-01-31T17:17:44Z</time>
      </trkpt>
      <trkpt lat="43.77595" lon="7.22434">
        <ele>213.42</ele>
        <time>2024-01-31T17:17:50Z</time>
      </trkpt>
      <trkpt lat="43.77618" lon="7.22442">
        <ele>215.92</ele>
        <time>2024-01-31T17:18:00Z</time>
      </trkpt>
      <trkpt lat="43.77637" lon="7.2244">
        <ele>218.9</ele>
        <time>2024-01-31T17:18:09Z</time>
      </trkpt>
      <trkpt lat="43.7764" lon="7.22447">
        <ele>218.06</ele>
        <time>2024-01-31T17:18:11Z</time>
      </trkpt>
      <trkpt lat="43.7766" lon="7.22445">
        <ele>221.7</ele>
        <time>2024-01-31T17:18:19Z</time>
      </trkpt>
      <trkpt lat="43.7768" lon="7.22451">
        <ele>225.3</ele>
        <time>2024-01-31T17:18:29Z</time>
      </trkpt>
      <trkpt lat="43.77696" lon="7.22455">
        <ele>229.05</ele>
        <time>2024-01-31T17:18:41Z</time>
      </trkpt>
      <trkpt lat="43.77713" lon="7.22467">
        <ele>234.74</ele>
        <time>2024-01-31T17:18:53Z</time>
      </trkpt>
      <trkpt lat="43.77723" lon="7.22492">
        <ele>236.94</ele>
        <time>2024-01-31T17:19:08Z</time>
      </trkpt>
      <trkpt lat="43.77729" lon="7.22519">
        <ele>234.93</ele>
        <time>2024-01-31T17:19:21Z</time>
      </trkpt>
      <trkpt lat="43.77729" lon="7.2255">
        <ele>231.92</ele>
        <time>2024-01-31T17:19:36Z</time>
      </trkpt>
      <trkpt lat="43.77736" lon="7.22566">
        <ele>232.79</ele>
        <time>2024-01-31T17:19:43Z</time>
      </trkpt>
      <trkpt lat="43.77752" lon="7.22574">
        <ele>235.44</ele>
        <time>2024-01-31T17:19:52Z</time>
      </trkpt>
      <trkpt lat="43.77787" lon="7.22568">
        <ele>244.84</ele>
        <time>2024-01-31T17:20:10Z</time>
      </trkpt>
      <trkpt lat="43.77808" lon="7.22577">
        <ele>245.7</ele>
        <time>2024-01-31T17:20:19Z</time>
      </trkpt>
      <trkpt lat="43.77875" lon="7.22635">
        <ele>244.25</ele>
        <time>2024-01-31T17:20:51Z</time>
      </trkpt>
      <trkpt lat="43.77901" lon="7.22638">
        <ele>248.18</ele>
        <time>2024-01-31T17:21:02Z</time>
      </trkpt>
      <trkpt lat="43.77953" lon="7.22654">
        <ele>250.14</ele>
        <time>2024-01-31T17:21:20Z</time>
      </trkpt>
      <trkpt lat="43.78003" lon="7.22672">
        <ele>249.87</ele>
        <time>2024-01-31T17:21:38Z</time>
      </trkpt>
      <trkpt lat="43.78046" lon="7.22693">
        <ele>254.86</ele>
        <time>2024-01-31T17:21:55Z</time>
      </trkpt>
      <trkpt lat="43.78078" lon="7.22715">
        <ele>260.18</ele>
        <time>2024-01-31T17:22:09Z</time>
      </trkpt>
      <trkpt lat="43.78095" lon="7.22733">
        <ele>264.49</ele>
        <time>2024-01-31T17:22:19Z</time>
      </trkpt>
      <trkpt lat="43.78116" lon="7.22779">
        <ele>267.26</ele>
        <time>2024-01-31T17:22:37Z</time>
      </trkpt>
      <trkpt lat="43.78126" lon="7.22793">
        <ele>268.13</ele>
        <time>2024-01-31T17:22:44Z</time>
      </trkpt>
      <trkpt lat="43.78136" lon="7.22803">
        <ele>268.18</ele>
        <time>2024-01-31T17:22:51Z</time>
      </trkpt>
      <trkpt lat="43.78163" lon="7.22816">
        <ele>273.83</ele>
        <time>2024-01-31T17:23:05Z</time>
      </trkpt>
      <trkpt lat="43.78191" lon="7.22835">
        <ele>280.7</ele>
        <time>2024-01-31T17:23:21Z</time>
      </trkpt>
      <trkpt lat="43.78237" lon="7.22873">
        <ele>286.7</ele>
        <time>2024-01-31T17:23:48Z</time>
      </trkpt>
      <trkpt lat="43.78256" lon="7.22883">
        <ele>288.8</ele>
        <time>2024-01-31T17:23:59Z</time>
      </trkpt>
      <trkpt lat="43.7829" lon="7.22887">
        <ele>294.5</ele>
        <time>2024-01-31T17:24:19Z</time>
      </trkpt>
      <trkpt lat="43.7834" lon="7.2293">
        <ele>295.53</ele>
        <time>2024-01-31T17:24:55Z</time>
      </trkpt>
      <trkpt lat="43.78362" lon="7.22949">
        <ele>296.99</ele>
        <time>2024-01-31T17:25:11Z</time>
      </trkpt>
      <trkpt lat="43.78383" lon="7.22953">
        <ele>300.29</ele>
        <time>2024-01-31T17:25:25Z</time>
      </trkpt>
      <trkpt lat="43.78424" lon="7.22967">
        <ele>303.44</ele>
        <time>2024-01-31T17:25:54Z</time>
      </trkpt>
      <trkpt lat="43.7843" lon="7.22977">
        <ele>304.53</ele>
        <time>2024-01-31T17:26:00Z</time>
      </trkpt>
      <trkpt lat="43.78433" lon="7.22991">
        <ele>307.07</ele>
        <time>2024-01-31T17:26:08Z</time>
      </trkpt>
      <trkpt lat="43.78443" lon="7.23016">
        <ele>306.63</ele>
        <time>2024-01-31T17:26:22Z</time>
      </trkpt>
      <trkpt lat="43.78468" lon="7.23049">
        <ele>307.53</ele>
        <time>2024-01-31T17:26:44Z</time>
      </trkpt>
      <trkpt lat="43.7849" lon="7.23071">
        <ele>309.56</ele>
        <time>2024-01-31T17:27:04Z</time>
      </trkpt>
      <trkpt lat="43.78506" lon="7.23079">
        <ele>311.47</ele>
        <time>2024-01-31T17:27:16Z</time>
      </trkpt>
      <trkpt lat="43.78525" lon="7.23092">
        <ele>316.11</ele>
        <time>2024-01-31T17:27:31Z</time>
      </trkpt>
      <trkpt lat="43.78547" lon="7.23113">
        <ele>323.41</ele>
        <time>2024-01-31T17:27:49Z</time>
      </trkpt>
      <trkpt lat="43.78549" lon="7.23115">
        <ele>323.41</ele>
        <time>2024-01-31T17:27:51Z</time>
      </trkpt>
      <trkpt lat="43.78569" lon="7.23165">
        <ele>327.29</ele>
        <time>2024-01-31T17:28:18Z</time>
      </trkpt>
      <trkpt lat="43.78584" lon="7.23179">
        <ele>331.37</ele>
        <time>2024-01-31T17:28:31Z</time>
      </trkpt>
      <trkpt lat="43.78618" lon="7.23202">
        <ele>338.01</ele>
        <time>2024-01-31T17:29:00Z</time>
      </trkpt>
      <trkpt lat="43.7863" lon="7.23217">
        <ele>338.04</ele>
        <time>2024-01-31T17:29:12Z</time>
      </trkpt>
      <trkpt lat="43.78632" lon="7.23219">
        <ele>338.69</ele>
        <time>2024-01-31T17:29:14Z</time>
      </trkpt>
      <trkpt lat="43.78653" lon="7.23248">
        <ele>339.94</ele>
        <time>2024-01-31T17:29:36Z</time>
      </trkpt>
      <trkpt lat="43.78667" lon="7.23265">
        <ele>340.94</ele>
        <time>2024-01-31T17:29:49Z</time>
      </trkpt>
      <trkpt lat="43.78699" lon="7.23294">
        <ele>346.11</ele>
        <time>2024-01-31T17:30:17Z</time>
      </trkpt>
      <trkpt lat="43.78737" lon="7.23318">
        <ele>347.49</ele>
        <time>2024-01-31T17:30:46Z</time>
      </trkpt>
      <trkpt lat="43.78753" lon="7.23333">
        <ele>345.72</ele>
        <time>2024-01-31T17:30:58Z</time>
      </trkpt>
      <trkpt lat="43.78783" lon="7.23368">
        <ele>349</ele>
        <time>2024-01-31T17:31:19Z</time>
      </trkpt>
      <trkpt lat="43.78813" lon="7.23387">
        <ele>351.93</ele>
        <time>2024-01-31T17:31:36Z</time>
      </trkpt>
      <trkpt lat="43.78835" lon="7.23391">
        <ele>349.75</ele>
        <time>2024-01-31T17:31:47Z</time>
      </trkpt>
      <trkpt lat="43.78842" lon="7.23396">
        <ele>349.21</ele>
        <time>2024-01-31T17:31:51Z</time>
      </trkpt>
      <trkpt lat="43.78857" lon="7.23441">
        <ele>359.51</ele>
        <time>2024-01-31T17:32:08Z</time>
      </trkpt>
      <trkpt lat="43.78908" lon="7.23496">
        <ele>360.46</ele>
        <time>2024-01-31T17:32:38Z</time>
      </trkpt>
      <trkpt lat="43.78926" lon="7.23505">
        <ele>361.53</ele>
        <time>2024-01-31T17:32:47Z</time>
      </trkpt>
      <trkpt lat="43.78947" lon="7.23504">
        <ele>362.67</ele>
        <time>2024-01-31T17:32:57Z</time>
      </trkpt>
      <trkpt lat="43.78953" lon="7.23509">
        <ele>363.13</ele>
        <time>2024-01-31T17:33:01Z</time>
      </trkpt>
      <trkpt lat="43.78964" lon="7.23529">
        <ele>364.05</ele>
        <time>2024-01-31T17:33:11Z</time>
      </trkpt>
      <trkpt lat="43.78971" lon="7.23526">
        <ele>366.3</ele>
        <time>2024-01-31T17:33:16Z</time>
      </trkpt>
      <trkpt lat="43.78973" lon="7.23519">
        <ele>366.4</ele>
        <time>2024-01-31T17:33:19Z</time>
      </trkpt>
      <trkpt lat="43.78976" lon="7.23467">
        <ele>360.32</ele>
        <time>2024-01-31T17:33:43Z</time>
      </trkpt>
      <trkpt lat="43.78985" lon="7.23456">
        <ele>359.18</ele>
        <time>2024-01-31T17:33:50Z</time>
      </trkpt>
      <trkpt lat="43.79018" lon="7.23445">
        <ele>361.85</ele>
        <time>2024-01-31T17:34:12Z</time>
      </trkpt>
      <trkpt lat="43.79025" lon="7.23449">
        <ele>363.24</ele>
        <time>2024-01-31T17:34:17Z</time>
      </trkpt>
      <trkpt lat="43.7904" lon="7.23469">
        <ele>369.34</ele>
        <time>2024-01-31T17:34:32Z</time>
      </trkpt>
      <trkpt lat="43.79046" lon="7.23468">
        <ele>369.13</ele>
        <time>2024-01-31T17:34:37Z</time>
      </trkpt>
      <trkpt lat="43.79062" lon="7.23451">
        <ele>362.73</ele>
        <time>2024-01-31T17:34:51Z</time>
      </trkpt>
      <trkpt lat="43.79068" lon="7.2345">
        <ele>362.61</ele>
        <time>2024-01-31T17:34:54Z</time>
      </trkpt>
      <trkpt lat="43.79077" lon="7.23453">
        <ele>362.57</ele>
        <time>2024-01-31T17:35:02Z</time>
      </trkpt>
      <trkpt lat="43.79092" lon="7.23468">
        <ele>368.29</ele>
        <time>2024-01-31T17:35:14Z</time>
      </trkpt>
      <trkpt lat="43.79099" lon="7.23467">
        <ele>368.95</ele>
        <time>2024-01-31T17:35:18Z</time>
      </trkpt>
      <trkpt lat="43.79104" lon="7.23464">
        <ele>368.34</ele>
        <time>2024-01-31T17:35:23Z</time>
      </trkpt>
      <trkpt lat="43.79109" lon="7.23454">
        <ele>366.01</ele>
        <time>2024-01-31T17:35:30Z</time>
      </trkpt>
      <trkpt lat="43.79115" lon="7.23437">
        <ele>363.51</ele>
        <time>2024-01-31T17:35:38Z</time>
      </trkpt>
      <trkpt lat="43.79117" lon="7.23426">
        <ele>363.17</ele>
        <time>2024-01-31T17:35:41Z</time>
      </trkpt>
      <trkpt lat="43.79133" lon="7.2346">
        <ele>372.97</ele>
        <time>2024-01-31T17:36:18Z</time>
      </trkpt>
      <trkpt lat="43.79137" lon="7.23456">
        <ele>373.28</ele>
        <time>2024-01-31T17:36:24Z</time>
      </trkpt>
      <trkpt lat="43.79135" lon="7.23465">
        <ele>375.11</ele>
        <time>2024-01-31T17:36:33Z</time>
      </trkpt>
      <trkpt lat="43.79142" lon="7.23463">
        <ele>376.33</ele>
        <time>2024-01-31T17:36:41Z</time>
      </trkpt>
      <trkpt lat="43.79142" lon="7.23475">
        <ele>378.32</ele>
        <time>2024-01-31T17:36:51Z</time>
      </trkpt>
      <trkpt lat="43.79129" lon="7.2351">
        <ele>385.66</ele>
        <time>2024-01-31T17:37:26Z</time>
      </trkpt>
      <trkpt lat="43.79122" lon="7.23538">
        <ele>393.19</ele>
        <time>2024-01-31T17:37:53Z</time>
      </trkpt>
      <trkpt lat="43.79109" lon="7.23561">
        <ele>396.82</ele>
        <time>2024-01-31T17:38:19Z</time>
      </trkpt>
      <trkpt lat="43.79099" lon="7.23566">
        <ele>397.41</ele>
        <time>2024-01-31T17:38:32Z</time>
      </trkpt>
      <trkpt lat="43.79093" lon="7.23566">
        <ele>396.37</ele>
        <time>2024-01-31T17:38:39Z</time>
      </trkpt>
      <trkpt lat="43.79098" lon="7.23573">
        <ele>397.53</ele>
        <time>2024-01-31T17:38:48Z</time>
      </trkpt>
      <trkpt lat="43.79137" lon="7.23561">
        <ele>401.22</ele>
        <time>2024-01-31T17:39:11Z</time>
      </trkpt>
      <trkpt lat="43.79148" lon="7.23554">
        <ele>402.95</ele>
        <time>2024-01-31T17:39:17Z</time>
      </trkpt>
      <trkpt lat="43.79177" lon="7.23526">
        <ele>402.99</ele>
        <time>2024-01-31T17:39:32Z</time>
      </trkpt>
      <trkpt lat="43.79205" lon="7.23505">
        <ele>404.74</ele>
        <time>2024-01-31T17:39:45Z</time>
      </trkpt>
      <trkpt lat="43.79229" lon="7.23473">
        <ele>404.7</ele>
        <time>2024-01-31T17:39:57Z</time>
      </trkpt>
      <trkpt lat="43.79249" lon="7.23463">
        <ele>408.19</ele>
        <time>2024-01-31T17:40:07Z</time>
      </trkpt>
      <trkpt lat="43.79256" lon="7.23459">
        <ele>410.15</ele>
        <time>2024-01-31T17:40:11Z</time>
      </trkpt>
      <trkpt lat="43.7927" lon="7.23441">
        <ele>410.3</ele>
        <time>2024-01-31T17:40:18Z</time>
      </trkpt>
      <trkpt lat="43.79298" lon="7.23387">
        <ele>411.97</ele>
        <time>2024-01-31T17:40:40Z</time>
      </trkpt>
      <trkpt lat="43.79312" lon="7.23375">
        <ele>413.44</ele>
        <time>2024-01-31T17:40:45Z</time>
      </trkpt>
      <trkpt lat="43.79344" lon="7.23357">
        <ele>415.69</ele>
        <time>2024-01-31T17:40:59Z</time>
      </trkpt>
      <trkpt lat="43.79365" lon="7.23338">
        <ele>415.69</ele>
        <time>2024-01-31T17:41:09Z</time>
      </trkpt>
      <trkpt lat="43.7937" lon="7.23331">
        <ele>415.6</ele>
        <time>2024-01-31T17:41:11Z</time>
      </trkpt>
      <trkpt lat="43.79371" lon="7.23324">
        <ele>414.51</ele>
        <time>2024-01-31T17:41:13Z</time>
      </trkpt>
      <trkpt lat="43.79396" lon="7.23355">
        <ele>421.64</ele>
        <time>2024-01-31T17:41:28Z</time>
      </trkpt>
      <trkpt lat="43.79362" lon="7.23389">
        <ele>423.74</ele>
        <time>2024-01-31T17:41:51Z</time>
      </trkpt>
      <trkpt lat="43.79343" lon="7.23397">
        <ele>423.08</ele>
        <time>2024-01-31T17:42:02Z</time>
      </trkpt>
      <trkpt lat="43.79325" lon="7.23411">
        <ele>423</ele>
        <time>2024-01-31T17:42:13Z</time>
      </trkpt>
      <trkpt lat="43.79314" lon="7.23429">
        <ele>425.59</ele>
        <time>2024-01-31T17:42:22Z</time>
      </trkpt>
      <trkpt lat="43.79301" lon="7.23459">
        <ele>427.59</ele>
        <time>2024-01-31T17:42:34Z</time>
      </trkpt>
      <trkpt lat="43.7929" lon="7.23497">
        <ele>431.52</ele>
        <time>2024-01-31T17:42:46Z</time>
      </trkpt>
      <trkpt lat="43.79273" lon="7.23518">
        <ele>430.41</ele>
        <time>2024-01-31T17:42:55Z</time>
      </trkpt>
      <trkpt lat="43.79249" lon="7.23554">
        <ele>434.48</ele>
        <time>2024-01-31T17:43:07Z</time>
      </trkpt>
      <trkpt lat="43.79236" lon="7.2356">
        <ele>431.65</ele>
        <time>2024-01-31T17:43:12Z</time>
      </trkpt>
      <trkpt lat="43.79228" lon="7.23573">
        <ele>433.96</ele>
        <time>2024-01-31T17:43:16Z</time>
      </trkpt>
      <trkpt lat="43.79224" lon="7.23592">
        <ele>437.74</ele>
        <time>2024-01-31T17:43:20Z</time>
      </trkpt>
      <trkpt lat="43.79211" lon="7.23618">
        <ele>437.32</ele>
        <time>2024-01-31T17:43:27Z</time>
      </trkpt>
      <trkpt lat="43.79203" lon="7.23623">
        <ele>434.75</ele>
        <time>2024-01-31T17:43:29Z</time>
      </trkpt>
      <trkpt lat="43.79198" lon="7.23624">
        <ele>433.24</ele>
        <time>2024-01-31T17:43:30Z</time>
      </trkpt>
      <trkpt lat="43.79189" lon="7.23641">
        <ele>432.79</ele>
        <time>2024-01-31T17:43:33Z</time>
      </trkpt>
      <trkpt lat="43.79187" lon="7.23651">
        <ele>432.47</ele>
        <time>2024-01-31T17:43:35Z</time>
      </trkpt>
      <trkpt lat="43.79189" lon="7.23689">
        <ele>435.74</ele>
        <time>2024-01-31T17:43:41Z</time>
      </trkpt>
      <trkpt lat="43.79178" lon="7.23718">
        <ele>437.12</ele>
        <time>2024-01-31T17:43:47Z</time>
      </trkpt>
      <trkpt lat="43.79155" lon="7.23745">
        <ele>434.91</ele>
        <time>2024-01-31T17:43:57Z</time>
      </trkpt>
      <trkpt lat="43.79151" lon="7.23756">
        <ele>435.08</ele>
        <time>2024-01-31T17:44:00Z</time>
      </trkpt>
      <trkpt lat="43.79146" lon="7.23776">
        <ele>435.71</ele>
        <time>2024-01-31T17:44:06Z</time>
      </trkpt>
      <trkpt lat="43.79143" lon="7.23831">
        <ele>436.12</ele>
        <time>2024-01-31T17:44:22Z</time>
      </trkpt>
      <trkpt lat="43.79147" lon="7.23843">
        <ele>436.72</ele>
        <time>2024-01-31T17:44:27Z</time>
      </trkpt>
      <trkpt lat="43.79166" lon="7.2388">
        <ele>438.92</ele>
        <time>2024-01-31T17:44:41Z</time>
      </trkpt>
      <trkpt lat="43.79174" lon="7.23903">
        <ele>441.77</ele>
        <time>2024-01-31T17:44:50Z</time>
      </trkpt>
      <trkpt lat="43.79178" lon="7.23907">
        <ele>442.97</ele>
        <time>2024-01-31T17:44:52Z</time>
      </trkpt>
      <trkpt lat="43.79195" lon="7.239">
        <ele>450.2</ele>
        <time>2024-01-31T17:45:03Z</time>
      </trkpt>
      <trkpt lat="43.79197" lon="7.23892">
        <ele>449.01</ele>
        <time>2024-01-31T17:45:06Z</time>
      </trkpt>
      <trkpt lat="43.79196" lon="7.23875">
        <ele>446.97</ele>
        <time>2024-01-31T17:45:13Z</time>
      </trkpt>
      <trkpt lat="43.792" lon="7.23873">
        <ele>449.71</ele>
        <time>2024-01-31T17:45:16Z</time>
      </trkpt>
      <trkpt lat="43.79206" lon="7.2389">
        <ele>454.48</ele>
        <time>2024-01-31T17:45:25Z</time>
      </trkpt>
      <trkpt lat="43.79206" lon="7.23902">
        <ele>458.23</ele>
        <time>2024-01-31T17:45:29Z</time>
      </trkpt>
      <trkpt lat="43.79181" lon="7.23949">
        <ele>455.25</ele>
        <time>2024-01-31T17:45:50Z</time>
      </trkpt>
      <trkpt lat="43.79178" lon="7.23958">
        <ele>453.82</ele>
        <time>2024-01-31T17:45:54Z</time>
      </trkpt>
      <trkpt lat="43.79178" lon="7.23975">
        <ele>455.24</ele>
        <time>2024-01-31T17:46:01Z</time>
      </trkpt>
      <trkpt lat="43.79187" lon="7.24034">
        <ele>460.5</ele>
        <time>2024-01-31T17:46:23Z</time>
      </trkpt>
      <trkpt lat="43.79187" lon="7.24047">
        <ele>461.13</ele>
        <time>2024-01-31T17:46:27Z</time>
      </trkpt>
      <trkpt lat="43.79183" lon="7.24066">
        <ele>461.76</ele>
        <time>2024-01-31T17:46:35Z</time>
      </trkpt>
      <trkpt lat="43.79177" lon="7.24075">
        <ele>462.37</ele>
        <time>2024-01-31T17:46:39Z</time>
      </trkpt>
      <trkpt lat="43.79145" lon="7.24102">
        <ele>461.53</ele>
        <time>2024-01-31T17:46:59Z</time>
      </trkpt>
      <trkpt lat="43.7913" lon="7.24124">
        <ele>462.26</ele>
        <time>2024-01-31T17:47:13Z</time>
      </trkpt>
      <trkpt lat="43.79122" lon="7.24143">
        <ele>461.48</ele>
        <time>2024-01-31T17:47:23Z</time>
      </trkpt>
      <trkpt lat="43.79106" lon="7.24225">
        <ele>465.83</ele>
        <time>2024-01-31T17:48:12Z</time>
      </trkpt>
      <trkpt lat="43.79096" lon="7.24258">
        <ele>468.06</ele>
        <time>2024-01-31T17:48:32Z</time>
      </trkpt>
      <trkpt lat="43.79077" lon="7.24302">
        <ele>469.8</ele>
        <time>2024-01-31T17:49:02Z</time>
      </trkpt>
      <trkpt lat="43.79067" lon="7.24313">
        <ele>471.57</ele>
        <time>2024-01-31T17:49:13Z</time>
      </trkpt>
      <trkpt lat="43.79038" lon="7.24322">
        <ele>469.04</ele>
        <time>2024-01-31T17:49:36Z</time>
      </trkpt>
      <trkpt lat="43.7903" lon="7.24328">
        <ele>469.63</ele>
        <time>2024-01-31T17:49:43Z</time>
      </trkpt>
      <trkpt lat="43.79008" lon="7.24358">
        <ele>474.34</ele>
        <time>2024-01-31T17:50:04Z</time>
      </trkpt>
      <trkpt lat="43.78994" lon="7.24366">
        <ele>476.1</ele>
        <time>2024-01-31T17:50:13Z</time>
      </trkpt>
      <trkpt lat="43.78979" lon="7.24366">
        <ele>476.48</ele>
        <time>2024-01-31T17:50:22Z</time>
      </trkpt>
      <trkpt lat="43.78933" lon="7.24343">
        <ele>476.77</ele>
        <time>2024-01-31T17:50:48Z</time>
      </trkpt>
      <trkpt lat="43.78897" lon="7.24317">
        <ele>476.22</ele>
        <time>2024-01-31T17:51:04Z</time>
      </trkpt>
      <trkpt lat="43.78882" lon="7.24311">
        <ele>475.98</ele>
        <time>2024-01-31T17:51:08Z</time>
      </trkpt>
      <trkpt lat="43.78837" lon="7.243">
        <ele>479</ele>
        <time>2024-01-31T17:51:16Z</time>
      </trkpt>
      <trkpt lat="43.78798" lon="7.24292">
        <ele>481.31</ele>
        <time>2024-01-31T17:51:23Z</time>
      </trkpt>
      <trkpt lat="43.78725" lon="7.24282">
        <ele>482.61</ele>
        <time>2024-01-31T17:51:37Z</time>
      </trkpt>
      <trkpt lat="43.7869" lon="7.24286">
        <ele>484.6</ele>
        <time>2024-01-31T17:51:45Z</time>
      </trkpt>
      <trkpt lat="43.78659" lon="7.24297">
        <ele>488.08</ele>
        <time>2024-01-31T17:51:52Z</time>
      </trkpt>
      <trkpt lat="43.786" lon="7.2433">
        <ele>494.78</ele>
        <time>2024-01-31T17:52:05Z</time>
      </trkpt>
      <trkpt lat="43.78587" lon="7.24335">
        <ele>495.76</ele>
        <time>2024-01-31T17:52:08Z</time>
      </trkpt>
      <trkpt lat="43.78574" lon="7.2433">
        <ele>495.39</ele>
        <time>2024-01-31T17:52:12Z</time>
      </trkpt>
      <trkpt lat="43.7855" lon="7.243">
        <ele>491.39</ele>
        <time>2024-01-31T17:52:22Z</time>
      </trkpt>
      <trkpt lat="43.78543" lon="7.24296">
        <ele>491.01</ele>
        <time>2024-01-31T17:52:25Z</time>
      </trkpt>
      <trkpt lat="43.78535" lon="7.24295">
        <ele>491.34</ele>
        <time>2024-01-31T17:52:26Z</time>
      </trkpt>
      <trkpt lat="43.78523" lon="7.24296">
        <ele>491.13</ele>
        <time>2024-01-31T17:52:29Z</time>
      </trkpt>
      <trkpt lat="43.78447" lon="7.24332">
        <ele>493.67</ele>
        <time>2024-01-31T17:52:43Z</time>
      </trkpt>
      <trkpt lat="43.78444" lon="7.24333">
        <ele>493.71</ele>
        <time>2024-01-31T17:52:43Z</time>
      </trkpt>
      <trkpt lat="43.78428" lon="7.24343">
        <ele>497.12</ele>
        <time>2024-01-31T17:52:46Z</time>
      </trkpt>
      <trkpt lat="43.78426" lon="7.24355">
        <ele>498.26</ele>
        <time>2024-01-31T17:52:47Z</time>
      </trkpt>
      <trkpt lat="43.78429" lon="7.24362">
        <ele>498.99</ele>
        <time>2024-01-31T17:52:48Z</time>
      </trkpt>
      <trkpt lat="43.78436" lon="7.24366">
        <ele>498.16</ele>
        <time>2024-01-31T17:52:49Z</time>
      </trkpt>
      <trkpt lat="43.78458" lon="7.24381">
        <ele>496.73</ele>
        <time>2024-01-31T17:52:53Z</time>
      </trkpt>
      <trkpt lat="43.78468" lon="7.24397">
        <ele>496.58</ele>
        <time>2024-01-31T17:52:55Z</time>
      </trkpt>
      <trkpt lat="43.78472" lon="7.24408">
        <ele>495.66</ele>
        <time>2024-01-31T17:52:57Z</time>
      </trkpt>
      <trkpt lat="43.78478" lon="7.24436">
        <ele>494.68</ele>
        <time>2024-01-31T17:53:00Z</time>
      </trkpt>
      <trkpt lat="43.78481" lon="7.24467">
        <ele>494.25</ele>
        <time>2024-01-31T17:53:04Z</time>
      </trkpt>
      <trkpt lat="43.78487" lon="7.24471">
        <ele>494.86</ele>
        <time>2024-01-31T17:53:05Z</time>
      </trkpt>
      <trkpt lat="43.78489" lon="7.24476">
        <ele>495.13</ele>
        <time>2024-01-31T17:53:06Z</time>
      </trkpt>
      <trkpt lat="43.78489" lon="7.24482">
        <ele>495.37</ele>
        <time>2024-01-31T17:53:07Z</time>
      </trkpt>
      <trkpt lat="43.78468" lon="7.24514">
        <ele>494.65</ele>
        <time>2024-01-31T17:53:12Z</time>
      </trkpt>
      <trkpt lat="43.78462" lon="7.24531">
        <ele>494.39</ele>
        <time>2024-01-31T17:53:13Z</time>
      </trkpt>
      <trkpt lat="43.78449" lon="7.24568">
        <ele>494.69</ele>
        <time>2024-01-31T17:53:18Z</time>
      </trkpt>
      <trkpt lat="43.78446" lon="7.24612">
        <ele>499.5</ele>
        <time>2024-01-31T17:53:25Z</time>
      </trkpt>
      <trkpt lat="43.78439" lon="7.24627">
        <ele>501.46</ele>
        <time>2024-01-31T17:53:28Z</time>
      </trkpt>
      <trkpt lat="43.78412" lon="7.24663">
        <ele>499.83</ele>
        <time>2024-01-31T17:53:39Z</time>
      </trkpt>
      <trkpt lat="43.78402" lon="7.24688">
        <ele>502.99</ele>
        <time>2024-01-31T17:53:47Z</time>
      </trkpt>
      <trkpt lat="43.7839" lon="7.24731">
        <ele>506.19</ele>
        <time>2024-01-31T17:54:01Z</time>
      </trkpt>
      <trkpt lat="43.78367" lon="7.24842">
        <ele>511.87</ele>
        <time>2024-01-31T17:54:42Z</time>
      </trkpt>
      <trkpt lat="43.78354" lon="7.24961">
        <ele>516.48</ele>
        <time>2024-01-31T17:55:27Z</time>
      </trkpt>
      <trkpt lat="43.78333" lon="7.25039">
        <ele>521.28</ele>
        <time>2024-01-31T17:55:55Z</time>
      </trkpt>
      <trkpt lat="43.78324" lon="7.25061">
        <ele>522.16</ele>
        <time>2024-01-31T17:56:03Z</time>
      </trkpt>
      <trkpt lat="43.78206" lon="7.25259">
        <ele>533.13</ele>
        <time>2024-01-31T17:56:35Z</time>
      </trkpt>
      <trkpt lat="43.78201" lon="7.25273">
        <ele>532.55</ele>
        <time>2024-01-31T17:56:36Z</time>
      </trkpt>
      <trkpt lat="43.78199" lon="7.25287">
        <ele>532.79</ele>
        <time>2024-01-31T17:56:37Z</time>
      </trkpt>
      <trkpt lat="43.782" lon="7.25309">
        <ele>532.62</ele>
        <time>2024-01-31T17:56:39Z</time>
      </trkpt>
      <trkpt lat="43.78205" lon="7.25338">
        <ele>532.29</ele>
        <time>2024-01-31T17:56:42Z</time>
      </trkpt>
      <trkpt lat="43.78203" lon="7.2534">
        <ele>531.79</ele>
        <time>2024-01-31T17:56:43Z</time>
      </trkpt>
      <trkpt lat="43.78209" lon="7.25376">
        <ele>526.78</ele>
        <time>2024-01-31T17:56:58Z</time>
      </trkpt>
      <trkpt lat="43.78217" lon="7.25397">
        <ele>523.52</ele>
        <time>2024-01-31T17:57:07Z</time>
      </trkpt>
      <trkpt lat="43.7822" lon="7.25417">
        <ele>517.68</ele>
        <time>2024-01-31T17:57:16Z</time>
      </trkpt>
      <trkpt lat="43.78229" lon="7.25441">
        <ele>509.92</ele>
        <time>2024-01-31T17:57:26Z</time>
      </trkpt>
      <trkpt lat="43.78229" lon="7.25444">
        <ele>507.96</ele>
        <time>2024-01-31T17:57:27Z</time>
      </trkpt>
      <trkpt lat="43.78214" lon="7.25451">
        <ele>505.04</ele>
        <time>2024-01-31T17:57:36Z</time>
      </trkpt>
      <trkpt lat="43.7821" lon="7.25456">
        <ele>503.75</ele>
        <time>2024-01-31T17:57:39Z</time>
      </trkpt>
      <trkpt lat="43.78213" lon="7.25458">
        <ele>503.46</ele>
        <time>2024-01-31T17:57:41Z</time>
      </trkpt>
      <trkpt lat="43.78214" lon="7.25463">
        <ele>500.13</ele>
        <time>2024-01-31T17:57:43Z</time>
      </trkpt>
      <trkpt lat="43.78195" lon="7.25479">
        <ele>498.38</ele>
        <time>2024-01-31T17:57:48Z</time>
      </trkpt>
      <trkpt lat="43.78186" lon="7.25491">
        <ele>497.33</ele>
        <time>2024-01-31T17:57:51Z</time>
      </trkpt>
      <trkpt lat="43.78172" lon="7.2552">
        <ele>497.47</ele>
        <time>2024-01-31T17:57:57Z</time>
      </trkpt>
      <trkpt lat="43.78163" lon="7.25544">
        <ele>495.13</ele>
        <time>2024-01-31T17:58:02Z</time>
      </trkpt>
      <trkpt lat="43.78159" lon="7.25564">
        <ele>493.58</ele>
        <time>2024-01-31T17:58:06Z</time>
      </trkpt>
      <trkpt lat="43.78157" lon="7.25579">
        <ele>491.08</ele>
        <time>2024-01-31T17:58:09Z</time>
      </trkpt>
      <trkpt lat="43.78174" lon="7.25637">
        <ele>485.46</ele>
        <time>2024-01-31T17:58:21Z</time>
      </trkpt>
      <trkpt lat="43.78178" lon="7.25663">
        <ele>484.75</ele>
        <time>2024-01-31T17:58:26Z</time>
      </trkpt>
      <trkpt lat="43.78179" lon="7.25694">
        <ele>486.43</ele>
        <time>2024-01-31T17:58:31Z</time>
      </trkpt>
      <trkpt lat="43.78183" lon="7.2571">
        <ele>485.73</ele>
        <time>2024-01-31T17:58:34Z</time>
      </trkpt>
      <trkpt lat="43.78192" lon="7.25723">
        <ele>484.1</ele>
        <time>2024-01-31T17:58:37Z</time>
      </trkpt>
      <trkpt lat="43.78217" lon="7.25784">
        <ele>483.98</ele>
        <time>2024-01-31T17:58:49Z</time>
      </trkpt>
      <trkpt lat="43.78251" lon="7.25853">
        <ele>480.42</ele>
        <time>2024-01-31T17:59:02Z</time>
      </trkpt>
      <trkpt lat="43.78253" lon="7.25871">
        <ele>480.65</ele>
        <time>2024-01-31T17:59:04Z</time>
      </trkpt>
      <trkpt lat="43.78251" lon="7.2589">
        <ele>479.36</ele>
        <time>2024-01-31T17:59:07Z</time>
      </trkpt>
      <trkpt lat="43.78244" lon="7.25914">
        <ele>479.08</ele>
        <time>2024-01-31T17:59:11Z</time>
      </trkpt>
      <trkpt lat="43.7823" lon="7.2594">
        <ele>479.4</ele>
        <time>2024-01-31T17:59:15Z</time>
      </trkpt>
      <trkpt lat="43.78225" lon="7.25959">
        <ele>478.58</ele>
        <time>2024-01-31T17:59:18Z</time>
      </trkpt>
      <trkpt lat="43.78227" lon="7.25978">
        <ele>476.24</ele>
        <time>2024-01-31T17:59:21Z</time>
      </trkpt>
      <trkpt lat="43.78271" lon="7.26061">
        <ele>459.91</ele>
        <time>2024-01-31T17:59:36Z</time>
      </trkpt>
      <trkpt lat="43.78282" lon="7.26089">
        <ele>458.12</ele>
        <time>2024-01-31T17:59:40Z</time>
      </trkpt>
      <trkpt lat="43.78287" lon="7.26117">
        <ele>457.45</ele>
        <time>2024-01-31T17:59:45Z</time>
      </trkpt>
      <trkpt lat="43.78287" lon="7.26144">
        <ele>456.67</ele>
        <time>2024-01-31T17:59:49Z</time>
      </trkpt>
      <trkpt lat="43.78271" lon="7.26216">
        <ele>450.82</ele>
        <time>2024-01-31T18:00:00Z</time>
      </trkpt>
      <trkpt lat="43.78261" lon="7.2629">
        <ele>444.83</ele>
        <time>2024-01-31T18:00:12Z</time>
      </trkpt>
      <trkpt lat="43.78217" lon="7.26505">
        <ele>445.11</ele>
        <time>2024-01-31T18:00:49Z</time>
      </trkpt>
      <trkpt lat="43.78213" lon="7.26538">
        <ele>444.93</ele>
        <time>2024-01-31T18:00:54Z</time>
      </trkpt>
      <trkpt lat="43.78214" lon="7.26693">
        <ele>438.84</ele>
        <time>2024-01-31T18:01:18Z</time>
      </trkpt>
      <trkpt lat="43.78216" lon="7.26749">
        <ele>431.19</ele>
        <time>2024-01-31T18:01:26Z</time>
      </trkpt>
      <trkpt lat="43.78214" lon="7.2678">
        <ele>429.16</ele>
        <time>2024-01-31T18:01:30Z</time>
      </trkpt>
      <trkpt lat="43.78203" lon="7.26809">
        <ele>426.53</ele>
        <time>2024-01-31T18:01:35Z</time>
      </trkpt>
      <trkpt lat="43.78192" lon="7.2683">
        <ele>424.8</ele>
        <time>2024-01-31T18:01:39Z</time>
      </trkpt>
      <trkpt lat="43.7816" lon="7.26848">
        <ele>424.58</ele>
        <time>2024-01-31T18:01:47Z</time>
      </trkpt>
      <trkpt lat="43.78132" lon="7.26871">
        <ele>420.62</ele>
        <time>2024-01-31T18:01:55Z</time>
      </trkpt>
      <trkpt lat="43.78105" lon="7.26888">
        <ele>419.12</ele>
        <time>2024-01-31T18:02:02Z</time>
      </trkpt>
      <trkpt lat="43.78078" lon="7.26895">
        <ele>420.55</ele>
        <time>2024-01-31T18:02:08Z</time>
      </trkpt>
      <trkpt lat="43.78044" lon="7.269">
        <ele>422.58</ele>
        <time>2024-01-31T18:02:17Z</time>
      </trkpt>
      <trkpt lat="43.7802" lon="7.2691">
        <ele>423.93</ele>
        <time>2024-01-31T18:02:23Z</time>
      </trkpt>
      <trkpt lat="43.78003" lon="7.26925">
        <ele>425.37</ele>
        <time>2024-01-31T18:02:28Z</time>
      </trkpt>
      <trkpt lat="43.77988" lon="7.26945">
        <ele>425.97</ele>
        <time>2024-01-31T18:02:33Z</time>
      </trkpt>
      <trkpt lat="43.77982" lon="7.26966">
        <ele>426.12</ele>
        <time>2024-01-31T18:02:37Z</time>
      </trkpt>
      <trkpt lat="43.77975" lon="7.2702">
        <ele>425.24</ele>
        <time>2024-01-31T18:02:47Z</time>
      </trkpt>
      <trkpt lat="43.77976" lon="7.27042">
        <ele>425.36</ele>
        <time>2024-01-31T18:02:50Z</time>
      </trkpt>
      <trkpt lat="43.7799" lon="7.2709">
        <ele>422.87</ele>
        <time>2024-01-31T18:02:58Z</time>
      </trkpt>
      <trkpt lat="43.78002" lon="7.2711">
        <ele>421.01</ele>
        <time>2024-01-31T18:03:02Z</time>
      </trkpt>
      <trkpt lat="43.78028" lon="7.27125">
        <ele>417.51</ele>
        <time>2024-01-31T18:03:07Z</time>
      </trkpt>
      <trkpt lat="43.78068" lon="7.27133">
        <ele>412.38</ele>
        <time>2024-01-31T18:03:15Z</time>
      </trkpt>
      <trkpt lat="43.78077" lon="7.27144">
        <ele>410.99</ele>
        <time>2024-01-31T18:03:18Z</time>
      </trkpt>
      <trkpt lat="43.78081" lon="7.27166">
        <ele>409.25</ele>
        <time>2024-01-31T18:03:21Z</time>
      </trkpt>
      <trkpt lat="43.78079" lon="7.27184">
        <ele>406.79</ele>
        <time>2024-01-31T18:03:23Z</time>
      </trkpt>
      <trkpt lat="43.78057" lon="7.27211">
        <ele>405.39</ele>
        <time>2024-01-31T18:03:29Z</time>
      </trkpt>
      <trkpt lat="43.78014" lon="7.27256">
        <ele>402.31</ele>
        <time>2024-01-31T18:03:40Z</time>
      </trkpt>
      <trkpt lat="43.77986" lon="7.27267">
        <ele>396.78</ele>
        <time>2024-01-31T18:03:45Z</time>
      </trkpt>
      <trkpt lat="43.7796" lon="7.2726">
        <ele>394.39</ele>
        <time>2024-01-31T18:03:51Z</time>
      </trkpt>
      <trkpt lat="43.77956" lon="7.27259">
        <ele>393.15</ele>
        <time>2024-01-31T18:03:52Z</time>
      </trkpt>
      <trkpt lat="43.77928" lon="7.27229">
        <ele>391.34</ele>
        <time>2024-01-31T18:03:59Z</time>
      </trkpt>
      <trkpt lat="43.77912" lon="7.27219">
        <ele>387.07</ele>
        <time>2024-01-31T18:04:03Z</time>
      </trkpt>
      <trkpt lat="43.77893" lon="7.27207">
        <ele>385.14</ele>
        <time>2024-01-31T18:04:08Z</time>
      </trkpt>
      <trkpt lat="43.77865" lon="7.27203">
        <ele>382.98</ele>
        <time>2024-01-31T18:04:15Z</time>
      </trkpt>
      <trkpt lat="43.77822" lon="7.27214">
        <ele>381.28</ele>
        <time>2024-01-31T18:04:31Z</time>
      </trkpt>
      <trkpt lat="43.77763" lon="7.27237">
        <ele>384.47</ele>
        <time>2024-01-31T18:04:57Z</time>
      </trkpt>
      <trkpt lat="43.77744" lon="7.27251">
        <ele>383.16</ele>
        <time>2024-01-31T18:05:06Z</time>
      </trkpt>
      <trkpt lat="43.77735" lon="7.27263">
        <ele>380.27</ele>
        <time>2024-01-31T18:05:11Z</time>
      </trkpt>
      <trkpt lat="43.77685" lon="7.27286">
        <ele>378.48</ele>
        <time>2024-01-31T18:05:33Z</time>
      </trkpt>
      <trkpt lat="43.77656" lon="7.2728">
        <ele>381.59</ele>
        <time>2024-01-31T18:05:45Z</time>
      </trkpt>
      <trkpt lat="43.77601" lon="7.27279">
        <ele>385.03</ele>
        <time>2024-01-31T18:06:11Z</time>
      </trkpt>
      <trkpt lat="43.77555" lon="7.27271">
        <ele>391.79</ele>
        <time>2024-01-31T18:06:40Z</time>
      </trkpt>
      <trkpt lat="43.77516" lon="7.27276">
        <ele>395.28</ele>
        <time>2024-01-31T18:07:09Z</time>
      </trkpt>
      <trkpt lat="43.77447" lon="7.27262">
        <ele>403.19</ele>
        <time>2024-01-31T18:08:01Z</time>
      </trkpt>
      <trkpt lat="43.77413" lon="7.27252">
        <ele>409.57</ele>
        <time>2024-01-31T18:08:22Z</time>
      </trkpt>
      <trkpt lat="43.774" lon="7.27257">
        <ele>400.14</ele>
        <time>2024-01-31T18:08:29Z</time>
      </trkpt>
      <trkpt lat="43.77366" lon="7.27253">
        <ele>401.58</ele>
        <time>2024-01-31T18:08:44Z</time>
      </trkpt>
      <trkpt lat="43.77352" lon="7.27258">
        <ele>401.69</ele>
        <time>2024-01-31T18:08:49Z</time>
      </trkpt>
      <trkpt lat="43.77333" lon="7.27275">
        <ele>401.65</ele>
        <time>2024-01-31T18:08:55Z</time>
      </trkpt>
      <trkpt lat="43.77325" lon="7.27291">
        <ele>400.44</ele>
        <time>2024-01-31T18:08:59Z</time>
      </trkpt>
      <trkpt lat="43.77322" lon="7.27309">
        <ele>399.16</ele>
        <time>2024-01-31T18:09:02Z</time>
      </trkpt>
      <trkpt lat="43.77327" lon="7.27354">
        <ele>390.8</ele>
        <time>2024-01-31T18:09:09Z</time>
      </trkpt>
      <trkpt lat="43.77327" lon="7.27395">
        <ele>388.64</ele>
        <time>2024-01-31T18:09:15Z</time>
      </trkpt>
      <trkpt lat="43.77329" lon="7.27416">
        <ele>388.49</ele>
        <time>2024-01-31T18:09:18Z</time>
      </trkpt>
      <trkpt lat="43.77337" lon="7.2744">
        <ele>384.84</ele>
        <time>2024-01-31T18:09:22Z</time>
      </trkpt>
      <trkpt lat="43.77341" lon="7.27453">
        <ele>382.76</ele>
        <time>2024-01-31T18:09:24Z</time>
      </trkpt>
      <trkpt lat="43.77341" lon="7.27467">
        <ele>381.56</ele>
        <time>2024-01-31T18:09:26Z</time>
      </trkpt>
      <trkpt lat="43.77334" lon="7.27488">
        <ele>382.52</ele>
        <time>2024-01-31T18:09:29Z</time>
      </trkpt>
      <trkpt lat="43.77282" lon="7.27579">
        <ele>373.97</ele>
        <time>2024-01-31T18:09:45Z</time>
      </trkpt>
      <trkpt lat="43.77235" lon="7.27619">
        <ele>366.9</ele>
        <time>2024-01-31T18:09:55Z</time>
      </trkpt>
      <trkpt lat="43.77203" lon="7.27629">
        <ele>363.41</ele>
        <time>2024-01-31T18:10:01Z</time>
      </trkpt>
      <trkpt lat="43.77156" lon="7.27639">
        <ele>355.73</ele>
        <time>2024-01-31T18:10:10Z</time>
      </trkpt>
      <trkpt lat="43.771" lon="7.2764">
        <ele>351.22</ele>
        <time>2024-01-31T18:10:21Z</time>
      </trkpt>
      <trkpt lat="43.77054" lon="7.27644">
        <ele>344.52</ele>
        <time>2024-01-31T18:10:31Z</time>
      </trkpt>
      <trkpt lat="43.77047" lon="7.27651">
        <ele>342.63</ele>
        <time>2024-01-31T18:10:33Z</time>
      </trkpt>
      <trkpt lat="43.77044" lon="7.27662">
        <ele>340.97</ele>
        <time>2024-01-31T18:10:35Z</time>
      </trkpt>
      <trkpt lat="43.77035" lon="7.27682">
        <ele>336.73</ele>
        <time>2024-01-31T18:10:38Z</time>
      </trkpt>
      <trkpt lat="43.77025" lon="7.27688">
        <ele>335.79</ele>
        <time>2024-01-31T18:10:41Z</time>
      </trkpt>
      <trkpt lat="43.77008" lon="7.27686">
        <ele>334.21</ele>
        <time>2024-01-31T18:10:44Z</time>
      </trkpt>
      <trkpt lat="43.76993" lon="7.27676">
        <ele>334.74</ele>
        <time>2024-01-31T18:10:48Z</time>
      </trkpt>
      <trkpt lat="43.76976" lon="7.27648">
        <ele>335.52</ele>
        <time>2024-01-31T18:10:53Z</time>
      </trkpt>
      <trkpt lat="43.76961" lon="7.27638">
        <ele>334.05</ele>
        <time>2024-01-31T18:10:57Z</time>
      </trkpt>
      <trkpt lat="43.76943" lon="7.27639">
        <ele>331.71</ele>
        <time>2024-01-31T18:11:01Z</time>
      </trkpt>
      <trkpt lat="43.76931" lon="7.27644">
        <ele>328.71</ele>
        <time>2024-01-31T18:11:03Z</time>
      </trkpt>
      <trkpt lat="43.76898" lon="7.27643">
        <ele>327.29</ele>
        <time>2024-01-31T18:11:10Z</time>
      </trkpt>
      <trkpt lat="43.76868" lon="7.27668">
        <ele>320.42</ele>
        <time>2024-01-31T18:11:18Z</time>
      </trkpt>
      <trkpt lat="43.76843" lon="7.27681">
        <ele>318.62</ele>
        <time>2024-01-31T18:11:24Z</time>
      </trkpt>
      <trkpt lat="43.76767" lon="7.27685">
        <ele>309.72</ele>
        <time>2024-01-31T18:11:42Z</time>
      </trkpt>
      <trkpt lat="43.76754" lon="7.27689">
        <ele>308.38</ele>
        <time>2024-01-31T18:11:45Z</time>
      </trkpt>
      <trkpt lat="43.7674" lon="7.27703">
        <ele>305.63</ele>
        <time>2024-01-31T18:11:49Z</time>
      </trkpt>
      <trkpt lat="43.7666" lon="7.27736">
        <ele>296.77</ele>
        <time>2024-01-31T18:12:08Z</time>
      </trkpt>
      <trkpt lat="43.76605" lon="7.27743">
        <ele>296.92</ele>
        <time>2024-01-31T18:12:20Z</time>
      </trkpt>
      <trkpt lat="43.76585" lon="7.27756">
        <ele>292.91</ele>
        <time>2024-01-31T18:12:24Z</time>
      </trkpt>
      <trkpt lat="43.76576" lon="7.27774">
        <ele>285.89</ele>
        <time>2024-01-31T18:12:28Z</time>
      </trkpt>
      <trkpt lat="43.76561" lon="7.27813">
        <ele>275.33</ele>
        <time>2024-01-31T18:12:34Z</time>
      </trkpt>
      <trkpt lat="43.76536" lon="7.27833">
        <ele>275.44</ele>
        <time>2024-01-31T18:12:40Z</time>
      </trkpt>
      <trkpt lat="43.76495" lon="7.27892">
        <ele>260.14</ele>
        <time>2024-01-31T18:12:51Z</time>
      </trkpt>
      <trkpt lat="43.76479" lon="7.27904">
        <ele>263.08</ele>
        <time>2024-01-31T18:12:54Z</time>
      </trkpt>
      <trkpt lat="43.76477" lon="7.27909">
        <ele>261.4</ele>
        <time>2024-01-31T18:12:55Z</time>
      </trkpt>
      <trkpt lat="43.76479" lon="7.27913">
        <ele>258.12</ele>
        <time>2024-01-31T18:12:56Z</time>
      </trkpt>
      <trkpt lat="43.76483" lon="7.27914">
        <ele>256.69</ele>
        <time>2024-01-31T18:12:57Z</time>
      </trkpt>
      <trkpt lat="43.76533" lon="7.27897">
        <ele>250.38</ele>
        <time>2024-01-31T18:13:06Z</time>
      </trkpt>
      <trkpt lat="43.76538" lon="7.27902">
        <ele>248.49</ele>
        <time>2024-01-31T18:13:07Z</time>
      </trkpt>
      <trkpt lat="43.76536" lon="7.2791">
        <ele>246.53</ele>
        <time>2024-01-31T18:13:09Z</time>
      </trkpt>
      <trkpt lat="43.76508" lon="7.2794">
        <ele>242.16</ele>
        <time>2024-01-31T18:13:15Z</time>
      </trkpt>
      <trkpt lat="43.76444" lon="7.27987">
        <ele>239.31</ele>
        <time>2024-01-31T18:13:29Z</time>
      </trkpt>
      <trkpt lat="43.76428" lon="7.28017">
        <ele>234.48</ele>
        <time>2024-01-31T18:13:34Z</time>
      </trkpt>
      <trkpt lat="43.76398" lon="7.28032">
        <ele>234.99</ele>
        <time>2024-01-31T18:13:40Z</time>
      </trkpt>
      <trkpt lat="43.76389" lon="7.28046">
        <ele>233.12</ele>
        <time>2024-01-31T18:13:43Z</time>
      </trkpt>
      <trkpt lat="43.76382" lon="7.28075">
        <ele>230.79</ele>
        <time>2024-01-31T18:13:48Z</time>
      </trkpt>
      <trkpt lat="43.76373" lon="7.28088">
        <ele>229.04</ele>
        <time>2024-01-31T18:13:50Z</time>
      </trkpt>
      <trkpt lat="43.7636" lon="7.28091">
        <ele>226.71</ele>
        <time>2024-01-31T18:13:53Z</time>
      </trkpt>
      <trkpt lat="43.76322" lon="7.28083">
        <ele>221.11</ele>
        <time>2024-01-31T18:14:02Z</time>
      </trkpt>
      <trkpt lat="43.76312" lon="7.28076">
        <ele>220.51</ele>
        <time>2024-01-31T18:14:05Z</time>
      </trkpt>
      <trkpt lat="43.76288" lon="7.28049">
        <ele>220.16</ele>
        <time>2024-01-31T18:14:13Z</time>
      </trkpt>
      <trkpt lat="43.76245" lon="7.28033">
        <ele>202.91</ele>
        <time>2024-01-31T18:14:26Z</time>
      </trkpt>
      <trkpt lat="43.76208" lon="7.28001">
        <ele>201.28</ele>
        <time>2024-01-31T18:14:39Z</time>
      </trkpt>
      <trkpt lat="43.76197" lon="7.27996">
        <ele>201.35</ele>
        <time>2024-01-31T18:14:43Z</time>
      </trkpt>
      <trkpt lat="43.76171" lon="7.27939">
        <ele>200.04</ele>
        <time>2024-01-31T18:14:50Z</time>
      </trkpt>
      <trkpt lat="43.76051" lon="7.27766">
        <ele>189.92</ele>
        <time>2024-01-31T18:15:10Z</time>
      </trkpt>
      <trkpt lat="43.76044" lon="7.2775">
        <ele>193.56</ele>
        <time>2024-01-31T18:15:12Z</time>
      </trkpt>
      <trkpt lat="43.76036" lon="7.27718">
        <ele>195.29</ele>
        <time>2024-01-31T18:15:15Z</time>
      </trkpt>
      <trkpt lat="43.7603" lon="7.27711">
        <ele>195.23</ele>
        <time>2024-01-31T18:15:16Z</time>
      </trkpt>
      <trkpt lat="43.76013" lon="7.27703">
        <ele>196.7</ele>
        <time>2024-01-31T18:15:18Z</time>
      </trkpt>
      <trkpt lat="43.75996" lon="7.27706">
        <ele>192.81</ele>
        <time>2024-01-31T18:15:19Z</time>
      </trkpt>
      <trkpt lat="43.75987" lon="7.27712">
        <ele>188.38</ele>
        <time>2024-01-31T18:15:21Z</time>
      </trkpt>
      <trkpt lat="43.75938" lon="7.2776">
        <ele>178.16</ele>
        <time>2024-01-31T18:15:28Z</time>
      </trkpt>
      <trkpt lat="43.75907" lon="7.27783">
        <ele>177.01</ele>
        <time>2024-01-31T18:15:32Z</time>
      </trkpt>
      <trkpt lat="43.75834" lon="7.27818">
        <ele>183.35</ele>
        <time>2024-01-31T18:15:46Z</time>
      </trkpt>
      <trkpt lat="43.75803" lon="7.27855">
        <ele>176.27</ele>
        <time>2024-01-31T18:15:56Z</time>
      </trkpt>
      <trkpt lat="43.75792" lon="7.27853">
        <ele>175.2</ele>
        <time>2024-01-31T18:15:59Z</time>
      </trkpt>
      <trkpt lat="43.75787" lon="7.27848">
        <ele>174.63</ele>
        <time>2024-01-31T18:16:01Z</time>
      </trkpt>
      <trkpt lat="43.75773" lon="7.27815">
        <ele>171.98</ele>
        <time>2024-01-31T18:16:07Z</time>
      </trkpt>
      <trkpt lat="43.75761" lon="7.27799">
        <ele>171.88</ele>
        <time>2024-01-31T18:16:10Z</time>
      </trkpt>
      <trkpt lat="43.75748" lon="7.27794">
        <ele>170.87</ele>
        <time>2024-01-31T18:16:12Z</time>
      </trkpt>
      <trkpt lat="43.75731" lon="7.27799">
        <ele>169.35</ele>
        <time>2024-01-31T18:16:15Z</time>
      </trkpt>
      <trkpt lat="43.75711" lon="7.27815">
        <ele>168.28</ele>
        <time>2024-01-31T18:16:18Z</time>
      </trkpt>
      <trkpt lat="43.75678" lon="7.2785">
        <ele>166.6</ele>
        <time>2024-01-31T18:16:24Z</time>
      </trkpt>
      <trkpt lat="43.75604" lon="7.27967">
        <ele>157.93</ele>
        <time>2024-01-31T18:16:38Z</time>
      </trkpt>
      <trkpt lat="43.75596" lon="7.27973">
        <ele>156.59</ele>
        <time>2024-01-31T18:16:39Z</time>
      </trkpt>
      <trkpt lat="43.75577" lon="7.27972">
        <ele>158.17</ele>
        <time>2024-01-31T18:16:41Z</time>
      </trkpt>
      <trkpt lat="43.75559" lon="7.27976">
        <ele>155.12</ele>
        <time>2024-01-31T18:16:43Z</time>
      </trkpt>
      <trkpt lat="43.75494" lon="7.28013">
        <ele>149.96</ele>
        <time>2024-01-31T18:16:51Z</time>
      </trkpt>
      <trkpt lat="43.75486" lon="7.28013">
        <ele>149.5</ele>
        <time>2024-01-31T18:16:52Z</time>
      </trkpt>
      <trkpt lat="43.75476" lon="7.28">
        <ele>148.29</ele>
        <time>2024-01-31T18:16:53Z</time>
      </trkpt>
      <trkpt lat="43.75464" lon="7.27953">
        <ele>146.85</ele>
        <time>2024-01-31T18:16:57Z</time>
      </trkpt>
      <trkpt lat="43.75456" lon="7.27878">
        <ele>142.69</ele>
        <time>2024-01-31T18:17:04Z</time>
      </trkpt>
      <trkpt lat="43.7545" lon="7.27854">
        <ele>141.8</ele>
        <time>2024-01-31T18:17:06Z</time>
      </trkpt>
      <trkpt lat="43.75433" lon="7.27824">
        <ele>140.11</ele>
        <time>2024-01-31T18:17:09Z</time>
      </trkpt>
      <trkpt lat="43.75386" lon="7.27766">
        <ele>138.37</ele>
        <time>2024-01-31T18:17:17Z</time>
      </trkpt>
      <trkpt lat="43.75363" lon="7.27745">
        <ele>131.97</ele>
        <time>2024-01-31T18:17:21Z</time>
      </trkpt>
      <trkpt lat="43.75325" lon="7.27712">
        <ele>132.94</ele>
        <time>2024-01-31T18:17:30Z</time>
      </trkpt>
      <trkpt lat="43.75319" lon="7.27708">
        <ele>133.02</ele>
        <time>2024-01-31T18:17:32Z</time>
      </trkpt>
      <trkpt lat="43.753" lon="7.27695">
        <ele>132.07</ele>
        <time>2024-01-31T18:17:38Z</time>
      </trkpt>
      <trkpt lat="43.75289" lon="7.27694">
        <ele>131.5</ele>
        <time>2024-01-31T18:17:42Z</time>
      </trkpt>
      <trkpt lat="43.75274" lon="7.27696">
        <ele>130.11</ele>
        <time>2024-01-31T18:17:47Z</time>
      </trkpt>
      <trkpt lat="43.75261" lon="7.27703">
        <ele>129.31</ele>
        <time>2024-01-31T18:17:52Z</time>
      </trkpt>
      <trkpt lat="43.75197" lon="7.27772">
        <ele>125.25</ele>
        <time>2024-01-31T18:18:28Z</time>
      </trkpt>
      <trkpt lat="43.75186" lon="7.27792">
        <ele>124.54</ele>
        <time>2024-01-31T18:18:39Z</time>
      </trkpt>
      <trkpt lat="43.75186" lon="7.27823">
        <ele>123.35</ele>
        <time>2024-01-31T18:18:54Z</time>
      </trkpt>
      <trkpt lat="43.75201" lon="7.27856">
        <ele>121.66</ele>
        <time>2024-01-31T18:19:13Z</time>
      </trkpt>
      <trkpt lat="43.75206" lon="7.27874">
        <ele>120.79</ele>
        <time>2024-01-31T18:19:22Z</time>
      </trkpt>
      <trkpt lat="43.75204" lon="7.27896">
        <ele>120.31</ele>
        <time>2024-01-31T18:19:27Z</time>
      </trkpt>
      <trkpt lat="43.75173" lon="7.28005">
        <ele>117.18</ele>
        <time>2024-01-31T18:19:37Z</time>
      </trkpt>
      <trkpt lat="43.75169" lon="7.28013">
        <ele>116.88</ele>
        <time>2024-01-31T18:19:38Z</time>
      </trkpt>
      <trkpt lat="43.75145" lon="7.28036">
        <ele>114.17</ele>
        <time>2024-01-31T18:19:41Z</time>
      </trkpt>
      <trkpt lat="43.75141" lon="7.28047">
        <ele>113.98</ele>
        <time>2024-01-31T18:19:42Z</time>
      </trkpt>
      <trkpt lat="43.75135" lon="7.28131">
        <ele>112.04</ele>
        <time>2024-01-31T18:19:49Z</time>
      </trkpt>
      <trkpt lat="43.75124" lon="7.28183">
        <ele>110.08</ele>
        <time>2024-01-31T18:19:53Z</time>
      </trkpt>
      <trkpt lat="43.75129" lon="7.28249">
        <ele>107.84</ele>
        <time>2024-01-31T18:19:58Z</time>
      </trkpt>
      <trkpt lat="43.75116" lon="7.28306">
        <ele>106.81</ele>
        <time>2024-01-31T18:20:02Z</time>
      </trkpt>
      <trkpt lat="43.75109" lon="7.28323">
        <ele>106.39</ele>
        <time>2024-01-31T18:20:03Z</time>
      </trkpt>
      <trkpt lat="43.75092" lon="7.28349">
        <ele>100.76</ele>
        <time>2024-01-31T18:20:06Z</time>
      </trkpt>
      <trkpt lat="43.75067" lon="7.28364">
        <ele>105.05</ele>
        <time>2024-01-31T18:20:09Z</time>
      </trkpt>
      <trkpt lat="43.75038" lon="7.28377">
        <ele>104.15</ele>
        <time>2024-01-31T18:20:13Z</time>
      </trkpt>
      <trkpt lat="43.74996" lon="7.28393">
        <ele>102.05</ele>
        <time>2024-01-31T18:20:19Z</time>
      </trkpt>
      <trkpt lat="43.74981" lon="7.284">
        <ele>101.02</ele>
        <time>2024-01-31T18:20:21Z</time>
      </trkpt>
      <trkpt lat="43.74954" lon="7.28419">
        <ele>99.19</ele>
        <time>2024-01-31T18:20:25Z</time>
      </trkpt>
      <trkpt lat="43.74908" lon="7.28479">
        <ele>95.59</ele>
        <time>2024-01-31T18:20:33Z</time>
      </trkpt>
      <trkpt lat="43.74872" lon="7.28557">
        <ele>91.89</ele>
        <time>2024-01-31T18:20:41Z</time>
      </trkpt>
      <trkpt lat="43.74859" lon="7.28573">
        <ele>90.81</ele>
        <time>2024-01-31T18:20:43Z</time>
      </trkpt>
      <trkpt lat="43.74784" lon="7.28631">
        <ele>85.81</ele>
        <time>2024-01-31T18:20:54Z</time>
      </trkpt>
      <trkpt lat="43.74684" lon="7.28696">
        <ele>79.93</ele>
        <time>2024-01-31T18:21:08Z</time>
      </trkpt>
      <trkpt lat="43.74681" lon="7.28689">
        <ele>80.11</ele>
        <time>2024-01-31T18:21:09Z</time>
      </trkpt>
      <trkpt lat="43.74675" lon="7.28684">
        <ele>80.18</ele>
        <time>2024-01-31T18:21:10Z</time>
      </trkpt>
      <trkpt lat="43.74667" lon="7.28683">
        <ele>80.08</ele>
        <time>2024-01-31T18:21:11Z</time>
      </trkpt>
      <trkpt lat="43.74659" lon="7.28694">
        <ele>79.64</ele>
        <time>2024-01-31T18:21:12Z</time>
      </trkpt>
      <trkpt lat="43.74658" lon="7.28706">
        <ele>79.08</ele>
        <time>2024-01-31T18:21:14Z</time>
      </trkpt>
      <trkpt lat="43.74663" lon="7.28715">
        <ele>78.68</ele>
        <time>2024-01-31T18:21:15Z</time>
      </trkpt>
      <trkpt lat="43.74652" lon="7.28735">
        <ele>77.39</ele>
        <time>2024-01-31T18:21:17Z</time>
      </trkpt>
      <trkpt lat="43.74646" lon="7.28742">
        <ele>76.91</ele>
        <time>2024-01-31T18:21:18Z</time>
      </trkpt>
      <trkpt lat="43.74633" lon="7.28751">
        <ele>75.84</ele>
        <time>2024-01-31T18:21:20Z</time>
      </trkpt>
      <trkpt lat="43.74611" lon="7.28754">
        <ele>74.08</ele>
        <time>2024-01-31T18:21:22Z</time>
      </trkpt>
      <trkpt lat="43.74594" lon="7.28746">
        <ele>73.07</ele>
        <time>2024-01-31T18:21:25Z</time>
      </trkpt>
      <trkpt lat="43.74577" lon="7.28734">
        <ele>72.34</ele>
        <time>2024-01-31T18:21:27Z</time>
      </trkpt>
      <trkpt lat="43.74558" lon="7.28731">
        <ele>71.18</ele>
        <time>2024-01-31T18:21:29Z</time>
      </trkpt>
      <trkpt lat="43.745" lon="7.28766">
        <ele>67.49</ele>
        <time>2024-01-31T18:21:37Z</time>
      </trkpt>
      <trkpt lat="43.7448" lon="7.28781">
        <ele>66.16</ele>
        <time>2024-01-31T18:21:40Z</time>
      </trkpt>
      <trkpt lat="43.74459" lon="7.28796">
        <ele>64.98</ele>
        <time>2024-01-31T18:21:43Z</time>
      </trkpt>
      <trkpt lat="43.74411" lon="7.28812">
        <ele>63.78</ele>
        <time>2024-01-31T18:21:49Z</time>
      </trkpt>
      <trkpt lat="43.74353" lon="7.28808">
        <ele>62.6</ele>
        <time>2024-01-31T18:21:57Z</time>
      </trkpt>
      <trkpt lat="43.74339" lon="7.28807">
        <ele>62.3</ele>
        <time>2024-01-31T18:21:59Z</time>
      </trkpt>
      <trkpt lat="43.74317" lon="7.28805">
        <ele>61.96</ele>
        <time>2024-01-31T18:22:03Z</time>
      </trkpt>
      <trkpt lat="43.74285" lon="7.28802">
        <ele>61.59</ele>
        <time>2024-01-31T18:22:08Z</time>
      </trkpt>
      <trkpt lat="43.74266" lon="7.28803">
        <ele>61.28</ele>
        <time>2024-01-31T18:22:11Z</time>
      </trkpt>
      <trkpt lat="43.74256" lon="7.28801">
        <ele>61.18</ele>
        <time>2024-01-31T18:22:12Z</time>
      </trkpt>
      <trkpt lat="43.74144" lon="7.2879">
        <ele>59.7</ele>
        <time>2024-01-31T18:22:29Z</time>
      </trkpt>
      <trkpt lat="43.74086" lon="7.28786">
        <ele>59</ele>
        <time>2024-01-31T18:22:37Z</time>
      </trkpt>
      <trkpt lat="43.74" lon="7.28774">
        <ele>57.7</ele>
        <time>2024-01-31T18:22:49Z</time>
      </trkpt>
      <trkpt lat="43.73976" lon="7.28766">
        <ele>57.49</ele>
        <time>2024-01-31T18:22:53Z</time>
      </trkpt>
      <trkpt lat="43.73957" lon="7.28748">
        <ele>57.09</ele>
        <time>2024-01-31T18:22:56Z</time>
      </trkpt>
      <trkpt lat="43.73953" lon="7.28741">
        <ele>56.82</ele>
        <time>2024-01-31T18:22:57Z</time>
      </trkpt>
      <trkpt lat="43.73946" lon="7.28739">
        <ele>56.75</ele>
        <time>2024-01-31T18:22:58Z</time>
      </trkpt>
      <trkpt lat="43.73942" lon="7.28742">
        <ele>56.87</ele>
        <time>2024-01-31T18:22:59Z</time>
      </trkpt>
      <trkpt lat="43.73933" lon="7.28736">
        <ele>56.4</ele>
        <time>2024-01-31T18:23:00Z</time>
      </trkpt>
      <trkpt lat="43.73867" lon="7.2871">
        <ele>54.93</ele>
        <time>2024-01-31T18:23:10Z</time>
      </trkpt>
      <trkpt lat="43.73847" lon="7.287">
        <ele>54.69</ele>
        <time>2024-01-31T18:23:13Z</time>
      </trkpt>
      <trkpt lat="43.73821" lon="7.28696">
        <ele>54.31</ele>
        <time>2024-01-31T18:23:17Z</time>
      </trkpt>
      <trkpt lat="43.73757" lon="7.28707">
        <ele>53.75</ele>
        <time>2024-01-31T18:23:26Z</time>
      </trkpt>
      <trkpt lat="43.73748" lon="7.28704">
        <ele>53.66</ele>
        <time>2024-01-31T18:23:28Z</time>
      </trkpt>
      <trkpt lat="43.73744" lon="7.28708">
        <ele>53.6</ele>
        <time>2024-01-31T18:23:29Z</time>
      </trkpt>
      <trkpt lat="43.73723" lon="7.28711">
        <ele>53.29</ele>
        <time>2024-01-31T18:23:32Z</time>
      </trkpt>
      <trkpt lat="43.7371" lon="7.28711">
        <ele>53.11</ele>
        <time>2024-01-31T18:23:34Z</time>
      </trkpt>
      <trkpt lat="43.73666" lon="7.28725">
        <ele>52.42</ele>
        <time>2024-01-31T18:23:41Z</time>
      </trkpt>
      <trkpt lat="43.73646" lon="7.2873">
        <ele>52.26</ele>
        <time>2024-01-31T18:23:44Z</time>
      </trkpt>
      <trkpt lat="43.73642" lon="7.28727">
        <ele>51.42</ele>
        <time>2024-01-31T18:23:45Z</time>
      </trkpt>
      <trkpt lat="43.73637" lon="7.28728">
        <ele>51.41</ele>
        <time>2024-01-31T18:23:46Z</time>
      </trkpt>
      <trkpt lat="43.73634" lon="7.28736">
        <ele>52.07</ele>
        <time>2024-01-31T18:23:47Z</time>
      </trkpt>
      <trkpt lat="43.73621" lon="7.28749">
        <ele>51.77</ele>
        <time>2024-01-31T18:23:50Z</time>
      </trkpt>
      <trkpt lat="43.73565" lon="7.28772">
        <ele>51.08</ele>
        <time>2024-01-31T18:24:02Z</time>
      </trkpt>
      <trkpt lat="43.73539" lon="7.28777">
        <ele>50.71</ele>
        <time>2024-01-31T18:24:08Z</time>
      </trkpt>
      <trkpt lat="43.73516" lon="7.28776">
        <ele>50.42</ele>
        <time>2024-01-31T18:24:12Z</time>
      </trkpt>
      <trkpt lat="43.73498" lon="7.28771">
        <ele>50.04</ele>
        <time>2024-01-31T18:24:15Z</time>
      </trkpt>
      <trkpt lat="43.73482" lon="7.28763">
        <ele>49.75</ele>
        <time>2024-01-31T18:24:18Z</time>
      </trkpt>
      <trkpt lat="43.73462" lon="7.28742">
        <ele>49.33</ele>
        <time>2024-01-31T18:24:23Z</time>
      </trkpt>
      <trkpt lat="43.73449" lon="7.2872">
        <ele>48.99</ele>
        <time>2024-01-31T18:24:27Z</time>
      </trkpt>
      <trkpt lat="43.73437" lon="7.28664">
        <ele>48.59</ele>
        <time>2024-01-31T18:24:34Z</time>
      </trkpt>
      <trkpt lat="43.73417" lon="7.28582">
        <ele>47.64</ele>
        <time>2024-01-31T18:24:44Z</time>
      </trkpt>
      <trkpt lat="43.73415" lon="7.28576">
        <ele>47.64</ele>
        <time>2024-01-31T18:24:45Z</time>
      </trkpt>
      <trkpt lat="43.73405" lon="7.28543">
        <ele>47.65</ele>
        <time>2024-01-31T18:24:48Z</time>
      </trkpt>
      <trkpt lat="43.73397" lon="7.28529">
        <ele>47.37</ele>
        <time>2024-01-31T18:24:50Z</time>
      </trkpt>
      <trkpt lat="43.7337" lon="7.28494">
        <ele>47.15</ele>
        <time>2024-01-31T18:24:55Z</time>
      </trkpt>
      <trkpt lat="43.7335" lon="7.28482">
        <ele>46.86</ele>
        <time>2024-01-31T18:24:58Z</time>
      </trkpt>
      <trkpt lat="43.73338" lon="7.2848">
        <ele>46.46</ele>
        <time>2024-01-31T18:24:59Z</time>
      </trkpt>
      <trkpt lat="43.73284" lon="7.28474">
        <ele>46.43</ele>
        <time>2024-01-31T18:25:07Z</time>
      </trkpt>
      <trkpt lat="43.73225" lon="7.28471">
        <ele>45.95</ele>
        <time>2024-01-31T18:25:15Z</time>
      </trkpt>
      <trkpt lat="43.73216" lon="7.28467">
        <ele>45.84</ele>
        <time>2024-01-31T18:25:16Z</time>
      </trkpt>
      <trkpt lat="43.73191" lon="7.28455">
        <ele>45.23</ele>
        <time>2024-01-31T18:25:19Z</time>
      </trkpt>
      <trkpt lat="43.73167" lon="7.28441">
        <ele>44.71</ele>
        <time>2024-01-31T18:25:23Z</time>
      </trkpt>
      <trkpt lat="43.73134" lon="7.28408">
        <ele>44.27</ele>
        <time>2024-01-31T18:25:29Z</time>
      </trkpt>
      <trkpt lat="43.73038" lon="7.28264">
        <ele>42.91</ele>
        <time>2024-01-31T18:25:51Z</time>
      </trkpt>
      <trkpt lat="43.73022" lon="7.28243">
        <ele>42.71</ele>
        <time>2024-01-31T18:25:54Z</time>
      </trkpt>
      <trkpt lat="43.73008" lon="7.2823">
        <ele>42.56</ele>
        <time>2024-01-31T18:25:57Z</time>
      </trkpt>
      <trkpt lat="43.72979" lon="7.28213">
        <ele>42.24</ele>
        <time>2024-01-31T18:26:03Z</time>
      </trkpt>
      <trkpt lat="43.72949" lon="7.28202">
        <ele>41.98</ele>
        <time>2024-01-31T18:26:08Z</time>
      </trkpt>
      <trkpt lat="43.72936" lon="7.28201">
        <ele>41.79</ele>
        <time>2024-01-31T18:26:11Z</time>
      </trkpt>
      <trkpt lat="43.72822" lon="7.28215">
        <ele>40.77</ele>
        <time>2024-01-31T18:26:36Z</time>
      </trkpt>
      <trkpt lat="43.7279" lon="7.28224">
        <ele>40.34</ele>
        <time>2024-01-31T18:26:44Z</time>
      </trkpt>
      <trkpt lat="43.72765" lon="7.28235">
        <ele>40.12</ele>
        <time>2024-01-31T18:26:51Z</time>
      </trkpt>
      <trkpt lat="43.72743" lon="7.2825">
        <ele>39.92</ele>
        <time>2024-01-31T18:26:56Z</time>
      </trkpt>
      <trkpt lat="43.72723" lon="7.28267">
        <ele>39.65</ele>
        <time>2024-01-31T18:27:01Z</time>
      </trkpt>
      <trkpt lat="43.72694" lon="7.28298">
        <ele>39.25</ele>
        <time>2024-01-31T18:27:07Z</time>
      </trkpt>
      <trkpt lat="43.72663" lon="7.28335">
        <ele>38.91</ele>
        <time>2024-01-31T18:27:14Z</time>
      </trkpt>
      <trkpt lat="43.72634" lon="7.28371">
        <ele>38.61</ele>
        <time>2024-01-31T18:27:21Z</time>
      </trkpt>
      <trkpt lat="43.72604" lon="7.28416">
        <ele>38.06</ele>
        <time>2024-01-31T18:27:27Z</time>
      </trkpt>
      <trkpt lat="43.72581" lon="7.28455">
        <ele>37.46</ele>
        <time>2024-01-31T18:27:33Z</time>
      </trkpt>
      <trkpt lat="43.72546" lon="7.2852">
        <ele>36.61</ele>
        <time>2024-01-31T18:27:42Z</time>
      </trkpt>
      <trkpt lat="43.72523" lon="7.28564">
        <ele>36.23</ele>
        <time>2024-01-31T18:27:49Z</time>
      </trkpt>
      <trkpt lat="43.72434" lon="7.28478">
        <ele>35.34</ele>
        <time>2024-01-31T18:28:08Z</time>
      </trkpt>
      <trkpt lat="43.72422" lon="7.28473">
        <ele>35.29</ele>
        <time>2024-01-31T18:28:10Z</time>
      </trkpt>
      <trkpt lat="43.72346" lon="7.28436">
        <ele>35.19</ele>
        <time>2024-01-31T18:28:24Z</time>
      </trkpt>
      <trkpt lat="43.7234" lon="7.28433">
        <ele>35.08</ele>
        <time>2024-01-31T18:28:25Z</time>
      </trkpt>
      <trkpt lat="43.72299" lon="7.28415">
        <ele>33.58</ele>
        <time>2024-01-31T18:28:32Z</time>
      </trkpt>
      <trkpt lat="43.72264" lon="7.28403">
        <ele>32.55</ele>
        <time>2024-01-31T18:28:37Z</time>
      </trkpt>
      <trkpt lat="43.72209" lon="7.28389">
        <ele>30.49</ele>
        <time>2024-01-31T18:28:45Z</time>
      </trkpt>
      <trkpt lat="43.72153" lon="7.28382">
        <ele>29.6</ele>
        <time>2024-01-31T18:28:53Z</time>
      </trkpt>
      <trkpt lat="43.7215" lon="7.28382">
        <ele>29.58</ele>
        <time>2024-01-31T18:28:54Z</time>
      </trkpt>
      <trkpt lat="43.72075" lon="7.28372">
        <ele>28.92</ele>
        <time>2024-01-31T18:29:04Z</time>
      </trkpt>
      <trkpt lat="43.72035" lon="7.28366">
        <ele>28.76</ele>
        <time>2024-01-31T18:29:09Z</time>
      </trkpt>
      <trkpt lat="43.71973" lon="7.28358">
        <ele>28.2</ele>
        <time>2024-01-31T18:29:18Z</time>
      </trkpt>
      <trkpt lat="43.71939" lon="7.2836">
        <ele>28.23</ele>
        <time>2024-01-31T18:29:22Z</time>
      </trkpt>
      <trkpt lat="43.71918" lon="7.2833">
        <ele>27.82</ele>
        <time>2024-01-31T18:29:27Z</time>
      </trkpt>
      <trkpt lat="43.71895" lon="7.28298">
        <ele>27.59</ele>
        <time>2024-01-31T18:29:31Z</time>
      </trkpt>
      <trkpt lat="43.71868" lon="7.28264">
        <ele>27.21</ele>
        <time>2024-01-31T18:29:36Z</time>
      </trkpt>
      <trkpt lat="43.71841" lon="7.28235">
        <ele>27.06</ele>
        <time>2024-01-31T18:29:42Z</time>
      </trkpt>
      <trkpt lat="43.71808" lon="7.28207">
        <ele>26.73</ele>
        <time>2024-01-31T18:29:48Z</time>
      </trkpt>
      <trkpt lat="43.71772" lon="7.2818">
        <ele>26.37</ele>
        <time>2024-01-31T18:29:55Z</time>
      </trkpt>
      <trkpt lat="43.71716" lon="7.28149">
        <ele>25.78</ele>
        <time>2024-01-31T18:30:05Z</time>
      </trkpt>
      <trkpt lat="43.71698" lon="7.28137">
        <ele>25.56</ele>
        <time>2024-01-31T18:30:09Z</time>
      </trkpt>
      <trkpt lat="43.71686" lon="7.28131">
        <ele>25.24</ele>
        <time>2024-01-31T18:30:12Z</time>
      </trkpt>
      <trkpt lat="43.71681" lon="7.2813">
        <ele>25.19</ele>
        <time>2024-01-31T18:30:13Z</time>
      </trkpt>
      <trkpt lat="43.71668" lon="7.28128">
        <ele>25.07</ele>
        <time>2024-01-31T18:30:16Z</time>
      </trkpt>
      <trkpt lat="43.71657" lon="7.28128">
        <ele>24.96</ele>
        <time>2024-01-31T18:30:18Z</time>
      </trkpt>
      <trkpt lat="43.71646" lon="7.28128">
        <ele>24.89</ele>
        <time>2024-01-31T18:30:20Z</time>
      </trkpt>
      <trkpt lat="43.71628" lon="7.28127">
        <ele>24.74</ele>
        <time>2024-01-31T18:30:23Z</time>
      </trkpt>
      <trkpt lat="43.71625" lon="7.28128">
        <ele>24.77</ele>
        <time>2024-01-31T18:30:24Z</time>
      </trkpt>
      <trkpt lat="43.71623" lon="7.28133">
        <ele>24.79</ele>
        <time>2024-01-31T18:30:25Z</time>
      </trkpt>
      <trkpt lat="43.71621" lon="7.28138">
        <ele>24.8</ele>
        <time>2024-01-31T18:30:25Z</time>
      </trkpt>
      <trkpt lat="43.7162" lon="7.28142">
        <ele>24.89</ele>
        <time>2024-01-31T18:30:26Z</time>
      </trkpt>
      <trkpt lat="43.71607" lon="7.28142">
        <ele>24.87</ele>
        <time>2024-01-31T18:30:29Z</time>
      </trkpt>
      <trkpt lat="43.71571" lon="7.28144">
        <ele>24.65</ele>
        <time>2024-01-31T18:30:35Z</time>
      </trkpt>
      <trkpt lat="43.71537" lon="7.28151">
        <ele>24.37</ele>
        <time>2024-01-31T18:30:42Z</time>
      </trkpt>
      <trkpt lat="43.71519" lon="7.28157">
        <ele>24.25</ele>
        <time>2024-01-31T18:30:45Z</time>
      </trkpt>
      <trkpt lat="43.71487" lon="7.28174">
        <ele>23.97</ele>
        <time>2024-01-31T18:30:51Z</time>
      </trkpt>
      <trkpt lat="43.71426" lon="7.28219">
        <ele>23.29</ele>
        <time>2024-01-31T18:31:02Z</time>
      </trkpt>
      <trkpt lat="43.71419" lon="7.28221">
        <ele>23.14</ele>
        <time>2024-01-31T18:31:03Z</time>
      </trkpt>
      <trkpt lat="43.71416" lon="7.28222">
        <ele>23.17</ele>
        <time>2024-01-31T18:31:04Z</time>
      </trkpt>
      <trkpt lat="43.71363" lon="7.28258">
        <ele>23.08</ele>
        <time>2024-01-31T18:31:12Z</time>
      </trkpt>
      <trkpt lat="43.71285" lon="7.28273">
        <ele>22.08</ele>
        <time>2024-01-31T18:31:24Z</time>
      </trkpt>
      <trkpt lat="43.71267" lon="7.28277">
        <ele>21.71</ele>
        <time>2024-01-31T18:31:27Z</time>
      </trkpt>
      <trkpt lat="43.71155" lon="7.28299">
        <ele>20.26</ele>
        <time>2024-01-31T18:31:44Z</time>
      </trkpt>
      <trkpt lat="43.71124" lon="7.28301">
        <ele>19.6</ele>
        <time>2024-01-31T18:31:49Z</time>
      </trkpt>
      <trkpt lat="43.71092" lon="7.28294">
        <ele>19.59</ele>
        <time>2024-01-31T18:31:55Z</time>
      </trkpt>
      <trkpt lat="43.70983" lon="7.28253">
        <ele>18.28</ele>
        <time>2024-01-31T18:32:17Z</time>
      </trkpt>
      <trkpt lat="43.70793" lon="7.28188">
        <ele>16.68</ele>
        <time>2024-01-31T18:32:52Z</time>
      </trkpt>
      <trkpt lat="43.70773" lon="7.28181">
        <ele>16.83</ele>
        <time>2024-01-31T18:32:55Z</time>
      </trkpt>
      <trkpt lat="43.7076" lon="7.28179">
        <ele>16.93</ele>
        <time>2024-01-31T18:32:57Z</time>
      </trkpt>
      <trkpt lat="43.70744" lon="7.28174">
        <ele>16.64</ele>
        <time>2024-01-31T18:33:00Z</time>
      </trkpt>
      <trkpt lat="43.70667" lon="7.28147">
        <ele>15.87</ele>
        <time>2024-01-31T18:33:15Z</time>
      </trkpt>
      <trkpt lat="43.70662" lon="7.28158">
        <ele>16</ele>
        <time>2024-01-31T18:33:17Z</time>
      </trkpt>
      <trkpt lat="43.70658" lon="7.28156">
        <ele>16</ele>
        <time>2024-01-31T18:33:20Z</time>
      </trkpt>
      <trkpt lat="43.70626" lon="7.28196">
        <ele>16.65</ele>
        <time>2024-01-31T18:33:29Z</time>
      </trkpt>
      <trkpt lat="43.70616" lon="7.28222">
        <ele>16.21</ele>
        <time>2024-01-31T18:33:34Z</time>
      </trkpt>
      <trkpt lat="43.70609" lon="7.28241">
        <ele>15.86</ele>
        <time>2024-01-31T18:33:37Z</time>
      </trkpt>
      <trkpt lat="43.70622" lon="7.28252">
        <ele>15.94</ele>
        <time>2024-01-31T18:33:41Z</time>
      </trkpt>
      <trkpt lat="43.70663" lon="7.28277">
        <ele>16.36</ele>
        <time>2024-01-31T18:33:51Z</time>
      </trkpt>
      <trkpt lat="43.70647" lon="7.28335">
        <ele>16.42</ele>
        <time>2024-01-31T18:34:01Z</time>
      </trkpt>
      <trkpt lat="43.70602" lon="7.28484">
        <ele>14.94</ele>
        <time>2024-01-31T18:34:22Z</time>
      </trkpt>
      <trkpt lat="43.70555" lon="7.28446">
        <ele>14.67</ele>
        <time>2024-01-31T18:34:32Z</time>
      </trkpt>
      <trkpt lat="43.7055" lon="7.28437">
        <ele>14.85</ele>
        <time>2024-01-31T18:34:33Z</time>
      </trkpt>
      <trkpt lat="43.70535" lon="7.28485">
        <ele>14.55</ele>
        <time>2024-01-31T18:34:39Z</time>
      </trkpt>
      <trkpt lat="43.70478" lon="7.28452">
        <ele>13.96</ele>
        <time>2024-01-31T18:34:50Z</time>
      </trkpt>
      <trkpt lat="43.70417" lon="7.28415">
        <ele>13.18</ele>
        <time>2024-01-31T18:35:01Z</time>
      </trkpt>
      <trkpt lat="43.70367" lon="7.28386">
        <ele>12.52</ele>
        <time>2024-01-31T18:35:10Z</time>
      </trkpt>
      <trkpt lat="43.70345" lon="7.28458">
        <ele>12.23</ele>
        <time>2024-01-31T18:35:20Z</time>
      </trkpt>
      <trkpt lat="43.70337" lon="7.28486">
        <ele>11.95</ele>
        <time>2024-01-31T18:35:24Z</time>
      </trkpt>
      <trkpt lat="43.70321" lon="7.28539">
        <ele>11.65</ele>
        <time>2024-01-31T18:35:31Z</time>
      </trkpt>
      <trkpt lat="43.70309" lon="7.28578">
        <ele>11.53</ele>
        <time>2024-01-31T18:35:36Z</time>
      </trkpt>
      <trkpt lat="43.70286" lon="7.28652">
        <ele>11.27</ele>
        <time>2024-01-31T18:35:46Z</time>
      </trkpt>
      <trkpt lat="43.70245" lon="7.28782">
        <ele>11.15</ele>
        <time>2024-01-31T18:36:04Z</time>
      </trkpt>
      <trkpt lat="43.70188" lon="7.28746">
        <ele>10.41</ele>
        <time>2024-01-31T18:36:14Z</time>
      </trkpt>
      <trkpt lat="43.70074" lon="7.28675">
        <ele>9.11</ele>
        <time>2024-01-31T18:36:34Z</time>
      </trkpt>
      <trkpt lat="43.70044" lon="7.28669">
        <ele>8.68</ele>
        <time>2024-01-31T18:36:38Z</time>
      </trkpt>
      <trkpt lat="43.69976" lon="7.28657">
        <ele>8.14</ele>
        <time>2024-01-31T18:36:48Z</time>
      </trkpt>
      <trkpt lat="43.69909" lon="7.28645">
        <ele>7.55</ele>
        <time>2024-01-31T18:36:57Z</time>
      </trkpt>
      <trkpt lat="43.69866" lon="7.28638">
        <ele>6.88</ele>
        <time>2024-01-31T18:37:03Z</time>
      </trkpt>
      <trkpt lat="43.69856" lon="7.28637">
        <ele>6.93</ele>
        <time>2024-01-31T18:37:04Z</time>
      </trkpt>
      <trkpt lat="43.6984" lon="7.28634">
        <ele>7.13</ele>
        <time>2024-01-31T18:37:06Z</time>
      </trkpt>
      <trkpt lat="43.69834" lon="7.28639">
        <ele>7.24</ele>
        <time>2024-01-31T18:37:07Z</time>
      </trkpt>
      <trkpt lat="43.69833" lon="7.28628">
        <ele>7.08</ele>
        <time>2024-01-31T18:37:08Z</time>
      </trkpt>
      <trkpt lat="43.69841" lon="7.28553">
        <ele>6.91</ele>
        <time>2024-01-31T18:37:16Z</time>
      </trkpt>
      <trkpt lat="43.69845" lon="7.28511">
        <ele>6.87</ele>
        <time>2024-01-31T18:37:20Z</time>
      </trkpt>
      <trkpt lat="43.69852" lon="7.28416">
        <ele>6.86</ele>
        <time>2024-01-31T18:37:29Z</time>
      </trkpt>
      <trkpt lat="43.69846" lon="7.28397">
        <ele>6.62</ele>
        <time>2024-01-31T18:37:31Z</time>
      </trkpt>
      <trkpt lat="43.69843" lon="7.28392">
        <ele>6.65</ele>
        <time>2024-01-31T18:37:32Z</time>
      </trkpt>
      <trkpt lat="43.69833" lon="7.28383">
        <ele>6.48</ele>
        <time>2024-01-31T18:37:34Z</time>
      </trkpt>
      <trkpt lat="43.69746" lon="7.28367">
        <ele>4.34</ele>
        <time>2024-01-31T18:37:49Z</time>
      </trkpt>
      <trkpt lat="43.69703" lon="7.2836">
        <ele>3.63</ele>
        <time>2024-01-31T18:37:57Z</time>
      </trkpt>
      <trkpt lat="43.69673" lon="7.28358">
        <ele>4.22</ele>
        <time>2024-01-31T18:38:03Z</time>
      </trkpt>
      <trkpt lat="43.69623" lon="7.2835">
        <ele>4.59</ele>
        <time>2024-01-31T18:38:13Z</time>
      </trkpt>
      <trkpt lat="43.69558" lon="7.28338">
        <ele>4.19</ele>
        <time>2024-01-31T18:38:26Z</time>
      </trkpt>
      <trkpt lat="43.69505" lon="7.28323">
        <ele>4.21</ele>
        <time>2024-01-31T18:38:38Z</time>
      </trkpt>
      <trkpt lat="43.69422" lon="7.28293">
        <ele>6.53</ele>
        <time>2024-01-31T18:38:55Z</time>
      </trkpt>
      <trkpt lat="43.69409" lon="7.28284">
        <ele>7.21</ele>
        <time>2024-01-31T18:38:57Z</time>
      </trkpt>
      <trkpt lat="43.69378" lon="7.28241">
        <ele>9.93</ele>
        <time>2024-01-31T18:39:05Z</time>
      </trkpt>
      <trkpt lat="43.6938" lon="7.2824">
        <ele>9.92</ele>
        <time>2024-01-31T18:39:05Z</time>
      </trkpt>
      <trkpt lat="43.69374" lon="7.28232">
        <ele>10.14</ele>
        <time>2024-01-31T18:39:06Z</time>
      </trkpt>
      <trkpt lat="43.69334" lon="7.28173">
        <ele>11.67</ele>
        <time>2024-01-31T18:39:19Z</time>
      </trkpt>
      <trkpt lat="43.69325" lon="7.28156">
        <ele>11.9</ele>
        <time>2024-01-31T18:39:22Z</time>
      </trkpt>
      <trkpt lat="43.69319" lon="7.28137">
        <ele>11.98</ele>
        <time>2024-01-31T18:39:26Z</time>
      </trkpt>
      <trkpt lat="43.69313" lon="7.28103">
        <ele>12.87</ele>
        <time>2024-01-31T18:39:32Z</time>
      </trkpt>
      <trkpt lat="43.69316" lon="7.28078">
        <ele>13.35</ele>
        <time>2024-01-31T18:39:37Z</time>
      </trkpt>
      <trkpt lat="43.69358" lon="7.27953">
        <ele>13.75</ele>
        <time>2024-01-31T18:40:02Z</time>
      </trkpt>
      <trkpt lat="43.69364" lon="7.27928">
        <ele>13.77</ele>
        <time>2024-01-31T18:40:07Z</time>
      </trkpt>
      <trkpt lat="43.69365" lon="7.27925">
        <ele>13.78</ele>
        <time>2024-01-31T18:40:08Z</time>
      </trkpt>
    </trkseg>
  </trk>
</gpx>